<?xml version="1.0" encoding="UTF-8" standalone="no" ?>
<gpx xmlns="http://www.topografix.com/GPX/1/1" xmlns:xsi="http://www.w3.org/2001/XMLSchema-instance" xsi:schemaLocation="http://www.topografix.com/GPX/1/1 http://www.topografix.com/GPX/1/1/gpx.xsd" version="1.1" creator="VisuGPX - https://www.visugpx.com">
  <metadata>
    <name>stco 21/01/2018</name>
    <desc><![CDATA[Type : 	
[Windsurf (Freeride)] 	
Date : 	21/01/2018 [Dimanche]
Spot : 	
  	Saint-Colomban (France, Morbihan, Carnac)
Début : 	13:25
Fin : 	15:45
Durée : 	2h20mn
Vent : 	16 à 20 nds Ouest
Note : 	7/10]]></desc>
  </metadata>
  <trk>
    <name><![CDATA[stco 21/01/2018_1]]></name>
    <trkseg>
      <trkpt lat="47.5701" lon="-3.10002">
        <ele>4.6</ele>
        <time>2018-01-21T12:42:19.000Z</time>
      </trkpt>
      <trkpt lat="47.57012" lon="-3.10008">
        <ele>4.7</ele>
        <time>2018-01-21T12:42:20.000Z</time>
      </trkpt>
      <trkpt lat="47.57016" lon="-3.10012">
        <ele>5</ele>
        <time>2018-01-21T12:42:21.000Z</time>
      </trkpt>
      <trkpt lat="47.57017" lon="-3.10013">
        <ele>5.1</ele>
        <time>2018-01-21T12:42:22.000Z</time>
      </trkpt>
      <trkpt lat="47.57018" lon="-3.10014">
        <ele>5.1</ele>
        <time>2018-01-21T12:42:23.000Z</time>
      </trkpt>
      <trkpt lat="47.57024" lon="-3.10025">
        <ele>5.6</ele>
        <time>2018-01-21T12:42:24.000Z</time>
      </trkpt>
      <trkpt lat="47.57024" lon="-3.10024">
        <ele>5.6</ele>
        <time>2018-01-21T12:42:25.000Z</time>
      </trkpt>
      <trkpt lat="47.57012" lon="-3.10004">
        <ele>4.8</ele>
        <time>2018-01-21T12:42:26.000Z</time>
      </trkpt>
      <trkpt lat="47.5701" lon="-3.10001">
        <ele>4.7</ele>
        <time>2018-01-21T12:42:28.000Z</time>
      </trkpt>
      <trkpt lat="47.5701" lon="-3.1">
        <ele>4.7</ele>
        <time>2018-01-21T12:42:29.000Z</time>
      </trkpt>
      <trkpt lat="47.57012" lon="-3.10002">
        <ele>4.8</ele>
        <time>2018-01-21T12:42:30.000Z</time>
      </trkpt>
      <trkpt lat="47.57014" lon="-3.10004">
        <ele>4.9</ele>
        <time>2018-01-21T12:42:31.000Z</time>
      </trkpt>
      <trkpt lat="47.57015" lon="-3.10005">
        <ele>5</ele>
        <time>2018-01-21T12:42:32.000Z</time>
      </trkpt>
      <trkpt lat="47.57013" lon="-3.10004">
        <ele>4.8</ele>
        <time>2018-01-21T12:42:33.000Z</time>
      </trkpt>
      <trkpt lat="47.57013" lon="-3.10005">
        <ele>4.8</ele>
        <time>2018-01-21T12:42:34.000Z</time>
      </trkpt>
      <trkpt lat="47.57011" lon="-3.10003">
        <ele>4.7</ele>
        <time>2018-01-21T12:42:35.000Z</time>
      </trkpt>
      <trkpt lat="47.5701" lon="-3.10002">
        <ele>4.6</ele>
        <time>2018-01-21T12:42:36.000Z</time>
      </trkpt>
      <trkpt lat="47.57007" lon="-3.1">
        <ele>4.5</ele>
        <time>2018-01-21T12:42:37.000Z</time>
      </trkpt>
      <trkpt lat="47.57007" lon="-3.1">
        <ele>4.5</ele>
        <time>2018-01-21T12:42:38.000Z</time>
      </trkpt>
      <trkpt lat="47.57007" lon="-3.1">
        <ele>4.5</ele>
        <time>2018-01-21T12:42:39.000Z</time>
      </trkpt>
      <trkpt lat="47.57007" lon="-3.1">
        <ele>4.5</ele>
        <time>2018-01-21T12:42:40.000Z</time>
      </trkpt>
      <trkpt lat="47.57008" lon="-3.1">
        <ele>4.6</ele>
        <time>2018-01-21T12:42:41.000Z</time>
      </trkpt>
      <trkpt lat="47.57008" lon="-3.1">
        <ele>4.6</ele>
        <time>2018-01-21T12:42:42.000Z</time>
      </trkpt>
      <trkpt lat="47.57008" lon="-3.1">
        <ele>4.5</ele>
        <time>2018-01-21T12:42:43.000Z</time>
      </trkpt>
      <trkpt lat="47.57008" lon="-3.09999">
        <ele>4.6</ele>
        <time>2018-01-21T12:42:44.000Z</time>
      </trkpt>
      <trkpt lat="47.57008" lon="-3.09999">
        <ele>4.6</ele>
        <time>2018-01-21T12:42:45.000Z</time>
      </trkpt>
      <trkpt lat="47.57008" lon="-3.09997">
        <ele>4.7</ele>
        <time>2018-01-21T12:42:46.000Z</time>
      </trkpt>
      <trkpt lat="47.57011" lon="-3.09999">
        <ele>4.9</ele>
        <time>2018-01-21T12:42:47.000Z</time>
      </trkpt>
      <trkpt lat="47.57011" lon="-3.09999">
        <ele>4.9</ele>
        <time>2018-01-21T12:42:48.000Z</time>
      </trkpt>
      <trkpt lat="47.57012" lon="-3.09999">
        <ele>4.9</ele>
        <time>2018-01-21T12:42:49.000Z</time>
      </trkpt>
      <trkpt lat="47.57012" lon="-3.09998">
        <ele>4.9</ele>
        <time>2018-01-21T12:42:50.000Z</time>
      </trkpt>
      <trkpt lat="47.57012" lon="-3.09998">
        <ele>4.9</ele>
        <time>2018-01-21T12:42:51.000Z</time>
      </trkpt>
      <trkpt lat="47.57012" lon="-3.09998">
        <ele>4.9</ele>
        <time>2018-01-21T12:42:52.000Z</time>
      </trkpt>
      <trkpt lat="47.57012" lon="-3.09998">
        <ele>4.9</ele>
        <time>2018-01-21T12:42:53.000Z</time>
      </trkpt>
      <trkpt lat="47.57012" lon="-3.09998">
        <ele>4.9</ele>
        <time>2018-01-21T12:42:54.000Z</time>
      </trkpt>
      <trkpt lat="47.57012" lon="-3.09998">
        <ele>4.9</ele>
        <time>2018-01-21T12:42:55.000Z</time>
      </trkpt>
      <trkpt lat="47.57012" lon="-3.09998">
        <ele>4.9</ele>
        <time>2018-01-21T12:42:56.000Z</time>
      </trkpt>
      <trkpt lat="47.57012" lon="-3.09998">
        <ele>4.9</ele>
        <time>2018-01-21T12:42:57.000Z</time>
      </trkpt>
      <trkpt lat="47.5701" lon="-3.09998">
        <ele>4.8</ele>
        <time>2018-01-21T12:42:58.000Z</time>
      </trkpt>
      <trkpt lat="47.5701" lon="-3.09997">
        <ele>4.8</ele>
        <time>2018-01-21T12:42:59.000Z</time>
      </trkpt>
      <trkpt lat="47.5701" lon="-3.09998">
        <ele>4.8</ele>
        <time>2018-01-21T12:43:00.000Z</time>
      </trkpt>
      <trkpt lat="47.57009" lon="-3.09997">
        <ele>4.8</ele>
        <time>2018-01-21T12:43:01.000Z</time>
      </trkpt>
      <trkpt lat="47.57009" lon="-3.09996">
        <ele>4.8</ele>
        <time>2018-01-21T12:43:02.000Z</time>
      </trkpt>
      <trkpt lat="47.57009" lon="-3.09998">
        <ele>4.7</ele>
        <time>2018-01-21T12:43:03.000Z</time>
      </trkpt>
      <trkpt lat="47.5701" lon="-3.09998">
        <ele>4.8</ele>
        <time>2018-01-21T12:43:04.000Z</time>
      </trkpt>
      <trkpt lat="47.5701" lon="-3.09998">
        <ele>4.8</ele>
        <time>2018-01-21T12:43:05.000Z</time>
      </trkpt>
      <trkpt lat="47.5701" lon="-3.09999">
        <ele>4.8</ele>
        <time>2018-01-21T12:43:06.000Z</time>
      </trkpt>
      <trkpt lat="47.57011" lon="-3.1">
        <ele>4.8</ele>
        <time>2018-01-21T12:43:07.000Z</time>
      </trkpt>
      <trkpt lat="47.57011" lon="-3.1">
        <ele>4.8</ele>
        <time>2018-01-21T12:43:08.000Z</time>
      </trkpt>
      <trkpt lat="47.57011" lon="-3.1">
        <ele>4.8</ele>
        <time>2018-01-21T12:43:09.000Z</time>
      </trkpt>
      <trkpt lat="47.57011" lon="-3.1">
        <ele>4.8</ele>
        <time>2018-01-21T12:43:10.000Z</time>
      </trkpt>
      <trkpt lat="47.57011" lon="-3.1">
        <ele>4.8</ele>
        <time>2018-01-21T12:43:11.000Z</time>
      </trkpt>
      <trkpt lat="47.57011" lon="-3.1">
        <ele>4.8</ele>
        <time>2018-01-21T12:43:12.000Z</time>
      </trkpt>
      <trkpt lat="47.57011" lon="-3.1">
        <ele>4.8</ele>
        <time>2018-01-21T12:43:13.000Z</time>
      </trkpt>
      <trkpt lat="47.57011" lon="-3.1">
        <ele>4.8</ele>
        <time>2018-01-21T12:43:14.000Z</time>
      </trkpt>
      <trkpt lat="47.57011" lon="-3.1">
        <ele>4.8</ele>
        <time>2018-01-21T12:43:15.000Z</time>
      </trkpt>
      <trkpt lat="47.57011" lon="-3.1">
        <ele>4.8</ele>
        <time>2018-01-21T12:43:16.000Z</time>
      </trkpt>
      <trkpt lat="47.57011" lon="-3.1">
        <ele>4.8</ele>
        <time>2018-01-21T12:43:17.000Z</time>
      </trkpt>
      <trkpt lat="47.57011" lon="-3.1">
        <ele>4.8</ele>
        <time>2018-01-21T12:43:18.000Z</time>
      </trkpt>
      <trkpt lat="47.57011" lon="-3.1">
        <ele>4.8</ele>
        <time>2018-01-21T12:43:19.000Z</time>
      </trkpt>
      <trkpt lat="47.57011" lon="-3.1">
        <ele>4.8</ele>
        <time>2018-01-21T12:43:20.000Z</time>
      </trkpt>
      <trkpt lat="47.57011" lon="-3.1">
        <ele>4.8</ele>
        <time>2018-01-21T12:43:21.000Z</time>
      </trkpt>
      <trkpt lat="47.57012" lon="-3.10003">
        <ele>4.8</ele>
        <time>2018-01-21T12:43:22.000Z</time>
      </trkpt>
      <trkpt lat="47.57012" lon="-3.10002">
        <ele>4.8</ele>
        <time>2018-01-21T12:43:23.000Z</time>
      </trkpt>
      <trkpt lat="47.57012" lon="-3.10002">
        <ele>4.8</ele>
        <time>2018-01-21T12:43:24.000Z</time>
      </trkpt>
      <trkpt lat="47.57013" lon="-3.10002">
        <ele>4.9</ele>
        <time>2018-01-21T12:43:25.000Z</time>
      </trkpt>
      <trkpt lat="47.57014" lon="-3.10002">
        <ele>5</ele>
        <time>2018-01-21T12:43:26.000Z</time>
      </trkpt>
      <trkpt lat="47.57015" lon="-3.10002">
        <ele>5</ele>
        <time>2018-01-21T12:43:27.000Z</time>
      </trkpt>
      <trkpt lat="47.57017" lon="-3.10003">
        <ele>5.2</ele>
        <time>2018-01-21T12:43:28.000Z</time>
      </trkpt>
      <trkpt lat="47.57018" lon="-3.10002">
        <ele>5.2</ele>
        <time>2018-01-21T12:43:29.000Z</time>
      </trkpt>
      <trkpt lat="47.57019" lon="-3.10002">
        <ele>5.3</ele>
        <time>2018-01-21T12:43:30.000Z</time>
      </trkpt>
      <trkpt lat="47.5702" lon="-3.10003">
        <ele>5.4</ele>
        <time>2018-01-21T12:43:31.000Z</time>
      </trkpt>
      <trkpt lat="47.5702" lon="-3.10003">
        <ele>5.4</ele>
        <time>2018-01-21T12:43:32.000Z</time>
      </trkpt>
      <trkpt lat="47.5702" lon="-3.10003">
        <ele>5.4</ele>
        <time>2018-01-21T12:43:33.000Z</time>
      </trkpt>
      <trkpt lat="47.5702" lon="-3.10003">
        <ele>5.4</ele>
        <time>2018-01-21T12:43:34.000Z</time>
      </trkpt>
      <trkpt lat="47.57029" lon="-3.1001">
        <ele>6</ele>
        <time>2018-01-21T12:43:35.000Z</time>
      </trkpt>
      <trkpt lat="47.57028" lon="-3.1001">
        <ele>6</ele>
        <time>2018-01-21T12:43:36.000Z</time>
      </trkpt>
      <trkpt lat="47.57028" lon="-3.10009">
        <ele>6</ele>
        <time>2018-01-21T12:43:37.000Z</time>
      </trkpt>
      <trkpt lat="47.57029" lon="-3.10009">
        <ele>6</ele>
        <time>2018-01-21T12:43:38.000Z</time>
      </trkpt>
      <trkpt lat="47.57031" lon="-3.10011">
        <ele>6.1</ele>
        <time>2018-01-21T12:43:39.000Z</time>
      </trkpt>
      <trkpt lat="47.5703" lon="-3.10011">
        <ele>6.1</ele>
        <time>2018-01-21T12:43:40.000Z</time>
      </trkpt>
      <trkpt lat="47.57029" lon="-3.10011">
        <ele>6</ele>
        <time>2018-01-21T12:43:41.000Z</time>
      </trkpt>
      <trkpt lat="47.57029" lon="-3.10012">
        <ele>6</ele>
        <time>2018-01-21T12:43:42.000Z</time>
      </trkpt>
      <trkpt lat="47.57028" lon="-3.10012">
        <ele>6</ele>
        <time>2018-01-21T12:43:43.000Z</time>
      </trkpt>
      <trkpt lat="47.57027" lon="-3.10011">
        <ele>6</ele>
        <time>2018-01-21T12:43:44.000Z</time>
      </trkpt>
      <trkpt lat="47.57027" lon="-3.10011">
        <ele>6</ele>
        <time>2018-01-21T12:43:45.000Z</time>
      </trkpt>
      <trkpt lat="47.57027" lon="-3.10011">
        <ele>5.9</ele>
        <time>2018-01-21T12:43:46.000Z</time>
      </trkpt>
      <trkpt lat="47.57027" lon="-3.10011">
        <ele>6</ele>
        <time>2018-01-21T12:43:47.000Z</time>
      </trkpt>
      <trkpt lat="47.57028" lon="-3.10012">
        <ele>6</ele>
        <time>2018-01-21T12:43:48.000Z</time>
      </trkpt>
      <trkpt lat="47.57026" lon="-3.10011">
        <ele>5.9</ele>
        <time>2018-01-21T12:43:49.000Z</time>
      </trkpt>
      <trkpt lat="47.57027" lon="-3.10012">
        <ele>5.9</ele>
        <time>2018-01-21T12:43:50.000Z</time>
      </trkpt>
      <trkpt lat="47.57026" lon="-3.10012">
        <ele>5.9</ele>
        <time>2018-01-21T12:43:51.000Z</time>
      </trkpt>
      <trkpt lat="47.57026" lon="-3.10013">
        <ele>5.9</ele>
        <time>2018-01-21T12:43:52.000Z</time>
      </trkpt>
      <trkpt lat="47.57028" lon="-3.10015">
        <ele>6</ele>
        <time>2018-01-21T12:43:53.000Z</time>
      </trkpt>
      <trkpt lat="47.57027" lon="-3.10016">
        <ele>5.9</ele>
        <time>2018-01-21T12:43:54.000Z</time>
      </trkpt>
      <trkpt lat="47.57026" lon="-3.10018">
        <ele>5.8</ele>
        <time>2018-01-21T12:43:55.000Z</time>
      </trkpt>
      <trkpt lat="47.57026" lon="-3.10023">
        <ele>5.8</ele>
        <time>2018-01-21T12:43:56.000Z</time>
      </trkpt>
      <trkpt lat="47.57025" lon="-3.10025">
        <ele>5.7</ele>
        <time>2018-01-21T12:43:57.000Z</time>
      </trkpt>
      <trkpt lat="47.57025" lon="-3.10028">
        <ele>5.7</ele>
        <time>2018-01-21T12:43:58.000Z</time>
      </trkpt>
      <trkpt lat="47.57025" lon="-3.1003">
        <ele>5.8</ele>
        <time>2018-01-21T12:43:59.000Z</time>
      </trkpt>
      <trkpt lat="47.57024" lon="-3.10032">
        <ele>5.8</ele>
        <time>2018-01-21T12:44:00.000Z</time>
      </trkpt>
      <trkpt lat="47.57023" lon="-3.10033">
        <ele>5.7</ele>
        <time>2018-01-21T12:44:01.000Z</time>
      </trkpt>
      <trkpt lat="47.57022" lon="-3.10034">
        <ele>5.7</ele>
        <time>2018-01-21T12:44:02.000Z</time>
      </trkpt>
      <trkpt lat="47.57021" lon="-3.10035">
        <ele>5.6</ele>
        <time>2018-01-21T12:44:03.000Z</time>
      </trkpt>
      <trkpt lat="47.57021" lon="-3.10036">
        <ele>5.7</ele>
        <time>2018-01-21T12:44:04.000Z</time>
      </trkpt>
      <trkpt lat="47.57022" lon="-3.10038">
        <ele>5.9</ele>
        <time>2018-01-21T12:44:05.000Z</time>
      </trkpt>
      <trkpt lat="47.57021" lon="-3.10039">
        <ele>5.9</ele>
        <time>2018-01-21T12:44:06.000Z</time>
      </trkpt>
      <trkpt lat="47.57022" lon="-3.10041">
        <ele>6</ele>
        <time>2018-01-21T12:44:07.000Z</time>
      </trkpt>
      <trkpt lat="47.57021" lon="-3.10043">
        <ele>6.1</ele>
        <time>2018-01-21T12:44:08.000Z</time>
      </trkpt>
      <trkpt lat="47.5702" lon="-3.10043">
        <ele>6</ele>
        <time>2018-01-21T12:44:09.000Z</time>
      </trkpt>
      <trkpt lat="47.5702" lon="-3.10044">
        <ele>5.9</ele>
        <time>2018-01-21T12:44:10.000Z</time>
      </trkpt>
      <trkpt lat="47.5702" lon="-3.10046">
        <ele>6.1</ele>
        <time>2018-01-21T12:44:11.000Z</time>
      </trkpt>
      <trkpt lat="47.57021" lon="-3.10048">
        <ele>6.3</ele>
        <time>2018-01-21T12:44:12.000Z</time>
      </trkpt>
      <trkpt lat="47.57021" lon="-3.10049">
        <ele>6.4</ele>
        <time>2018-01-21T12:44:13.000Z</time>
      </trkpt>
      <trkpt lat="47.57021" lon="-3.1005">
        <ele>6.5</ele>
        <time>2018-01-21T12:44:14.000Z</time>
      </trkpt>
      <trkpt lat="47.57022" lon="-3.10051">
        <ele>6.7</ele>
        <time>2018-01-21T12:44:15.000Z</time>
      </trkpt>
      <trkpt lat="47.57022" lon="-3.10052">
        <ele>6.8</ele>
        <time>2018-01-21T12:44:16.000Z</time>
      </trkpt>
      <trkpt lat="47.57023" lon="-3.10054">
        <ele>7.1</ele>
        <time>2018-01-21T12:44:17.000Z</time>
      </trkpt>
      <trkpt lat="47.57024" lon="-3.10055">
        <ele>7.3</ele>
        <time>2018-01-21T12:44:18.000Z</time>
      </trkpt>
      <trkpt lat="47.57025" lon="-3.10057">
        <ele>7.5</ele>
        <time>2018-01-21T12:44:19.000Z</time>
      </trkpt>
      <trkpt lat="47.57025" lon="-3.10058">
        <ele>7.6</ele>
        <time>2018-01-21T12:44:20.000Z</time>
      </trkpt>
      <trkpt lat="47.57024" lon="-3.1006">
        <ele>7.6</ele>
        <time>2018-01-21T12:44:21.000Z</time>
      </trkpt>
      <trkpt lat="47.57024" lon="-3.10062">
        <ele>7.7</ele>
        <time>2018-01-21T12:44:22.000Z</time>
      </trkpt>
      <trkpt lat="47.57024" lon="-3.10063">
        <ele>7.7</ele>
        <time>2018-01-21T12:44:23.000Z</time>
      </trkpt>
      <trkpt lat="47.57024" lon="-3.10063">
        <ele>7.7</ele>
        <time>2018-01-21T12:44:24.000Z</time>
      </trkpt>
      <trkpt lat="47.57023" lon="-3.10064">
        <ele>7.6</ele>
        <time>2018-01-21T12:44:25.000Z</time>
      </trkpt>
      <trkpt lat="47.57022" lon="-3.10066">
        <ele>7.6</ele>
        <time>2018-01-21T12:44:26.000Z</time>
      </trkpt>
      <trkpt lat="47.57022" lon="-3.10066">
        <ele>7.6</ele>
        <time>2018-01-21T12:44:27.000Z</time>
      </trkpt>
      <trkpt lat="47.57021" lon="-3.10067">
        <ele>7.5</ele>
        <time>2018-01-21T12:44:28.000Z</time>
      </trkpt>
      <trkpt lat="47.5702" lon="-3.10068">
        <ele>7.3</ele>
        <time>2018-01-21T12:44:29.000Z</time>
      </trkpt>
      <trkpt lat="47.57018" lon="-3.1007">
        <ele>7</ele>
        <time>2018-01-21T12:44:30.000Z</time>
      </trkpt>
      <trkpt lat="47.57017" lon="-3.10072">
        <ele>6.7</ele>
        <time>2018-01-21T12:44:31.000Z</time>
      </trkpt>
      <trkpt lat="47.57016" lon="-3.10072">
        <ele>6.5</ele>
        <time>2018-01-21T12:44:32.000Z</time>
      </trkpt>
      <trkpt lat="47.57015" lon="-3.10074">
        <ele>6.3</ele>
        <time>2018-01-21T12:44:33.000Z</time>
      </trkpt>
      <trkpt lat="47.57013" lon="-3.10074">
        <ele>6</ele>
        <time>2018-01-21T12:44:34.000Z</time>
      </trkpt>
      <trkpt lat="47.57012" lon="-3.10074">
        <ele>5.7</ele>
        <time>2018-01-21T12:44:35.000Z</time>
      </trkpt>
      <trkpt lat="47.57011" lon="-3.10075">
        <ele>5.4</ele>
        <time>2018-01-21T12:44:36.000Z</time>
      </trkpt>
      <trkpt lat="47.5701" lon="-3.10074">
        <ele>5.2</ele>
        <time>2018-01-21T12:44:37.000Z</time>
      </trkpt>
      <trkpt lat="47.57009" lon="-3.10075">
        <ele>5</ele>
        <time>2018-01-21T12:44:38.000Z</time>
      </trkpt>
      <trkpt lat="47.57008" lon="-3.10076">
        <ele>4.7</ele>
        <time>2018-01-21T12:44:39.000Z</time>
      </trkpt>
      <trkpt lat="47.57006" lon="-3.10077">
        <ele>4.3</ele>
        <time>2018-01-21T12:44:40.000Z</time>
      </trkpt>
      <trkpt lat="47.57004" lon="-3.10077">
        <ele>3.9</ele>
        <time>2018-01-21T12:44:41.000Z</time>
      </trkpt>
      <trkpt lat="47.57002" lon="-3.10078">
        <ele>3.5</ele>
        <time>2018-01-21T12:44:42.000Z</time>
      </trkpt>
      <trkpt lat="47.57001" lon="-3.10078">
        <ele>3.2</ele>
        <time>2018-01-21T12:44:43.000Z</time>
      </trkpt>
      <trkpt lat="47.56998" lon="-3.10077">
        <ele>3</ele>
        <time>2018-01-21T12:44:44.000Z</time>
      </trkpt>
      <trkpt lat="47.56997" lon="-3.10077">
        <ele>3</ele>
        <time>2018-01-21T12:44:45.000Z</time>
      </trkpt>
      <trkpt lat="47.56996" lon="-3.10079">
        <ele>3</ele>
        <time>2018-01-21T12:44:46.000Z</time>
      </trkpt>
      <trkpt lat="47.56995" lon="-3.1008">
        <ele>3</ele>
        <time>2018-01-21T12:44:47.000Z</time>
      </trkpt>
      <trkpt lat="47.56995" lon="-3.10081">
        <ele>3</ele>
        <time>2018-01-21T12:44:48.000Z</time>
      </trkpt>
      <trkpt lat="47.56994" lon="-3.10081">
        <ele>3</ele>
        <time>2018-01-21T12:44:49.000Z</time>
      </trkpt>
      <trkpt lat="47.56993" lon="-3.10082">
        <ele>3</ele>
        <time>2018-01-21T12:44:50.000Z</time>
      </trkpt>
      <trkpt lat="47.56992" lon="-3.10083">
        <ele>3</ele>
        <time>2018-01-21T12:44:51.000Z</time>
      </trkpt>
      <trkpt lat="47.56992" lon="-3.10084">
        <ele>3</ele>
        <time>2018-01-21T12:44:52.000Z</time>
      </trkpt>
      <trkpt lat="47.56993" lon="-3.10085">
        <ele>3.1</ele>
        <time>2018-01-21T12:44:53.000Z</time>
      </trkpt>
      <trkpt lat="47.56993" lon="-3.10084">
        <ele>3</ele>
        <time>2018-01-21T12:44:54.000Z</time>
      </trkpt>
      <trkpt lat="47.56993" lon="-3.10084">
        <ele>3</ele>
        <time>2018-01-21T12:44:55.000Z</time>
      </trkpt>
      <trkpt lat="47.56992" lon="-3.10085">
        <ele>3.1</ele>
        <time>2018-01-21T12:44:56.000Z</time>
      </trkpt>
      <trkpt lat="47.56993" lon="-3.10086">
        <ele>3.2</ele>
        <time>2018-01-21T12:44:57.000Z</time>
      </trkpt>
      <trkpt lat="47.56994" lon="-3.10086">
        <ele>3.2</ele>
        <time>2018-01-21T12:44:58.000Z</time>
      </trkpt>
      <trkpt lat="47.56995" lon="-3.10086">
        <ele>3.2</ele>
        <time>2018-01-21T12:44:59.000Z</time>
      </trkpt>
      <trkpt lat="47.56996" lon="-3.10083">
        <ele>3</ele>
        <time>2018-01-21T12:45:00.000Z</time>
      </trkpt>
      <trkpt lat="47.56997" lon="-3.10082">
        <ele>3</ele>
        <time>2018-01-21T12:45:01.000Z</time>
      </trkpt>
      <trkpt lat="47.57" lon="-3.10083">
        <ele>3</ele>
        <time>2018-01-21T12:45:02.000Z</time>
      </trkpt>
      <trkpt lat="47.57001" lon="-3.10085">
        <ele>3.4</ele>
        <time>2018-01-21T12:45:03.000Z</time>
      </trkpt>
      <trkpt lat="47.57002" lon="-3.10085">
        <ele>3.7</ele>
        <time>2018-01-21T12:45:04.000Z</time>
      </trkpt>
      <trkpt lat="47.56999" lon="-3.10086">
        <ele>3.2</ele>
        <time>2018-01-21T12:45:05.000Z</time>
      </trkpt>
      <trkpt lat="47.56998" lon="-3.10087">
        <ele>3.3</ele>
        <time>2018-01-21T12:45:06.000Z</time>
      </trkpt>
      <trkpt lat="47.56998" lon="-3.10087">
        <ele>3.3</ele>
        <time>2018-01-21T12:45:07.000Z</time>
      </trkpt>
      <trkpt lat="47.56997" lon="-3.10085">
        <ele>3.1</ele>
        <time>2018-01-21T12:45:08.000Z</time>
      </trkpt>
      <trkpt lat="47.56996" lon="-3.10083">
        <ele>3</ele>
        <time>2018-01-21T12:45:09.000Z</time>
      </trkpt>
      <trkpt lat="47.56994" lon="-3.10082">
        <ele>3</ele>
        <time>2018-01-21T12:45:10.000Z</time>
      </trkpt>
      <trkpt lat="47.56993" lon="-3.10082">
        <ele>3</ele>
        <time>2018-01-21T12:45:11.000Z</time>
      </trkpt>
      <trkpt lat="47.56992" lon="-3.10081">
        <ele>3</ele>
        <time>2018-01-21T12:45:12.000Z</time>
      </trkpt>
      <trkpt lat="47.56993" lon="-3.10087">
        <ele>3.3</ele>
        <time>2018-01-21T12:45:13.000Z</time>
      </trkpt>
      <trkpt lat="47.56992" lon="-3.10092">
        <ele>3.6</ele>
        <time>2018-01-21T12:45:14.000Z</time>
      </trkpt>
      <trkpt lat="47.56992" lon="-3.10094">
        <ele>3.7</ele>
        <time>2018-01-21T12:45:15.000Z</time>
      </trkpt>
      <trkpt lat="47.56991" lon="-3.10096">
        <ele>3.9</ele>
        <time>2018-01-21T12:45:16.000Z</time>
      </trkpt>
      <trkpt lat="47.5699" lon="-3.10095">
        <ele>3.9</ele>
        <time>2018-01-21T12:45:17.000Z</time>
      </trkpt>
      <trkpt lat="47.56989" lon="-3.10096">
        <ele>3.9</ele>
        <time>2018-01-21T12:45:18.000Z</time>
      </trkpt>
      <trkpt lat="47.56989" lon="-3.10095">
        <ele>3.9</ele>
        <time>2018-01-21T12:45:19.000Z</time>
      </trkpt>
      <trkpt lat="47.56989" lon="-3.10094">
        <ele>3.8</ele>
        <time>2018-01-21T12:45:20.000Z</time>
      </trkpt>
      <trkpt lat="47.5699" lon="-3.10095">
        <ele>3.8</ele>
        <time>2018-01-21T12:45:21.000Z</time>
      </trkpt>
      <trkpt lat="47.56991" lon="-3.10095">
        <ele>3.8</ele>
        <time>2018-01-21T12:45:22.000Z</time>
      </trkpt>
      <trkpt lat="47.56991" lon="-3.10095">
        <ele>3.8</ele>
        <time>2018-01-21T12:45:23.000Z</time>
      </trkpt>
      <trkpt lat="47.56991" lon="-3.10096">
        <ele>3.9</ele>
        <time>2018-01-21T12:45:24.000Z</time>
      </trkpt>
      <trkpt lat="47.5699" lon="-3.10096">
        <ele>3.9</ele>
        <time>2018-01-21T12:45:25.000Z</time>
      </trkpt>
      <trkpt lat="47.56991" lon="-3.10095">
        <ele>3.8</ele>
        <time>2018-01-21T12:45:26.000Z</time>
      </trkpt>
      <trkpt lat="47.56991" lon="-3.10095">
        <ele>3.8</ele>
        <time>2018-01-21T12:45:27.000Z</time>
      </trkpt>
      <trkpt lat="47.56991" lon="-3.10095">
        <ele>3.8</ele>
        <time>2018-01-21T12:45:28.000Z</time>
      </trkpt>
      <trkpt lat="47.56991" lon="-3.10095">
        <ele>3.8</ele>
        <time>2018-01-21T12:45:29.000Z</time>
      </trkpt>
      <trkpt lat="47.56991" lon="-3.10095">
        <ele>3.8</ele>
        <time>2018-01-21T12:45:30.000Z</time>
      </trkpt>
      <trkpt lat="47.56981" lon="-3.10086">
        <ele>3.2</ele>
        <time>2018-01-21T12:45:31.000Z</time>
      </trkpt>
      <trkpt lat="47.56976" lon="-3.10082">
        <ele>3</ele>
        <time>2018-01-21T12:45:32.000Z</time>
      </trkpt>
      <trkpt lat="47.56978" lon="-3.10079">
        <ele>3</ele>
        <time>2018-01-21T12:45:33.000Z</time>
      </trkpt>
      <trkpt lat="47.5698" lon="-3.10079">
        <ele>3</ele>
        <time>2018-01-21T12:45:34.000Z</time>
      </trkpt>
      <trkpt lat="47.56982" lon="-3.10082">
        <ele>3</ele>
        <time>2018-01-21T12:45:35.000Z</time>
      </trkpt>
      <trkpt lat="47.56984" lon="-3.10082">
        <ele>3</ele>
        <time>2018-01-21T12:45:36.000Z</time>
      </trkpt>
      <trkpt lat="47.56984" lon="-3.10083">
        <ele>3</ele>
        <time>2018-01-21T12:45:37.000Z</time>
      </trkpt>
      <trkpt lat="47.56984" lon="-3.10083">
        <ele>3</ele>
        <time>2018-01-21T12:45:38.000Z</time>
      </trkpt>
      <trkpt lat="47.56984" lon="-3.10083">
        <ele>3</ele>
        <time>2018-01-21T12:45:39.000Z</time>
      </trkpt>
      <trkpt lat="47.56983" lon="-3.10083">
        <ele>3</ele>
        <time>2018-01-21T12:45:40.000Z</time>
      </trkpt>
      <trkpt lat="47.56984" lon="-3.10083">
        <ele>3</ele>
        <time>2018-01-21T12:45:41.000Z</time>
      </trkpt>
      <trkpt lat="47.56985" lon="-3.10083">
        <ele>3</ele>
        <time>2018-01-21T12:45:42.000Z</time>
      </trkpt>
      <trkpt lat="47.56985" lon="-3.10083">
        <ele>3</ele>
        <time>2018-01-21T12:45:43.000Z</time>
      </trkpt>
      <trkpt lat="47.56985" lon="-3.10083">
        <ele>3</ele>
        <time>2018-01-21T12:45:44.000Z</time>
      </trkpt>
      <trkpt lat="47.56985" lon="-3.10084">
        <ele>3</ele>
        <time>2018-01-21T12:45:45.000Z</time>
      </trkpt>
      <trkpt lat="47.56985" lon="-3.10084">
        <ele>3</ele>
        <time>2018-01-21T12:45:46.000Z</time>
      </trkpt>
      <trkpt lat="47.56985" lon="-3.10084">
        <ele>3</ele>
        <time>2018-01-21T12:45:47.000Z</time>
      </trkpt>
      <trkpt lat="47.56983" lon="-3.10083">
        <ele>3</ele>
        <time>2018-01-21T12:45:48.000Z</time>
      </trkpt>
      <trkpt lat="47.56982" lon="-3.10084">
        <ele>3</ele>
        <time>2018-01-21T12:45:49.000Z</time>
      </trkpt>
      <trkpt lat="47.56982" lon="-3.10084">
        <ele>3.1</ele>
        <time>2018-01-21T12:45:50.000Z</time>
      </trkpt>
      <trkpt lat="47.56981" lon="-3.10085">
        <ele>3.1</ele>
        <time>2018-01-21T12:45:51.000Z</time>
      </trkpt>
      <trkpt lat="47.56981" lon="-3.10085">
        <ele>3.1</ele>
        <time>2018-01-21T12:45:52.000Z</time>
      </trkpt>
      <trkpt lat="47.5698" lon="-3.10086">
        <ele>3.2</ele>
        <time>2018-01-21T12:45:53.000Z</time>
      </trkpt>
      <trkpt lat="47.56979" lon="-3.10087">
        <ele>3.3</ele>
        <time>2018-01-21T12:45:54.000Z</time>
      </trkpt>
      <trkpt lat="47.56979" lon="-3.10088">
        <ele>3.4</ele>
        <time>2018-01-21T12:45:55.000Z</time>
      </trkpt>
      <trkpt lat="47.56978" lon="-3.1009">
        <ele>3.5</ele>
        <time>2018-01-21T12:45:56.000Z</time>
      </trkpt>
      <trkpt lat="47.56978" lon="-3.10091">
        <ele>3.6</ele>
        <time>2018-01-21T12:45:57.000Z</time>
      </trkpt>
      <trkpt lat="47.56976" lon="-3.10091">
        <ele>3.6</ele>
        <time>2018-01-21T12:45:58.000Z</time>
      </trkpt>
      <trkpt lat="47.56975" lon="-3.10092">
        <ele>3.6</ele>
        <time>2018-01-21T12:45:59.000Z</time>
      </trkpt>
      <trkpt lat="47.56974" lon="-3.10093">
        <ele>3.7</ele>
        <time>2018-01-21T12:46:00.000Z</time>
      </trkpt>
      <trkpt lat="47.56973" lon="-3.10093">
        <ele>3.7</ele>
        <time>2018-01-21T12:46:01.000Z</time>
      </trkpt>
      <trkpt lat="47.56971" lon="-3.10093">
        <time>2018-01-21T12:46:02.000Z</time>
      </trkpt>
      <trkpt lat="47.56968" lon="-3.10093">
        <time>2018-01-21T12:46:03.000Z</time>
      </trkpt>
      <trkpt lat="47.56967" lon="-3.10093">
        <time>2018-01-21T12:46:04.000Z</time>
      </trkpt>
      <trkpt lat="47.56965" lon="-3.10093">
        <time>2018-01-21T12:46:05.000Z</time>
      </trkpt>
      <trkpt lat="47.56963" lon="-3.10094">
        <time>2018-01-21T12:46:06.000Z</time>
      </trkpt>
      <trkpt lat="47.56962" lon="-3.10094">
        <time>2018-01-21T12:46:07.000Z</time>
      </trkpt>
      <trkpt lat="47.5696" lon="-3.10095">
        <time>2018-01-21T12:46:08.000Z</time>
      </trkpt>
      <trkpt lat="47.56958" lon="-3.10095">
        <time>2018-01-21T12:46:09.000Z</time>
      </trkpt>
      <trkpt lat="47.56956" lon="-3.10095">
        <time>2018-01-21T12:46:10.000Z</time>
      </trkpt>
      <trkpt lat="47.56956" lon="-3.10097">
        <time>2018-01-21T12:46:11.000Z</time>
      </trkpt>
      <trkpt lat="47.56954" lon="-3.10098">
        <time>2018-01-21T12:46:12.000Z</time>
      </trkpt>
      <trkpt lat="47.56953" lon="-3.10099">
        <time>2018-01-21T12:46:13.000Z</time>
      </trkpt>
      <trkpt lat="47.56951" lon="-3.101">
        <time>2018-01-21T12:46:14.000Z</time>
      </trkpt>
      <trkpt lat="47.56949" lon="-3.101">
        <time>2018-01-21T12:46:15.000Z</time>
      </trkpt>
      <trkpt lat="47.56948" lon="-3.101">
        <time>2018-01-21T12:46:16.000Z</time>
      </trkpt>
      <trkpt lat="47.56946" lon="-3.10101">
        <time>2018-01-21T12:46:17.000Z</time>
      </trkpt>
      <trkpt lat="47.56945" lon="-3.10102">
        <time>2018-01-21T12:46:18.000Z</time>
      </trkpt>
      <trkpt lat="47.56943" lon="-3.10103">
        <time>2018-01-21T12:46:19.000Z</time>
      </trkpt>
      <trkpt lat="47.56942" lon="-3.10104">
        <time>2018-01-21T12:46:20.000Z</time>
      </trkpt>
      <trkpt lat="47.5694" lon="-3.10105">
        <time>2018-01-21T12:46:21.000Z</time>
      </trkpt>
      <trkpt lat="47.56939" lon="-3.10106">
        <time>2018-01-21T12:46:22.000Z</time>
      </trkpt>
      <trkpt lat="47.56938" lon="-3.10106">
        <time>2018-01-21T12:46:23.000Z</time>
      </trkpt>
      <trkpt lat="47.56937" lon="-3.10107">
        <time>2018-01-21T12:46:24.000Z</time>
      </trkpt>
      <trkpt lat="47.56936" lon="-3.10107">
        <time>2018-01-21T12:46:25.000Z</time>
      </trkpt>
      <trkpt lat="47.56934" lon="-3.10108">
        <time>2018-01-21T12:46:26.000Z</time>
      </trkpt>
      <trkpt lat="47.56933" lon="-3.10108">
        <time>2018-01-21T12:46:27.000Z</time>
      </trkpt>
      <trkpt lat="47.56932" lon="-3.10109">
        <time>2018-01-21T12:46:28.000Z</time>
      </trkpt>
      <trkpt lat="47.5693" lon="-3.1011">
        <time>2018-01-21T12:46:29.000Z</time>
      </trkpt>
      <trkpt lat="47.56929" lon="-3.10111">
        <time>2018-01-21T12:46:30.000Z</time>
      </trkpt>
      <trkpt lat="47.56928" lon="-3.10111">
        <time>2018-01-21T12:46:31.000Z</time>
      </trkpt>
      <trkpt lat="47.56926" lon="-3.10112">
        <time>2018-01-21T12:46:32.000Z</time>
      </trkpt>
      <trkpt lat="47.56924" lon="-3.10112">
        <time>2018-01-21T12:46:33.000Z</time>
      </trkpt>
      <trkpt lat="47.56923" lon="-3.10113">
        <time>2018-01-21T12:46:34.000Z</time>
      </trkpt>
      <trkpt lat="47.56923" lon="-3.10114">
        <time>2018-01-21T12:46:35.000Z</time>
      </trkpt>
      <trkpt lat="47.56921" lon="-3.10115">
        <time>2018-01-21T12:46:36.000Z</time>
      </trkpt>
      <trkpt lat="47.5692" lon="-3.10116">
        <time>2018-01-21T12:46:37.000Z</time>
      </trkpt>
      <trkpt lat="47.5692" lon="-3.10117">
        <time>2018-01-21T12:46:38.000Z</time>
      </trkpt>
      <trkpt lat="47.56918" lon="-3.10118">
        <time>2018-01-21T12:46:39.000Z</time>
      </trkpt>
      <trkpt lat="47.56917" lon="-3.10118">
        <time>2018-01-21T12:46:40.000Z</time>
      </trkpt>
      <trkpt lat="47.56916" lon="-3.10121">
        <time>2018-01-21T12:46:41.000Z</time>
      </trkpt>
      <trkpt lat="47.56917" lon="-3.10123">
        <time>2018-01-21T12:46:42.000Z</time>
      </trkpt>
      <trkpt lat="47.56916" lon="-3.10125">
        <time>2018-01-21T12:46:43.000Z</time>
      </trkpt>
      <trkpt lat="47.56913" lon="-3.10126">
        <time>2018-01-21T12:46:44.000Z</time>
      </trkpt>
      <trkpt lat="47.5691" lon="-3.10126">
        <time>2018-01-21T12:46:45.000Z</time>
      </trkpt>
      <trkpt lat="47.56909" lon="-3.10125">
        <time>2018-01-21T12:46:46.000Z</time>
      </trkpt>
      <trkpt lat="47.56908" lon="-3.10126">
        <time>2018-01-21T12:46:47.000Z</time>
      </trkpt>
      <trkpt lat="47.56906" lon="-3.10127">
        <time>2018-01-21T12:46:48.000Z</time>
      </trkpt>
      <trkpt lat="47.56904" lon="-3.10127">
        <time>2018-01-21T12:46:49.000Z</time>
      </trkpt>
      <trkpt lat="47.56902" lon="-3.10127">
        <time>2018-01-21T12:46:50.000Z</time>
      </trkpt>
      <trkpt lat="47.56901" lon="-3.10128">
        <time>2018-01-21T12:46:51.000Z</time>
      </trkpt>
      <trkpt lat="47.569" lon="-3.1013">
        <time>2018-01-21T12:46:52.000Z</time>
      </trkpt>
      <trkpt lat="47.56898" lon="-3.1013">
        <time>2018-01-21T12:46:53.000Z</time>
      </trkpt>
      <trkpt lat="47.56897" lon="-3.10132">
        <time>2018-01-21T12:46:54.000Z</time>
      </trkpt>
      <trkpt lat="47.56895" lon="-3.10131">
        <time>2018-01-21T12:46:55.000Z</time>
      </trkpt>
      <trkpt lat="47.56894" lon="-3.10132">
        <time>2018-01-21T12:46:56.000Z</time>
      </trkpt>
      <trkpt lat="47.56893" lon="-3.10133">
        <time>2018-01-21T12:46:57.000Z</time>
      </trkpt>
      <trkpt lat="47.56891" lon="-3.10134">
        <time>2018-01-21T12:46:58.000Z</time>
      </trkpt>
      <trkpt lat="47.5689" lon="-3.10134">
        <time>2018-01-21T12:46:59.000Z</time>
      </trkpt>
      <trkpt lat="47.56888" lon="-3.10135">
        <time>2018-01-21T12:47:00.000Z</time>
      </trkpt>
      <trkpt lat="47.56887" lon="-3.10136">
        <time>2018-01-21T12:47:01.000Z</time>
      </trkpt>
      <trkpt lat="47.56886" lon="-3.10137">
        <time>2018-01-21T12:47:02.000Z</time>
      </trkpt>
      <trkpt lat="47.56885" lon="-3.10138">
        <time>2018-01-21T12:47:03.000Z</time>
      </trkpt>
      <trkpt lat="47.56884" lon="-3.10139">
        <time>2018-01-21T12:47:04.000Z</time>
      </trkpt>
      <trkpt lat="47.56883" lon="-3.10139">
        <time>2018-01-21T12:47:05.000Z</time>
      </trkpt>
      <trkpt lat="47.56881" lon="-3.1014">
        <time>2018-01-21T12:47:06.000Z</time>
      </trkpt>
      <trkpt lat="47.5688" lon="-3.10141">
        <time>2018-01-21T12:47:07.000Z</time>
      </trkpt>
      <trkpt lat="47.56879" lon="-3.10142">
        <time>2018-01-21T12:47:08.000Z</time>
      </trkpt>
      <trkpt lat="47.56878" lon="-3.10142">
        <time>2018-01-21T12:47:09.000Z</time>
      </trkpt>
      <trkpt lat="47.56877" lon="-3.10143">
        <time>2018-01-21T12:47:10.000Z</time>
      </trkpt>
      <trkpt lat="47.56876" lon="-3.10144">
        <time>2018-01-21T12:47:11.000Z</time>
      </trkpt>
      <trkpt lat="47.56875" lon="-3.10145">
        <time>2018-01-21T12:47:12.000Z</time>
      </trkpt>
      <trkpt lat="47.56875" lon="-3.10145">
        <time>2018-01-21T12:47:13.000Z</time>
      </trkpt>
      <trkpt lat="47.56874" lon="-3.10146">
        <time>2018-01-21T12:47:14.000Z</time>
      </trkpt>
      <trkpt lat="47.56874" lon="-3.10146">
        <time>2018-01-21T12:47:15.000Z</time>
      </trkpt>
      <trkpt lat="47.56874" lon="-3.10146">
        <time>2018-01-21T12:47:16.000Z</time>
      </trkpt>
      <trkpt lat="47.56874" lon="-3.10146">
        <time>2018-01-21T12:47:17.000Z</time>
      </trkpt>
      <trkpt lat="47.56874" lon="-3.10146">
        <time>2018-01-21T12:47:18.000Z</time>
      </trkpt>
      <trkpt lat="47.56874" lon="-3.10146">
        <time>2018-01-21T12:47:19.000Z</time>
      </trkpt>
      <trkpt lat="47.56874" lon="-3.10146">
        <time>2018-01-21T12:47:20.000Z</time>
      </trkpt>
      <trkpt lat="47.56874" lon="-3.10146">
        <time>2018-01-21T12:47:21.000Z</time>
      </trkpt>
      <trkpt lat="47.56874" lon="-3.10146">
        <time>2018-01-21T12:47:22.000Z</time>
      </trkpt>
      <trkpt lat="47.56873" lon="-3.10146">
        <time>2018-01-21T12:47:23.000Z</time>
      </trkpt>
      <trkpt lat="47.56872" lon="-3.10147">
        <time>2018-01-21T12:47:24.000Z</time>
      </trkpt>
      <trkpt lat="47.56871" lon="-3.10147">
        <time>2018-01-21T12:47:25.000Z</time>
      </trkpt>
      <trkpt lat="47.5687" lon="-3.10148">
        <time>2018-01-21T12:47:26.000Z</time>
      </trkpt>
      <trkpt lat="47.56868" lon="-3.1015">
        <time>2018-01-21T12:47:27.000Z</time>
      </trkpt>
      <trkpt lat="47.56867" lon="-3.10151">
        <time>2018-01-21T12:47:28.000Z</time>
      </trkpt>
      <trkpt lat="47.56866" lon="-3.10152">
        <time>2018-01-21T12:47:29.000Z</time>
      </trkpt>
      <trkpt lat="47.56865" lon="-3.10154">
        <time>2018-01-21T12:47:30.000Z</time>
      </trkpt>
      <trkpt lat="47.56864" lon="-3.10155">
        <time>2018-01-21T12:47:31.000Z</time>
      </trkpt>
      <trkpt lat="47.56863" lon="-3.10157">
        <time>2018-01-21T12:47:32.000Z</time>
      </trkpt>
      <trkpt lat="47.56862" lon="-3.10159">
        <time>2018-01-21T12:47:33.000Z</time>
      </trkpt>
      <trkpt lat="47.5686" lon="-3.1016">
        <time>2018-01-21T12:47:34.000Z</time>
      </trkpt>
      <trkpt lat="47.56859" lon="-3.10161">
        <time>2018-01-21T12:47:35.000Z</time>
      </trkpt>
      <trkpt lat="47.56858" lon="-3.10162">
        <time>2018-01-21T12:47:36.000Z</time>
      </trkpt>
      <trkpt lat="47.56857" lon="-3.10164">
        <time>2018-01-21T12:47:37.000Z</time>
      </trkpt>
      <trkpt lat="47.56856" lon="-3.10165">
        <time>2018-01-21T12:47:38.000Z</time>
      </trkpt>
      <trkpt lat="47.56855" lon="-3.10165">
        <time>2018-01-21T12:47:39.000Z</time>
      </trkpt>
      <trkpt lat="47.56853" lon="-3.10166">
        <time>2018-01-21T12:47:40.000Z</time>
      </trkpt>
      <trkpt lat="47.56852" lon="-3.10166">
        <time>2018-01-21T12:47:41.000Z</time>
      </trkpt>
      <trkpt lat="47.56851" lon="-3.10166">
        <time>2018-01-21T12:47:42.000Z</time>
      </trkpt>
      <trkpt lat="47.5685" lon="-3.10166">
        <time>2018-01-21T12:47:43.000Z</time>
      </trkpt>
      <trkpt lat="47.56849" lon="-3.10166">
        <time>2018-01-21T12:47:44.000Z</time>
      </trkpt>
      <trkpt lat="47.56848" lon="-3.10167">
        <time>2018-01-21T12:47:45.000Z</time>
      </trkpt>
      <trkpt lat="47.56848" lon="-3.10168">
        <time>2018-01-21T12:47:46.000Z</time>
      </trkpt>
      <trkpt lat="47.56847" lon="-3.10169">
        <time>2018-01-21T12:47:47.000Z</time>
      </trkpt>
      <trkpt lat="47.56846" lon="-3.1017">
        <time>2018-01-21T12:47:48.000Z</time>
      </trkpt>
      <trkpt lat="47.56846" lon="-3.1017">
        <time>2018-01-21T12:47:49.000Z</time>
      </trkpt>
      <trkpt lat="47.56845" lon="-3.1017">
        <time>2018-01-21T12:47:50.000Z</time>
      </trkpt>
      <trkpt lat="47.56844" lon="-3.10169">
        <time>2018-01-21T12:47:51.000Z</time>
      </trkpt>
      <trkpt lat="47.56843" lon="-3.10169">
        <time>2018-01-21T12:47:52.000Z</time>
      </trkpt>
      <trkpt lat="47.56843" lon="-3.10169">
        <time>2018-01-21T12:47:53.000Z</time>
      </trkpt>
      <trkpt lat="47.56842" lon="-3.1017">
        <time>2018-01-21T12:47:54.000Z</time>
      </trkpt>
      <trkpt lat="47.56842" lon="-3.1017">
        <time>2018-01-21T12:47:55.000Z</time>
      </trkpt>
      <trkpt lat="47.56841" lon="-3.1017">
        <time>2018-01-21T12:47:56.000Z</time>
      </trkpt>
      <trkpt lat="47.56841" lon="-3.1017">
        <time>2018-01-21T12:47:57.000Z</time>
      </trkpt>
      <trkpt lat="47.5684" lon="-3.1017">
        <time>2018-01-21T12:47:58.000Z</time>
      </trkpt>
      <trkpt lat="47.56839" lon="-3.1017">
        <time>2018-01-21T12:47:59.000Z</time>
      </trkpt>
      <trkpt lat="47.56838" lon="-3.10171">
        <time>2018-01-21T12:48:00.000Z</time>
      </trkpt>
      <trkpt lat="47.56838" lon="-3.10172">
        <time>2018-01-21T12:48:01.000Z</time>
      </trkpt>
      <trkpt lat="47.56837" lon="-3.10173">
        <time>2018-01-21T12:48:02.000Z</time>
      </trkpt>
      <trkpt lat="47.56836" lon="-3.10174">
        <time>2018-01-21T12:48:03.000Z</time>
      </trkpt>
      <trkpt lat="47.56835" lon="-3.10175">
        <time>2018-01-21T12:48:04.000Z</time>
      </trkpt>
      <trkpt lat="47.56834" lon="-3.10175">
        <time>2018-01-21T12:48:05.000Z</time>
      </trkpt>
      <trkpt lat="47.56833" lon="-3.10176">
        <time>2018-01-21T12:48:06.000Z</time>
      </trkpt>
      <trkpt lat="47.56833" lon="-3.10176">
        <time>2018-01-21T12:48:07.000Z</time>
      </trkpt>
      <trkpt lat="47.56833" lon="-3.10177">
        <time>2018-01-21T12:48:08.000Z</time>
      </trkpt>
      <trkpt lat="47.56832" lon="-3.10177">
        <time>2018-01-21T12:48:09.000Z</time>
      </trkpt>
      <trkpt lat="47.56831" lon="-3.10178">
        <time>2018-01-21T12:48:10.000Z</time>
      </trkpt>
      <trkpt lat="47.5683" lon="-3.10178">
        <time>2018-01-21T12:48:11.000Z</time>
      </trkpt>
      <trkpt lat="47.56829" lon="-3.10179">
        <time>2018-01-21T12:48:12.000Z</time>
      </trkpt>
      <trkpt lat="47.56828" lon="-3.1018">
        <time>2018-01-21T12:48:13.000Z</time>
      </trkpt>
      <trkpt lat="47.56827" lon="-3.1018">
        <time>2018-01-21T12:48:14.000Z</time>
      </trkpt>
      <trkpt lat="47.56826" lon="-3.10181">
        <time>2018-01-21T12:48:15.000Z</time>
      </trkpt>
      <trkpt lat="47.56825" lon="-3.10182">
        <time>2018-01-21T12:48:16.000Z</time>
      </trkpt>
      <trkpt lat="47.56824" lon="-3.10184">
        <time>2018-01-21T12:48:17.000Z</time>
      </trkpt>
      <trkpt lat="47.56824" lon="-3.10185">
        <time>2018-01-21T12:48:18.000Z</time>
      </trkpt>
      <trkpt lat="47.56824" lon="-3.10187">
        <time>2018-01-21T12:48:19.000Z</time>
      </trkpt>
      <trkpt lat="47.56823" lon="-3.10188">
        <time>2018-01-21T12:48:20.000Z</time>
      </trkpt>
      <trkpt lat="47.56822" lon="-3.1019">
        <time>2018-01-21T12:48:21.000Z</time>
      </trkpt>
      <trkpt lat="47.56822" lon="-3.10191">
        <time>2018-01-21T12:48:22.000Z</time>
      </trkpt>
      <trkpt lat="47.56822" lon="-3.10191">
        <time>2018-01-21T12:48:23.000Z</time>
      </trkpt>
      <trkpt lat="47.56821" lon="-3.10189">
        <time>2018-01-21T12:48:24.000Z</time>
      </trkpt>
      <trkpt lat="47.56821" lon="-3.10189">
        <time>2018-01-21T12:48:25.000Z</time>
      </trkpt>
      <trkpt lat="47.5682" lon="-3.1019">
        <time>2018-01-21T12:48:26.000Z</time>
      </trkpt>
      <trkpt lat="47.5682" lon="-3.10191">
        <time>2018-01-21T12:48:27.000Z</time>
      </trkpt>
      <trkpt lat="47.5682" lon="-3.10192">
        <time>2018-01-21T12:48:28.000Z</time>
      </trkpt>
      <trkpt lat="47.56819" lon="-3.10193">
        <time>2018-01-21T12:48:29.000Z</time>
      </trkpt>
      <trkpt lat="47.56818" lon="-3.10194">
        <time>2018-01-21T12:48:30.000Z</time>
      </trkpt>
      <trkpt lat="47.56817" lon="-3.10194">
        <time>2018-01-21T12:48:31.000Z</time>
      </trkpt>
      <trkpt lat="47.56817" lon="-3.10194">
        <time>2018-01-21T12:48:32.000Z</time>
      </trkpt>
      <trkpt lat="47.56816" lon="-3.10195">
        <time>2018-01-21T12:48:33.000Z</time>
      </trkpt>
      <trkpt lat="47.56815" lon="-3.10196">
        <time>2018-01-21T12:48:34.000Z</time>
      </trkpt>
      <trkpt lat="47.56815" lon="-3.10198">
        <time>2018-01-21T12:48:35.000Z</time>
      </trkpt>
      <trkpt lat="47.56814" lon="-3.10198">
        <time>2018-01-21T12:48:36.000Z</time>
      </trkpt>
      <trkpt lat="47.56814" lon="-3.102">
        <time>2018-01-21T12:48:37.000Z</time>
      </trkpt>
      <trkpt lat="47.56813" lon="-3.10201">
        <time>2018-01-21T12:48:38.000Z</time>
      </trkpt>
      <trkpt lat="47.56812" lon="-3.10202">
        <time>2018-01-21T12:48:39.000Z</time>
      </trkpt>
      <trkpt lat="47.56812" lon="-3.10203">
        <time>2018-01-21T12:48:40.000Z</time>
      </trkpt>
      <trkpt lat="47.56811" lon="-3.10204">
        <time>2018-01-21T12:48:41.000Z</time>
      </trkpt>
      <trkpt lat="47.56811" lon="-3.10205">
        <time>2018-01-21T12:48:42.000Z</time>
      </trkpt>
      <trkpt lat="47.5681" lon="-3.10205">
        <time>2018-01-21T12:48:43.000Z</time>
      </trkpt>
      <trkpt lat="47.5681" lon="-3.10206">
        <time>2018-01-21T12:48:44.000Z</time>
      </trkpt>
      <trkpt lat="47.56809" lon="-3.10207">
        <time>2018-01-21T12:48:45.000Z</time>
      </trkpt>
      <trkpt lat="47.56809" lon="-3.10208">
        <time>2018-01-21T12:48:46.000Z</time>
      </trkpt>
      <trkpt lat="47.56808" lon="-3.10209">
        <time>2018-01-21T12:48:47.000Z</time>
      </trkpt>
      <trkpt lat="47.56807" lon="-3.10209">
        <time>2018-01-21T12:48:48.000Z</time>
      </trkpt>
      <trkpt lat="47.56807" lon="-3.1021">
        <time>2018-01-21T12:48:49.000Z</time>
      </trkpt>
      <trkpt lat="47.56807" lon="-3.10212">
        <time>2018-01-21T12:48:50.000Z</time>
      </trkpt>
      <trkpt lat="47.56806" lon="-3.10213">
        <time>2018-01-21T12:48:51.000Z</time>
      </trkpt>
      <trkpt lat="47.56806" lon="-3.10214">
        <time>2018-01-21T12:48:52.000Z</time>
      </trkpt>
      <trkpt lat="47.56806" lon="-3.10215">
        <time>2018-01-21T12:48:53.000Z</time>
      </trkpt>
      <trkpt lat="47.56806" lon="-3.10216">
        <time>2018-01-21T12:48:54.000Z</time>
      </trkpt>
      <trkpt lat="47.56806" lon="-3.10216">
        <time>2018-01-21T12:48:55.000Z</time>
      </trkpt>
      <trkpt lat="47.56805" lon="-3.10217">
        <time>2018-01-21T12:48:56.000Z</time>
      </trkpt>
      <trkpt lat="47.56804" lon="-3.10218">
        <time>2018-01-21T12:48:57.000Z</time>
      </trkpt>
      <trkpt lat="47.56804" lon="-3.10218">
        <time>2018-01-21T12:48:58.000Z</time>
      </trkpt>
      <trkpt lat="47.56803" lon="-3.1022">
        <time>2018-01-21T12:48:59.000Z</time>
      </trkpt>
      <trkpt lat="47.56802" lon="-3.1022">
        <time>2018-01-21T12:49:00.000Z</time>
      </trkpt>
      <trkpt lat="47.56802" lon="-3.10221">
        <time>2018-01-21T12:49:01.000Z</time>
      </trkpt>
      <trkpt lat="47.56801" lon="-3.10222">
        <time>2018-01-21T12:49:02.000Z</time>
      </trkpt>
      <trkpt lat="47.568" lon="-3.10222">
        <time>2018-01-21T12:49:03.000Z</time>
      </trkpt>
      <trkpt lat="47.568" lon="-3.10222">
        <time>2018-01-21T12:49:04.000Z</time>
      </trkpt>
      <trkpt lat="47.568" lon="-3.10222">
        <time>2018-01-21T12:49:05.000Z</time>
      </trkpt>
      <trkpt lat="47.56799" lon="-3.10223">
        <time>2018-01-21T12:49:06.000Z</time>
      </trkpt>
      <trkpt lat="47.56799" lon="-3.10223">
        <time>2018-01-21T12:49:07.000Z</time>
      </trkpt>
      <trkpt lat="47.56798" lon="-3.10224">
        <time>2018-01-21T12:49:08.000Z</time>
      </trkpt>
      <trkpt lat="47.56798" lon="-3.10224">
        <time>2018-01-21T12:49:09.000Z</time>
      </trkpt>
      <trkpt lat="47.56797" lon="-3.10225">
        <time>2018-01-21T12:49:10.000Z</time>
      </trkpt>
      <trkpt lat="47.56797" lon="-3.10225">
        <time>2018-01-21T12:49:11.000Z</time>
      </trkpt>
      <trkpt lat="47.56796" lon="-3.10226">
        <time>2018-01-21T12:49:12.000Z</time>
      </trkpt>
      <trkpt lat="47.56795" lon="-3.10226">
        <time>2018-01-21T12:49:13.000Z</time>
      </trkpt>
      <trkpt lat="47.56794" lon="-3.10226">
        <time>2018-01-21T12:49:14.000Z</time>
      </trkpt>
      <trkpt lat="47.56793" lon="-3.10226">
        <time>2018-01-21T12:49:15.000Z</time>
      </trkpt>
      <trkpt lat="47.56791" lon="-3.10227">
        <time>2018-01-21T12:49:16.000Z</time>
      </trkpt>
      <trkpt lat="47.5679" lon="-3.10227">
        <time>2018-01-21T12:49:17.000Z</time>
      </trkpt>
      <trkpt lat="47.56788" lon="-3.10228">
        <time>2018-01-21T12:49:18.000Z</time>
      </trkpt>
      <trkpt lat="47.56786" lon="-3.10228">
        <time>2018-01-21T12:49:19.000Z</time>
      </trkpt>
      <trkpt lat="47.56784" lon="-3.10228">
        <time>2018-01-21T12:49:20.000Z</time>
      </trkpt>
      <trkpt lat="47.56782" lon="-3.10229">
        <time>2018-01-21T12:49:21.000Z</time>
      </trkpt>
      <trkpt lat="47.5678" lon="-3.10231">
        <time>2018-01-21T12:49:22.000Z</time>
      </trkpt>
      <trkpt lat="47.56777" lon="-3.10232">
        <time>2018-01-21T12:49:23.000Z</time>
      </trkpt>
      <trkpt lat="47.56773" lon="-3.10232">
        <time>2018-01-21T12:49:24.000Z</time>
      </trkpt>
      <trkpt lat="47.5677" lon="-3.10233">
        <time>2018-01-21T12:49:25.000Z</time>
      </trkpt>
      <trkpt lat="47.56766" lon="-3.10233">
        <time>2018-01-21T12:49:26.000Z</time>
      </trkpt>
      <trkpt lat="47.56762" lon="-3.10234">
        <time>2018-01-21T12:49:27.000Z</time>
      </trkpt>
      <trkpt lat="47.56758" lon="-3.10234">
        <time>2018-01-21T12:49:28.000Z</time>
      </trkpt>
      <trkpt lat="47.56755" lon="-3.10235">
        <time>2018-01-21T12:49:29.000Z</time>
      </trkpt>
      <trkpt lat="47.56751" lon="-3.10236">
        <time>2018-01-21T12:49:30.000Z</time>
      </trkpt>
      <trkpt lat="47.56748" lon="-3.10236">
        <time>2018-01-21T12:49:31.000Z</time>
      </trkpt>
      <trkpt lat="47.56745" lon="-3.10237">
        <time>2018-01-21T12:49:32.000Z</time>
      </trkpt>
      <trkpt lat="47.56741" lon="-3.10237">
        <time>2018-01-21T12:49:33.000Z</time>
      </trkpt>
      <trkpt lat="47.56736" lon="-3.10236">
        <time>2018-01-21T12:49:34.000Z</time>
      </trkpt>
      <trkpt lat="47.56732" lon="-3.10236">
        <time>2018-01-21T12:49:35.000Z</time>
      </trkpt>
      <trkpt lat="47.56727" lon="-3.10235">
        <time>2018-01-21T12:49:36.000Z</time>
      </trkpt>
      <trkpt lat="47.56721" lon="-3.10234">
        <time>2018-01-21T12:49:37.000Z</time>
      </trkpt>
      <trkpt lat="47.56716" lon="-3.10234">
        <time>2018-01-21T12:49:38.000Z</time>
      </trkpt>
      <trkpt lat="47.56711" lon="-3.10232">
        <time>2018-01-21T12:49:39.000Z</time>
      </trkpt>
      <trkpt lat="47.56705" lon="-3.10231">
        <time>2018-01-21T12:49:40.000Z</time>
      </trkpt>
      <trkpt lat="47.56699" lon="-3.10229">
        <time>2018-01-21T12:49:41.000Z</time>
      </trkpt>
      <trkpt lat="47.56693" lon="-3.10229">
        <time>2018-01-21T12:49:42.000Z</time>
      </trkpt>
      <trkpt lat="47.56688" lon="-3.10228">
        <time>2018-01-21T12:49:43.000Z</time>
      </trkpt>
      <trkpt lat="47.56682" lon="-3.10228">
        <time>2018-01-21T12:49:44.000Z</time>
      </trkpt>
      <trkpt lat="47.56677" lon="-3.10229">
        <time>2018-01-21T12:49:45.000Z</time>
      </trkpt>
      <trkpt lat="47.56671" lon="-3.10229">
        <time>2018-01-21T12:49:46.000Z</time>
      </trkpt>
      <trkpt lat="47.56666" lon="-3.10229">
        <time>2018-01-21T12:49:47.000Z</time>
      </trkpt>
      <trkpt lat="47.5666" lon="-3.1023">
        <time>2018-01-21T12:49:48.000Z</time>
      </trkpt>
      <trkpt lat="47.56654" lon="-3.1023">
        <time>2018-01-21T12:49:49.000Z</time>
      </trkpt>
      <trkpt lat="47.56649" lon="-3.10231">
        <time>2018-01-21T12:49:50.000Z</time>
      </trkpt>
      <trkpt lat="47.56643" lon="-3.10231">
        <time>2018-01-21T12:49:51.000Z</time>
      </trkpt>
      <trkpt lat="47.56638" lon="-3.10231">
        <time>2018-01-21T12:49:52.000Z</time>
      </trkpt>
      <trkpt lat="47.56632" lon="-3.1023">
        <time>2018-01-21T12:49:53.000Z</time>
      </trkpt>
      <trkpt lat="47.56626" lon="-3.10229">
        <time>2018-01-21T12:49:54.000Z</time>
      </trkpt>
      <trkpt lat="47.56621" lon="-3.10228">
        <time>2018-01-21T12:49:55.000Z</time>
      </trkpt>
      <trkpt lat="47.56615" lon="-3.10226">
        <time>2018-01-21T12:49:56.000Z</time>
      </trkpt>
      <trkpt lat="47.56609" lon="-3.10225">
        <time>2018-01-21T12:49:57.000Z</time>
      </trkpt>
      <trkpt lat="47.56603" lon="-3.10223">
        <time>2018-01-21T12:49:58.000Z</time>
      </trkpt>
      <trkpt lat="47.56596" lon="-3.10221">
        <time>2018-01-21T12:49:59.000Z</time>
      </trkpt>
      <trkpt lat="47.5659" lon="-3.1022">
        <time>2018-01-21T12:50:00.000Z</time>
      </trkpt>
      <trkpt lat="47.56584" lon="-3.10219">
        <time>2018-01-21T12:50:01.000Z</time>
      </trkpt>
      <trkpt lat="47.56577" lon="-3.10219">
        <time>2018-01-21T12:50:02.000Z</time>
      </trkpt>
      <trkpt lat="47.5657" lon="-3.10218">
        <time>2018-01-21T12:50:03.000Z</time>
      </trkpt>
      <trkpt lat="47.56563" lon="-3.10217">
        <time>2018-01-21T12:50:04.000Z</time>
      </trkpt>
      <trkpt lat="47.56556" lon="-3.10217">
        <time>2018-01-21T12:50:05.000Z</time>
      </trkpt>
      <trkpt lat="47.56549" lon="-3.10216">
        <time>2018-01-21T12:50:06.000Z</time>
      </trkpt>
      <trkpt lat="47.56543" lon="-3.10216">
        <time>2018-01-21T12:50:07.000Z</time>
      </trkpt>
      <trkpt lat="47.56536" lon="-3.10215">
        <time>2018-01-21T12:50:08.000Z</time>
      </trkpt>
      <trkpt lat="47.56528" lon="-3.10216">
        <time>2018-01-21T12:50:09.000Z</time>
      </trkpt>
      <trkpt lat="47.56521" lon="-3.10217">
        <time>2018-01-21T12:50:10.000Z</time>
      </trkpt>
      <trkpt lat="47.56513" lon="-3.10219">
        <time>2018-01-21T12:50:11.000Z</time>
      </trkpt>
      <trkpt lat="47.56505" lon="-3.10219">
        <time>2018-01-21T12:50:12.000Z</time>
      </trkpt>
      <trkpt lat="47.56498" lon="-3.10219">
        <time>2018-01-21T12:50:13.000Z</time>
      </trkpt>
      <trkpt lat="47.5649" lon="-3.10219">
        <time>2018-01-21T12:50:14.000Z</time>
      </trkpt>
      <trkpt lat="47.56482" lon="-3.10219">
        <time>2018-01-21T12:50:15.000Z</time>
      </trkpt>
      <trkpt lat="47.56475" lon="-3.1022">
        <time>2018-01-21T12:50:16.000Z</time>
      </trkpt>
      <trkpt lat="47.56468" lon="-3.1022">
        <time>2018-01-21T12:50:17.000Z</time>
      </trkpt>
      <trkpt lat="47.56461" lon="-3.1022">
        <time>2018-01-21T12:50:18.000Z</time>
      </trkpt>
      <trkpt lat="47.56454" lon="-3.1022">
        <time>2018-01-21T12:50:19.000Z</time>
      </trkpt>
      <trkpt lat="47.56446" lon="-3.10218">
        <time>2018-01-21T12:50:20.000Z</time>
      </trkpt>
      <trkpt lat="47.56439" lon="-3.10217">
        <time>2018-01-21T12:50:21.000Z</time>
      </trkpt>
      <trkpt lat="47.56432" lon="-3.10217">
        <time>2018-01-21T12:50:22.000Z</time>
      </trkpt>
      <trkpt lat="47.56424" lon="-3.10216">
        <time>2018-01-21T12:50:23.000Z</time>
      </trkpt>
      <trkpt lat="47.56417" lon="-3.10216">
        <time>2018-01-21T12:50:24.000Z</time>
      </trkpt>
      <trkpt lat="47.56409" lon="-3.10215">
        <time>2018-01-21T12:50:25.000Z</time>
      </trkpt>
      <trkpt lat="47.56402" lon="-3.10215">
        <time>2018-01-21T12:50:26.000Z</time>
      </trkpt>
      <trkpt lat="47.56394" lon="-3.10214">
        <time>2018-01-21T12:50:27.000Z</time>
      </trkpt>
      <trkpt lat="47.56387" lon="-3.10214">
        <time>2018-01-21T12:50:28.000Z</time>
      </trkpt>
      <trkpt lat="47.5638" lon="-3.10214">
        <time>2018-01-21T12:50:29.000Z</time>
      </trkpt>
      <trkpt lat="47.56373" lon="-3.10213">
        <time>2018-01-21T12:50:30.000Z</time>
      </trkpt>
      <trkpt lat="47.56365" lon="-3.10212">
        <time>2018-01-21T12:50:31.000Z</time>
      </trkpt>
      <trkpt lat="47.56358" lon="-3.10211">
        <time>2018-01-21T12:50:32.000Z</time>
      </trkpt>
      <trkpt lat="47.56351" lon="-3.10212">
        <time>2018-01-21T12:50:33.000Z</time>
      </trkpt>
      <trkpt lat="47.56343" lon="-3.10211">
        <time>2018-01-21T12:50:34.000Z</time>
      </trkpt>
      <trkpt lat="47.56336" lon="-3.10211">
        <time>2018-01-21T12:50:35.000Z</time>
      </trkpt>
      <trkpt lat="47.56328" lon="-3.10211">
        <time>2018-01-21T12:50:36.000Z</time>
      </trkpt>
      <trkpt lat="47.56321" lon="-3.10212">
        <time>2018-01-21T12:50:37.000Z</time>
      </trkpt>
      <trkpt lat="47.56314" lon="-3.10212">
        <time>2018-01-21T12:50:38.000Z</time>
      </trkpt>
      <trkpt lat="47.56306" lon="-3.10211">
        <time>2018-01-21T12:50:39.000Z</time>
      </trkpt>
      <trkpt lat="47.56299" lon="-3.1021">
        <time>2018-01-21T12:50:40.000Z</time>
      </trkpt>
      <trkpt lat="47.56292" lon="-3.1021">
        <time>2018-01-21T12:50:41.000Z</time>
      </trkpt>
      <trkpt lat="47.56284" lon="-3.10209">
        <time>2018-01-21T12:50:42.000Z</time>
      </trkpt>
      <trkpt lat="47.56276" lon="-3.10208">
        <time>2018-01-21T12:50:43.000Z</time>
      </trkpt>
      <trkpt lat="47.56269" lon="-3.10208">
        <time>2018-01-21T12:50:44.000Z</time>
      </trkpt>
      <trkpt lat="47.56262" lon="-3.10207">
        <time>2018-01-21T12:50:45.000Z</time>
      </trkpt>
      <trkpt lat="47.56255" lon="-3.10207">
        <time>2018-01-21T12:50:46.000Z</time>
      </trkpt>
      <trkpt lat="47.56248" lon="-3.10206">
        <time>2018-01-21T12:50:47.000Z</time>
      </trkpt>
      <trkpt lat="47.56241" lon="-3.10205">
        <time>2018-01-21T12:50:48.000Z</time>
      </trkpt>
      <trkpt lat="47.56234" lon="-3.10204">
        <time>2018-01-21T12:50:49.000Z</time>
      </trkpt>
      <trkpt lat="47.56227" lon="-3.10203">
        <time>2018-01-21T12:50:50.000Z</time>
      </trkpt>
      <trkpt lat="47.56221" lon="-3.10202">
        <time>2018-01-21T12:50:51.000Z</time>
      </trkpt>
      <trkpt lat="47.56214" lon="-3.102">
        <time>2018-01-21T12:50:52.000Z</time>
      </trkpt>
      <trkpt lat="47.56206" lon="-3.10198">
        <time>2018-01-21T12:50:53.000Z</time>
      </trkpt>
      <trkpt lat="47.56199" lon="-3.10194">
        <time>2018-01-21T12:50:54.000Z</time>
      </trkpt>
      <trkpt lat="47.56191" lon="-3.1019">
        <time>2018-01-21T12:50:55.000Z</time>
      </trkpt>
      <trkpt lat="47.56182" lon="-3.10187">
        <time>2018-01-21T12:50:56.000Z</time>
      </trkpt>
      <trkpt lat="47.56174" lon="-3.10185">
        <time>2018-01-21T12:50:57.000Z</time>
      </trkpt>
      <trkpt lat="47.56164" lon="-3.10178">
        <time>2018-01-21T12:50:58.000Z</time>
      </trkpt>
      <trkpt lat="47.56155" lon="-3.10176">
        <time>2018-01-21T12:50:59.000Z</time>
      </trkpt>
      <trkpt lat="47.56147" lon="-3.10175">
        <time>2018-01-21T12:51:00.000Z</time>
      </trkpt>
      <trkpt lat="47.56138" lon="-3.10173">
        <time>2018-01-21T12:51:01.000Z</time>
      </trkpt>
      <trkpt lat="47.5613" lon="-3.10173">
        <time>2018-01-21T12:51:02.000Z</time>
      </trkpt>
      <trkpt lat="47.56122" lon="-3.10173">
        <time>2018-01-21T12:51:03.000Z</time>
      </trkpt>
      <trkpt lat="47.56115" lon="-3.10171">
        <time>2018-01-21T12:51:04.000Z</time>
      </trkpt>
      <trkpt lat="47.56107" lon="-3.1017">
        <time>2018-01-21T12:51:05.000Z</time>
      </trkpt>
      <trkpt lat="47.56099" lon="-3.10169">
        <time>2018-01-21T12:51:06.000Z</time>
      </trkpt>
      <trkpt lat="47.56091" lon="-3.10167">
        <time>2018-01-21T12:51:07.000Z</time>
      </trkpt>
      <trkpt lat="47.56083" lon="-3.10166">
        <time>2018-01-21T12:51:08.000Z</time>
      </trkpt>
      <trkpt lat="47.56076" lon="-3.10166">
        <time>2018-01-21T12:51:09.000Z</time>
      </trkpt>
      <trkpt lat="47.56068" lon="-3.10165">
        <time>2018-01-21T12:51:10.000Z</time>
      </trkpt>
      <trkpt lat="47.5606" lon="-3.10164">
        <time>2018-01-21T12:51:11.000Z</time>
      </trkpt>
      <trkpt lat="47.56052" lon="-3.10164">
        <time>2018-01-21T12:51:12.000Z</time>
      </trkpt>
      <trkpt lat="47.56044" lon="-3.10164">
        <time>2018-01-21T12:51:13.000Z</time>
      </trkpt>
      <trkpt lat="47.56037" lon="-3.10165">
        <time>2018-01-21T12:51:14.000Z</time>
      </trkpt>
      <trkpt lat="47.5603" lon="-3.10166">
        <time>2018-01-21T12:51:15.000Z</time>
      </trkpt>
      <trkpt lat="47.56023" lon="-3.10166">
        <time>2018-01-21T12:51:16.000Z</time>
      </trkpt>
      <trkpt lat="47.56016" lon="-3.10165">
        <time>2018-01-21T12:51:17.000Z</time>
      </trkpt>
      <trkpt lat="47.56009" lon="-3.10164">
        <time>2018-01-21T12:51:18.000Z</time>
      </trkpt>
      <trkpt lat="47.56002" lon="-3.10163">
        <time>2018-01-21T12:51:19.000Z</time>
      </trkpt>
      <trkpt lat="47.55995" lon="-3.10163">
        <time>2018-01-21T12:51:20.000Z</time>
      </trkpt>
      <trkpt lat="47.55987" lon="-3.10162">
        <time>2018-01-21T12:51:21.000Z</time>
      </trkpt>
      <trkpt lat="47.55979" lon="-3.10163">
        <time>2018-01-21T12:51:22.000Z</time>
      </trkpt>
      <trkpt lat="47.55971" lon="-3.10163">
        <time>2018-01-21T12:51:23.000Z</time>
      </trkpt>
      <trkpt lat="47.55964" lon="-3.10163">
        <time>2018-01-21T12:51:24.000Z</time>
      </trkpt>
      <trkpt lat="47.55956" lon="-3.10163">
        <time>2018-01-21T12:51:25.000Z</time>
      </trkpt>
      <trkpt lat="47.5595" lon="-3.10164">
        <time>2018-01-21T12:51:26.000Z</time>
      </trkpt>
      <trkpt lat="47.55943" lon="-3.10165">
        <time>2018-01-21T12:51:27.000Z</time>
      </trkpt>
      <trkpt lat="47.55936" lon="-3.10165">
        <time>2018-01-21T12:51:28.000Z</time>
      </trkpt>
      <trkpt lat="47.5593" lon="-3.10165">
        <time>2018-01-21T12:51:29.000Z</time>
      </trkpt>
      <trkpt lat="47.55923" lon="-3.10165">
        <time>2018-01-21T12:51:30.000Z</time>
      </trkpt>
      <trkpt lat="47.55916" lon="-3.10165">
        <time>2018-01-21T12:51:31.000Z</time>
      </trkpt>
      <trkpt lat="47.55909" lon="-3.10165">
        <time>2018-01-21T12:51:32.000Z</time>
      </trkpt>
      <trkpt lat="47.55902" lon="-3.10165">
        <time>2018-01-21T12:51:33.000Z</time>
      </trkpt>
      <trkpt lat="47.55895" lon="-3.10165">
        <time>2018-01-21T12:51:34.000Z</time>
      </trkpt>
      <trkpt lat="47.55888" lon="-3.10164">
        <time>2018-01-21T12:51:35.000Z</time>
      </trkpt>
      <trkpt lat="47.55882" lon="-3.10164">
        <time>2018-01-21T12:51:36.000Z</time>
      </trkpt>
      <trkpt lat="47.55875" lon="-3.10163">
        <time>2018-01-21T12:51:37.000Z</time>
      </trkpt>
      <trkpt lat="47.55868" lon="-3.10161">
        <time>2018-01-21T12:51:38.000Z</time>
      </trkpt>
      <trkpt lat="47.55861" lon="-3.1016">
        <time>2018-01-21T12:51:39.000Z</time>
      </trkpt>
      <trkpt lat="47.55855" lon="-3.10158">
        <time>2018-01-21T12:51:40.000Z</time>
      </trkpt>
      <trkpt lat="47.55849" lon="-3.10157">
        <time>2018-01-21T12:51:41.000Z</time>
      </trkpt>
      <trkpt lat="47.55842" lon="-3.10155">
        <time>2018-01-21T12:51:42.000Z</time>
      </trkpt>
      <trkpt lat="47.55835" lon="-3.10154">
        <time>2018-01-21T12:51:43.000Z</time>
      </trkpt>
      <trkpt lat="47.55828" lon="-3.10153">
        <time>2018-01-21T12:51:44.000Z</time>
      </trkpt>
      <trkpt lat="47.55821" lon="-3.10153">
        <time>2018-01-21T12:51:45.000Z</time>
      </trkpt>
      <trkpt lat="47.55814" lon="-3.10154">
        <time>2018-01-21T12:51:46.000Z</time>
      </trkpt>
      <trkpt lat="47.55806" lon="-3.10154">
        <time>2018-01-21T12:51:47.000Z</time>
      </trkpt>
      <trkpt lat="47.55799" lon="-3.10154">
        <time>2018-01-21T12:51:48.000Z</time>
      </trkpt>
      <trkpt lat="47.55791" lon="-3.10155">
        <time>2018-01-21T12:51:49.000Z</time>
      </trkpt>
      <trkpt lat="47.55783" lon="-3.10155">
        <time>2018-01-21T12:51:50.000Z</time>
      </trkpt>
      <trkpt lat="47.55776" lon="-3.10155">
        <time>2018-01-21T12:51:51.000Z</time>
      </trkpt>
      <trkpt lat="47.55768" lon="-3.10154">
        <time>2018-01-21T12:51:52.000Z</time>
      </trkpt>
      <trkpt lat="47.55761" lon="-3.10152">
        <time>2018-01-21T12:51:53.000Z</time>
      </trkpt>
      <trkpt lat="47.55753" lon="-3.10151">
        <time>2018-01-21T12:51:54.000Z</time>
      </trkpt>
      <trkpt lat="47.55746" lon="-3.10148">
        <time>2018-01-21T12:51:55.000Z</time>
      </trkpt>
      <trkpt lat="47.55738" lon="-3.10146">
        <time>2018-01-21T12:51:56.000Z</time>
      </trkpt>
      <trkpt lat="47.55731" lon="-3.10145">
        <time>2018-01-21T12:51:57.000Z</time>
      </trkpt>
      <trkpt lat="47.55723" lon="-3.10143">
        <time>2018-01-21T12:51:58.000Z</time>
      </trkpt>
      <trkpt lat="47.55715" lon="-3.10141">
        <time>2018-01-21T12:51:59.000Z</time>
      </trkpt>
      <trkpt lat="47.55707" lon="-3.10139">
        <time>2018-01-21T12:52:00.000Z</time>
      </trkpt>
      <trkpt lat="47.55699" lon="-3.10137">
        <time>2018-01-21T12:52:01.000Z</time>
      </trkpt>
      <trkpt lat="47.55691" lon="-3.10136">
        <time>2018-01-21T12:52:02.000Z</time>
      </trkpt>
      <trkpt lat="47.55683" lon="-3.10134">
        <time>2018-01-21T12:52:03.000Z</time>
      </trkpt>
      <trkpt lat="47.55675" lon="-3.10131">
        <time>2018-01-21T12:52:04.000Z</time>
      </trkpt>
      <trkpt lat="47.55667" lon="-3.10129">
        <time>2018-01-21T12:52:05.000Z</time>
      </trkpt>
      <trkpt lat="47.55658" lon="-3.10128">
        <time>2018-01-21T12:52:06.000Z</time>
      </trkpt>
      <trkpt lat="47.55651" lon="-3.10126">
        <time>2018-01-21T12:52:07.000Z</time>
      </trkpt>
      <trkpt lat="47.55642" lon="-3.10125">
        <time>2018-01-21T12:52:08.000Z</time>
      </trkpt>
      <trkpt lat="47.55634" lon="-3.10124">
        <time>2018-01-21T12:52:09.000Z</time>
      </trkpt>
      <trkpt lat="47.55626" lon="-3.10122">
        <time>2018-01-21T12:52:10.000Z</time>
      </trkpt>
      <trkpt lat="47.55619" lon="-3.10121">
        <time>2018-01-21T12:52:11.000Z</time>
      </trkpt>
      <trkpt lat="47.55611" lon="-3.10119">
        <time>2018-01-21T12:52:12.000Z</time>
      </trkpt>
      <trkpt lat="47.55603" lon="-3.10117">
        <time>2018-01-21T12:52:13.000Z</time>
      </trkpt>
      <trkpt lat="47.55596" lon="-3.10118">
        <time>2018-01-21T12:52:14.000Z</time>
      </trkpt>
      <trkpt lat="47.5559" lon="-3.10119">
        <time>2018-01-21T12:52:15.000Z</time>
      </trkpt>
      <trkpt lat="47.55586" lon="-3.10122">
        <time>2018-01-21T12:52:16.000Z</time>
      </trkpt>
      <trkpt lat="47.55582" lon="-3.10124">
        <time>2018-01-21T12:52:17.000Z</time>
      </trkpt>
      <trkpt lat="47.55577" lon="-3.10125">
        <time>2018-01-21T12:52:18.000Z</time>
      </trkpt>
      <trkpt lat="47.55572" lon="-3.10127">
        <time>2018-01-21T12:52:19.000Z</time>
      </trkpt>
      <trkpt lat="47.55569" lon="-3.10128">
        <time>2018-01-21T12:52:20.000Z</time>
      </trkpt>
      <trkpt lat="47.55565" lon="-3.1013">
        <time>2018-01-21T12:52:21.000Z</time>
      </trkpt>
      <trkpt lat="47.55561" lon="-3.10131">
        <time>2018-01-21T12:52:22.000Z</time>
      </trkpt>
      <trkpt lat="47.55558" lon="-3.10132">
        <time>2018-01-21T12:52:23.000Z</time>
      </trkpt>
      <trkpt lat="47.55554" lon="-3.10132">
        <time>2018-01-21T12:52:24.000Z</time>
      </trkpt>
      <trkpt lat="47.5555" lon="-3.10132">
        <time>2018-01-21T12:52:25.000Z</time>
      </trkpt>
      <trkpt lat="47.55546" lon="-3.10132">
        <time>2018-01-21T12:52:26.000Z</time>
      </trkpt>
      <trkpt lat="47.55542" lon="-3.10131">
        <time>2018-01-21T12:52:27.000Z</time>
      </trkpt>
      <trkpt lat="47.55537" lon="-3.1013">
        <time>2018-01-21T12:52:28.000Z</time>
      </trkpt>
      <trkpt lat="47.55532" lon="-3.10128">
        <time>2018-01-21T12:52:29.000Z</time>
      </trkpt>
      <trkpt lat="47.55527" lon="-3.10126">
        <time>2018-01-21T12:52:30.000Z</time>
      </trkpt>
      <trkpt lat="47.55521" lon="-3.10123">
        <time>2018-01-21T12:52:31.000Z</time>
      </trkpt>
      <trkpt lat="47.55516" lon="-3.10121">
        <time>2018-01-21T12:52:32.000Z</time>
      </trkpt>
      <trkpt lat="47.55509" lon="-3.10121">
        <time>2018-01-21T12:52:33.000Z</time>
      </trkpt>
      <trkpt lat="47.55503" lon="-3.1012">
        <time>2018-01-21T12:52:34.000Z</time>
      </trkpt>
      <trkpt lat="47.55498" lon="-3.10119">
        <time>2018-01-21T12:52:35.000Z</time>
      </trkpt>
      <trkpt lat="47.55492" lon="-3.10117">
        <time>2018-01-21T12:52:36.000Z</time>
      </trkpt>
      <trkpt lat="47.55486" lon="-3.10116">
        <time>2018-01-21T12:52:37.000Z</time>
      </trkpt>
      <trkpt lat="47.55481" lon="-3.10116">
        <time>2018-01-21T12:52:38.000Z</time>
      </trkpt>
      <trkpt lat="47.55475" lon="-3.10116">
        <time>2018-01-21T12:52:39.000Z</time>
      </trkpt>
      <trkpt lat="47.5547" lon="-3.10115">
        <time>2018-01-21T12:52:40.000Z</time>
      </trkpt>
      <trkpt lat="47.55465" lon="-3.10113">
        <time>2018-01-21T12:52:41.000Z</time>
      </trkpt>
      <trkpt lat="47.55459" lon="-3.10112">
        <time>2018-01-21T12:52:42.000Z</time>
      </trkpt>
      <trkpt lat="47.55453" lon="-3.10112">
        <time>2018-01-21T12:52:43.000Z</time>
      </trkpt>
      <trkpt lat="47.55448" lon="-3.10112">
        <time>2018-01-21T12:52:44.000Z</time>
      </trkpt>
      <trkpt lat="47.55443" lon="-3.10113">
        <time>2018-01-21T12:52:45.000Z</time>
      </trkpt>
      <trkpt lat="47.55437" lon="-3.10113">
        <time>2018-01-21T12:52:46.000Z</time>
      </trkpt>
      <trkpt lat="47.55432" lon="-3.10112">
        <time>2018-01-21T12:52:47.000Z</time>
      </trkpt>
      <trkpt lat="47.55426" lon="-3.10111">
        <time>2018-01-21T12:52:48.000Z</time>
      </trkpt>
      <trkpt lat="47.55421" lon="-3.10111">
        <time>2018-01-21T12:52:49.000Z</time>
      </trkpt>
      <trkpt lat="47.55416" lon="-3.1011">
        <time>2018-01-21T12:52:50.000Z</time>
      </trkpt>
      <trkpt lat="47.55411" lon="-3.10108">
        <time>2018-01-21T12:52:51.000Z</time>
      </trkpt>
      <trkpt lat="47.55406" lon="-3.10105">
        <time>2018-01-21T12:52:52.000Z</time>
      </trkpt>
      <trkpt lat="47.554" lon="-3.10103">
        <time>2018-01-21T12:52:53.000Z</time>
      </trkpt>
      <trkpt lat="47.55394" lon="-3.10101">
        <time>2018-01-21T12:52:54.000Z</time>
      </trkpt>
      <trkpt lat="47.55388" lon="-3.10098">
        <time>2018-01-21T12:52:55.000Z</time>
      </trkpt>
      <trkpt lat="47.5538" lon="-3.10096">
        <time>2018-01-21T12:52:56.000Z</time>
      </trkpt>
      <trkpt lat="47.55373" lon="-3.10095">
        <time>2018-01-21T12:52:57.000Z</time>
      </trkpt>
      <trkpt lat="47.55366" lon="-3.10094">
        <time>2018-01-21T12:52:58.000Z</time>
      </trkpt>
      <trkpt lat="47.55358" lon="-3.10093">
        <time>2018-01-21T12:52:59.000Z</time>
      </trkpt>
      <trkpt lat="47.55351" lon="-3.10093">
        <time>2018-01-21T12:53:00.000Z</time>
      </trkpt>
      <trkpt lat="47.55343" lon="-3.10093">
        <time>2018-01-21T12:53:01.000Z</time>
      </trkpt>
      <trkpt lat="47.55336" lon="-3.10093">
        <time>2018-01-21T12:53:02.000Z</time>
      </trkpt>
      <trkpt lat="47.55328" lon="-3.10091">
        <time>2018-01-21T12:53:03.000Z</time>
      </trkpt>
      <trkpt lat="47.55321" lon="-3.10089">
        <time>2018-01-21T12:53:04.000Z</time>
      </trkpt>
      <trkpt lat="47.55313" lon="-3.10086">
        <time>2018-01-21T12:53:05.000Z</time>
      </trkpt>
      <trkpt lat="47.55305" lon="-3.10084">
        <time>2018-01-21T12:53:06.000Z</time>
      </trkpt>
      <trkpt lat="47.55296" lon="-3.10081">
        <time>2018-01-21T12:53:07.000Z</time>
      </trkpt>
      <trkpt lat="47.55288" lon="-3.1008">
        <time>2018-01-21T12:53:08.000Z</time>
      </trkpt>
      <trkpt lat="47.5528" lon="-3.10078">
        <time>2018-01-21T12:53:09.000Z</time>
      </trkpt>
      <trkpt lat="47.55271" lon="-3.10076">
        <time>2018-01-21T12:53:10.000Z</time>
      </trkpt>
      <trkpt lat="47.55264" lon="-3.10076">
        <time>2018-01-21T12:53:11.000Z</time>
      </trkpt>
      <trkpt lat="47.55255" lon="-3.10075">
        <time>2018-01-21T12:53:12.000Z</time>
      </trkpt>
      <trkpt lat="47.55247" lon="-3.10073">
        <time>2018-01-21T12:53:13.000Z</time>
      </trkpt>
      <trkpt lat="47.55239" lon="-3.10073">
        <time>2018-01-21T12:53:14.000Z</time>
      </trkpt>
      <trkpt lat="47.55231" lon="-3.10071">
        <time>2018-01-21T12:53:15.000Z</time>
      </trkpt>
      <trkpt lat="47.55223" lon="-3.1007">
        <time>2018-01-21T12:53:16.000Z</time>
      </trkpt>
      <trkpt lat="47.55214" lon="-3.10069">
        <time>2018-01-21T12:53:17.000Z</time>
      </trkpt>
      <trkpt lat="47.55206" lon="-3.1007">
        <time>2018-01-21T12:53:18.000Z</time>
      </trkpt>
      <trkpt lat="47.55198" lon="-3.1007">
        <time>2018-01-21T12:53:19.000Z</time>
      </trkpt>
      <trkpt lat="47.55189" lon="-3.10068">
        <time>2018-01-21T12:53:20.000Z</time>
      </trkpt>
      <trkpt lat="47.55181" lon="-3.10069">
        <time>2018-01-21T12:53:21.000Z</time>
      </trkpt>
      <trkpt lat="47.55173" lon="-3.10069">
        <time>2018-01-21T12:53:22.000Z</time>
      </trkpt>
      <trkpt lat="47.55165" lon="-3.1007">
        <time>2018-01-21T12:53:23.000Z</time>
      </trkpt>
      <trkpt lat="47.55157" lon="-3.1007">
        <time>2018-01-21T12:53:24.000Z</time>
      </trkpt>
      <trkpt lat="47.55149" lon="-3.10071">
        <time>2018-01-21T12:53:25.000Z</time>
      </trkpt>
      <trkpt lat="47.55142" lon="-3.10072">
        <time>2018-01-21T12:53:26.000Z</time>
      </trkpt>
      <trkpt lat="47.55134" lon="-3.10072">
        <time>2018-01-21T12:53:27.000Z</time>
      </trkpt>
      <trkpt lat="47.55126" lon="-3.10073">
        <time>2018-01-21T12:53:28.000Z</time>
      </trkpt>
      <trkpt lat="47.55118" lon="-3.10074">
        <time>2018-01-21T12:53:29.000Z</time>
      </trkpt>
      <trkpt lat="47.55109" lon="-3.10074">
        <time>2018-01-21T12:53:30.000Z</time>
      </trkpt>
      <trkpt lat="47.55101" lon="-3.10075">
        <time>2018-01-21T12:53:31.000Z</time>
      </trkpt>
      <trkpt lat="47.55093" lon="-3.10074">
        <time>2018-01-21T12:53:32.000Z</time>
      </trkpt>
      <trkpt lat="47.55085" lon="-3.10074">
        <time>2018-01-21T12:53:33.000Z</time>
      </trkpt>
      <trkpt lat="47.55078" lon="-3.10075">
        <time>2018-01-21T12:53:34.000Z</time>
      </trkpt>
      <trkpt lat="47.5507" lon="-3.10075">
        <time>2018-01-21T12:53:35.000Z</time>
      </trkpt>
      <trkpt lat="47.55064" lon="-3.10076">
        <time>2018-01-21T12:53:36.000Z</time>
      </trkpt>
      <trkpt lat="47.55056" lon="-3.10076">
        <time>2018-01-21T12:53:37.000Z</time>
      </trkpt>
      <trkpt lat="47.55049" lon="-3.10075">
        <time>2018-01-21T12:53:38.000Z</time>
      </trkpt>
      <trkpt lat="47.55041" lon="-3.10075">
        <time>2018-01-21T12:53:39.000Z</time>
      </trkpt>
      <trkpt lat="47.55033" lon="-3.10075">
        <time>2018-01-21T12:53:40.000Z</time>
      </trkpt>
      <trkpt lat="47.55024" lon="-3.10074">
        <time>2018-01-21T12:53:41.000Z</time>
      </trkpt>
      <trkpt lat="47.55016" lon="-3.10073">
        <time>2018-01-21T12:53:42.000Z</time>
      </trkpt>
      <trkpt lat="47.55008" lon="-3.10073">
        <time>2018-01-21T12:53:43.000Z</time>
      </trkpt>
      <trkpt lat="47.54999" lon="-3.10073">
        <time>2018-01-21T12:53:44.000Z</time>
      </trkpt>
      <trkpt lat="47.54991" lon="-3.10075">
        <time>2018-01-21T12:53:45.000Z</time>
      </trkpt>
      <trkpt lat="47.54984" lon="-3.10076">
        <time>2018-01-21T12:53:46.000Z</time>
      </trkpt>
      <trkpt lat="47.54977" lon="-3.10077">
        <time>2018-01-21T12:53:47.000Z</time>
      </trkpt>
      <trkpt lat="47.5497" lon="-3.10077">
        <time>2018-01-21T12:53:48.000Z</time>
      </trkpt>
      <trkpt lat="47.54963" lon="-3.10077">
        <time>2018-01-21T12:53:49.000Z</time>
      </trkpt>
      <trkpt lat="47.54956" lon="-3.10077">
        <time>2018-01-21T12:53:50.000Z</time>
      </trkpt>
      <trkpt lat="47.5495" lon="-3.10078">
        <time>2018-01-21T12:53:51.000Z</time>
      </trkpt>
      <trkpt lat="47.54943" lon="-3.10078">
        <time>2018-01-21T12:53:52.000Z</time>
      </trkpt>
      <trkpt lat="47.54936" lon="-3.10078">
        <time>2018-01-21T12:53:53.000Z</time>
      </trkpt>
      <trkpt lat="47.54929" lon="-3.10078">
        <time>2018-01-21T12:53:54.000Z</time>
      </trkpt>
      <trkpt lat="47.54922" lon="-3.10078">
        <time>2018-01-21T12:53:55.000Z</time>
      </trkpt>
      <trkpt lat="47.54915" lon="-3.10078">
        <time>2018-01-21T12:53:56.000Z</time>
      </trkpt>
      <trkpt lat="47.54908" lon="-3.10078">
        <time>2018-01-21T12:53:57.000Z</time>
      </trkpt>
      <trkpt lat="47.54901" lon="-3.10078">
        <time>2018-01-21T12:53:58.000Z</time>
      </trkpt>
      <trkpt lat="47.54894" lon="-3.10078">
        <time>2018-01-21T12:53:59.000Z</time>
      </trkpt>
      <trkpt lat="47.54886" lon="-3.10076">
        <time>2018-01-21T12:54:00.000Z</time>
      </trkpt>
      <trkpt lat="47.54879" lon="-3.10076">
        <time>2018-01-21T12:54:01.000Z</time>
      </trkpt>
      <trkpt lat="47.54871" lon="-3.10076">
        <time>2018-01-21T12:54:02.000Z</time>
      </trkpt>
      <trkpt lat="47.54864" lon="-3.10076">
        <time>2018-01-21T12:54:03.000Z</time>
      </trkpt>
      <trkpt lat="47.54856" lon="-3.10077">
        <time>2018-01-21T12:54:04.000Z</time>
      </trkpt>
      <trkpt lat="47.54849" lon="-3.10078">
        <time>2018-01-21T12:54:05.000Z</time>
      </trkpt>
      <trkpt lat="47.54841" lon="-3.10078">
        <time>2018-01-21T12:54:06.000Z</time>
      </trkpt>
      <trkpt lat="47.54833" lon="-3.10078">
        <time>2018-01-21T12:54:07.000Z</time>
      </trkpt>
      <trkpt lat="47.54826" lon="-3.10077">
        <time>2018-01-21T12:54:08.000Z</time>
      </trkpt>
      <trkpt lat="47.54818" lon="-3.10077">
        <time>2018-01-21T12:54:09.000Z</time>
      </trkpt>
      <trkpt lat="47.5481" lon="-3.10077">
        <time>2018-01-21T12:54:10.000Z</time>
      </trkpt>
      <trkpt lat="47.54802" lon="-3.10076">
        <time>2018-01-21T12:54:11.000Z</time>
      </trkpt>
      <trkpt lat="47.54794" lon="-3.10076">
        <time>2018-01-21T12:54:12.000Z</time>
      </trkpt>
      <trkpt lat="47.54785" lon="-3.10076">
        <time>2018-01-21T12:54:13.000Z</time>
      </trkpt>
      <trkpt lat="47.54777" lon="-3.10076">
        <time>2018-01-21T12:54:14.000Z</time>
      </trkpt>
      <trkpt lat="47.54768" lon="-3.10076">
        <time>2018-01-21T12:54:15.000Z</time>
      </trkpt>
      <trkpt lat="47.5476" lon="-3.10077">
        <time>2018-01-21T12:54:16.000Z</time>
      </trkpt>
      <trkpt lat="47.54752" lon="-3.10079">
        <time>2018-01-21T12:54:17.000Z</time>
      </trkpt>
      <trkpt lat="47.54744" lon="-3.10081">
        <time>2018-01-21T12:54:18.000Z</time>
      </trkpt>
      <trkpt lat="47.54736" lon="-3.10082">
        <time>2018-01-21T12:54:19.000Z</time>
      </trkpt>
      <trkpt lat="47.54729" lon="-3.10083">
        <time>2018-01-21T12:54:20.000Z</time>
      </trkpt>
      <trkpt lat="47.54721" lon="-3.10084">
        <time>2018-01-21T12:54:21.000Z</time>
      </trkpt>
      <trkpt lat="47.54713" lon="-3.10085">
        <time>2018-01-21T12:54:22.000Z</time>
      </trkpt>
      <trkpt lat="47.54706" lon="-3.10087">
        <time>2018-01-21T12:54:23.000Z</time>
      </trkpt>
      <trkpt lat="47.54699" lon="-3.10088">
        <time>2018-01-21T12:54:24.000Z</time>
      </trkpt>
      <trkpt lat="47.54692" lon="-3.10089">
        <time>2018-01-21T12:54:25.000Z</time>
      </trkpt>
      <trkpt lat="47.54685" lon="-3.1009">
        <time>2018-01-21T12:54:26.000Z</time>
      </trkpt>
      <trkpt lat="47.54677" lon="-3.1009">
        <time>2018-01-21T12:54:27.000Z</time>
      </trkpt>
      <trkpt lat="47.5467" lon="-3.1009">
        <time>2018-01-21T12:54:28.000Z</time>
      </trkpt>
      <trkpt lat="47.54663" lon="-3.10091">
        <time>2018-01-21T12:54:29.000Z</time>
      </trkpt>
      <trkpt lat="47.54656" lon="-3.10092">
        <time>2018-01-21T12:54:30.000Z</time>
      </trkpt>
      <trkpt lat="47.54649" lon="-3.10092">
        <time>2018-01-21T12:54:31.000Z</time>
      </trkpt>
      <trkpt lat="47.54643" lon="-3.10092">
        <time>2018-01-21T12:54:32.000Z</time>
      </trkpt>
      <trkpt lat="47.54636" lon="-3.10092">
        <time>2018-01-21T12:54:33.000Z</time>
      </trkpt>
      <trkpt lat="47.54629" lon="-3.10092">
        <time>2018-01-21T12:54:34.000Z</time>
      </trkpt>
      <trkpt lat="47.54623" lon="-3.10092">
        <time>2018-01-21T12:54:35.000Z</time>
      </trkpt>
      <trkpt lat="47.54616" lon="-3.10092">
        <time>2018-01-21T12:54:36.000Z</time>
      </trkpt>
      <trkpt lat="47.54608" lon="-3.10092">
        <time>2018-01-21T12:54:37.000Z</time>
      </trkpt>
      <trkpt lat="47.54601" lon="-3.10092">
        <time>2018-01-21T12:54:38.000Z</time>
      </trkpt>
      <trkpt lat="47.54593" lon="-3.10093">
        <time>2018-01-21T12:54:39.000Z</time>
      </trkpt>
      <trkpt lat="47.54586" lon="-3.10094">
        <time>2018-01-21T12:54:40.000Z</time>
      </trkpt>
      <trkpt lat="47.54579" lon="-3.10095">
        <time>2018-01-21T12:54:41.000Z</time>
      </trkpt>
      <trkpt lat="47.54572" lon="-3.10097">
        <time>2018-01-21T12:54:42.000Z</time>
      </trkpt>
      <trkpt lat="47.54564" lon="-3.10097">
        <time>2018-01-21T12:54:43.000Z</time>
      </trkpt>
      <trkpt lat="47.54556" lon="-3.10098">
        <time>2018-01-21T12:54:44.000Z</time>
      </trkpt>
      <trkpt lat="47.54548" lon="-3.10098">
        <time>2018-01-21T12:54:45.000Z</time>
      </trkpt>
      <trkpt lat="47.54541" lon="-3.10098">
        <time>2018-01-21T12:54:46.000Z</time>
      </trkpt>
      <trkpt lat="47.54533" lon="-3.10098">
        <time>2018-01-21T12:54:47.000Z</time>
      </trkpt>
      <trkpt lat="47.54525" lon="-3.10099">
        <time>2018-01-21T12:54:48.000Z</time>
      </trkpt>
      <trkpt lat="47.54517" lon="-3.101">
        <time>2018-01-21T12:54:49.000Z</time>
      </trkpt>
      <trkpt lat="47.54509" lon="-3.10099">
        <time>2018-01-21T12:54:50.000Z</time>
      </trkpt>
      <trkpt lat="47.54502" lon="-3.10098">
        <time>2018-01-21T12:54:51.000Z</time>
      </trkpt>
      <trkpt lat="47.54493" lon="-3.10098">
        <time>2018-01-21T12:54:52.000Z</time>
      </trkpt>
      <trkpt lat="47.54485" lon="-3.10098">
        <time>2018-01-21T12:54:53.000Z</time>
      </trkpt>
      <trkpt lat="47.54477" lon="-3.10097">
        <time>2018-01-21T12:54:54.000Z</time>
      </trkpt>
      <trkpt lat="47.54469" lon="-3.10097">
        <time>2018-01-21T12:54:55.000Z</time>
      </trkpt>
      <trkpt lat="47.54461" lon="-3.10098">
        <time>2018-01-21T12:54:56.000Z</time>
      </trkpt>
      <trkpt lat="47.54453" lon="-3.10099">
        <time>2018-01-21T12:54:57.000Z</time>
      </trkpt>
      <trkpt lat="47.54445" lon="-3.101">
        <time>2018-01-21T12:54:58.000Z</time>
      </trkpt>
      <trkpt lat="47.54437" lon="-3.101">
        <time>2018-01-21T12:54:59.000Z</time>
      </trkpt>
      <trkpt lat="47.54429" lon="-3.10101">
        <time>2018-01-21T12:55:00.000Z</time>
      </trkpt>
      <trkpt lat="47.54421" lon="-3.10101">
        <time>2018-01-21T12:55:01.000Z</time>
      </trkpt>
      <trkpt lat="47.54413" lon="-3.101">
        <time>2018-01-21T12:55:02.000Z</time>
      </trkpt>
      <trkpt lat="47.54405" lon="-3.10102">
        <time>2018-01-21T12:55:03.000Z</time>
      </trkpt>
      <trkpt lat="47.54398" lon="-3.10102">
        <time>2018-01-21T12:55:04.000Z</time>
      </trkpt>
      <trkpt lat="47.54391" lon="-3.10102">
        <time>2018-01-21T12:55:05.000Z</time>
      </trkpt>
      <trkpt lat="47.54384" lon="-3.10103">
        <time>2018-01-21T12:55:06.000Z</time>
      </trkpt>
      <trkpt lat="47.54376" lon="-3.10104">
        <time>2018-01-21T12:55:07.000Z</time>
      </trkpt>
      <trkpt lat="47.54369" lon="-3.10104">
        <time>2018-01-21T12:55:08.000Z</time>
      </trkpt>
      <trkpt lat="47.54361" lon="-3.10105">
        <time>2018-01-21T12:55:09.000Z</time>
      </trkpt>
      <trkpt lat="47.54354" lon="-3.10106">
        <time>2018-01-21T12:55:10.000Z</time>
      </trkpt>
      <trkpt lat="47.54346" lon="-3.10106">
        <time>2018-01-21T12:55:11.000Z</time>
      </trkpt>
      <trkpt lat="47.54339" lon="-3.10107">
        <time>2018-01-21T12:55:12.000Z</time>
      </trkpt>
      <trkpt lat="47.54331" lon="-3.10107">
        <time>2018-01-21T12:55:13.000Z</time>
      </trkpt>
      <trkpt lat="47.54324" lon="-3.10108">
        <time>2018-01-21T12:55:14.000Z</time>
      </trkpt>
      <trkpt lat="47.54316" lon="-3.10109">
        <time>2018-01-21T12:55:15.000Z</time>
      </trkpt>
      <trkpt lat="47.54309" lon="-3.10109">
        <time>2018-01-21T12:55:16.000Z</time>
      </trkpt>
      <trkpt lat="47.54302" lon="-3.1011">
        <time>2018-01-21T12:55:17.000Z</time>
      </trkpt>
      <trkpt lat="47.54294" lon="-3.10109">
        <time>2018-01-21T12:55:18.000Z</time>
      </trkpt>
      <trkpt lat="47.54286" lon="-3.10109">
        <time>2018-01-21T12:55:19.000Z</time>
      </trkpt>
      <trkpt lat="47.54278" lon="-3.10109">
        <time>2018-01-21T12:55:20.000Z</time>
      </trkpt>
      <trkpt lat="47.5427" lon="-3.10109">
        <time>2018-01-21T12:55:21.000Z</time>
      </trkpt>
      <trkpt lat="47.54262" lon="-3.10109">
        <time>2018-01-21T12:55:22.000Z</time>
      </trkpt>
      <trkpt lat="47.54254" lon="-3.10109">
        <time>2018-01-21T12:55:23.000Z</time>
      </trkpt>
      <trkpt lat="47.54247" lon="-3.10109">
        <time>2018-01-21T12:55:24.000Z</time>
      </trkpt>
      <trkpt lat="47.54239" lon="-3.10109">
        <time>2018-01-21T12:55:25.000Z</time>
      </trkpt>
      <trkpt lat="47.54231" lon="-3.1011">
        <time>2018-01-21T12:55:26.000Z</time>
      </trkpt>
      <trkpt lat="47.54224" lon="-3.10111">
        <time>2018-01-21T12:55:27.000Z</time>
      </trkpt>
      <trkpt lat="47.54216" lon="-3.10111">
        <time>2018-01-21T12:55:28.000Z</time>
      </trkpt>
      <trkpt lat="47.54209" lon="-3.10112">
        <time>2018-01-21T12:55:29.000Z</time>
      </trkpt>
      <trkpt lat="47.54202" lon="-3.10112">
        <time>2018-01-21T12:55:30.000Z</time>
      </trkpt>
      <trkpt lat="47.54196" lon="-3.10113">
        <time>2018-01-21T12:55:31.000Z</time>
      </trkpt>
      <trkpt lat="47.54189" lon="-3.10113">
        <time>2018-01-21T12:55:32.000Z</time>
      </trkpt>
      <trkpt lat="47.54183" lon="-3.10114">
        <time>2018-01-21T12:55:33.000Z</time>
      </trkpt>
      <trkpt lat="47.54176" lon="-3.10115">
        <time>2018-01-21T12:55:34.000Z</time>
      </trkpt>
      <trkpt lat="47.5417" lon="-3.10115">
        <time>2018-01-21T12:55:35.000Z</time>
      </trkpt>
      <trkpt lat="47.54164" lon="-3.10116">
        <time>2018-01-21T12:55:36.000Z</time>
      </trkpt>
      <trkpt lat="47.54158" lon="-3.10116">
        <time>2018-01-21T12:55:37.000Z</time>
      </trkpt>
      <trkpt lat="47.54152" lon="-3.10117">
        <time>2018-01-21T12:55:38.000Z</time>
      </trkpt>
      <trkpt lat="47.54145" lon="-3.10118">
        <time>2018-01-21T12:55:39.000Z</time>
      </trkpt>
      <trkpt lat="47.54138" lon="-3.10119">
        <time>2018-01-21T12:55:40.000Z</time>
      </trkpt>
      <trkpt lat="47.54131" lon="-3.1012">
        <time>2018-01-21T12:55:41.000Z</time>
      </trkpt>
      <trkpt lat="47.54125" lon="-3.10121">
        <time>2018-01-21T12:55:42.000Z</time>
      </trkpt>
      <trkpt lat="47.54118" lon="-3.10122">
        <time>2018-01-21T12:55:43.000Z</time>
      </trkpt>
      <trkpt lat="47.5411" lon="-3.10122">
        <time>2018-01-21T12:55:44.000Z</time>
      </trkpt>
      <trkpt lat="47.54103" lon="-3.10125">
        <time>2018-01-21T12:55:45.000Z</time>
      </trkpt>
      <trkpt lat="47.54095" lon="-3.10125">
        <time>2018-01-21T12:55:46.000Z</time>
      </trkpt>
      <trkpt lat="47.54087" lon="-3.10126">
        <time>2018-01-21T12:55:47.000Z</time>
      </trkpt>
      <trkpt lat="47.54078" lon="-3.10126">
        <time>2018-01-21T12:55:48.000Z</time>
      </trkpt>
      <trkpt lat="47.54071" lon="-3.10129">
        <time>2018-01-21T12:55:49.000Z</time>
      </trkpt>
      <trkpt lat="47.54064" lon="-3.10131">
        <time>2018-01-21T12:55:50.000Z</time>
      </trkpt>
      <trkpt lat="47.54056" lon="-3.10132">
        <time>2018-01-21T12:55:51.000Z</time>
      </trkpt>
      <trkpt lat="47.54049" lon="-3.10134">
        <time>2018-01-21T12:55:52.000Z</time>
      </trkpt>
      <trkpt lat="47.54042" lon="-3.10135">
        <time>2018-01-21T12:55:53.000Z</time>
      </trkpt>
      <trkpt lat="47.54036" lon="-3.10134">
        <time>2018-01-21T12:55:54.000Z</time>
      </trkpt>
      <trkpt lat="47.54029" lon="-3.10134">
        <time>2018-01-21T12:55:55.000Z</time>
      </trkpt>
      <trkpt lat="47.54023" lon="-3.10134">
        <time>2018-01-21T12:55:56.000Z</time>
      </trkpt>
      <trkpt lat="47.54017" lon="-3.10134">
        <time>2018-01-21T12:55:57.000Z</time>
      </trkpt>
      <trkpt lat="47.5401" lon="-3.10134">
        <time>2018-01-21T12:55:58.000Z</time>
      </trkpt>
      <trkpt lat="47.54004" lon="-3.10135">
        <time>2018-01-21T12:55:59.000Z</time>
      </trkpt>
      <trkpt lat="47.53996" lon="-3.10135">
        <time>2018-01-21T12:56:00.000Z</time>
      </trkpt>
      <trkpt lat="47.53989" lon="-3.10136">
        <time>2018-01-21T12:56:01.000Z</time>
      </trkpt>
      <trkpt lat="47.53982" lon="-3.10136">
        <time>2018-01-21T12:56:02.000Z</time>
      </trkpt>
      <trkpt lat="47.53974" lon="-3.10137">
        <time>2018-01-21T12:56:03.000Z</time>
      </trkpt>
      <trkpt lat="47.53967" lon="-3.10137">
        <time>2018-01-21T12:56:04.000Z</time>
      </trkpt>
      <trkpt lat="47.53959" lon="-3.10137">
        <time>2018-01-21T12:56:05.000Z</time>
      </trkpt>
      <trkpt lat="47.53952" lon="-3.10138">
        <time>2018-01-21T12:56:06.000Z</time>
      </trkpt>
      <trkpt lat="47.53945" lon="-3.10138">
        <time>2018-01-21T12:56:07.000Z</time>
      </trkpt>
      <trkpt lat="47.53937" lon="-3.10139">
        <time>2018-01-21T12:56:08.000Z</time>
      </trkpt>
      <trkpt lat="47.5393" lon="-3.10138">
        <time>2018-01-21T12:56:09.000Z</time>
      </trkpt>
      <trkpt lat="47.53923" lon="-3.10138">
        <time>2018-01-21T12:56:10.000Z</time>
      </trkpt>
      <trkpt lat="47.53915" lon="-3.10139">
        <time>2018-01-21T12:56:11.000Z</time>
      </trkpt>
      <trkpt lat="47.53908" lon="-3.1014">
        <time>2018-01-21T12:56:12.000Z</time>
      </trkpt>
      <trkpt lat="47.539" lon="-3.10141">
        <time>2018-01-21T12:56:13.000Z</time>
      </trkpt>
      <trkpt lat="47.53893" lon="-3.10142">
        <time>2018-01-21T12:56:14.000Z</time>
      </trkpt>
      <trkpt lat="47.53886" lon="-3.10143">
        <time>2018-01-21T12:56:15.000Z</time>
      </trkpt>
      <trkpt lat="47.53877" lon="-3.10143">
        <time>2018-01-21T12:56:16.000Z</time>
      </trkpt>
      <trkpt lat="47.53869" lon="-3.10143">
        <time>2018-01-21T12:56:17.000Z</time>
      </trkpt>
      <trkpt lat="47.53862" lon="-3.10143">
        <time>2018-01-21T12:56:18.000Z</time>
      </trkpt>
      <trkpt lat="47.53854" lon="-3.10144">
        <time>2018-01-21T12:56:19.000Z</time>
      </trkpt>
      <trkpt lat="47.53846" lon="-3.10143">
        <time>2018-01-21T12:56:20.000Z</time>
      </trkpt>
      <trkpt lat="47.53838" lon="-3.10144">
        <time>2018-01-21T12:56:21.000Z</time>
      </trkpt>
      <trkpt lat="47.5383" lon="-3.10144">
        <time>2018-01-21T12:56:22.000Z</time>
      </trkpt>
      <trkpt lat="47.53821" lon="-3.10142">
        <time>2018-01-21T12:56:23.000Z</time>
      </trkpt>
      <trkpt lat="47.53813" lon="-3.10141">
        <time>2018-01-21T12:56:24.000Z</time>
      </trkpt>
      <trkpt lat="47.53804" lon="-3.1014">
        <time>2018-01-21T12:56:25.000Z</time>
      </trkpt>
      <trkpt lat="47.53796" lon="-3.10139">
        <time>2018-01-21T12:56:26.000Z</time>
      </trkpt>
      <trkpt lat="47.53788" lon="-3.10138">
        <time>2018-01-21T12:56:27.000Z</time>
      </trkpt>
      <trkpt lat="47.5378" lon="-3.10137">
        <time>2018-01-21T12:56:28.000Z</time>
      </trkpt>
      <trkpt lat="47.53773" lon="-3.10136">
        <time>2018-01-21T12:56:29.000Z</time>
      </trkpt>
      <trkpt lat="47.53766" lon="-3.10135">
        <time>2018-01-21T12:56:30.000Z</time>
      </trkpt>
      <trkpt lat="47.53758" lon="-3.10132">
        <time>2018-01-21T12:56:31.000Z</time>
      </trkpt>
      <trkpt lat="47.53752" lon="-3.10128">
        <time>2018-01-21T12:56:32.000Z</time>
      </trkpt>
      <trkpt lat="47.53745" lon="-3.10123">
        <time>2018-01-21T12:56:33.000Z</time>
      </trkpt>
      <trkpt lat="47.53739" lon="-3.10116">
        <time>2018-01-21T12:56:34.000Z</time>
      </trkpt>
      <trkpt lat="47.53734" lon="-3.10107">
        <time>2018-01-21T12:56:35.000Z</time>
      </trkpt>
      <trkpt lat="47.5373" lon="-3.10098">
        <time>2018-01-21T12:56:36.000Z</time>
      </trkpt>
      <trkpt lat="47.53728" lon="-3.10088">
        <time>2018-01-21T12:56:37.000Z</time>
      </trkpt>
      <trkpt lat="47.53728" lon="-3.10078">
        <time>2018-01-21T12:56:38.000Z</time>
      </trkpt>
      <trkpt lat="47.5373" lon="-3.10069">
        <time>2018-01-21T12:56:39.000Z</time>
      </trkpt>
      <trkpt lat="47.53732" lon="-3.10063">
        <time>2018-01-21T12:56:40.000Z</time>
      </trkpt>
      <trkpt lat="47.53735" lon="-3.10058">
        <time>2018-01-21T12:56:41.000Z</time>
      </trkpt>
      <trkpt lat="47.53737" lon="-3.10056">
        <time>2018-01-21T12:56:42.000Z</time>
      </trkpt>
      <trkpt lat="47.53739" lon="-3.10055">
        <time>2018-01-21T12:56:43.000Z</time>
      </trkpt>
      <trkpt lat="47.5374" lon="-3.10054">
        <time>2018-01-21T12:56:44.000Z</time>
      </trkpt>
      <trkpt lat="47.5374" lon="-3.10055">
        <time>2018-01-21T12:56:45.000Z</time>
      </trkpt>
      <trkpt lat="47.53743" lon="-3.10056">
        <time>2018-01-21T12:56:46.000Z</time>
      </trkpt>
      <trkpt lat="47.53744" lon="-3.10057">
        <time>2018-01-21T12:56:47.000Z</time>
      </trkpt>
      <trkpt lat="47.53747" lon="-3.10059">
        <time>2018-01-21T12:56:48.000Z</time>
      </trkpt>
      <trkpt lat="47.5375" lon="-3.10061">
        <time>2018-01-21T12:56:49.000Z</time>
      </trkpt>
      <trkpt lat="47.53753" lon="-3.10063">
        <time>2018-01-21T12:56:50.000Z</time>
      </trkpt>
      <trkpt lat="47.53756" lon="-3.10066">
        <time>2018-01-21T12:56:51.000Z</time>
      </trkpt>
      <trkpt lat="47.53758" lon="-3.10067">
        <time>2018-01-21T12:56:52.000Z</time>
      </trkpt>
      <trkpt lat="47.53761" lon="-3.10068">
        <time>2018-01-21T12:56:53.000Z</time>
      </trkpt>
      <trkpt lat="47.53762" lon="-3.10072">
        <time>2018-01-21T12:56:54.000Z</time>
      </trkpt>
      <trkpt lat="47.53763" lon="-3.10069">
        <time>2018-01-21T12:56:55.000Z</time>
      </trkpt>
      <trkpt lat="47.53766" lon="-3.10069">
        <time>2018-01-21T12:56:56.000Z</time>
      </trkpt>
      <trkpt lat="47.53769" lon="-3.1007">
        <time>2018-01-21T12:56:57.000Z</time>
      </trkpt>
      <trkpt lat="47.53773" lon="-3.1007">
        <time>2018-01-21T12:56:58.000Z</time>
      </trkpt>
      <trkpt lat="47.53777" lon="-3.10072">
        <time>2018-01-21T12:56:59.000Z</time>
      </trkpt>
      <trkpt lat="47.53781" lon="-3.10072">
        <time>2018-01-21T12:57:00.000Z</time>
      </trkpt>
      <trkpt lat="47.53786" lon="-3.10072">
        <time>2018-01-21T12:57:01.000Z</time>
      </trkpt>
      <trkpt lat="47.53791" lon="-3.10072">
        <time>2018-01-21T12:57:02.000Z</time>
      </trkpt>
      <trkpt lat="47.53797" lon="-3.10072">
        <time>2018-01-21T12:57:03.000Z</time>
      </trkpt>
      <trkpt lat="47.53804" lon="-3.10072">
        <time>2018-01-21T12:57:04.000Z</time>
      </trkpt>
      <trkpt lat="47.53811" lon="-3.10071">
        <time>2018-01-21T12:57:05.000Z</time>
      </trkpt>
      <trkpt lat="47.53818" lon="-3.1007">
        <time>2018-01-21T12:57:06.000Z</time>
      </trkpt>
      <trkpt lat="47.53826" lon="-3.1007">
        <time>2018-01-21T12:57:07.000Z</time>
      </trkpt>
      <trkpt lat="47.53833" lon="-3.1007">
        <time>2018-01-21T12:57:08.000Z</time>
      </trkpt>
      <trkpt lat="47.53841" lon="-3.10068">
        <time>2018-01-21T12:57:09.000Z</time>
      </trkpt>
      <trkpt lat="47.53849" lon="-3.10066">
        <time>2018-01-21T12:57:10.000Z</time>
      </trkpt>
      <trkpt lat="47.53857" lon="-3.10064">
        <time>2018-01-21T12:57:11.000Z</time>
      </trkpt>
      <trkpt lat="47.53864" lon="-3.10063">
        <time>2018-01-21T12:57:12.000Z</time>
      </trkpt>
      <trkpt lat="47.53872" lon="-3.10061">
        <time>2018-01-21T12:57:13.000Z</time>
      </trkpt>
      <trkpt lat="47.53881" lon="-3.10059">
        <time>2018-01-21T12:57:14.000Z</time>
      </trkpt>
      <trkpt lat="47.53889" lon="-3.10058">
        <time>2018-01-21T12:57:15.000Z</time>
      </trkpt>
      <trkpt lat="47.53897" lon="-3.10056">
        <time>2018-01-21T12:57:16.000Z</time>
      </trkpt>
      <trkpt lat="47.53904" lon="-3.10053">
        <time>2018-01-21T12:57:17.000Z</time>
      </trkpt>
      <trkpt lat="47.53913" lon="-3.10051">
        <time>2018-01-21T12:57:18.000Z</time>
      </trkpt>
      <trkpt lat="47.53921" lon="-3.10048">
        <time>2018-01-21T12:57:19.000Z</time>
      </trkpt>
      <trkpt lat="47.5393" lon="-3.10045">
        <time>2018-01-21T12:57:20.000Z</time>
      </trkpt>
      <trkpt lat="47.53938" lon="-3.10043">
        <time>2018-01-21T12:57:21.000Z</time>
      </trkpt>
      <trkpt lat="47.53946" lon="-3.1004">
        <time>2018-01-21T12:57:22.000Z</time>
      </trkpt>
      <trkpt lat="47.53954" lon="-3.10036">
        <time>2018-01-21T12:57:23.000Z</time>
      </trkpt>
      <trkpt lat="47.53963" lon="-3.10031">
        <time>2018-01-21T12:57:24.000Z</time>
      </trkpt>
      <trkpt lat="47.53972" lon="-3.10025">
        <time>2018-01-21T12:57:25.000Z</time>
      </trkpt>
      <trkpt lat="47.53982" lon="-3.10019">
        <time>2018-01-21T12:57:26.000Z</time>
      </trkpt>
      <trkpt lat="47.53991" lon="-3.10012">
        <time>2018-01-21T12:57:27.000Z</time>
      </trkpt>
      <trkpt lat="47.54" lon="-3.10004">
        <time>2018-01-21T12:57:28.000Z</time>
      </trkpt>
      <trkpt lat="47.54009" lon="-3.09998">
        <time>2018-01-21T12:57:29.000Z</time>
      </trkpt>
      <trkpt lat="47.54019" lon="-3.09994">
        <time>2018-01-21T12:57:30.000Z</time>
      </trkpt>
      <trkpt lat="47.54028" lon="-3.09991">
        <time>2018-01-21T12:57:31.000Z</time>
      </trkpt>
      <trkpt lat="47.54036" lon="-3.09988">
        <time>2018-01-21T12:57:32.000Z</time>
      </trkpt>
      <trkpt lat="47.54044" lon="-3.09983">
        <time>2018-01-21T12:57:33.000Z</time>
      </trkpt>
      <trkpt lat="47.54054" lon="-3.09978">
        <time>2018-01-21T12:57:34.000Z</time>
      </trkpt>
      <trkpt lat="47.54063" lon="-3.09971">
        <time>2018-01-21T12:57:35.000Z</time>
      </trkpt>
      <trkpt lat="47.54073" lon="-3.09966">
        <time>2018-01-21T12:57:36.000Z</time>
      </trkpt>
      <trkpt lat="47.54081" lon="-3.09962">
        <time>2018-01-21T12:57:37.000Z</time>
      </trkpt>
      <trkpt lat="47.54093" lon="-3.09959">
        <time>2018-01-21T12:57:38.000Z</time>
      </trkpt>
      <trkpt lat="47.54104" lon="-3.09957">
        <time>2018-01-21T12:57:39.000Z</time>
      </trkpt>
      <trkpt lat="47.54114" lon="-3.09955">
        <time>2018-01-21T12:57:40.000Z</time>
      </trkpt>
      <trkpt lat="47.54122" lon="-3.09951">
        <time>2018-01-21T12:57:41.000Z</time>
      </trkpt>
      <trkpt lat="47.54131" lon="-3.09948">
        <time>2018-01-21T12:57:42.000Z</time>
      </trkpt>
      <trkpt lat="47.5414" lon="-3.09943">
        <time>2018-01-21T12:57:43.000Z</time>
      </trkpt>
      <trkpt lat="47.5415" lon="-3.09939">
        <time>2018-01-21T12:57:44.000Z</time>
      </trkpt>
      <trkpt lat="47.5416" lon="-3.09934">
        <time>2018-01-21T12:57:45.000Z</time>
      </trkpt>
      <trkpt lat="47.54168" lon="-3.09934">
        <time>2018-01-21T12:57:46.000Z</time>
      </trkpt>
      <trkpt lat="47.54178" lon="-3.09932">
        <time>2018-01-21T12:57:47.000Z</time>
      </trkpt>
      <trkpt lat="47.54187" lon="-3.09929">
        <time>2018-01-21T12:57:48.000Z</time>
      </trkpt>
      <trkpt lat="47.54196" lon="-3.09925">
        <time>2018-01-21T12:57:49.000Z</time>
      </trkpt>
      <trkpt lat="47.54205" lon="-3.09925">
        <time>2018-01-21T12:57:50.000Z</time>
      </trkpt>
      <trkpt lat="47.54213" lon="-3.09923">
        <time>2018-01-21T12:57:51.000Z</time>
      </trkpt>
      <trkpt lat="47.54223" lon="-3.09921">
        <time>2018-01-21T12:57:52.000Z</time>
      </trkpt>
      <trkpt lat="47.54231" lon="-3.09919">
        <time>2018-01-21T12:57:53.000Z</time>
      </trkpt>
      <trkpt lat="47.54239" lon="-3.09916">
        <time>2018-01-21T12:57:54.000Z</time>
      </trkpt>
      <trkpt lat="47.54248" lon="-3.09913">
        <time>2018-01-21T12:57:55.000Z</time>
      </trkpt>
      <trkpt lat="47.54256" lon="-3.0991">
        <time>2018-01-21T12:57:56.000Z</time>
      </trkpt>
      <trkpt lat="47.54265" lon="-3.09909">
        <time>2018-01-21T12:57:57.000Z</time>
      </trkpt>
      <trkpt lat="47.54273" lon="-3.09907">
        <time>2018-01-21T12:57:58.000Z</time>
      </trkpt>
      <trkpt lat="47.54281" lon="-3.09905">
        <time>2018-01-21T12:57:59.000Z</time>
      </trkpt>
      <trkpt lat="47.54289" lon="-3.09904">
        <time>2018-01-21T12:58:00.000Z</time>
      </trkpt>
      <trkpt lat="47.54297" lon="-3.09902">
        <time>2018-01-21T12:58:01.000Z</time>
      </trkpt>
      <trkpt lat="47.54306" lon="-3.09901">
        <time>2018-01-21T12:58:02.000Z</time>
      </trkpt>
      <trkpt lat="47.54314" lon="-3.09899">
        <time>2018-01-21T12:58:03.000Z</time>
      </trkpt>
      <trkpt lat="47.54323" lon="-3.09897">
        <time>2018-01-21T12:58:04.000Z</time>
      </trkpt>
      <trkpt lat="47.54332" lon="-3.09896">
        <time>2018-01-21T12:58:05.000Z</time>
      </trkpt>
      <trkpt lat="47.5434" lon="-3.09896">
        <time>2018-01-21T12:58:06.000Z</time>
      </trkpt>
      <trkpt lat="47.54349" lon="-3.09896">
        <time>2018-01-21T12:58:07.000Z</time>
      </trkpt>
      <trkpt lat="47.54358" lon="-3.09895">
        <time>2018-01-21T12:58:08.000Z</time>
      </trkpt>
      <trkpt lat="47.54366" lon="-3.09895">
        <time>2018-01-21T12:58:09.000Z</time>
      </trkpt>
      <trkpt lat="47.54374" lon="-3.09895">
        <time>2018-01-21T12:58:10.000Z</time>
      </trkpt>
      <trkpt lat="47.54382" lon="-3.09897">
        <time>2018-01-21T12:58:11.000Z</time>
      </trkpt>
      <trkpt lat="47.54389" lon="-3.09895">
        <time>2018-01-21T12:58:12.000Z</time>
      </trkpt>
      <trkpt lat="47.54398" lon="-3.09897">
        <time>2018-01-21T12:58:13.000Z</time>
      </trkpt>
      <trkpt lat="47.54406" lon="-3.099">
        <time>2018-01-21T12:58:14.000Z</time>
      </trkpt>
      <trkpt lat="47.54413" lon="-3.09898">
        <time>2018-01-21T12:58:15.000Z</time>
      </trkpt>
      <trkpt lat="47.54421" lon="-3.09897">
        <time>2018-01-21T12:58:16.000Z</time>
      </trkpt>
      <trkpt lat="47.54428" lon="-3.09897">
        <time>2018-01-21T12:58:17.000Z</time>
      </trkpt>
      <trkpt lat="47.54436" lon="-3.09898">
        <time>2018-01-21T12:58:18.000Z</time>
      </trkpt>
      <trkpt lat="47.54444" lon="-3.09899">
        <time>2018-01-21T12:58:19.000Z</time>
      </trkpt>
      <trkpt lat="47.54453" lon="-3.099">
        <time>2018-01-21T12:58:20.000Z</time>
      </trkpt>
      <trkpt lat="47.54461" lon="-3.09901">
        <time>2018-01-21T12:58:21.000Z</time>
      </trkpt>
      <trkpt lat="47.54469" lon="-3.09901">
        <time>2018-01-21T12:58:22.000Z</time>
      </trkpt>
      <trkpt lat="47.54478" lon="-3.09902">
        <time>2018-01-21T12:58:23.000Z</time>
      </trkpt>
      <trkpt lat="47.54487" lon="-3.09901">
        <time>2018-01-21T12:58:24.000Z</time>
      </trkpt>
      <trkpt lat="47.54496" lon="-3.09901">
        <time>2018-01-21T12:58:25.000Z</time>
      </trkpt>
      <trkpt lat="47.54506" lon="-3.09901">
        <time>2018-01-21T12:58:26.000Z</time>
      </trkpt>
      <trkpt lat="47.54517" lon="-3.09902">
        <time>2018-01-21T12:58:27.000Z</time>
      </trkpt>
      <trkpt lat="47.54528" lon="-3.09903">
        <time>2018-01-21T12:58:28.000Z</time>
      </trkpt>
      <trkpt lat="47.54537" lon="-3.09904">
        <time>2018-01-21T12:58:29.000Z</time>
      </trkpt>
      <trkpt lat="47.54546" lon="-3.09905">
        <time>2018-01-21T12:58:30.000Z</time>
      </trkpt>
      <trkpt lat="47.54555" lon="-3.09907">
        <time>2018-01-21T12:58:31.000Z</time>
      </trkpt>
      <trkpt lat="47.54565" lon="-3.09908">
        <time>2018-01-21T12:58:32.000Z</time>
      </trkpt>
      <trkpt lat="47.54573" lon="-3.09909">
        <time>2018-01-21T12:58:33.000Z</time>
      </trkpt>
      <trkpt lat="47.54583" lon="-3.0991">
        <time>2018-01-21T12:58:34.000Z</time>
      </trkpt>
      <trkpt lat="47.54593" lon="-3.0991">
        <time>2018-01-21T12:58:35.000Z</time>
      </trkpt>
      <trkpt lat="47.54601" lon="-3.09912">
        <time>2018-01-21T12:58:36.000Z</time>
      </trkpt>
      <trkpt lat="47.5461" lon="-3.09914">
        <time>2018-01-21T12:58:37.000Z</time>
      </trkpt>
      <trkpt lat="47.54619" lon="-3.09914">
        <time>2018-01-21T12:58:38.000Z</time>
      </trkpt>
      <trkpt lat="47.54628" lon="-3.09914">
        <time>2018-01-21T12:58:39.000Z</time>
      </trkpt>
      <trkpt lat="47.54636" lon="-3.09916">
        <time>2018-01-21T12:58:40.000Z</time>
      </trkpt>
      <trkpt lat="47.54645" lon="-3.09918">
        <time>2018-01-21T12:58:41.000Z</time>
      </trkpt>
      <trkpt lat="47.54654" lon="-3.09921">
        <time>2018-01-21T12:58:42.000Z</time>
      </trkpt>
      <trkpt lat="47.54662" lon="-3.09924">
        <time>2018-01-21T12:58:43.000Z</time>
      </trkpt>
      <trkpt lat="47.5467" lon="-3.09927">
        <time>2018-01-21T12:58:44.000Z</time>
      </trkpt>
      <trkpt lat="47.54678" lon="-3.09928">
        <time>2018-01-21T12:58:45.000Z</time>
      </trkpt>
      <trkpt lat="47.54686" lon="-3.0993">
        <time>2018-01-21T12:58:46.000Z</time>
      </trkpt>
      <trkpt lat="47.54695" lon="-3.09931">
        <time>2018-01-21T12:58:47.000Z</time>
      </trkpt>
      <trkpt lat="47.54703" lon="-3.09932">
        <time>2018-01-21T12:58:48.000Z</time>
      </trkpt>
      <trkpt lat="47.54711" lon="-3.09933">
        <time>2018-01-21T12:58:49.000Z</time>
      </trkpt>
      <trkpt lat="47.5472" lon="-3.09934">
        <time>2018-01-21T12:58:50.000Z</time>
      </trkpt>
      <trkpt lat="47.54728" lon="-3.09935">
        <time>2018-01-21T12:58:51.000Z</time>
      </trkpt>
      <trkpt lat="47.54737" lon="-3.09938">
        <time>2018-01-21T12:58:52.000Z</time>
      </trkpt>
      <trkpt lat="47.54745" lon="-3.0994">
        <time>2018-01-21T12:58:53.000Z</time>
      </trkpt>
      <trkpt lat="47.54753" lon="-3.09943">
        <time>2018-01-21T12:58:54.000Z</time>
      </trkpt>
      <trkpt lat="47.54761" lon="-3.09945">
        <time>2018-01-21T12:58:55.000Z</time>
      </trkpt>
      <trkpt lat="47.54769" lon="-3.09947">
        <time>2018-01-21T12:58:56.000Z</time>
      </trkpt>
      <trkpt lat="47.54777" lon="-3.0995">
        <time>2018-01-21T12:58:57.000Z</time>
      </trkpt>
      <trkpt lat="47.54785" lon="-3.09953">
        <time>2018-01-21T12:58:58.000Z</time>
      </trkpt>
      <trkpt lat="47.54793" lon="-3.09955">
        <time>2018-01-21T12:58:59.000Z</time>
      </trkpt>
      <trkpt lat="47.54801" lon="-3.09958">
        <time>2018-01-21T12:59:00.000Z</time>
      </trkpt>
      <trkpt lat="47.54809" lon="-3.0996">
        <time>2018-01-21T12:59:01.000Z</time>
      </trkpt>
      <trkpt lat="47.54817" lon="-3.09963">
        <time>2018-01-21T12:59:02.000Z</time>
      </trkpt>
      <trkpt lat="47.54825" lon="-3.09965">
        <time>2018-01-21T12:59:03.000Z</time>
      </trkpt>
      <trkpt lat="47.54834" lon="-3.09967">
        <time>2018-01-21T12:59:04.000Z</time>
      </trkpt>
      <trkpt lat="47.54842" lon="-3.09969">
        <time>2018-01-21T12:59:05.000Z</time>
      </trkpt>
      <trkpt lat="47.5485" lon="-3.09971">
        <time>2018-01-21T12:59:06.000Z</time>
      </trkpt>
      <trkpt lat="47.54859" lon="-3.09972">
        <time>2018-01-21T12:59:07.000Z</time>
      </trkpt>
      <trkpt lat="47.54867" lon="-3.09974">
        <time>2018-01-21T12:59:08.000Z</time>
      </trkpt>
      <trkpt lat="47.54875" lon="-3.09975">
        <time>2018-01-21T12:59:09.000Z</time>
      </trkpt>
      <trkpt lat="47.54884" lon="-3.09977">
        <time>2018-01-21T12:59:10.000Z</time>
      </trkpt>
      <trkpt lat="47.54892" lon="-3.09978">
        <time>2018-01-21T12:59:11.000Z</time>
      </trkpt>
      <trkpt lat="47.54901" lon="-3.09979">
        <time>2018-01-21T12:59:12.000Z</time>
      </trkpt>
      <trkpt lat="47.54909" lon="-3.09981">
        <time>2018-01-21T12:59:13.000Z</time>
      </trkpt>
      <trkpt lat="47.54918" lon="-3.09983">
        <time>2018-01-21T12:59:14.000Z</time>
      </trkpt>
      <trkpt lat="47.54926" lon="-3.09986">
        <time>2018-01-21T12:59:15.000Z</time>
      </trkpt>
      <trkpt lat="47.54934" lon="-3.09989">
        <time>2018-01-21T12:59:16.000Z</time>
      </trkpt>
      <trkpt lat="47.54941" lon="-3.09991">
        <time>2018-01-21T12:59:17.000Z</time>
      </trkpt>
      <trkpt lat="47.54949" lon="-3.09993">
        <time>2018-01-21T12:59:18.000Z</time>
      </trkpt>
      <trkpt lat="47.54957" lon="-3.09994">
        <time>2018-01-21T12:59:19.000Z</time>
      </trkpt>
      <trkpt lat="47.54964" lon="-3.09996">
        <time>2018-01-21T12:59:20.000Z</time>
      </trkpt>
      <trkpt lat="47.54972" lon="-3.09997">
        <time>2018-01-21T12:59:21.000Z</time>
      </trkpt>
      <trkpt lat="47.54979" lon="-3.09999">
        <time>2018-01-21T12:59:22.000Z</time>
      </trkpt>
      <trkpt lat="47.54985" lon="-3.10002">
        <time>2018-01-21T12:59:23.000Z</time>
      </trkpt>
      <trkpt lat="47.54992" lon="-3.10005">
        <time>2018-01-21T12:59:24.000Z</time>
      </trkpt>
      <trkpt lat="47.54999" lon="-3.10007">
        <time>2018-01-21T12:59:25.000Z</time>
      </trkpt>
      <trkpt lat="47.55005" lon="-3.10009">
        <time>2018-01-21T12:59:26.000Z</time>
      </trkpt>
      <trkpt lat="47.55012" lon="-3.10011">
        <time>2018-01-21T12:59:27.000Z</time>
      </trkpt>
      <trkpt lat="47.55019" lon="-3.10012">
        <time>2018-01-21T12:59:28.000Z</time>
      </trkpt>
      <trkpt lat="47.55026" lon="-3.10013">
        <time>2018-01-21T12:59:29.000Z</time>
      </trkpt>
      <trkpt lat="47.55033" lon="-3.10015">
        <time>2018-01-21T12:59:30.000Z</time>
      </trkpt>
      <trkpt lat="47.5504" lon="-3.10017">
        <time>2018-01-21T12:59:31.000Z</time>
      </trkpt>
      <trkpt lat="47.55048" lon="-3.1002">
        <time>2018-01-21T12:59:32.000Z</time>
      </trkpt>
      <trkpt lat="47.55055" lon="-3.10022">
        <time>2018-01-21T12:59:33.000Z</time>
      </trkpt>
      <trkpt lat="47.55062" lon="-3.10025">
        <time>2018-01-21T12:59:34.000Z</time>
      </trkpt>
      <trkpt lat="47.55069" lon="-3.10028">
        <time>2018-01-21T12:59:35.000Z</time>
      </trkpt>
      <trkpt lat="47.55076" lon="-3.10029">
        <time>2018-01-21T12:59:36.000Z</time>
      </trkpt>
      <trkpt lat="47.55083" lon="-3.10032">
        <time>2018-01-21T12:59:37.000Z</time>
      </trkpt>
      <trkpt lat="47.5509" lon="-3.10034">
        <time>2018-01-21T12:59:38.000Z</time>
      </trkpt>
      <trkpt lat="47.55097" lon="-3.10036">
        <time>2018-01-21T12:59:39.000Z</time>
      </trkpt>
      <trkpt lat="47.55105" lon="-3.10037">
        <time>2018-01-21T12:59:40.000Z</time>
      </trkpt>
      <trkpt lat="47.55113" lon="-3.10038">
        <time>2018-01-21T12:59:41.000Z</time>
      </trkpt>
      <trkpt lat="47.55121" lon="-3.1004">
        <time>2018-01-21T12:59:42.000Z</time>
      </trkpt>
      <trkpt lat="47.55129" lon="-3.10042">
        <time>2018-01-21T12:59:43.000Z</time>
      </trkpt>
      <trkpt lat="47.55138" lon="-3.10043">
        <time>2018-01-21T12:59:44.000Z</time>
      </trkpt>
      <trkpt lat="47.55147" lon="-3.10046">
        <time>2018-01-21T12:59:45.000Z</time>
      </trkpt>
      <trkpt lat="47.55155" lon="-3.10048">
        <time>2018-01-21T12:59:46.000Z</time>
      </trkpt>
      <trkpt lat="47.55163" lon="-3.1005">
        <time>2018-01-21T12:59:47.000Z</time>
      </trkpt>
      <trkpt lat="47.55171" lon="-3.10051">
        <time>2018-01-21T12:59:48.000Z</time>
      </trkpt>
      <trkpt lat="47.55179" lon="-3.10053">
        <time>2018-01-21T12:59:49.000Z</time>
      </trkpt>
      <trkpt lat="47.55187" lon="-3.10054">
        <time>2018-01-21T12:59:50.000Z</time>
      </trkpt>
      <trkpt lat="47.55195" lon="-3.10055">
        <time>2018-01-21T12:59:51.000Z</time>
      </trkpt>
      <trkpt lat="47.55202" lon="-3.10057">
        <time>2018-01-21T12:59:52.000Z</time>
      </trkpt>
      <trkpt lat="47.5521" lon="-3.1006">
        <time>2018-01-21T12:59:53.000Z</time>
      </trkpt>
      <trkpt lat="47.55218" lon="-3.10063">
        <time>2018-01-21T12:59:54.000Z</time>
      </trkpt>
      <trkpt lat="47.55226" lon="-3.10066">
        <time>2018-01-21T12:59:55.000Z</time>
      </trkpt>
      <trkpt lat="47.55233" lon="-3.10068">
        <time>2018-01-21T12:59:56.000Z</time>
      </trkpt>
      <trkpt lat="47.5524" lon="-3.10071">
        <time>2018-01-21T12:59:57.000Z</time>
      </trkpt>
      <trkpt lat="47.55248" lon="-3.10073">
        <time>2018-01-21T12:59:58.000Z</time>
      </trkpt>
      <trkpt lat="47.55255" lon="-3.10074">
        <time>2018-01-21T12:59:59.000Z</time>
      </trkpt>
      <trkpt lat="47.55263" lon="-3.10076">
        <time>2018-01-21T13:00:00.000Z</time>
      </trkpt>
      <trkpt lat="47.55271" lon="-3.10078">
        <time>2018-01-21T13:00:01.000Z</time>
      </trkpt>
      <trkpt lat="47.55278" lon="-3.1008">
        <time>2018-01-21T13:00:02.000Z</time>
      </trkpt>
      <trkpt lat="47.55286" lon="-3.10082">
        <time>2018-01-21T13:00:03.000Z</time>
      </trkpt>
      <trkpt lat="47.55293" lon="-3.10083">
        <time>2018-01-21T13:00:04.000Z</time>
      </trkpt>
      <trkpt lat="47.55301" lon="-3.10084">
        <time>2018-01-21T13:00:05.000Z</time>
      </trkpt>
      <trkpt lat="47.55309" lon="-3.10085">
        <time>2018-01-21T13:00:06.000Z</time>
      </trkpt>
      <trkpt lat="47.55317" lon="-3.10086">
        <time>2018-01-21T13:00:07.000Z</time>
      </trkpt>
      <trkpt lat="47.55326" lon="-3.10086">
        <time>2018-01-21T13:00:08.000Z</time>
      </trkpt>
      <trkpt lat="47.55334" lon="-3.10087">
        <time>2018-01-21T13:00:09.000Z</time>
      </trkpt>
      <trkpt lat="47.55343" lon="-3.10088">
        <time>2018-01-21T13:00:10.000Z</time>
      </trkpt>
      <trkpt lat="47.5535" lon="-3.10093">
        <time>2018-01-21T13:00:11.000Z</time>
      </trkpt>
      <trkpt lat="47.55358" lon="-3.10095">
        <time>2018-01-21T13:00:12.000Z</time>
      </trkpt>
      <trkpt lat="47.55365" lon="-3.10099">
        <time>2018-01-21T13:00:13.000Z</time>
      </trkpt>
      <trkpt lat="47.55372" lon="-3.101">
        <time>2018-01-21T13:00:14.000Z</time>
      </trkpt>
      <trkpt lat="47.55378" lon="-3.10102">
        <time>2018-01-21T13:00:15.000Z</time>
      </trkpt>
      <trkpt lat="47.55385" lon="-3.10103">
        <time>2018-01-21T13:00:16.000Z</time>
      </trkpt>
      <trkpt lat="47.55391" lon="-3.10104">
        <time>2018-01-21T13:00:17.000Z</time>
      </trkpt>
      <trkpt lat="47.55398" lon="-3.10106">
        <time>2018-01-21T13:00:18.000Z</time>
      </trkpt>
      <trkpt lat="47.55404" lon="-3.10109">
        <time>2018-01-21T13:00:19.000Z</time>
      </trkpt>
      <trkpt lat="47.55411" lon="-3.10112">
        <time>2018-01-21T13:00:20.000Z</time>
      </trkpt>
      <trkpt lat="47.55417" lon="-3.10114">
        <time>2018-01-21T13:00:21.000Z</time>
      </trkpt>
      <trkpt lat="47.55424" lon="-3.10117">
        <time>2018-01-21T13:00:22.000Z</time>
      </trkpt>
      <trkpt lat="47.5543" lon="-3.1012">
        <time>2018-01-21T13:00:23.000Z</time>
      </trkpt>
      <trkpt lat="47.55437" lon="-3.10122">
        <time>2018-01-21T13:00:24.000Z</time>
      </trkpt>
      <trkpt lat="47.55443" lon="-3.10125">
        <time>2018-01-21T13:00:25.000Z</time>
      </trkpt>
      <trkpt lat="47.5545" lon="-3.10126">
        <time>2018-01-21T13:00:26.000Z</time>
      </trkpt>
      <trkpt lat="47.55457" lon="-3.10128">
        <time>2018-01-21T13:00:27.000Z</time>
      </trkpt>
      <trkpt lat="47.55464" lon="-3.10129">
        <time>2018-01-21T13:00:28.000Z</time>
      </trkpt>
      <trkpt lat="47.55472" lon="-3.1013">
        <time>2018-01-21T13:00:29.000Z</time>
      </trkpt>
      <trkpt lat="47.55479" lon="-3.1013">
        <time>2018-01-21T13:00:30.000Z</time>
      </trkpt>
      <trkpt lat="47.55486" lon="-3.10131">
        <time>2018-01-21T13:00:31.000Z</time>
      </trkpt>
      <trkpt lat="47.55494" lon="-3.10132">
        <time>2018-01-21T13:00:32.000Z</time>
      </trkpt>
      <trkpt lat="47.55501" lon="-3.10134">
        <time>2018-01-21T13:00:33.000Z</time>
      </trkpt>
      <trkpt lat="47.55508" lon="-3.10136">
        <time>2018-01-21T13:00:34.000Z</time>
      </trkpt>
      <trkpt lat="47.55514" lon="-3.10137">
        <time>2018-01-21T13:00:35.000Z</time>
      </trkpt>
      <trkpt lat="47.55521" lon="-3.10139">
        <time>2018-01-21T13:00:36.000Z</time>
      </trkpt>
      <trkpt lat="47.55528" lon="-3.1014">
        <time>2018-01-21T13:00:37.000Z</time>
      </trkpt>
      <trkpt lat="47.55535" lon="-3.10141">
        <time>2018-01-21T13:00:38.000Z</time>
      </trkpt>
      <trkpt lat="47.55541" lon="-3.10142">
        <time>2018-01-21T13:00:39.000Z</time>
      </trkpt>
      <trkpt lat="47.55547" lon="-3.10144">
        <time>2018-01-21T13:00:40.000Z</time>
      </trkpt>
      <trkpt lat="47.55554" lon="-3.10146">
        <time>2018-01-21T13:00:41.000Z</time>
      </trkpt>
      <trkpt lat="47.5556" lon="-3.10147">
        <time>2018-01-21T13:00:42.000Z</time>
      </trkpt>
      <trkpt lat="47.55567" lon="-3.10149">
        <time>2018-01-21T13:00:43.000Z</time>
      </trkpt>
      <trkpt lat="47.55574" lon="-3.1015">
        <time>2018-01-21T13:00:44.000Z</time>
      </trkpt>
      <trkpt lat="47.55582" lon="-3.1015">
        <time>2018-01-21T13:00:45.000Z</time>
      </trkpt>
      <trkpt lat="47.55589" lon="-3.10151">
        <time>2018-01-21T13:00:46.000Z</time>
      </trkpt>
      <trkpt lat="47.55597" lon="-3.10152">
        <time>2018-01-21T13:00:47.000Z</time>
      </trkpt>
      <trkpt lat="47.55605" lon="-3.10153">
        <time>2018-01-21T13:00:48.000Z</time>
      </trkpt>
      <trkpt lat="47.55613" lon="-3.10154">
        <time>2018-01-21T13:00:49.000Z</time>
      </trkpt>
      <trkpt lat="47.55621" lon="-3.10157">
        <time>2018-01-21T13:00:50.000Z</time>
      </trkpt>
      <trkpt lat="47.55628" lon="-3.1016">
        <time>2018-01-21T13:00:51.000Z</time>
      </trkpt>
      <trkpt lat="47.55635" lon="-3.10163">
        <time>2018-01-21T13:00:52.000Z</time>
      </trkpt>
      <trkpt lat="47.55642" lon="-3.10165">
        <time>2018-01-21T13:00:53.000Z</time>
      </trkpt>
      <trkpt lat="47.5565" lon="-3.10167">
        <time>2018-01-21T13:00:54.000Z</time>
      </trkpt>
      <trkpt lat="47.55657" lon="-3.10169">
        <time>2018-01-21T13:00:55.000Z</time>
      </trkpt>
      <trkpt lat="47.55664" lon="-3.10172">
        <time>2018-01-21T13:00:56.000Z</time>
      </trkpt>
      <trkpt lat="47.55671" lon="-3.10175">
        <time>2018-01-21T13:00:57.000Z</time>
      </trkpt>
      <trkpt lat="47.55677" lon="-3.10177">
        <time>2018-01-21T13:00:58.000Z</time>
      </trkpt>
      <trkpt lat="47.55684" lon="-3.10181">
        <time>2018-01-21T13:00:59.000Z</time>
      </trkpt>
      <trkpt lat="47.55689" lon="-3.10184">
        <time>2018-01-21T13:01:00.000Z</time>
      </trkpt>
      <trkpt lat="47.55695" lon="-3.10186">
        <time>2018-01-21T13:01:01.000Z</time>
      </trkpt>
      <trkpt lat="47.55702" lon="-3.10187">
        <time>2018-01-21T13:01:02.000Z</time>
      </trkpt>
      <trkpt lat="47.55708" lon="-3.1019">
        <time>2018-01-21T13:01:03.000Z</time>
      </trkpt>
      <trkpt lat="47.55714" lon="-3.10194">
        <time>2018-01-21T13:01:04.000Z</time>
      </trkpt>
      <trkpt lat="47.55722" lon="-3.10196">
        <time>2018-01-21T13:01:05.000Z</time>
      </trkpt>
      <trkpt lat="47.5573" lon="-3.10198">
        <time>2018-01-21T13:01:06.000Z</time>
      </trkpt>
      <trkpt lat="47.55738" lon="-3.102">
        <time>2018-01-21T13:01:07.000Z</time>
      </trkpt>
      <trkpt lat="47.55746" lon="-3.10203">
        <time>2018-01-21T13:01:08.000Z</time>
      </trkpt>
      <trkpt lat="47.55754" lon="-3.10205">
        <time>2018-01-21T13:01:09.000Z</time>
      </trkpt>
      <trkpt lat="47.55761" lon="-3.10208">
        <time>2018-01-21T13:01:10.000Z</time>
      </trkpt>
      <trkpt lat="47.55768" lon="-3.1021">
        <time>2018-01-21T13:01:11.000Z</time>
      </trkpt>
      <trkpt lat="47.55776" lon="-3.10212">
        <time>2018-01-21T13:01:12.000Z</time>
      </trkpt>
      <trkpt lat="47.55783" lon="-3.10216">
        <time>2018-01-21T13:01:13.000Z</time>
      </trkpt>
      <trkpt lat="47.5579" lon="-3.10218">
        <time>2018-01-21T13:01:14.000Z</time>
      </trkpt>
      <trkpt lat="47.55798" lon="-3.1022">
        <time>2018-01-21T13:01:15.000Z</time>
      </trkpt>
      <trkpt lat="47.55805" lon="-3.10222">
        <time>2018-01-21T13:01:16.000Z</time>
      </trkpt>
      <trkpt lat="47.55814" lon="-3.10225">
        <time>2018-01-21T13:01:17.000Z</time>
      </trkpt>
      <trkpt lat="47.55821" lon="-3.10226">
        <time>2018-01-21T13:01:18.000Z</time>
      </trkpt>
      <trkpt lat="47.55829" lon="-3.10228">
        <time>2018-01-21T13:01:19.000Z</time>
      </trkpt>
      <trkpt lat="47.55837" lon="-3.10229">
        <time>2018-01-21T13:01:20.000Z</time>
      </trkpt>
      <trkpt lat="47.55845" lon="-3.10229">
        <time>2018-01-21T13:01:21.000Z</time>
      </trkpt>
      <trkpt lat="47.55853" lon="-3.1023">
        <time>2018-01-21T13:01:22.000Z</time>
      </trkpt>
      <trkpt lat="47.5586" lon="-3.10233">
        <time>2018-01-21T13:01:23.000Z</time>
      </trkpt>
      <trkpt lat="47.55867" lon="-3.10235">
        <time>2018-01-21T13:01:24.000Z</time>
      </trkpt>
      <trkpt lat="47.55875" lon="-3.10237">
        <time>2018-01-21T13:01:25.000Z</time>
      </trkpt>
      <trkpt lat="47.55883" lon="-3.10239">
        <time>2018-01-21T13:01:26.000Z</time>
      </trkpt>
      <trkpt lat="47.55891" lon="-3.10241">
        <time>2018-01-21T13:01:27.000Z</time>
      </trkpt>
      <trkpt lat="47.55898" lon="-3.10244">
        <time>2018-01-21T13:01:28.000Z</time>
      </trkpt>
      <trkpt lat="47.55906" lon="-3.10248">
        <time>2018-01-21T13:01:29.000Z</time>
      </trkpt>
      <trkpt lat="47.55913" lon="-3.1025">
        <time>2018-01-21T13:01:30.000Z</time>
      </trkpt>
      <trkpt lat="47.55921" lon="-3.10254">
        <time>2018-01-21T13:01:31.000Z</time>
      </trkpt>
      <trkpt lat="47.55928" lon="-3.10257">
        <time>2018-01-21T13:01:32.000Z</time>
      </trkpt>
      <trkpt lat="47.55935" lon="-3.1026">
        <time>2018-01-21T13:01:33.000Z</time>
      </trkpt>
      <trkpt lat="47.55943" lon="-3.10262">
        <time>2018-01-21T13:01:34.000Z</time>
      </trkpt>
      <trkpt lat="47.55949" lon="-3.10264">
        <time>2018-01-21T13:01:35.000Z</time>
      </trkpt>
      <trkpt lat="47.55956" lon="-3.10265">
        <time>2018-01-21T13:01:36.000Z</time>
      </trkpt>
      <trkpt lat="47.55963" lon="-3.10266">
        <time>2018-01-21T13:01:37.000Z</time>
      </trkpt>
      <trkpt lat="47.5597" lon="-3.10268">
        <time>2018-01-21T13:01:38.000Z</time>
      </trkpt>
      <trkpt lat="47.55976" lon="-3.10271">
        <time>2018-01-21T13:01:39.000Z</time>
      </trkpt>
      <trkpt lat="47.55984" lon="-3.10274">
        <time>2018-01-21T13:01:40.000Z</time>
      </trkpt>
      <trkpt lat="47.55991" lon="-3.10277">
        <time>2018-01-21T13:01:41.000Z</time>
      </trkpt>
      <trkpt lat="47.55998" lon="-3.1028">
        <time>2018-01-21T13:01:42.000Z</time>
      </trkpt>
      <trkpt lat="47.56005" lon="-3.10283">
        <time>2018-01-21T13:01:43.000Z</time>
      </trkpt>
      <trkpt lat="47.56013" lon="-3.10285">
        <time>2018-01-21T13:01:44.000Z</time>
      </trkpt>
      <trkpt lat="47.5602" lon="-3.10287">
        <time>2018-01-21T13:01:45.000Z</time>
      </trkpt>
      <trkpt lat="47.56028" lon="-3.10289">
        <time>2018-01-21T13:01:46.000Z</time>
      </trkpt>
      <trkpt lat="47.56037" lon="-3.10292">
        <time>2018-01-21T13:01:47.000Z</time>
      </trkpt>
      <trkpt lat="47.56045" lon="-3.10293">
        <time>2018-01-21T13:01:48.000Z</time>
      </trkpt>
      <trkpt lat="47.56053" lon="-3.10296">
        <time>2018-01-21T13:01:49.000Z</time>
      </trkpt>
      <trkpt lat="47.56061" lon="-3.10298">
        <time>2018-01-21T13:01:50.000Z</time>
      </trkpt>
      <trkpt lat="47.56068" lon="-3.10301">
        <time>2018-01-21T13:01:51.000Z</time>
      </trkpt>
      <trkpt lat="47.56075" lon="-3.10305">
        <time>2018-01-21T13:01:52.000Z</time>
      </trkpt>
      <trkpt lat="47.56082" lon="-3.10308">
        <time>2018-01-21T13:01:53.000Z</time>
      </trkpt>
      <trkpt lat="47.56089" lon="-3.10311">
        <time>2018-01-21T13:01:54.000Z</time>
      </trkpt>
      <trkpt lat="47.56096" lon="-3.10314">
        <time>2018-01-21T13:01:55.000Z</time>
      </trkpt>
      <trkpt lat="47.56103" lon="-3.10315">
        <time>2018-01-21T13:01:56.000Z</time>
      </trkpt>
      <trkpt lat="47.56111" lon="-3.10315">
        <time>2018-01-21T13:01:57.000Z</time>
      </trkpt>
      <trkpt lat="47.56118" lon="-3.10316">
        <time>2018-01-21T13:01:58.000Z</time>
      </trkpt>
      <trkpt lat="47.56126" lon="-3.10316">
        <time>2018-01-21T13:01:59.000Z</time>
      </trkpt>
      <trkpt lat="47.56133" lon="-3.10318">
        <time>2018-01-21T13:02:00.000Z</time>
      </trkpt>
      <trkpt lat="47.56139" lon="-3.10321">
        <time>2018-01-21T13:02:01.000Z</time>
      </trkpt>
      <trkpt lat="47.56145" lon="-3.10326">
        <time>2018-01-21T13:02:02.000Z</time>
      </trkpt>
      <trkpt lat="47.56151" lon="-3.10329">
        <time>2018-01-21T13:02:03.000Z</time>
      </trkpt>
      <trkpt lat="47.56157" lon="-3.10332">
        <time>2018-01-21T13:02:04.000Z</time>
      </trkpt>
      <trkpt lat="47.56164" lon="-3.10335">
        <time>2018-01-21T13:02:05.000Z</time>
      </trkpt>
      <trkpt lat="47.56171" lon="-3.10338">
        <time>2018-01-21T13:02:06.000Z</time>
      </trkpt>
      <trkpt lat="47.56179" lon="-3.1034">
        <time>2018-01-21T13:02:07.000Z</time>
      </trkpt>
      <trkpt lat="47.56186" lon="-3.10343">
        <time>2018-01-21T13:02:08.000Z</time>
      </trkpt>
      <trkpt lat="47.56193" lon="-3.10346">
        <time>2018-01-21T13:02:09.000Z</time>
      </trkpt>
      <trkpt lat="47.56201" lon="-3.10349">
        <time>2018-01-21T13:02:10.000Z</time>
      </trkpt>
      <trkpt lat="47.56209" lon="-3.10351">
        <time>2018-01-21T13:02:11.000Z</time>
      </trkpt>
      <trkpt lat="47.56217" lon="-3.10354">
        <time>2018-01-21T13:02:12.000Z</time>
      </trkpt>
      <trkpt lat="47.56225" lon="-3.10357">
        <time>2018-01-21T13:02:13.000Z</time>
      </trkpt>
      <trkpt lat="47.56232" lon="-3.10361">
        <time>2018-01-21T13:02:14.000Z</time>
      </trkpt>
      <trkpt lat="47.5624" lon="-3.10365">
        <time>2018-01-21T13:02:15.000Z</time>
      </trkpt>
      <trkpt lat="47.56247" lon="-3.10369">
        <time>2018-01-21T13:02:16.000Z</time>
      </trkpt>
      <trkpt lat="47.56255" lon="-3.10372">
        <time>2018-01-21T13:02:17.000Z</time>
      </trkpt>
      <trkpt lat="47.56263" lon="-3.10374">
        <time>2018-01-21T13:02:18.000Z</time>
      </trkpt>
      <trkpt lat="47.56271" lon="-3.10377">
        <time>2018-01-21T13:02:19.000Z</time>
      </trkpt>
      <trkpt lat="47.56278" lon="-3.1038">
        <time>2018-01-21T13:02:20.000Z</time>
      </trkpt>
      <trkpt lat="47.56285" lon="-3.10384">
        <time>2018-01-21T13:02:21.000Z</time>
      </trkpt>
      <trkpt lat="47.56292" lon="-3.10386">
        <time>2018-01-21T13:02:22.000Z</time>
      </trkpt>
      <trkpt lat="47.56299" lon="-3.10389">
        <time>2018-01-21T13:02:23.000Z</time>
      </trkpt>
      <trkpt lat="47.56307" lon="-3.1039">
        <time>2018-01-21T13:02:24.000Z</time>
      </trkpt>
      <trkpt lat="47.56314" lon="-3.10391">
        <time>2018-01-21T13:02:25.000Z</time>
      </trkpt>
      <trkpt lat="47.56321" lon="-3.10392">
        <time>2018-01-21T13:02:26.000Z</time>
      </trkpt>
      <trkpt lat="47.56328" lon="-3.10395">
        <time>2018-01-21T13:02:27.000Z</time>
      </trkpt>
      <trkpt lat="47.56336" lon="-3.10398">
        <time>2018-01-21T13:02:28.000Z</time>
      </trkpt>
      <trkpt lat="47.56343" lon="-3.10402">
        <time>2018-01-21T13:02:29.000Z</time>
      </trkpt>
      <trkpt lat="47.5635" lon="-3.10405">
        <time>2018-01-21T13:02:30.000Z</time>
      </trkpt>
      <trkpt lat="47.56356" lon="-3.10407">
        <time>2018-01-21T13:02:31.000Z</time>
      </trkpt>
      <trkpt lat="47.56363" lon="-3.10409">
        <time>2018-01-21T13:02:32.000Z</time>
      </trkpt>
      <trkpt lat="47.5637" lon="-3.1041">
        <time>2018-01-21T13:02:33.000Z</time>
      </trkpt>
      <trkpt lat="47.56377" lon="-3.10411">
        <time>2018-01-21T13:02:34.000Z</time>
      </trkpt>
      <trkpt lat="47.56384" lon="-3.10411">
        <time>2018-01-21T13:02:35.000Z</time>
      </trkpt>
      <trkpt lat="47.56391" lon="-3.10411">
        <time>2018-01-21T13:02:36.000Z</time>
      </trkpt>
      <trkpt lat="47.56399" lon="-3.10411">
        <time>2018-01-21T13:02:37.000Z</time>
      </trkpt>
      <trkpt lat="47.56407" lon="-3.10412">
        <time>2018-01-21T13:02:38.000Z</time>
      </trkpt>
      <trkpt lat="47.56416" lon="-3.10411">
        <time>2018-01-21T13:02:39.000Z</time>
      </trkpt>
      <trkpt lat="47.56424" lon="-3.10412">
        <time>2018-01-21T13:02:40.000Z</time>
      </trkpt>
      <trkpt lat="47.56433" lon="-3.10413">
        <time>2018-01-21T13:02:41.000Z</time>
      </trkpt>
      <trkpt lat="47.56442" lon="-3.10413">
        <time>2018-01-21T13:02:42.000Z</time>
      </trkpt>
      <trkpt lat="47.5645" lon="-3.10414">
        <time>2018-01-21T13:02:43.000Z</time>
      </trkpt>
      <trkpt lat="47.56459" lon="-3.10416">
        <time>2018-01-21T13:02:44.000Z</time>
      </trkpt>
      <trkpt lat="47.56467" lon="-3.10418">
        <time>2018-01-21T13:02:45.000Z</time>
      </trkpt>
      <trkpt lat="47.56475" lon="-3.10418">
        <time>2018-01-21T13:02:46.000Z</time>
      </trkpt>
      <trkpt lat="47.56483" lon="-3.10419">
        <time>2018-01-21T13:02:47.000Z</time>
      </trkpt>
      <trkpt lat="47.56492" lon="-3.10419">
        <time>2018-01-21T13:02:48.000Z</time>
      </trkpt>
      <trkpt lat="47.56501" lon="-3.10419">
        <time>2018-01-21T13:02:49.000Z</time>
      </trkpt>
      <trkpt lat="47.5651" lon="-3.10419">
        <time>2018-01-21T13:02:50.000Z</time>
      </trkpt>
      <trkpt lat="47.56519" lon="-3.1042">
        <time>2018-01-21T13:02:51.000Z</time>
      </trkpt>
      <trkpt lat="47.56529" lon="-3.10421">
        <time>2018-01-21T13:02:52.000Z</time>
      </trkpt>
      <trkpt lat="47.56541" lon="-3.10419">
        <time>2018-01-21T13:02:53.000Z</time>
      </trkpt>
      <trkpt lat="47.56551" lon="-3.10423">
        <time>2018-01-21T13:02:54.000Z</time>
      </trkpt>
      <trkpt lat="47.56559" lon="-3.10426">
        <time>2018-01-21T13:02:55.000Z</time>
      </trkpt>
      <trkpt lat="47.56567" lon="-3.10429">
        <time>2018-01-21T13:02:56.000Z</time>
      </trkpt>
      <trkpt lat="47.56575" lon="-3.10434">
        <time>2018-01-21T13:02:57.000Z</time>
      </trkpt>
      <trkpt lat="47.56582" lon="-3.10437">
        <time>2018-01-21T13:02:58.000Z</time>
      </trkpt>
      <trkpt lat="47.56588" lon="-3.10439">
        <time>2018-01-21T13:02:59.000Z</time>
      </trkpt>
      <trkpt lat="47.56594" lon="-3.10442">
        <time>2018-01-21T13:03:00.000Z</time>
      </trkpt>
      <trkpt lat="47.56601" lon="-3.10443">
        <time>2018-01-21T13:03:01.000Z</time>
      </trkpt>
      <trkpt lat="47.56607" lon="-3.10445">
        <time>2018-01-21T13:03:02.000Z</time>
      </trkpt>
      <trkpt lat="47.56613" lon="-3.10446">
        <time>2018-01-21T13:03:03.000Z</time>
      </trkpt>
      <trkpt lat="47.56619" lon="-3.10448">
        <time>2018-01-21T13:03:04.000Z</time>
      </trkpt>
      <trkpt lat="47.56625" lon="-3.10449">
        <time>2018-01-21T13:03:05.000Z</time>
      </trkpt>
      <trkpt lat="47.56632" lon="-3.1045">
        <time>2018-01-21T13:03:06.000Z</time>
      </trkpt>
      <trkpt lat="47.56639" lon="-3.1045">
        <time>2018-01-21T13:03:07.000Z</time>
      </trkpt>
      <trkpt lat="47.56646" lon="-3.10451">
        <time>2018-01-21T13:03:08.000Z</time>
      </trkpt>
      <trkpt lat="47.56653" lon="-3.10451">
        <time>2018-01-21T13:03:09.000Z</time>
      </trkpt>
      <trkpt lat="47.5666" lon="-3.1045">
        <time>2018-01-21T13:03:10.000Z</time>
      </trkpt>
      <trkpt lat="47.56666" lon="-3.1045">
        <time>2018-01-21T13:03:11.000Z</time>
      </trkpt>
      <trkpt lat="47.56672" lon="-3.10451">
        <time>2018-01-21T13:03:12.000Z</time>
      </trkpt>
      <trkpt lat="47.56678" lon="-3.10451">
        <time>2018-01-21T13:03:13.000Z</time>
      </trkpt>
      <trkpt lat="47.56684" lon="-3.10449">
        <time>2018-01-21T13:03:14.000Z</time>
      </trkpt>
      <trkpt lat="47.56689" lon="-3.10445">
        <time>2018-01-21T13:03:15.000Z</time>
      </trkpt>
      <trkpt lat="47.56692" lon="-3.10439">
        <time>2018-01-21T13:03:16.000Z</time>
      </trkpt>
      <trkpt lat="47.56692" lon="-3.10434">
        <time>2018-01-21T13:03:17.000Z</time>
      </trkpt>
      <trkpt lat="47.56691" lon="-3.10431">
        <time>2018-01-21T13:03:18.000Z</time>
      </trkpt>
      <trkpt lat="47.5669" lon="-3.10429">
        <time>2018-01-21T13:03:19.000Z</time>
      </trkpt>
      <trkpt lat="47.56689" lon="-3.10427">
        <time>2018-01-21T13:03:20.000Z</time>
      </trkpt>
      <trkpt lat="47.56688" lon="-3.10425">
        <time>2018-01-21T13:03:21.000Z</time>
      </trkpt>
      <trkpt lat="47.56688" lon="-3.10424">
        <time>2018-01-21T13:03:22.000Z</time>
      </trkpt>
      <trkpt lat="47.56688" lon="-3.10423">
        <time>2018-01-21T13:03:23.000Z</time>
      </trkpt>
      <trkpt lat="47.56689" lon="-3.10422">
        <time>2018-01-21T13:03:24.000Z</time>
      </trkpt>
      <trkpt lat="47.56689" lon="-3.1042">
        <time>2018-01-21T13:03:25.000Z</time>
      </trkpt>
      <trkpt lat="47.56689" lon="-3.10419">
        <time>2018-01-21T13:03:26.000Z</time>
      </trkpt>
      <trkpt lat="47.56689" lon="-3.10419">
        <time>2018-01-21T13:03:27.000Z</time>
      </trkpt>
      <trkpt lat="47.5669" lon="-3.1042">
        <time>2018-01-21T13:03:28.000Z</time>
      </trkpt>
      <trkpt lat="47.5669" lon="-3.1042">
        <time>2018-01-21T13:03:29.000Z</time>
      </trkpt>
      <trkpt lat="47.5669" lon="-3.1042">
        <time>2018-01-21T13:03:30.000Z</time>
      </trkpt>
      <trkpt lat="47.5669" lon="-3.1042">
        <time>2018-01-21T13:03:31.000Z</time>
      </trkpt>
      <trkpt lat="47.5669" lon="-3.1042">
        <time>2018-01-21T13:03:32.000Z</time>
      </trkpt>
      <trkpt lat="47.5669" lon="-3.1042">
        <time>2018-01-21T13:03:33.000Z</time>
      </trkpt>
      <trkpt lat="47.5669" lon="-3.1042">
        <time>2018-01-21T13:03:34.000Z</time>
      </trkpt>
      <trkpt lat="47.5669" lon="-3.1042">
        <time>2018-01-21T13:03:35.000Z</time>
      </trkpt>
      <trkpt lat="47.5669" lon="-3.1042">
        <time>2018-01-21T13:03:36.000Z</time>
      </trkpt>
      <trkpt lat="47.5669" lon="-3.1042">
        <time>2018-01-21T13:03:37.000Z</time>
      </trkpt>
      <trkpt lat="47.5669" lon="-3.1042">
        <time>2018-01-21T13:03:38.000Z</time>
      </trkpt>
      <trkpt lat="47.5669" lon="-3.1042">
        <time>2018-01-21T13:03:39.000Z</time>
      </trkpt>
      <trkpt lat="47.5669" lon="-3.1042">
        <time>2018-01-21T13:03:40.000Z</time>
      </trkpt>
      <trkpt lat="47.5669" lon="-3.1042">
        <time>2018-01-21T13:03:41.000Z</time>
      </trkpt>
      <trkpt lat="47.5669" lon="-3.1042">
        <time>2018-01-21T13:03:42.000Z</time>
      </trkpt>
      <trkpt lat="47.5669" lon="-3.1042">
        <time>2018-01-21T13:03:43.000Z</time>
      </trkpt>
      <trkpt lat="47.5669" lon="-3.1042">
        <time>2018-01-21T13:03:44.000Z</time>
      </trkpt>
      <trkpt lat="47.56686" lon="-3.1042">
        <time>2018-01-21T13:03:45.000Z</time>
      </trkpt>
      <trkpt lat="47.56684" lon="-3.10421">
        <time>2018-01-21T13:03:46.000Z</time>
      </trkpt>
      <trkpt lat="47.56682" lon="-3.10421">
        <time>2018-01-21T13:03:47.000Z</time>
      </trkpt>
      <trkpt lat="47.56678" lon="-3.10421">
        <time>2018-01-21T13:03:48.000Z</time>
      </trkpt>
      <trkpt lat="47.56675" lon="-3.10422">
        <time>2018-01-21T13:03:49.000Z</time>
      </trkpt>
      <trkpt lat="47.56673" lon="-3.10423">
        <time>2018-01-21T13:03:50.000Z</time>
      </trkpt>
      <trkpt lat="47.5667" lon="-3.10424">
        <time>2018-01-21T13:03:51.000Z</time>
      </trkpt>
      <trkpt lat="47.56667" lon="-3.10424">
        <time>2018-01-21T13:03:52.000Z</time>
      </trkpt>
      <trkpt lat="47.56664" lon="-3.10425">
        <time>2018-01-21T13:03:53.000Z</time>
      </trkpt>
      <trkpt lat="47.5666" lon="-3.10425">
        <time>2018-01-21T13:03:54.000Z</time>
      </trkpt>
      <trkpt lat="47.56656" lon="-3.10426">
        <time>2018-01-21T13:03:55.000Z</time>
      </trkpt>
      <trkpt lat="47.56654" lon="-3.10427">
        <time>2018-01-21T13:03:56.000Z</time>
      </trkpt>
      <trkpt lat="47.5665" lon="-3.10427">
        <time>2018-01-21T13:03:57.000Z</time>
      </trkpt>
      <trkpt lat="47.56647" lon="-3.10428">
        <time>2018-01-21T13:03:58.000Z</time>
      </trkpt>
      <trkpt lat="47.56642" lon="-3.10428">
        <time>2018-01-21T13:03:59.000Z</time>
      </trkpt>
      <trkpt lat="47.56637" lon="-3.10426">
        <time>2018-01-21T13:04:00.000Z</time>
      </trkpt>
      <trkpt lat="47.56631" lon="-3.10424">
        <time>2018-01-21T13:04:01.000Z</time>
      </trkpt>
      <trkpt lat="47.56624" lon="-3.10423">
        <time>2018-01-21T13:04:02.000Z</time>
      </trkpt>
      <trkpt lat="47.56617" lon="-3.10423">
        <time>2018-01-21T13:04:03.000Z</time>
      </trkpt>
      <trkpt lat="47.56611" lon="-3.10423">
        <time>2018-01-21T13:04:04.000Z</time>
      </trkpt>
      <trkpt lat="47.56603" lon="-3.10424">
        <time>2018-01-21T13:04:05.000Z</time>
      </trkpt>
      <trkpt lat="47.56595" lon="-3.10425">
        <time>2018-01-21T13:04:06.000Z</time>
      </trkpt>
      <trkpt lat="47.56587" lon="-3.10426">
        <time>2018-01-21T13:04:07.000Z</time>
      </trkpt>
      <trkpt lat="47.56579" lon="-3.10426">
        <time>2018-01-21T13:04:08.000Z</time>
      </trkpt>
      <trkpt lat="47.5657" lon="-3.10427">
        <time>2018-01-21T13:04:09.000Z</time>
      </trkpt>
      <trkpt lat="47.56562" lon="-3.10428">
        <time>2018-01-21T13:04:10.000Z</time>
      </trkpt>
      <trkpt lat="47.56553" lon="-3.10429">
        <time>2018-01-21T13:04:11.000Z</time>
      </trkpt>
      <trkpt lat="47.56545" lon="-3.10429">
        <time>2018-01-21T13:04:12.000Z</time>
      </trkpt>
      <trkpt lat="47.56537" lon="-3.10429">
        <time>2018-01-21T13:04:13.000Z</time>
      </trkpt>
      <trkpt lat="47.56529" lon="-3.1043">
        <time>2018-01-21T13:04:14.000Z</time>
      </trkpt>
      <trkpt lat="47.56521" lon="-3.1043">
        <time>2018-01-21T13:04:15.000Z</time>
      </trkpt>
      <trkpt lat="47.56513" lon="-3.1043">
        <time>2018-01-21T13:04:16.000Z</time>
      </trkpt>
      <trkpt lat="47.56505" lon="-3.1043">
        <time>2018-01-21T13:04:17.000Z</time>
      </trkpt>
      <trkpt lat="47.56497" lon="-3.1043">
        <time>2018-01-21T13:04:18.000Z</time>
      </trkpt>
      <trkpt lat="47.5649" lon="-3.1043">
        <time>2018-01-21T13:04:19.000Z</time>
      </trkpt>
      <trkpt lat="47.56482" lon="-3.10431">
        <time>2018-01-21T13:04:20.000Z</time>
      </trkpt>
      <trkpt lat="47.56474" lon="-3.10431">
        <time>2018-01-21T13:04:21.000Z</time>
      </trkpt>
      <trkpt lat="47.56466" lon="-3.1043">
        <time>2018-01-21T13:04:22.000Z</time>
      </trkpt>
      <trkpt lat="47.56459" lon="-3.1043">
        <time>2018-01-21T13:04:23.000Z</time>
      </trkpt>
      <trkpt lat="47.56451" lon="-3.10429">
        <time>2018-01-21T13:04:24.000Z</time>
      </trkpt>
      <trkpt lat="47.56443" lon="-3.10428">
        <time>2018-01-21T13:04:25.000Z</time>
      </trkpt>
      <trkpt lat="47.56436" lon="-3.10427">
        <time>2018-01-21T13:04:26.000Z</time>
      </trkpt>
      <trkpt lat="47.56428" lon="-3.10427">
        <time>2018-01-21T13:04:27.000Z</time>
      </trkpt>
      <trkpt lat="47.5642" lon="-3.10427">
        <time>2018-01-21T13:04:28.000Z</time>
      </trkpt>
      <trkpt lat="47.56413" lon="-3.10428">
        <time>2018-01-21T13:04:29.000Z</time>
      </trkpt>
      <trkpt lat="47.56405" lon="-3.10428">
        <time>2018-01-21T13:04:30.000Z</time>
      </trkpt>
      <trkpt lat="47.56397" lon="-3.10429">
        <time>2018-01-21T13:04:31.000Z</time>
      </trkpt>
      <trkpt lat="47.56389" lon="-3.1043">
        <time>2018-01-21T13:04:32.000Z</time>
      </trkpt>
      <trkpt lat="47.56381" lon="-3.10431">
        <time>2018-01-21T13:04:33.000Z</time>
      </trkpt>
      <trkpt lat="47.56373" lon="-3.10432">
        <time>2018-01-21T13:04:34.000Z</time>
      </trkpt>
      <trkpt lat="47.56365" lon="-3.10433">
        <time>2018-01-21T13:04:35.000Z</time>
      </trkpt>
      <trkpt lat="47.56358" lon="-3.10433">
        <time>2018-01-21T13:04:36.000Z</time>
      </trkpt>
      <trkpt lat="47.5635" lon="-3.10433">
        <time>2018-01-21T13:04:37.000Z</time>
      </trkpt>
      <trkpt lat="47.56343" lon="-3.10432">
        <time>2018-01-21T13:04:38.000Z</time>
      </trkpt>
      <trkpt lat="47.56336" lon="-3.10432">
        <time>2018-01-21T13:04:39.000Z</time>
      </trkpt>
      <trkpt lat="47.56329" lon="-3.10432">
        <time>2018-01-21T13:04:40.000Z</time>
      </trkpt>
      <trkpt lat="47.56322" lon="-3.10432">
        <time>2018-01-21T13:04:41.000Z</time>
      </trkpt>
      <trkpt lat="47.56315" lon="-3.10432">
        <time>2018-01-21T13:04:42.000Z</time>
      </trkpt>
      <trkpt lat="47.56308" lon="-3.10432">
        <time>2018-01-21T13:04:43.000Z</time>
      </trkpt>
      <trkpt lat="47.56301" lon="-3.10432">
        <time>2018-01-21T13:04:44.000Z</time>
      </trkpt>
      <trkpt lat="47.56294" lon="-3.10433">
        <time>2018-01-21T13:04:45.000Z</time>
      </trkpt>
      <trkpt lat="47.56288" lon="-3.10433">
        <time>2018-01-21T13:04:46.000Z</time>
      </trkpt>
      <trkpt lat="47.56281" lon="-3.10434">
        <time>2018-01-21T13:04:47.000Z</time>
      </trkpt>
      <trkpt lat="47.56274" lon="-3.10434">
        <time>2018-01-21T13:04:48.000Z</time>
      </trkpt>
      <trkpt lat="47.56267" lon="-3.10434">
        <time>2018-01-21T13:04:49.000Z</time>
      </trkpt>
      <trkpt lat="47.56259" lon="-3.10434">
        <time>2018-01-21T13:04:50.000Z</time>
      </trkpt>
      <trkpt lat="47.56251" lon="-3.10434">
        <time>2018-01-21T13:04:51.000Z</time>
      </trkpt>
      <trkpt lat="47.56244" lon="-3.10433">
        <time>2018-01-21T13:04:52.000Z</time>
      </trkpt>
      <trkpt lat="47.56236" lon="-3.10433">
        <time>2018-01-21T13:04:53.000Z</time>
      </trkpt>
      <trkpt lat="47.56229" lon="-3.10434">
        <time>2018-01-21T13:04:54.000Z</time>
      </trkpt>
      <trkpt lat="47.56221" lon="-3.10433">
        <time>2018-01-21T13:04:55.000Z</time>
      </trkpt>
      <trkpt lat="47.56213" lon="-3.10433">
        <time>2018-01-21T13:04:56.000Z</time>
      </trkpt>
      <trkpt lat="47.56205" lon="-3.10433">
        <time>2018-01-21T13:04:57.000Z</time>
      </trkpt>
      <trkpt lat="47.56198" lon="-3.10433">
        <time>2018-01-21T13:04:58.000Z</time>
      </trkpt>
      <trkpt lat="47.56189" lon="-3.10432">
        <time>2018-01-21T13:04:59.000Z</time>
      </trkpt>
      <trkpt lat="47.56181" lon="-3.10432">
        <time>2018-01-21T13:05:00.000Z</time>
      </trkpt>
      <trkpt lat="47.56173" lon="-3.10431">
        <time>2018-01-21T13:05:01.000Z</time>
      </trkpt>
      <trkpt lat="47.56166" lon="-3.10431">
        <time>2018-01-21T13:05:02.000Z</time>
      </trkpt>
      <trkpt lat="47.56159" lon="-3.10431">
        <time>2018-01-21T13:05:03.000Z</time>
      </trkpt>
      <trkpt lat="47.56151" lon="-3.10429">
        <time>2018-01-21T13:05:04.000Z</time>
      </trkpt>
      <trkpt lat="47.56144" lon="-3.10428">
        <time>2018-01-21T13:05:05.000Z</time>
      </trkpt>
      <trkpt lat="47.56136" lon="-3.10427">
        <time>2018-01-21T13:05:06.000Z</time>
      </trkpt>
      <trkpt lat="47.56127" lon="-3.10425">
        <time>2018-01-21T13:05:07.000Z</time>
      </trkpt>
      <trkpt lat="47.56119" lon="-3.10424">
        <time>2018-01-21T13:05:08.000Z</time>
      </trkpt>
      <trkpt lat="47.5611" lon="-3.10424">
        <time>2018-01-21T13:05:09.000Z</time>
      </trkpt>
      <trkpt lat="47.56101" lon="-3.10424">
        <time>2018-01-21T13:05:10.000Z</time>
      </trkpt>
      <trkpt lat="47.56093" lon="-3.10424">
        <time>2018-01-21T13:05:11.000Z</time>
      </trkpt>
      <trkpt lat="47.56085" lon="-3.10424">
        <time>2018-01-21T13:05:12.000Z</time>
      </trkpt>
      <trkpt lat="47.56078" lon="-3.10424">
        <time>2018-01-21T13:05:13.000Z</time>
      </trkpt>
      <trkpt lat="47.5607" lon="-3.10424">
        <time>2018-01-21T13:05:14.000Z</time>
      </trkpt>
      <trkpt lat="47.56062" lon="-3.10423">
        <time>2018-01-21T13:05:15.000Z</time>
      </trkpt>
      <trkpt lat="47.56054" lon="-3.10422">
        <time>2018-01-21T13:05:16.000Z</time>
      </trkpt>
      <trkpt lat="47.56046" lon="-3.1042">
        <time>2018-01-21T13:05:17.000Z</time>
      </trkpt>
      <trkpt lat="47.56037" lon="-3.10419">
        <time>2018-01-21T13:05:18.000Z</time>
      </trkpt>
      <trkpt lat="47.56029" lon="-3.10417">
        <time>2018-01-21T13:05:19.000Z</time>
      </trkpt>
      <trkpt lat="47.5602" lon="-3.10416">
        <time>2018-01-21T13:05:20.000Z</time>
      </trkpt>
      <trkpt lat="47.56011" lon="-3.10415">
        <time>2018-01-21T13:05:21.000Z</time>
      </trkpt>
      <trkpt lat="47.56003" lon="-3.10415">
        <time>2018-01-21T13:05:22.000Z</time>
      </trkpt>
      <trkpt lat="47.55994" lon="-3.10415">
        <time>2018-01-21T13:05:23.000Z</time>
      </trkpt>
      <trkpt lat="47.55986" lon="-3.10415">
        <time>2018-01-21T13:05:24.000Z</time>
      </trkpt>
      <trkpt lat="47.55978" lon="-3.10415">
        <time>2018-01-21T13:05:25.000Z</time>
      </trkpt>
      <trkpt lat="47.5597" lon="-3.10414">
        <time>2018-01-21T13:05:26.000Z</time>
      </trkpt>
      <trkpt lat="47.55963" lon="-3.10413">
        <time>2018-01-21T13:05:27.000Z</time>
      </trkpt>
      <trkpt lat="47.55955" lon="-3.10412">
        <time>2018-01-21T13:05:28.000Z</time>
      </trkpt>
      <trkpt lat="47.55948" lon="-3.10411">
        <time>2018-01-21T13:05:29.000Z</time>
      </trkpt>
      <trkpt lat="47.5594" lon="-3.10411">
        <time>2018-01-21T13:05:30.000Z</time>
      </trkpt>
      <trkpt lat="47.55932" lon="-3.10411">
        <time>2018-01-21T13:05:31.000Z</time>
      </trkpt>
      <trkpt lat="47.55925" lon="-3.10411">
        <time>2018-01-21T13:05:32.000Z</time>
      </trkpt>
      <trkpt lat="47.55916" lon="-3.1041">
        <time>2018-01-21T13:05:33.000Z</time>
      </trkpt>
      <trkpt lat="47.55908" lon="-3.10409">
        <time>2018-01-21T13:05:34.000Z</time>
      </trkpt>
      <trkpt lat="47.55901" lon="-3.10408">
        <time>2018-01-21T13:05:35.000Z</time>
      </trkpt>
      <trkpt lat="47.55893" lon="-3.10408">
        <time>2018-01-21T13:05:36.000Z</time>
      </trkpt>
      <trkpt lat="47.55885" lon="-3.10407">
        <time>2018-01-21T13:05:37.000Z</time>
      </trkpt>
      <trkpt lat="47.55877" lon="-3.10406">
        <time>2018-01-21T13:05:38.000Z</time>
      </trkpt>
      <trkpt lat="47.5587" lon="-3.10406">
        <time>2018-01-21T13:05:39.000Z</time>
      </trkpt>
      <trkpt lat="47.55863" lon="-3.10405">
        <time>2018-01-21T13:05:40.000Z</time>
      </trkpt>
      <trkpt lat="47.55855" lon="-3.10404">
        <time>2018-01-21T13:05:41.000Z</time>
      </trkpt>
      <trkpt lat="47.55848" lon="-3.10403">
        <time>2018-01-21T13:05:42.000Z</time>
      </trkpt>
      <trkpt lat="47.55841" lon="-3.10402">
        <time>2018-01-21T13:05:43.000Z</time>
      </trkpt>
      <trkpt lat="47.55834" lon="-3.10402">
        <time>2018-01-21T13:05:44.000Z</time>
      </trkpt>
      <trkpt lat="47.55826" lon="-3.10403">
        <time>2018-01-21T13:05:45.000Z</time>
      </trkpt>
      <trkpt lat="47.55818" lon="-3.10403">
        <time>2018-01-21T13:05:46.000Z</time>
      </trkpt>
      <trkpt lat="47.55811" lon="-3.10405">
        <time>2018-01-21T13:05:47.000Z</time>
      </trkpt>
      <trkpt lat="47.55803" lon="-3.10406">
        <time>2018-01-21T13:05:48.000Z</time>
      </trkpt>
      <trkpt lat="47.55795" lon="-3.10406">
        <time>2018-01-21T13:05:49.000Z</time>
      </trkpt>
      <trkpt lat="47.55787" lon="-3.10407">
        <time>2018-01-21T13:05:50.000Z</time>
      </trkpt>
      <trkpt lat="47.55779" lon="-3.10407">
        <time>2018-01-21T13:05:51.000Z</time>
      </trkpt>
      <trkpt lat="47.55771" lon="-3.10407">
        <time>2018-01-21T13:05:52.000Z</time>
      </trkpt>
      <trkpt lat="47.55763" lon="-3.10407">
        <time>2018-01-21T13:05:53.000Z</time>
      </trkpt>
      <trkpt lat="47.55756" lon="-3.10408">
        <time>2018-01-21T13:05:54.000Z</time>
      </trkpt>
      <trkpt lat="47.55749" lon="-3.10408">
        <time>2018-01-21T13:05:55.000Z</time>
      </trkpt>
      <trkpt lat="47.55742" lon="-3.10407">
        <time>2018-01-21T13:05:56.000Z</time>
      </trkpt>
      <trkpt lat="47.55735" lon="-3.10407">
        <time>2018-01-21T13:05:57.000Z</time>
      </trkpt>
      <trkpt lat="47.55728" lon="-3.10406">
        <time>2018-01-21T13:05:58.000Z</time>
      </trkpt>
      <trkpt lat="47.55721" lon="-3.10405">
        <time>2018-01-21T13:05:59.000Z</time>
      </trkpt>
      <trkpt lat="47.55713" lon="-3.10405">
        <time>2018-01-21T13:06:00.000Z</time>
      </trkpt>
      <trkpt lat="47.55705" lon="-3.10405">
        <time>2018-01-21T13:06:01.000Z</time>
      </trkpt>
      <trkpt lat="47.55698" lon="-3.10406">
        <time>2018-01-21T13:06:02.000Z</time>
      </trkpt>
      <trkpt lat="47.55691" lon="-3.10405">
        <time>2018-01-21T13:06:03.000Z</time>
      </trkpt>
      <trkpt lat="47.55683" lon="-3.10406">
        <time>2018-01-21T13:06:04.000Z</time>
      </trkpt>
      <trkpt lat="47.55676" lon="-3.10406">
        <time>2018-01-21T13:06:05.000Z</time>
      </trkpt>
      <trkpt lat="47.55668" lon="-3.10406">
        <time>2018-01-21T13:06:06.000Z</time>
      </trkpt>
      <trkpt lat="47.5566" lon="-3.10407">
        <time>2018-01-21T13:06:07.000Z</time>
      </trkpt>
      <trkpt lat="47.55652" lon="-3.10407">
        <time>2018-01-21T13:06:08.000Z</time>
      </trkpt>
      <trkpt lat="47.55644" lon="-3.10406">
        <time>2018-01-21T13:06:09.000Z</time>
      </trkpt>
      <trkpt lat="47.55637" lon="-3.10407">
        <time>2018-01-21T13:06:10.000Z</time>
      </trkpt>
      <trkpt lat="47.55629" lon="-3.10409">
        <time>2018-01-21T13:06:11.000Z</time>
      </trkpt>
      <trkpt lat="47.5562" lon="-3.1041">
        <time>2018-01-21T13:06:12.000Z</time>
      </trkpt>
      <trkpt lat="47.55611" lon="-3.10408">
        <time>2018-01-21T13:06:13.000Z</time>
      </trkpt>
      <trkpt lat="47.55603" lon="-3.10406">
        <time>2018-01-21T13:06:14.000Z</time>
      </trkpt>
      <trkpt lat="47.55594" lon="-3.10403">
        <time>2018-01-21T13:06:15.000Z</time>
      </trkpt>
      <trkpt lat="47.55586" lon="-3.104">
        <time>2018-01-21T13:06:16.000Z</time>
      </trkpt>
      <trkpt lat="47.55577" lon="-3.10398">
        <time>2018-01-21T13:06:17.000Z</time>
      </trkpt>
      <trkpt lat="47.55569" lon="-3.10397">
        <time>2018-01-21T13:06:18.000Z</time>
      </trkpt>
      <trkpt lat="47.5556" lon="-3.10396">
        <time>2018-01-21T13:06:19.000Z</time>
      </trkpt>
      <trkpt lat="47.55551" lon="-3.10394">
        <time>2018-01-21T13:06:20.000Z</time>
      </trkpt>
      <trkpt lat="47.55543" lon="-3.10394">
        <time>2018-01-21T13:06:21.000Z</time>
      </trkpt>
      <trkpt lat="47.55534" lon="-3.10393">
        <time>2018-01-21T13:06:22.000Z</time>
      </trkpt>
      <trkpt lat="47.55526" lon="-3.1039">
        <time>2018-01-21T13:06:23.000Z</time>
      </trkpt>
      <trkpt lat="47.55518" lon="-3.10388">
        <time>2018-01-21T13:06:24.000Z</time>
      </trkpt>
      <trkpt lat="47.5551" lon="-3.10388">
        <time>2018-01-21T13:06:25.000Z</time>
      </trkpt>
      <trkpt lat="47.55502" lon="-3.10387">
        <time>2018-01-21T13:06:26.000Z</time>
      </trkpt>
      <trkpt lat="47.55494" lon="-3.10386">
        <time>2018-01-21T13:06:27.000Z</time>
      </trkpt>
      <trkpt lat="47.55486" lon="-3.10385">
        <time>2018-01-21T13:06:28.000Z</time>
      </trkpt>
      <trkpt lat="47.55479" lon="-3.10384">
        <time>2018-01-21T13:06:29.000Z</time>
      </trkpt>
      <trkpt lat="47.55471" lon="-3.10384">
        <time>2018-01-21T13:06:30.000Z</time>
      </trkpt>
      <trkpt lat="47.55463" lon="-3.10383">
        <time>2018-01-21T13:06:31.000Z</time>
      </trkpt>
      <trkpt lat="47.55454" lon="-3.10382">
        <time>2018-01-21T13:06:32.000Z</time>
      </trkpt>
      <trkpt lat="47.55446" lon="-3.10382">
        <time>2018-01-21T13:06:33.000Z</time>
      </trkpt>
      <trkpt lat="47.55439" lon="-3.10384">
        <time>2018-01-21T13:06:34.000Z</time>
      </trkpt>
      <trkpt lat="47.55431" lon="-3.10384">
        <time>2018-01-21T13:06:35.000Z</time>
      </trkpt>
      <trkpt lat="47.55423" lon="-3.10384">
        <time>2018-01-21T13:06:36.000Z</time>
      </trkpt>
      <trkpt lat="47.55416" lon="-3.10385">
        <time>2018-01-21T13:06:37.000Z</time>
      </trkpt>
      <trkpt lat="47.55408" lon="-3.10385">
        <time>2018-01-21T13:06:38.000Z</time>
      </trkpt>
      <trkpt lat="47.554" lon="-3.10384">
        <time>2018-01-21T13:06:39.000Z</time>
      </trkpt>
      <trkpt lat="47.55392" lon="-3.10384">
        <time>2018-01-21T13:06:40.000Z</time>
      </trkpt>
      <trkpt lat="47.55384" lon="-3.10384">
        <time>2018-01-21T13:06:41.000Z</time>
      </trkpt>
      <trkpt lat="47.55375" lon="-3.10383">
        <time>2018-01-21T13:06:42.000Z</time>
      </trkpt>
      <trkpt lat="47.55368" lon="-3.10384">
        <time>2018-01-21T13:06:43.000Z</time>
      </trkpt>
      <trkpt lat="47.5536" lon="-3.10384">
        <time>2018-01-21T13:06:44.000Z</time>
      </trkpt>
      <trkpt lat="47.55352" lon="-3.10384">
        <time>2018-01-21T13:06:45.000Z</time>
      </trkpt>
      <trkpt lat="47.55344" lon="-3.10383">
        <time>2018-01-21T13:06:46.000Z</time>
      </trkpt>
      <trkpt lat="47.55336" lon="-3.10381">
        <time>2018-01-21T13:06:47.000Z</time>
      </trkpt>
      <trkpt lat="47.55327" lon="-3.10379">
        <time>2018-01-21T13:06:48.000Z</time>
      </trkpt>
      <trkpt lat="47.55318" lon="-3.10378">
        <time>2018-01-21T13:06:49.000Z</time>
      </trkpt>
      <trkpt lat="47.5531" lon="-3.10378">
        <time>2018-01-21T13:06:50.000Z</time>
      </trkpt>
      <trkpt lat="47.55302" lon="-3.10377">
        <time>2018-01-21T13:06:51.000Z</time>
      </trkpt>
      <trkpt lat="47.55295" lon="-3.10375">
        <time>2018-01-21T13:06:52.000Z</time>
      </trkpt>
      <trkpt lat="47.55286" lon="-3.10374">
        <time>2018-01-21T13:06:53.000Z</time>
      </trkpt>
      <trkpt lat="47.55278" lon="-3.10371">
        <time>2018-01-21T13:06:54.000Z</time>
      </trkpt>
      <trkpt lat="47.5527" lon="-3.1037">
        <time>2018-01-21T13:06:55.000Z</time>
      </trkpt>
      <trkpt lat="47.55262" lon="-3.1037">
        <time>2018-01-21T13:06:56.000Z</time>
      </trkpt>
      <trkpt lat="47.55254" lon="-3.1037">
        <time>2018-01-21T13:06:57.000Z</time>
      </trkpt>
      <trkpt lat="47.55246" lon="-3.10369">
        <time>2018-01-21T13:06:58.000Z</time>
      </trkpt>
      <trkpt lat="47.55237" lon="-3.10367">
        <time>2018-01-21T13:06:59.000Z</time>
      </trkpt>
      <trkpt lat="47.5523" lon="-3.10365">
        <time>2018-01-21T13:07:00.000Z</time>
      </trkpt>
      <trkpt lat="47.55222" lon="-3.10363">
        <time>2018-01-21T13:07:01.000Z</time>
      </trkpt>
      <trkpt lat="47.55214" lon="-3.10362">
        <time>2018-01-21T13:07:02.000Z</time>
      </trkpt>
      <trkpt lat="47.55206" lon="-3.10362">
        <time>2018-01-21T13:07:03.000Z</time>
      </trkpt>
      <trkpt lat="47.55198" lon="-3.1036">
        <time>2018-01-21T13:07:04.000Z</time>
      </trkpt>
      <trkpt lat="47.55189" lon="-3.10359">
        <time>2018-01-21T13:07:05.000Z</time>
      </trkpt>
      <trkpt lat="47.55181" lon="-3.10359">
        <time>2018-01-21T13:07:06.000Z</time>
      </trkpt>
      <trkpt lat="47.55173" lon="-3.10359">
        <time>2018-01-21T13:07:07.000Z</time>
      </trkpt>
      <trkpt lat="47.55165" lon="-3.10359">
        <time>2018-01-21T13:07:08.000Z</time>
      </trkpt>
      <trkpt lat="47.55157" lon="-3.1036">
        <time>2018-01-21T13:07:09.000Z</time>
      </trkpt>
      <trkpt lat="47.55149" lon="-3.10358">
        <time>2018-01-21T13:07:10.000Z</time>
      </trkpt>
      <trkpt lat="47.5514" lon="-3.10357">
        <time>2018-01-21T13:07:11.000Z</time>
      </trkpt>
      <trkpt lat="47.55131" lon="-3.10357">
        <time>2018-01-21T13:07:12.000Z</time>
      </trkpt>
      <trkpt lat="47.55123" lon="-3.10356">
        <time>2018-01-21T13:07:13.000Z</time>
      </trkpt>
      <trkpt lat="47.55114" lon="-3.10355">
        <time>2018-01-21T13:07:14.000Z</time>
      </trkpt>
      <trkpt lat="47.55105" lon="-3.10352">
        <time>2018-01-21T13:07:15.000Z</time>
      </trkpt>
      <trkpt lat="47.55097" lon="-3.1035">
        <time>2018-01-21T13:07:16.000Z</time>
      </trkpt>
      <trkpt lat="47.55089" lon="-3.10349">
        <time>2018-01-21T13:07:17.000Z</time>
      </trkpt>
      <trkpt lat="47.5508" lon="-3.10348">
        <time>2018-01-21T13:07:18.000Z</time>
      </trkpt>
      <trkpt lat="47.55072" lon="-3.10347">
        <time>2018-01-21T13:07:19.000Z</time>
      </trkpt>
      <trkpt lat="47.55064" lon="-3.10346">
        <time>2018-01-21T13:07:20.000Z</time>
      </trkpt>
      <trkpt lat="47.55055" lon="-3.10345">
        <time>2018-01-21T13:07:21.000Z</time>
      </trkpt>
      <trkpt lat="47.55047" lon="-3.10343">
        <time>2018-01-21T13:07:22.000Z</time>
      </trkpt>
      <trkpt lat="47.55039" lon="-3.10342">
        <time>2018-01-21T13:07:23.000Z</time>
      </trkpt>
      <trkpt lat="47.5503" lon="-3.1034">
        <time>2018-01-21T13:07:24.000Z</time>
      </trkpt>
      <trkpt lat="47.55021" lon="-3.10338">
        <time>2018-01-21T13:07:25.000Z</time>
      </trkpt>
      <trkpt lat="47.55012" lon="-3.10337">
        <time>2018-01-21T13:07:26.000Z</time>
      </trkpt>
      <trkpt lat="47.55004" lon="-3.10336">
        <time>2018-01-21T13:07:27.000Z</time>
      </trkpt>
      <trkpt lat="47.54996" lon="-3.10333">
        <time>2018-01-21T13:07:28.000Z</time>
      </trkpt>
      <trkpt lat="47.54987" lon="-3.10331">
        <time>2018-01-21T13:07:29.000Z</time>
      </trkpt>
      <trkpt lat="47.54978" lon="-3.1033">
        <time>2018-01-21T13:07:30.000Z</time>
      </trkpt>
      <trkpt lat="47.54968" lon="-3.10328">
        <time>2018-01-21T13:07:31.000Z</time>
      </trkpt>
      <trkpt lat="47.54959" lon="-3.10327">
        <time>2018-01-21T13:07:32.000Z</time>
      </trkpt>
      <trkpt lat="47.5495" lon="-3.10325">
        <time>2018-01-21T13:07:33.000Z</time>
      </trkpt>
      <trkpt lat="47.54941" lon="-3.10323">
        <time>2018-01-21T13:07:34.000Z</time>
      </trkpt>
      <trkpt lat="47.54932" lon="-3.10321">
        <time>2018-01-21T13:07:35.000Z</time>
      </trkpt>
      <trkpt lat="47.54923" lon="-3.10319">
        <time>2018-01-21T13:07:36.000Z</time>
      </trkpt>
      <trkpt lat="47.54914" lon="-3.10318">
        <time>2018-01-21T13:07:37.000Z</time>
      </trkpt>
      <trkpt lat="47.54906" lon="-3.10318">
        <time>2018-01-21T13:07:38.000Z</time>
      </trkpt>
      <trkpt lat="47.54897" lon="-3.10316">
        <time>2018-01-21T13:07:39.000Z</time>
      </trkpt>
      <trkpt lat="47.54889" lon="-3.10315">
        <time>2018-01-21T13:07:40.000Z</time>
      </trkpt>
      <trkpt lat="47.54881" lon="-3.10314">
        <time>2018-01-21T13:07:41.000Z</time>
      </trkpt>
      <trkpt lat="47.54872" lon="-3.10313">
        <time>2018-01-21T13:07:42.000Z</time>
      </trkpt>
      <trkpt lat="47.54863" lon="-3.10311">
        <time>2018-01-21T13:07:43.000Z</time>
      </trkpt>
      <trkpt lat="47.54855" lon="-3.1031">
        <time>2018-01-21T13:07:44.000Z</time>
      </trkpt>
      <trkpt lat="47.54846" lon="-3.10309">
        <time>2018-01-21T13:07:45.000Z</time>
      </trkpt>
      <trkpt lat="47.54838" lon="-3.10308">
        <time>2018-01-21T13:07:46.000Z</time>
      </trkpt>
      <trkpt lat="47.54829" lon="-3.10307">
        <time>2018-01-21T13:07:47.000Z</time>
      </trkpt>
      <trkpt lat="47.54821" lon="-3.10305">
        <time>2018-01-21T13:07:48.000Z</time>
      </trkpt>
      <trkpt lat="47.54813" lon="-3.10304">
        <time>2018-01-21T13:07:49.000Z</time>
      </trkpt>
      <trkpt lat="47.54805" lon="-3.10304">
        <time>2018-01-21T13:07:50.000Z</time>
      </trkpt>
      <trkpt lat="47.54796" lon="-3.10303">
        <time>2018-01-21T13:07:51.000Z</time>
      </trkpt>
      <trkpt lat="47.54788" lon="-3.10302">
        <time>2018-01-21T13:07:52.000Z</time>
      </trkpt>
      <trkpt lat="47.5478" lon="-3.10301">
        <time>2018-01-21T13:07:53.000Z</time>
      </trkpt>
      <trkpt lat="47.54771" lon="-3.103">
        <time>2018-01-21T13:07:54.000Z</time>
      </trkpt>
      <trkpt lat="47.54763" lon="-3.10299">
        <time>2018-01-21T13:07:55.000Z</time>
      </trkpt>
      <trkpt lat="47.54755" lon="-3.10298">
        <time>2018-01-21T13:07:56.000Z</time>
      </trkpt>
      <trkpt lat="47.54747" lon="-3.10296">
        <time>2018-01-21T13:07:57.000Z</time>
      </trkpt>
      <trkpt lat="47.54738" lon="-3.10295">
        <time>2018-01-21T13:07:58.000Z</time>
      </trkpt>
      <trkpt lat="47.5473" lon="-3.10294">
        <time>2018-01-21T13:07:59.000Z</time>
      </trkpt>
      <trkpt lat="47.54721" lon="-3.10293">
        <time>2018-01-21T13:08:00.000Z</time>
      </trkpt>
      <trkpt lat="47.54712" lon="-3.10293">
        <time>2018-01-21T13:08:01.000Z</time>
      </trkpt>
      <trkpt lat="47.54702" lon="-3.10293">
        <time>2018-01-21T13:08:02.000Z</time>
      </trkpt>
      <trkpt lat="47.54693" lon="-3.10292">
        <time>2018-01-21T13:08:03.000Z</time>
      </trkpt>
      <trkpt lat="47.54684" lon="-3.10292">
        <time>2018-01-21T13:08:04.000Z</time>
      </trkpt>
      <trkpt lat="47.54674" lon="-3.10291">
        <time>2018-01-21T13:08:05.000Z</time>
      </trkpt>
      <trkpt lat="47.54666" lon="-3.10291">
        <time>2018-01-21T13:08:06.000Z</time>
      </trkpt>
      <trkpt lat="47.54657" lon="-3.1029">
        <time>2018-01-21T13:08:07.000Z</time>
      </trkpt>
      <trkpt lat="47.54648" lon="-3.1029">
        <time>2018-01-21T13:08:08.000Z</time>
      </trkpt>
      <trkpt lat="47.54639" lon="-3.10291">
        <time>2018-01-21T13:08:09.000Z</time>
      </trkpt>
      <trkpt lat="47.54631" lon="-3.10288">
        <time>2018-01-21T13:08:10.000Z</time>
      </trkpt>
      <trkpt lat="47.54622" lon="-3.10288">
        <time>2018-01-21T13:08:11.000Z</time>
      </trkpt>
      <trkpt lat="47.54615" lon="-3.1029">
        <time>2018-01-21T13:08:12.000Z</time>
      </trkpt>
      <trkpt lat="47.54608" lon="-3.10289">
        <time>2018-01-21T13:08:13.000Z</time>
      </trkpt>
      <trkpt lat="47.546" lon="-3.10289">
        <time>2018-01-21T13:08:14.000Z</time>
      </trkpt>
      <trkpt lat="47.54593" lon="-3.1029">
        <time>2018-01-21T13:08:15.000Z</time>
      </trkpt>
      <trkpt lat="47.54586" lon="-3.1029">
        <time>2018-01-21T13:08:16.000Z</time>
      </trkpt>
      <trkpt lat="47.54578" lon="-3.1029">
        <time>2018-01-21T13:08:17.000Z</time>
      </trkpt>
      <trkpt lat="47.5457" lon="-3.10289">
        <time>2018-01-21T13:08:18.000Z</time>
      </trkpt>
      <trkpt lat="47.54562" lon="-3.10289">
        <time>2018-01-21T13:08:19.000Z</time>
      </trkpt>
      <trkpt lat="47.54552" lon="-3.10288">
        <time>2018-01-21T13:08:20.000Z</time>
      </trkpt>
      <trkpt lat="47.54543" lon="-3.10288">
        <time>2018-01-21T13:08:21.000Z</time>
      </trkpt>
      <trkpt lat="47.54535" lon="-3.10287">
        <time>2018-01-21T13:08:22.000Z</time>
      </trkpt>
      <trkpt lat="47.54527" lon="-3.10286">
        <time>2018-01-21T13:08:23.000Z</time>
      </trkpt>
      <trkpt lat="47.54519" lon="-3.10284">
        <time>2018-01-21T13:08:24.000Z</time>
      </trkpt>
      <trkpt lat="47.54511" lon="-3.10284">
        <time>2018-01-21T13:08:25.000Z</time>
      </trkpt>
      <trkpt lat="47.54503" lon="-3.10284">
        <time>2018-01-21T13:08:26.000Z</time>
      </trkpt>
      <trkpt lat="47.54495" lon="-3.10283">
        <time>2018-01-21T13:08:27.000Z</time>
      </trkpt>
      <trkpt lat="47.54487" lon="-3.10282">
        <time>2018-01-21T13:08:28.000Z</time>
      </trkpt>
      <trkpt lat="47.54478" lon="-3.1028">
        <time>2018-01-21T13:08:29.000Z</time>
      </trkpt>
      <trkpt lat="47.54469" lon="-3.10277">
        <time>2018-01-21T13:08:30.000Z</time>
      </trkpt>
      <trkpt lat="47.5446" lon="-3.10276">
        <time>2018-01-21T13:08:31.000Z</time>
      </trkpt>
      <trkpt lat="47.54451" lon="-3.10274">
        <time>2018-01-21T13:08:32.000Z</time>
      </trkpt>
      <trkpt lat="47.54442" lon="-3.10269">
        <time>2018-01-21T13:08:33.000Z</time>
      </trkpt>
      <trkpt lat="47.54433" lon="-3.10266">
        <time>2018-01-21T13:08:34.000Z</time>
      </trkpt>
      <trkpt lat="47.54424" lon="-3.10265">
        <time>2018-01-21T13:08:35.000Z</time>
      </trkpt>
      <trkpt lat="47.54415" lon="-3.10263">
        <time>2018-01-21T13:08:36.000Z</time>
      </trkpt>
      <trkpt lat="47.54407" lon="-3.10262">
        <time>2018-01-21T13:08:37.000Z</time>
      </trkpt>
      <trkpt lat="47.54398" lon="-3.1026">
        <time>2018-01-21T13:08:38.000Z</time>
      </trkpt>
      <trkpt lat="47.5439" lon="-3.10258">
        <time>2018-01-21T13:08:39.000Z</time>
      </trkpt>
      <trkpt lat="47.54381" lon="-3.10257">
        <time>2018-01-21T13:08:40.000Z</time>
      </trkpt>
      <trkpt lat="47.54373" lon="-3.10256">
        <time>2018-01-21T13:08:41.000Z</time>
      </trkpt>
      <trkpt lat="47.54364" lon="-3.10255">
        <time>2018-01-21T13:08:42.000Z</time>
      </trkpt>
      <trkpt lat="47.54356" lon="-3.10254">
        <time>2018-01-21T13:08:43.000Z</time>
      </trkpt>
      <trkpt lat="47.54347" lon="-3.10253">
        <time>2018-01-21T13:08:44.000Z</time>
      </trkpt>
      <trkpt lat="47.54339" lon="-3.10252">
        <time>2018-01-21T13:08:45.000Z</time>
      </trkpt>
      <trkpt lat="47.54331" lon="-3.10251">
        <time>2018-01-21T13:08:46.000Z</time>
      </trkpt>
      <trkpt lat="47.54322" lon="-3.10251">
        <time>2018-01-21T13:08:47.000Z</time>
      </trkpt>
      <trkpt lat="47.54314" lon="-3.1025">
        <time>2018-01-21T13:08:48.000Z</time>
      </trkpt>
      <trkpt lat="47.54306" lon="-3.1025">
        <time>2018-01-21T13:08:49.000Z</time>
      </trkpt>
      <trkpt lat="47.54298" lon="-3.10249">
        <time>2018-01-21T13:08:50.000Z</time>
      </trkpt>
      <trkpt lat="47.54289" lon="-3.10248">
        <time>2018-01-21T13:08:51.000Z</time>
      </trkpt>
      <trkpt lat="47.54281" lon="-3.10247">
        <time>2018-01-21T13:08:52.000Z</time>
      </trkpt>
      <trkpt lat="47.54273" lon="-3.10245">
        <time>2018-01-21T13:08:53.000Z</time>
      </trkpt>
      <trkpt lat="47.54265" lon="-3.10244">
        <time>2018-01-21T13:08:54.000Z</time>
      </trkpt>
      <trkpt lat="47.54258" lon="-3.10244">
        <time>2018-01-21T13:08:55.000Z</time>
      </trkpt>
      <trkpt lat="47.5425" lon="-3.10243">
        <time>2018-01-21T13:08:56.000Z</time>
      </trkpt>
      <trkpt lat="47.54242" lon="-3.10242">
        <time>2018-01-21T13:08:57.000Z</time>
      </trkpt>
      <trkpt lat="47.54233" lon="-3.10242">
        <time>2018-01-21T13:08:58.000Z</time>
      </trkpt>
      <trkpt lat="47.54224" lon="-3.10242">
        <time>2018-01-21T13:08:59.000Z</time>
      </trkpt>
      <trkpt lat="47.54216" lon="-3.10242">
        <time>2018-01-21T13:09:00.000Z</time>
      </trkpt>
      <trkpt lat="47.54207" lon="-3.10241">
        <time>2018-01-21T13:09:01.000Z</time>
      </trkpt>
      <trkpt lat="47.54198" lon="-3.1024">
        <time>2018-01-21T13:09:02.000Z</time>
      </trkpt>
      <trkpt lat="47.5419" lon="-3.1024">
        <time>2018-01-21T13:09:03.000Z</time>
      </trkpt>
      <trkpt lat="47.54182" lon="-3.1024">
        <time>2018-01-21T13:09:04.000Z</time>
      </trkpt>
      <trkpt lat="47.54173" lon="-3.1024">
        <time>2018-01-21T13:09:05.000Z</time>
      </trkpt>
      <trkpt lat="47.54165" lon="-3.10238">
        <time>2018-01-21T13:09:06.000Z</time>
      </trkpt>
      <trkpt lat="47.54157" lon="-3.10236">
        <time>2018-01-21T13:09:07.000Z</time>
      </trkpt>
      <trkpt lat="47.54148" lon="-3.10234">
        <time>2018-01-21T13:09:08.000Z</time>
      </trkpt>
      <trkpt lat="47.5414" lon="-3.10233">
        <time>2018-01-21T13:09:09.000Z</time>
      </trkpt>
      <trkpt lat="47.54132" lon="-3.10232">
        <time>2018-01-21T13:09:10.000Z</time>
      </trkpt>
      <trkpt lat="47.54124" lon="-3.10231">
        <time>2018-01-21T13:09:11.000Z</time>
      </trkpt>
      <trkpt lat="47.54116" lon="-3.10231">
        <time>2018-01-21T13:09:12.000Z</time>
      </trkpt>
      <trkpt lat="47.54107" lon="-3.1023">
        <time>2018-01-21T13:09:13.000Z</time>
      </trkpt>
      <trkpt lat="47.54099" lon="-3.10229">
        <time>2018-01-21T13:09:14.000Z</time>
      </trkpt>
      <trkpt lat="47.54091" lon="-3.10228">
        <time>2018-01-21T13:09:15.000Z</time>
      </trkpt>
      <trkpt lat="47.54083" lon="-3.10229">
        <time>2018-01-21T13:09:16.000Z</time>
      </trkpt>
      <trkpt lat="47.54075" lon="-3.10229">
        <time>2018-01-21T13:09:17.000Z</time>
      </trkpt>
      <trkpt lat="47.54067" lon="-3.10229">
        <time>2018-01-21T13:09:18.000Z</time>
      </trkpt>
      <trkpt lat="47.54059" lon="-3.10229">
        <time>2018-01-21T13:09:19.000Z</time>
      </trkpt>
      <trkpt lat="47.54051" lon="-3.10229">
        <time>2018-01-21T13:09:20.000Z</time>
      </trkpt>
      <trkpt lat="47.54043" lon="-3.10228">
        <time>2018-01-21T13:09:21.000Z</time>
      </trkpt>
      <trkpt lat="47.54035" lon="-3.10225">
        <time>2018-01-21T13:09:22.000Z</time>
      </trkpt>
      <trkpt lat="47.54027" lon="-3.10225">
        <time>2018-01-21T13:09:23.000Z</time>
      </trkpt>
      <trkpt lat="47.54019" lon="-3.10224">
        <time>2018-01-21T13:09:24.000Z</time>
      </trkpt>
      <trkpt lat="47.54011" lon="-3.10224">
        <time>2018-01-21T13:09:25.000Z</time>
      </trkpt>
      <trkpt lat="47.54002" lon="-3.10224">
        <time>2018-01-21T13:09:26.000Z</time>
      </trkpt>
      <trkpt lat="47.53994" lon="-3.10222">
        <time>2018-01-21T13:09:27.000Z</time>
      </trkpt>
      <trkpt lat="47.53986" lon="-3.10222">
        <time>2018-01-21T13:09:28.000Z</time>
      </trkpt>
      <trkpt lat="47.53978" lon="-3.1022">
        <time>2018-01-21T13:09:29.000Z</time>
      </trkpt>
      <trkpt lat="47.53969" lon="-3.10219">
        <time>2018-01-21T13:09:30.000Z</time>
      </trkpt>
      <trkpt lat="47.53961" lon="-3.10218">
        <time>2018-01-21T13:09:31.000Z</time>
      </trkpt>
      <trkpt lat="47.53953" lon="-3.10217">
        <time>2018-01-21T13:09:32.000Z</time>
      </trkpt>
      <trkpt lat="47.53945" lon="-3.10214">
        <time>2018-01-21T13:09:33.000Z</time>
      </trkpt>
      <trkpt lat="47.53937" lon="-3.10212">
        <time>2018-01-21T13:09:34.000Z</time>
      </trkpt>
      <trkpt lat="47.5393" lon="-3.1021">
        <time>2018-01-21T13:09:35.000Z</time>
      </trkpt>
      <trkpt lat="47.53921" lon="-3.10208">
        <time>2018-01-21T13:09:36.000Z</time>
      </trkpt>
      <trkpt lat="47.53913" lon="-3.10206">
        <time>2018-01-21T13:09:37.000Z</time>
      </trkpt>
      <trkpt lat="47.53905" lon="-3.10204">
        <time>2018-01-21T13:09:38.000Z</time>
      </trkpt>
      <trkpt lat="47.53897" lon="-3.10203">
        <time>2018-01-21T13:09:39.000Z</time>
      </trkpt>
      <trkpt lat="47.5389" lon="-3.10201">
        <time>2018-01-21T13:09:40.000Z</time>
      </trkpt>
      <trkpt lat="47.53881" lon="-3.10199">
        <time>2018-01-21T13:09:41.000Z</time>
      </trkpt>
      <trkpt lat="47.53873" lon="-3.10196">
        <time>2018-01-21T13:09:42.000Z</time>
      </trkpt>
      <trkpt lat="47.53865" lon="-3.10195">
        <time>2018-01-21T13:09:43.000Z</time>
      </trkpt>
      <trkpt lat="47.53857" lon="-3.10193">
        <time>2018-01-21T13:09:44.000Z</time>
      </trkpt>
      <trkpt lat="47.53849" lon="-3.10189">
        <time>2018-01-21T13:09:45.000Z</time>
      </trkpt>
      <trkpt lat="47.53841" lon="-3.10185">
        <time>2018-01-21T13:09:46.000Z</time>
      </trkpt>
      <trkpt lat="47.53833" lon="-3.1018">
        <time>2018-01-21T13:09:47.000Z</time>
      </trkpt>
      <trkpt lat="47.53825" lon="-3.10175">
        <time>2018-01-21T13:09:48.000Z</time>
      </trkpt>
      <trkpt lat="47.53816" lon="-3.1017">
        <time>2018-01-21T13:09:49.000Z</time>
      </trkpt>
      <trkpt lat="47.53808" lon="-3.10165">
        <time>2018-01-21T13:09:50.000Z</time>
      </trkpt>
      <trkpt lat="47.53799" lon="-3.10161">
        <time>2018-01-21T13:09:51.000Z</time>
      </trkpt>
      <trkpt lat="47.53791" lon="-3.10156">
        <time>2018-01-21T13:09:52.000Z</time>
      </trkpt>
      <trkpt lat="47.53783" lon="-3.1015">
        <time>2018-01-21T13:09:53.000Z</time>
      </trkpt>
      <trkpt lat="47.53775" lon="-3.10144">
        <time>2018-01-21T13:09:54.000Z</time>
      </trkpt>
      <trkpt lat="47.53767" lon="-3.1014">
        <time>2018-01-21T13:09:55.000Z</time>
      </trkpt>
      <trkpt lat="47.53759" lon="-3.10135">
        <time>2018-01-21T13:09:56.000Z</time>
      </trkpt>
      <trkpt lat="47.53751" lon="-3.1013">
        <time>2018-01-21T13:09:57.000Z</time>
      </trkpt>
      <trkpt lat="47.53744" lon="-3.10125">
        <time>2018-01-21T13:09:58.000Z</time>
      </trkpt>
      <trkpt lat="47.53738" lon="-3.10117">
        <time>2018-01-21T13:09:59.000Z</time>
      </trkpt>
      <trkpt lat="47.53733" lon="-3.10109">
        <time>2018-01-21T13:10:00.000Z</time>
      </trkpt>
      <trkpt lat="47.5373" lon="-3.10099">
        <time>2018-01-21T13:10:01.000Z</time>
      </trkpt>
      <trkpt lat="47.53727" lon="-3.10089">
        <time>2018-01-21T13:10:02.000Z</time>
      </trkpt>
      <trkpt lat="47.53727" lon="-3.10079">
        <time>2018-01-21T13:10:03.000Z</time>
      </trkpt>
      <trkpt lat="47.53728" lon="-3.10073">
        <time>2018-01-21T13:10:04.000Z</time>
      </trkpt>
      <trkpt lat="47.5373" lon="-3.10068">
        <time>2018-01-21T13:10:05.000Z</time>
      </trkpt>
      <trkpt lat="47.53731" lon="-3.10064">
        <time>2018-01-21T13:10:06.000Z</time>
      </trkpt>
      <trkpt lat="47.53733" lon="-3.10062">
        <time>2018-01-21T13:10:07.000Z</time>
      </trkpt>
      <trkpt lat="47.53734" lon="-3.10063">
        <time>2018-01-21T13:10:08.000Z</time>
      </trkpt>
      <trkpt lat="47.53736" lon="-3.10064">
        <time>2018-01-21T13:10:09.000Z</time>
      </trkpt>
      <trkpt lat="47.53739" lon="-3.10066">
        <time>2018-01-21T13:10:10.000Z</time>
      </trkpt>
      <trkpt lat="47.53742" lon="-3.10067">
        <time>2018-01-21T13:10:11.000Z</time>
      </trkpt>
      <trkpt lat="47.53744" lon="-3.1007">
        <time>2018-01-21T13:10:12.000Z</time>
      </trkpt>
      <trkpt lat="47.53747" lon="-3.10072">
        <time>2018-01-21T13:10:13.000Z</time>
      </trkpt>
      <trkpt lat="47.5375" lon="-3.10074">
        <time>2018-01-21T13:10:14.000Z</time>
      </trkpt>
      <trkpt lat="47.53753" lon="-3.10076">
        <time>2018-01-21T13:10:15.000Z</time>
      </trkpt>
      <trkpt lat="47.53755" lon="-3.10078">
        <time>2018-01-21T13:10:16.000Z</time>
      </trkpt>
      <trkpt lat="47.53758" lon="-3.1008">
        <time>2018-01-21T13:10:17.000Z</time>
      </trkpt>
      <trkpt lat="47.53761" lon="-3.10081">
        <time>2018-01-21T13:10:18.000Z</time>
      </trkpt>
      <trkpt lat="47.53764" lon="-3.10083">
        <time>2018-01-21T13:10:19.000Z</time>
      </trkpt>
      <trkpt lat="47.53768" lon="-3.10085">
        <time>2018-01-21T13:10:20.000Z</time>
      </trkpt>
      <trkpt lat="47.53772" lon="-3.10086">
        <time>2018-01-21T13:10:21.000Z</time>
      </trkpt>
      <trkpt lat="47.53777" lon="-3.10087">
        <time>2018-01-21T13:10:22.000Z</time>
      </trkpt>
      <trkpt lat="47.53781" lon="-3.10089">
        <time>2018-01-21T13:10:23.000Z</time>
      </trkpt>
      <trkpt lat="47.53787" lon="-3.1009">
        <time>2018-01-21T13:10:24.000Z</time>
      </trkpt>
      <trkpt lat="47.53792" lon="-3.10093">
        <time>2018-01-21T13:10:25.000Z</time>
      </trkpt>
      <trkpt lat="47.53798" lon="-3.10095">
        <time>2018-01-21T13:10:26.000Z</time>
      </trkpt>
      <trkpt lat="47.53805" lon="-3.10098">
        <time>2018-01-21T13:10:27.000Z</time>
      </trkpt>
      <trkpt lat="47.53811" lon="-3.10101">
        <time>2018-01-21T13:10:28.000Z</time>
      </trkpt>
      <trkpt lat="47.53817" lon="-3.10103">
        <time>2018-01-21T13:10:29.000Z</time>
      </trkpt>
      <trkpt lat="47.53825" lon="-3.10105">
        <time>2018-01-21T13:10:30.000Z</time>
      </trkpt>
      <trkpt lat="47.53832" lon="-3.10108">
        <time>2018-01-21T13:10:31.000Z</time>
      </trkpt>
      <trkpt lat="47.53839" lon="-3.1011">
        <time>2018-01-21T13:10:32.000Z</time>
      </trkpt>
      <trkpt lat="47.53846" lon="-3.10111">
        <time>2018-01-21T13:10:33.000Z</time>
      </trkpt>
      <trkpt lat="47.53854" lon="-3.10112">
        <time>2018-01-21T13:10:34.000Z</time>
      </trkpt>
      <trkpt lat="47.53861" lon="-3.10114">
        <time>2018-01-21T13:10:35.000Z</time>
      </trkpt>
      <trkpt lat="47.53869" lon="-3.10115">
        <time>2018-01-21T13:10:36.000Z</time>
      </trkpt>
      <trkpt lat="47.53875" lon="-3.10118">
        <time>2018-01-21T13:10:37.000Z</time>
      </trkpt>
      <trkpt lat="47.53882" lon="-3.10121">
        <time>2018-01-21T13:10:38.000Z</time>
      </trkpt>
      <trkpt lat="47.53889" lon="-3.10123">
        <time>2018-01-21T13:10:39.000Z</time>
      </trkpt>
      <trkpt lat="47.53895" lon="-3.10125">
        <time>2018-01-21T13:10:40.000Z</time>
      </trkpt>
      <trkpt lat="47.53902" lon="-3.10127">
        <time>2018-01-21T13:10:41.000Z</time>
      </trkpt>
      <trkpt lat="47.5391" lon="-3.1013">
        <time>2018-01-21T13:10:42.000Z</time>
      </trkpt>
      <trkpt lat="47.53918" lon="-3.10133">
        <time>2018-01-21T13:10:43.000Z</time>
      </trkpt>
      <trkpt lat="47.53924" lon="-3.10137">
        <time>2018-01-21T13:10:44.000Z</time>
      </trkpt>
      <trkpt lat="47.53931" lon="-3.1014">
        <time>2018-01-21T13:10:45.000Z</time>
      </trkpt>
      <trkpt lat="47.53939" lon="-3.10143">
        <time>2018-01-21T13:10:46.000Z</time>
      </trkpt>
      <trkpt lat="47.53946" lon="-3.10147">
        <time>2018-01-21T13:10:47.000Z</time>
      </trkpt>
      <trkpt lat="47.53953" lon="-3.1015">
        <time>2018-01-21T13:10:48.000Z</time>
      </trkpt>
      <trkpt lat="47.5396" lon="-3.10152">
        <time>2018-01-21T13:10:49.000Z</time>
      </trkpt>
      <trkpt lat="47.53967" lon="-3.10155">
        <time>2018-01-21T13:10:50.000Z</time>
      </trkpt>
      <trkpt lat="47.53974" lon="-3.10157">
        <time>2018-01-21T13:10:51.000Z</time>
      </trkpt>
      <trkpt lat="47.53981" lon="-3.10159">
        <time>2018-01-21T13:10:52.000Z</time>
      </trkpt>
      <trkpt lat="47.53989" lon="-3.10161">
        <time>2018-01-21T13:10:53.000Z</time>
      </trkpt>
      <trkpt lat="47.53997" lon="-3.10162">
        <time>2018-01-21T13:10:54.000Z</time>
      </trkpt>
      <trkpt lat="47.54005" lon="-3.10164">
        <time>2018-01-21T13:10:55.000Z</time>
      </trkpt>
      <trkpt lat="47.54013" lon="-3.10166">
        <time>2018-01-21T13:10:56.000Z</time>
      </trkpt>
      <trkpt lat="47.54021" lon="-3.10168">
        <time>2018-01-21T13:10:57.000Z</time>
      </trkpt>
      <trkpt lat="47.54029" lon="-3.10171">
        <time>2018-01-21T13:10:58.000Z</time>
      </trkpt>
      <trkpt lat="47.54037" lon="-3.10173">
        <time>2018-01-21T13:10:59.000Z</time>
      </trkpt>
      <trkpt lat="47.54045" lon="-3.10175">
        <time>2018-01-21T13:11:00.000Z</time>
      </trkpt>
      <trkpt lat="47.54053" lon="-3.10177">
        <time>2018-01-21T13:11:01.000Z</time>
      </trkpt>
      <trkpt lat="47.5406" lon="-3.1018">
        <time>2018-01-21T13:11:02.000Z</time>
      </trkpt>
      <trkpt lat="47.54068" lon="-3.10183">
        <time>2018-01-21T13:11:03.000Z</time>
      </trkpt>
      <trkpt lat="47.54075" lon="-3.10185">
        <time>2018-01-21T13:11:04.000Z</time>
      </trkpt>
      <trkpt lat="47.54083" lon="-3.10188">
        <time>2018-01-21T13:11:05.000Z</time>
      </trkpt>
      <trkpt lat="47.54091" lon="-3.10191">
        <time>2018-01-21T13:11:06.000Z</time>
      </trkpt>
      <trkpt lat="47.54097" lon="-3.10194">
        <time>2018-01-21T13:11:07.000Z</time>
      </trkpt>
      <trkpt lat="47.54105" lon="-3.10196">
        <time>2018-01-21T13:11:08.000Z</time>
      </trkpt>
      <trkpt lat="47.54112" lon="-3.10198">
        <time>2018-01-21T13:11:09.000Z</time>
      </trkpt>
      <trkpt lat="47.54119" lon="-3.10201">
        <time>2018-01-21T13:11:10.000Z</time>
      </trkpt>
      <trkpt lat="47.54126" lon="-3.10203">
        <time>2018-01-21T13:11:11.000Z</time>
      </trkpt>
      <trkpt lat="47.54134" lon="-3.10205">
        <time>2018-01-21T13:11:12.000Z</time>
      </trkpt>
      <trkpt lat="47.54142" lon="-3.10207">
        <time>2018-01-21T13:11:13.000Z</time>
      </trkpt>
      <trkpt lat="47.5415" lon="-3.10208">
        <time>2018-01-21T13:11:14.000Z</time>
      </trkpt>
      <trkpt lat="47.54158" lon="-3.1021">
        <time>2018-01-21T13:11:15.000Z</time>
      </trkpt>
      <trkpt lat="47.54167" lon="-3.10212">
        <time>2018-01-21T13:11:16.000Z</time>
      </trkpt>
      <trkpt lat="47.54175" lon="-3.10213">
        <time>2018-01-21T13:11:17.000Z</time>
      </trkpt>
      <trkpt lat="47.54183" lon="-3.10215">
        <time>2018-01-21T13:11:18.000Z</time>
      </trkpt>
      <trkpt lat="47.54192" lon="-3.10217">
        <time>2018-01-21T13:11:19.000Z</time>
      </trkpt>
      <trkpt lat="47.54201" lon="-3.10217">
        <time>2018-01-21T13:11:20.000Z</time>
      </trkpt>
      <trkpt lat="47.5421" lon="-3.10217">
        <time>2018-01-21T13:11:21.000Z</time>
      </trkpt>
      <trkpt lat="47.54218" lon="-3.10217">
        <time>2018-01-21T13:11:22.000Z</time>
      </trkpt>
      <trkpt lat="47.54226" lon="-3.10217">
        <time>2018-01-21T13:11:23.000Z</time>
      </trkpt>
      <trkpt lat="47.54235" lon="-3.10218">
        <time>2018-01-21T13:11:24.000Z</time>
      </trkpt>
      <trkpt lat="47.54243" lon="-3.10218">
        <time>2018-01-21T13:11:25.000Z</time>
      </trkpt>
      <trkpt lat="47.54252" lon="-3.10219">
        <time>2018-01-21T13:11:26.000Z</time>
      </trkpt>
      <trkpt lat="47.54261" lon="-3.10219">
        <time>2018-01-21T13:11:27.000Z</time>
      </trkpt>
      <trkpt lat="47.54269" lon="-3.1022">
        <time>2018-01-21T13:11:28.000Z</time>
      </trkpt>
      <trkpt lat="47.54278" lon="-3.1022">
        <time>2018-01-21T13:11:29.000Z</time>
      </trkpt>
      <trkpt lat="47.54287" lon="-3.1022">
        <time>2018-01-21T13:11:30.000Z</time>
      </trkpt>
      <trkpt lat="47.54296" lon="-3.1022">
        <time>2018-01-21T13:11:31.000Z</time>
      </trkpt>
      <trkpt lat="47.54304" lon="-3.10221">
        <time>2018-01-21T13:11:32.000Z</time>
      </trkpt>
      <trkpt lat="47.54313" lon="-3.10222">
        <time>2018-01-21T13:11:33.000Z</time>
      </trkpt>
      <trkpt lat="47.54321" lon="-3.10225">
        <time>2018-01-21T13:11:34.000Z</time>
      </trkpt>
      <trkpt lat="47.54329" lon="-3.10227">
        <time>2018-01-21T13:11:35.000Z</time>
      </trkpt>
      <trkpt lat="47.54337" lon="-3.10231">
        <time>2018-01-21T13:11:36.000Z</time>
      </trkpt>
      <trkpt lat="47.54345" lon="-3.10234">
        <time>2018-01-21T13:11:37.000Z</time>
      </trkpt>
      <trkpt lat="47.54353" lon="-3.10236">
        <time>2018-01-21T13:11:38.000Z</time>
      </trkpt>
      <trkpt lat="47.54361" lon="-3.10238">
        <time>2018-01-21T13:11:39.000Z</time>
      </trkpt>
      <trkpt lat="47.54371" lon="-3.1024">
        <time>2018-01-21T13:11:40.000Z</time>
      </trkpt>
      <trkpt lat="47.54379" lon="-3.10242">
        <time>2018-01-21T13:11:41.000Z</time>
      </trkpt>
      <trkpt lat="47.54387" lon="-3.10244">
        <time>2018-01-21T13:11:42.000Z</time>
      </trkpt>
      <trkpt lat="47.54395" lon="-3.10245">
        <time>2018-01-21T13:11:43.000Z</time>
      </trkpt>
      <trkpt lat="47.54402" lon="-3.10247">
        <time>2018-01-21T13:11:44.000Z</time>
      </trkpt>
      <trkpt lat="47.5441" lon="-3.1025">
        <time>2018-01-21T13:11:45.000Z</time>
      </trkpt>
      <trkpt lat="47.54417" lon="-3.10252">
        <time>2018-01-21T13:11:46.000Z</time>
      </trkpt>
      <trkpt lat="47.54425" lon="-3.10253">
        <time>2018-01-21T13:11:47.000Z</time>
      </trkpt>
      <trkpt lat="47.54434" lon="-3.10252">
        <time>2018-01-21T13:11:48.000Z</time>
      </trkpt>
      <trkpt lat="47.54443" lon="-3.10252">
        <time>2018-01-21T13:11:49.000Z</time>
      </trkpt>
      <trkpt lat="47.54453" lon="-3.10251">
        <time>2018-01-21T13:11:50.000Z</time>
      </trkpt>
      <trkpt lat="47.54463" lon="-3.1025">
        <time>2018-01-21T13:11:51.000Z</time>
      </trkpt>
      <trkpt lat="47.54473" lon="-3.10249">
        <time>2018-01-21T13:11:52.000Z</time>
      </trkpt>
      <trkpt lat="47.54483" lon="-3.10249">
        <time>2018-01-21T13:11:53.000Z</time>
      </trkpt>
      <trkpt lat="47.54494" lon="-3.10249">
        <time>2018-01-21T13:11:54.000Z</time>
      </trkpt>
      <trkpt lat="47.54503" lon="-3.1025">
        <time>2018-01-21T13:11:55.000Z</time>
      </trkpt>
      <trkpt lat="47.54513" lon="-3.10251">
        <time>2018-01-21T13:11:56.000Z</time>
      </trkpt>
      <trkpt lat="47.54523" lon="-3.10252">
        <time>2018-01-21T13:11:57.000Z</time>
      </trkpt>
      <trkpt lat="47.54533" lon="-3.10253">
        <time>2018-01-21T13:11:58.000Z</time>
      </trkpt>
      <trkpt lat="47.54542" lon="-3.10254">
        <time>2018-01-21T13:11:59.000Z</time>
      </trkpt>
      <trkpt lat="47.54551" lon="-3.10255">
        <time>2018-01-21T13:12:00.000Z</time>
      </trkpt>
      <trkpt lat="47.5456" lon="-3.10256">
        <time>2018-01-21T13:12:01.000Z</time>
      </trkpt>
      <trkpt lat="47.54569" lon="-3.10256">
        <time>2018-01-21T13:12:02.000Z</time>
      </trkpt>
      <trkpt lat="47.54579" lon="-3.10259">
        <time>2018-01-21T13:12:03.000Z</time>
      </trkpt>
      <trkpt lat="47.54587" lon="-3.10261">
        <time>2018-01-21T13:12:04.000Z</time>
      </trkpt>
      <trkpt lat="47.54596" lon="-3.10264">
        <time>2018-01-21T13:12:05.000Z</time>
      </trkpt>
      <trkpt lat="47.54603" lon="-3.10265">
        <time>2018-01-21T13:12:06.000Z</time>
      </trkpt>
      <trkpt lat="47.54611" lon="-3.10268">
        <time>2018-01-21T13:12:07.000Z</time>
      </trkpt>
      <trkpt lat="47.5462" lon="-3.10271">
        <time>2018-01-21T13:12:08.000Z</time>
      </trkpt>
      <trkpt lat="47.54628" lon="-3.10273">
        <time>2018-01-21T13:12:09.000Z</time>
      </trkpt>
      <trkpt lat="47.54638" lon="-3.10275">
        <time>2018-01-21T13:12:10.000Z</time>
      </trkpt>
      <trkpt lat="47.54646" lon="-3.10275">
        <time>2018-01-21T13:12:11.000Z</time>
      </trkpt>
      <trkpt lat="47.54654" lon="-3.10276">
        <time>2018-01-21T13:12:12.000Z</time>
      </trkpt>
      <trkpt lat="47.54661" lon="-3.10278">
        <time>2018-01-21T13:12:13.000Z</time>
      </trkpt>
      <trkpt lat="47.5467" lon="-3.10279">
        <time>2018-01-21T13:12:14.000Z</time>
      </trkpt>
      <trkpt lat="47.54678" lon="-3.10282">
        <time>2018-01-21T13:12:15.000Z</time>
      </trkpt>
      <trkpt lat="47.54687" lon="-3.10285">
        <time>2018-01-21T13:12:16.000Z</time>
      </trkpt>
      <trkpt lat="47.54696" lon="-3.10286">
        <time>2018-01-21T13:12:17.000Z</time>
      </trkpt>
      <trkpt lat="47.54705" lon="-3.10286">
        <time>2018-01-21T13:12:18.000Z</time>
      </trkpt>
      <trkpt lat="47.54712" lon="-3.10287">
        <time>2018-01-21T13:12:19.000Z</time>
      </trkpt>
      <trkpt lat="47.54721" lon="-3.10289">
        <time>2018-01-21T13:12:20.000Z</time>
      </trkpt>
      <trkpt lat="47.54729" lon="-3.10289">
        <time>2018-01-21T13:12:21.000Z</time>
      </trkpt>
      <trkpt lat="47.54738" lon="-3.1029">
        <time>2018-01-21T13:12:22.000Z</time>
      </trkpt>
      <trkpt lat="47.54747" lon="-3.10294">
        <time>2018-01-21T13:12:23.000Z</time>
      </trkpt>
      <trkpt lat="47.54756" lon="-3.10295">
        <time>2018-01-21T13:12:24.000Z</time>
      </trkpt>
      <trkpt lat="47.54764" lon="-3.10296">
        <time>2018-01-21T13:12:25.000Z</time>
      </trkpt>
      <trkpt lat="47.54773" lon="-3.10298">
        <time>2018-01-21T13:12:26.000Z</time>
      </trkpt>
      <trkpt lat="47.54782" lon="-3.103">
        <time>2018-01-21T13:12:27.000Z</time>
      </trkpt>
      <trkpt lat="47.5479" lon="-3.10303">
        <time>2018-01-21T13:12:28.000Z</time>
      </trkpt>
      <trkpt lat="47.54799" lon="-3.10306">
        <time>2018-01-21T13:12:29.000Z</time>
      </trkpt>
      <trkpt lat="47.54807" lon="-3.10309">
        <time>2018-01-21T13:12:30.000Z</time>
      </trkpt>
      <trkpt lat="47.54814" lon="-3.10313">
        <time>2018-01-21T13:12:31.000Z</time>
      </trkpt>
      <trkpt lat="47.54823" lon="-3.10316">
        <time>2018-01-21T13:12:32.000Z</time>
      </trkpt>
      <trkpt lat="47.54831" lon="-3.10319">
        <time>2018-01-21T13:12:33.000Z</time>
      </trkpt>
      <trkpt lat="47.54839" lon="-3.10321">
        <time>2018-01-21T13:12:34.000Z</time>
      </trkpt>
      <trkpt lat="47.54847" lon="-3.10324">
        <time>2018-01-21T13:12:35.000Z</time>
      </trkpt>
      <trkpt lat="47.54855" lon="-3.10325">
        <time>2018-01-21T13:12:36.000Z</time>
      </trkpt>
      <trkpt lat="47.54864" lon="-3.10326">
        <time>2018-01-21T13:12:37.000Z</time>
      </trkpt>
      <trkpt lat="47.54873" lon="-3.10326">
        <time>2018-01-21T13:12:38.000Z</time>
      </trkpt>
      <trkpt lat="47.54882" lon="-3.10326">
        <time>2018-01-21T13:12:39.000Z</time>
      </trkpt>
      <trkpt lat="47.54891" lon="-3.10325">
        <time>2018-01-21T13:12:40.000Z</time>
      </trkpt>
      <trkpt lat="47.54901" lon="-3.10325">
        <time>2018-01-21T13:12:41.000Z</time>
      </trkpt>
      <trkpt lat="47.54911" lon="-3.10324">
        <time>2018-01-21T13:12:42.000Z</time>
      </trkpt>
      <trkpt lat="47.54921" lon="-3.10325">
        <time>2018-01-21T13:12:43.000Z</time>
      </trkpt>
      <trkpt lat="47.5493" lon="-3.10324">
        <time>2018-01-21T13:12:44.000Z</time>
      </trkpt>
      <trkpt lat="47.54939" lon="-3.10323">
        <time>2018-01-21T13:12:45.000Z</time>
      </trkpt>
      <trkpt lat="47.54948" lon="-3.10325">
        <time>2018-01-21T13:12:46.000Z</time>
      </trkpt>
      <trkpt lat="47.54957" lon="-3.10327">
        <time>2018-01-21T13:12:47.000Z</time>
      </trkpt>
      <trkpt lat="47.54966" lon="-3.1033">
        <time>2018-01-21T13:12:48.000Z</time>
      </trkpt>
      <trkpt lat="47.54973" lon="-3.10331">
        <time>2018-01-21T13:12:49.000Z</time>
      </trkpt>
      <trkpt lat="47.54982" lon="-3.10333">
        <time>2018-01-21T13:12:50.000Z</time>
      </trkpt>
      <trkpt lat="47.5499" lon="-3.10335">
        <time>2018-01-21T13:12:51.000Z</time>
      </trkpt>
      <trkpt lat="47.54999" lon="-3.10336">
        <time>2018-01-21T13:12:52.000Z</time>
      </trkpt>
      <trkpt lat="47.5501" lon="-3.10337">
        <time>2018-01-21T13:12:53.000Z</time>
      </trkpt>
      <trkpt lat="47.55019" lon="-3.10338">
        <time>2018-01-21T13:12:54.000Z</time>
      </trkpt>
      <trkpt lat="47.55029" lon="-3.10339">
        <time>2018-01-21T13:12:55.000Z</time>
      </trkpt>
      <trkpt lat="47.55038" lon="-3.1034">
        <time>2018-01-21T13:12:56.000Z</time>
      </trkpt>
      <trkpt lat="47.55046" lon="-3.10342">
        <time>2018-01-21T13:12:57.000Z</time>
      </trkpt>
      <trkpt lat="47.55054" lon="-3.10343">
        <time>2018-01-21T13:12:58.000Z</time>
      </trkpt>
      <trkpt lat="47.55063" lon="-3.10345">
        <time>2018-01-21T13:12:59.000Z</time>
      </trkpt>
      <trkpt lat="47.55073" lon="-3.10345">
        <time>2018-01-21T13:13:00.000Z</time>
      </trkpt>
      <trkpt lat="47.55083" lon="-3.10345">
        <time>2018-01-21T13:13:01.000Z</time>
      </trkpt>
      <trkpt lat="47.55092" lon="-3.10345">
        <time>2018-01-21T13:13:02.000Z</time>
      </trkpt>
      <trkpt lat="47.55102" lon="-3.10347">
        <time>2018-01-21T13:13:03.000Z</time>
      </trkpt>
      <trkpt lat="47.55111" lon="-3.10349">
        <time>2018-01-21T13:13:04.000Z</time>
      </trkpt>
      <trkpt lat="47.5512" lon="-3.10351">
        <time>2018-01-21T13:13:05.000Z</time>
      </trkpt>
      <trkpt lat="47.5513" lon="-3.10352">
        <time>2018-01-21T13:13:06.000Z</time>
      </trkpt>
      <trkpt lat="47.55139" lon="-3.10353">
        <time>2018-01-21T13:13:07.000Z</time>
      </trkpt>
      <trkpt lat="47.55147" lon="-3.10354">
        <time>2018-01-21T13:13:08.000Z</time>
      </trkpt>
      <trkpt lat="47.55156" lon="-3.10356">
        <time>2018-01-21T13:13:09.000Z</time>
      </trkpt>
      <trkpt lat="47.55165" lon="-3.10358">
        <time>2018-01-21T13:13:10.000Z</time>
      </trkpt>
      <trkpt lat="47.55173" lon="-3.10359">
        <time>2018-01-21T13:13:11.000Z</time>
      </trkpt>
      <trkpt lat="47.55182" lon="-3.1036">
        <time>2018-01-21T13:13:12.000Z</time>
      </trkpt>
      <trkpt lat="47.55191" lon="-3.1036">
        <time>2018-01-21T13:13:13.000Z</time>
      </trkpt>
      <trkpt lat="47.55199" lon="-3.10361">
        <time>2018-01-21T13:13:14.000Z</time>
      </trkpt>
      <trkpt lat="47.55207" lon="-3.10363">
        <time>2018-01-21T13:13:15.000Z</time>
      </trkpt>
      <trkpt lat="47.55214" lon="-3.10365">
        <time>2018-01-21T13:13:16.000Z</time>
      </trkpt>
      <trkpt lat="47.55221" lon="-3.10367">
        <time>2018-01-21T13:13:17.000Z</time>
      </trkpt>
      <trkpt lat="47.55229" lon="-3.10369">
        <time>2018-01-21T13:13:18.000Z</time>
      </trkpt>
      <trkpt lat="47.55237" lon="-3.10371">
        <time>2018-01-21T13:13:19.000Z</time>
      </trkpt>
      <trkpt lat="47.55244" lon="-3.10373">
        <time>2018-01-21T13:13:20.000Z</time>
      </trkpt>
      <trkpt lat="47.55252" lon="-3.10375">
        <time>2018-01-21T13:13:21.000Z</time>
      </trkpt>
      <trkpt lat="47.55259" lon="-3.10377">
        <time>2018-01-21T13:13:22.000Z</time>
      </trkpt>
      <trkpt lat="47.55266" lon="-3.1038">
        <time>2018-01-21T13:13:23.000Z</time>
      </trkpt>
      <trkpt lat="47.55274" lon="-3.10382">
        <time>2018-01-21T13:13:24.000Z</time>
      </trkpt>
      <trkpt lat="47.55282" lon="-3.10384">
        <time>2018-01-21T13:13:25.000Z</time>
      </trkpt>
      <trkpt lat="47.5529" lon="-3.10387">
        <time>2018-01-21T13:13:26.000Z</time>
      </trkpt>
      <trkpt lat="47.553" lon="-3.10387">
        <time>2018-01-21T13:13:27.000Z</time>
      </trkpt>
      <trkpt lat="47.55311" lon="-3.10385">
        <time>2018-01-21T13:13:28.000Z</time>
      </trkpt>
      <trkpt lat="47.55323" lon="-3.10385">
        <time>2018-01-21T13:13:29.000Z</time>
      </trkpt>
      <trkpt lat="47.55335" lon="-3.1038">
        <time>2018-01-21T13:13:30.000Z</time>
      </trkpt>
      <trkpt lat="47.55347" lon="-3.10383">
        <time>2018-01-21T13:13:31.000Z</time>
      </trkpt>
      <trkpt lat="47.55358" lon="-3.10381">
        <time>2018-01-21T13:13:32.000Z</time>
      </trkpt>
      <trkpt lat="47.55368" lon="-3.10381">
        <time>2018-01-21T13:13:33.000Z</time>
      </trkpt>
      <trkpt lat="47.55376" lon="-3.10383">
        <time>2018-01-21T13:13:34.000Z</time>
      </trkpt>
      <trkpt lat="47.55385" lon="-3.10385">
        <time>2018-01-21T13:13:35.000Z</time>
      </trkpt>
      <trkpt lat="47.55393" lon="-3.10387">
        <time>2018-01-21T13:13:36.000Z</time>
      </trkpt>
      <trkpt lat="47.55402" lon="-3.10389">
        <time>2018-01-21T13:13:37.000Z</time>
      </trkpt>
      <trkpt lat="47.55409" lon="-3.10391">
        <time>2018-01-21T13:13:38.000Z</time>
      </trkpt>
      <trkpt lat="47.55417" lon="-3.10394">
        <time>2018-01-21T13:13:39.000Z</time>
      </trkpt>
      <trkpt lat="47.55424" lon="-3.10397">
        <time>2018-01-21T13:13:40.000Z</time>
      </trkpt>
      <trkpt lat="47.5543" lon="-3.104">
        <time>2018-01-21T13:13:41.000Z</time>
      </trkpt>
      <trkpt lat="47.55437" lon="-3.10402">
        <time>2018-01-21T13:13:42.000Z</time>
      </trkpt>
      <trkpt lat="47.55445" lon="-3.10403">
        <time>2018-01-21T13:13:43.000Z</time>
      </trkpt>
      <trkpt lat="47.55452" lon="-3.10404">
        <time>2018-01-21T13:13:44.000Z</time>
      </trkpt>
      <trkpt lat="47.55459" lon="-3.10405">
        <time>2018-01-21T13:13:45.000Z</time>
      </trkpt>
      <trkpt lat="47.55466" lon="-3.10406">
        <time>2018-01-21T13:13:46.000Z</time>
      </trkpt>
      <trkpt lat="47.55473" lon="-3.10409">
        <time>2018-01-21T13:13:47.000Z</time>
      </trkpt>
      <trkpt lat="47.5548" lon="-3.10411">
        <time>2018-01-21T13:13:48.000Z</time>
      </trkpt>
      <trkpt lat="47.55488" lon="-3.10411">
        <time>2018-01-21T13:13:49.000Z</time>
      </trkpt>
      <trkpt lat="47.55496" lon="-3.10412">
        <time>2018-01-21T13:13:50.000Z</time>
      </trkpt>
      <trkpt lat="47.55503" lon="-3.10413">
        <time>2018-01-21T13:13:51.000Z</time>
      </trkpt>
      <trkpt lat="47.55511" lon="-3.10415">
        <time>2018-01-21T13:13:52.000Z</time>
      </trkpt>
      <trkpt lat="47.55519" lon="-3.10417">
        <time>2018-01-21T13:13:53.000Z</time>
      </trkpt>
      <trkpt lat="47.55527" lon="-3.10419">
        <time>2018-01-21T13:13:54.000Z</time>
      </trkpt>
      <trkpt lat="47.55535" lon="-3.1042">
        <time>2018-01-21T13:13:55.000Z</time>
      </trkpt>
      <trkpt lat="47.55543" lon="-3.10422">
        <time>2018-01-21T13:13:56.000Z</time>
      </trkpt>
      <trkpt lat="47.55551" lon="-3.10424">
        <time>2018-01-21T13:13:57.000Z</time>
      </trkpt>
      <trkpt lat="47.55559" lon="-3.10427">
        <time>2018-01-21T13:13:58.000Z</time>
      </trkpt>
      <trkpt lat="47.55567" lon="-3.10429">
        <time>2018-01-21T13:13:59.000Z</time>
      </trkpt>
      <trkpt lat="47.55575" lon="-3.1043">
        <time>2018-01-21T13:14:00.000Z</time>
      </trkpt>
      <trkpt lat="47.55583" lon="-3.10432">
        <time>2018-01-21T13:14:01.000Z</time>
      </trkpt>
      <trkpt lat="47.55591" lon="-3.10435">
        <time>2018-01-21T13:14:02.000Z</time>
      </trkpt>
      <trkpt lat="47.556" lon="-3.10437">
        <time>2018-01-21T13:14:03.000Z</time>
      </trkpt>
      <trkpt lat="47.55609" lon="-3.10439">
        <time>2018-01-21T13:14:04.000Z</time>
      </trkpt>
      <trkpt lat="47.55618" lon="-3.10441">
        <time>2018-01-21T13:14:05.000Z</time>
      </trkpt>
      <trkpt lat="47.55626" lon="-3.10444">
        <time>2018-01-21T13:14:06.000Z</time>
      </trkpt>
      <trkpt lat="47.55634" lon="-3.10447">
        <time>2018-01-21T13:14:07.000Z</time>
      </trkpt>
      <trkpt lat="47.55642" lon="-3.10449">
        <time>2018-01-21T13:14:08.000Z</time>
      </trkpt>
      <trkpt lat="47.55651" lon="-3.10451">
        <time>2018-01-21T13:14:09.000Z</time>
      </trkpt>
      <trkpt lat="47.55659" lon="-3.10453">
        <time>2018-01-21T13:14:10.000Z</time>
      </trkpt>
      <trkpt lat="47.55666" lon="-3.10456">
        <time>2018-01-21T13:14:11.000Z</time>
      </trkpt>
      <trkpt lat="47.55674" lon="-3.10459">
        <time>2018-01-21T13:14:12.000Z</time>
      </trkpt>
      <trkpt lat="47.55682" lon="-3.10462">
        <time>2018-01-21T13:14:13.000Z</time>
      </trkpt>
      <trkpt lat="47.5569" lon="-3.10463">
        <time>2018-01-21T13:14:14.000Z</time>
      </trkpt>
      <trkpt lat="47.55698" lon="-3.10463">
        <time>2018-01-21T13:14:15.000Z</time>
      </trkpt>
      <trkpt lat="47.55707" lon="-3.10463">
        <time>2018-01-21T13:14:16.000Z</time>
      </trkpt>
      <trkpt lat="47.55716" lon="-3.10462">
        <time>2018-01-21T13:14:17.000Z</time>
      </trkpt>
      <trkpt lat="47.55725" lon="-3.10462">
        <time>2018-01-21T13:14:18.000Z</time>
      </trkpt>
      <trkpt lat="47.55735" lon="-3.10462">
        <time>2018-01-21T13:14:19.000Z</time>
      </trkpt>
      <trkpt lat="47.55744" lon="-3.10461">
        <time>2018-01-21T13:14:20.000Z</time>
      </trkpt>
      <trkpt lat="47.55753" lon="-3.10461">
        <time>2018-01-21T13:14:21.000Z</time>
      </trkpt>
      <trkpt lat="47.55762" lon="-3.10461">
        <time>2018-01-21T13:14:22.000Z</time>
      </trkpt>
      <trkpt lat="47.5577" lon="-3.10461">
        <time>2018-01-21T13:14:23.000Z</time>
      </trkpt>
      <trkpt lat="47.55779" lon="-3.10463">
        <time>2018-01-21T13:14:24.000Z</time>
      </trkpt>
      <trkpt lat="47.55787" lon="-3.10465">
        <time>2018-01-21T13:14:25.000Z</time>
      </trkpt>
      <trkpt lat="47.55795" lon="-3.10466">
        <time>2018-01-21T13:14:26.000Z</time>
      </trkpt>
      <trkpt lat="47.55803" lon="-3.10467">
        <time>2018-01-21T13:14:27.000Z</time>
      </trkpt>
      <trkpt lat="47.55811" lon="-3.10468">
        <time>2018-01-21T13:14:28.000Z</time>
      </trkpt>
      <trkpt lat="47.5582" lon="-3.10468">
        <time>2018-01-21T13:14:29.000Z</time>
      </trkpt>
      <trkpt lat="47.55829" lon="-3.10469">
        <time>2018-01-21T13:14:30.000Z</time>
      </trkpt>
      <trkpt lat="47.55838" lon="-3.10469">
        <time>2018-01-21T13:14:31.000Z</time>
      </trkpt>
      <trkpt lat="47.55848" lon="-3.10471">
        <time>2018-01-21T13:14:32.000Z</time>
      </trkpt>
      <trkpt lat="47.55857" lon="-3.10472">
        <time>2018-01-21T13:14:33.000Z</time>
      </trkpt>
      <trkpt lat="47.55867" lon="-3.10472">
        <time>2018-01-21T13:14:34.000Z</time>
      </trkpt>
      <trkpt lat="47.55876" lon="-3.10473">
        <time>2018-01-21T13:14:35.000Z</time>
      </trkpt>
      <trkpt lat="47.55885" lon="-3.10474">
        <time>2018-01-21T13:14:36.000Z</time>
      </trkpt>
      <trkpt lat="47.55895" lon="-3.10476">
        <time>2018-01-21T13:14:37.000Z</time>
      </trkpt>
      <trkpt lat="47.55904" lon="-3.10477">
        <time>2018-01-21T13:14:38.000Z</time>
      </trkpt>
      <trkpt lat="47.55913" lon="-3.10478">
        <time>2018-01-21T13:14:39.000Z</time>
      </trkpt>
      <trkpt lat="47.55922" lon="-3.10482">
        <time>2018-01-21T13:14:40.000Z</time>
      </trkpt>
      <trkpt lat="47.5593" lon="-3.10484">
        <time>2018-01-21T13:14:41.000Z</time>
      </trkpt>
      <trkpt lat="47.55939" lon="-3.10486">
        <time>2018-01-21T13:14:42.000Z</time>
      </trkpt>
      <trkpt lat="47.55947" lon="-3.10487">
        <time>2018-01-21T13:14:43.000Z</time>
      </trkpt>
      <trkpt lat="47.55955" lon="-3.10488">
        <time>2018-01-21T13:14:44.000Z</time>
      </trkpt>
      <trkpt lat="47.55963" lon="-3.1049">
        <time>2018-01-21T13:14:45.000Z</time>
      </trkpt>
      <trkpt lat="47.55971" lon="-3.10492">
        <time>2018-01-21T13:14:46.000Z</time>
      </trkpt>
      <trkpt lat="47.55979" lon="-3.10494">
        <time>2018-01-21T13:14:47.000Z</time>
      </trkpt>
      <trkpt lat="47.55986" lon="-3.10495">
        <time>2018-01-21T13:14:48.000Z</time>
      </trkpt>
      <trkpt lat="47.55994" lon="-3.10496">
        <time>2018-01-21T13:14:49.000Z</time>
      </trkpt>
      <trkpt lat="47.56002" lon="-3.10497">
        <time>2018-01-21T13:14:50.000Z</time>
      </trkpt>
      <trkpt lat="47.5601" lon="-3.10499">
        <time>2018-01-21T13:14:51.000Z</time>
      </trkpt>
      <trkpt lat="47.56017" lon="-3.105">
        <time>2018-01-21T13:14:52.000Z</time>
      </trkpt>
      <trkpt lat="47.56026" lon="-3.10501">
        <time>2018-01-21T13:14:53.000Z</time>
      </trkpt>
      <trkpt lat="47.56034" lon="-3.10503">
        <time>2018-01-21T13:14:54.000Z</time>
      </trkpt>
      <trkpt lat="47.56042" lon="-3.10504">
        <time>2018-01-21T13:14:55.000Z</time>
      </trkpt>
      <trkpt lat="47.5605" lon="-3.10506">
        <time>2018-01-21T13:14:56.000Z</time>
      </trkpt>
      <trkpt lat="47.56058" lon="-3.10508">
        <time>2018-01-21T13:14:57.000Z</time>
      </trkpt>
      <trkpt lat="47.56066" lon="-3.10509">
        <time>2018-01-21T13:14:58.000Z</time>
      </trkpt>
      <trkpt lat="47.56074" lon="-3.10511">
        <time>2018-01-21T13:14:59.000Z</time>
      </trkpt>
      <trkpt lat="47.56083" lon="-3.10513">
        <time>2018-01-21T13:15:00.000Z</time>
      </trkpt>
      <trkpt lat="47.56091" lon="-3.10514">
        <time>2018-01-21T13:15:01.000Z</time>
      </trkpt>
      <trkpt lat="47.561" lon="-3.10514">
        <time>2018-01-21T13:15:02.000Z</time>
      </trkpt>
      <trkpt lat="47.56108" lon="-3.10515">
        <time>2018-01-21T13:15:03.000Z</time>
      </trkpt>
      <trkpt lat="47.56116" lon="-3.10516">
        <time>2018-01-21T13:15:04.000Z</time>
      </trkpt>
      <trkpt lat="47.56124" lon="-3.10517">
        <time>2018-01-21T13:15:05.000Z</time>
      </trkpt>
      <trkpt lat="47.56133" lon="-3.1052">
        <time>2018-01-21T13:15:06.000Z</time>
      </trkpt>
      <trkpt lat="47.56141" lon="-3.10522">
        <time>2018-01-21T13:15:07.000Z</time>
      </trkpt>
      <trkpt lat="47.5615" lon="-3.10522">
        <time>2018-01-21T13:15:08.000Z</time>
      </trkpt>
      <trkpt lat="47.56158" lon="-3.10523">
        <time>2018-01-21T13:15:09.000Z</time>
      </trkpt>
      <trkpt lat="47.56167" lon="-3.10523">
        <time>2018-01-21T13:15:10.000Z</time>
      </trkpt>
      <trkpt lat="47.56175" lon="-3.10523">
        <time>2018-01-21T13:15:11.000Z</time>
      </trkpt>
      <trkpt lat="47.56183" lon="-3.10524">
        <time>2018-01-21T13:15:12.000Z</time>
      </trkpt>
      <trkpt lat="47.56191" lon="-3.10525">
        <time>2018-01-21T13:15:13.000Z</time>
      </trkpt>
      <trkpt lat="47.56199" lon="-3.10525">
        <time>2018-01-21T13:15:14.000Z</time>
      </trkpt>
      <trkpt lat="47.56207" lon="-3.10526">
        <time>2018-01-21T13:15:15.000Z</time>
      </trkpt>
      <trkpt lat="47.56216" lon="-3.10527">
        <time>2018-01-21T13:15:16.000Z</time>
      </trkpt>
      <trkpt lat="47.56225" lon="-3.10528">
        <time>2018-01-21T13:15:17.000Z</time>
      </trkpt>
      <trkpt lat="47.56232" lon="-3.10531">
        <time>2018-01-21T13:15:18.000Z</time>
      </trkpt>
      <trkpt lat="47.56239" lon="-3.10534">
        <time>2018-01-21T13:15:19.000Z</time>
      </trkpt>
      <trkpt lat="47.56246" lon="-3.10537">
        <time>2018-01-21T13:15:20.000Z</time>
      </trkpt>
      <trkpt lat="47.56253" lon="-3.10538">
        <time>2018-01-21T13:15:21.000Z</time>
      </trkpt>
      <trkpt lat="47.56259" lon="-3.10541">
        <time>2018-01-21T13:15:22.000Z</time>
      </trkpt>
      <trkpt lat="47.56265" lon="-3.10544">
        <time>2018-01-21T13:15:23.000Z</time>
      </trkpt>
      <trkpt lat="47.56272" lon="-3.10547">
        <time>2018-01-21T13:15:24.000Z</time>
      </trkpt>
      <trkpt lat="47.56279" lon="-3.1055">
        <time>2018-01-21T13:15:25.000Z</time>
      </trkpt>
      <trkpt lat="47.56286" lon="-3.10551">
        <time>2018-01-21T13:15:26.000Z</time>
      </trkpt>
      <trkpt lat="47.56293" lon="-3.10554">
        <time>2018-01-21T13:15:27.000Z</time>
      </trkpt>
      <trkpt lat="47.56301" lon="-3.10555">
        <time>2018-01-21T13:15:28.000Z</time>
      </trkpt>
      <trkpt lat="47.56309" lon="-3.10558">
        <time>2018-01-21T13:15:29.000Z</time>
      </trkpt>
      <trkpt lat="47.56315" lon="-3.1056">
        <time>2018-01-21T13:15:30.000Z</time>
      </trkpt>
      <trkpt lat="47.56322" lon="-3.10563">
        <time>2018-01-21T13:15:31.000Z</time>
      </trkpt>
      <trkpt lat="47.56329" lon="-3.10565">
        <time>2018-01-21T13:15:32.000Z</time>
      </trkpt>
      <trkpt lat="47.56336" lon="-3.10566">
        <time>2018-01-21T13:15:33.000Z</time>
      </trkpt>
      <trkpt lat="47.56344" lon="-3.10568">
        <time>2018-01-21T13:15:34.000Z</time>
      </trkpt>
      <trkpt lat="47.56351" lon="-3.10569">
        <time>2018-01-21T13:15:35.000Z</time>
      </trkpt>
      <trkpt lat="47.5636" lon="-3.10572">
        <time>2018-01-21T13:15:36.000Z</time>
      </trkpt>
      <trkpt lat="47.56368" lon="-3.10572">
        <time>2018-01-21T13:15:37.000Z</time>
      </trkpt>
      <trkpt lat="47.56376" lon="-3.10571">
        <time>2018-01-21T13:15:38.000Z</time>
      </trkpt>
      <trkpt lat="47.56385" lon="-3.10568">
        <time>2018-01-21T13:15:39.000Z</time>
      </trkpt>
      <trkpt lat="47.56393" lon="-3.10566">
        <time>2018-01-21T13:15:40.000Z</time>
      </trkpt>
      <trkpt lat="47.56402" lon="-3.10565">
        <time>2018-01-21T13:15:41.000Z</time>
      </trkpt>
      <trkpt lat="47.56411" lon="-3.10563">
        <time>2018-01-21T13:15:42.000Z</time>
      </trkpt>
      <trkpt lat="47.56419" lon="-3.10562">
        <time>2018-01-21T13:15:43.000Z</time>
      </trkpt>
      <trkpt lat="47.56427" lon="-3.10562">
        <time>2018-01-21T13:15:44.000Z</time>
      </trkpt>
      <trkpt lat="47.56434" lon="-3.10561">
        <time>2018-01-21T13:15:45.000Z</time>
      </trkpt>
      <trkpt lat="47.56442" lon="-3.1056">
        <time>2018-01-21T13:15:46.000Z</time>
      </trkpt>
      <trkpt lat="47.5645" lon="-3.10558">
        <time>2018-01-21T13:15:47.000Z</time>
      </trkpt>
      <trkpt lat="47.56458" lon="-3.10557">
        <time>2018-01-21T13:15:48.000Z</time>
      </trkpt>
      <trkpt lat="47.56466" lon="-3.10556">
        <time>2018-01-21T13:15:49.000Z</time>
      </trkpt>
      <trkpt lat="47.56474" lon="-3.10556">
        <time>2018-01-21T13:15:50.000Z</time>
      </trkpt>
      <trkpt lat="47.56481" lon="-3.10555">
        <time>2018-01-21T13:15:51.000Z</time>
      </trkpt>
      <trkpt lat="47.56489" lon="-3.10556">
        <time>2018-01-21T13:15:52.000Z</time>
      </trkpt>
      <trkpt lat="47.56497" lon="-3.10555">
        <time>2018-01-21T13:15:53.000Z</time>
      </trkpt>
      <trkpt lat="47.56504" lon="-3.10555">
        <time>2018-01-21T13:15:54.000Z</time>
      </trkpt>
      <trkpt lat="47.56511" lon="-3.10557">
        <time>2018-01-21T13:15:55.000Z</time>
      </trkpt>
      <trkpt lat="47.56518" lon="-3.10558">
        <time>2018-01-21T13:15:56.000Z</time>
      </trkpt>
      <trkpt lat="47.56524" lon="-3.10555">
        <time>2018-01-21T13:15:57.000Z</time>
      </trkpt>
      <trkpt lat="47.56529" lon="-3.10551">
        <time>2018-01-21T13:15:58.000Z</time>
      </trkpt>
      <trkpt lat="47.56534" lon="-3.10545">
        <time>2018-01-21T13:15:59.000Z</time>
      </trkpt>
      <trkpt lat="47.56536" lon="-3.1054">
        <time>2018-01-21T13:16:00.000Z</time>
      </trkpt>
      <trkpt lat="47.56537" lon="-3.10534">
        <time>2018-01-21T13:16:01.000Z</time>
      </trkpt>
      <trkpt lat="47.56536" lon="-3.10531">
        <time>2018-01-21T13:16:02.000Z</time>
      </trkpt>
      <trkpt lat="47.56536" lon="-3.10527">
        <time>2018-01-21T13:16:03.000Z</time>
      </trkpt>
      <trkpt lat="47.56536" lon="-3.10526">
        <time>2018-01-21T13:16:04.000Z</time>
      </trkpt>
      <trkpt lat="47.56535" lon="-3.10527">
        <time>2018-01-21T13:16:05.000Z</time>
      </trkpt>
      <trkpt lat="47.56533" lon="-3.10527">
        <time>2018-01-21T13:16:06.000Z</time>
      </trkpt>
      <trkpt lat="47.56531" lon="-3.10527">
        <time>2018-01-21T13:16:07.000Z</time>
      </trkpt>
      <trkpt lat="47.5653" lon="-3.10527">
        <time>2018-01-21T13:16:08.000Z</time>
      </trkpt>
      <trkpt lat="47.56527" lon="-3.10527">
        <time>2018-01-21T13:16:09.000Z</time>
      </trkpt>
      <trkpt lat="47.56525" lon="-3.10527">
        <time>2018-01-21T13:16:10.000Z</time>
      </trkpt>
      <trkpt lat="47.56522" lon="-3.10527">
        <time>2018-01-21T13:16:11.000Z</time>
      </trkpt>
      <trkpt lat="47.56518" lon="-3.10528">
        <time>2018-01-21T13:16:12.000Z</time>
      </trkpt>
      <trkpt lat="47.56513" lon="-3.10528">
        <time>2018-01-21T13:16:13.000Z</time>
      </trkpt>
      <trkpt lat="47.56509" lon="-3.10528">
        <time>2018-01-21T13:16:14.000Z</time>
      </trkpt>
      <trkpt lat="47.56504" lon="-3.10528">
        <time>2018-01-21T13:16:15.000Z</time>
      </trkpt>
      <trkpt lat="47.56499" lon="-3.10527">
        <time>2018-01-21T13:16:16.000Z</time>
      </trkpt>
      <trkpt lat="47.56494" lon="-3.10525">
        <time>2018-01-21T13:16:17.000Z</time>
      </trkpt>
      <trkpt lat="47.56489" lon="-3.10524">
        <time>2018-01-21T13:16:18.000Z</time>
      </trkpt>
      <trkpt lat="47.56483" lon="-3.10522">
        <time>2018-01-21T13:16:19.000Z</time>
      </trkpt>
      <trkpt lat="47.56476" lon="-3.1052">
        <time>2018-01-21T13:16:20.000Z</time>
      </trkpt>
      <trkpt lat="47.56469" lon="-3.10518">
        <time>2018-01-21T13:16:21.000Z</time>
      </trkpt>
      <trkpt lat="47.56463" lon="-3.10516">
        <time>2018-01-21T13:16:22.000Z</time>
      </trkpt>
      <trkpt lat="47.56455" lon="-3.10515">
        <time>2018-01-21T13:16:23.000Z</time>
      </trkpt>
      <trkpt lat="47.56448" lon="-3.10513">
        <time>2018-01-21T13:16:24.000Z</time>
      </trkpt>
      <trkpt lat="47.56442" lon="-3.10511">
        <time>2018-01-21T13:16:25.000Z</time>
      </trkpt>
      <trkpt lat="47.56435" lon="-3.10508">
        <time>2018-01-21T13:16:26.000Z</time>
      </trkpt>
      <trkpt lat="47.56427" lon="-3.10507">
        <time>2018-01-21T13:16:27.000Z</time>
      </trkpt>
      <trkpt lat="47.5642" lon="-3.10505">
        <time>2018-01-21T13:16:28.000Z</time>
      </trkpt>
      <trkpt lat="47.56413" lon="-3.10504">
        <time>2018-01-21T13:16:29.000Z</time>
      </trkpt>
      <trkpt lat="47.56406" lon="-3.10501">
        <time>2018-01-21T13:16:30.000Z</time>
      </trkpt>
      <trkpt lat="47.56399" lon="-3.10499">
        <time>2018-01-21T13:16:31.000Z</time>
      </trkpt>
      <trkpt lat="47.56392" lon="-3.10497">
        <time>2018-01-21T13:16:32.000Z</time>
      </trkpt>
      <trkpt lat="47.56386" lon="-3.10496">
        <time>2018-01-21T13:16:33.000Z</time>
      </trkpt>
      <trkpt lat="47.56379" lon="-3.10495">
        <time>2018-01-21T13:16:34.000Z</time>
      </trkpt>
      <trkpt lat="47.56372" lon="-3.10495">
        <time>2018-01-21T13:16:35.000Z</time>
      </trkpt>
      <trkpt lat="47.56364" lon="-3.10494">
        <time>2018-01-21T13:16:36.000Z</time>
      </trkpt>
      <trkpt lat="47.56357" lon="-3.10493">
        <time>2018-01-21T13:16:37.000Z</time>
      </trkpt>
      <trkpt lat="47.56349" lon="-3.10492">
        <time>2018-01-21T13:16:38.000Z</time>
      </trkpt>
      <trkpt lat="47.56342" lon="-3.10491">
        <time>2018-01-21T13:16:39.000Z</time>
      </trkpt>
      <trkpt lat="47.56335" lon="-3.10491">
        <time>2018-01-21T13:16:40.000Z</time>
      </trkpt>
      <trkpt lat="47.56328" lon="-3.10491">
        <time>2018-01-21T13:16:41.000Z</time>
      </trkpt>
      <trkpt lat="47.56321" lon="-3.10491">
        <time>2018-01-21T13:16:42.000Z</time>
      </trkpt>
      <trkpt lat="47.56314" lon="-3.1049">
        <time>2018-01-21T13:16:43.000Z</time>
      </trkpt>
      <trkpt lat="47.56307" lon="-3.10489">
        <time>2018-01-21T13:16:44.000Z</time>
      </trkpt>
      <trkpt lat="47.56299" lon="-3.10488">
        <time>2018-01-21T13:16:45.000Z</time>
      </trkpt>
      <trkpt lat="47.56292" lon="-3.10487">
        <time>2018-01-21T13:16:46.000Z</time>
      </trkpt>
      <trkpt lat="47.56285" lon="-3.10486">
        <time>2018-01-21T13:16:47.000Z</time>
      </trkpt>
      <trkpt lat="47.56277" lon="-3.10484">
        <time>2018-01-21T13:16:48.000Z</time>
      </trkpt>
      <trkpt lat="47.5627" lon="-3.10482">
        <time>2018-01-21T13:16:49.000Z</time>
      </trkpt>
      <trkpt lat="47.56262" lon="-3.10481">
        <time>2018-01-21T13:16:50.000Z</time>
      </trkpt>
      <trkpt lat="47.56255" lon="-3.10479">
        <time>2018-01-21T13:16:51.000Z</time>
      </trkpt>
      <trkpt lat="47.56247" lon="-3.10478">
        <time>2018-01-21T13:16:52.000Z</time>
      </trkpt>
      <trkpt lat="47.56239" lon="-3.10477">
        <time>2018-01-21T13:16:53.000Z</time>
      </trkpt>
      <trkpt lat="47.56232" lon="-3.10475">
        <time>2018-01-21T13:16:54.000Z</time>
      </trkpt>
      <trkpt lat="47.56224" lon="-3.10474">
        <time>2018-01-21T13:16:55.000Z</time>
      </trkpt>
      <trkpt lat="47.56216" lon="-3.10471">
        <time>2018-01-21T13:16:56.000Z</time>
      </trkpt>
      <trkpt lat="47.56208" lon="-3.10469">
        <time>2018-01-21T13:16:57.000Z</time>
      </trkpt>
      <trkpt lat="47.56199" lon="-3.10468">
        <time>2018-01-21T13:16:58.000Z</time>
      </trkpt>
      <trkpt lat="47.56191" lon="-3.10467">
        <time>2018-01-21T13:16:59.000Z</time>
      </trkpt>
      <trkpt lat="47.56182" lon="-3.10467">
        <time>2018-01-21T13:17:00.000Z</time>
      </trkpt>
      <trkpt lat="47.56174" lon="-3.10466">
        <time>2018-01-21T13:17:01.000Z</time>
      </trkpt>
      <trkpt lat="47.56165" lon="-3.10465">
        <time>2018-01-21T13:17:02.000Z</time>
      </trkpt>
      <trkpt lat="47.56157" lon="-3.10464">
        <time>2018-01-21T13:17:03.000Z</time>
      </trkpt>
      <trkpt lat="47.56148" lon="-3.10464">
        <time>2018-01-21T13:17:04.000Z</time>
      </trkpt>
      <trkpt lat="47.5614" lon="-3.10465">
        <time>2018-01-21T13:17:05.000Z</time>
      </trkpt>
      <trkpt lat="47.56132" lon="-3.10464">
        <time>2018-01-21T13:17:06.000Z</time>
      </trkpt>
      <trkpt lat="47.56124" lon="-3.10465">
        <time>2018-01-21T13:17:07.000Z</time>
      </trkpt>
      <trkpt lat="47.56116" lon="-3.10465">
        <time>2018-01-21T13:17:08.000Z</time>
      </trkpt>
      <trkpt lat="47.56109" lon="-3.10465">
        <time>2018-01-21T13:17:09.000Z</time>
      </trkpt>
      <trkpt lat="47.56101" lon="-3.10467">
        <time>2018-01-21T13:17:10.000Z</time>
      </trkpt>
      <trkpt lat="47.56093" lon="-3.10467">
        <time>2018-01-21T13:17:11.000Z</time>
      </trkpt>
      <trkpt lat="47.56086" lon="-3.10468">
        <time>2018-01-21T13:17:12.000Z</time>
      </trkpt>
      <trkpt lat="47.56079" lon="-3.10468">
        <time>2018-01-21T13:17:13.000Z</time>
      </trkpt>
      <trkpt lat="47.56072" lon="-3.10468">
        <time>2018-01-21T13:17:14.000Z</time>
      </trkpt>
      <trkpt lat="47.56064" lon="-3.10468">
        <time>2018-01-21T13:17:15.000Z</time>
      </trkpt>
      <trkpt lat="47.56058" lon="-3.10468">
        <time>2018-01-21T13:17:16.000Z</time>
      </trkpt>
      <trkpt lat="47.5605" lon="-3.10467">
        <time>2018-01-21T13:17:17.000Z</time>
      </trkpt>
      <trkpt lat="47.56041" lon="-3.10466">
        <time>2018-01-21T13:17:18.000Z</time>
      </trkpt>
      <trkpt lat="47.56035" lon="-3.10465">
        <time>2018-01-21T13:17:19.000Z</time>
      </trkpt>
      <trkpt lat="47.56028" lon="-3.10465">
        <time>2018-01-21T13:17:20.000Z</time>
      </trkpt>
      <trkpt lat="47.5602" lon="-3.10465">
        <time>2018-01-21T13:17:21.000Z</time>
      </trkpt>
      <trkpt lat="47.56012" lon="-3.10464">
        <time>2018-01-21T13:17:22.000Z</time>
      </trkpt>
      <trkpt lat="47.56004" lon="-3.10462">
        <time>2018-01-21T13:17:23.000Z</time>
      </trkpt>
      <trkpt lat="47.55995" lon="-3.1046">
        <time>2018-01-21T13:17:24.000Z</time>
      </trkpt>
      <trkpt lat="47.55986" lon="-3.10458">
        <time>2018-01-21T13:17:25.000Z</time>
      </trkpt>
      <trkpt lat="47.55977" lon="-3.10457">
        <time>2018-01-21T13:17:26.000Z</time>
      </trkpt>
      <trkpt lat="47.5597" lon="-3.10456">
        <time>2018-01-21T13:17:27.000Z</time>
      </trkpt>
      <trkpt lat="47.55961" lon="-3.10455">
        <time>2018-01-21T13:17:28.000Z</time>
      </trkpt>
      <trkpt lat="47.55953" lon="-3.10454">
        <time>2018-01-21T13:17:29.000Z</time>
      </trkpt>
      <trkpt lat="47.55944" lon="-3.10453">
        <time>2018-01-21T13:17:30.000Z</time>
      </trkpt>
      <trkpt lat="47.55935" lon="-3.10452">
        <time>2018-01-21T13:17:31.000Z</time>
      </trkpt>
      <trkpt lat="47.55926" lon="-3.10451">
        <time>2018-01-21T13:17:32.000Z</time>
      </trkpt>
      <trkpt lat="47.55917" lon="-3.10449">
        <time>2018-01-21T13:17:33.000Z</time>
      </trkpt>
      <trkpt lat="47.55909" lon="-3.10447">
        <time>2018-01-21T13:17:34.000Z</time>
      </trkpt>
      <trkpt lat="47.55902" lon="-3.10445">
        <time>2018-01-21T13:17:35.000Z</time>
      </trkpt>
      <trkpt lat="47.55894" lon="-3.10444">
        <time>2018-01-21T13:17:36.000Z</time>
      </trkpt>
      <trkpt lat="47.55886" lon="-3.10444">
        <time>2018-01-21T13:17:37.000Z</time>
      </trkpt>
      <trkpt lat="47.55878" lon="-3.10444">
        <time>2018-01-21T13:17:38.000Z</time>
      </trkpt>
      <trkpt lat="47.5587" lon="-3.10444">
        <time>2018-01-21T13:17:39.000Z</time>
      </trkpt>
      <trkpt lat="47.55863" lon="-3.10443">
        <time>2018-01-21T13:17:40.000Z</time>
      </trkpt>
      <trkpt lat="47.55855" lon="-3.10441">
        <time>2018-01-21T13:17:41.000Z</time>
      </trkpt>
      <trkpt lat="47.55848" lon="-3.10438">
        <time>2018-01-21T13:17:42.000Z</time>
      </trkpt>
      <trkpt lat="47.5584" lon="-3.10436">
        <time>2018-01-21T13:17:43.000Z</time>
      </trkpt>
      <trkpt lat="47.55832" lon="-3.10434">
        <time>2018-01-21T13:17:44.000Z</time>
      </trkpt>
      <trkpt lat="47.55824" lon="-3.10431">
        <time>2018-01-21T13:17:45.000Z</time>
      </trkpt>
      <trkpt lat="47.55815" lon="-3.10428">
        <time>2018-01-21T13:17:46.000Z</time>
      </trkpt>
      <trkpt lat="47.55807" lon="-3.10425">
        <time>2018-01-21T13:17:47.000Z</time>
      </trkpt>
      <trkpt lat="47.55798" lon="-3.10422">
        <time>2018-01-21T13:17:48.000Z</time>
      </trkpt>
      <trkpt lat="47.55789" lon="-3.10419">
        <time>2018-01-21T13:17:49.000Z</time>
      </trkpt>
      <trkpt lat="47.5578" lon="-3.10416">
        <time>2018-01-21T13:17:50.000Z</time>
      </trkpt>
      <trkpt lat="47.55772" lon="-3.10414">
        <time>2018-01-21T13:17:51.000Z</time>
      </trkpt>
      <trkpt lat="47.55764" lon="-3.10411">
        <time>2018-01-21T13:17:52.000Z</time>
      </trkpt>
      <trkpt lat="47.55756" lon="-3.10408">
        <time>2018-01-21T13:17:53.000Z</time>
      </trkpt>
      <trkpt lat="47.55748" lon="-3.10406">
        <time>2018-01-21T13:17:54.000Z</time>
      </trkpt>
      <trkpt lat="47.55739" lon="-3.10403">
        <time>2018-01-21T13:17:55.000Z</time>
      </trkpt>
      <trkpt lat="47.55731" lon="-3.10399">
        <time>2018-01-21T13:17:56.000Z</time>
      </trkpt>
      <trkpt lat="47.55722" lon="-3.10396">
        <time>2018-01-21T13:17:57.000Z</time>
      </trkpt>
      <trkpt lat="47.55713" lon="-3.10392">
        <time>2018-01-21T13:17:58.000Z</time>
      </trkpt>
      <trkpt lat="47.55704" lon="-3.10388">
        <time>2018-01-21T13:17:59.000Z</time>
      </trkpt>
      <trkpt lat="47.55696" lon="-3.1038">
        <time>2018-01-21T13:18:00.000Z</time>
      </trkpt>
      <trkpt lat="47.55688" lon="-3.10375">
        <time>2018-01-21T13:18:01.000Z</time>
      </trkpt>
      <trkpt lat="47.55679" lon="-3.10367">
        <time>2018-01-21T13:18:02.000Z</time>
      </trkpt>
      <trkpt lat="47.5567" lon="-3.10365">
        <time>2018-01-21T13:18:03.000Z</time>
      </trkpt>
      <trkpt lat="47.55662" lon="-3.10365">
        <time>2018-01-21T13:18:04.000Z</time>
      </trkpt>
      <trkpt lat="47.55654" lon="-3.10364">
        <time>2018-01-21T13:18:05.000Z</time>
      </trkpt>
      <trkpt lat="47.55647" lon="-3.10365">
        <time>2018-01-21T13:18:06.000Z</time>
      </trkpt>
      <trkpt lat="47.55638" lon="-3.10364">
        <time>2018-01-21T13:18:07.000Z</time>
      </trkpt>
      <trkpt lat="47.55631" lon="-3.10361">
        <time>2018-01-21T13:18:08.000Z</time>
      </trkpt>
      <trkpt lat="47.55623" lon="-3.1036">
        <time>2018-01-21T13:18:09.000Z</time>
      </trkpt>
      <trkpt lat="47.55615" lon="-3.10359">
        <time>2018-01-21T13:18:10.000Z</time>
      </trkpt>
      <trkpt lat="47.55606" lon="-3.10358">
        <time>2018-01-21T13:18:11.000Z</time>
      </trkpt>
      <trkpt lat="47.55598" lon="-3.10356">
        <time>2018-01-21T13:18:12.000Z</time>
      </trkpt>
      <trkpt lat="47.5559" lon="-3.10355">
        <time>2018-01-21T13:18:13.000Z</time>
      </trkpt>
      <trkpt lat="47.55581" lon="-3.10353">
        <time>2018-01-21T13:18:14.000Z</time>
      </trkpt>
      <trkpt lat="47.55573" lon="-3.10352">
        <time>2018-01-21T13:18:15.000Z</time>
      </trkpt>
      <trkpt lat="47.55566" lon="-3.10352">
        <time>2018-01-21T13:18:16.000Z</time>
      </trkpt>
      <trkpt lat="47.55558" lon="-3.10351">
        <time>2018-01-21T13:18:17.000Z</time>
      </trkpt>
      <trkpt lat="47.5555" lon="-3.10351">
        <time>2018-01-21T13:18:18.000Z</time>
      </trkpt>
      <trkpt lat="47.55543" lon="-3.10351">
        <time>2018-01-21T13:18:19.000Z</time>
      </trkpt>
      <trkpt lat="47.55535" lon="-3.1035">
        <time>2018-01-21T13:18:20.000Z</time>
      </trkpt>
      <trkpt lat="47.55528" lon="-3.1035">
        <time>2018-01-21T13:18:21.000Z</time>
      </trkpt>
      <trkpt lat="47.5552" lon="-3.10351">
        <time>2018-01-21T13:18:22.000Z</time>
      </trkpt>
      <trkpt lat="47.55512" lon="-3.10351">
        <time>2018-01-21T13:18:23.000Z</time>
      </trkpt>
      <trkpt lat="47.55505" lon="-3.10351">
        <time>2018-01-21T13:18:24.000Z</time>
      </trkpt>
      <trkpt lat="47.55499" lon="-3.10352">
        <time>2018-01-21T13:18:25.000Z</time>
      </trkpt>
      <trkpt lat="47.55491" lon="-3.10351">
        <time>2018-01-21T13:18:26.000Z</time>
      </trkpt>
      <trkpt lat="47.55484" lon="-3.1035">
        <time>2018-01-21T13:18:27.000Z</time>
      </trkpt>
      <trkpt lat="47.55476" lon="-3.10349">
        <time>2018-01-21T13:18:28.000Z</time>
      </trkpt>
      <trkpt lat="47.55468" lon="-3.10348">
        <time>2018-01-21T13:18:29.000Z</time>
      </trkpt>
      <trkpt lat="47.5546" lon="-3.10349">
        <time>2018-01-21T13:18:30.000Z</time>
      </trkpt>
      <trkpt lat="47.55452" lon="-3.10349">
        <time>2018-01-21T13:18:31.000Z</time>
      </trkpt>
      <trkpt lat="47.55444" lon="-3.1035">
        <time>2018-01-21T13:18:32.000Z</time>
      </trkpt>
      <trkpt lat="47.55435" lon="-3.10351">
        <time>2018-01-21T13:18:33.000Z</time>
      </trkpt>
      <trkpt lat="47.55427" lon="-3.10352">
        <time>2018-01-21T13:18:34.000Z</time>
      </trkpt>
      <trkpt lat="47.5542" lon="-3.10352">
        <time>2018-01-21T13:18:35.000Z</time>
      </trkpt>
      <trkpt lat="47.55412" lon="-3.10352">
        <time>2018-01-21T13:18:36.000Z</time>
      </trkpt>
      <trkpt lat="47.55405" lon="-3.10352">
        <time>2018-01-21T13:18:37.000Z</time>
      </trkpt>
      <trkpt lat="47.55397" lon="-3.10352">
        <time>2018-01-21T13:18:38.000Z</time>
      </trkpt>
      <trkpt lat="47.55389" lon="-3.10352">
        <time>2018-01-21T13:18:39.000Z</time>
      </trkpt>
      <trkpt lat="47.55381" lon="-3.10352">
        <time>2018-01-21T13:18:40.000Z</time>
      </trkpt>
      <trkpt lat="47.55373" lon="-3.10351">
        <time>2018-01-21T13:18:41.000Z</time>
      </trkpt>
      <trkpt lat="47.55365" lon="-3.10351">
        <time>2018-01-21T13:18:42.000Z</time>
      </trkpt>
      <trkpt lat="47.55356" lon="-3.1035">
        <time>2018-01-21T13:18:43.000Z</time>
      </trkpt>
      <trkpt lat="47.55349" lon="-3.1035">
        <time>2018-01-21T13:18:44.000Z</time>
      </trkpt>
      <trkpt lat="47.55342" lon="-3.1035">
        <time>2018-01-21T13:18:45.000Z</time>
      </trkpt>
      <trkpt lat="47.55335" lon="-3.1035">
        <time>2018-01-21T13:18:46.000Z</time>
      </trkpt>
      <trkpt lat="47.55328" lon="-3.1035">
        <time>2018-01-21T13:18:47.000Z</time>
      </trkpt>
      <trkpt lat="47.5532" lon="-3.10349">
        <time>2018-01-21T13:18:48.000Z</time>
      </trkpt>
      <trkpt lat="47.55313" lon="-3.10348">
        <time>2018-01-21T13:18:49.000Z</time>
      </trkpt>
      <trkpt lat="47.55305" lon="-3.10347">
        <time>2018-01-21T13:18:50.000Z</time>
      </trkpt>
      <trkpt lat="47.55297" lon="-3.10345">
        <time>2018-01-21T13:18:51.000Z</time>
      </trkpt>
      <trkpt lat="47.55289" lon="-3.10341">
        <time>2018-01-21T13:18:52.000Z</time>
      </trkpt>
      <trkpt lat="47.5528" lon="-3.10337">
        <time>2018-01-21T13:18:53.000Z</time>
      </trkpt>
      <trkpt lat="47.55272" lon="-3.10335">
        <time>2018-01-21T13:18:54.000Z</time>
      </trkpt>
      <trkpt lat="47.55263" lon="-3.10333">
        <time>2018-01-21T13:18:55.000Z</time>
      </trkpt>
      <trkpt lat="47.55254" lon="-3.10331">
        <time>2018-01-21T13:18:56.000Z</time>
      </trkpt>
      <trkpt lat="47.55246" lon="-3.1033">
        <time>2018-01-21T13:18:57.000Z</time>
      </trkpt>
      <trkpt lat="47.55237" lon="-3.10329">
        <time>2018-01-21T13:18:58.000Z</time>
      </trkpt>
      <trkpt lat="47.55228" lon="-3.10327">
        <time>2018-01-21T13:18:59.000Z</time>
      </trkpt>
      <trkpt lat="47.55219" lon="-3.10326">
        <time>2018-01-21T13:19:00.000Z</time>
      </trkpt>
      <trkpt lat="47.55211" lon="-3.10319">
        <time>2018-01-21T13:19:01.000Z</time>
      </trkpt>
      <trkpt lat="47.55201" lon="-3.10317">
        <time>2018-01-21T13:19:02.000Z</time>
      </trkpt>
      <trkpt lat="47.55193" lon="-3.10316">
        <time>2018-01-21T13:19:03.000Z</time>
      </trkpt>
      <trkpt lat="47.55184" lon="-3.10315">
        <time>2018-01-21T13:19:04.000Z</time>
      </trkpt>
      <trkpt lat="47.55175" lon="-3.10314">
        <time>2018-01-21T13:19:05.000Z</time>
      </trkpt>
      <trkpt lat="47.55167" lon="-3.10313">
        <time>2018-01-21T13:19:06.000Z</time>
      </trkpt>
      <trkpt lat="47.55158" lon="-3.10311">
        <time>2018-01-21T13:19:07.000Z</time>
      </trkpt>
      <trkpt lat="47.5515" lon="-3.10308">
        <time>2018-01-21T13:19:08.000Z</time>
      </trkpt>
      <trkpt lat="47.55141" lon="-3.10304">
        <time>2018-01-21T13:19:09.000Z</time>
      </trkpt>
      <trkpt lat="47.55131" lon="-3.10301">
        <time>2018-01-21T13:19:10.000Z</time>
      </trkpt>
      <trkpt lat="47.55123" lon="-3.10297">
        <time>2018-01-21T13:19:11.000Z</time>
      </trkpt>
      <trkpt lat="47.55114" lon="-3.10293">
        <time>2018-01-21T13:19:12.000Z</time>
      </trkpt>
      <trkpt lat="47.55104" lon="-3.1029">
        <time>2018-01-21T13:19:13.000Z</time>
      </trkpt>
      <trkpt lat="47.55095" lon="-3.10287">
        <time>2018-01-21T13:19:14.000Z</time>
      </trkpt>
      <trkpt lat="47.55087" lon="-3.10284">
        <time>2018-01-21T13:19:15.000Z</time>
      </trkpt>
      <trkpt lat="47.55077" lon="-3.10281">
        <time>2018-01-21T13:19:16.000Z</time>
      </trkpt>
      <trkpt lat="47.55068" lon="-3.10277">
        <time>2018-01-21T13:19:17.000Z</time>
      </trkpt>
      <trkpt lat="47.55058" lon="-3.10275">
        <time>2018-01-21T13:19:18.000Z</time>
      </trkpt>
      <trkpt lat="47.55048" lon="-3.10271">
        <time>2018-01-21T13:19:19.000Z</time>
      </trkpt>
      <trkpt lat="47.55039" lon="-3.10267">
        <time>2018-01-21T13:19:20.000Z</time>
      </trkpt>
      <trkpt lat="47.55029" lon="-3.10264">
        <time>2018-01-21T13:19:21.000Z</time>
      </trkpt>
      <trkpt lat="47.55019" lon="-3.1026">
        <time>2018-01-21T13:19:22.000Z</time>
      </trkpt>
      <trkpt lat="47.5501" lon="-3.10257">
        <time>2018-01-21T13:19:23.000Z</time>
      </trkpt>
      <trkpt lat="47.55001" lon="-3.10254">
        <time>2018-01-21T13:19:24.000Z</time>
      </trkpt>
      <trkpt lat="47.54991" lon="-3.10254">
        <time>2018-01-21T13:19:25.000Z</time>
      </trkpt>
      <trkpt lat="47.54982" lon="-3.10254">
        <time>2018-01-21T13:19:26.000Z</time>
      </trkpt>
      <trkpt lat="47.54972" lon="-3.10256">
        <time>2018-01-21T13:19:27.000Z</time>
      </trkpt>
      <trkpt lat="47.54962" lon="-3.10256">
        <time>2018-01-21T13:19:28.000Z</time>
      </trkpt>
      <trkpt lat="47.54952" lon="-3.10254">
        <time>2018-01-21T13:19:29.000Z</time>
      </trkpt>
      <trkpt lat="47.54943" lon="-3.10254">
        <time>2018-01-21T13:19:30.000Z</time>
      </trkpt>
      <trkpt lat="47.54935" lon="-3.10255">
        <time>2018-01-21T13:19:31.000Z</time>
      </trkpt>
      <trkpt lat="47.54925" lon="-3.10256">
        <time>2018-01-21T13:19:32.000Z</time>
      </trkpt>
      <trkpt lat="47.54916" lon="-3.10258">
        <time>2018-01-21T13:19:33.000Z</time>
      </trkpt>
      <trkpt lat="47.54907" lon="-3.1026">
        <time>2018-01-21T13:19:34.000Z</time>
      </trkpt>
      <trkpt lat="47.54899" lon="-3.1026">
        <time>2018-01-21T13:19:35.000Z</time>
      </trkpt>
      <trkpt lat="47.5489" lon="-3.10262">
        <time>2018-01-21T13:19:36.000Z</time>
      </trkpt>
      <trkpt lat="47.54882" lon="-3.10262">
        <time>2018-01-21T13:19:37.000Z</time>
      </trkpt>
      <trkpt lat="47.54873" lon="-3.10262">
        <time>2018-01-21T13:19:38.000Z</time>
      </trkpt>
      <trkpt lat="47.54864" lon="-3.1026">
        <time>2018-01-21T13:19:39.000Z</time>
      </trkpt>
      <trkpt lat="47.54854" lon="-3.10259">
        <time>2018-01-21T13:19:40.000Z</time>
      </trkpt>
      <trkpt lat="47.54846" lon="-3.10259">
        <time>2018-01-21T13:19:41.000Z</time>
      </trkpt>
      <trkpt lat="47.54838" lon="-3.10257">
        <time>2018-01-21T13:19:42.000Z</time>
      </trkpt>
      <trkpt lat="47.5483" lon="-3.10256">
        <time>2018-01-21T13:19:43.000Z</time>
      </trkpt>
      <trkpt lat="47.54822" lon="-3.10255">
        <time>2018-01-21T13:19:44.000Z</time>
      </trkpt>
      <trkpt lat="47.54814" lon="-3.10254">
        <time>2018-01-21T13:19:45.000Z</time>
      </trkpt>
      <trkpt lat="47.54806" lon="-3.10254">
        <time>2018-01-21T13:19:46.000Z</time>
      </trkpt>
      <trkpt lat="47.54797" lon="-3.10253">
        <time>2018-01-21T13:19:47.000Z</time>
      </trkpt>
      <trkpt lat="47.54789" lon="-3.10252">
        <time>2018-01-21T13:19:48.000Z</time>
      </trkpt>
      <trkpt lat="47.54781" lon="-3.10252">
        <time>2018-01-21T13:19:49.000Z</time>
      </trkpt>
      <trkpt lat="47.54773" lon="-3.10253">
        <time>2018-01-21T13:19:50.000Z</time>
      </trkpt>
      <trkpt lat="47.54764" lon="-3.10253">
        <time>2018-01-21T13:19:51.000Z</time>
      </trkpt>
      <trkpt lat="47.54756" lon="-3.10253">
        <time>2018-01-21T13:19:52.000Z</time>
      </trkpt>
      <trkpt lat="47.54748" lon="-3.10254">
        <time>2018-01-21T13:19:53.000Z</time>
      </trkpt>
      <trkpt lat="47.5474" lon="-3.10256">
        <time>2018-01-21T13:19:54.000Z</time>
      </trkpt>
      <trkpt lat="47.54731" lon="-3.10255">
        <time>2018-01-21T13:19:55.000Z</time>
      </trkpt>
      <trkpt lat="47.54722" lon="-3.10255">
        <time>2018-01-21T13:19:56.000Z</time>
      </trkpt>
      <trkpt lat="47.54713" lon="-3.10254">
        <time>2018-01-21T13:19:57.000Z</time>
      </trkpt>
      <trkpt lat="47.54705" lon="-3.10253">
        <time>2018-01-21T13:19:58.000Z</time>
      </trkpt>
      <trkpt lat="47.54697" lon="-3.10253">
        <time>2018-01-21T13:19:59.000Z</time>
      </trkpt>
      <trkpt lat="47.54688" lon="-3.10252">
        <time>2018-01-21T13:20:00.000Z</time>
      </trkpt>
      <trkpt lat="47.54679" lon="-3.10251">
        <time>2018-01-21T13:20:01.000Z</time>
      </trkpt>
      <trkpt lat="47.54671" lon="-3.10251">
        <time>2018-01-21T13:20:02.000Z</time>
      </trkpt>
      <trkpt lat="47.54663" lon="-3.10251">
        <time>2018-01-21T13:20:03.000Z</time>
      </trkpt>
      <trkpt lat="47.54655" lon="-3.1025">
        <time>2018-01-21T13:20:04.000Z</time>
      </trkpt>
      <trkpt lat="47.54646" lon="-3.10249">
        <time>2018-01-21T13:20:05.000Z</time>
      </trkpt>
      <trkpt lat="47.54637" lon="-3.10246">
        <time>2018-01-21T13:20:06.000Z</time>
      </trkpt>
      <trkpt lat="47.54628" lon="-3.10245">
        <time>2018-01-21T13:20:07.000Z</time>
      </trkpt>
      <trkpt lat="47.54619" lon="-3.10243">
        <time>2018-01-21T13:20:08.000Z</time>
      </trkpt>
      <trkpt lat="47.5461" lon="-3.1024">
        <time>2018-01-21T13:20:09.000Z</time>
      </trkpt>
      <trkpt lat="47.546" lon="-3.10237">
        <time>2018-01-21T13:20:10.000Z</time>
      </trkpt>
      <trkpt lat="47.54591" lon="-3.10236">
        <time>2018-01-21T13:20:11.000Z</time>
      </trkpt>
      <trkpt lat="47.54582" lon="-3.10234">
        <time>2018-01-21T13:20:12.000Z</time>
      </trkpt>
      <trkpt lat="47.54573" lon="-3.10233">
        <time>2018-01-21T13:20:13.000Z</time>
      </trkpt>
      <trkpt lat="47.54565" lon="-3.10232">
        <time>2018-01-21T13:20:14.000Z</time>
      </trkpt>
      <trkpt lat="47.54557" lon="-3.10232">
        <time>2018-01-21T13:20:15.000Z</time>
      </trkpt>
      <trkpt lat="47.54548" lon="-3.10231">
        <time>2018-01-21T13:20:16.000Z</time>
      </trkpt>
      <trkpt lat="47.54539" lon="-3.10229">
        <time>2018-01-21T13:20:17.000Z</time>
      </trkpt>
      <trkpt lat="47.54531" lon="-3.10227">
        <time>2018-01-21T13:20:18.000Z</time>
      </trkpt>
      <trkpt lat="47.54523" lon="-3.10227">
        <time>2018-01-21T13:20:19.000Z</time>
      </trkpt>
      <trkpt lat="47.54513" lon="-3.10226">
        <time>2018-01-21T13:20:20.000Z</time>
      </trkpt>
      <trkpt lat="47.54505" lon="-3.10224">
        <time>2018-01-21T13:20:21.000Z</time>
      </trkpt>
      <trkpt lat="47.54496" lon="-3.10223">
        <time>2018-01-21T13:20:22.000Z</time>
      </trkpt>
      <trkpt lat="47.54487" lon="-3.10221">
        <time>2018-01-21T13:20:23.000Z</time>
      </trkpt>
      <trkpt lat="47.54478" lon="-3.10221">
        <time>2018-01-21T13:20:24.000Z</time>
      </trkpt>
      <trkpt lat="47.5447" lon="-3.10221">
        <time>2018-01-21T13:20:25.000Z</time>
      </trkpt>
      <trkpt lat="47.54462" lon="-3.1022">
        <time>2018-01-21T13:20:26.000Z</time>
      </trkpt>
      <trkpt lat="47.54454" lon="-3.10222">
        <time>2018-01-21T13:20:27.000Z</time>
      </trkpt>
      <trkpt lat="47.54446" lon="-3.10222">
        <time>2018-01-21T13:20:28.000Z</time>
      </trkpt>
      <trkpt lat="47.54437" lon="-3.10222">
        <time>2018-01-21T13:20:29.000Z</time>
      </trkpt>
      <trkpt lat="47.54429" lon="-3.10221">
        <time>2018-01-21T13:20:30.000Z</time>
      </trkpt>
      <trkpt lat="47.54421" lon="-3.10221">
        <time>2018-01-21T13:20:31.000Z</time>
      </trkpt>
      <trkpt lat="47.54412" lon="-3.1022">
        <time>2018-01-21T13:20:32.000Z</time>
      </trkpt>
      <trkpt lat="47.54403" lon="-3.1022">
        <time>2018-01-21T13:20:33.000Z</time>
      </trkpt>
      <trkpt lat="47.54394" lon="-3.1022">
        <time>2018-01-21T13:20:34.000Z</time>
      </trkpt>
      <trkpt lat="47.54385" lon="-3.1022">
        <time>2018-01-21T13:20:35.000Z</time>
      </trkpt>
      <trkpt lat="47.54375" lon="-3.1022">
        <time>2018-01-21T13:20:36.000Z</time>
      </trkpt>
      <trkpt lat="47.54366" lon="-3.1022">
        <time>2018-01-21T13:20:37.000Z</time>
      </trkpt>
      <trkpt lat="47.54357" lon="-3.1022">
        <time>2018-01-21T13:20:38.000Z</time>
      </trkpt>
      <trkpt lat="47.54349" lon="-3.1022">
        <time>2018-01-21T13:20:39.000Z</time>
      </trkpt>
      <trkpt lat="47.5434" lon="-3.10219">
        <time>2018-01-21T13:20:40.000Z</time>
      </trkpt>
      <trkpt lat="47.54332" lon="-3.10218">
        <time>2018-01-21T13:20:41.000Z</time>
      </trkpt>
      <trkpt lat="47.54323" lon="-3.10217">
        <time>2018-01-21T13:20:42.000Z</time>
      </trkpt>
      <trkpt lat="47.54315" lon="-3.10216">
        <time>2018-01-21T13:20:43.000Z</time>
      </trkpt>
      <trkpt lat="47.54307" lon="-3.10214">
        <time>2018-01-21T13:20:44.000Z</time>
      </trkpt>
      <trkpt lat="47.54298" lon="-3.10212">
        <time>2018-01-21T13:20:45.000Z</time>
      </trkpt>
      <trkpt lat="47.54289" lon="-3.10208">
        <time>2018-01-21T13:20:46.000Z</time>
      </trkpt>
      <trkpt lat="47.5428" lon="-3.10206">
        <time>2018-01-21T13:20:47.000Z</time>
      </trkpt>
      <trkpt lat="47.54271" lon="-3.10204">
        <time>2018-01-21T13:20:48.000Z</time>
      </trkpt>
      <trkpt lat="47.54262" lon="-3.10205">
        <time>2018-01-21T13:20:49.000Z</time>
      </trkpt>
      <trkpt lat="47.54253" lon="-3.10204">
        <time>2018-01-21T13:20:50.000Z</time>
      </trkpt>
      <trkpt lat="47.54244" lon="-3.10203">
        <time>2018-01-21T13:20:51.000Z</time>
      </trkpt>
      <trkpt lat="47.54236" lon="-3.10203">
        <time>2018-01-21T13:20:52.000Z</time>
      </trkpt>
      <trkpt lat="47.54227" lon="-3.10202">
        <time>2018-01-21T13:20:53.000Z</time>
      </trkpt>
      <trkpt lat="47.54218" lon="-3.10201">
        <time>2018-01-21T13:20:54.000Z</time>
      </trkpt>
      <trkpt lat="47.54208" lon="-3.102">
        <time>2018-01-21T13:20:55.000Z</time>
      </trkpt>
      <trkpt lat="47.54199" lon="-3.10199">
        <time>2018-01-21T13:20:56.000Z</time>
      </trkpt>
      <trkpt lat="47.5419" lon="-3.10198">
        <time>2018-01-21T13:20:57.000Z</time>
      </trkpt>
      <trkpt lat="47.54181" lon="-3.10198">
        <time>2018-01-21T13:20:58.000Z</time>
      </trkpt>
      <trkpt lat="47.54172" lon="-3.10198">
        <time>2018-01-21T13:20:59.000Z</time>
      </trkpt>
      <trkpt lat="47.54163" lon="-3.10197">
        <time>2018-01-21T13:21:00.000Z</time>
      </trkpt>
      <trkpt lat="47.54154" lon="-3.10197">
        <time>2018-01-21T13:21:01.000Z</time>
      </trkpt>
      <trkpt lat="47.54146" lon="-3.10197">
        <time>2018-01-21T13:21:02.000Z</time>
      </trkpt>
      <trkpt lat="47.54137" lon="-3.10197">
        <time>2018-01-21T13:21:03.000Z</time>
      </trkpt>
      <trkpt lat="47.54129" lon="-3.10197">
        <time>2018-01-21T13:21:04.000Z</time>
      </trkpt>
      <trkpt lat="47.5412" lon="-3.10196">
        <time>2018-01-21T13:21:05.000Z</time>
      </trkpt>
      <trkpt lat="47.54111" lon="-3.10195">
        <time>2018-01-21T13:21:06.000Z</time>
      </trkpt>
      <trkpt lat="47.54102" lon="-3.10194">
        <time>2018-01-21T13:21:07.000Z</time>
      </trkpt>
      <trkpt lat="47.54093" lon="-3.10192">
        <time>2018-01-21T13:21:08.000Z</time>
      </trkpt>
      <trkpt lat="47.54085" lon="-3.10191">
        <time>2018-01-21T13:21:09.000Z</time>
      </trkpt>
      <trkpt lat="47.54076" lon="-3.10189">
        <time>2018-01-21T13:21:10.000Z</time>
      </trkpt>
      <trkpt lat="47.54068" lon="-3.10188">
        <time>2018-01-21T13:21:11.000Z</time>
      </trkpt>
      <trkpt lat="47.5406" lon="-3.10187">
        <time>2018-01-21T13:21:12.000Z</time>
      </trkpt>
      <trkpt lat="47.54051" lon="-3.10187">
        <time>2018-01-21T13:21:13.000Z</time>
      </trkpt>
      <trkpt lat="47.54043" lon="-3.10187">
        <time>2018-01-21T13:21:14.000Z</time>
      </trkpt>
      <trkpt lat="47.54034" lon="-3.10187">
        <time>2018-01-21T13:21:15.000Z</time>
      </trkpt>
      <trkpt lat="47.54025" lon="-3.10187">
        <time>2018-01-21T13:21:16.000Z</time>
      </trkpt>
      <trkpt lat="47.54016" lon="-3.10186">
        <time>2018-01-21T13:21:17.000Z</time>
      </trkpt>
      <trkpt lat="47.54007" lon="-3.10185">
        <time>2018-01-21T13:21:18.000Z</time>
      </trkpt>
      <trkpt lat="47.53998" lon="-3.10185">
        <time>2018-01-21T13:21:19.000Z</time>
      </trkpt>
      <trkpt lat="47.53989" lon="-3.10185">
        <time>2018-01-21T13:21:20.000Z</time>
      </trkpt>
      <trkpt lat="47.5398" lon="-3.10186">
        <time>2018-01-21T13:21:21.000Z</time>
      </trkpt>
      <trkpt lat="47.53972" lon="-3.10184">
        <time>2018-01-21T13:21:22.000Z</time>
      </trkpt>
      <trkpt lat="47.53963" lon="-3.10183">
        <time>2018-01-21T13:21:23.000Z</time>
      </trkpt>
      <trkpt lat="47.53955" lon="-3.10181">
        <time>2018-01-21T13:21:24.000Z</time>
      </trkpt>
      <trkpt lat="47.53946" lon="-3.10181">
        <time>2018-01-21T13:21:25.000Z</time>
      </trkpt>
      <trkpt lat="47.53936" lon="-3.1018">
        <time>2018-01-21T13:21:26.000Z</time>
      </trkpt>
      <trkpt lat="47.53927" lon="-3.1018">
        <time>2018-01-21T13:21:27.000Z</time>
      </trkpt>
      <trkpt lat="47.53919" lon="-3.10182">
        <time>2018-01-21T13:21:28.000Z</time>
      </trkpt>
      <trkpt lat="47.53911" lon="-3.10184">
        <time>2018-01-21T13:21:29.000Z</time>
      </trkpt>
      <trkpt lat="47.53904" lon="-3.10184">
        <time>2018-01-21T13:21:30.000Z</time>
      </trkpt>
      <trkpt lat="47.53894" lon="-3.10182">
        <time>2018-01-21T13:21:31.000Z</time>
      </trkpt>
      <trkpt lat="47.53884" lon="-3.1018">
        <time>2018-01-21T13:21:32.000Z</time>
      </trkpt>
      <trkpt lat="47.53875" lon="-3.10178">
        <time>2018-01-21T13:21:33.000Z</time>
      </trkpt>
      <trkpt lat="47.53867" lon="-3.10177">
        <time>2018-01-21T13:21:34.000Z</time>
      </trkpt>
      <trkpt lat="47.53858" lon="-3.10171">
        <time>2018-01-21T13:21:35.000Z</time>
      </trkpt>
      <trkpt lat="47.5385" lon="-3.10169">
        <time>2018-01-21T13:21:36.000Z</time>
      </trkpt>
      <trkpt lat="47.53842" lon="-3.10166">
        <time>2018-01-21T13:21:37.000Z</time>
      </trkpt>
      <trkpt lat="47.53832" lon="-3.10164">
        <time>2018-01-21T13:21:38.000Z</time>
      </trkpt>
      <trkpt lat="47.53823" lon="-3.10162">
        <time>2018-01-21T13:21:39.000Z</time>
      </trkpt>
      <trkpt lat="47.53813" lon="-3.1016">
        <time>2018-01-21T13:21:40.000Z</time>
      </trkpt>
      <trkpt lat="47.53804" lon="-3.10157">
        <time>2018-01-21T13:21:41.000Z</time>
      </trkpt>
      <trkpt lat="47.53795" lon="-3.10153">
        <time>2018-01-21T13:21:42.000Z</time>
      </trkpt>
      <trkpt lat="47.53787" lon="-3.10149">
        <time>2018-01-21T13:21:43.000Z</time>
      </trkpt>
      <trkpt lat="47.53777" lon="-3.10144">
        <time>2018-01-21T13:21:44.000Z</time>
      </trkpt>
      <trkpt lat="47.53768" lon="-3.10141">
        <time>2018-01-21T13:21:45.000Z</time>
      </trkpt>
      <trkpt lat="47.5376" lon="-3.10138">
        <time>2018-01-21T13:21:46.000Z</time>
      </trkpt>
      <trkpt lat="47.53752" lon="-3.10133">
        <time>2018-01-21T13:21:47.000Z</time>
      </trkpt>
      <trkpt lat="47.53743" lon="-3.10128">
        <time>2018-01-21T13:21:48.000Z</time>
      </trkpt>
      <trkpt lat="47.53735" lon="-3.10126">
        <time>2018-01-21T13:21:49.000Z</time>
      </trkpt>
      <trkpt lat="47.53727" lon="-3.10121">
        <time>2018-01-21T13:21:50.000Z</time>
      </trkpt>
      <trkpt lat="47.53718" lon="-3.10117">
        <time>2018-01-21T13:21:51.000Z</time>
      </trkpt>
      <trkpt lat="47.53713" lon="-3.10109">
        <time>2018-01-21T13:21:52.000Z</time>
      </trkpt>
      <trkpt lat="47.53709" lon="-3.101">
        <time>2018-01-21T13:21:53.000Z</time>
      </trkpt>
      <trkpt lat="47.53709" lon="-3.1009">
        <time>2018-01-21T13:21:54.000Z</time>
      </trkpt>
      <trkpt lat="47.5371" lon="-3.10083">
        <time>2018-01-21T13:21:55.000Z</time>
      </trkpt>
      <trkpt lat="47.53712" lon="-3.10077">
        <time>2018-01-21T13:21:56.000Z</time>
      </trkpt>
      <trkpt lat="47.53713" lon="-3.10075">
        <time>2018-01-21T13:21:57.000Z</time>
      </trkpt>
      <trkpt lat="47.53715" lon="-3.10071">
        <time>2018-01-21T13:21:58.000Z</time>
      </trkpt>
      <trkpt lat="47.53717" lon="-3.10071">
        <time>2018-01-21T13:21:59.000Z</time>
      </trkpt>
      <trkpt lat="47.53719" lon="-3.10073">
        <time>2018-01-21T13:22:00.000Z</time>
      </trkpt>
      <trkpt lat="47.53721" lon="-3.10075">
        <time>2018-01-21T13:22:01.000Z</time>
      </trkpt>
      <trkpt lat="47.53723" lon="-3.10077">
        <time>2018-01-21T13:22:02.000Z</time>
      </trkpt>
      <trkpt lat="47.53725" lon="-3.10079">
        <time>2018-01-21T13:22:03.000Z</time>
      </trkpt>
      <trkpt lat="47.53728" lon="-3.10081">
        <time>2018-01-21T13:22:04.000Z</time>
      </trkpt>
      <trkpt lat="47.5373" lon="-3.10082">
        <time>2018-01-21T13:22:05.000Z</time>
      </trkpt>
      <trkpt lat="47.53732" lon="-3.10084">
        <time>2018-01-21T13:22:06.000Z</time>
      </trkpt>
      <trkpt lat="47.53734" lon="-3.10087">
        <time>2018-01-21T13:22:07.000Z</time>
      </trkpt>
      <trkpt lat="47.53736" lon="-3.10089">
        <time>2018-01-21T13:22:08.000Z</time>
      </trkpt>
      <trkpt lat="47.53739" lon="-3.10092">
        <time>2018-01-21T13:22:09.000Z</time>
      </trkpt>
      <trkpt lat="47.53741" lon="-3.10094">
        <time>2018-01-21T13:22:10.000Z</time>
      </trkpt>
      <trkpt lat="47.53738" lon="-3.10092">
        <time>2018-01-21T13:22:11.000Z</time>
      </trkpt>
      <trkpt lat="47.5377" lon="-3.10031">
        <time>2018-01-21T13:23:00.000Z</time>
      </trkpt>
      <trkpt lat="47.53766" lon="-3.10053">
        <time>2018-01-21T13:23:01.000Z</time>
      </trkpt>
      <trkpt lat="47.53765" lon="-3.10068">
        <time>2018-01-21T13:23:02.000Z</time>
      </trkpt>
      <trkpt lat="47.53768" lon="-3.10061">
        <time>2018-01-21T13:23:03.000Z</time>
      </trkpt>
      <trkpt lat="47.53772" lon="-3.10065">
        <time>2018-01-21T13:23:04.000Z</time>
      </trkpt>
      <trkpt lat="47.53774" lon="-3.10066">
        <time>2018-01-21T13:23:05.000Z</time>
      </trkpt>
      <trkpt lat="47.53776" lon="-3.10067">
        <time>2018-01-21T13:23:06.000Z</time>
      </trkpt>
      <trkpt lat="47.53778" lon="-3.10068">
        <time>2018-01-21T13:23:07.000Z</time>
      </trkpt>
      <trkpt lat="47.53781" lon="-3.10069">
        <time>2018-01-21T13:23:08.000Z</time>
      </trkpt>
      <trkpt lat="47.53783" lon="-3.1007">
        <time>2018-01-21T13:23:09.000Z</time>
      </trkpt>
      <trkpt lat="47.53786" lon="-3.10071">
        <time>2018-01-21T13:23:10.000Z</time>
      </trkpt>
      <trkpt lat="47.5379" lon="-3.10073">
        <time>2018-01-21T13:23:11.000Z</time>
      </trkpt>
      <trkpt lat="47.53795" lon="-3.10075">
        <time>2018-01-21T13:23:12.000Z</time>
      </trkpt>
      <trkpt lat="47.53799" lon="-3.10077">
        <time>2018-01-21T13:23:13.000Z</time>
      </trkpt>
      <trkpt lat="47.53804" lon="-3.10079">
        <time>2018-01-21T13:23:14.000Z</time>
      </trkpt>
      <trkpt lat="47.53809" lon="-3.10081">
        <time>2018-01-21T13:23:15.000Z</time>
      </trkpt>
      <trkpt lat="47.53815" lon="-3.10082">
        <time>2018-01-21T13:23:16.000Z</time>
      </trkpt>
      <trkpt lat="47.5382" lon="-3.10083">
        <time>2018-01-21T13:23:17.000Z</time>
      </trkpt>
      <trkpt lat="47.53826" lon="-3.10084">
        <time>2018-01-21T13:23:18.000Z</time>
      </trkpt>
      <trkpt lat="47.53831" lon="-3.10085">
        <time>2018-01-21T13:23:19.000Z</time>
      </trkpt>
      <trkpt lat="47.53837" lon="-3.10087">
        <time>2018-01-21T13:23:20.000Z</time>
      </trkpt>
      <trkpt lat="47.53844" lon="-3.10087">
        <time>2018-01-21T13:23:21.000Z</time>
      </trkpt>
      <trkpt lat="47.5385" lon="-3.10087">
        <time>2018-01-21T13:23:22.000Z</time>
      </trkpt>
      <trkpt lat="47.53857" lon="-3.10088">
        <time>2018-01-21T13:23:23.000Z</time>
      </trkpt>
      <trkpt lat="47.53864" lon="-3.10088">
        <time>2018-01-21T13:23:24.000Z</time>
      </trkpt>
      <trkpt lat="47.53872" lon="-3.10089">
        <time>2018-01-21T13:23:25.000Z</time>
      </trkpt>
      <trkpt lat="47.5388" lon="-3.10091">
        <time>2018-01-21T13:23:26.000Z</time>
      </trkpt>
      <trkpt lat="47.53888" lon="-3.10093">
        <time>2018-01-21T13:23:27.000Z</time>
      </trkpt>
      <trkpt lat="47.53896" lon="-3.10094">
        <time>2018-01-21T13:23:28.000Z</time>
      </trkpt>
      <trkpt lat="47.53904" lon="-3.10095">
        <time>2018-01-21T13:23:29.000Z</time>
      </trkpt>
      <trkpt lat="47.53912" lon="-3.10098">
        <time>2018-01-21T13:23:30.000Z</time>
      </trkpt>
      <trkpt lat="47.53919" lon="-3.101">
        <time>2018-01-21T13:23:31.000Z</time>
      </trkpt>
      <trkpt lat="47.53926" lon="-3.10103">
        <time>2018-01-21T13:23:32.000Z</time>
      </trkpt>
      <trkpt lat="47.53933" lon="-3.10105">
        <time>2018-01-21T13:23:33.000Z</time>
      </trkpt>
      <trkpt lat="47.5394" lon="-3.10108">
        <time>2018-01-21T13:23:34.000Z</time>
      </trkpt>
      <trkpt lat="47.53947" lon="-3.10109">
        <time>2018-01-21T13:23:35.000Z</time>
      </trkpt>
      <trkpt lat="47.53954" lon="-3.10111">
        <time>2018-01-21T13:23:36.000Z</time>
      </trkpt>
      <trkpt lat="47.53962" lon="-3.10111">
        <time>2018-01-21T13:23:37.000Z</time>
      </trkpt>
      <trkpt lat="47.5397" lon="-3.10111">
        <time>2018-01-21T13:23:38.000Z</time>
      </trkpt>
      <trkpt lat="47.53979" lon="-3.1011">
        <time>2018-01-21T13:23:39.000Z</time>
      </trkpt>
      <trkpt lat="47.53989" lon="-3.1011">
        <time>2018-01-21T13:23:40.000Z</time>
      </trkpt>
      <trkpt lat="47.53999" lon="-3.10111">
        <time>2018-01-21T13:23:41.000Z</time>
      </trkpt>
      <trkpt lat="47.54009" lon="-3.10114">
        <time>2018-01-21T13:23:42.000Z</time>
      </trkpt>
      <trkpt lat="47.54018" lon="-3.10118">
        <time>2018-01-21T13:23:43.000Z</time>
      </trkpt>
      <trkpt lat="47.54026" lon="-3.10121">
        <time>2018-01-21T13:23:44.000Z</time>
      </trkpt>
      <trkpt lat="47.54035" lon="-3.10125">
        <time>2018-01-21T13:23:45.000Z</time>
      </trkpt>
      <trkpt lat="47.54043" lon="-3.10128">
        <time>2018-01-21T13:23:46.000Z</time>
      </trkpt>
      <trkpt lat="47.54051" lon="-3.10131">
        <time>2018-01-21T13:23:47.000Z</time>
      </trkpt>
      <trkpt lat="47.54059" lon="-3.10134">
        <time>2018-01-21T13:23:48.000Z</time>
      </trkpt>
      <trkpt lat="47.54068" lon="-3.10137">
        <time>2018-01-21T13:23:49.000Z</time>
      </trkpt>
      <trkpt lat="47.54076" lon="-3.10141">
        <time>2018-01-21T13:23:50.000Z</time>
      </trkpt>
      <trkpt lat="47.54084" lon="-3.10144">
        <time>2018-01-21T13:23:51.000Z</time>
      </trkpt>
      <trkpt lat="47.54091" lon="-3.10148">
        <time>2018-01-21T13:23:52.000Z</time>
      </trkpt>
      <trkpt lat="47.54098" lon="-3.1015">
        <time>2018-01-21T13:23:53.000Z</time>
      </trkpt>
      <trkpt lat="47.54107" lon="-3.10153">
        <time>2018-01-21T13:23:54.000Z</time>
      </trkpt>
      <trkpt lat="47.54114" lon="-3.10156">
        <time>2018-01-21T13:23:55.000Z</time>
      </trkpt>
      <trkpt lat="47.54122" lon="-3.10156">
        <time>2018-01-21T13:23:56.000Z</time>
      </trkpt>
      <trkpt lat="47.54131" lon="-3.10157">
        <time>2018-01-21T13:23:57.000Z</time>
      </trkpt>
      <trkpt lat="47.54139" lon="-3.10159">
        <time>2018-01-21T13:23:58.000Z</time>
      </trkpt>
      <trkpt lat="47.54147" lon="-3.1016">
        <time>2018-01-21T13:23:59.000Z</time>
      </trkpt>
      <trkpt lat="47.54156" lon="-3.10162">
        <time>2018-01-21T13:24:00.000Z</time>
      </trkpt>
      <trkpt lat="47.54165" lon="-3.10164">
        <time>2018-01-21T13:24:01.000Z</time>
      </trkpt>
      <trkpt lat="47.54173" lon="-3.10165">
        <time>2018-01-21T13:24:02.000Z</time>
      </trkpt>
      <trkpt lat="47.54182" lon="-3.10168">
        <time>2018-01-21T13:24:03.000Z</time>
      </trkpt>
      <trkpt lat="47.5419" lon="-3.10169">
        <time>2018-01-21T13:24:04.000Z</time>
      </trkpt>
      <trkpt lat="47.54198" lon="-3.1017">
        <time>2018-01-21T13:24:05.000Z</time>
      </trkpt>
      <trkpt lat="47.54205" lon="-3.10173">
        <time>2018-01-21T13:24:06.000Z</time>
      </trkpt>
      <trkpt lat="47.54212" lon="-3.10175">
        <time>2018-01-21T13:24:07.000Z</time>
      </trkpt>
      <trkpt lat="47.54219" lon="-3.10177">
        <time>2018-01-21T13:24:08.000Z</time>
      </trkpt>
      <trkpt lat="47.54226" lon="-3.10179">
        <time>2018-01-21T13:24:09.000Z</time>
      </trkpt>
      <trkpt lat="47.54232" lon="-3.10181">
        <time>2018-01-21T13:24:10.000Z</time>
      </trkpt>
      <trkpt lat="47.54241" lon="-3.10184">
        <time>2018-01-21T13:24:11.000Z</time>
      </trkpt>
      <trkpt lat="47.54248" lon="-3.10186">
        <time>2018-01-21T13:24:12.000Z</time>
      </trkpt>
      <trkpt lat="47.54257" lon="-3.10189">
        <time>2018-01-21T13:24:13.000Z</time>
      </trkpt>
      <trkpt lat="47.54265" lon="-3.10191">
        <time>2018-01-21T13:24:14.000Z</time>
      </trkpt>
      <trkpt lat="47.54273" lon="-3.10193">
        <time>2018-01-21T13:24:15.000Z</time>
      </trkpt>
      <trkpt lat="47.54281" lon="-3.10195">
        <time>2018-01-21T13:24:16.000Z</time>
      </trkpt>
      <trkpt lat="47.5429" lon="-3.10196">
        <time>2018-01-21T13:24:17.000Z</time>
      </trkpt>
      <trkpt lat="47.54298" lon="-3.10197">
        <time>2018-01-21T13:24:18.000Z</time>
      </trkpt>
      <trkpt lat="47.54305" lon="-3.10199">
        <time>2018-01-21T13:24:19.000Z</time>
      </trkpt>
      <trkpt lat="47.54313" lon="-3.10201">
        <time>2018-01-21T13:24:20.000Z</time>
      </trkpt>
      <trkpt lat="47.5432" lon="-3.10204">
        <time>2018-01-21T13:24:21.000Z</time>
      </trkpt>
      <trkpt lat="47.54328" lon="-3.10205">
        <time>2018-01-21T13:24:22.000Z</time>
      </trkpt>
      <trkpt lat="47.54336" lon="-3.10207">
        <time>2018-01-21T13:24:23.000Z</time>
      </trkpt>
      <trkpt lat="47.54345" lon="-3.10209">
        <time>2018-01-21T13:24:24.000Z</time>
      </trkpt>
      <trkpt lat="47.54352" lon="-3.10211">
        <time>2018-01-21T13:24:25.000Z</time>
      </trkpt>
      <trkpt lat="47.5436" lon="-3.10213">
        <time>2018-01-21T13:24:26.000Z</time>
      </trkpt>
      <trkpt lat="47.54368" lon="-3.10215">
        <time>2018-01-21T13:24:27.000Z</time>
      </trkpt>
      <trkpt lat="47.54376" lon="-3.10217">
        <time>2018-01-21T13:24:28.000Z</time>
      </trkpt>
      <trkpt lat="47.54383" lon="-3.1022">
        <time>2018-01-21T13:24:29.000Z</time>
      </trkpt>
      <trkpt lat="47.54392" lon="-3.10222">
        <time>2018-01-21T13:24:30.000Z</time>
      </trkpt>
      <trkpt lat="47.544" lon="-3.10225">
        <time>2018-01-21T13:24:31.000Z</time>
      </trkpt>
      <trkpt lat="47.54407" lon="-3.10227">
        <time>2018-01-21T13:24:32.000Z</time>
      </trkpt>
      <trkpt lat="47.54415" lon="-3.1023">
        <time>2018-01-21T13:24:33.000Z</time>
      </trkpt>
      <trkpt lat="47.54422" lon="-3.10233">
        <time>2018-01-21T13:24:34.000Z</time>
      </trkpt>
      <trkpt lat="47.5443" lon="-3.10236">
        <time>2018-01-21T13:24:35.000Z</time>
      </trkpt>
      <trkpt lat="47.54438" lon="-3.10239">
        <time>2018-01-21T13:24:36.000Z</time>
      </trkpt>
      <trkpt lat="47.54446" lon="-3.10241">
        <time>2018-01-21T13:24:37.000Z</time>
      </trkpt>
      <trkpt lat="47.54455" lon="-3.10243">
        <time>2018-01-21T13:24:38.000Z</time>
      </trkpt>
      <trkpt lat="47.54463" lon="-3.10244">
        <time>2018-01-21T13:24:39.000Z</time>
      </trkpt>
      <trkpt lat="47.54472" lon="-3.10246">
        <time>2018-01-21T13:24:40.000Z</time>
      </trkpt>
      <trkpt lat="47.5448" lon="-3.10248">
        <time>2018-01-21T13:24:41.000Z</time>
      </trkpt>
      <trkpt lat="47.54489" lon="-3.10249">
        <time>2018-01-21T13:24:42.000Z</time>
      </trkpt>
      <trkpt lat="47.54497" lon="-3.10252">
        <time>2018-01-21T13:24:43.000Z</time>
      </trkpt>
      <trkpt lat="47.54506" lon="-3.10254">
        <time>2018-01-21T13:24:44.000Z</time>
      </trkpt>
      <trkpt lat="47.54514" lon="-3.10255">
        <time>2018-01-21T13:24:45.000Z</time>
      </trkpt>
      <trkpt lat="47.54522" lon="-3.10258">
        <time>2018-01-21T13:24:46.000Z</time>
      </trkpt>
      <trkpt lat="47.54529" lon="-3.10261">
        <time>2018-01-21T13:24:47.000Z</time>
      </trkpt>
      <trkpt lat="47.54537" lon="-3.10263">
        <time>2018-01-21T13:24:48.000Z</time>
      </trkpt>
      <trkpt lat="47.54545" lon="-3.10265">
        <time>2018-01-21T13:24:49.000Z</time>
      </trkpt>
      <trkpt lat="47.54552" lon="-3.10268">
        <time>2018-01-21T13:24:50.000Z</time>
      </trkpt>
      <trkpt lat="47.54561" lon="-3.1027">
        <time>2018-01-21T13:24:51.000Z</time>
      </trkpt>
      <trkpt lat="47.54568" lon="-3.10273">
        <time>2018-01-21T13:24:52.000Z</time>
      </trkpt>
      <trkpt lat="47.54576" lon="-3.10275">
        <time>2018-01-21T13:24:53.000Z</time>
      </trkpt>
      <trkpt lat="47.54584" lon="-3.10276">
        <time>2018-01-21T13:24:54.000Z</time>
      </trkpt>
      <trkpt lat="47.54592" lon="-3.10278">
        <time>2018-01-21T13:24:55.000Z</time>
      </trkpt>
      <trkpt lat="47.546" lon="-3.10279">
        <time>2018-01-21T13:24:56.000Z</time>
      </trkpt>
      <trkpt lat="47.54609" lon="-3.10281">
        <time>2018-01-21T13:24:57.000Z</time>
      </trkpt>
      <trkpt lat="47.54617" lon="-3.10283">
        <time>2018-01-21T13:24:58.000Z</time>
      </trkpt>
      <trkpt lat="47.54625" lon="-3.10285">
        <time>2018-01-21T13:24:59.000Z</time>
      </trkpt>
      <trkpt lat="47.54632" lon="-3.10287">
        <time>2018-01-21T13:25:00.000Z</time>
      </trkpt>
      <trkpt lat="47.5464" lon="-3.10289">
        <time>2018-01-21T13:25:01.000Z</time>
      </trkpt>
      <trkpt lat="47.54648" lon="-3.1029">
        <time>2018-01-21T13:25:02.000Z</time>
      </trkpt>
      <trkpt lat="47.54657" lon="-3.10291">
        <time>2018-01-21T13:25:03.000Z</time>
      </trkpt>
      <trkpt lat="47.54665" lon="-3.10292">
        <time>2018-01-21T13:25:04.000Z</time>
      </trkpt>
      <trkpt lat="47.54673" lon="-3.10293">
        <time>2018-01-21T13:25:05.000Z</time>
      </trkpt>
      <trkpt lat="47.54682" lon="-3.10295">
        <time>2018-01-21T13:25:06.000Z</time>
      </trkpt>
      <trkpt lat="47.54691" lon="-3.10296">
        <time>2018-01-21T13:25:07.000Z</time>
      </trkpt>
      <trkpt lat="47.547" lon="-3.10297">
        <time>2018-01-21T13:25:08.000Z</time>
      </trkpt>
      <trkpt lat="47.54709" lon="-3.10298">
        <time>2018-01-21T13:25:09.000Z</time>
      </trkpt>
      <trkpt lat="47.54718" lon="-3.103">
        <time>2018-01-21T13:25:10.000Z</time>
      </trkpt>
      <trkpt lat="47.54726" lon="-3.10302">
        <time>2018-01-21T13:25:11.000Z</time>
      </trkpt>
      <trkpt lat="47.54735" lon="-3.10303">
        <time>2018-01-21T13:25:12.000Z</time>
      </trkpt>
      <trkpt lat="47.54743" lon="-3.10306">
        <time>2018-01-21T13:25:13.000Z</time>
      </trkpt>
      <trkpt lat="47.54752" lon="-3.10308">
        <time>2018-01-21T13:25:14.000Z</time>
      </trkpt>
      <trkpt lat="47.5476" lon="-3.1031">
        <time>2018-01-21T13:25:15.000Z</time>
      </trkpt>
      <trkpt lat="47.54769" lon="-3.10311">
        <time>2018-01-21T13:25:16.000Z</time>
      </trkpt>
      <trkpt lat="47.54778" lon="-3.10313">
        <time>2018-01-21T13:25:17.000Z</time>
      </trkpt>
      <trkpt lat="47.54786" lon="-3.10314">
        <time>2018-01-21T13:25:18.000Z</time>
      </trkpt>
      <trkpt lat="47.54795" lon="-3.10316">
        <time>2018-01-21T13:25:19.000Z</time>
      </trkpt>
      <trkpt lat="47.54803" lon="-3.10318">
        <time>2018-01-21T13:25:20.000Z</time>
      </trkpt>
      <trkpt lat="47.54812" lon="-3.1032">
        <time>2018-01-21T13:25:21.000Z</time>
      </trkpt>
      <trkpt lat="47.5482" lon="-3.10321">
        <time>2018-01-21T13:25:22.000Z</time>
      </trkpt>
      <trkpt lat="47.54828" lon="-3.10323">
        <time>2018-01-21T13:25:23.000Z</time>
      </trkpt>
      <trkpt lat="47.54836" lon="-3.10325">
        <time>2018-01-21T13:25:24.000Z</time>
      </trkpt>
      <trkpt lat="47.54844" lon="-3.10327">
        <time>2018-01-21T13:25:25.000Z</time>
      </trkpt>
      <trkpt lat="47.54853" lon="-3.10328">
        <time>2018-01-21T13:25:26.000Z</time>
      </trkpt>
      <trkpt lat="47.54861" lon="-3.10329">
        <time>2018-01-21T13:25:27.000Z</time>
      </trkpt>
      <trkpt lat="47.5487" lon="-3.10329">
        <time>2018-01-21T13:25:28.000Z</time>
      </trkpt>
      <trkpt lat="47.54879" lon="-3.1033">
        <time>2018-01-21T13:25:29.000Z</time>
      </trkpt>
      <trkpt lat="47.54888" lon="-3.10331">
        <time>2018-01-21T13:25:30.000Z</time>
      </trkpt>
      <trkpt lat="47.54896" lon="-3.10333">
        <time>2018-01-21T13:25:31.000Z</time>
      </trkpt>
      <trkpt lat="47.54905" lon="-3.10335">
        <time>2018-01-21T13:25:32.000Z</time>
      </trkpt>
      <trkpt lat="47.54913" lon="-3.10337">
        <time>2018-01-21T13:25:33.000Z</time>
      </trkpt>
      <trkpt lat="47.54922" lon="-3.10338">
        <time>2018-01-21T13:25:34.000Z</time>
      </trkpt>
      <trkpt lat="47.54931" lon="-3.1034">
        <time>2018-01-21T13:25:35.000Z</time>
      </trkpt>
      <trkpt lat="47.54941" lon="-3.10342">
        <time>2018-01-21T13:25:36.000Z</time>
      </trkpt>
      <trkpt lat="47.5495" lon="-3.10343">
        <time>2018-01-21T13:25:37.000Z</time>
      </trkpt>
      <trkpt lat="47.54959" lon="-3.10345">
        <time>2018-01-21T13:25:38.000Z</time>
      </trkpt>
      <trkpt lat="47.54967" lon="-3.10346">
        <time>2018-01-21T13:25:39.000Z</time>
      </trkpt>
      <trkpt lat="47.54976" lon="-3.10347">
        <time>2018-01-21T13:25:40.000Z</time>
      </trkpt>
      <trkpt lat="47.54984" lon="-3.10349">
        <time>2018-01-21T13:25:41.000Z</time>
      </trkpt>
      <trkpt lat="47.54993" lon="-3.10351">
        <time>2018-01-21T13:25:42.000Z</time>
      </trkpt>
      <trkpt lat="47.55001" lon="-3.10353">
        <time>2018-01-21T13:25:43.000Z</time>
      </trkpt>
      <trkpt lat="47.5501" lon="-3.10355">
        <time>2018-01-21T13:25:44.000Z</time>
      </trkpt>
      <trkpt lat="47.55017" lon="-3.10357">
        <time>2018-01-21T13:25:45.000Z</time>
      </trkpt>
      <trkpt lat="47.55026" lon="-3.10359">
        <time>2018-01-21T13:25:46.000Z</time>
      </trkpt>
      <trkpt lat="47.55034" lon="-3.10361">
        <time>2018-01-21T13:25:47.000Z</time>
      </trkpt>
      <trkpt lat="47.55042" lon="-3.10362">
        <time>2018-01-21T13:25:48.000Z</time>
      </trkpt>
      <trkpt lat="47.5505" lon="-3.10363">
        <time>2018-01-21T13:25:49.000Z</time>
      </trkpt>
      <trkpt lat="47.55059" lon="-3.10365">
        <time>2018-01-21T13:25:50.000Z</time>
      </trkpt>
      <trkpt lat="47.55068" lon="-3.10366">
        <time>2018-01-21T13:25:51.000Z</time>
      </trkpt>
      <trkpt lat="47.55076" lon="-3.10367">
        <time>2018-01-21T13:25:52.000Z</time>
      </trkpt>
      <trkpt lat="47.55084" lon="-3.10369">
        <time>2018-01-21T13:25:53.000Z</time>
      </trkpt>
      <trkpt lat="47.55092" lon="-3.10371">
        <time>2018-01-21T13:25:54.000Z</time>
      </trkpt>
      <trkpt lat="47.55101" lon="-3.10372">
        <time>2018-01-21T13:25:55.000Z</time>
      </trkpt>
      <trkpt lat="47.55109" lon="-3.10374">
        <time>2018-01-21T13:25:56.000Z</time>
      </trkpt>
      <trkpt lat="47.55117" lon="-3.10375">
        <time>2018-01-21T13:25:57.000Z</time>
      </trkpt>
      <trkpt lat="47.55126" lon="-3.10376">
        <time>2018-01-21T13:25:58.000Z</time>
      </trkpt>
      <trkpt lat="47.55134" lon="-3.10377">
        <time>2018-01-21T13:25:59.000Z</time>
      </trkpt>
      <trkpt lat="47.55143" lon="-3.10378">
        <time>2018-01-21T13:26:00.000Z</time>
      </trkpt>
      <trkpt lat="47.55151" lon="-3.1038">
        <time>2018-01-21T13:26:01.000Z</time>
      </trkpt>
      <trkpt lat="47.55159" lon="-3.10382">
        <time>2018-01-21T13:26:02.000Z</time>
      </trkpt>
      <trkpt lat="47.55168" lon="-3.10383">
        <time>2018-01-21T13:26:03.000Z</time>
      </trkpt>
      <trkpt lat="47.55177" lon="-3.10384">
        <time>2018-01-21T13:26:04.000Z</time>
      </trkpt>
      <trkpt lat="47.55185" lon="-3.10386">
        <time>2018-01-21T13:26:05.000Z</time>
      </trkpt>
      <trkpt lat="47.55194" lon="-3.10388">
        <time>2018-01-21T13:26:06.000Z</time>
      </trkpt>
      <trkpt lat="47.55202" lon="-3.10391">
        <time>2018-01-21T13:26:07.000Z</time>
      </trkpt>
      <trkpt lat="47.5521" lon="-3.10392">
        <time>2018-01-21T13:26:08.000Z</time>
      </trkpt>
      <trkpt lat="47.55218" lon="-3.10394">
        <time>2018-01-21T13:26:09.000Z</time>
      </trkpt>
      <trkpt lat="47.55226" lon="-3.10395">
        <time>2018-01-21T13:26:10.000Z</time>
      </trkpt>
      <trkpt lat="47.55234" lon="-3.10396">
        <time>2018-01-21T13:26:11.000Z</time>
      </trkpt>
      <trkpt lat="47.55242" lon="-3.10398">
        <time>2018-01-21T13:26:12.000Z</time>
      </trkpt>
      <trkpt lat="47.55251" lon="-3.10399">
        <time>2018-01-21T13:26:13.000Z</time>
      </trkpt>
      <trkpt lat="47.55259" lon="-3.104">
        <time>2018-01-21T13:26:14.000Z</time>
      </trkpt>
      <trkpt lat="47.55268" lon="-3.10401">
        <time>2018-01-21T13:26:15.000Z</time>
      </trkpt>
      <trkpt lat="47.55278" lon="-3.10403">
        <time>2018-01-21T13:26:16.000Z</time>
      </trkpt>
      <trkpt lat="47.55287" lon="-3.10404">
        <time>2018-01-21T13:26:17.000Z</time>
      </trkpt>
      <trkpt lat="47.55296" lon="-3.10406">
        <time>2018-01-21T13:26:18.000Z</time>
      </trkpt>
      <trkpt lat="47.55305" lon="-3.10408">
        <time>2018-01-21T13:26:19.000Z</time>
      </trkpt>
      <trkpt lat="47.55314" lon="-3.10409">
        <time>2018-01-21T13:26:20.000Z</time>
      </trkpt>
      <trkpt lat="47.55322" lon="-3.1041">
        <time>2018-01-21T13:26:21.000Z</time>
      </trkpt>
      <trkpt lat="47.55332" lon="-3.10411">
        <time>2018-01-21T13:26:22.000Z</time>
      </trkpt>
      <trkpt lat="47.55341" lon="-3.10412">
        <time>2018-01-21T13:26:23.000Z</time>
      </trkpt>
      <trkpt lat="47.55349" lon="-3.10413">
        <time>2018-01-21T13:26:24.000Z</time>
      </trkpt>
      <trkpt lat="47.55358" lon="-3.10414">
        <time>2018-01-21T13:26:25.000Z</time>
      </trkpt>
      <trkpt lat="47.55367" lon="-3.10415">
        <time>2018-01-21T13:26:26.000Z</time>
      </trkpt>
      <trkpt lat="47.55375" lon="-3.10416">
        <time>2018-01-21T13:26:27.000Z</time>
      </trkpt>
      <trkpt lat="47.55383" lon="-3.10417">
        <time>2018-01-21T13:26:28.000Z</time>
      </trkpt>
      <trkpt lat="47.55391" lon="-3.1042">
        <time>2018-01-21T13:26:29.000Z</time>
      </trkpt>
      <trkpt lat="47.55398" lon="-3.10421">
        <time>2018-01-21T13:26:30.000Z</time>
      </trkpt>
      <trkpt lat="47.55406" lon="-3.10422">
        <time>2018-01-21T13:26:31.000Z</time>
      </trkpt>
      <trkpt lat="47.55414" lon="-3.10422">
        <time>2018-01-21T13:26:32.000Z</time>
      </trkpt>
      <trkpt lat="47.55423" lon="-3.10423">
        <time>2018-01-21T13:26:33.000Z</time>
      </trkpt>
      <trkpt lat="47.55431" lon="-3.10424">
        <time>2018-01-21T13:26:34.000Z</time>
      </trkpt>
      <trkpt lat="47.5544" lon="-3.10426">
        <time>2018-01-21T13:26:35.000Z</time>
      </trkpt>
      <trkpt lat="47.55448" lon="-3.10427">
        <time>2018-01-21T13:26:36.000Z</time>
      </trkpt>
      <trkpt lat="47.55457" lon="-3.10429">
        <time>2018-01-21T13:26:37.000Z</time>
      </trkpt>
      <trkpt lat="47.55465" lon="-3.10431">
        <time>2018-01-21T13:26:38.000Z</time>
      </trkpt>
      <trkpt lat="47.55473" lon="-3.10432">
        <time>2018-01-21T13:26:39.000Z</time>
      </trkpt>
      <trkpt lat="47.55481" lon="-3.10433">
        <time>2018-01-21T13:26:40.000Z</time>
      </trkpt>
      <trkpt lat="47.5549" lon="-3.10434">
        <time>2018-01-21T13:26:41.000Z</time>
      </trkpt>
      <trkpt lat="47.55498" lon="-3.10435">
        <time>2018-01-21T13:26:42.000Z</time>
      </trkpt>
      <trkpt lat="47.55506" lon="-3.10437">
        <time>2018-01-21T13:26:43.000Z</time>
      </trkpt>
      <trkpt lat="47.55514" lon="-3.10438">
        <time>2018-01-21T13:26:44.000Z</time>
      </trkpt>
      <trkpt lat="47.55523" lon="-3.10439">
        <time>2018-01-21T13:26:45.000Z</time>
      </trkpt>
      <trkpt lat="47.55531" lon="-3.1044">
        <time>2018-01-21T13:26:46.000Z</time>
      </trkpt>
      <trkpt lat="47.5554" lon="-3.10441">
        <time>2018-01-21T13:26:47.000Z</time>
      </trkpt>
      <trkpt lat="47.55549" lon="-3.10441">
        <time>2018-01-21T13:26:48.000Z</time>
      </trkpt>
      <trkpt lat="47.55557" lon="-3.10443">
        <time>2018-01-21T13:26:49.000Z</time>
      </trkpt>
      <trkpt lat="47.55566" lon="-3.10444">
        <time>2018-01-21T13:26:50.000Z</time>
      </trkpt>
      <trkpt lat="47.55574" lon="-3.10446">
        <time>2018-01-21T13:26:51.000Z</time>
      </trkpt>
      <trkpt lat="47.55582" lon="-3.10447">
        <time>2018-01-21T13:26:52.000Z</time>
      </trkpt>
      <trkpt lat="47.5559" lon="-3.10447">
        <time>2018-01-21T13:26:53.000Z</time>
      </trkpt>
      <trkpt lat="47.55598" lon="-3.10448">
        <time>2018-01-21T13:26:54.000Z</time>
      </trkpt>
      <trkpt lat="47.55605" lon="-3.10449">
        <time>2018-01-21T13:26:55.000Z</time>
      </trkpt>
      <trkpt lat="47.55613" lon="-3.10449">
        <time>2018-01-21T13:26:56.000Z</time>
      </trkpt>
      <trkpt lat="47.5562" lon="-3.1045">
        <time>2018-01-21T13:26:57.000Z</time>
      </trkpt>
      <trkpt lat="47.55629" lon="-3.1045">
        <time>2018-01-21T13:26:58.000Z</time>
      </trkpt>
      <trkpt lat="47.55637" lon="-3.1045">
        <time>2018-01-21T13:26:59.000Z</time>
      </trkpt>
      <trkpt lat="47.55645" lon="-3.1045">
        <time>2018-01-21T13:27:00.000Z</time>
      </trkpt>
      <trkpt lat="47.55654" lon="-3.10451">
        <time>2018-01-21T13:27:01.000Z</time>
      </trkpt>
      <trkpt lat="47.55662" lon="-3.10453">
        <time>2018-01-21T13:27:02.000Z</time>
      </trkpt>
      <trkpt lat="47.5567" lon="-3.10454">
        <time>2018-01-21T13:27:03.000Z</time>
      </trkpt>
      <trkpt lat="47.55679" lon="-3.10455">
        <time>2018-01-21T13:27:04.000Z</time>
      </trkpt>
      <trkpt lat="47.55687" lon="-3.10455">
        <time>2018-01-21T13:27:05.000Z</time>
      </trkpt>
      <trkpt lat="47.55695" lon="-3.10455">
        <time>2018-01-21T13:27:06.000Z</time>
      </trkpt>
      <trkpt lat="47.55703" lon="-3.10455">
        <time>2018-01-21T13:27:07.000Z</time>
      </trkpt>
      <trkpt lat="47.55712" lon="-3.10454">
        <time>2018-01-21T13:27:08.000Z</time>
      </trkpt>
      <trkpt lat="47.5572" lon="-3.10455">
        <time>2018-01-21T13:27:09.000Z</time>
      </trkpt>
      <trkpt lat="47.55728" lon="-3.10456">
        <time>2018-01-21T13:27:10.000Z</time>
      </trkpt>
      <trkpt lat="47.55735" lon="-3.10455">
        <time>2018-01-21T13:27:11.000Z</time>
      </trkpt>
      <trkpt lat="47.55743" lon="-3.10456">
        <time>2018-01-21T13:27:12.000Z</time>
      </trkpt>
      <trkpt lat="47.55751" lon="-3.10457">
        <time>2018-01-21T13:27:13.000Z</time>
      </trkpt>
      <trkpt lat="47.55759" lon="-3.10457">
        <time>2018-01-21T13:27:14.000Z</time>
      </trkpt>
      <trkpt lat="47.55767" lon="-3.10458">
        <time>2018-01-21T13:27:15.000Z</time>
      </trkpt>
      <trkpt lat="47.55776" lon="-3.10459">
        <time>2018-01-21T13:27:16.000Z</time>
      </trkpt>
      <trkpt lat="47.55784" lon="-3.10461">
        <time>2018-01-21T13:27:17.000Z</time>
      </trkpt>
      <trkpt lat="47.55793" lon="-3.10461">
        <time>2018-01-21T13:27:18.000Z</time>
      </trkpt>
      <trkpt lat="47.55801" lon="-3.10463">
        <time>2018-01-21T13:27:19.000Z</time>
      </trkpt>
      <trkpt lat="47.55809" lon="-3.10465">
        <time>2018-01-21T13:27:20.000Z</time>
      </trkpt>
      <trkpt lat="47.55817" lon="-3.10465">
        <time>2018-01-21T13:27:21.000Z</time>
      </trkpt>
      <trkpt lat="47.55825" lon="-3.10466">
        <time>2018-01-21T13:27:22.000Z</time>
      </trkpt>
      <trkpt lat="47.55833" lon="-3.10467">
        <time>2018-01-21T13:27:23.000Z</time>
      </trkpt>
      <trkpt lat="47.55841" lon="-3.10466">
        <time>2018-01-21T13:27:24.000Z</time>
      </trkpt>
      <trkpt lat="47.55849" lon="-3.10466">
        <time>2018-01-21T13:27:25.000Z</time>
      </trkpt>
      <trkpt lat="47.55857" lon="-3.10467">
        <time>2018-01-21T13:27:26.000Z</time>
      </trkpt>
      <trkpt lat="47.55865" lon="-3.10467">
        <time>2018-01-21T13:27:27.000Z</time>
      </trkpt>
      <trkpt lat="47.55873" lon="-3.10467">
        <time>2018-01-21T13:27:28.000Z</time>
      </trkpt>
      <trkpt lat="47.5588" lon="-3.10468">
        <time>2018-01-21T13:27:29.000Z</time>
      </trkpt>
      <trkpt lat="47.55888" lon="-3.10467">
        <time>2018-01-21T13:27:30.000Z</time>
      </trkpt>
      <trkpt lat="47.55895" lon="-3.10468">
        <time>2018-01-21T13:27:31.000Z</time>
      </trkpt>
      <trkpt lat="47.55903" lon="-3.10467">
        <time>2018-01-21T13:27:32.000Z</time>
      </trkpt>
      <trkpt lat="47.55912" lon="-3.10466">
        <time>2018-01-21T13:27:33.000Z</time>
      </trkpt>
      <trkpt lat="47.55921" lon="-3.10467">
        <time>2018-01-21T13:27:34.000Z</time>
      </trkpt>
      <trkpt lat="47.5593" lon="-3.10468">
        <time>2018-01-21T13:27:35.000Z</time>
      </trkpt>
      <trkpt lat="47.55938" lon="-3.1047">
        <time>2018-01-21T13:27:36.000Z</time>
      </trkpt>
      <trkpt lat="47.55947" lon="-3.1047">
        <time>2018-01-21T13:27:37.000Z</time>
      </trkpt>
      <trkpt lat="47.55955" lon="-3.1047">
        <time>2018-01-21T13:27:38.000Z</time>
      </trkpt>
      <trkpt lat="47.55963" lon="-3.1047">
        <time>2018-01-21T13:27:39.000Z</time>
      </trkpt>
      <trkpt lat="47.55971" lon="-3.1047">
        <time>2018-01-21T13:27:40.000Z</time>
      </trkpt>
      <trkpt lat="47.55979" lon="-3.10471">
        <time>2018-01-21T13:27:41.000Z</time>
      </trkpt>
      <trkpt lat="47.55987" lon="-3.10472">
        <time>2018-01-21T13:27:42.000Z</time>
      </trkpt>
      <trkpt lat="47.55995" lon="-3.10473">
        <time>2018-01-21T13:27:43.000Z</time>
      </trkpt>
      <trkpt lat="47.56003" lon="-3.10473">
        <time>2018-01-21T13:27:44.000Z</time>
      </trkpt>
      <trkpt lat="47.56011" lon="-3.10474">
        <time>2018-01-21T13:27:45.000Z</time>
      </trkpt>
      <trkpt lat="47.5602" lon="-3.10473">
        <time>2018-01-21T13:27:46.000Z</time>
      </trkpt>
      <trkpt lat="47.56028" lon="-3.10473">
        <time>2018-01-21T13:27:47.000Z</time>
      </trkpt>
      <trkpt lat="47.56036" lon="-3.10474">
        <time>2018-01-21T13:27:48.000Z</time>
      </trkpt>
      <trkpt lat="47.56045" lon="-3.10473">
        <time>2018-01-21T13:27:49.000Z</time>
      </trkpt>
      <trkpt lat="47.56053" lon="-3.10471">
        <time>2018-01-21T13:27:50.000Z</time>
      </trkpt>
      <trkpt lat="47.56062" lon="-3.10471">
        <time>2018-01-21T13:27:51.000Z</time>
      </trkpt>
      <trkpt lat="47.56071" lon="-3.10471">
        <time>2018-01-21T13:27:52.000Z</time>
      </trkpt>
      <trkpt lat="47.56079" lon="-3.10472">
        <time>2018-01-21T13:27:53.000Z</time>
      </trkpt>
      <trkpt lat="47.56087" lon="-3.10471">
        <time>2018-01-21T13:27:54.000Z</time>
      </trkpt>
      <trkpt lat="47.56095" lon="-3.1047">
        <time>2018-01-21T13:27:55.000Z</time>
      </trkpt>
      <trkpt lat="47.56103" lon="-3.1047">
        <time>2018-01-21T13:27:56.000Z</time>
      </trkpt>
      <trkpt lat="47.56112" lon="-3.1047">
        <time>2018-01-21T13:27:57.000Z</time>
      </trkpt>
      <trkpt lat="47.5612" lon="-3.1047">
        <time>2018-01-21T13:27:58.000Z</time>
      </trkpt>
      <trkpt lat="47.56129" lon="-3.1047">
        <time>2018-01-21T13:27:59.000Z</time>
      </trkpt>
      <trkpt lat="47.56136" lon="-3.10471">
        <time>2018-01-21T13:28:00.000Z</time>
      </trkpt>
      <trkpt lat="47.56145" lon="-3.10472">
        <time>2018-01-21T13:28:01.000Z</time>
      </trkpt>
      <trkpt lat="47.56152" lon="-3.10472">
        <time>2018-01-21T13:28:02.000Z</time>
      </trkpt>
      <trkpt lat="47.56159" lon="-3.10473">
        <time>2018-01-21T13:28:03.000Z</time>
      </trkpt>
      <trkpt lat="47.56166" lon="-3.10473">
        <time>2018-01-21T13:28:04.000Z</time>
      </trkpt>
      <trkpt lat="47.56173" lon="-3.10473">
        <time>2018-01-21T13:28:05.000Z</time>
      </trkpt>
      <trkpt lat="47.5618" lon="-3.10473">
        <time>2018-01-21T13:28:06.000Z</time>
      </trkpt>
      <trkpt lat="47.56187" lon="-3.10472">
        <time>2018-01-21T13:28:07.000Z</time>
      </trkpt>
      <trkpt lat="47.56194" lon="-3.10474">
        <time>2018-01-21T13:28:08.000Z</time>
      </trkpt>
      <trkpt lat="47.56201" lon="-3.10474">
        <time>2018-01-21T13:28:09.000Z</time>
      </trkpt>
      <trkpt lat="47.56208" lon="-3.10475">
        <time>2018-01-21T13:28:10.000Z</time>
      </trkpt>
      <trkpt lat="47.56216" lon="-3.10475">
        <time>2018-01-21T13:28:11.000Z</time>
      </trkpt>
      <trkpt lat="47.56223" lon="-3.10476">
        <time>2018-01-21T13:28:12.000Z</time>
      </trkpt>
      <trkpt lat="47.56231" lon="-3.10478">
        <time>2018-01-21T13:28:13.000Z</time>
      </trkpt>
      <trkpt lat="47.56238" lon="-3.1048">
        <time>2018-01-21T13:28:14.000Z</time>
      </trkpt>
      <trkpt lat="47.56246" lon="-3.10482">
        <time>2018-01-21T13:28:15.000Z</time>
      </trkpt>
      <trkpt lat="47.56252" lon="-3.10485">
        <time>2018-01-21T13:28:16.000Z</time>
      </trkpt>
      <trkpt lat="47.56259" lon="-3.10487">
        <time>2018-01-21T13:28:17.000Z</time>
      </trkpt>
      <trkpt lat="47.56265" lon="-3.10489">
        <time>2018-01-21T13:28:18.000Z</time>
      </trkpt>
      <trkpt lat="47.56273" lon="-3.10491">
        <time>2018-01-21T13:28:19.000Z</time>
      </trkpt>
      <trkpt lat="47.5628" lon="-3.10493">
        <time>2018-01-21T13:28:20.000Z</time>
      </trkpt>
      <trkpt lat="47.56287" lon="-3.10496">
        <time>2018-01-21T13:28:21.000Z</time>
      </trkpt>
      <trkpt lat="47.56295" lon="-3.10496">
        <time>2018-01-21T13:28:22.000Z</time>
      </trkpt>
      <trkpt lat="47.56302" lon="-3.10496">
        <time>2018-01-21T13:28:23.000Z</time>
      </trkpt>
      <trkpt lat="47.56309" lon="-3.10496">
        <time>2018-01-21T13:28:24.000Z</time>
      </trkpt>
      <trkpt lat="47.56317" lon="-3.10497">
        <time>2018-01-21T13:28:25.000Z</time>
      </trkpt>
      <trkpt lat="47.56325" lon="-3.10495">
        <time>2018-01-21T13:28:26.000Z</time>
      </trkpt>
      <trkpt lat="47.56334" lon="-3.10493">
        <time>2018-01-21T13:28:27.000Z</time>
      </trkpt>
      <trkpt lat="47.56342" lon="-3.10493">
        <time>2018-01-21T13:28:28.000Z</time>
      </trkpt>
      <trkpt lat="47.5635" lon="-3.10491">
        <time>2018-01-21T13:28:29.000Z</time>
      </trkpt>
      <trkpt lat="47.56358" lon="-3.10493">
        <time>2018-01-21T13:28:30.000Z</time>
      </trkpt>
      <trkpt lat="47.56366" lon="-3.10493">
        <time>2018-01-21T13:28:31.000Z</time>
      </trkpt>
      <trkpt lat="47.56374" lon="-3.10492">
        <time>2018-01-21T13:28:32.000Z</time>
      </trkpt>
      <trkpt lat="47.56381" lon="-3.10492">
        <time>2018-01-21T13:28:33.000Z</time>
      </trkpt>
      <trkpt lat="47.56389" lon="-3.10491">
        <time>2018-01-21T13:28:34.000Z</time>
      </trkpt>
      <trkpt lat="47.56396" lon="-3.10492">
        <time>2018-01-21T13:28:35.000Z</time>
      </trkpt>
      <trkpt lat="47.56404" lon="-3.10493">
        <time>2018-01-21T13:28:36.000Z</time>
      </trkpt>
      <trkpt lat="47.56411" lon="-3.10493">
        <time>2018-01-21T13:28:37.000Z</time>
      </trkpt>
      <trkpt lat="47.56418" lon="-3.10494">
        <time>2018-01-21T13:28:38.000Z</time>
      </trkpt>
      <trkpt lat="47.56425" lon="-3.10495">
        <time>2018-01-21T13:28:39.000Z</time>
      </trkpt>
      <trkpt lat="47.56431" lon="-3.10497">
        <time>2018-01-21T13:28:40.000Z</time>
      </trkpt>
      <trkpt lat="47.56438" lon="-3.10498">
        <time>2018-01-21T13:28:41.000Z</time>
      </trkpt>
      <trkpt lat="47.56444" lon="-3.105">
        <time>2018-01-21T13:28:42.000Z</time>
      </trkpt>
      <trkpt lat="47.56451" lon="-3.10501">
        <time>2018-01-21T13:28:43.000Z</time>
      </trkpt>
      <trkpt lat="47.56458" lon="-3.10503">
        <time>2018-01-21T13:28:44.000Z</time>
      </trkpt>
      <trkpt lat="47.56465" lon="-3.10504">
        <time>2018-01-21T13:28:45.000Z</time>
      </trkpt>
      <trkpt lat="47.56473" lon="-3.10506">
        <time>2018-01-21T13:28:46.000Z</time>
      </trkpt>
      <trkpt lat="47.56481" lon="-3.10506">
        <time>2018-01-21T13:28:47.000Z</time>
      </trkpt>
      <trkpt lat="47.56488" lon="-3.10507">
        <time>2018-01-21T13:28:48.000Z</time>
      </trkpt>
      <trkpt lat="47.56494" lon="-3.1051">
        <time>2018-01-21T13:28:49.000Z</time>
      </trkpt>
      <trkpt lat="47.56501" lon="-3.10513">
        <time>2018-01-21T13:28:50.000Z</time>
      </trkpt>
      <trkpt lat="47.56507" lon="-3.10515">
        <time>2018-01-21T13:28:51.000Z</time>
      </trkpt>
      <trkpt lat="47.56513" lon="-3.10516">
        <time>2018-01-21T13:28:52.000Z</time>
      </trkpt>
      <trkpt lat="47.5652" lon="-3.10514">
        <time>2018-01-21T13:28:53.000Z</time>
      </trkpt>
      <trkpt lat="47.56525" lon="-3.10509">
        <time>2018-01-21T13:28:54.000Z</time>
      </trkpt>
      <trkpt lat="47.56529" lon="-3.10503">
        <time>2018-01-21T13:28:55.000Z</time>
      </trkpt>
      <trkpt lat="47.56529" lon="-3.10498">
        <time>2018-01-21T13:28:56.000Z</time>
      </trkpt>
      <trkpt lat="47.56529" lon="-3.10494">
        <time>2018-01-21T13:28:57.000Z</time>
      </trkpt>
      <trkpt lat="47.56529" lon="-3.10492">
        <time>2018-01-21T13:28:58.000Z</time>
      </trkpt>
      <trkpt lat="47.56529" lon="-3.10491">
        <time>2018-01-21T13:28:59.000Z</time>
      </trkpt>
      <trkpt lat="47.56528" lon="-3.1049">
        <time>2018-01-21T13:29:00.000Z</time>
      </trkpt>
      <trkpt lat="47.56529" lon="-3.1049">
        <time>2018-01-21T13:29:01.000Z</time>
      </trkpt>
      <trkpt lat="47.56529" lon="-3.10491">
        <time>2018-01-21T13:29:02.000Z</time>
      </trkpt>
      <trkpt lat="47.56529" lon="-3.10491">
        <time>2018-01-21T13:29:03.000Z</time>
      </trkpt>
      <trkpt lat="47.56529" lon="-3.10491">
        <time>2018-01-21T13:29:04.000Z</time>
      </trkpt>
      <trkpt lat="47.56529" lon="-3.10491">
        <time>2018-01-21T13:29:05.000Z</time>
      </trkpt>
      <trkpt lat="47.56529" lon="-3.10491">
        <time>2018-01-21T13:29:06.000Z</time>
      </trkpt>
      <trkpt lat="47.56529" lon="-3.10491">
        <time>2018-01-21T13:29:07.000Z</time>
      </trkpt>
      <trkpt lat="47.56529" lon="-3.10491">
        <time>2018-01-21T13:29:08.000Z</time>
      </trkpt>
      <trkpt lat="47.56529" lon="-3.10491">
        <time>2018-01-21T13:29:09.000Z</time>
      </trkpt>
      <trkpt lat="47.56526" lon="-3.10494">
        <time>2018-01-21T13:29:10.000Z</time>
      </trkpt>
      <trkpt lat="47.56523" lon="-3.10494">
        <time>2018-01-21T13:29:11.000Z</time>
      </trkpt>
      <trkpt lat="47.56521" lon="-3.10494">
        <time>2018-01-21T13:29:12.000Z</time>
      </trkpt>
      <trkpt lat="47.56518" lon="-3.10494">
        <time>2018-01-21T13:29:13.000Z</time>
      </trkpt>
      <trkpt lat="47.56515" lon="-3.10494">
        <time>2018-01-21T13:29:14.000Z</time>
      </trkpt>
      <trkpt lat="47.56512" lon="-3.10495">
        <time>2018-01-21T13:29:15.000Z</time>
      </trkpt>
      <trkpt lat="47.56508" lon="-3.10495">
        <time>2018-01-21T13:29:16.000Z</time>
      </trkpt>
      <trkpt lat="47.56505" lon="-3.10495">
        <time>2018-01-21T13:29:17.000Z</time>
      </trkpt>
      <trkpt lat="47.56501" lon="-3.10496">
        <time>2018-01-21T13:29:18.000Z</time>
      </trkpt>
      <trkpt lat="47.56497" lon="-3.10496">
        <time>2018-01-21T13:29:19.000Z</time>
      </trkpt>
      <trkpt lat="47.56493" lon="-3.10496">
        <time>2018-01-21T13:29:20.000Z</time>
      </trkpt>
      <trkpt lat="47.56491" lon="-3.10497">
        <time>2018-01-21T13:29:21.000Z</time>
      </trkpt>
      <trkpt lat="47.56489" lon="-3.10498">
        <time>2018-01-21T13:29:22.000Z</time>
      </trkpt>
      <trkpt lat="47.56485" lon="-3.10498">
        <time>2018-01-21T13:29:23.000Z</time>
      </trkpt>
      <trkpt lat="47.56481" lon="-3.10497">
        <time>2018-01-21T13:29:24.000Z</time>
      </trkpt>
      <trkpt lat="47.56476" lon="-3.10498">
        <time>2018-01-21T13:29:25.000Z</time>
      </trkpt>
      <trkpt lat="47.5647" lon="-3.10499">
        <time>2018-01-21T13:29:26.000Z</time>
      </trkpt>
      <trkpt lat="47.56463" lon="-3.10499">
        <time>2018-01-21T13:29:27.000Z</time>
      </trkpt>
      <trkpt lat="47.56456" lon="-3.10498">
        <time>2018-01-21T13:29:28.000Z</time>
      </trkpt>
      <trkpt lat="47.56449" lon="-3.10498">
        <time>2018-01-21T13:29:29.000Z</time>
      </trkpt>
      <trkpt lat="47.56442" lon="-3.10498">
        <time>2018-01-21T13:29:30.000Z</time>
      </trkpt>
      <trkpt lat="47.56434" lon="-3.10498">
        <time>2018-01-21T13:29:31.000Z</time>
      </trkpt>
      <trkpt lat="47.56427" lon="-3.10499">
        <time>2018-01-21T13:29:32.000Z</time>
      </trkpt>
      <trkpt lat="47.5642" lon="-3.10498">
        <time>2018-01-21T13:29:33.000Z</time>
      </trkpt>
      <trkpt lat="47.56414" lon="-3.10499">
        <time>2018-01-21T13:29:34.000Z</time>
      </trkpt>
      <trkpt lat="47.56406" lon="-3.10497">
        <time>2018-01-21T13:29:35.000Z</time>
      </trkpt>
      <trkpt lat="47.56399" lon="-3.10496">
        <time>2018-01-21T13:29:36.000Z</time>
      </trkpt>
      <trkpt lat="47.56392" lon="-3.10497">
        <time>2018-01-21T13:29:37.000Z</time>
      </trkpt>
      <trkpt lat="47.56384" lon="-3.10497">
        <time>2018-01-21T13:29:38.000Z</time>
      </trkpt>
      <trkpt lat="47.56378" lon="-3.10497">
        <time>2018-01-21T13:29:39.000Z</time>
      </trkpt>
      <trkpt lat="47.5637" lon="-3.10497">
        <time>2018-01-21T13:29:40.000Z</time>
      </trkpt>
      <trkpt lat="47.56362" lon="-3.10497">
        <time>2018-01-21T13:29:41.000Z</time>
      </trkpt>
      <trkpt lat="47.56353" lon="-3.10498">
        <time>2018-01-21T13:29:42.000Z</time>
      </trkpt>
      <trkpt lat="47.56345" lon="-3.10498">
        <time>2018-01-21T13:29:43.000Z</time>
      </trkpt>
      <trkpt lat="47.56337" lon="-3.10499">
        <time>2018-01-21T13:29:44.000Z</time>
      </trkpt>
      <trkpt lat="47.56328" lon="-3.10501">
        <time>2018-01-21T13:29:45.000Z</time>
      </trkpt>
      <trkpt lat="47.5632" lon="-3.10501">
        <time>2018-01-21T13:29:46.000Z</time>
      </trkpt>
      <trkpt lat="47.56313" lon="-3.10501">
        <time>2018-01-21T13:29:47.000Z</time>
      </trkpt>
      <trkpt lat="47.56304" lon="-3.10501">
        <time>2018-01-21T13:29:48.000Z</time>
      </trkpt>
      <trkpt lat="47.56296" lon="-3.10502">
        <time>2018-01-21T13:29:49.000Z</time>
      </trkpt>
      <trkpt lat="47.56287" lon="-3.10502">
        <time>2018-01-21T13:29:50.000Z</time>
      </trkpt>
      <trkpt lat="47.56278" lon="-3.10502">
        <time>2018-01-21T13:29:51.000Z</time>
      </trkpt>
      <trkpt lat="47.5627" lon="-3.10502">
        <time>2018-01-21T13:29:52.000Z</time>
      </trkpt>
      <trkpt lat="47.56261" lon="-3.10504">
        <time>2018-01-21T13:29:53.000Z</time>
      </trkpt>
      <trkpt lat="47.56252" lon="-3.10502">
        <time>2018-01-21T13:29:54.000Z</time>
      </trkpt>
      <trkpt lat="47.56244" lon="-3.10502">
        <time>2018-01-21T13:29:55.000Z</time>
      </trkpt>
      <trkpt lat="47.56235" lon="-3.105">
        <time>2018-01-21T13:29:56.000Z</time>
      </trkpt>
      <trkpt lat="47.56227" lon="-3.10499">
        <time>2018-01-21T13:29:57.000Z</time>
      </trkpt>
      <trkpt lat="47.5622" lon="-3.10498">
        <time>2018-01-21T13:29:58.000Z</time>
      </trkpt>
      <trkpt lat="47.56211" lon="-3.10498">
        <time>2018-01-21T13:29:59.000Z</time>
      </trkpt>
      <trkpt lat="47.56203" lon="-3.10498">
        <time>2018-01-21T13:30:00.000Z</time>
      </trkpt>
      <trkpt lat="47.56195" lon="-3.10498">
        <time>2018-01-21T13:30:01.000Z</time>
      </trkpt>
      <trkpt lat="47.56188" lon="-3.105">
        <time>2018-01-21T13:30:02.000Z</time>
      </trkpt>
      <trkpt lat="47.56181" lon="-3.105">
        <time>2018-01-21T13:30:03.000Z</time>
      </trkpt>
      <trkpt lat="47.56174" lon="-3.105">
        <time>2018-01-21T13:30:04.000Z</time>
      </trkpt>
      <trkpt lat="47.56168" lon="-3.105">
        <time>2018-01-21T13:30:05.000Z</time>
      </trkpt>
      <trkpt lat="47.56161" lon="-3.10499">
        <time>2018-01-21T13:30:06.000Z</time>
      </trkpt>
      <trkpt lat="47.56154" lon="-3.10498">
        <time>2018-01-21T13:30:07.000Z</time>
      </trkpt>
      <trkpt lat="47.56147" lon="-3.10496">
        <time>2018-01-21T13:30:08.000Z</time>
      </trkpt>
      <trkpt lat="47.56139" lon="-3.10495">
        <time>2018-01-21T13:30:09.000Z</time>
      </trkpt>
      <trkpt lat="47.56131" lon="-3.10492">
        <time>2018-01-21T13:30:10.000Z</time>
      </trkpt>
      <trkpt lat="47.56123" lon="-3.10491">
        <time>2018-01-21T13:30:11.000Z</time>
      </trkpt>
      <trkpt lat="47.56115" lon="-3.1049">
        <time>2018-01-21T13:30:12.000Z</time>
      </trkpt>
      <trkpt lat="47.56107" lon="-3.10488">
        <time>2018-01-21T13:30:13.000Z</time>
      </trkpt>
      <trkpt lat="47.561" lon="-3.10484">
        <time>2018-01-21T13:30:14.000Z</time>
      </trkpt>
      <trkpt lat="47.56091" lon="-3.10477">
        <time>2018-01-21T13:30:15.000Z</time>
      </trkpt>
      <trkpt lat="47.56082" lon="-3.10474">
        <time>2018-01-21T13:30:16.000Z</time>
      </trkpt>
      <trkpt lat="47.56074" lon="-3.10473">
        <time>2018-01-21T13:30:17.000Z</time>
      </trkpt>
      <trkpt lat="47.56065" lon="-3.10472">
        <time>2018-01-21T13:30:18.000Z</time>
      </trkpt>
      <trkpt lat="47.56057" lon="-3.10469">
        <time>2018-01-21T13:30:19.000Z</time>
      </trkpt>
      <trkpt lat="47.56048" lon="-3.10466">
        <time>2018-01-21T13:30:20.000Z</time>
      </trkpt>
      <trkpt lat="47.56039" lon="-3.10465">
        <time>2018-01-21T13:30:21.000Z</time>
      </trkpt>
      <trkpt lat="47.5603" lon="-3.10463">
        <time>2018-01-21T13:30:22.000Z</time>
      </trkpt>
      <trkpt lat="47.56021" lon="-3.1046">
        <time>2018-01-21T13:30:23.000Z</time>
      </trkpt>
      <trkpt lat="47.56011" lon="-3.10457">
        <time>2018-01-21T13:30:24.000Z</time>
      </trkpt>
      <trkpt lat="47.56002" lon="-3.10453">
        <time>2018-01-21T13:30:25.000Z</time>
      </trkpt>
      <trkpt lat="47.55993" lon="-3.10451">
        <time>2018-01-21T13:30:26.000Z</time>
      </trkpt>
      <trkpt lat="47.55984" lon="-3.1045">
        <time>2018-01-21T13:30:27.000Z</time>
      </trkpt>
      <trkpt lat="47.55975" lon="-3.10448">
        <time>2018-01-21T13:30:28.000Z</time>
      </trkpt>
      <trkpt lat="47.55965" lon="-3.10446">
        <time>2018-01-21T13:30:29.000Z</time>
      </trkpt>
      <trkpt lat="47.55956" lon="-3.10444">
        <time>2018-01-21T13:30:30.000Z</time>
      </trkpt>
      <trkpt lat="47.55946" lon="-3.10442">
        <time>2018-01-21T13:30:31.000Z</time>
      </trkpt>
      <trkpt lat="47.55937" lon="-3.1044">
        <time>2018-01-21T13:30:32.000Z</time>
      </trkpt>
      <trkpt lat="47.55928" lon="-3.1044">
        <time>2018-01-21T13:30:33.000Z</time>
      </trkpt>
      <trkpt lat="47.55919" lon="-3.10442">
        <time>2018-01-21T13:30:34.000Z</time>
      </trkpt>
      <trkpt lat="47.55911" lon="-3.10441">
        <time>2018-01-21T13:30:35.000Z</time>
      </trkpt>
      <trkpt lat="47.55902" lon="-3.10437">
        <time>2018-01-21T13:30:36.000Z</time>
      </trkpt>
      <trkpt lat="47.55894" lon="-3.10437">
        <time>2018-01-21T13:30:37.000Z</time>
      </trkpt>
      <trkpt lat="47.55885" lon="-3.10436">
        <time>2018-01-21T13:30:38.000Z</time>
      </trkpt>
      <trkpt lat="47.55877" lon="-3.10434">
        <time>2018-01-21T13:30:39.000Z</time>
      </trkpt>
      <trkpt lat="47.55868" lon="-3.10432">
        <time>2018-01-21T13:30:40.000Z</time>
      </trkpt>
      <trkpt lat="47.55859" lon="-3.10429">
        <time>2018-01-21T13:30:41.000Z</time>
      </trkpt>
      <trkpt lat="47.55851" lon="-3.10427">
        <time>2018-01-21T13:30:42.000Z</time>
      </trkpt>
      <trkpt lat="47.55843" lon="-3.10425">
        <time>2018-01-21T13:30:43.000Z</time>
      </trkpt>
      <trkpt lat="47.55834" lon="-3.10423">
        <time>2018-01-21T13:30:44.000Z</time>
      </trkpt>
      <trkpt lat="47.55826" lon="-3.10421">
        <time>2018-01-21T13:30:45.000Z</time>
      </trkpt>
      <trkpt lat="47.55817" lon="-3.10418">
        <time>2018-01-21T13:30:46.000Z</time>
      </trkpt>
      <trkpt lat="47.55807" lon="-3.10413">
        <time>2018-01-21T13:30:47.000Z</time>
      </trkpt>
      <trkpt lat="47.55799" lon="-3.1041">
        <time>2018-01-21T13:30:48.000Z</time>
      </trkpt>
      <trkpt lat="47.5579" lon="-3.10408">
        <time>2018-01-21T13:30:49.000Z</time>
      </trkpt>
      <trkpt lat="47.55781" lon="-3.10406">
        <time>2018-01-21T13:30:50.000Z</time>
      </trkpt>
      <trkpt lat="47.55772" lon="-3.10402">
        <time>2018-01-21T13:30:51.000Z</time>
      </trkpt>
      <trkpt lat="47.55764" lon="-3.10399">
        <time>2018-01-21T13:30:52.000Z</time>
      </trkpt>
      <trkpt lat="47.55755" lon="-3.10397">
        <time>2018-01-21T13:30:53.000Z</time>
      </trkpt>
      <trkpt lat="47.55746" lon="-3.10397">
        <time>2018-01-21T13:30:54.000Z</time>
      </trkpt>
      <trkpt lat="47.55739" lon="-3.10396">
        <time>2018-01-21T13:30:55.000Z</time>
      </trkpt>
      <trkpt lat="47.55731" lon="-3.10396">
        <time>2018-01-21T13:30:56.000Z</time>
      </trkpt>
      <trkpt lat="47.55723" lon="-3.10396">
        <time>2018-01-21T13:30:57.000Z</time>
      </trkpt>
      <trkpt lat="47.55715" lon="-3.10396">
        <time>2018-01-21T13:30:58.000Z</time>
      </trkpt>
      <trkpt lat="47.55707" lon="-3.10396">
        <time>2018-01-21T13:30:59.000Z</time>
      </trkpt>
      <trkpt lat="47.55699" lon="-3.10396">
        <time>2018-01-21T13:31:00.000Z</time>
      </trkpt>
      <trkpt lat="47.55692" lon="-3.10397">
        <time>2018-01-21T13:31:01.000Z</time>
      </trkpt>
      <trkpt lat="47.55684" lon="-3.10396">
        <time>2018-01-21T13:31:02.000Z</time>
      </trkpt>
      <trkpt lat="47.55676" lon="-3.10395">
        <time>2018-01-21T13:31:03.000Z</time>
      </trkpt>
      <trkpt lat="47.55668" lon="-3.10393">
        <time>2018-01-21T13:31:04.000Z</time>
      </trkpt>
      <trkpt lat="47.5566" lon="-3.1039">
        <time>2018-01-21T13:31:05.000Z</time>
      </trkpt>
      <trkpt lat="47.55652" lon="-3.10389">
        <time>2018-01-21T13:31:06.000Z</time>
      </trkpt>
      <trkpt lat="47.55643" lon="-3.10388">
        <time>2018-01-21T13:31:07.000Z</time>
      </trkpt>
      <trkpt lat="47.55634" lon="-3.10388">
        <time>2018-01-21T13:31:08.000Z</time>
      </trkpt>
      <trkpt lat="47.55625" lon="-3.10388">
        <time>2018-01-21T13:31:09.000Z</time>
      </trkpt>
      <trkpt lat="47.55616" lon="-3.10388">
        <time>2018-01-21T13:31:10.000Z</time>
      </trkpt>
      <trkpt lat="47.55608" lon="-3.10387">
        <time>2018-01-21T13:31:11.000Z</time>
      </trkpt>
      <trkpt lat="47.55599" lon="-3.10386">
        <time>2018-01-21T13:31:12.000Z</time>
      </trkpt>
      <trkpt lat="47.5559" lon="-3.10385">
        <time>2018-01-21T13:31:13.000Z</time>
      </trkpt>
      <trkpt lat="47.55581" lon="-3.10384">
        <time>2018-01-21T13:31:14.000Z</time>
      </trkpt>
      <trkpt lat="47.55572" lon="-3.10384">
        <time>2018-01-21T13:31:15.000Z</time>
      </trkpt>
      <trkpt lat="47.55563" lon="-3.10385">
        <time>2018-01-21T13:31:16.000Z</time>
      </trkpt>
      <trkpt lat="47.55555" lon="-3.10386">
        <time>2018-01-21T13:31:17.000Z</time>
      </trkpt>
      <trkpt lat="47.55547" lon="-3.10387">
        <time>2018-01-21T13:31:18.000Z</time>
      </trkpt>
      <trkpt lat="47.55538" lon="-3.10387">
        <time>2018-01-21T13:31:19.000Z</time>
      </trkpt>
      <trkpt lat="47.55531" lon="-3.10387">
        <time>2018-01-21T13:31:20.000Z</time>
      </trkpt>
      <trkpt lat="47.55523" lon="-3.10387">
        <time>2018-01-21T13:31:21.000Z</time>
      </trkpt>
      <trkpt lat="47.55515" lon="-3.10387">
        <time>2018-01-21T13:31:22.000Z</time>
      </trkpt>
      <trkpt lat="47.55506" lon="-3.10387">
        <time>2018-01-21T13:31:23.000Z</time>
      </trkpt>
      <trkpt lat="47.55498" lon="-3.10387">
        <time>2018-01-21T13:31:24.000Z</time>
      </trkpt>
      <trkpt lat="47.5549" lon="-3.10387">
        <time>2018-01-21T13:31:25.000Z</time>
      </trkpt>
      <trkpt lat="47.55482" lon="-3.10388">
        <time>2018-01-21T13:31:26.000Z</time>
      </trkpt>
      <trkpt lat="47.55474" lon="-3.10389">
        <time>2018-01-21T13:31:27.000Z</time>
      </trkpt>
      <trkpt lat="47.55466" lon="-3.10389">
        <time>2018-01-21T13:31:28.000Z</time>
      </trkpt>
      <trkpt lat="47.55458" lon="-3.1039">
        <time>2018-01-21T13:31:29.000Z</time>
      </trkpt>
      <trkpt lat="47.5545" lon="-3.10389">
        <time>2018-01-21T13:31:30.000Z</time>
      </trkpt>
      <trkpt lat="47.55442" lon="-3.1039">
        <time>2018-01-21T13:31:31.000Z</time>
      </trkpt>
      <trkpt lat="47.55435" lon="-3.10391">
        <time>2018-01-21T13:31:32.000Z</time>
      </trkpt>
      <trkpt lat="47.55427" lon="-3.10391">
        <time>2018-01-21T13:31:33.000Z</time>
      </trkpt>
      <trkpt lat="47.5542" lon="-3.10391">
        <time>2018-01-21T13:31:34.000Z</time>
      </trkpt>
      <trkpt lat="47.55414" lon="-3.10389">
        <time>2018-01-21T13:31:35.000Z</time>
      </trkpt>
      <trkpt lat="47.55407" lon="-3.10389">
        <time>2018-01-21T13:31:36.000Z</time>
      </trkpt>
      <trkpt lat="47.554" lon="-3.1039">
        <time>2018-01-21T13:31:37.000Z</time>
      </trkpt>
      <trkpt lat="47.55392" lon="-3.1039">
        <time>2018-01-21T13:31:38.000Z</time>
      </trkpt>
      <trkpt lat="47.55385" lon="-3.10391">
        <time>2018-01-21T13:31:39.000Z</time>
      </trkpt>
      <trkpt lat="47.55377" lon="-3.10391">
        <time>2018-01-21T13:31:40.000Z</time>
      </trkpt>
      <trkpt lat="47.55369" lon="-3.10393">
        <time>2018-01-21T13:31:41.000Z</time>
      </trkpt>
      <trkpt lat="47.55361" lon="-3.10392">
        <time>2018-01-21T13:31:42.000Z</time>
      </trkpt>
      <trkpt lat="47.55352" lon="-3.10391">
        <time>2018-01-21T13:31:43.000Z</time>
      </trkpt>
      <trkpt lat="47.55343" lon="-3.10389">
        <time>2018-01-21T13:31:44.000Z</time>
      </trkpt>
      <trkpt lat="47.55335" lon="-3.10388">
        <time>2018-01-21T13:31:45.000Z</time>
      </trkpt>
      <trkpt lat="47.55326" lon="-3.10387">
        <time>2018-01-21T13:31:46.000Z</time>
      </trkpt>
      <trkpt lat="47.55317" lon="-3.10386">
        <time>2018-01-21T13:31:47.000Z</time>
      </trkpt>
      <trkpt lat="47.55308" lon="-3.10384">
        <time>2018-01-21T13:31:48.000Z</time>
      </trkpt>
      <trkpt lat="47.55299" lon="-3.10382">
        <time>2018-01-21T13:31:49.000Z</time>
      </trkpt>
      <trkpt lat="47.5529" lon="-3.1038">
        <time>2018-01-21T13:31:50.000Z</time>
      </trkpt>
      <trkpt lat="47.55281" lon="-3.10379">
        <time>2018-01-21T13:31:51.000Z</time>
      </trkpt>
      <trkpt lat="47.55272" lon="-3.10378">
        <time>2018-01-21T13:31:52.000Z</time>
      </trkpt>
      <trkpt lat="47.55263" lon="-3.10376">
        <time>2018-01-21T13:31:53.000Z</time>
      </trkpt>
      <trkpt lat="47.55255" lon="-3.10375">
        <time>2018-01-21T13:31:54.000Z</time>
      </trkpt>
      <trkpt lat="47.55246" lon="-3.10375">
        <time>2018-01-21T13:31:55.000Z</time>
      </trkpt>
      <trkpt lat="47.55237" lon="-3.10374">
        <time>2018-01-21T13:31:56.000Z</time>
      </trkpt>
      <trkpt lat="47.55229" lon="-3.10374">
        <time>2018-01-21T13:31:57.000Z</time>
      </trkpt>
      <trkpt lat="47.5522" lon="-3.10373">
        <time>2018-01-21T13:31:58.000Z</time>
      </trkpt>
      <trkpt lat="47.5521" lon="-3.1037">
        <time>2018-01-21T13:31:59.000Z</time>
      </trkpt>
      <trkpt lat="47.55201" lon="-3.10369">
        <time>2018-01-21T13:32:00.000Z</time>
      </trkpt>
      <trkpt lat="47.55192" lon="-3.10368">
        <time>2018-01-21T13:32:01.000Z</time>
      </trkpt>
      <trkpt lat="47.55183" lon="-3.10367">
        <time>2018-01-21T13:32:02.000Z</time>
      </trkpt>
      <trkpt lat="47.55175" lon="-3.10366">
        <time>2018-01-21T13:32:03.000Z</time>
      </trkpt>
      <trkpt lat="47.55166" lon="-3.10365">
        <time>2018-01-21T13:32:04.000Z</time>
      </trkpt>
      <trkpt lat="47.55157" lon="-3.10365">
        <time>2018-01-21T13:32:05.000Z</time>
      </trkpt>
      <trkpt lat="47.55149" lon="-3.10365">
        <time>2018-01-21T13:32:06.000Z</time>
      </trkpt>
      <trkpt lat="47.5514" lon="-3.10365">
        <time>2018-01-21T13:32:07.000Z</time>
      </trkpt>
      <trkpt lat="47.55131" lon="-3.10365">
        <time>2018-01-21T13:32:08.000Z</time>
      </trkpt>
      <trkpt lat="47.55122" lon="-3.10365">
        <time>2018-01-21T13:32:09.000Z</time>
      </trkpt>
      <trkpt lat="47.55114" lon="-3.10365">
        <time>2018-01-21T13:32:10.000Z</time>
      </trkpt>
      <trkpt lat="47.55106" lon="-3.10365">
        <time>2018-01-21T13:32:11.000Z</time>
      </trkpt>
      <trkpt lat="47.55098" lon="-3.10364">
        <time>2018-01-21T13:32:12.000Z</time>
      </trkpt>
      <trkpt lat="47.5509" lon="-3.10363">
        <time>2018-01-21T13:32:13.000Z</time>
      </trkpt>
      <trkpt lat="47.55082" lon="-3.10362">
        <time>2018-01-21T13:32:14.000Z</time>
      </trkpt>
      <trkpt lat="47.55074" lon="-3.10361">
        <time>2018-01-21T13:32:15.000Z</time>
      </trkpt>
      <trkpt lat="47.55066" lon="-3.1036">
        <time>2018-01-21T13:32:16.000Z</time>
      </trkpt>
      <trkpt lat="47.55057" lon="-3.1036">
        <time>2018-01-21T13:32:17.000Z</time>
      </trkpt>
      <trkpt lat="47.55048" lon="-3.1036">
        <time>2018-01-21T13:32:18.000Z</time>
      </trkpt>
      <trkpt lat="47.5504" lon="-3.10359">
        <time>2018-01-21T13:32:19.000Z</time>
      </trkpt>
      <trkpt lat="47.55031" lon="-3.10358">
        <time>2018-01-21T13:32:20.000Z</time>
      </trkpt>
      <trkpt lat="47.55022" lon="-3.10357">
        <time>2018-01-21T13:32:21.000Z</time>
      </trkpt>
      <trkpt lat="47.55013" lon="-3.10355">
        <time>2018-01-21T13:32:22.000Z</time>
      </trkpt>
      <trkpt lat="47.55004" lon="-3.10354">
        <time>2018-01-21T13:32:23.000Z</time>
      </trkpt>
      <trkpt lat="47.54995" lon="-3.10352">
        <time>2018-01-21T13:32:24.000Z</time>
      </trkpt>
      <trkpt lat="47.54987" lon="-3.10351">
        <time>2018-01-21T13:32:25.000Z</time>
      </trkpt>
      <trkpt lat="47.54978" lon="-3.1035">
        <time>2018-01-21T13:32:26.000Z</time>
      </trkpt>
      <trkpt lat="47.54968" lon="-3.1035">
        <time>2018-01-21T13:32:27.000Z</time>
      </trkpt>
      <trkpt lat="47.54959" lon="-3.1035">
        <time>2018-01-21T13:32:28.000Z</time>
      </trkpt>
      <trkpt lat="47.5495" lon="-3.10349">
        <time>2018-01-21T13:32:29.000Z</time>
      </trkpt>
      <trkpt lat="47.54941" lon="-3.10349">
        <time>2018-01-21T13:32:30.000Z</time>
      </trkpt>
      <trkpt lat="47.54933" lon="-3.10348">
        <time>2018-01-21T13:32:31.000Z</time>
      </trkpt>
      <trkpt lat="47.54924" lon="-3.1035">
        <time>2018-01-21T13:32:32.000Z</time>
      </trkpt>
      <trkpt lat="47.54916" lon="-3.10349">
        <time>2018-01-21T13:32:33.000Z</time>
      </trkpt>
      <trkpt lat="47.54907" lon="-3.10348">
        <time>2018-01-21T13:32:34.000Z</time>
      </trkpt>
      <trkpt lat="47.54897" lon="-3.10347">
        <time>2018-01-21T13:32:35.000Z</time>
      </trkpt>
      <trkpt lat="47.54889" lon="-3.10348">
        <time>2018-01-21T13:32:36.000Z</time>
      </trkpt>
      <trkpt lat="47.54881" lon="-3.10348">
        <time>2018-01-21T13:32:37.000Z</time>
      </trkpt>
      <trkpt lat="47.54872" lon="-3.10349">
        <time>2018-01-21T13:32:38.000Z</time>
      </trkpt>
      <trkpt lat="47.54864" lon="-3.10348">
        <time>2018-01-21T13:32:39.000Z</time>
      </trkpt>
      <trkpt lat="47.54856" lon="-3.10348">
        <time>2018-01-21T13:32:40.000Z</time>
      </trkpt>
      <trkpt lat="47.54848" lon="-3.10346">
        <time>2018-01-21T13:32:41.000Z</time>
      </trkpt>
      <trkpt lat="47.5484" lon="-3.10344">
        <time>2018-01-21T13:32:42.000Z</time>
      </trkpt>
      <trkpt lat="47.54829" lon="-3.10341">
        <time>2018-01-21T13:32:43.000Z</time>
      </trkpt>
      <trkpt lat="47.54819" lon="-3.1034">
        <time>2018-01-21T13:32:44.000Z</time>
      </trkpt>
      <trkpt lat="47.54809" lon="-3.10338">
        <time>2018-01-21T13:32:45.000Z</time>
      </trkpt>
      <trkpt lat="47.54799" lon="-3.10337">
        <time>2018-01-21T13:32:46.000Z</time>
      </trkpt>
      <trkpt lat="47.5479" lon="-3.10336">
        <time>2018-01-21T13:32:47.000Z</time>
      </trkpt>
      <trkpt lat="47.54782" lon="-3.10337">
        <time>2018-01-21T13:32:48.000Z</time>
      </trkpt>
      <trkpt lat="47.54771" lon="-3.10332">
        <time>2018-01-21T13:32:49.000Z</time>
      </trkpt>
      <trkpt lat="47.54763" lon="-3.10332">
        <time>2018-01-21T13:32:50.000Z</time>
      </trkpt>
      <trkpt lat="47.54755" lon="-3.10331">
        <time>2018-01-21T13:32:51.000Z</time>
      </trkpt>
      <trkpt lat="47.54746" lon="-3.10331">
        <time>2018-01-21T13:32:52.000Z</time>
      </trkpt>
      <trkpt lat="47.54737" lon="-3.1033">
        <time>2018-01-21T13:32:53.000Z</time>
      </trkpt>
      <trkpt lat="47.54728" lon="-3.1033">
        <time>2018-01-21T13:32:54.000Z</time>
      </trkpt>
      <trkpt lat="47.54719" lon="-3.10329">
        <time>2018-01-21T13:32:55.000Z</time>
      </trkpt>
      <trkpt lat="47.5471" lon="-3.10329">
        <time>2018-01-21T13:32:56.000Z</time>
      </trkpt>
      <trkpt lat="47.54701" lon="-3.10328">
        <time>2018-01-21T13:32:57.000Z</time>
      </trkpt>
      <trkpt lat="47.54693" lon="-3.10328">
        <time>2018-01-21T13:32:58.000Z</time>
      </trkpt>
      <trkpt lat="47.54685" lon="-3.10327">
        <time>2018-01-21T13:32:59.000Z</time>
      </trkpt>
      <trkpt lat="47.54676" lon="-3.10326">
        <time>2018-01-21T13:33:00.000Z</time>
      </trkpt>
      <trkpt lat="47.54668" lon="-3.10325">
        <time>2018-01-21T13:33:01.000Z</time>
      </trkpt>
      <trkpt lat="47.54659" lon="-3.10324">
        <time>2018-01-21T13:33:02.000Z</time>
      </trkpt>
      <trkpt lat="47.54651" lon="-3.10322">
        <time>2018-01-21T13:33:03.000Z</time>
      </trkpt>
      <trkpt lat="47.54643" lon="-3.10322">
        <time>2018-01-21T13:33:04.000Z</time>
      </trkpt>
      <trkpt lat="47.54635" lon="-3.10321">
        <time>2018-01-21T13:33:05.000Z</time>
      </trkpt>
      <trkpt lat="47.54627" lon="-3.10319">
        <time>2018-01-21T13:33:06.000Z</time>
      </trkpt>
      <trkpt lat="47.54619" lon="-3.10318">
        <time>2018-01-21T13:33:07.000Z</time>
      </trkpt>
      <trkpt lat="47.54611" lon="-3.10318">
        <time>2018-01-21T13:33:08.000Z</time>
      </trkpt>
      <trkpt lat="47.54604" lon="-3.10317">
        <time>2018-01-21T13:33:09.000Z</time>
      </trkpt>
      <trkpt lat="47.54596" lon="-3.10316">
        <time>2018-01-21T13:33:10.000Z</time>
      </trkpt>
      <trkpt lat="47.54588" lon="-3.10314">
        <time>2018-01-21T13:33:11.000Z</time>
      </trkpt>
      <trkpt lat="47.5458" lon="-3.10312">
        <time>2018-01-21T13:33:12.000Z</time>
      </trkpt>
      <trkpt lat="47.54572" lon="-3.1031">
        <time>2018-01-21T13:33:13.000Z</time>
      </trkpt>
      <trkpt lat="47.54565" lon="-3.10308">
        <time>2018-01-21T13:33:14.000Z</time>
      </trkpt>
      <trkpt lat="47.54557" lon="-3.10307">
        <time>2018-01-21T13:33:15.000Z</time>
      </trkpt>
      <trkpt lat="47.54549" lon="-3.10305">
        <time>2018-01-21T13:33:16.000Z</time>
      </trkpt>
      <trkpt lat="47.54541" lon="-3.10303">
        <time>2018-01-21T13:33:17.000Z</time>
      </trkpt>
      <trkpt lat="47.54533" lon="-3.10302">
        <time>2018-01-21T13:33:18.000Z</time>
      </trkpt>
      <trkpt lat="47.54525" lon="-3.10299">
        <time>2018-01-21T13:33:19.000Z</time>
      </trkpt>
      <trkpt lat="47.54517" lon="-3.10297">
        <time>2018-01-21T13:33:20.000Z</time>
      </trkpt>
      <trkpt lat="47.54509" lon="-3.10295">
        <time>2018-01-21T13:33:21.000Z</time>
      </trkpt>
      <trkpt lat="47.545" lon="-3.10293">
        <time>2018-01-21T13:33:22.000Z</time>
      </trkpt>
      <trkpt lat="47.5449" lon="-3.10287">
        <time>2018-01-21T13:33:23.000Z</time>
      </trkpt>
      <trkpt lat="47.54481" lon="-3.10282">
        <time>2018-01-21T13:33:24.000Z</time>
      </trkpt>
      <trkpt lat="47.54473" lon="-3.10281">
        <time>2018-01-21T13:33:25.000Z</time>
      </trkpt>
      <trkpt lat="47.54465" lon="-3.1028">
        <time>2018-01-21T13:33:26.000Z</time>
      </trkpt>
      <trkpt lat="47.54457" lon="-3.10279">
        <time>2018-01-21T13:33:27.000Z</time>
      </trkpt>
      <trkpt lat="47.54448" lon="-3.10278">
        <time>2018-01-21T13:33:28.000Z</time>
      </trkpt>
      <trkpt lat="47.54439" lon="-3.10276">
        <time>2018-01-21T13:33:29.000Z</time>
      </trkpt>
      <trkpt lat="47.54431" lon="-3.10274">
        <time>2018-01-21T13:33:30.000Z</time>
      </trkpt>
      <trkpt lat="47.54422" lon="-3.10272">
        <time>2018-01-21T13:33:31.000Z</time>
      </trkpt>
      <trkpt lat="47.54414" lon="-3.10271">
        <time>2018-01-21T13:33:32.000Z</time>
      </trkpt>
      <trkpt lat="47.54405" lon="-3.1027">
        <time>2018-01-21T13:33:33.000Z</time>
      </trkpt>
      <trkpt lat="47.54396" lon="-3.10268">
        <time>2018-01-21T13:33:34.000Z</time>
      </trkpt>
      <trkpt lat="47.54387" lon="-3.10266">
        <time>2018-01-21T13:33:35.000Z</time>
      </trkpt>
      <trkpt lat="47.54378" lon="-3.10265">
        <time>2018-01-21T13:33:36.000Z</time>
      </trkpt>
      <trkpt lat="47.5437" lon="-3.10263">
        <time>2018-01-21T13:33:37.000Z</time>
      </trkpt>
      <trkpt lat="47.54361" lon="-3.10261">
        <time>2018-01-21T13:33:38.000Z</time>
      </trkpt>
      <trkpt lat="47.54351" lon="-3.10262">
        <time>2018-01-21T13:33:39.000Z</time>
      </trkpt>
      <trkpt lat="47.54343" lon="-3.10263">
        <time>2018-01-21T13:33:40.000Z</time>
      </trkpt>
      <trkpt lat="47.54335" lon="-3.10267">
        <time>2018-01-21T13:33:41.000Z</time>
      </trkpt>
      <trkpt lat="47.54326" lon="-3.10267">
        <time>2018-01-21T13:33:42.000Z</time>
      </trkpt>
      <trkpt lat="47.54318" lon="-3.10267">
        <time>2018-01-21T13:33:43.000Z</time>
      </trkpt>
      <trkpt lat="47.54309" lon="-3.10267">
        <time>2018-01-21T13:33:44.000Z</time>
      </trkpt>
      <trkpt lat="47.54301" lon="-3.10267">
        <time>2018-01-21T13:33:45.000Z</time>
      </trkpt>
      <trkpt lat="47.54293" lon="-3.10265">
        <time>2018-01-21T13:33:46.000Z</time>
      </trkpt>
      <trkpt lat="47.54284" lon="-3.10263">
        <time>2018-01-21T13:33:47.000Z</time>
      </trkpt>
      <trkpt lat="47.54276" lon="-3.10262">
        <time>2018-01-21T13:33:48.000Z</time>
      </trkpt>
      <trkpt lat="47.54268" lon="-3.1026">
        <time>2018-01-21T13:33:49.000Z</time>
      </trkpt>
      <trkpt lat="47.5426" lon="-3.1026">
        <time>2018-01-21T13:33:50.000Z</time>
      </trkpt>
      <trkpt lat="47.54252" lon="-3.10259">
        <time>2018-01-21T13:33:51.000Z</time>
      </trkpt>
      <trkpt lat="47.54244" lon="-3.10258">
        <time>2018-01-21T13:33:52.000Z</time>
      </trkpt>
      <trkpt lat="47.54235" lon="-3.10257">
        <time>2018-01-21T13:33:53.000Z</time>
      </trkpt>
      <trkpt lat="47.54227" lon="-3.10255">
        <time>2018-01-21T13:33:54.000Z</time>
      </trkpt>
      <trkpt lat="47.54219" lon="-3.10253">
        <time>2018-01-21T13:33:55.000Z</time>
      </trkpt>
      <trkpt lat="47.5421" lon="-3.10252">
        <time>2018-01-21T13:33:56.000Z</time>
      </trkpt>
      <trkpt lat="47.54202" lon="-3.1025">
        <time>2018-01-21T13:33:57.000Z</time>
      </trkpt>
      <trkpt lat="47.54194" lon="-3.10247">
        <time>2018-01-21T13:33:58.000Z</time>
      </trkpt>
      <trkpt lat="47.54186" lon="-3.10246">
        <time>2018-01-21T13:33:59.000Z</time>
      </trkpt>
      <trkpt lat="47.54177" lon="-3.10244">
        <time>2018-01-21T13:34:00.000Z</time>
      </trkpt>
      <trkpt lat="47.54169" lon="-3.10244">
        <time>2018-01-21T13:34:01.000Z</time>
      </trkpt>
      <trkpt lat="47.5416" lon="-3.10242">
        <time>2018-01-21T13:34:02.000Z</time>
      </trkpt>
      <trkpt lat="47.54151" lon="-3.10241">
        <time>2018-01-21T13:34:03.000Z</time>
      </trkpt>
      <trkpt lat="47.54142" lon="-3.1024">
        <time>2018-01-21T13:34:04.000Z</time>
      </trkpt>
      <trkpt lat="47.54133" lon="-3.10238">
        <time>2018-01-21T13:34:05.000Z</time>
      </trkpt>
      <trkpt lat="47.54124" lon="-3.10235">
        <time>2018-01-21T13:34:06.000Z</time>
      </trkpt>
      <trkpt lat="47.54116" lon="-3.10233">
        <time>2018-01-21T13:34:07.000Z</time>
      </trkpt>
      <trkpt lat="47.54107" lon="-3.10231">
        <time>2018-01-21T13:34:08.000Z</time>
      </trkpt>
      <trkpt lat="47.54098" lon="-3.10229">
        <time>2018-01-21T13:34:09.000Z</time>
      </trkpt>
      <trkpt lat="47.54089" lon="-3.10229">
        <time>2018-01-21T13:34:10.000Z</time>
      </trkpt>
      <trkpt lat="47.5408" lon="-3.10228">
        <time>2018-01-21T13:34:11.000Z</time>
      </trkpt>
      <trkpt lat="47.54071" lon="-3.10227">
        <time>2018-01-21T13:34:12.000Z</time>
      </trkpt>
      <trkpt lat="47.54063" lon="-3.10226">
        <time>2018-01-21T13:34:13.000Z</time>
      </trkpt>
      <trkpt lat="47.54054" lon="-3.10225">
        <time>2018-01-21T13:34:14.000Z</time>
      </trkpt>
      <trkpt lat="47.54047" lon="-3.10224">
        <time>2018-01-21T13:34:15.000Z</time>
      </trkpt>
      <trkpt lat="47.54039" lon="-3.10225">
        <time>2018-01-21T13:34:16.000Z</time>
      </trkpt>
      <trkpt lat="47.54031" lon="-3.10224">
        <time>2018-01-21T13:34:17.000Z</time>
      </trkpt>
      <trkpt lat="47.54022" lon="-3.10223">
        <time>2018-01-21T13:34:18.000Z</time>
      </trkpt>
      <trkpt lat="47.54014" lon="-3.10223">
        <time>2018-01-21T13:34:19.000Z</time>
      </trkpt>
      <trkpt lat="47.54005" lon="-3.10223">
        <time>2018-01-21T13:34:20.000Z</time>
      </trkpt>
      <trkpt lat="47.53996" lon="-3.10223">
        <time>2018-01-21T13:34:21.000Z</time>
      </trkpt>
      <trkpt lat="47.53987" lon="-3.10222">
        <time>2018-01-21T13:34:22.000Z</time>
      </trkpt>
      <trkpt lat="47.53978" lon="-3.10221">
        <time>2018-01-21T13:34:23.000Z</time>
      </trkpt>
      <trkpt lat="47.53969" lon="-3.1022">
        <time>2018-01-21T13:34:24.000Z</time>
      </trkpt>
      <trkpt lat="47.5396" lon="-3.10218">
        <time>2018-01-21T13:34:25.000Z</time>
      </trkpt>
      <trkpt lat="47.53951" lon="-3.10215">
        <time>2018-01-21T13:34:26.000Z</time>
      </trkpt>
      <trkpt lat="47.53941" lon="-3.10214">
        <time>2018-01-21T13:34:27.000Z</time>
      </trkpt>
      <trkpt lat="47.53932" lon="-3.10211">
        <time>2018-01-21T13:34:28.000Z</time>
      </trkpt>
      <trkpt lat="47.53924" lon="-3.10208">
        <time>2018-01-21T13:34:29.000Z</time>
      </trkpt>
      <trkpt lat="47.53917" lon="-3.10206">
        <time>2018-01-21T13:34:30.000Z</time>
      </trkpt>
      <trkpt lat="47.53909" lon="-3.10204">
        <time>2018-01-21T13:34:31.000Z</time>
      </trkpt>
      <trkpt lat="47.53901" lon="-3.10202">
        <time>2018-01-21T13:34:32.000Z</time>
      </trkpt>
      <trkpt lat="47.53893" lon="-3.10199">
        <time>2018-01-21T13:34:33.000Z</time>
      </trkpt>
      <trkpt lat="47.53884" lon="-3.10196">
        <time>2018-01-21T13:34:34.000Z</time>
      </trkpt>
      <trkpt lat="47.53874" lon="-3.10193">
        <time>2018-01-21T13:34:35.000Z</time>
      </trkpt>
      <trkpt lat="47.53866" lon="-3.10189">
        <time>2018-01-21T13:34:36.000Z</time>
      </trkpt>
      <trkpt lat="47.53856" lon="-3.10186">
        <time>2018-01-21T13:34:37.000Z</time>
      </trkpt>
      <trkpt lat="47.53847" lon="-3.10184">
        <time>2018-01-21T13:34:38.000Z</time>
      </trkpt>
      <trkpt lat="47.53837" lon="-3.10181">
        <time>2018-01-21T13:34:39.000Z</time>
      </trkpt>
      <trkpt lat="47.53827" lon="-3.10178">
        <time>2018-01-21T13:34:40.000Z</time>
      </trkpt>
      <trkpt lat="47.53817" lon="-3.10176">
        <time>2018-01-21T13:34:41.000Z</time>
      </trkpt>
      <trkpt lat="47.53809" lon="-3.10174">
        <time>2018-01-21T13:34:42.000Z</time>
      </trkpt>
      <trkpt lat="47.53799" lon="-3.1017">
        <time>2018-01-21T13:34:43.000Z</time>
      </trkpt>
      <trkpt lat="47.53791" lon="-3.10167">
        <time>2018-01-21T13:34:44.000Z</time>
      </trkpt>
      <trkpt lat="47.53782" lon="-3.10164">
        <time>2018-01-21T13:34:45.000Z</time>
      </trkpt>
      <trkpt lat="47.53775" lon="-3.10159">
        <time>2018-01-21T13:34:46.000Z</time>
      </trkpt>
      <trkpt lat="47.53767" lon="-3.10155">
        <time>2018-01-21T13:34:47.000Z</time>
      </trkpt>
      <trkpt lat="47.5376" lon="-3.10151">
        <time>2018-01-21T13:34:48.000Z</time>
      </trkpt>
      <trkpt lat="47.53753" lon="-3.10145">
        <time>2018-01-21T13:34:49.000Z</time>
      </trkpt>
      <trkpt lat="47.53747" lon="-3.10138">
        <time>2018-01-21T13:34:50.000Z</time>
      </trkpt>
      <trkpt lat="47.5374" lon="-3.1013">
        <time>2018-01-21T13:34:51.000Z</time>
      </trkpt>
      <trkpt lat="47.53733" lon="-3.10121">
        <time>2018-01-21T13:34:52.000Z</time>
      </trkpt>
      <trkpt lat="47.53728" lon="-3.10112">
        <time>2018-01-21T13:34:53.000Z</time>
      </trkpt>
      <trkpt lat="47.53723" lon="-3.10102">
        <time>2018-01-21T13:34:54.000Z</time>
      </trkpt>
      <trkpt lat="47.53721" lon="-3.10093">
        <time>2018-01-21T13:34:55.000Z</time>
      </trkpt>
      <trkpt lat="47.53719" lon="-3.10083">
        <time>2018-01-21T13:34:56.000Z</time>
      </trkpt>
      <trkpt lat="47.5372" lon="-3.10074">
        <time>2018-01-21T13:34:57.000Z</time>
      </trkpt>
      <trkpt lat="47.53721" lon="-3.10067">
        <time>2018-01-21T13:34:58.000Z</time>
      </trkpt>
      <trkpt lat="47.53721" lon="-3.10063">
        <time>2018-01-21T13:34:59.000Z</time>
      </trkpt>
      <trkpt lat="47.53723" lon="-3.10062">
        <time>2018-01-21T13:35:00.000Z</time>
      </trkpt>
      <trkpt lat="47.53724" lon="-3.10062">
        <time>2018-01-21T13:35:01.000Z</time>
      </trkpt>
      <trkpt lat="47.53725" lon="-3.10062">
        <time>2018-01-21T13:35:02.000Z</time>
      </trkpt>
      <trkpt lat="47.53727" lon="-3.10064">
        <time>2018-01-21T13:35:03.000Z</time>
      </trkpt>
      <trkpt lat="47.5373" lon="-3.10065">
        <time>2018-01-21T13:35:04.000Z</time>
      </trkpt>
      <trkpt lat="47.53732" lon="-3.10067">
        <time>2018-01-21T13:35:05.000Z</time>
      </trkpt>
      <trkpt lat="47.53736" lon="-3.10068">
        <time>2018-01-21T13:35:06.000Z</time>
      </trkpt>
      <trkpt lat="47.5374" lon="-3.1007">
        <time>2018-01-21T13:35:07.000Z</time>
      </trkpt>
      <trkpt lat="47.53743" lon="-3.10072">
        <time>2018-01-21T13:35:08.000Z</time>
      </trkpt>
      <trkpt lat="47.53746" lon="-3.10074">
        <time>2018-01-21T13:35:09.000Z</time>
      </trkpt>
      <trkpt lat="47.53751" lon="-3.10075">
        <time>2018-01-21T13:35:10.000Z</time>
      </trkpt>
      <trkpt lat="47.53755" lon="-3.10077">
        <time>2018-01-21T13:35:11.000Z</time>
      </trkpt>
      <trkpt lat="47.53759" lon="-3.10079">
        <time>2018-01-21T13:35:12.000Z</time>
      </trkpt>
      <trkpt lat="47.53763" lon="-3.10081">
        <time>2018-01-21T13:35:13.000Z</time>
      </trkpt>
      <trkpt lat="47.53767" lon="-3.10083">
        <time>2018-01-21T13:35:14.000Z</time>
      </trkpt>
      <trkpt lat="47.5377" lon="-3.10084">
        <time>2018-01-21T13:35:15.000Z</time>
      </trkpt>
      <trkpt lat="47.53775" lon="-3.10084">
        <time>2018-01-21T13:35:16.000Z</time>
      </trkpt>
      <trkpt lat="47.5378" lon="-3.10085">
        <time>2018-01-21T13:35:17.000Z</time>
      </trkpt>
      <trkpt lat="47.53785" lon="-3.10085">
        <time>2018-01-21T13:35:18.000Z</time>
      </trkpt>
      <trkpt lat="47.5379" lon="-3.10085">
        <time>2018-01-21T13:35:19.000Z</time>
      </trkpt>
      <trkpt lat="47.53795" lon="-3.10086">
        <time>2018-01-21T13:35:20.000Z</time>
      </trkpt>
      <trkpt lat="47.53801" lon="-3.10086">
        <time>2018-01-21T13:35:21.000Z</time>
      </trkpt>
      <trkpt lat="47.53806" lon="-3.10086">
        <time>2018-01-21T13:35:22.000Z</time>
      </trkpt>
      <trkpt lat="47.53812" lon="-3.10085">
        <time>2018-01-21T13:35:23.000Z</time>
      </trkpt>
      <trkpt lat="47.53819" lon="-3.10084">
        <time>2018-01-21T13:35:24.000Z</time>
      </trkpt>
      <trkpt lat="47.53825" lon="-3.10082">
        <time>2018-01-21T13:35:25.000Z</time>
      </trkpt>
      <trkpt lat="47.53833" lon="-3.10081">
        <time>2018-01-21T13:35:26.000Z</time>
      </trkpt>
      <trkpt lat="47.5384" lon="-3.10082">
        <time>2018-01-21T13:35:27.000Z</time>
      </trkpt>
      <trkpt lat="47.53848" lon="-3.10083">
        <time>2018-01-21T13:35:28.000Z</time>
      </trkpt>
      <trkpt lat="47.53856" lon="-3.10084">
        <time>2018-01-21T13:35:29.000Z</time>
      </trkpt>
      <trkpt lat="47.53864" lon="-3.10086">
        <time>2018-01-21T13:35:30.000Z</time>
      </trkpt>
      <trkpt lat="47.53871" lon="-3.10089">
        <time>2018-01-21T13:35:31.000Z</time>
      </trkpt>
      <trkpt lat="47.53879" lon="-3.10092">
        <time>2018-01-21T13:35:32.000Z</time>
      </trkpt>
      <trkpt lat="47.53888" lon="-3.10093">
        <time>2018-01-21T13:35:33.000Z</time>
      </trkpt>
      <trkpt lat="47.53896" lon="-3.10095">
        <time>2018-01-21T13:35:34.000Z</time>
      </trkpt>
      <trkpt lat="47.53904" lon="-3.10097">
        <time>2018-01-21T13:35:35.000Z</time>
      </trkpt>
      <trkpt lat="47.53911" lon="-3.10099">
        <time>2018-01-21T13:35:36.000Z</time>
      </trkpt>
      <trkpt lat="47.53918" lon="-3.10101">
        <time>2018-01-21T13:35:37.000Z</time>
      </trkpt>
      <trkpt lat="47.53924" lon="-3.10103">
        <time>2018-01-21T13:35:38.000Z</time>
      </trkpt>
      <trkpt lat="47.53929" lon="-3.10104">
        <time>2018-01-21T13:35:39.000Z</time>
      </trkpt>
      <trkpt lat="47.53935" lon="-3.10104">
        <time>2018-01-21T13:35:40.000Z</time>
      </trkpt>
      <trkpt lat="47.53942" lon="-3.10105">
        <time>2018-01-21T13:35:41.000Z</time>
      </trkpt>
      <trkpt lat="47.53949" lon="-3.10106">
        <time>2018-01-21T13:35:42.000Z</time>
      </trkpt>
      <trkpt lat="47.53956" lon="-3.10106">
        <time>2018-01-21T13:35:43.000Z</time>
      </trkpt>
      <trkpt lat="47.53964" lon="-3.10104">
        <time>2018-01-21T13:35:44.000Z</time>
      </trkpt>
      <trkpt lat="47.53971" lon="-3.10104">
        <time>2018-01-21T13:35:45.000Z</time>
      </trkpt>
      <trkpt lat="47.53979" lon="-3.10104">
        <time>2018-01-21T13:35:46.000Z</time>
      </trkpt>
      <trkpt lat="47.53987" lon="-3.10104">
        <time>2018-01-21T13:35:47.000Z</time>
      </trkpt>
      <trkpt lat="47.53995" lon="-3.10104">
        <time>2018-01-21T13:35:48.000Z</time>
      </trkpt>
      <trkpt lat="47.54003" lon="-3.10104">
        <time>2018-01-21T13:35:49.000Z</time>
      </trkpt>
      <trkpt lat="47.54011" lon="-3.10104">
        <time>2018-01-21T13:35:50.000Z</time>
      </trkpt>
      <trkpt lat="47.5402" lon="-3.10103">
        <time>2018-01-21T13:35:51.000Z</time>
      </trkpt>
      <trkpt lat="47.54028" lon="-3.10105">
        <time>2018-01-21T13:35:52.000Z</time>
      </trkpt>
      <trkpt lat="47.54036" lon="-3.10105">
        <time>2018-01-21T13:35:53.000Z</time>
      </trkpt>
      <trkpt lat="47.54045" lon="-3.10105">
        <time>2018-01-21T13:35:54.000Z</time>
      </trkpt>
      <trkpt lat="47.54054" lon="-3.10106">
        <time>2018-01-21T13:35:55.000Z</time>
      </trkpt>
      <trkpt lat="47.54063" lon="-3.10106">
        <time>2018-01-21T13:35:56.000Z</time>
      </trkpt>
      <trkpt lat="47.54072" lon="-3.10107">
        <time>2018-01-21T13:35:57.000Z</time>
      </trkpt>
      <trkpt lat="47.54081" lon="-3.10109">
        <time>2018-01-21T13:35:58.000Z</time>
      </trkpt>
      <trkpt lat="47.54089" lon="-3.10111">
        <time>2018-01-21T13:35:59.000Z</time>
      </trkpt>
      <trkpt lat="47.54097" lon="-3.10112">
        <time>2018-01-21T13:36:00.000Z</time>
      </trkpt>
      <trkpt lat="47.54106" lon="-3.10113">
        <time>2018-01-21T13:36:01.000Z</time>
      </trkpt>
      <trkpt lat="47.54114" lon="-3.10114">
        <time>2018-01-21T13:36:02.000Z</time>
      </trkpt>
      <trkpt lat="47.54123" lon="-3.10114">
        <time>2018-01-21T13:36:03.000Z</time>
      </trkpt>
      <trkpt lat="47.54131" lon="-3.10116">
        <time>2018-01-21T13:36:04.000Z</time>
      </trkpt>
      <trkpt lat="47.5414" lon="-3.10118">
        <time>2018-01-21T13:36:05.000Z</time>
      </trkpt>
      <trkpt lat="47.54149" lon="-3.1012">
        <time>2018-01-21T13:36:06.000Z</time>
      </trkpt>
      <trkpt lat="47.54156" lon="-3.10123">
        <time>2018-01-21T13:36:07.000Z</time>
      </trkpt>
      <trkpt lat="47.54164" lon="-3.10125">
        <time>2018-01-21T13:36:08.000Z</time>
      </trkpt>
      <trkpt lat="47.54172" lon="-3.10126">
        <time>2018-01-21T13:36:09.000Z</time>
      </trkpt>
      <trkpt lat="47.5418" lon="-3.10127">
        <time>2018-01-21T13:36:10.000Z</time>
      </trkpt>
      <trkpt lat="47.54188" lon="-3.10128">
        <time>2018-01-21T13:36:11.000Z</time>
      </trkpt>
      <trkpt lat="47.54196" lon="-3.10129">
        <time>2018-01-21T13:36:12.000Z</time>
      </trkpt>
      <trkpt lat="47.54205" lon="-3.10131">
        <time>2018-01-21T13:36:13.000Z</time>
      </trkpt>
      <trkpt lat="47.54215" lon="-3.10131">
        <time>2018-01-21T13:36:14.000Z</time>
      </trkpt>
      <trkpt lat="47.54223" lon="-3.10133">
        <time>2018-01-21T13:36:15.000Z</time>
      </trkpt>
      <trkpt lat="47.5423" lon="-3.10138">
        <time>2018-01-21T13:36:16.000Z</time>
      </trkpt>
      <trkpt lat="47.54236" lon="-3.10142">
        <time>2018-01-21T13:36:17.000Z</time>
      </trkpt>
      <trkpt lat="47.54243" lon="-3.10144">
        <time>2018-01-21T13:36:18.000Z</time>
      </trkpt>
      <trkpt lat="47.5425" lon="-3.10147">
        <time>2018-01-21T13:36:19.000Z</time>
      </trkpt>
      <trkpt lat="47.54257" lon="-3.10146">
        <time>2018-01-21T13:36:20.000Z</time>
      </trkpt>
      <trkpt lat="47.54265" lon="-3.10148">
        <time>2018-01-21T13:36:21.000Z</time>
      </trkpt>
      <trkpt lat="47.54272" lon="-3.1015">
        <time>2018-01-21T13:36:22.000Z</time>
      </trkpt>
      <trkpt lat="47.54279" lon="-3.10151">
        <time>2018-01-21T13:36:23.000Z</time>
      </trkpt>
      <trkpt lat="47.54287" lon="-3.10153">
        <time>2018-01-21T13:36:24.000Z</time>
      </trkpt>
      <trkpt lat="47.54295" lon="-3.10155">
        <time>2018-01-21T13:36:25.000Z</time>
      </trkpt>
      <trkpt lat="47.54303" lon="-3.10157">
        <time>2018-01-21T13:36:26.000Z</time>
      </trkpt>
      <trkpt lat="47.54313" lon="-3.10158">
        <time>2018-01-21T13:36:27.000Z</time>
      </trkpt>
      <trkpt lat="47.54322" lon="-3.10159">
        <time>2018-01-21T13:36:28.000Z</time>
      </trkpt>
      <trkpt lat="47.54331" lon="-3.10161">
        <time>2018-01-21T13:36:29.000Z</time>
      </trkpt>
      <trkpt lat="47.54341" lon="-3.10161">
        <time>2018-01-21T13:36:30.000Z</time>
      </trkpt>
      <trkpt lat="47.54353" lon="-3.10157">
        <time>2018-01-21T13:36:31.000Z</time>
      </trkpt>
      <trkpt lat="47.54362" lon="-3.1016">
        <time>2018-01-21T13:36:32.000Z</time>
      </trkpt>
      <trkpt lat="47.54371" lon="-3.10163">
        <time>2018-01-21T13:36:33.000Z</time>
      </trkpt>
      <trkpt lat="47.5438" lon="-3.10164">
        <time>2018-01-21T13:36:34.000Z</time>
      </trkpt>
      <trkpt lat="47.54388" lon="-3.10166">
        <time>2018-01-21T13:36:35.000Z</time>
      </trkpt>
      <trkpt lat="47.54397" lon="-3.10167">
        <time>2018-01-21T13:36:36.000Z</time>
      </trkpt>
      <trkpt lat="47.54406" lon="-3.1017">
        <time>2018-01-21T13:36:37.000Z</time>
      </trkpt>
      <trkpt lat="47.54415" lon="-3.1017">
        <time>2018-01-21T13:36:38.000Z</time>
      </trkpt>
      <trkpt lat="47.54423" lon="-3.10172">
        <time>2018-01-21T13:36:39.000Z</time>
      </trkpt>
      <trkpt lat="47.54432" lon="-3.10174">
        <time>2018-01-21T13:36:40.000Z</time>
      </trkpt>
      <trkpt lat="47.5444" lon="-3.10177">
        <time>2018-01-21T13:36:41.000Z</time>
      </trkpt>
      <trkpt lat="47.54448" lon="-3.10179">
        <time>2018-01-21T13:36:42.000Z</time>
      </trkpt>
      <trkpt lat="47.54456" lon="-3.10182">
        <time>2018-01-21T13:36:43.000Z</time>
      </trkpt>
      <trkpt lat="47.54463" lon="-3.10186">
        <time>2018-01-21T13:36:44.000Z</time>
      </trkpt>
      <trkpt lat="47.5447" lon="-3.1019">
        <time>2018-01-21T13:36:45.000Z</time>
      </trkpt>
      <trkpt lat="47.54477" lon="-3.10193">
        <time>2018-01-21T13:36:46.000Z</time>
      </trkpt>
      <trkpt lat="47.54486" lon="-3.10196">
        <time>2018-01-21T13:36:47.000Z</time>
      </trkpt>
      <trkpt lat="47.54494" lon="-3.10198">
        <time>2018-01-21T13:36:48.000Z</time>
      </trkpt>
      <trkpt lat="47.54501" lon="-3.10202">
        <time>2018-01-21T13:36:49.000Z</time>
      </trkpt>
      <trkpt lat="47.54508" lon="-3.10205">
        <time>2018-01-21T13:36:50.000Z</time>
      </trkpt>
      <trkpt lat="47.54515" lon="-3.10207">
        <time>2018-01-21T13:36:51.000Z</time>
      </trkpt>
      <trkpt lat="47.54523" lon="-3.1021">
        <time>2018-01-21T13:36:52.000Z</time>
      </trkpt>
      <trkpt lat="47.5453" lon="-3.10211">
        <time>2018-01-21T13:36:53.000Z</time>
      </trkpt>
      <trkpt lat="47.54539" lon="-3.10212">
        <time>2018-01-21T13:36:54.000Z</time>
      </trkpt>
      <trkpt lat="47.54547" lon="-3.10213">
        <time>2018-01-21T13:36:55.000Z</time>
      </trkpt>
      <trkpt lat="47.54555" lon="-3.10215">
        <time>2018-01-21T13:36:56.000Z</time>
      </trkpt>
      <trkpt lat="47.54564" lon="-3.10216">
        <time>2018-01-21T13:36:57.000Z</time>
      </trkpt>
      <trkpt lat="47.54573" lon="-3.10216">
        <time>2018-01-21T13:36:58.000Z</time>
      </trkpt>
      <trkpt lat="47.5458" lon="-3.10218">
        <time>2018-01-21T13:36:59.000Z</time>
      </trkpt>
      <trkpt lat="47.54589" lon="-3.10218">
        <time>2018-01-21T13:37:00.000Z</time>
      </trkpt>
      <trkpt lat="47.54599" lon="-3.1022">
        <time>2018-01-21T13:37:01.000Z</time>
      </trkpt>
      <trkpt lat="47.54608" lon="-3.10222">
        <time>2018-01-21T13:37:02.000Z</time>
      </trkpt>
      <trkpt lat="47.54617" lon="-3.10223">
        <time>2018-01-21T13:37:03.000Z</time>
      </trkpt>
      <trkpt lat="47.54626" lon="-3.10224">
        <time>2018-01-21T13:37:04.000Z</time>
      </trkpt>
      <trkpt lat="47.54635" lon="-3.10226">
        <time>2018-01-21T13:37:05.000Z</time>
      </trkpt>
      <trkpt lat="47.54644" lon="-3.10227">
        <time>2018-01-21T13:37:06.000Z</time>
      </trkpt>
      <trkpt lat="47.54652" lon="-3.1023">
        <time>2018-01-21T13:37:07.000Z</time>
      </trkpt>
      <trkpt lat="47.54662" lon="-3.10232">
        <time>2018-01-21T13:37:08.000Z</time>
      </trkpt>
      <trkpt lat="47.5467" lon="-3.10233">
        <time>2018-01-21T13:37:09.000Z</time>
      </trkpt>
      <trkpt lat="47.5468" lon="-3.10234">
        <time>2018-01-21T13:37:10.000Z</time>
      </trkpt>
      <trkpt lat="47.54687" lon="-3.10236">
        <time>2018-01-21T13:37:11.000Z</time>
      </trkpt>
      <trkpt lat="47.54694" lon="-3.10238">
        <time>2018-01-21T13:37:12.000Z</time>
      </trkpt>
      <trkpt lat="47.54702" lon="-3.10241">
        <time>2018-01-21T13:37:13.000Z</time>
      </trkpt>
      <trkpt lat="47.5471" lon="-3.10245">
        <time>2018-01-21T13:37:14.000Z</time>
      </trkpt>
      <trkpt lat="47.54717" lon="-3.10248">
        <time>2018-01-21T13:37:15.000Z</time>
      </trkpt>
      <trkpt lat="47.54725" lon="-3.10251">
        <time>2018-01-21T13:37:16.000Z</time>
      </trkpt>
      <trkpt lat="47.54732" lon="-3.10254">
        <time>2018-01-21T13:37:17.000Z</time>
      </trkpt>
      <trkpt lat="47.54739" lon="-3.10257">
        <time>2018-01-21T13:37:18.000Z</time>
      </trkpt>
      <trkpt lat="47.54747" lon="-3.10259">
        <time>2018-01-21T13:37:19.000Z</time>
      </trkpt>
      <trkpt lat="47.54755" lon="-3.1026">
        <time>2018-01-21T13:37:20.000Z</time>
      </trkpt>
      <trkpt lat="47.54764" lon="-3.10262">
        <time>2018-01-21T13:37:21.000Z</time>
      </trkpt>
      <trkpt lat="47.54773" lon="-3.10264">
        <time>2018-01-21T13:37:22.000Z</time>
      </trkpt>
      <trkpt lat="47.54782" lon="-3.10266">
        <time>2018-01-21T13:37:23.000Z</time>
      </trkpt>
      <trkpt lat="47.54791" lon="-3.10267">
        <time>2018-01-21T13:37:24.000Z</time>
      </trkpt>
      <trkpt lat="47.54801" lon="-3.10265">
        <time>2018-01-21T13:37:25.000Z</time>
      </trkpt>
      <trkpt lat="47.54813" lon="-3.10267">
        <time>2018-01-21T13:37:26.000Z</time>
      </trkpt>
      <trkpt lat="47.54823" lon="-3.10269">
        <time>2018-01-21T13:37:27.000Z</time>
      </trkpt>
      <trkpt lat="47.54832" lon="-3.10272">
        <time>2018-01-21T13:37:28.000Z</time>
      </trkpt>
      <trkpt lat="47.54841" lon="-3.10273">
        <time>2018-01-21T13:37:29.000Z</time>
      </trkpt>
      <trkpt lat="47.5485" lon="-3.10275">
        <time>2018-01-21T13:37:30.000Z</time>
      </trkpt>
      <trkpt lat="47.54859" lon="-3.10276">
        <time>2018-01-21T13:37:31.000Z</time>
      </trkpt>
      <trkpt lat="47.54868" lon="-3.10277">
        <time>2018-01-21T13:37:32.000Z</time>
      </trkpt>
      <trkpt lat="47.54876" lon="-3.10278">
        <time>2018-01-21T13:37:33.000Z</time>
      </trkpt>
      <trkpt lat="47.54885" lon="-3.1028">
        <time>2018-01-21T13:37:34.000Z</time>
      </trkpt>
      <trkpt lat="47.54894" lon="-3.10282">
        <time>2018-01-21T13:37:35.000Z</time>
      </trkpt>
      <trkpt lat="47.54903" lon="-3.10283">
        <time>2018-01-21T13:37:36.000Z</time>
      </trkpt>
      <trkpt lat="47.54912" lon="-3.10284">
        <time>2018-01-21T13:37:37.000Z</time>
      </trkpt>
      <trkpt lat="47.5492" lon="-3.10286">
        <time>2018-01-21T13:37:38.000Z</time>
      </trkpt>
      <trkpt lat="47.54931" lon="-3.10286">
        <time>2018-01-21T13:37:39.000Z</time>
      </trkpt>
      <trkpt lat="47.54941" lon="-3.10288">
        <time>2018-01-21T13:37:40.000Z</time>
      </trkpt>
      <trkpt lat="47.54949" lon="-3.10289">
        <time>2018-01-21T13:37:41.000Z</time>
      </trkpt>
      <trkpt lat="47.54957" lon="-3.10292">
        <time>2018-01-21T13:37:42.000Z</time>
      </trkpt>
      <trkpt lat="47.54964" lon="-3.10295">
        <time>2018-01-21T13:37:43.000Z</time>
      </trkpt>
      <trkpt lat="47.54972" lon="-3.10297">
        <time>2018-01-21T13:37:44.000Z</time>
      </trkpt>
      <trkpt lat="47.5498" lon="-3.10299">
        <time>2018-01-21T13:37:45.000Z</time>
      </trkpt>
      <trkpt lat="47.54988" lon="-3.10302">
        <time>2018-01-21T13:37:46.000Z</time>
      </trkpt>
      <trkpt lat="47.54995" lon="-3.10307">
        <time>2018-01-21T13:37:47.000Z</time>
      </trkpt>
      <trkpt lat="47.55002" lon="-3.10311">
        <time>2018-01-21T13:37:48.000Z</time>
      </trkpt>
      <trkpt lat="47.5501" lon="-3.10313">
        <time>2018-01-21T13:37:49.000Z</time>
      </trkpt>
      <trkpt lat="47.55018" lon="-3.10316">
        <time>2018-01-21T13:37:50.000Z</time>
      </trkpt>
      <trkpt lat="47.55026" lon="-3.1032">
        <time>2018-01-21T13:37:51.000Z</time>
      </trkpt>
      <trkpt lat="47.55034" lon="-3.10323">
        <time>2018-01-21T13:37:52.000Z</time>
      </trkpt>
      <trkpt lat="47.55041" lon="-3.10326">
        <time>2018-01-21T13:37:53.000Z</time>
      </trkpt>
      <trkpt lat="47.55049" lon="-3.10329">
        <time>2018-01-21T13:37:54.000Z</time>
      </trkpt>
      <trkpt lat="47.55057" lon="-3.10332">
        <time>2018-01-21T13:37:55.000Z</time>
      </trkpt>
      <trkpt lat="47.55065" lon="-3.10334">
        <time>2018-01-21T13:37:56.000Z</time>
      </trkpt>
      <trkpt lat="47.55073" lon="-3.10336">
        <time>2018-01-21T13:37:57.000Z</time>
      </trkpt>
      <trkpt lat="47.55082" lon="-3.10338">
        <time>2018-01-21T13:37:58.000Z</time>
      </trkpt>
      <trkpt lat="47.55088" lon="-3.10339">
        <time>2018-01-21T13:37:59.000Z</time>
      </trkpt>
      <trkpt lat="47.55097" lon="-3.10339">
        <time>2018-01-21T13:38:00.000Z</time>
      </trkpt>
      <trkpt lat="47.55106" lon="-3.1034">
        <time>2018-01-21T13:38:01.000Z</time>
      </trkpt>
      <trkpt lat="47.55117" lon="-3.10339">
        <time>2018-01-21T13:38:02.000Z</time>
      </trkpt>
      <trkpt lat="47.55126" lon="-3.10341">
        <time>2018-01-21T13:38:03.000Z</time>
      </trkpt>
      <trkpt lat="47.55136" lon="-3.10343">
        <time>2018-01-21T13:38:04.000Z</time>
      </trkpt>
      <trkpt lat="47.55146" lon="-3.10345">
        <time>2018-01-21T13:38:05.000Z</time>
      </trkpt>
      <trkpt lat="47.55156" lon="-3.10346">
        <time>2018-01-21T13:38:06.000Z</time>
      </trkpt>
      <trkpt lat="47.55166" lon="-3.10346">
        <time>2018-01-21T13:38:07.000Z</time>
      </trkpt>
      <trkpt lat="47.55175" lon="-3.10348">
        <time>2018-01-21T13:38:08.000Z</time>
      </trkpt>
      <trkpt lat="47.55183" lon="-3.1035">
        <time>2018-01-21T13:38:09.000Z</time>
      </trkpt>
      <trkpt lat="47.5519" lon="-3.10353">
        <time>2018-01-21T13:38:10.000Z</time>
      </trkpt>
      <trkpt lat="47.55198" lon="-3.10355">
        <time>2018-01-21T13:38:11.000Z</time>
      </trkpt>
      <trkpt lat="47.55206" lon="-3.10358">
        <time>2018-01-21T13:38:12.000Z</time>
      </trkpt>
      <trkpt lat="47.55214" lon="-3.1036">
        <time>2018-01-21T13:38:13.000Z</time>
      </trkpt>
      <trkpt lat="47.55223" lon="-3.10363">
        <time>2018-01-21T13:38:14.000Z</time>
      </trkpt>
      <trkpt lat="47.55231" lon="-3.10365">
        <time>2018-01-21T13:38:15.000Z</time>
      </trkpt>
      <trkpt lat="47.55238" lon="-3.10368">
        <time>2018-01-21T13:38:16.000Z</time>
      </trkpt>
      <trkpt lat="47.55247" lon="-3.1037">
        <time>2018-01-21T13:38:17.000Z</time>
      </trkpt>
      <trkpt lat="47.55255" lon="-3.10371">
        <time>2018-01-21T13:38:18.000Z</time>
      </trkpt>
      <trkpt lat="47.55264" lon="-3.10373">
        <time>2018-01-21T13:38:19.000Z</time>
      </trkpt>
      <trkpt lat="47.55271" lon="-3.10376">
        <time>2018-01-21T13:38:20.000Z</time>
      </trkpt>
      <trkpt lat="47.55279" lon="-3.10377">
        <time>2018-01-21T13:38:21.000Z</time>
      </trkpt>
      <trkpt lat="47.55287" lon="-3.10379">
        <time>2018-01-21T13:38:22.000Z</time>
      </trkpt>
      <trkpt lat="47.55295" lon="-3.10381">
        <time>2018-01-21T13:38:23.000Z</time>
      </trkpt>
      <trkpt lat="47.55303" lon="-3.10382">
        <time>2018-01-21T13:38:24.000Z</time>
      </trkpt>
      <trkpt lat="47.55311" lon="-3.10383">
        <time>2018-01-21T13:38:25.000Z</time>
      </trkpt>
      <trkpt lat="47.55319" lon="-3.10385">
        <time>2018-01-21T13:38:26.000Z</time>
      </trkpt>
      <trkpt lat="47.55328" lon="-3.10387">
        <time>2018-01-21T13:38:27.000Z</time>
      </trkpt>
      <trkpt lat="47.55336" lon="-3.10389">
        <time>2018-01-21T13:38:28.000Z</time>
      </trkpt>
      <trkpt lat="47.55347" lon="-3.10387">
        <time>2018-01-21T13:38:29.000Z</time>
      </trkpt>
      <trkpt lat="47.55356" lon="-3.10387">
        <time>2018-01-21T13:38:30.000Z</time>
      </trkpt>
      <trkpt lat="47.55366" lon="-3.10385">
        <time>2018-01-21T13:38:31.000Z</time>
      </trkpt>
      <trkpt lat="47.55378" lon="-3.10385">
        <time>2018-01-21T13:38:32.000Z</time>
      </trkpt>
      <trkpt lat="47.55385" lon="-3.10385">
        <time>2018-01-21T13:38:33.000Z</time>
      </trkpt>
      <trkpt lat="47.55394" lon="-3.10386">
        <time>2018-01-21T13:38:34.000Z</time>
      </trkpt>
      <trkpt lat="47.55401" lon="-3.10389">
        <time>2018-01-21T13:38:35.000Z</time>
      </trkpt>
      <trkpt lat="47.5541" lon="-3.10392">
        <time>2018-01-21T13:38:36.000Z</time>
      </trkpt>
      <trkpt lat="47.55417" lon="-3.10395">
        <time>2018-01-21T13:38:37.000Z</time>
      </trkpt>
      <trkpt lat="47.55426" lon="-3.10396">
        <time>2018-01-21T13:38:38.000Z</time>
      </trkpt>
      <trkpt lat="47.55436" lon="-3.10397">
        <time>2018-01-21T13:38:39.000Z</time>
      </trkpt>
      <trkpt lat="47.55443" lon="-3.10399">
        <time>2018-01-21T13:38:40.000Z</time>
      </trkpt>
      <trkpt lat="47.55452" lon="-3.104">
        <time>2018-01-21T13:38:41.000Z</time>
      </trkpt>
      <trkpt lat="47.5546" lon="-3.10402">
        <time>2018-01-21T13:38:42.000Z</time>
      </trkpt>
      <trkpt lat="47.55467" lon="-3.10403">
        <time>2018-01-21T13:38:43.000Z</time>
      </trkpt>
      <trkpt lat="47.55475" lon="-3.10405">
        <time>2018-01-21T13:38:44.000Z</time>
      </trkpt>
      <trkpt lat="47.55483" lon="-3.10407">
        <time>2018-01-21T13:38:45.000Z</time>
      </trkpt>
      <trkpt lat="47.55491" lon="-3.10409">
        <time>2018-01-21T13:38:46.000Z</time>
      </trkpt>
      <trkpt lat="47.55499" lon="-3.1041">
        <time>2018-01-21T13:38:47.000Z</time>
      </trkpt>
      <trkpt lat="47.55507" lon="-3.10411">
        <time>2018-01-21T13:38:48.000Z</time>
      </trkpt>
      <trkpt lat="47.55515" lon="-3.10412">
        <time>2018-01-21T13:38:49.000Z</time>
      </trkpt>
      <trkpt lat="47.55523" lon="-3.10414">
        <time>2018-01-21T13:38:50.000Z</time>
      </trkpt>
      <trkpt lat="47.55531" lon="-3.10415">
        <time>2018-01-21T13:38:51.000Z</time>
      </trkpt>
      <trkpt lat="47.5554" lon="-3.10415">
        <time>2018-01-21T13:38:52.000Z</time>
      </trkpt>
      <trkpt lat="47.55548" lon="-3.10416">
        <time>2018-01-21T13:38:53.000Z</time>
      </trkpt>
      <trkpt lat="47.55558" lon="-3.10417">
        <time>2018-01-21T13:38:54.000Z</time>
      </trkpt>
      <trkpt lat="47.55566" lon="-3.10418">
        <time>2018-01-21T13:38:55.000Z</time>
      </trkpt>
      <trkpt lat="47.55575" lon="-3.10418">
        <time>2018-01-21T13:38:56.000Z</time>
      </trkpt>
      <trkpt lat="47.55585" lon="-3.10418">
        <time>2018-01-21T13:38:57.000Z</time>
      </trkpt>
      <trkpt lat="47.55593" lon="-3.10418">
        <time>2018-01-21T13:38:58.000Z</time>
      </trkpt>
      <trkpt lat="47.55601" lon="-3.10419">
        <time>2018-01-21T13:38:59.000Z</time>
      </trkpt>
      <trkpt lat="47.5561" lon="-3.10418">
        <time>2018-01-21T13:39:00.000Z</time>
      </trkpt>
      <trkpt lat="47.55619" lon="-3.10418">
        <time>2018-01-21T13:39:01.000Z</time>
      </trkpt>
      <trkpt lat="47.55631" lon="-3.10414">
        <time>2018-01-21T13:39:02.000Z</time>
      </trkpt>
      <trkpt lat="47.5564" lon="-3.10415">
        <time>2018-01-21T13:39:03.000Z</time>
      </trkpt>
      <trkpt lat="47.55648" lon="-3.10418">
        <time>2018-01-21T13:39:04.000Z</time>
      </trkpt>
      <trkpt lat="47.55656" lon="-3.1042">
        <time>2018-01-21T13:39:05.000Z</time>
      </trkpt>
      <trkpt lat="47.55664" lon="-3.10422">
        <time>2018-01-21T13:39:06.000Z</time>
      </trkpt>
      <trkpt lat="47.55671" lon="-3.10424">
        <time>2018-01-21T13:39:07.000Z</time>
      </trkpt>
      <trkpt lat="47.55679" lon="-3.10426">
        <time>2018-01-21T13:39:08.000Z</time>
      </trkpt>
      <trkpt lat="47.55687" lon="-3.10427">
        <time>2018-01-21T13:39:09.000Z</time>
      </trkpt>
      <trkpt lat="47.55695" lon="-3.10429">
        <time>2018-01-21T13:39:10.000Z</time>
      </trkpt>
      <trkpt lat="47.55703" lon="-3.1043">
        <time>2018-01-21T13:39:11.000Z</time>
      </trkpt>
      <trkpt lat="47.55711" lon="-3.10432">
        <time>2018-01-21T13:39:12.000Z</time>
      </trkpt>
      <trkpt lat="47.55719" lon="-3.10432">
        <time>2018-01-21T13:39:13.000Z</time>
      </trkpt>
      <trkpt lat="47.55728" lon="-3.10433">
        <time>2018-01-21T13:39:14.000Z</time>
      </trkpt>
      <trkpt lat="47.55737" lon="-3.10434">
        <time>2018-01-21T13:39:15.000Z</time>
      </trkpt>
      <trkpt lat="47.55746" lon="-3.10434">
        <time>2018-01-21T13:39:16.000Z</time>
      </trkpt>
      <trkpt lat="47.55756" lon="-3.10434">
        <time>2018-01-21T13:39:17.000Z</time>
      </trkpt>
      <trkpt lat="47.55765" lon="-3.10435">
        <time>2018-01-21T13:39:18.000Z</time>
      </trkpt>
      <trkpt lat="47.55773" lon="-3.10435">
        <time>2018-01-21T13:39:19.000Z</time>
      </trkpt>
      <trkpt lat="47.55782" lon="-3.10434">
        <time>2018-01-21T13:39:20.000Z</time>
      </trkpt>
      <trkpt lat="47.5579" lon="-3.10435">
        <time>2018-01-21T13:39:21.000Z</time>
      </trkpt>
      <trkpt lat="47.55798" lon="-3.10436">
        <time>2018-01-21T13:39:22.000Z</time>
      </trkpt>
      <trkpt lat="47.55806" lon="-3.10437">
        <time>2018-01-21T13:39:23.000Z</time>
      </trkpt>
      <trkpt lat="47.55814" lon="-3.10437">
        <time>2018-01-21T13:39:24.000Z</time>
      </trkpt>
      <trkpt lat="47.55823" lon="-3.10437">
        <time>2018-01-21T13:39:25.000Z</time>
      </trkpt>
      <trkpt lat="47.55831" lon="-3.10437">
        <time>2018-01-21T13:39:26.000Z</time>
      </trkpt>
      <trkpt lat="47.55839" lon="-3.10436">
        <time>2018-01-21T13:39:27.000Z</time>
      </trkpt>
      <trkpt lat="47.55848" lon="-3.10435">
        <time>2018-01-21T13:39:28.000Z</time>
      </trkpt>
      <trkpt lat="47.55857" lon="-3.10435">
        <time>2018-01-21T13:39:29.000Z</time>
      </trkpt>
      <trkpt lat="47.55866" lon="-3.10434">
        <time>2018-01-21T13:39:30.000Z</time>
      </trkpt>
      <trkpt lat="47.55875" lon="-3.10435">
        <time>2018-01-21T13:39:31.000Z</time>
      </trkpt>
      <trkpt lat="47.55884" lon="-3.10437">
        <time>2018-01-21T13:39:32.000Z</time>
      </trkpt>
      <trkpt lat="47.55894" lon="-3.10438">
        <time>2018-01-21T13:39:33.000Z</time>
      </trkpt>
      <trkpt lat="47.55905" lon="-3.10435">
        <time>2018-01-21T13:39:34.000Z</time>
      </trkpt>
      <trkpt lat="47.55916" lon="-3.10434">
        <time>2018-01-21T13:39:35.000Z</time>
      </trkpt>
      <trkpt lat="47.55926" lon="-3.10433">
        <time>2018-01-21T13:39:36.000Z</time>
      </trkpt>
      <trkpt lat="47.55935" lon="-3.10432">
        <time>2018-01-21T13:39:37.000Z</time>
      </trkpt>
      <trkpt lat="47.55945" lon="-3.10431">
        <time>2018-01-21T13:39:38.000Z</time>
      </trkpt>
      <trkpt lat="47.55954" lon="-3.1043">
        <time>2018-01-21T13:39:39.000Z</time>
      </trkpt>
      <trkpt lat="47.55963" lon="-3.10431">
        <time>2018-01-21T13:39:40.000Z</time>
      </trkpt>
      <trkpt lat="47.55971" lon="-3.1043">
        <time>2018-01-21T13:39:41.000Z</time>
      </trkpt>
      <trkpt lat="47.55979" lon="-3.10429">
        <time>2018-01-21T13:39:42.000Z</time>
      </trkpt>
      <trkpt lat="47.55988" lon="-3.10428">
        <time>2018-01-21T13:39:43.000Z</time>
      </trkpt>
      <trkpt lat="47.55998" lon="-3.10428">
        <time>2018-01-21T13:39:44.000Z</time>
      </trkpt>
      <trkpt lat="47.56007" lon="-3.10427">
        <time>2018-01-21T13:39:45.000Z</time>
      </trkpt>
      <trkpt lat="47.56015" lon="-3.10426">
        <time>2018-01-21T13:39:46.000Z</time>
      </trkpt>
      <trkpt lat="47.56024" lon="-3.10426">
        <time>2018-01-21T13:39:47.000Z</time>
      </trkpt>
      <trkpt lat="47.56031" lon="-3.10426">
        <time>2018-01-21T13:39:48.000Z</time>
      </trkpt>
      <trkpt lat="47.5604" lon="-3.10425">
        <time>2018-01-21T13:39:49.000Z</time>
      </trkpt>
      <trkpt lat="47.56049" lon="-3.10424">
        <time>2018-01-21T13:39:50.000Z</time>
      </trkpt>
      <trkpt lat="47.56058" lon="-3.10424">
        <time>2018-01-21T13:39:51.000Z</time>
      </trkpt>
      <trkpt lat="47.56066" lon="-3.10425">
        <time>2018-01-21T13:39:52.000Z</time>
      </trkpt>
      <trkpt lat="47.56074" lon="-3.10425">
        <time>2018-01-21T13:39:53.000Z</time>
      </trkpt>
      <trkpt lat="47.56083" lon="-3.10424">
        <time>2018-01-21T13:39:54.000Z</time>
      </trkpt>
      <trkpt lat="47.56092" lon="-3.10424">
        <time>2018-01-21T13:39:55.000Z</time>
      </trkpt>
      <trkpt lat="47.56101" lon="-3.10426">
        <time>2018-01-21T13:39:56.000Z</time>
      </trkpt>
      <trkpt lat="47.5611" lon="-3.10427">
        <time>2018-01-21T13:39:57.000Z</time>
      </trkpt>
      <trkpt lat="47.56119" lon="-3.10428">
        <time>2018-01-21T13:39:58.000Z</time>
      </trkpt>
      <trkpt lat="47.56125" lon="-3.1043">
        <time>2018-01-21T13:39:59.000Z</time>
      </trkpt>
      <trkpt lat="47.56133" lon="-3.10432">
        <time>2018-01-21T13:40:00.000Z</time>
      </trkpt>
      <trkpt lat="47.56141" lon="-3.10433">
        <time>2018-01-21T13:40:01.000Z</time>
      </trkpt>
      <trkpt lat="47.56149" lon="-3.10433">
        <time>2018-01-21T13:40:02.000Z</time>
      </trkpt>
      <trkpt lat="47.56157" lon="-3.10433">
        <time>2018-01-21T13:40:03.000Z</time>
      </trkpt>
      <trkpt lat="47.56166" lon="-3.10434">
        <time>2018-01-21T13:40:04.000Z</time>
      </trkpt>
      <trkpt lat="47.56174" lon="-3.10435">
        <time>2018-01-21T13:40:05.000Z</time>
      </trkpt>
      <trkpt lat="47.56183" lon="-3.10436">
        <time>2018-01-21T13:40:06.000Z</time>
      </trkpt>
      <trkpt lat="47.56191" lon="-3.10437">
        <time>2018-01-21T13:40:07.000Z</time>
      </trkpt>
      <trkpt lat="47.56199" lon="-3.10437">
        <time>2018-01-21T13:40:08.000Z</time>
      </trkpt>
      <trkpt lat="47.56207" lon="-3.10438">
        <time>2018-01-21T13:40:09.000Z</time>
      </trkpt>
      <trkpt lat="47.56216" lon="-3.10439">
        <time>2018-01-21T13:40:10.000Z</time>
      </trkpt>
      <trkpt lat="47.56224" lon="-3.10439">
        <time>2018-01-21T13:40:11.000Z</time>
      </trkpt>
      <trkpt lat="47.56233" lon="-3.10438">
        <time>2018-01-21T13:40:12.000Z</time>
      </trkpt>
      <trkpt lat="47.56242" lon="-3.10438">
        <time>2018-01-21T13:40:13.000Z</time>
      </trkpt>
      <trkpt lat="47.5625" lon="-3.10437">
        <time>2018-01-21T13:40:14.000Z</time>
      </trkpt>
      <trkpt lat="47.56259" lon="-3.10434">
        <time>2018-01-21T13:40:15.000Z</time>
      </trkpt>
      <trkpt lat="47.56268" lon="-3.10434">
        <time>2018-01-21T13:40:16.000Z</time>
      </trkpt>
      <trkpt lat="47.56277" lon="-3.10433">
        <time>2018-01-21T13:40:17.000Z</time>
      </trkpt>
      <trkpt lat="47.56286" lon="-3.10432">
        <time>2018-01-21T13:40:18.000Z</time>
      </trkpt>
      <trkpt lat="47.56294" lon="-3.10431">
        <time>2018-01-21T13:40:19.000Z</time>
      </trkpt>
      <trkpt lat="47.56303" lon="-3.10431">
        <time>2018-01-21T13:40:20.000Z</time>
      </trkpt>
      <trkpt lat="47.56312" lon="-3.10432">
        <time>2018-01-21T13:40:21.000Z</time>
      </trkpt>
      <trkpt lat="47.5632" lon="-3.10432">
        <time>2018-01-21T13:40:22.000Z</time>
      </trkpt>
      <trkpt lat="47.56329" lon="-3.10431">
        <time>2018-01-21T13:40:23.000Z</time>
      </trkpt>
      <trkpt lat="47.56338" lon="-3.10431">
        <time>2018-01-21T13:40:24.000Z</time>
      </trkpt>
      <trkpt lat="47.56347" lon="-3.10431">
        <time>2018-01-21T13:40:25.000Z</time>
      </trkpt>
      <trkpt lat="47.56355" lon="-3.10431">
        <time>2018-01-21T13:40:26.000Z</time>
      </trkpt>
      <trkpt lat="47.56364" lon="-3.1043">
        <time>2018-01-21T13:40:27.000Z</time>
      </trkpt>
      <trkpt lat="47.56373" lon="-3.10429">
        <time>2018-01-21T13:40:28.000Z</time>
      </trkpt>
      <trkpt lat="47.56382" lon="-3.10428">
        <time>2018-01-21T13:40:29.000Z</time>
      </trkpt>
      <trkpt lat="47.56391" lon="-3.10426">
        <time>2018-01-21T13:40:30.000Z</time>
      </trkpt>
      <trkpt lat="47.564" lon="-3.10425">
        <time>2018-01-21T13:40:31.000Z</time>
      </trkpt>
      <trkpt lat="47.56409" lon="-3.10424">
        <time>2018-01-21T13:40:32.000Z</time>
      </trkpt>
      <trkpt lat="47.56417" lon="-3.10423">
        <time>2018-01-21T13:40:33.000Z</time>
      </trkpt>
      <trkpt lat="47.56426" lon="-3.10422">
        <time>2018-01-21T13:40:34.000Z</time>
      </trkpt>
      <trkpt lat="47.56435" lon="-3.1042">
        <time>2018-01-21T13:40:35.000Z</time>
      </trkpt>
      <trkpt lat="47.56443" lon="-3.10418">
        <time>2018-01-21T13:40:36.000Z</time>
      </trkpt>
      <trkpt lat="47.56452" lon="-3.10417">
        <time>2018-01-21T13:40:37.000Z</time>
      </trkpt>
      <trkpt lat="47.5646" lon="-3.10415">
        <time>2018-01-21T13:40:38.000Z</time>
      </trkpt>
      <trkpt lat="47.56469" lon="-3.10412">
        <time>2018-01-21T13:40:39.000Z</time>
      </trkpt>
      <trkpt lat="47.56478" lon="-3.1041">
        <time>2018-01-21T13:40:40.000Z</time>
      </trkpt>
      <trkpt lat="47.56487" lon="-3.10409">
        <time>2018-01-21T13:40:41.000Z</time>
      </trkpt>
      <trkpt lat="47.56495" lon="-3.10407">
        <time>2018-01-21T13:40:42.000Z</time>
      </trkpt>
      <trkpt lat="47.56505" lon="-3.10406">
        <time>2018-01-21T13:40:43.000Z</time>
      </trkpt>
      <trkpt lat="47.56513" lon="-3.10405">
        <time>2018-01-21T13:40:44.000Z</time>
      </trkpt>
      <trkpt lat="47.56523" lon="-3.10403">
        <time>2018-01-21T13:40:45.000Z</time>
      </trkpt>
      <trkpt lat="47.56532" lon="-3.10401">
        <time>2018-01-21T13:40:46.000Z</time>
      </trkpt>
      <trkpt lat="47.56541" lon="-3.104">
        <time>2018-01-21T13:40:47.000Z</time>
      </trkpt>
      <trkpt lat="47.56549" lon="-3.104">
        <time>2018-01-21T13:40:48.000Z</time>
      </trkpt>
      <trkpt lat="47.56557" lon="-3.104">
        <time>2018-01-21T13:40:49.000Z</time>
      </trkpt>
      <trkpt lat="47.56564" lon="-3.10399">
        <time>2018-01-21T13:40:50.000Z</time>
      </trkpt>
      <trkpt lat="47.56572" lon="-3.10399">
        <time>2018-01-21T13:40:51.000Z</time>
      </trkpt>
      <trkpt lat="47.5658" lon="-3.10397">
        <time>2018-01-21T13:40:52.000Z</time>
      </trkpt>
      <trkpt lat="47.56587" lon="-3.10396">
        <time>2018-01-21T13:40:53.000Z</time>
      </trkpt>
      <trkpt lat="47.56596" lon="-3.10392">
        <time>2018-01-21T13:40:54.000Z</time>
      </trkpt>
      <trkpt lat="47.56603" lon="-3.1039">
        <time>2018-01-21T13:40:55.000Z</time>
      </trkpt>
      <trkpt lat="47.56612" lon="-3.10387">
        <time>2018-01-21T13:40:56.000Z</time>
      </trkpt>
      <trkpt lat="47.56619" lon="-3.10383">
        <time>2018-01-21T13:40:57.000Z</time>
      </trkpt>
      <trkpt lat="47.56627" lon="-3.10381">
        <time>2018-01-21T13:40:58.000Z</time>
      </trkpt>
      <trkpt lat="47.56635" lon="-3.10378">
        <time>2018-01-21T13:40:59.000Z</time>
      </trkpt>
      <trkpt lat="47.56643" lon="-3.10376">
        <time>2018-01-21T13:41:00.000Z</time>
      </trkpt>
      <trkpt lat="47.56651" lon="-3.10373">
        <time>2018-01-21T13:41:01.000Z</time>
      </trkpt>
      <trkpt lat="47.56659" lon="-3.10371">
        <time>2018-01-21T13:41:02.000Z</time>
      </trkpt>
      <trkpt lat="47.56667" lon="-3.10367">
        <time>2018-01-21T13:41:03.000Z</time>
      </trkpt>
      <trkpt lat="47.56675" lon="-3.10364">
        <time>2018-01-21T13:41:04.000Z</time>
      </trkpt>
      <trkpt lat="47.56682" lon="-3.10361">
        <time>2018-01-21T13:41:05.000Z</time>
      </trkpt>
      <trkpt lat="47.56689" lon="-3.10358">
        <time>2018-01-21T13:41:06.000Z</time>
      </trkpt>
      <trkpt lat="47.56696" lon="-3.10354">
        <time>2018-01-21T13:41:07.000Z</time>
      </trkpt>
      <trkpt lat="47.56703" lon="-3.10352">
        <time>2018-01-21T13:41:08.000Z</time>
      </trkpt>
      <trkpt lat="47.56711" lon="-3.1035">
        <time>2018-01-21T13:41:09.000Z</time>
      </trkpt>
      <trkpt lat="47.56719" lon="-3.10349">
        <time>2018-01-21T13:41:10.000Z</time>
      </trkpt>
      <trkpt lat="47.56727" lon="-3.10348">
        <time>2018-01-21T13:41:11.000Z</time>
      </trkpt>
      <trkpt lat="47.56735" lon="-3.10345">
        <time>2018-01-21T13:41:12.000Z</time>
      </trkpt>
      <trkpt lat="47.56743" lon="-3.10342">
        <time>2018-01-21T13:41:13.000Z</time>
      </trkpt>
      <trkpt lat="47.56751" lon="-3.10339">
        <time>2018-01-21T13:41:14.000Z</time>
      </trkpt>
      <trkpt lat="47.56759" lon="-3.10335">
        <time>2018-01-21T13:41:15.000Z</time>
      </trkpt>
      <trkpt lat="47.56766" lon="-3.1033">
        <time>2018-01-21T13:41:16.000Z</time>
      </trkpt>
      <trkpt lat="47.56774" lon="-3.10326">
        <time>2018-01-21T13:41:17.000Z</time>
      </trkpt>
      <trkpt lat="47.56782" lon="-3.10321">
        <time>2018-01-21T13:41:18.000Z</time>
      </trkpt>
      <trkpt lat="47.56789" lon="-3.10316">
        <time>2018-01-21T13:41:19.000Z</time>
      </trkpt>
      <trkpt lat="47.56797" lon="-3.10308">
        <time>2018-01-21T13:41:20.000Z</time>
      </trkpt>
      <trkpt lat="47.56804" lon="-3.10301">
        <time>2018-01-21T13:41:21.000Z</time>
      </trkpt>
      <trkpt lat="47.56811" lon="-3.10294">
        <time>2018-01-21T13:41:22.000Z</time>
      </trkpt>
      <trkpt lat="47.56818" lon="-3.10289">
        <time>2018-01-21T13:41:23.000Z</time>
      </trkpt>
      <trkpt lat="47.56825" lon="-3.10284">
        <time>2018-01-21T13:41:24.000Z</time>
      </trkpt>
      <trkpt lat="47.56831" lon="-3.10279">
        <time>2018-01-21T13:41:25.000Z</time>
      </trkpt>
      <trkpt lat="47.56837" lon="-3.10273">
        <time>2018-01-21T13:41:26.000Z</time>
      </trkpt>
      <trkpt lat="47.56843" lon="-3.10269">
        <time>2018-01-21T13:41:27.000Z</time>
      </trkpt>
      <trkpt lat="47.56848" lon="-3.10267">
        <time>2018-01-21T13:41:28.000Z</time>
      </trkpt>
      <trkpt lat="47.56853" lon="-3.10269">
        <time>2018-01-21T13:41:29.000Z</time>
      </trkpt>
      <trkpt lat="47.56857" lon="-3.10271">
        <time>2018-01-21T13:41:30.000Z</time>
      </trkpt>
      <trkpt lat="47.56858" lon="-3.10273">
        <time>2018-01-21T13:41:31.000Z</time>
      </trkpt>
      <trkpt lat="47.56858" lon="-3.10274">
        <time>2018-01-21T13:41:32.000Z</time>
      </trkpt>
      <trkpt lat="47.56859" lon="-3.10275">
        <time>2018-01-21T13:41:33.000Z</time>
      </trkpt>
      <trkpt lat="47.56859" lon="-3.10275">
        <time>2018-01-21T13:41:34.000Z</time>
      </trkpt>
      <trkpt lat="47.56859" lon="-3.10275">
        <time>2018-01-21T13:41:35.000Z</time>
      </trkpt>
      <trkpt lat="47.56859" lon="-3.10275">
        <time>2018-01-21T13:41:36.000Z</time>
      </trkpt>
      <trkpt lat="47.56859" lon="-3.10275">
        <time>2018-01-21T13:41:37.000Z</time>
      </trkpt>
      <trkpt lat="47.56859" lon="-3.10275">
        <time>2018-01-21T13:41:38.000Z</time>
      </trkpt>
      <trkpt lat="47.56859" lon="-3.10275">
        <time>2018-01-21T13:41:39.000Z</time>
      </trkpt>
      <trkpt lat="47.56859" lon="-3.10275">
        <time>2018-01-21T13:41:40.000Z</time>
      </trkpt>
      <trkpt lat="47.56859" lon="-3.10275">
        <time>2018-01-21T13:41:41.000Z</time>
      </trkpt>
      <trkpt lat="47.56859" lon="-3.10275">
        <time>2018-01-21T13:41:42.000Z</time>
      </trkpt>
      <trkpt lat="47.56859" lon="-3.10275">
        <time>2018-01-21T13:41:43.000Z</time>
      </trkpt>
      <trkpt lat="47.56859" lon="-3.10275">
        <time>2018-01-21T13:41:44.000Z</time>
      </trkpt>
      <trkpt lat="47.56859" lon="-3.10275">
        <time>2018-01-21T13:41:45.000Z</time>
      </trkpt>
      <trkpt lat="47.56859" lon="-3.10275">
        <time>2018-01-21T13:41:46.000Z</time>
      </trkpt>
      <trkpt lat="47.56859" lon="-3.10275">
        <time>2018-01-21T13:41:47.000Z</time>
      </trkpt>
      <trkpt lat="47.56859" lon="-3.10275">
        <time>2018-01-21T13:41:48.000Z</time>
      </trkpt>
      <trkpt lat="47.56859" lon="-3.10275">
        <time>2018-01-21T13:41:49.000Z</time>
      </trkpt>
      <trkpt lat="47.56859" lon="-3.10275">
        <time>2018-01-21T13:41:50.000Z</time>
      </trkpt>
      <trkpt lat="47.56859" lon="-3.10275">
        <time>2018-01-21T13:41:51.000Z</time>
      </trkpt>
      <trkpt lat="47.56859" lon="-3.10275">
        <time>2018-01-21T13:41:52.000Z</time>
      </trkpt>
      <trkpt lat="47.56859" lon="-3.10275">
        <time>2018-01-21T13:41:53.000Z</time>
      </trkpt>
      <trkpt lat="47.56859" lon="-3.10275">
        <time>2018-01-21T13:41:54.000Z</time>
      </trkpt>
      <trkpt lat="47.56859" lon="-3.10275">
        <time>2018-01-21T13:41:55.000Z</time>
      </trkpt>
      <trkpt lat="47.56867" lon="-3.10267">
        <time>2018-01-21T13:41:56.000Z</time>
      </trkpt>
      <trkpt lat="47.56864" lon="-3.10268">
        <time>2018-01-21T13:41:57.000Z</time>
      </trkpt>
      <trkpt lat="47.56873" lon="-3.10276">
        <time>2018-01-21T13:41:58.000Z</time>
      </trkpt>
      <trkpt lat="47.56877" lon="-3.10284">
        <time>2018-01-21T13:41:59.000Z</time>
      </trkpt>
      <trkpt lat="47.56877" lon="-3.10284">
        <time>2018-01-21T13:42:00.000Z</time>
      </trkpt>
      <trkpt lat="47.56877" lon="-3.10284">
        <time>2018-01-21T13:42:01.000Z</time>
      </trkpt>
      <trkpt lat="47.56877" lon="-3.10284">
        <time>2018-01-21T13:42:02.000Z</time>
      </trkpt>
      <trkpt lat="47.56877" lon="-3.10284">
        <time>2018-01-21T13:42:03.000Z</time>
      </trkpt>
      <trkpt lat="47.56877" lon="-3.10284">
        <time>2018-01-21T13:42:04.000Z</time>
      </trkpt>
      <trkpt lat="47.56877" lon="-3.10284">
        <time>2018-01-21T13:42:05.000Z</time>
      </trkpt>
      <trkpt lat="47.56869" lon="-3.10277">
        <time>2018-01-21T13:42:06.000Z</time>
      </trkpt>
      <trkpt lat="47.56868" lon="-3.10276">
        <time>2018-01-21T13:42:07.000Z</time>
      </trkpt>
      <trkpt lat="47.56869" lon="-3.10277">
        <time>2018-01-21T13:42:08.000Z</time>
      </trkpt>
      <trkpt lat="47.56868" lon="-3.10276">
        <time>2018-01-21T13:42:09.000Z</time>
      </trkpt>
      <trkpt lat="47.56868" lon="-3.10276">
        <time>2018-01-21T13:42:10.000Z</time>
      </trkpt>
      <trkpt lat="47.56868" lon="-3.10276">
        <time>2018-01-21T13:42:11.000Z</time>
      </trkpt>
      <trkpt lat="47.56868" lon="-3.10276">
        <time>2018-01-21T13:42:12.000Z</time>
      </trkpt>
      <trkpt lat="47.56868" lon="-3.10276">
        <time>2018-01-21T13:42:13.000Z</time>
      </trkpt>
      <trkpt lat="47.56868" lon="-3.10276">
        <time>2018-01-21T13:42:14.000Z</time>
      </trkpt>
      <trkpt lat="47.56868" lon="-3.10276">
        <time>2018-01-21T13:42:15.000Z</time>
      </trkpt>
      <trkpt lat="47.56868" lon="-3.10276">
        <time>2018-01-21T13:42:16.000Z</time>
      </trkpt>
      <trkpt lat="47.56868" lon="-3.10276">
        <time>2018-01-21T13:42:17.000Z</time>
      </trkpt>
      <trkpt lat="47.56868" lon="-3.10276">
        <time>2018-01-21T13:42:18.000Z</time>
      </trkpt>
      <trkpt lat="47.56868" lon="-3.10276">
        <time>2018-01-21T13:42:19.000Z</time>
      </trkpt>
      <trkpt lat="47.56868" lon="-3.10276">
        <time>2018-01-21T13:42:20.000Z</time>
      </trkpt>
      <trkpt lat="47.56868" lon="-3.10276">
        <time>2018-01-21T13:42:21.000Z</time>
      </trkpt>
      <trkpt lat="47.56868" lon="-3.10276">
        <time>2018-01-21T13:42:22.000Z</time>
      </trkpt>
      <trkpt lat="47.56868" lon="-3.10276">
        <time>2018-01-21T13:42:23.000Z</time>
      </trkpt>
      <trkpt lat="47.56868" lon="-3.10276">
        <time>2018-01-21T13:42:24.000Z</time>
      </trkpt>
      <trkpt lat="47.56868" lon="-3.10276">
        <time>2018-01-21T13:42:25.000Z</time>
      </trkpt>
      <trkpt lat="47.56868" lon="-3.10276">
        <time>2018-01-21T13:42:26.000Z</time>
      </trkpt>
      <trkpt lat="47.56868" lon="-3.10276">
        <time>2018-01-21T13:42:27.000Z</time>
      </trkpt>
      <trkpt lat="47.56868" lon="-3.10276">
        <time>2018-01-21T13:42:28.000Z</time>
      </trkpt>
      <trkpt lat="47.56868" lon="-3.10276">
        <time>2018-01-21T13:42:29.000Z</time>
      </trkpt>
      <trkpt lat="47.56868" lon="-3.10276">
        <time>2018-01-21T13:42:30.000Z</time>
      </trkpt>
      <trkpt lat="47.56868" lon="-3.10276">
        <time>2018-01-21T13:42:31.000Z</time>
      </trkpt>
      <trkpt lat="47.56868" lon="-3.10276">
        <time>2018-01-21T13:42:32.000Z</time>
      </trkpt>
      <trkpt lat="47.56868" lon="-3.10276">
        <time>2018-01-21T13:42:33.000Z</time>
      </trkpt>
      <trkpt lat="47.56868" lon="-3.10276">
        <time>2018-01-21T13:42:34.000Z</time>
      </trkpt>
      <trkpt lat="47.56868" lon="-3.10276">
        <time>2018-01-21T13:42:35.000Z</time>
      </trkpt>
      <trkpt lat="47.56868" lon="-3.10276">
        <time>2018-01-21T13:42:36.000Z</time>
      </trkpt>
      <trkpt lat="47.56868" lon="-3.10276">
        <time>2018-01-21T13:42:37.000Z</time>
      </trkpt>
      <trkpt lat="47.56868" lon="-3.10276">
        <time>2018-01-21T13:42:38.000Z</time>
      </trkpt>
      <trkpt lat="47.56868" lon="-3.10276">
        <time>2018-01-21T13:42:39.000Z</time>
      </trkpt>
      <trkpt lat="47.56868" lon="-3.10276">
        <time>2018-01-21T13:42:40.000Z</time>
      </trkpt>
      <trkpt lat="47.56868" lon="-3.10276">
        <time>2018-01-21T13:42:41.000Z</time>
      </trkpt>
      <trkpt lat="47.56868" lon="-3.10276">
        <time>2018-01-21T13:42:42.000Z</time>
      </trkpt>
      <trkpt lat="47.56868" lon="-3.10276">
        <time>2018-01-21T13:42:43.000Z</time>
      </trkpt>
      <trkpt lat="47.56868" lon="-3.10276">
        <time>2018-01-21T13:42:44.000Z</time>
      </trkpt>
      <trkpt lat="47.56868" lon="-3.10276">
        <time>2018-01-21T13:42:45.000Z</time>
      </trkpt>
      <trkpt lat="47.56868" lon="-3.10276">
        <time>2018-01-21T13:42:46.000Z</time>
      </trkpt>
      <trkpt lat="47.56868" lon="-3.10276">
        <time>2018-01-21T13:42:47.000Z</time>
      </trkpt>
      <trkpt lat="47.56868" lon="-3.10276">
        <time>2018-01-21T13:42:48.000Z</time>
      </trkpt>
      <trkpt lat="47.56868" lon="-3.10276">
        <time>2018-01-21T13:42:49.000Z</time>
      </trkpt>
      <trkpt lat="47.56868" lon="-3.10276">
        <time>2018-01-21T13:42:50.000Z</time>
      </trkpt>
      <trkpt lat="47.56868" lon="-3.10276">
        <time>2018-01-21T13:42:51.000Z</time>
      </trkpt>
      <trkpt lat="47.56868" lon="-3.10276">
        <time>2018-01-21T13:42:52.000Z</time>
      </trkpt>
      <trkpt lat="47.56872" lon="-3.10264">
        <time>2018-01-21T13:42:53.000Z</time>
      </trkpt>
      <trkpt lat="47.56872" lon="-3.10262">
        <time>2018-01-21T13:42:54.000Z</time>
      </trkpt>
      <trkpt lat="47.56871" lon="-3.10259">
        <time>2018-01-21T13:42:55.000Z</time>
      </trkpt>
      <trkpt lat="47.56872" lon="-3.10258">
        <time>2018-01-21T13:42:56.000Z</time>
      </trkpt>
      <trkpt lat="47.56872" lon="-3.10258">
        <time>2018-01-21T13:42:57.000Z</time>
      </trkpt>
      <trkpt lat="47.56872" lon="-3.10258">
        <time>2018-01-21T13:42:58.000Z</time>
      </trkpt>
      <trkpt lat="47.56872" lon="-3.10258">
        <time>2018-01-21T13:42:59.000Z</time>
      </trkpt>
      <trkpt lat="47.56872" lon="-3.10258">
        <time>2018-01-21T13:43:00.000Z</time>
      </trkpt>
      <trkpt lat="47.56872" lon="-3.10258">
        <time>2018-01-21T13:43:01.000Z</time>
      </trkpt>
      <trkpt lat="47.56872" lon="-3.10258">
        <time>2018-01-21T13:43:02.000Z</time>
      </trkpt>
      <trkpt lat="47.56872" lon="-3.10258">
        <time>2018-01-21T13:43:03.000Z</time>
      </trkpt>
      <trkpt lat="47.56872" lon="-3.10258">
        <time>2018-01-21T13:43:04.000Z</time>
      </trkpt>
      <trkpt lat="47.56872" lon="-3.10258">
        <time>2018-01-21T13:43:05.000Z</time>
      </trkpt>
      <trkpt lat="47.56872" lon="-3.10258">
        <time>2018-01-21T13:43:06.000Z</time>
      </trkpt>
      <trkpt lat="47.56872" lon="-3.10258">
        <time>2018-01-21T13:43:07.000Z</time>
      </trkpt>
      <trkpt lat="47.56872" lon="-3.10258">
        <time>2018-01-21T13:43:08.000Z</time>
      </trkpt>
      <trkpt lat="47.56872" lon="-3.10258">
        <time>2018-01-21T13:43:09.000Z</time>
      </trkpt>
      <trkpt lat="47.56872" lon="-3.10258">
        <time>2018-01-21T13:43:10.000Z</time>
      </trkpt>
      <trkpt lat="47.56872" lon="-3.10258">
        <time>2018-01-21T13:43:11.000Z</time>
      </trkpt>
      <trkpt lat="47.56872" lon="-3.10258">
        <time>2018-01-21T13:43:12.000Z</time>
      </trkpt>
      <trkpt lat="47.56872" lon="-3.10258">
        <time>2018-01-21T13:43:13.000Z</time>
      </trkpt>
      <trkpt lat="47.56872" lon="-3.10258">
        <time>2018-01-21T13:43:14.000Z</time>
      </trkpt>
      <trkpt lat="47.56872" lon="-3.10258">
        <time>2018-01-21T13:43:15.000Z</time>
      </trkpt>
      <trkpt lat="47.56872" lon="-3.10258">
        <time>2018-01-21T13:43:16.000Z</time>
      </trkpt>
      <trkpt lat="47.56872" lon="-3.10258">
        <time>2018-01-21T13:43:17.000Z</time>
      </trkpt>
      <trkpt lat="47.56872" lon="-3.10258">
        <time>2018-01-21T13:43:18.000Z</time>
      </trkpt>
      <trkpt lat="47.56872" lon="-3.10258">
        <time>2018-01-21T13:43:19.000Z</time>
      </trkpt>
      <trkpt lat="47.56872" lon="-3.10258">
        <time>2018-01-21T13:43:20.000Z</time>
      </trkpt>
      <trkpt lat="47.56872" lon="-3.10258">
        <time>2018-01-21T13:43:21.000Z</time>
      </trkpt>
      <trkpt lat="47.56872" lon="-3.10258">
        <time>2018-01-21T13:43:22.000Z</time>
      </trkpt>
      <trkpt lat="47.56872" lon="-3.10258">
        <time>2018-01-21T13:43:23.000Z</time>
      </trkpt>
      <trkpt lat="47.56872" lon="-3.10258">
        <time>2018-01-21T13:43:24.000Z</time>
      </trkpt>
      <trkpt lat="47.56872" lon="-3.10258">
        <time>2018-01-21T13:43:25.000Z</time>
      </trkpt>
      <trkpt lat="47.56872" lon="-3.10258">
        <time>2018-01-21T13:43:26.000Z</time>
      </trkpt>
      <trkpt lat="47.56872" lon="-3.10258">
        <time>2018-01-21T13:43:27.000Z</time>
      </trkpt>
      <trkpt lat="47.56872" lon="-3.10258">
        <time>2018-01-21T13:43:28.000Z</time>
      </trkpt>
      <trkpt lat="47.56872" lon="-3.10258">
        <time>2018-01-21T13:43:29.000Z</time>
      </trkpt>
      <trkpt lat="47.56872" lon="-3.10258">
        <time>2018-01-21T13:43:30.000Z</time>
      </trkpt>
      <trkpt lat="47.56872" lon="-3.10258">
        <time>2018-01-21T13:43:31.000Z</time>
      </trkpt>
      <trkpt lat="47.56872" lon="-3.10258">
        <time>2018-01-21T13:43:32.000Z</time>
      </trkpt>
      <trkpt lat="47.56872" lon="-3.10258">
        <time>2018-01-21T13:43:33.000Z</time>
      </trkpt>
      <trkpt lat="47.56872" lon="-3.10258">
        <time>2018-01-21T13:43:34.000Z</time>
      </trkpt>
      <trkpt lat="47.56872" lon="-3.10258">
        <time>2018-01-21T13:43:35.000Z</time>
      </trkpt>
      <trkpt lat="47.56872" lon="-3.10258">
        <time>2018-01-21T13:43:36.000Z</time>
      </trkpt>
      <trkpt lat="47.56872" lon="-3.10258">
        <time>2018-01-21T13:43:37.000Z</time>
      </trkpt>
      <trkpt lat="47.56872" lon="-3.10258">
        <time>2018-01-21T13:43:38.000Z</time>
      </trkpt>
      <trkpt lat="47.56872" lon="-3.10258">
        <time>2018-01-21T13:43:39.000Z</time>
      </trkpt>
      <trkpt lat="47.56872" lon="-3.10258">
        <time>2018-01-21T13:43:40.000Z</time>
      </trkpt>
      <trkpt lat="47.56872" lon="-3.10258">
        <time>2018-01-21T13:43:41.000Z</time>
      </trkpt>
      <trkpt lat="47.56872" lon="-3.10258">
        <time>2018-01-21T13:43:42.000Z</time>
      </trkpt>
      <trkpt lat="47.56872" lon="-3.10258">
        <time>2018-01-21T13:43:43.000Z</time>
      </trkpt>
      <trkpt lat="47.56872" lon="-3.10258">
        <time>2018-01-21T13:43:44.000Z</time>
      </trkpt>
      <trkpt lat="47.56872" lon="-3.10258">
        <time>2018-01-21T13:43:45.000Z</time>
      </trkpt>
      <trkpt lat="47.56872" lon="-3.10258">
        <time>2018-01-21T13:43:46.000Z</time>
      </trkpt>
      <trkpt lat="47.56872" lon="-3.10258">
        <time>2018-01-21T13:43:47.000Z</time>
      </trkpt>
      <trkpt lat="47.56872" lon="-3.10258">
        <time>2018-01-21T13:43:48.000Z</time>
      </trkpt>
      <trkpt lat="47.56872" lon="-3.10258">
        <time>2018-01-21T13:43:49.000Z</time>
      </trkpt>
      <trkpt lat="47.56872" lon="-3.10258">
        <time>2018-01-21T13:43:50.000Z</time>
      </trkpt>
      <trkpt lat="47.56872" lon="-3.10258">
        <time>2018-01-21T13:43:51.000Z</time>
      </trkpt>
      <trkpt lat="47.56872" lon="-3.10258">
        <time>2018-01-21T13:43:52.000Z</time>
      </trkpt>
      <trkpt lat="47.56872" lon="-3.10258">
        <time>2018-01-21T13:43:53.000Z</time>
      </trkpt>
      <trkpt lat="47.56872" lon="-3.10258">
        <time>2018-01-21T13:43:54.000Z</time>
      </trkpt>
      <trkpt lat="47.56872" lon="-3.10258">
        <time>2018-01-21T13:43:55.000Z</time>
      </trkpt>
      <trkpt lat="47.56872" lon="-3.10258">
        <time>2018-01-21T13:43:56.000Z</time>
      </trkpt>
      <trkpt lat="47.56872" lon="-3.10258">
        <time>2018-01-21T13:43:57.000Z</time>
      </trkpt>
      <trkpt lat="47.56872" lon="-3.10258">
        <time>2018-01-21T13:43:58.000Z</time>
      </trkpt>
      <trkpt lat="47.56872" lon="-3.10258">
        <time>2018-01-21T13:43:59.000Z</time>
      </trkpt>
      <trkpt lat="47.56872" lon="-3.10258">
        <time>2018-01-21T13:44:00.000Z</time>
      </trkpt>
      <trkpt lat="47.56872" lon="-3.10258">
        <time>2018-01-21T13:44:01.000Z</time>
      </trkpt>
      <trkpt lat="47.56872" lon="-3.10258">
        <time>2018-01-21T13:44:02.000Z</time>
      </trkpt>
      <trkpt lat="47.56872" lon="-3.10258">
        <time>2018-01-21T13:44:03.000Z</time>
      </trkpt>
      <trkpt lat="47.56872" lon="-3.10258">
        <time>2018-01-21T13:44:04.000Z</time>
      </trkpt>
      <trkpt lat="47.56872" lon="-3.10258">
        <time>2018-01-21T13:44:05.000Z</time>
      </trkpt>
      <trkpt lat="47.56872" lon="-3.10258">
        <time>2018-01-21T13:44:06.000Z</time>
      </trkpt>
      <trkpt lat="47.56872" lon="-3.10258">
        <time>2018-01-21T13:44:07.000Z</time>
      </trkpt>
      <trkpt lat="47.56872" lon="-3.10258">
        <time>2018-01-21T13:44:08.000Z</time>
      </trkpt>
      <trkpt lat="47.56872" lon="-3.10258">
        <time>2018-01-21T13:44:09.000Z</time>
      </trkpt>
      <trkpt lat="47.56872" lon="-3.10258">
        <time>2018-01-21T13:44:10.000Z</time>
      </trkpt>
      <trkpt lat="47.56872" lon="-3.10258">
        <time>2018-01-21T13:44:11.000Z</time>
      </trkpt>
      <trkpt lat="47.56872" lon="-3.10258">
        <time>2018-01-21T13:44:12.000Z</time>
      </trkpt>
      <trkpt lat="47.56872" lon="-3.10258">
        <time>2018-01-21T13:44:13.000Z</time>
      </trkpt>
      <trkpt lat="47.56872" lon="-3.10258">
        <time>2018-01-21T13:44:14.000Z</time>
      </trkpt>
      <trkpt lat="47.56872" lon="-3.10258">
        <time>2018-01-21T13:44:15.000Z</time>
      </trkpt>
      <trkpt lat="47.56872" lon="-3.10258">
        <time>2018-01-21T13:44:16.000Z</time>
      </trkpt>
      <trkpt lat="47.56872" lon="-3.10258">
        <time>2018-01-21T13:44:17.000Z</time>
      </trkpt>
      <trkpt lat="47.56872" lon="-3.10258">
        <time>2018-01-21T13:44:18.000Z</time>
      </trkpt>
      <trkpt lat="47.56872" lon="-3.10258">
        <time>2018-01-21T13:44:19.000Z</time>
      </trkpt>
      <trkpt lat="47.56872" lon="-3.10258">
        <time>2018-01-21T13:44:20.000Z</time>
      </trkpt>
      <trkpt lat="47.56872" lon="-3.10258">
        <time>2018-01-21T13:44:21.000Z</time>
      </trkpt>
      <trkpt lat="47.56872" lon="-3.10258">
        <time>2018-01-21T13:44:22.000Z</time>
      </trkpt>
      <trkpt lat="47.56872" lon="-3.10258">
        <time>2018-01-21T13:44:23.000Z</time>
      </trkpt>
      <trkpt lat="47.56872" lon="-3.10258">
        <time>2018-01-21T13:44:24.000Z</time>
      </trkpt>
      <trkpt lat="47.56872" lon="-3.10258">
        <time>2018-01-21T13:44:25.000Z</time>
      </trkpt>
      <trkpt lat="47.56872" lon="-3.10258">
        <time>2018-01-21T13:44:26.000Z</time>
      </trkpt>
      <trkpt lat="47.56872" lon="-3.10258">
        <time>2018-01-21T13:44:27.000Z</time>
      </trkpt>
      <trkpt lat="47.56872" lon="-3.10258">
        <time>2018-01-21T13:44:28.000Z</time>
      </trkpt>
      <trkpt lat="47.56872" lon="-3.10258">
        <time>2018-01-21T13:44:29.000Z</time>
      </trkpt>
      <trkpt lat="47.56872" lon="-3.10258">
        <time>2018-01-21T13:44:30.000Z</time>
      </trkpt>
      <trkpt lat="47.56872" lon="-3.10258">
        <time>2018-01-21T13:44:31.000Z</time>
      </trkpt>
      <trkpt lat="47.56872" lon="-3.10258">
        <time>2018-01-21T13:44:32.000Z</time>
      </trkpt>
      <trkpt lat="47.56872" lon="-3.10258">
        <time>2018-01-21T13:44:33.000Z</time>
      </trkpt>
      <trkpt lat="47.56872" lon="-3.10258">
        <time>2018-01-21T13:44:34.000Z</time>
      </trkpt>
      <trkpt lat="47.56872" lon="-3.10258">
        <time>2018-01-21T13:44:35.000Z</time>
      </trkpt>
      <trkpt lat="47.56872" lon="-3.10258">
        <time>2018-01-21T13:44:36.000Z</time>
      </trkpt>
      <trkpt lat="47.56872" lon="-3.10258">
        <time>2018-01-21T13:44:37.000Z</time>
      </trkpt>
      <trkpt lat="47.56872" lon="-3.10258">
        <time>2018-01-21T13:44:38.000Z</time>
      </trkpt>
      <trkpt lat="47.56872" lon="-3.10258">
        <time>2018-01-21T13:44:39.000Z</time>
      </trkpt>
      <trkpt lat="47.56879" lon="-3.10268">
        <time>2018-01-21T13:44:40.000Z</time>
      </trkpt>
      <trkpt lat="47.56879" lon="-3.10269">
        <time>2018-01-21T13:44:41.000Z</time>
      </trkpt>
      <trkpt lat="47.5688" lon="-3.10269">
        <time>2018-01-21T13:44:42.000Z</time>
      </trkpt>
      <trkpt lat="47.56878" lon="-3.10269">
        <time>2018-01-21T13:44:43.000Z</time>
      </trkpt>
      <trkpt lat="47.56878" lon="-3.10269">
        <time>2018-01-21T13:44:44.000Z</time>
      </trkpt>
      <trkpt lat="47.56878" lon="-3.10269">
        <time>2018-01-21T13:44:45.000Z</time>
      </trkpt>
      <trkpt lat="47.56878" lon="-3.10269">
        <time>2018-01-21T13:44:46.000Z</time>
      </trkpt>
      <trkpt lat="47.56878" lon="-3.10269">
        <time>2018-01-21T13:44:47.000Z</time>
      </trkpt>
      <trkpt lat="47.56878" lon="-3.10269">
        <time>2018-01-21T13:44:48.000Z</time>
      </trkpt>
      <trkpt lat="47.56878" lon="-3.10269">
        <time>2018-01-21T13:44:49.000Z</time>
      </trkpt>
      <trkpt lat="47.56878" lon="-3.10269">
        <time>2018-01-21T13:44:50.000Z</time>
      </trkpt>
      <trkpt lat="47.56878" lon="-3.10269">
        <time>2018-01-21T13:44:51.000Z</time>
      </trkpt>
      <trkpt lat="47.56878" lon="-3.10269">
        <time>2018-01-21T13:44:52.000Z</time>
      </trkpt>
      <trkpt lat="47.56871" lon="-3.10277">
        <time>2018-01-21T13:44:53.000Z</time>
      </trkpt>
      <trkpt lat="47.56869" lon="-3.10278">
        <time>2018-01-21T13:44:54.000Z</time>
      </trkpt>
      <trkpt lat="47.56867" lon="-3.10279">
        <time>2018-01-21T13:44:55.000Z</time>
      </trkpt>
      <trkpt lat="47.56865" lon="-3.1028">
        <time>2018-01-21T13:44:56.000Z</time>
      </trkpt>
      <trkpt lat="47.56863" lon="-3.10281">
        <time>2018-01-21T13:44:57.000Z</time>
      </trkpt>
      <trkpt lat="47.5686" lon="-3.10282">
        <time>2018-01-21T13:44:58.000Z</time>
      </trkpt>
      <trkpt lat="47.56857" lon="-3.10282">
        <time>2018-01-21T13:44:59.000Z</time>
      </trkpt>
      <trkpt lat="47.56854" lon="-3.10283">
        <time>2018-01-21T13:45:00.000Z</time>
      </trkpt>
      <trkpt lat="47.5685" lon="-3.10283">
        <time>2018-01-21T13:45:01.000Z</time>
      </trkpt>
      <trkpt lat="47.56846" lon="-3.10283">
        <time>2018-01-21T13:45:02.000Z</time>
      </trkpt>
      <trkpt lat="47.56841" lon="-3.10284">
        <time>2018-01-21T13:45:03.000Z</time>
      </trkpt>
      <trkpt lat="47.56836" lon="-3.10284">
        <time>2018-01-21T13:45:04.000Z</time>
      </trkpt>
      <trkpt lat="47.56832" lon="-3.10285">
        <time>2018-01-21T13:45:05.000Z</time>
      </trkpt>
      <trkpt lat="47.56827" lon="-3.10285">
        <time>2018-01-21T13:45:06.000Z</time>
      </trkpt>
      <trkpt lat="47.56822" lon="-3.10286">
        <time>2018-01-21T13:45:07.000Z</time>
      </trkpt>
      <trkpt lat="47.56817" lon="-3.10286">
        <time>2018-01-21T13:45:08.000Z</time>
      </trkpt>
      <trkpt lat="47.56812" lon="-3.10286">
        <time>2018-01-21T13:45:09.000Z</time>
      </trkpt>
      <trkpt lat="47.56807" lon="-3.10286">
        <time>2018-01-21T13:45:10.000Z</time>
      </trkpt>
      <trkpt lat="47.56801" lon="-3.10285">
        <time>2018-01-21T13:45:11.000Z</time>
      </trkpt>
      <trkpt lat="47.56795" lon="-3.10285">
        <time>2018-01-21T13:45:12.000Z</time>
      </trkpt>
      <trkpt lat="47.56788" lon="-3.10284">
        <time>2018-01-21T13:45:13.000Z</time>
      </trkpt>
      <trkpt lat="47.56782" lon="-3.10283">
        <time>2018-01-21T13:45:14.000Z</time>
      </trkpt>
      <trkpt lat="47.56775" lon="-3.10283">
        <time>2018-01-21T13:45:15.000Z</time>
      </trkpt>
      <trkpt lat="47.56769" lon="-3.10282">
        <time>2018-01-21T13:45:16.000Z</time>
      </trkpt>
      <trkpt lat="47.56762" lon="-3.10282">
        <time>2018-01-21T13:45:17.000Z</time>
      </trkpt>
      <trkpt lat="47.56755" lon="-3.10282">
        <time>2018-01-21T13:45:18.000Z</time>
      </trkpt>
      <trkpt lat="47.56748" lon="-3.10281">
        <time>2018-01-21T13:45:19.000Z</time>
      </trkpt>
      <trkpt lat="47.56741" lon="-3.10281">
        <time>2018-01-21T13:45:20.000Z</time>
      </trkpt>
      <trkpt lat="47.56735" lon="-3.10281">
        <time>2018-01-21T13:45:21.000Z</time>
      </trkpt>
      <trkpt lat="47.56727" lon="-3.10281">
        <time>2018-01-21T13:45:22.000Z</time>
      </trkpt>
      <trkpt lat="47.5672" lon="-3.10281">
        <time>2018-01-21T13:45:23.000Z</time>
      </trkpt>
      <trkpt lat="47.56713" lon="-3.10282">
        <time>2018-01-21T13:45:24.000Z</time>
      </trkpt>
      <trkpt lat="47.56707" lon="-3.10282">
        <time>2018-01-21T13:45:25.000Z</time>
      </trkpt>
      <trkpt lat="47.567" lon="-3.10281">
        <time>2018-01-21T13:45:26.000Z</time>
      </trkpt>
      <trkpt lat="47.56693" lon="-3.10281">
        <time>2018-01-21T13:45:27.000Z</time>
      </trkpt>
      <trkpt lat="47.56687" lon="-3.10281">
        <time>2018-01-21T13:45:28.000Z</time>
      </trkpt>
      <trkpt lat="47.5668" lon="-3.1028">
        <time>2018-01-21T13:45:29.000Z</time>
      </trkpt>
      <trkpt lat="47.56672" lon="-3.10279">
        <time>2018-01-21T13:45:30.000Z</time>
      </trkpt>
      <trkpt lat="47.56666" lon="-3.1028">
        <time>2018-01-21T13:45:31.000Z</time>
      </trkpt>
      <trkpt lat="47.5666" lon="-3.10282">
        <time>2018-01-21T13:45:32.000Z</time>
      </trkpt>
      <trkpt lat="47.56655" lon="-3.10284">
        <time>2018-01-21T13:45:33.000Z</time>
      </trkpt>
      <trkpt lat="47.56649" lon="-3.10286">
        <time>2018-01-21T13:45:34.000Z</time>
      </trkpt>
      <trkpt lat="47.56644" lon="-3.10287">
        <time>2018-01-21T13:45:35.000Z</time>
      </trkpt>
      <trkpt lat="47.56638" lon="-3.10288">
        <time>2018-01-21T13:45:36.000Z</time>
      </trkpt>
      <trkpt lat="47.56631" lon="-3.10289">
        <time>2018-01-21T13:45:37.000Z</time>
      </trkpt>
      <trkpt lat="47.56621" lon="-3.10289">
        <time>2018-01-21T13:45:38.000Z</time>
      </trkpt>
      <trkpt lat="47.56614" lon="-3.10291">
        <time>2018-01-21T13:45:39.000Z</time>
      </trkpt>
      <trkpt lat="47.56607" lon="-3.10294">
        <time>2018-01-21T13:45:40.000Z</time>
      </trkpt>
      <trkpt lat="47.56601" lon="-3.10294">
        <time>2018-01-21T13:45:41.000Z</time>
      </trkpt>
      <trkpt lat="47.56595" lon="-3.10295">
        <time>2018-01-21T13:45:42.000Z</time>
      </trkpt>
      <trkpt lat="47.56588" lon="-3.10296">
        <time>2018-01-21T13:45:43.000Z</time>
      </trkpt>
      <trkpt lat="47.56582" lon="-3.10297">
        <time>2018-01-21T13:45:44.000Z</time>
      </trkpt>
      <trkpt lat="47.56576" lon="-3.10296">
        <time>2018-01-21T13:45:45.000Z</time>
      </trkpt>
      <trkpt lat="47.56569" lon="-3.10294">
        <time>2018-01-21T13:45:46.000Z</time>
      </trkpt>
      <trkpt lat="47.56561" lon="-3.10294">
        <time>2018-01-21T13:45:47.000Z</time>
      </trkpt>
      <trkpt lat="47.56556" lon="-3.10292">
        <time>2018-01-21T13:45:48.000Z</time>
      </trkpt>
      <trkpt lat="47.56551" lon="-3.10292">
        <time>2018-01-21T13:45:49.000Z</time>
      </trkpt>
      <trkpt lat="47.56545" lon="-3.10293">
        <time>2018-01-21T13:45:50.000Z</time>
      </trkpt>
      <trkpt lat="47.56537" lon="-3.10293">
        <time>2018-01-21T13:45:51.000Z</time>
      </trkpt>
      <trkpt lat="47.5653" lon="-3.10294">
        <time>2018-01-21T13:45:52.000Z</time>
      </trkpt>
      <trkpt lat="47.56523" lon="-3.10295">
        <time>2018-01-21T13:45:53.000Z</time>
      </trkpt>
      <trkpt lat="47.56515" lon="-3.10296">
        <time>2018-01-21T13:45:54.000Z</time>
      </trkpt>
      <trkpt lat="47.56508" lon="-3.10295">
        <time>2018-01-21T13:45:55.000Z</time>
      </trkpt>
      <trkpt lat="47.56501" lon="-3.10294">
        <time>2018-01-21T13:45:56.000Z</time>
      </trkpt>
      <trkpt lat="47.56494" lon="-3.10292">
        <time>2018-01-21T13:45:57.000Z</time>
      </trkpt>
      <trkpt lat="47.56487" lon="-3.10291">
        <time>2018-01-21T13:45:58.000Z</time>
      </trkpt>
      <trkpt lat="47.56481" lon="-3.1029">
        <time>2018-01-21T13:45:59.000Z</time>
      </trkpt>
      <trkpt lat="47.56473" lon="-3.10288">
        <time>2018-01-21T13:46:00.000Z</time>
      </trkpt>
      <trkpt lat="47.56466" lon="-3.10286">
        <time>2018-01-21T13:46:01.000Z</time>
      </trkpt>
      <trkpt lat="47.56459" lon="-3.10284">
        <time>2018-01-21T13:46:02.000Z</time>
      </trkpt>
      <trkpt lat="47.56452" lon="-3.10282">
        <time>2018-01-21T13:46:03.000Z</time>
      </trkpt>
      <trkpt lat="47.56443" lon="-3.10276">
        <time>2018-01-21T13:46:04.000Z</time>
      </trkpt>
      <trkpt lat="47.56435" lon="-3.10274">
        <time>2018-01-21T13:46:05.000Z</time>
      </trkpt>
      <trkpt lat="47.56428" lon="-3.1027">
        <time>2018-01-21T13:46:06.000Z</time>
      </trkpt>
      <trkpt lat="47.5642" lon="-3.10267">
        <time>2018-01-21T13:46:07.000Z</time>
      </trkpt>
      <trkpt lat="47.56413" lon="-3.10265">
        <time>2018-01-21T13:46:08.000Z</time>
      </trkpt>
      <trkpt lat="47.56405" lon="-3.10262">
        <time>2018-01-21T13:46:09.000Z</time>
      </trkpt>
      <trkpt lat="47.56397" lon="-3.10258">
        <time>2018-01-21T13:46:10.000Z</time>
      </trkpt>
      <trkpt lat="47.56389" lon="-3.10255">
        <time>2018-01-21T13:46:11.000Z</time>
      </trkpt>
      <trkpt lat="47.56381" lon="-3.10252">
        <time>2018-01-21T13:46:12.000Z</time>
      </trkpt>
      <trkpt lat="47.56372" lon="-3.1025">
        <time>2018-01-21T13:46:13.000Z</time>
      </trkpt>
      <trkpt lat="47.56365" lon="-3.10248">
        <time>2018-01-21T13:46:14.000Z</time>
      </trkpt>
      <trkpt lat="47.56356" lon="-3.10245">
        <time>2018-01-21T13:46:15.000Z</time>
      </trkpt>
      <trkpt lat="47.56348" lon="-3.10242">
        <time>2018-01-21T13:46:16.000Z</time>
      </trkpt>
      <trkpt lat="47.5634" lon="-3.10239">
        <time>2018-01-21T13:46:17.000Z</time>
      </trkpt>
      <trkpt lat="47.56332" lon="-3.10237">
        <time>2018-01-21T13:46:18.000Z</time>
      </trkpt>
      <trkpt lat="47.56323" lon="-3.10236">
        <time>2018-01-21T13:46:19.000Z</time>
      </trkpt>
      <trkpt lat="47.56315" lon="-3.10234">
        <time>2018-01-21T13:46:20.000Z</time>
      </trkpt>
      <trkpt lat="47.56307" lon="-3.10233">
        <time>2018-01-21T13:46:21.000Z</time>
      </trkpt>
      <trkpt lat="47.563" lon="-3.10232">
        <time>2018-01-21T13:46:22.000Z</time>
      </trkpt>
      <trkpt lat="47.56291" lon="-3.10232">
        <time>2018-01-21T13:46:23.000Z</time>
      </trkpt>
      <trkpt lat="47.56283" lon="-3.10233">
        <time>2018-01-21T13:46:24.000Z</time>
      </trkpt>
      <trkpt lat="47.56275" lon="-3.10231">
        <time>2018-01-21T13:46:25.000Z</time>
      </trkpt>
      <trkpt lat="47.56266" lon="-3.10229">
        <time>2018-01-21T13:46:26.000Z</time>
      </trkpt>
      <trkpt lat="47.56258" lon="-3.10227">
        <time>2018-01-21T13:46:27.000Z</time>
      </trkpt>
      <trkpt lat="47.5625" lon="-3.10225">
        <time>2018-01-21T13:46:28.000Z</time>
      </trkpt>
      <trkpt lat="47.56242" lon="-3.10224">
        <time>2018-01-21T13:46:29.000Z</time>
      </trkpt>
      <trkpt lat="47.56234" lon="-3.10223">
        <time>2018-01-21T13:46:30.000Z</time>
      </trkpt>
      <trkpt lat="47.56227" lon="-3.10221">
        <time>2018-01-21T13:46:31.000Z</time>
      </trkpt>
      <trkpt lat="47.5622" lon="-3.10219">
        <time>2018-01-21T13:46:32.000Z</time>
      </trkpt>
      <trkpt lat="47.56213" lon="-3.10217">
        <time>2018-01-21T13:46:33.000Z</time>
      </trkpt>
      <trkpt lat="47.56205" lon="-3.10215">
        <time>2018-01-21T13:46:34.000Z</time>
      </trkpt>
      <trkpt lat="47.56197" lon="-3.10214">
        <time>2018-01-21T13:46:35.000Z</time>
      </trkpt>
      <trkpt lat="47.5619" lon="-3.10213">
        <time>2018-01-21T13:46:36.000Z</time>
      </trkpt>
      <trkpt lat="47.56182" lon="-3.10211">
        <time>2018-01-21T13:46:37.000Z</time>
      </trkpt>
      <trkpt lat="47.56175" lon="-3.10209">
        <time>2018-01-21T13:46:38.000Z</time>
      </trkpt>
      <trkpt lat="47.56167" lon="-3.10207">
        <time>2018-01-21T13:46:39.000Z</time>
      </trkpt>
      <trkpt lat="47.56159" lon="-3.10205">
        <time>2018-01-21T13:46:40.000Z</time>
      </trkpt>
      <trkpt lat="47.56152" lon="-3.10205">
        <time>2018-01-21T13:46:41.000Z</time>
      </trkpt>
      <trkpt lat="47.56145" lon="-3.10201">
        <time>2018-01-21T13:46:42.000Z</time>
      </trkpt>
      <trkpt lat="47.56137" lon="-3.10199">
        <time>2018-01-21T13:46:43.000Z</time>
      </trkpt>
      <trkpt lat="47.56129" lon="-3.10197">
        <time>2018-01-21T13:46:44.000Z</time>
      </trkpt>
      <trkpt lat="47.5612" lon="-3.10196">
        <time>2018-01-21T13:46:45.000Z</time>
      </trkpt>
      <trkpt lat="47.56112" lon="-3.10195">
        <time>2018-01-21T13:46:46.000Z</time>
      </trkpt>
      <trkpt lat="47.56105" lon="-3.10194">
        <time>2018-01-21T13:46:47.000Z</time>
      </trkpt>
      <trkpt lat="47.56096" lon="-3.10194">
        <time>2018-01-21T13:46:48.000Z</time>
      </trkpt>
      <trkpt lat="47.56088" lon="-3.10193">
        <time>2018-01-21T13:46:49.000Z</time>
      </trkpt>
      <trkpt lat="47.5608" lon="-3.10193">
        <time>2018-01-21T13:46:50.000Z</time>
      </trkpt>
      <trkpt lat="47.56072" lon="-3.10193">
        <time>2018-01-21T13:46:51.000Z</time>
      </trkpt>
      <trkpt lat="47.56065" lon="-3.10191">
        <time>2018-01-21T13:46:52.000Z</time>
      </trkpt>
      <trkpt lat="47.56057" lon="-3.1019">
        <time>2018-01-21T13:46:53.000Z</time>
      </trkpt>
      <trkpt lat="47.56048" lon="-3.10188">
        <time>2018-01-21T13:46:54.000Z</time>
      </trkpt>
      <trkpt lat="47.56041" lon="-3.10186">
        <time>2018-01-21T13:46:55.000Z</time>
      </trkpt>
      <trkpt lat="47.56033" lon="-3.10183">
        <time>2018-01-21T13:46:56.000Z</time>
      </trkpt>
      <trkpt lat="47.56026" lon="-3.1018">
        <time>2018-01-21T13:46:57.000Z</time>
      </trkpt>
      <trkpt lat="47.56019" lon="-3.10177">
        <time>2018-01-21T13:46:58.000Z</time>
      </trkpt>
      <trkpt lat="47.56011" lon="-3.10174">
        <time>2018-01-21T13:46:59.000Z</time>
      </trkpt>
      <trkpt lat="47.56003" lon="-3.10172">
        <time>2018-01-21T13:47:00.000Z</time>
      </trkpt>
      <trkpt lat="47.55994" lon="-3.10169">
        <time>2018-01-21T13:47:01.000Z</time>
      </trkpt>
      <trkpt lat="47.55987" lon="-3.10167">
        <time>2018-01-21T13:47:02.000Z</time>
      </trkpt>
      <trkpt lat="47.55978" lon="-3.10166">
        <time>2018-01-21T13:47:03.000Z</time>
      </trkpt>
      <trkpt lat="47.5597" lon="-3.10164">
        <time>2018-01-21T13:47:04.000Z</time>
      </trkpt>
      <trkpt lat="47.55962" lon="-3.10163">
        <time>2018-01-21T13:47:05.000Z</time>
      </trkpt>
      <trkpt lat="47.55955" lon="-3.10164">
        <time>2018-01-21T13:47:06.000Z</time>
      </trkpt>
      <trkpt lat="47.55947" lon="-3.10164">
        <time>2018-01-21T13:47:07.000Z</time>
      </trkpt>
      <trkpt lat="47.55939" lon="-3.10163">
        <time>2018-01-21T13:47:08.000Z</time>
      </trkpt>
      <trkpt lat="47.55932" lon="-3.10161">
        <time>2018-01-21T13:47:09.000Z</time>
      </trkpt>
      <trkpt lat="47.55925" lon="-3.1016">
        <time>2018-01-21T13:47:10.000Z</time>
      </trkpt>
      <trkpt lat="47.55918" lon="-3.1016">
        <time>2018-01-21T13:47:11.000Z</time>
      </trkpt>
      <trkpt lat="47.5591" lon="-3.10158">
        <time>2018-01-21T13:47:12.000Z</time>
      </trkpt>
      <trkpt lat="47.55903" lon="-3.10156">
        <time>2018-01-21T13:47:13.000Z</time>
      </trkpt>
      <trkpt lat="47.55895" lon="-3.10156">
        <time>2018-01-21T13:47:14.000Z</time>
      </trkpt>
      <trkpt lat="47.55888" lon="-3.10154">
        <time>2018-01-21T13:47:15.000Z</time>
      </trkpt>
      <trkpt lat="47.5588" lon="-3.10154">
        <time>2018-01-21T13:47:16.000Z</time>
      </trkpt>
      <trkpt lat="47.55872" lon="-3.10154">
        <time>2018-01-21T13:47:17.000Z</time>
      </trkpt>
      <trkpt lat="47.55864" lon="-3.10153">
        <time>2018-01-21T13:47:18.000Z</time>
      </trkpt>
      <trkpt lat="47.55856" lon="-3.10151">
        <time>2018-01-21T13:47:19.000Z</time>
      </trkpt>
      <trkpt lat="47.55848" lon="-3.1015">
        <time>2018-01-21T13:47:20.000Z</time>
      </trkpt>
      <trkpt lat="47.55841" lon="-3.10149">
        <time>2018-01-21T13:47:21.000Z</time>
      </trkpt>
      <trkpt lat="47.55834" lon="-3.10148">
        <time>2018-01-21T13:47:22.000Z</time>
      </trkpt>
      <trkpt lat="47.55827" lon="-3.10147">
        <time>2018-01-21T13:47:23.000Z</time>
      </trkpt>
      <trkpt lat="47.55821" lon="-3.10146">
        <time>2018-01-21T13:47:24.000Z</time>
      </trkpt>
      <trkpt lat="47.55813" lon="-3.10144">
        <time>2018-01-21T13:47:25.000Z</time>
      </trkpt>
      <trkpt lat="47.55806" lon="-3.10143">
        <time>2018-01-21T13:47:26.000Z</time>
      </trkpt>
      <trkpt lat="47.55799" lon="-3.10142">
        <time>2018-01-21T13:47:27.000Z</time>
      </trkpt>
      <trkpt lat="47.55791" lon="-3.10141">
        <time>2018-01-21T13:47:28.000Z</time>
      </trkpt>
      <trkpt lat="47.55785" lon="-3.10141">
        <time>2018-01-21T13:47:29.000Z</time>
      </trkpt>
      <trkpt lat="47.55779" lon="-3.10142">
        <time>2018-01-21T13:47:30.000Z</time>
      </trkpt>
      <trkpt lat="47.55773" lon="-3.10141">
        <time>2018-01-21T13:47:31.000Z</time>
      </trkpt>
      <trkpt lat="47.55768" lon="-3.10141">
        <time>2018-01-21T13:47:32.000Z</time>
      </trkpt>
      <trkpt lat="47.55762" lon="-3.1014">
        <time>2018-01-21T13:47:33.000Z</time>
      </trkpt>
      <trkpt lat="47.55756" lon="-3.10139">
        <time>2018-01-21T13:47:34.000Z</time>
      </trkpt>
      <trkpt lat="47.55749" lon="-3.10138">
        <time>2018-01-21T13:47:35.000Z</time>
      </trkpt>
      <trkpt lat="47.55742" lon="-3.10138">
        <time>2018-01-21T13:47:36.000Z</time>
      </trkpt>
      <trkpt lat="47.55736" lon="-3.10139">
        <time>2018-01-21T13:47:37.000Z</time>
      </trkpt>
      <trkpt lat="47.55729" lon="-3.10139">
        <time>2018-01-21T13:47:38.000Z</time>
      </trkpt>
      <trkpt lat="47.55722" lon="-3.10137">
        <time>2018-01-21T13:47:39.000Z</time>
      </trkpt>
      <trkpt lat="47.55715" lon="-3.10137">
        <time>2018-01-21T13:47:40.000Z</time>
      </trkpt>
      <trkpt lat="47.55709" lon="-3.10136">
        <time>2018-01-21T13:47:41.000Z</time>
      </trkpt>
      <trkpt lat="47.55703" lon="-3.10136">
        <time>2018-01-21T13:47:42.000Z</time>
      </trkpt>
      <trkpt lat="47.55696" lon="-3.10137">
        <time>2018-01-21T13:47:43.000Z</time>
      </trkpt>
      <trkpt lat="47.55689" lon="-3.10137">
        <time>2018-01-21T13:47:44.000Z</time>
      </trkpt>
      <trkpt lat="47.55683" lon="-3.10137">
        <time>2018-01-21T13:47:45.000Z</time>
      </trkpt>
      <trkpt lat="47.55676" lon="-3.10137">
        <time>2018-01-21T13:47:46.000Z</time>
      </trkpt>
      <trkpt lat="47.55669" lon="-3.10138">
        <time>2018-01-21T13:47:47.000Z</time>
      </trkpt>
      <trkpt lat="47.55662" lon="-3.10138">
        <time>2018-01-21T13:47:48.000Z</time>
      </trkpt>
      <trkpt lat="47.55655" lon="-3.10138">
        <time>2018-01-21T13:47:49.000Z</time>
      </trkpt>
      <trkpt lat="47.55648" lon="-3.10137">
        <time>2018-01-21T13:47:50.000Z</time>
      </trkpt>
      <trkpt lat="47.55641" lon="-3.10137">
        <time>2018-01-21T13:47:51.000Z</time>
      </trkpt>
      <trkpt lat="47.55634" lon="-3.10137">
        <time>2018-01-21T13:47:52.000Z</time>
      </trkpt>
      <trkpt lat="47.55627" lon="-3.10138">
        <time>2018-01-21T13:47:53.000Z</time>
      </trkpt>
      <trkpt lat="47.55621" lon="-3.10138">
        <time>2018-01-21T13:47:54.000Z</time>
      </trkpt>
      <trkpt lat="47.55615" lon="-3.10137">
        <time>2018-01-21T13:47:55.000Z</time>
      </trkpt>
      <trkpt lat="47.55609" lon="-3.10136">
        <time>2018-01-21T13:47:56.000Z</time>
      </trkpt>
      <trkpt lat="47.55603" lon="-3.10134">
        <time>2018-01-21T13:47:57.000Z</time>
      </trkpt>
      <trkpt lat="47.55596" lon="-3.10133">
        <time>2018-01-21T13:47:58.000Z</time>
      </trkpt>
      <trkpt lat="47.5559" lon="-3.1013">
        <time>2018-01-21T13:47:59.000Z</time>
      </trkpt>
      <trkpt lat="47.55583" lon="-3.10128">
        <time>2018-01-21T13:48:00.000Z</time>
      </trkpt>
      <trkpt lat="47.55576" lon="-3.10125">
        <time>2018-01-21T13:48:01.000Z</time>
      </trkpt>
      <trkpt lat="47.55569" lon="-3.10123">
        <time>2018-01-21T13:48:02.000Z</time>
      </trkpt>
      <trkpt lat="47.55562" lon="-3.10119">
        <time>2018-01-21T13:48:03.000Z</time>
      </trkpt>
      <trkpt lat="47.55555" lon="-3.10116">
        <time>2018-01-21T13:48:04.000Z</time>
      </trkpt>
      <trkpt lat="47.55548" lon="-3.10114">
        <time>2018-01-21T13:48:05.000Z</time>
      </trkpt>
      <trkpt lat="47.5554" lon="-3.10111">
        <time>2018-01-21T13:48:06.000Z</time>
      </trkpt>
      <trkpt lat="47.55534" lon="-3.10108">
        <time>2018-01-21T13:48:07.000Z</time>
      </trkpt>
      <trkpt lat="47.55527" lon="-3.10107">
        <time>2018-01-21T13:48:08.000Z</time>
      </trkpt>
      <trkpt lat="47.5552" lon="-3.10105">
        <time>2018-01-21T13:48:09.000Z</time>
      </trkpt>
      <trkpt lat="47.55514" lon="-3.10103">
        <time>2018-01-21T13:48:10.000Z</time>
      </trkpt>
      <trkpt lat="47.55507" lon="-3.101">
        <time>2018-01-21T13:48:11.000Z</time>
      </trkpt>
      <trkpt lat="47.55501" lon="-3.10099">
        <time>2018-01-21T13:48:12.000Z</time>
      </trkpt>
      <trkpt lat="47.55494" lon="-3.10098">
        <time>2018-01-21T13:48:13.000Z</time>
      </trkpt>
      <trkpt lat="47.55488" lon="-3.10098">
        <time>2018-01-21T13:48:14.000Z</time>
      </trkpt>
      <trkpt lat="47.55482" lon="-3.10097">
        <time>2018-01-21T13:48:15.000Z</time>
      </trkpt>
      <trkpt lat="47.55476" lon="-3.10097">
        <time>2018-01-21T13:48:16.000Z</time>
      </trkpt>
      <trkpt lat="47.5547" lon="-3.10096">
        <time>2018-01-21T13:48:17.000Z</time>
      </trkpt>
      <trkpt lat="47.55465" lon="-3.10096">
        <time>2018-01-21T13:48:18.000Z</time>
      </trkpt>
      <trkpt lat="47.55459" lon="-3.10095">
        <time>2018-01-21T13:48:19.000Z</time>
      </trkpt>
      <trkpt lat="47.55452" lon="-3.10096">
        <time>2018-01-21T13:48:20.000Z</time>
      </trkpt>
      <trkpt lat="47.55447" lon="-3.10095">
        <time>2018-01-21T13:48:21.000Z</time>
      </trkpt>
      <trkpt lat="47.55442" lon="-3.10093">
        <time>2018-01-21T13:48:22.000Z</time>
      </trkpt>
      <trkpt lat="47.55436" lon="-3.10091">
        <time>2018-01-21T13:48:23.000Z</time>
      </trkpt>
      <trkpt lat="47.55431" lon="-3.10089">
        <time>2018-01-21T13:48:24.000Z</time>
      </trkpt>
      <trkpt lat="47.55425" lon="-3.10087">
        <time>2018-01-21T13:48:25.000Z</time>
      </trkpt>
      <trkpt lat="47.55419" lon="-3.10083">
        <time>2018-01-21T13:48:26.000Z</time>
      </trkpt>
      <trkpt lat="47.55413" lon="-3.1008">
        <time>2018-01-21T13:48:27.000Z</time>
      </trkpt>
      <trkpt lat="47.55406" lon="-3.10077">
        <time>2018-01-21T13:48:28.000Z</time>
      </trkpt>
      <trkpt lat="47.55399" lon="-3.10076">
        <time>2018-01-21T13:48:29.000Z</time>
      </trkpt>
      <trkpt lat="47.55393" lon="-3.10076">
        <time>2018-01-21T13:48:30.000Z</time>
      </trkpt>
      <trkpt lat="47.55388" lon="-3.10078">
        <time>2018-01-21T13:48:31.000Z</time>
      </trkpt>
      <trkpt lat="47.55383" lon="-3.10079">
        <time>2018-01-21T13:48:32.000Z</time>
      </trkpt>
      <trkpt lat="47.55377" lon="-3.10079">
        <time>2018-01-21T13:48:33.000Z</time>
      </trkpt>
      <trkpt lat="47.55372" lon="-3.10077">
        <time>2018-01-21T13:48:34.000Z</time>
      </trkpt>
      <trkpt lat="47.55366" lon="-3.10075">
        <time>2018-01-21T13:48:35.000Z</time>
      </trkpt>
      <trkpt lat="47.5536" lon="-3.10073">
        <time>2018-01-21T13:48:36.000Z</time>
      </trkpt>
      <trkpt lat="47.55353" lon="-3.10069">
        <time>2018-01-21T13:48:37.000Z</time>
      </trkpt>
      <trkpt lat="47.55347" lon="-3.10064">
        <time>2018-01-21T13:48:38.000Z</time>
      </trkpt>
      <trkpt lat="47.5534" lon="-3.10058">
        <time>2018-01-21T13:48:39.000Z</time>
      </trkpt>
      <trkpt lat="47.55333" lon="-3.10053">
        <time>2018-01-21T13:48:40.000Z</time>
      </trkpt>
      <trkpt lat="47.55326" lon="-3.10049">
        <time>2018-01-21T13:48:41.000Z</time>
      </trkpt>
      <trkpt lat="47.55319" lon="-3.10044">
        <time>2018-01-21T13:48:42.000Z</time>
      </trkpt>
      <trkpt lat="47.55311" lon="-3.1004">
        <time>2018-01-21T13:48:43.000Z</time>
      </trkpt>
      <trkpt lat="47.55303" lon="-3.10036">
        <time>2018-01-21T13:48:44.000Z</time>
      </trkpt>
      <trkpt lat="47.55295" lon="-3.10033">
        <time>2018-01-21T13:48:45.000Z</time>
      </trkpt>
      <trkpt lat="47.55288" lon="-3.10029">
        <time>2018-01-21T13:48:46.000Z</time>
      </trkpt>
      <trkpt lat="47.5528" lon="-3.10025">
        <time>2018-01-21T13:48:47.000Z</time>
      </trkpt>
      <trkpt lat="47.55272" lon="-3.10021">
        <time>2018-01-21T13:48:48.000Z</time>
      </trkpt>
      <trkpt lat="47.55264" lon="-3.10017">
        <time>2018-01-21T13:48:49.000Z</time>
      </trkpt>
      <trkpt lat="47.55256" lon="-3.10013">
        <time>2018-01-21T13:48:50.000Z</time>
      </trkpt>
      <trkpt lat="47.55248" lon="-3.1001">
        <time>2018-01-21T13:48:51.000Z</time>
      </trkpt>
      <trkpt lat="47.5524" lon="-3.10007">
        <time>2018-01-21T13:48:52.000Z</time>
      </trkpt>
      <trkpt lat="47.55232" lon="-3.10004">
        <time>2018-01-21T13:48:53.000Z</time>
      </trkpt>
      <trkpt lat="47.55224" lon="-3.1">
        <time>2018-01-21T13:48:54.000Z</time>
      </trkpt>
      <trkpt lat="47.55216" lon="-3.09997">
        <time>2018-01-21T13:48:55.000Z</time>
      </trkpt>
      <trkpt lat="47.55208" lon="-3.09995">
        <time>2018-01-21T13:48:56.000Z</time>
      </trkpt>
      <trkpt lat="47.552" lon="-3.09995">
        <time>2018-01-21T13:48:57.000Z</time>
      </trkpt>
      <trkpt lat="47.55192" lon="-3.09994">
        <time>2018-01-21T13:48:58.000Z</time>
      </trkpt>
      <trkpt lat="47.55184" lon="-3.09993">
        <time>2018-01-21T13:48:59.000Z</time>
      </trkpt>
      <trkpt lat="47.55175" lon="-3.09992">
        <time>2018-01-21T13:49:00.000Z</time>
      </trkpt>
      <trkpt lat="47.55167" lon="-3.09988">
        <time>2018-01-21T13:49:01.000Z</time>
      </trkpt>
      <trkpt lat="47.55159" lon="-3.09988">
        <time>2018-01-21T13:49:02.000Z</time>
      </trkpt>
      <trkpt lat="47.55151" lon="-3.09986">
        <time>2018-01-21T13:49:03.000Z</time>
      </trkpt>
      <trkpt lat="47.55143" lon="-3.09984">
        <time>2018-01-21T13:49:04.000Z</time>
      </trkpt>
      <trkpt lat="47.55134" lon="-3.09981">
        <time>2018-01-21T13:49:05.000Z</time>
      </trkpt>
      <trkpt lat="47.55126" lon="-3.09978">
        <time>2018-01-21T13:49:06.000Z</time>
      </trkpt>
      <trkpt lat="47.55118" lon="-3.09974">
        <time>2018-01-21T13:49:07.000Z</time>
      </trkpt>
      <trkpt lat="47.5511" lon="-3.0997">
        <time>2018-01-21T13:49:08.000Z</time>
      </trkpt>
      <trkpt lat="47.55101" lon="-3.09967">
        <time>2018-01-21T13:49:09.000Z</time>
      </trkpt>
      <trkpt lat="47.55093" lon="-3.09963">
        <time>2018-01-21T13:49:10.000Z</time>
      </trkpt>
      <trkpt lat="47.55085" lon="-3.0996">
        <time>2018-01-21T13:49:11.000Z</time>
      </trkpt>
      <trkpt lat="47.55077" lon="-3.09957">
        <time>2018-01-21T13:49:12.000Z</time>
      </trkpt>
      <trkpt lat="47.5507" lon="-3.09955">
        <time>2018-01-21T13:49:13.000Z</time>
      </trkpt>
      <trkpt lat="47.55062" lon="-3.09952">
        <time>2018-01-21T13:49:14.000Z</time>
      </trkpt>
      <trkpt lat="47.55055" lon="-3.09949">
        <time>2018-01-21T13:49:15.000Z</time>
      </trkpt>
      <trkpt lat="47.55047" lon="-3.09948">
        <time>2018-01-21T13:49:16.000Z</time>
      </trkpt>
      <trkpt lat="47.5504" lon="-3.09946">
        <time>2018-01-21T13:49:17.000Z</time>
      </trkpt>
      <trkpt lat="47.55032" lon="-3.09943">
        <time>2018-01-21T13:49:18.000Z</time>
      </trkpt>
      <trkpt lat="47.55025" lon="-3.0994">
        <time>2018-01-21T13:49:19.000Z</time>
      </trkpt>
      <trkpt lat="47.55018" lon="-3.09938">
        <time>2018-01-21T13:49:20.000Z</time>
      </trkpt>
      <trkpt lat="47.55011" lon="-3.09937">
        <time>2018-01-21T13:49:21.000Z</time>
      </trkpt>
      <trkpt lat="47.55003" lon="-3.09937">
        <time>2018-01-21T13:49:22.000Z</time>
      </trkpt>
      <trkpt lat="47.54996" lon="-3.09937">
        <time>2018-01-21T13:49:23.000Z</time>
      </trkpt>
      <trkpt lat="47.54989" lon="-3.09936">
        <time>2018-01-21T13:49:24.000Z</time>
      </trkpt>
      <trkpt lat="47.54982" lon="-3.09935">
        <time>2018-01-21T13:49:25.000Z</time>
      </trkpt>
      <trkpt lat="47.54976" lon="-3.09934">
        <time>2018-01-21T13:49:26.000Z</time>
      </trkpt>
      <trkpt lat="47.54969" lon="-3.09933">
        <time>2018-01-21T13:49:27.000Z</time>
      </trkpt>
      <trkpt lat="47.54962" lon="-3.09932">
        <time>2018-01-21T13:49:28.000Z</time>
      </trkpt>
      <trkpt lat="47.54955" lon="-3.09931">
        <time>2018-01-21T13:49:29.000Z</time>
      </trkpt>
      <trkpt lat="47.54948" lon="-3.09931">
        <time>2018-01-21T13:49:30.000Z</time>
      </trkpt>
      <trkpt lat="47.54941" lon="-3.0993">
        <time>2018-01-21T13:49:31.000Z</time>
      </trkpt>
      <trkpt lat="47.54933" lon="-3.0993">
        <time>2018-01-21T13:49:32.000Z</time>
      </trkpt>
      <trkpt lat="47.54926" lon="-3.0993">
        <time>2018-01-21T13:49:33.000Z</time>
      </trkpt>
      <trkpt lat="47.5492" lon="-3.0993">
        <time>2018-01-21T13:49:34.000Z</time>
      </trkpt>
      <trkpt lat="47.54913" lon="-3.09931">
        <time>2018-01-21T13:49:35.000Z</time>
      </trkpt>
      <trkpt lat="47.54907" lon="-3.0993">
        <time>2018-01-21T13:49:36.000Z</time>
      </trkpt>
      <trkpt lat="47.549" lon="-3.09931">
        <time>2018-01-21T13:49:37.000Z</time>
      </trkpt>
      <trkpt lat="47.54893" lon="-3.09932">
        <time>2018-01-21T13:49:38.000Z</time>
      </trkpt>
      <trkpt lat="47.54886" lon="-3.09933">
        <time>2018-01-21T13:49:39.000Z</time>
      </trkpt>
      <trkpt lat="47.54879" lon="-3.09934">
        <time>2018-01-21T13:49:40.000Z</time>
      </trkpt>
      <trkpt lat="47.54872" lon="-3.09934">
        <time>2018-01-21T13:49:41.000Z</time>
      </trkpt>
      <trkpt lat="47.54866" lon="-3.09934">
        <time>2018-01-21T13:49:42.000Z</time>
      </trkpt>
      <trkpt lat="47.54859" lon="-3.09933">
        <time>2018-01-21T13:49:43.000Z</time>
      </trkpt>
      <trkpt lat="47.54851" lon="-3.09935">
        <time>2018-01-21T13:49:44.000Z</time>
      </trkpt>
      <trkpt lat="47.54843" lon="-3.09935">
        <time>2018-01-21T13:49:45.000Z</time>
      </trkpt>
      <trkpt lat="47.54835" lon="-3.09934">
        <time>2018-01-21T13:49:46.000Z</time>
      </trkpt>
      <trkpt lat="47.54827" lon="-3.09933">
        <time>2018-01-21T13:49:47.000Z</time>
      </trkpt>
      <trkpt lat="47.54818" lon="-3.09932">
        <time>2018-01-21T13:49:48.000Z</time>
      </trkpt>
      <trkpt lat="47.5481" lon="-3.09931">
        <time>2018-01-21T13:49:49.000Z</time>
      </trkpt>
      <trkpt lat="47.54802" lon="-3.09931">
        <time>2018-01-21T13:49:50.000Z</time>
      </trkpt>
      <trkpt lat="47.54794" lon="-3.09932">
        <time>2018-01-21T13:49:51.000Z</time>
      </trkpt>
      <trkpt lat="47.54785" lon="-3.09932">
        <time>2018-01-21T13:49:52.000Z</time>
      </trkpt>
      <trkpt lat="47.54777" lon="-3.09933">
        <time>2018-01-21T13:49:53.000Z</time>
      </trkpt>
      <trkpt lat="47.5477" lon="-3.09934">
        <time>2018-01-21T13:49:54.000Z</time>
      </trkpt>
      <trkpt lat="47.54762" lon="-3.09934">
        <time>2018-01-21T13:49:55.000Z</time>
      </trkpt>
      <trkpt lat="47.54755" lon="-3.09933">
        <time>2018-01-21T13:49:56.000Z</time>
      </trkpt>
      <trkpt lat="47.54748" lon="-3.09933">
        <time>2018-01-21T13:49:57.000Z</time>
      </trkpt>
      <trkpt lat="47.5474" lon="-3.09933">
        <time>2018-01-21T13:49:58.000Z</time>
      </trkpt>
      <trkpt lat="47.54734" lon="-3.09933">
        <time>2018-01-21T13:49:59.000Z</time>
      </trkpt>
      <trkpt lat="47.54727" lon="-3.09933">
        <time>2018-01-21T13:50:00.000Z</time>
      </trkpt>
      <trkpt lat="47.5472" lon="-3.09933">
        <time>2018-01-21T13:50:01.000Z</time>
      </trkpt>
      <trkpt lat="47.54714" lon="-3.09933">
        <time>2018-01-21T13:50:02.000Z</time>
      </trkpt>
      <trkpt lat="47.54709" lon="-3.09935">
        <time>2018-01-21T13:50:03.000Z</time>
      </trkpt>
      <trkpt lat="47.54702" lon="-3.09934">
        <time>2018-01-21T13:50:04.000Z</time>
      </trkpt>
      <trkpt lat="47.54696" lon="-3.09934">
        <time>2018-01-21T13:50:05.000Z</time>
      </trkpt>
      <trkpt lat="47.5469" lon="-3.09935">
        <time>2018-01-21T13:50:06.000Z</time>
      </trkpt>
      <trkpt lat="47.54684" lon="-3.09936">
        <time>2018-01-21T13:50:07.000Z</time>
      </trkpt>
      <trkpt lat="47.54678" lon="-3.09937">
        <time>2018-01-21T13:50:08.000Z</time>
      </trkpt>
      <trkpt lat="47.54673" lon="-3.09937">
        <time>2018-01-21T13:50:09.000Z</time>
      </trkpt>
      <trkpt lat="47.54666" lon="-3.09936">
        <time>2018-01-21T13:50:10.000Z</time>
      </trkpt>
      <trkpt lat="47.54659" lon="-3.09935">
        <time>2018-01-21T13:50:11.000Z</time>
      </trkpt>
      <trkpt lat="47.54652" lon="-3.09934">
        <time>2018-01-21T13:50:12.000Z</time>
      </trkpt>
      <trkpt lat="47.54645" lon="-3.09933">
        <time>2018-01-21T13:50:13.000Z</time>
      </trkpt>
      <trkpt lat="47.54637" lon="-3.09932">
        <time>2018-01-21T13:50:14.000Z</time>
      </trkpt>
      <trkpt lat="47.54629" lon="-3.09931">
        <time>2018-01-21T13:50:15.000Z</time>
      </trkpt>
      <trkpt lat="47.54622" lon="-3.09931">
        <time>2018-01-21T13:50:16.000Z</time>
      </trkpt>
      <trkpt lat="47.54614" lon="-3.09932">
        <time>2018-01-21T13:50:17.000Z</time>
      </trkpt>
      <trkpt lat="47.54606" lon="-3.09933">
        <time>2018-01-21T13:50:18.000Z</time>
      </trkpt>
      <trkpt lat="47.54598" lon="-3.09932">
        <time>2018-01-21T13:50:19.000Z</time>
      </trkpt>
      <trkpt lat="47.5459" lon="-3.09932">
        <time>2018-01-21T13:50:20.000Z</time>
      </trkpt>
      <trkpt lat="47.54582" lon="-3.09931">
        <time>2018-01-21T13:50:21.000Z</time>
      </trkpt>
      <trkpt lat="47.54575" lon="-3.09931">
        <time>2018-01-21T13:50:22.000Z</time>
      </trkpt>
      <trkpt lat="47.54567" lon="-3.09931">
        <time>2018-01-21T13:50:23.000Z</time>
      </trkpt>
      <trkpt lat="47.5456" lon="-3.09932">
        <time>2018-01-21T13:50:24.000Z</time>
      </trkpt>
      <trkpt lat="47.54553" lon="-3.09932">
        <time>2018-01-21T13:50:25.000Z</time>
      </trkpt>
      <trkpt lat="47.54547" lon="-3.09932">
        <time>2018-01-21T13:50:26.000Z</time>
      </trkpt>
      <trkpt lat="47.54541" lon="-3.09932">
        <time>2018-01-21T13:50:27.000Z</time>
      </trkpt>
      <trkpt lat="47.54534" lon="-3.09932">
        <time>2018-01-21T13:50:28.000Z</time>
      </trkpt>
      <trkpt lat="47.54527" lon="-3.09931">
        <time>2018-01-21T13:50:29.000Z</time>
      </trkpt>
      <trkpt lat="47.5452" lon="-3.0993">
        <time>2018-01-21T13:50:30.000Z</time>
      </trkpt>
      <trkpt lat="47.54513" lon="-3.09929">
        <time>2018-01-21T13:50:31.000Z</time>
      </trkpt>
      <trkpt lat="47.54505" lon="-3.09927">
        <time>2018-01-21T13:50:32.000Z</time>
      </trkpt>
      <trkpt lat="47.54497" lon="-3.09926">
        <time>2018-01-21T13:50:33.000Z</time>
      </trkpt>
      <trkpt lat="47.5449" lon="-3.09925">
        <time>2018-01-21T13:50:34.000Z</time>
      </trkpt>
      <trkpt lat="47.54481" lon="-3.09924">
        <time>2018-01-21T13:50:35.000Z</time>
      </trkpt>
      <trkpt lat="47.54473" lon="-3.09924">
        <time>2018-01-21T13:50:36.000Z</time>
      </trkpt>
      <trkpt lat="47.54466" lon="-3.09923">
        <time>2018-01-21T13:50:37.000Z</time>
      </trkpt>
      <trkpt lat="47.54458" lon="-3.09923">
        <time>2018-01-21T13:50:38.000Z</time>
      </trkpt>
      <trkpt lat="47.5445" lon="-3.09923">
        <time>2018-01-21T13:50:39.000Z</time>
      </trkpt>
      <trkpt lat="47.54442" lon="-3.09923">
        <time>2018-01-21T13:50:40.000Z</time>
      </trkpt>
      <trkpt lat="47.54435" lon="-3.09923">
        <time>2018-01-21T13:50:41.000Z</time>
      </trkpt>
      <trkpt lat="47.54428" lon="-3.09922">
        <time>2018-01-21T13:50:42.000Z</time>
      </trkpt>
      <trkpt lat="47.54421" lon="-3.09921">
        <time>2018-01-21T13:50:43.000Z</time>
      </trkpt>
      <trkpt lat="47.54414" lon="-3.09921">
        <time>2018-01-21T13:50:44.000Z</time>
      </trkpt>
      <trkpt lat="47.54407" lon="-3.0992">
        <time>2018-01-21T13:50:45.000Z</time>
      </trkpt>
      <trkpt lat="47.54399" lon="-3.0992">
        <time>2018-01-21T13:50:46.000Z</time>
      </trkpt>
      <trkpt lat="47.54392" lon="-3.0992">
        <time>2018-01-21T13:50:47.000Z</time>
      </trkpt>
      <trkpt lat="47.54384" lon="-3.0992">
        <time>2018-01-21T13:50:48.000Z</time>
      </trkpt>
      <trkpt lat="47.54376" lon="-3.09922">
        <time>2018-01-21T13:50:49.000Z</time>
      </trkpt>
      <trkpt lat="47.54367" lon="-3.09923">
        <time>2018-01-21T13:50:50.000Z</time>
      </trkpt>
      <trkpt lat="47.54358" lon="-3.09925">
        <time>2018-01-21T13:50:51.000Z</time>
      </trkpt>
      <trkpt lat="47.54351" lon="-3.09927">
        <time>2018-01-21T13:50:52.000Z</time>
      </trkpt>
      <trkpt lat="47.54343" lon="-3.09928">
        <time>2018-01-21T13:50:53.000Z</time>
      </trkpt>
      <trkpt lat="47.54336" lon="-3.0993">
        <time>2018-01-21T13:50:54.000Z</time>
      </trkpt>
      <trkpt lat="47.54328" lon="-3.09931">
        <time>2018-01-21T13:50:55.000Z</time>
      </trkpt>
      <trkpt lat="47.5432" lon="-3.09932">
        <time>2018-01-21T13:50:56.000Z</time>
      </trkpt>
      <trkpt lat="47.54313" lon="-3.09933">
        <time>2018-01-21T13:50:57.000Z</time>
      </trkpt>
      <trkpt lat="47.54305" lon="-3.09933">
        <time>2018-01-21T13:50:58.000Z</time>
      </trkpt>
      <trkpt lat="47.54299" lon="-3.09933">
        <time>2018-01-21T13:50:59.000Z</time>
      </trkpt>
      <trkpt lat="47.54291" lon="-3.09933">
        <time>2018-01-21T13:51:00.000Z</time>
      </trkpt>
      <trkpt lat="47.54284" lon="-3.09933">
        <time>2018-01-21T13:51:01.000Z</time>
      </trkpt>
      <trkpt lat="47.54277" lon="-3.09934">
        <time>2018-01-21T13:51:02.000Z</time>
      </trkpt>
      <trkpt lat="47.5427" lon="-3.09934">
        <time>2018-01-21T13:51:03.000Z</time>
      </trkpt>
      <trkpt lat="47.54263" lon="-3.09934">
        <time>2018-01-21T13:51:04.000Z</time>
      </trkpt>
      <trkpt lat="47.54256" lon="-3.09934">
        <time>2018-01-21T13:51:05.000Z</time>
      </trkpt>
      <trkpt lat="47.5425" lon="-3.09934">
        <time>2018-01-21T13:51:06.000Z</time>
      </trkpt>
      <trkpt lat="47.54244" lon="-3.09934">
        <time>2018-01-21T13:51:07.000Z</time>
      </trkpt>
      <trkpt lat="47.54238" lon="-3.09932">
        <time>2018-01-21T13:51:08.000Z</time>
      </trkpt>
      <trkpt lat="47.54232" lon="-3.0993">
        <time>2018-01-21T13:51:09.000Z</time>
      </trkpt>
      <trkpt lat="47.54226" lon="-3.09927">
        <time>2018-01-21T13:51:10.000Z</time>
      </trkpt>
      <trkpt lat="47.5422" lon="-3.09923">
        <time>2018-01-21T13:51:11.000Z</time>
      </trkpt>
      <trkpt lat="47.54213" lon="-3.09919">
        <time>2018-01-21T13:51:12.000Z</time>
      </trkpt>
      <trkpt lat="47.54206" lon="-3.09915">
        <time>2018-01-21T13:51:13.000Z</time>
      </trkpt>
      <trkpt lat="47.54199" lon="-3.09913">
        <time>2018-01-21T13:51:14.000Z</time>
      </trkpt>
      <trkpt lat="47.54193" lon="-3.09912">
        <time>2018-01-21T13:51:15.000Z</time>
      </trkpt>
      <trkpt lat="47.54187" lon="-3.09911">
        <time>2018-01-21T13:51:16.000Z</time>
      </trkpt>
      <trkpt lat="47.54181" lon="-3.0991">
        <time>2018-01-21T13:51:17.000Z</time>
      </trkpt>
      <trkpt lat="47.54176" lon="-3.09907">
        <time>2018-01-21T13:51:18.000Z</time>
      </trkpt>
      <trkpt lat="47.54171" lon="-3.099">
        <time>2018-01-21T13:51:19.000Z</time>
      </trkpt>
      <trkpt lat="47.54169" lon="-3.09892">
        <time>2018-01-21T13:51:20.000Z</time>
      </trkpt>
      <trkpt lat="47.54168" lon="-3.09885">
        <time>2018-01-21T13:51:21.000Z</time>
      </trkpt>
      <trkpt lat="47.5417" lon="-3.09882">
        <time>2018-01-21T13:51:22.000Z</time>
      </trkpt>
      <trkpt lat="47.54171" lon="-3.0988">
        <time>2018-01-21T13:51:23.000Z</time>
      </trkpt>
      <trkpt lat="47.54172" lon="-3.09879">
        <time>2018-01-21T13:51:24.000Z</time>
      </trkpt>
      <trkpt lat="47.54174" lon="-3.0988">
        <time>2018-01-21T13:51:25.000Z</time>
      </trkpt>
      <trkpt lat="47.54175" lon="-3.09881">
        <time>2018-01-21T13:51:26.000Z</time>
      </trkpt>
      <trkpt lat="47.54177" lon="-3.09882">
        <time>2018-01-21T13:51:27.000Z</time>
      </trkpt>
      <trkpt lat="47.54179" lon="-3.09883">
        <time>2018-01-21T13:51:28.000Z</time>
      </trkpt>
      <trkpt lat="47.54181" lon="-3.09884">
        <time>2018-01-21T13:51:29.000Z</time>
      </trkpt>
      <trkpt lat="47.54184" lon="-3.09886">
        <time>2018-01-21T13:51:30.000Z</time>
      </trkpt>
      <trkpt lat="47.54187" lon="-3.09887">
        <time>2018-01-21T13:51:31.000Z</time>
      </trkpt>
      <trkpt lat="47.54189" lon="-3.09889">
        <time>2018-01-21T13:51:32.000Z</time>
      </trkpt>
      <trkpt lat="47.54192" lon="-3.0989">
        <time>2018-01-21T13:51:33.000Z</time>
      </trkpt>
      <trkpt lat="47.54195" lon="-3.09891">
        <time>2018-01-21T13:51:34.000Z</time>
      </trkpt>
      <trkpt lat="47.54199" lon="-3.09893">
        <time>2018-01-21T13:51:35.000Z</time>
      </trkpt>
      <trkpt lat="47.54202" lon="-3.09895">
        <time>2018-01-21T13:51:36.000Z</time>
      </trkpt>
      <trkpt lat="47.54205" lon="-3.09897">
        <time>2018-01-21T13:51:37.000Z</time>
      </trkpt>
      <trkpt lat="47.54209" lon="-3.09899">
        <time>2018-01-21T13:51:38.000Z</time>
      </trkpt>
      <trkpt lat="47.54211" lon="-3.09902">
        <time>2018-01-21T13:51:39.000Z</time>
      </trkpt>
      <trkpt lat="47.54215" lon="-3.09904">
        <time>2018-01-21T13:51:40.000Z</time>
      </trkpt>
      <trkpt lat="47.54219" lon="-3.09907">
        <time>2018-01-21T13:51:41.000Z</time>
      </trkpt>
      <trkpt lat="47.54222" lon="-3.09909">
        <time>2018-01-21T13:51:42.000Z</time>
      </trkpt>
      <trkpt lat="47.54225" lon="-3.09911">
        <time>2018-01-21T13:51:43.000Z</time>
      </trkpt>
      <trkpt lat="47.54229" lon="-3.09913">
        <time>2018-01-21T13:51:44.000Z</time>
      </trkpt>
      <trkpt lat="47.54233" lon="-3.09915">
        <time>2018-01-21T13:51:45.000Z</time>
      </trkpt>
      <trkpt lat="47.54237" lon="-3.09916">
        <time>2018-01-21T13:51:46.000Z</time>
      </trkpt>
      <trkpt lat="47.5424" lon="-3.09918">
        <time>2018-01-21T13:51:47.000Z</time>
      </trkpt>
      <trkpt lat="47.54245" lon="-3.09919">
        <time>2018-01-21T13:51:48.000Z</time>
      </trkpt>
      <trkpt lat="47.54249" lon="-3.0992">
        <time>2018-01-21T13:51:49.000Z</time>
      </trkpt>
      <trkpt lat="47.54254" lon="-3.09921">
        <time>2018-01-21T13:51:50.000Z</time>
      </trkpt>
      <trkpt lat="47.54259" lon="-3.09922">
        <time>2018-01-21T13:51:51.000Z</time>
      </trkpt>
      <trkpt lat="47.54264" lon="-3.09924">
        <time>2018-01-21T13:51:52.000Z</time>
      </trkpt>
      <trkpt lat="47.54269" lon="-3.09925">
        <time>2018-01-21T13:51:53.000Z</time>
      </trkpt>
      <trkpt lat="47.54274" lon="-3.09926">
        <time>2018-01-21T13:51:54.000Z</time>
      </trkpt>
      <trkpt lat="47.54279" lon="-3.09928">
        <time>2018-01-21T13:51:55.000Z</time>
      </trkpt>
      <trkpt lat="47.54284" lon="-3.0993">
        <time>2018-01-21T13:51:56.000Z</time>
      </trkpt>
      <trkpt lat="47.54291" lon="-3.09931">
        <time>2018-01-21T13:51:57.000Z</time>
      </trkpt>
      <trkpt lat="47.54298" lon="-3.09933">
        <time>2018-01-21T13:51:58.000Z</time>
      </trkpt>
      <trkpt lat="47.54305" lon="-3.09935">
        <time>2018-01-21T13:51:59.000Z</time>
      </trkpt>
      <trkpt lat="47.54312" lon="-3.09937">
        <time>2018-01-21T13:52:00.000Z</time>
      </trkpt>
      <trkpt lat="47.54319" lon="-3.09939">
        <time>2018-01-21T13:52:01.000Z</time>
      </trkpt>
      <trkpt lat="47.54327" lon="-3.09942">
        <time>2018-01-21T13:52:02.000Z</time>
      </trkpt>
      <trkpt lat="47.54334" lon="-3.09944">
        <time>2018-01-21T13:52:03.000Z</time>
      </trkpt>
      <trkpt lat="47.54342" lon="-3.09947">
        <time>2018-01-21T13:52:04.000Z</time>
      </trkpt>
      <trkpt lat="47.5435" lon="-3.0995">
        <time>2018-01-21T13:52:05.000Z</time>
      </trkpt>
      <trkpt lat="47.54358" lon="-3.09953">
        <time>2018-01-21T13:52:06.000Z</time>
      </trkpt>
      <trkpt lat="47.54367" lon="-3.09955">
        <time>2018-01-21T13:52:07.000Z</time>
      </trkpt>
      <trkpt lat="47.54375" lon="-3.09958">
        <time>2018-01-21T13:52:08.000Z</time>
      </trkpt>
      <trkpt lat="47.54383" lon="-3.09959">
        <time>2018-01-21T13:52:09.000Z</time>
      </trkpt>
      <trkpt lat="47.54391" lon="-3.09961">
        <time>2018-01-21T13:52:10.000Z</time>
      </trkpt>
      <trkpt lat="47.54399" lon="-3.09963">
        <time>2018-01-21T13:52:11.000Z</time>
      </trkpt>
      <trkpt lat="47.54408" lon="-3.09965">
        <time>2018-01-21T13:52:12.000Z</time>
      </trkpt>
      <trkpt lat="47.54416" lon="-3.09969">
        <time>2018-01-21T13:52:13.000Z</time>
      </trkpt>
      <trkpt lat="47.54424" lon="-3.09972">
        <time>2018-01-21T13:52:14.000Z</time>
      </trkpt>
      <trkpt lat="47.54432" lon="-3.09975">
        <time>2018-01-21T13:52:15.000Z</time>
      </trkpt>
      <trkpt lat="47.54441" lon="-3.09978">
        <time>2018-01-21T13:52:16.000Z</time>
      </trkpt>
      <trkpt lat="47.54449" lon="-3.09981">
        <time>2018-01-21T13:52:17.000Z</time>
      </trkpt>
      <trkpt lat="47.54457" lon="-3.09984">
        <time>2018-01-21T13:52:18.000Z</time>
      </trkpt>
      <trkpt lat="47.54465" lon="-3.09987">
        <time>2018-01-21T13:52:19.000Z</time>
      </trkpt>
      <trkpt lat="47.54474" lon="-3.0999">
        <time>2018-01-21T13:52:20.000Z</time>
      </trkpt>
      <trkpt lat="47.54482" lon="-3.09993">
        <time>2018-01-21T13:52:21.000Z</time>
      </trkpt>
      <trkpt lat="47.5449" lon="-3.09997">
        <time>2018-01-21T13:52:22.000Z</time>
      </trkpt>
      <trkpt lat="47.54499" lon="-3.1">
        <time>2018-01-21T13:52:23.000Z</time>
      </trkpt>
      <trkpt lat="47.54507" lon="-3.10003">
        <time>2018-01-21T13:52:24.000Z</time>
      </trkpt>
      <trkpt lat="47.54514" lon="-3.10005">
        <time>2018-01-21T13:52:25.000Z</time>
      </trkpt>
      <trkpt lat="47.54522" lon="-3.10007">
        <time>2018-01-21T13:52:26.000Z</time>
      </trkpt>
      <trkpt lat="47.5453" lon="-3.1001">
        <time>2018-01-21T13:52:27.000Z</time>
      </trkpt>
      <trkpt lat="47.54537" lon="-3.10013">
        <time>2018-01-21T13:52:28.000Z</time>
      </trkpt>
      <trkpt lat="47.54545" lon="-3.10015">
        <time>2018-01-21T13:52:29.000Z</time>
      </trkpt>
      <trkpt lat="47.54553" lon="-3.10018">
        <time>2018-01-21T13:52:30.000Z</time>
      </trkpt>
      <trkpt lat="47.54561" lon="-3.10021">
        <time>2018-01-21T13:52:31.000Z</time>
      </trkpt>
      <trkpt lat="47.5457" lon="-3.10024">
        <time>2018-01-21T13:52:32.000Z</time>
      </trkpt>
      <trkpt lat="47.54578" lon="-3.10027">
        <time>2018-01-21T13:52:33.000Z</time>
      </trkpt>
      <trkpt lat="47.54587" lon="-3.1003">
        <time>2018-01-21T13:52:34.000Z</time>
      </trkpt>
      <trkpt lat="47.54596" lon="-3.10033">
        <time>2018-01-21T13:52:35.000Z</time>
      </trkpt>
      <trkpt lat="47.54604" lon="-3.10037">
        <time>2018-01-21T13:52:36.000Z</time>
      </trkpt>
      <trkpt lat="47.54612" lon="-3.1004">
        <time>2018-01-21T13:52:37.000Z</time>
      </trkpt>
      <trkpt lat="47.54619" lon="-3.10043">
        <time>2018-01-21T13:52:38.000Z</time>
      </trkpt>
      <trkpt lat="47.54627" lon="-3.10045">
        <time>2018-01-21T13:52:39.000Z</time>
      </trkpt>
      <trkpt lat="47.54635" lon="-3.10048">
        <time>2018-01-21T13:52:40.000Z</time>
      </trkpt>
      <trkpt lat="47.54642" lon="-3.10051">
        <time>2018-01-21T13:52:41.000Z</time>
      </trkpt>
      <trkpt lat="47.5465" lon="-3.10053">
        <time>2018-01-21T13:52:42.000Z</time>
      </trkpt>
      <trkpt lat="47.54658" lon="-3.10056">
        <time>2018-01-21T13:52:43.000Z</time>
      </trkpt>
      <trkpt lat="47.54667" lon="-3.10057">
        <time>2018-01-21T13:52:44.000Z</time>
      </trkpt>
      <trkpt lat="47.54675" lon="-3.10059">
        <time>2018-01-21T13:52:45.000Z</time>
      </trkpt>
      <trkpt lat="47.54684" lon="-3.10061">
        <time>2018-01-21T13:52:46.000Z</time>
      </trkpt>
      <trkpt lat="47.54693" lon="-3.10063">
        <time>2018-01-21T13:52:47.000Z</time>
      </trkpt>
      <trkpt lat="47.54701" lon="-3.10065">
        <time>2018-01-21T13:52:48.000Z</time>
      </trkpt>
      <trkpt lat="47.5471" lon="-3.10067">
        <time>2018-01-21T13:52:49.000Z</time>
      </trkpt>
      <trkpt lat="47.54718" lon="-3.10069">
        <time>2018-01-21T13:52:50.000Z</time>
      </trkpt>
      <trkpt lat="47.54726" lon="-3.10071">
        <time>2018-01-21T13:52:51.000Z</time>
      </trkpt>
      <trkpt lat="47.54734" lon="-3.10074">
        <time>2018-01-21T13:52:52.000Z</time>
      </trkpt>
      <trkpt lat="47.54742" lon="-3.10077">
        <time>2018-01-21T13:52:53.000Z</time>
      </trkpt>
      <trkpt lat="47.5475" lon="-3.10079">
        <time>2018-01-21T13:52:54.000Z</time>
      </trkpt>
      <trkpt lat="47.54759" lon="-3.10081">
        <time>2018-01-21T13:52:55.000Z</time>
      </trkpt>
      <trkpt lat="47.54768" lon="-3.10083">
        <time>2018-01-21T13:52:56.000Z</time>
      </trkpt>
      <trkpt lat="47.54776" lon="-3.10085">
        <time>2018-01-21T13:52:57.000Z</time>
      </trkpt>
      <trkpt lat="47.54785" lon="-3.10087">
        <time>2018-01-21T13:52:58.000Z</time>
      </trkpt>
      <trkpt lat="47.54794" lon="-3.10089">
        <time>2018-01-21T13:52:59.000Z</time>
      </trkpt>
      <trkpt lat="47.54802" lon="-3.10091">
        <time>2018-01-21T13:53:00.000Z</time>
      </trkpt>
      <trkpt lat="47.54811" lon="-3.10093">
        <time>2018-01-21T13:53:01.000Z</time>
      </trkpt>
      <trkpt lat="47.5482" lon="-3.10095">
        <time>2018-01-21T13:53:02.000Z</time>
      </trkpt>
      <trkpt lat="47.54829" lon="-3.10098">
        <time>2018-01-21T13:53:03.000Z</time>
      </trkpt>
      <trkpt lat="47.54838" lon="-3.101">
        <time>2018-01-21T13:53:04.000Z</time>
      </trkpt>
      <trkpt lat="47.54846" lon="-3.10103">
        <time>2018-01-21T13:53:05.000Z</time>
      </trkpt>
      <trkpt lat="47.54855" lon="-3.10106">
        <time>2018-01-21T13:53:06.000Z</time>
      </trkpt>
      <trkpt lat="47.54863" lon="-3.10109">
        <time>2018-01-21T13:53:07.000Z</time>
      </trkpt>
      <trkpt lat="47.54871" lon="-3.10112">
        <time>2018-01-21T13:53:08.000Z</time>
      </trkpt>
      <trkpt lat="47.5488" lon="-3.10115">
        <time>2018-01-21T13:53:09.000Z</time>
      </trkpt>
      <trkpt lat="47.54887" lon="-3.10119">
        <time>2018-01-21T13:53:10.000Z</time>
      </trkpt>
      <trkpt lat="47.54894" lon="-3.10122">
        <time>2018-01-21T13:53:11.000Z</time>
      </trkpt>
      <trkpt lat="47.54901" lon="-3.10127">
        <time>2018-01-21T13:53:12.000Z</time>
      </trkpt>
      <trkpt lat="47.54908" lon="-3.10132">
        <time>2018-01-21T13:53:13.000Z</time>
      </trkpt>
      <trkpt lat="47.54916" lon="-3.10135">
        <time>2018-01-21T13:53:14.000Z</time>
      </trkpt>
      <trkpt lat="47.54923" lon="-3.10139">
        <time>2018-01-21T13:53:15.000Z</time>
      </trkpt>
      <trkpt lat="47.5493" lon="-3.10144">
        <time>2018-01-21T13:53:16.000Z</time>
      </trkpt>
      <trkpt lat="47.54937" lon="-3.10146">
        <time>2018-01-21T13:53:17.000Z</time>
      </trkpt>
      <trkpt lat="47.54944" lon="-3.1015">
        <time>2018-01-21T13:53:18.000Z</time>
      </trkpt>
      <trkpt lat="47.54951" lon="-3.10155">
        <time>2018-01-21T13:53:19.000Z</time>
      </trkpt>
      <trkpt lat="47.54958" lon="-3.10158">
        <time>2018-01-21T13:53:20.000Z</time>
      </trkpt>
      <trkpt lat="47.54966" lon="-3.10161">
        <time>2018-01-21T13:53:21.000Z</time>
      </trkpt>
      <trkpt lat="47.54973" lon="-3.10166">
        <time>2018-01-21T13:53:22.000Z</time>
      </trkpt>
      <trkpt lat="47.5498" lon="-3.10169">
        <time>2018-01-21T13:53:23.000Z</time>
      </trkpt>
      <trkpt lat="47.5499" lon="-3.10172">
        <time>2018-01-21T13:53:24.000Z</time>
      </trkpt>
      <trkpt lat="47.54997" lon="-3.10175">
        <time>2018-01-21T13:53:25.000Z</time>
      </trkpt>
      <trkpt lat="47.55005" lon="-3.10178">
        <time>2018-01-21T13:53:26.000Z</time>
      </trkpt>
      <trkpt lat="47.55013" lon="-3.10179">
        <time>2018-01-21T13:53:27.000Z</time>
      </trkpt>
      <trkpt lat="47.55022" lon="-3.1018">
        <time>2018-01-21T13:53:28.000Z</time>
      </trkpt>
      <trkpt lat="47.5503" lon="-3.10184">
        <time>2018-01-21T13:53:29.000Z</time>
      </trkpt>
      <trkpt lat="47.55039" lon="-3.10187">
        <time>2018-01-21T13:53:30.000Z</time>
      </trkpt>
      <trkpt lat="47.55047" lon="-3.10191">
        <time>2018-01-21T13:53:31.000Z</time>
      </trkpt>
      <trkpt lat="47.55055" lon="-3.10194">
        <time>2018-01-21T13:53:32.000Z</time>
      </trkpt>
      <trkpt lat="47.55065" lon="-3.10197">
        <time>2018-01-21T13:53:33.000Z</time>
      </trkpt>
      <trkpt lat="47.55073" lon="-3.102">
        <time>2018-01-21T13:53:34.000Z</time>
      </trkpt>
      <trkpt lat="47.55083" lon="-3.10202">
        <time>2018-01-21T13:53:35.000Z</time>
      </trkpt>
      <trkpt lat="47.55091" lon="-3.10205">
        <time>2018-01-21T13:53:36.000Z</time>
      </trkpt>
      <trkpt lat="47.551" lon="-3.10208">
        <time>2018-01-21T13:53:37.000Z</time>
      </trkpt>
      <trkpt lat="47.55109" lon="-3.1021">
        <time>2018-01-21T13:53:38.000Z</time>
      </trkpt>
      <trkpt lat="47.55117" lon="-3.10213">
        <time>2018-01-21T13:53:39.000Z</time>
      </trkpt>
      <trkpt lat="47.55128" lon="-3.10215">
        <time>2018-01-21T13:53:40.000Z</time>
      </trkpt>
      <trkpt lat="47.55137" lon="-3.10217">
        <time>2018-01-21T13:53:41.000Z</time>
      </trkpt>
      <trkpt lat="47.55147" lon="-3.1022">
        <time>2018-01-21T13:53:42.000Z</time>
      </trkpt>
      <trkpt lat="47.55155" lon="-3.10225">
        <time>2018-01-21T13:53:43.000Z</time>
      </trkpt>
      <trkpt lat="47.55164" lon="-3.1023">
        <time>2018-01-21T13:53:44.000Z</time>
      </trkpt>
      <trkpt lat="47.55172" lon="-3.10234">
        <time>2018-01-21T13:53:45.000Z</time>
      </trkpt>
      <trkpt lat="47.55179" lon="-3.10238">
        <time>2018-01-21T13:53:46.000Z</time>
      </trkpt>
      <trkpt lat="47.55186" lon="-3.10242">
        <time>2018-01-21T13:53:47.000Z</time>
      </trkpt>
      <trkpt lat="47.55194" lon="-3.10246">
        <time>2018-01-21T13:53:48.000Z</time>
      </trkpt>
      <trkpt lat="47.55202" lon="-3.10249">
        <time>2018-01-21T13:53:49.000Z</time>
      </trkpt>
      <trkpt lat="47.5521" lon="-3.10252">
        <time>2018-01-21T13:53:50.000Z</time>
      </trkpt>
      <trkpt lat="47.55217" lon="-3.10256">
        <time>2018-01-21T13:53:51.000Z</time>
      </trkpt>
      <trkpt lat="47.55224" lon="-3.1026">
        <time>2018-01-21T13:53:52.000Z</time>
      </trkpt>
      <trkpt lat="47.55231" lon="-3.10263">
        <time>2018-01-21T13:53:53.000Z</time>
      </trkpt>
      <trkpt lat="47.55238" lon="-3.10268">
        <time>2018-01-21T13:53:54.000Z</time>
      </trkpt>
      <trkpt lat="47.55246" lon="-3.10272">
        <time>2018-01-21T13:53:55.000Z</time>
      </trkpt>
      <trkpt lat="47.55252" lon="-3.10277">
        <time>2018-01-21T13:53:56.000Z</time>
      </trkpt>
      <trkpt lat="47.55259" lon="-3.10282">
        <time>2018-01-21T13:53:57.000Z</time>
      </trkpt>
      <trkpt lat="47.55266" lon="-3.10286">
        <time>2018-01-21T13:53:58.000Z</time>
      </trkpt>
      <trkpt lat="47.55272" lon="-3.10292">
        <time>2018-01-21T13:53:59.000Z</time>
      </trkpt>
      <trkpt lat="47.55278" lon="-3.10298">
        <time>2018-01-21T13:54:00.000Z</time>
      </trkpt>
      <trkpt lat="47.55283" lon="-3.10303">
        <time>2018-01-21T13:54:01.000Z</time>
      </trkpt>
      <trkpt lat="47.55289" lon="-3.10309">
        <time>2018-01-21T13:54:02.000Z</time>
      </trkpt>
      <trkpt lat="47.55295" lon="-3.10314">
        <time>2018-01-21T13:54:03.000Z</time>
      </trkpt>
      <trkpt lat="47.55301" lon="-3.1032">
        <time>2018-01-21T13:54:04.000Z</time>
      </trkpt>
      <trkpt lat="47.55306" lon="-3.10325">
        <time>2018-01-21T13:54:05.000Z</time>
      </trkpt>
      <trkpt lat="47.55312" lon="-3.10329">
        <time>2018-01-21T13:54:06.000Z</time>
      </trkpt>
      <trkpt lat="47.55317" lon="-3.10334">
        <time>2018-01-21T13:54:07.000Z</time>
      </trkpt>
      <trkpt lat="47.55323" lon="-3.10338">
        <time>2018-01-21T13:54:08.000Z</time>
      </trkpt>
      <trkpt lat="47.55329" lon="-3.10343">
        <time>2018-01-21T13:54:09.000Z</time>
      </trkpt>
      <trkpt lat="47.55335" lon="-3.10346">
        <time>2018-01-21T13:54:10.000Z</time>
      </trkpt>
      <trkpt lat="47.55342" lon="-3.10346">
        <time>2018-01-21T13:54:11.000Z</time>
      </trkpt>
      <trkpt lat="47.55351" lon="-3.10346">
        <time>2018-01-21T13:54:12.000Z</time>
      </trkpt>
      <trkpt lat="47.5536" lon="-3.10346">
        <time>2018-01-21T13:54:13.000Z</time>
      </trkpt>
      <trkpt lat="47.5537" lon="-3.10347">
        <time>2018-01-21T13:54:14.000Z</time>
      </trkpt>
      <trkpt lat="47.55377" lon="-3.10349">
        <time>2018-01-21T13:54:15.000Z</time>
      </trkpt>
      <trkpt lat="47.55387" lon="-3.1035">
        <time>2018-01-21T13:54:16.000Z</time>
      </trkpt>
      <trkpt lat="47.55396" lon="-3.10351">
        <time>2018-01-21T13:54:17.000Z</time>
      </trkpt>
      <trkpt lat="47.55404" lon="-3.10354">
        <time>2018-01-21T13:54:18.000Z</time>
      </trkpt>
      <trkpt lat="47.55413" lon="-3.10356">
        <time>2018-01-21T13:54:19.000Z</time>
      </trkpt>
      <trkpt lat="47.55422" lon="-3.10358">
        <time>2018-01-21T13:54:20.000Z</time>
      </trkpt>
      <trkpt lat="47.5543" lon="-3.1036">
        <time>2018-01-21T13:54:21.000Z</time>
      </trkpt>
      <trkpt lat="47.55439" lon="-3.10361">
        <time>2018-01-21T13:54:22.000Z</time>
      </trkpt>
      <trkpt lat="47.55448" lon="-3.10364">
        <time>2018-01-21T13:54:23.000Z</time>
      </trkpt>
      <trkpt lat="47.55457" lon="-3.10366">
        <time>2018-01-21T13:54:24.000Z</time>
      </trkpt>
      <trkpt lat="47.55466" lon="-3.10369">
        <time>2018-01-21T13:54:25.000Z</time>
      </trkpt>
      <trkpt lat="47.55475" lon="-3.10372">
        <time>2018-01-21T13:54:26.000Z</time>
      </trkpt>
      <trkpt lat="47.55484" lon="-3.10373">
        <time>2018-01-21T13:54:27.000Z</time>
      </trkpt>
      <trkpt lat="47.55493" lon="-3.10375">
        <time>2018-01-21T13:54:28.000Z</time>
      </trkpt>
      <trkpt lat="47.55502" lon="-3.10376">
        <time>2018-01-21T13:54:29.000Z</time>
      </trkpt>
      <trkpt lat="47.55511" lon="-3.10378">
        <time>2018-01-21T13:54:30.000Z</time>
      </trkpt>
      <trkpt lat="47.5552" lon="-3.1038">
        <time>2018-01-21T13:54:31.000Z</time>
      </trkpt>
      <trkpt lat="47.55528" lon="-3.10383">
        <time>2018-01-21T13:54:32.000Z</time>
      </trkpt>
      <trkpt lat="47.55537" lon="-3.10386">
        <time>2018-01-21T13:54:33.000Z</time>
      </trkpt>
      <trkpt lat="47.55545" lon="-3.10388">
        <time>2018-01-21T13:54:34.000Z</time>
      </trkpt>
      <trkpt lat="47.55553" lon="-3.1039">
        <time>2018-01-21T13:54:35.000Z</time>
      </trkpt>
      <trkpt lat="47.55561" lon="-3.10392">
        <time>2018-01-21T13:54:36.000Z</time>
      </trkpt>
      <trkpt lat="47.5557" lon="-3.10395">
        <time>2018-01-21T13:54:37.000Z</time>
      </trkpt>
      <trkpt lat="47.55577" lon="-3.10398">
        <time>2018-01-21T13:54:38.000Z</time>
      </trkpt>
      <trkpt lat="47.55585" lon="-3.104">
        <time>2018-01-21T13:54:39.000Z</time>
      </trkpt>
      <trkpt lat="47.55593" lon="-3.10402">
        <time>2018-01-21T13:54:40.000Z</time>
      </trkpt>
      <trkpt lat="47.55602" lon="-3.10403">
        <time>2018-01-21T13:54:41.000Z</time>
      </trkpt>
      <trkpt lat="47.5561" lon="-3.10404">
        <time>2018-01-21T13:54:42.000Z</time>
      </trkpt>
      <trkpt lat="47.55619" lon="-3.10406">
        <time>2018-01-21T13:54:43.000Z</time>
      </trkpt>
      <trkpt lat="47.55627" lon="-3.10408">
        <time>2018-01-21T13:54:44.000Z</time>
      </trkpt>
      <trkpt lat="47.55635" lon="-3.10411">
        <time>2018-01-21T13:54:45.000Z</time>
      </trkpt>
      <trkpt lat="47.55644" lon="-3.10413">
        <time>2018-01-21T13:54:46.000Z</time>
      </trkpt>
      <trkpt lat="47.55653" lon="-3.10415">
        <time>2018-01-21T13:54:47.000Z</time>
      </trkpt>
      <trkpt lat="47.55662" lon="-3.10418">
        <time>2018-01-21T13:54:48.000Z</time>
      </trkpt>
      <trkpt lat="47.55671" lon="-3.1042">
        <time>2018-01-21T13:54:49.000Z</time>
      </trkpt>
      <trkpt lat="47.5568" lon="-3.10422">
        <time>2018-01-21T13:54:50.000Z</time>
      </trkpt>
      <trkpt lat="47.55689" lon="-3.10425">
        <time>2018-01-21T13:54:51.000Z</time>
      </trkpt>
      <trkpt lat="47.55698" lon="-3.10427">
        <time>2018-01-21T13:54:52.000Z</time>
      </trkpt>
      <trkpt lat="47.55707" lon="-3.10429">
        <time>2018-01-21T13:54:53.000Z</time>
      </trkpt>
      <trkpt lat="47.55715" lon="-3.10433">
        <time>2018-01-21T13:54:54.000Z</time>
      </trkpt>
      <trkpt lat="47.55724" lon="-3.10436">
        <time>2018-01-21T13:54:55.000Z</time>
      </trkpt>
      <trkpt lat="47.55733" lon="-3.10438">
        <time>2018-01-21T13:54:56.000Z</time>
      </trkpt>
      <trkpt lat="47.55741" lon="-3.10439">
        <time>2018-01-21T13:54:57.000Z</time>
      </trkpt>
      <trkpt lat="47.5575" lon="-3.10441">
        <time>2018-01-21T13:54:58.000Z</time>
      </trkpt>
      <trkpt lat="47.55758" lon="-3.10443">
        <time>2018-01-21T13:54:59.000Z</time>
      </trkpt>
      <trkpt lat="47.55767" lon="-3.10444">
        <time>2018-01-21T13:55:00.000Z</time>
      </trkpt>
      <trkpt lat="47.55776" lon="-3.10445">
        <time>2018-01-21T13:55:01.000Z</time>
      </trkpt>
      <trkpt lat="47.55785" lon="-3.10446">
        <time>2018-01-21T13:55:02.000Z</time>
      </trkpt>
      <trkpt lat="47.55794" lon="-3.10447">
        <time>2018-01-21T13:55:03.000Z</time>
      </trkpt>
      <trkpt lat="47.55804" lon="-3.10448">
        <time>2018-01-21T13:55:04.000Z</time>
      </trkpt>
      <trkpt lat="47.55813" lon="-3.10449">
        <time>2018-01-21T13:55:05.000Z</time>
      </trkpt>
      <trkpt lat="47.55822" lon="-3.1045">
        <time>2018-01-21T13:55:06.000Z</time>
      </trkpt>
      <trkpt lat="47.55831" lon="-3.10451">
        <time>2018-01-21T13:55:07.000Z</time>
      </trkpt>
      <trkpt lat="47.5584" lon="-3.10452">
        <time>2018-01-21T13:55:08.000Z</time>
      </trkpt>
      <trkpt lat="47.55848" lon="-3.10453">
        <time>2018-01-21T13:55:09.000Z</time>
      </trkpt>
      <trkpt lat="47.55857" lon="-3.10454">
        <time>2018-01-21T13:55:10.000Z</time>
      </trkpt>
      <trkpt lat="47.55866" lon="-3.10455">
        <time>2018-01-21T13:55:11.000Z</time>
      </trkpt>
      <trkpt lat="47.55874" lon="-3.10457">
        <time>2018-01-21T13:55:12.000Z</time>
      </trkpt>
      <trkpt lat="47.55883" lon="-3.10459">
        <time>2018-01-21T13:55:13.000Z</time>
      </trkpt>
      <trkpt lat="47.55891" lon="-3.1046">
        <time>2018-01-21T13:55:14.000Z</time>
      </trkpt>
      <trkpt lat="47.55899" lon="-3.10463">
        <time>2018-01-21T13:55:15.000Z</time>
      </trkpt>
      <trkpt lat="47.55908" lon="-3.10465">
        <time>2018-01-21T13:55:16.000Z</time>
      </trkpt>
      <trkpt lat="47.55916" lon="-3.10466">
        <time>2018-01-21T13:55:17.000Z</time>
      </trkpt>
      <trkpt lat="47.55925" lon="-3.10468">
        <time>2018-01-21T13:55:18.000Z</time>
      </trkpt>
      <trkpt lat="47.55934" lon="-3.1047">
        <time>2018-01-21T13:55:19.000Z</time>
      </trkpt>
      <trkpt lat="47.55942" lon="-3.10472">
        <time>2018-01-21T13:55:20.000Z</time>
      </trkpt>
      <trkpt lat="47.55951" lon="-3.10475">
        <time>2018-01-21T13:55:21.000Z</time>
      </trkpt>
      <trkpt lat="47.55959" lon="-3.10477">
        <time>2018-01-21T13:55:22.000Z</time>
      </trkpt>
      <trkpt lat="47.55968" lon="-3.10478">
        <time>2018-01-21T13:55:23.000Z</time>
      </trkpt>
      <trkpt lat="47.55977" lon="-3.10479">
        <time>2018-01-21T13:55:24.000Z</time>
      </trkpt>
      <trkpt lat="47.55986" lon="-3.1048">
        <time>2018-01-21T13:55:25.000Z</time>
      </trkpt>
      <trkpt lat="47.55996" lon="-3.10482">
        <time>2018-01-21T13:55:26.000Z</time>
      </trkpt>
      <trkpt lat="47.56004" lon="-3.10484">
        <time>2018-01-21T13:55:27.000Z</time>
      </trkpt>
      <trkpt lat="47.56013" lon="-3.10485">
        <time>2018-01-21T13:55:28.000Z</time>
      </trkpt>
      <trkpt lat="47.56021" lon="-3.10487">
        <time>2018-01-21T13:55:29.000Z</time>
      </trkpt>
      <trkpt lat="47.56029" lon="-3.10489">
        <time>2018-01-21T13:55:30.000Z</time>
      </trkpt>
      <trkpt lat="47.56037" lon="-3.1049">
        <time>2018-01-21T13:55:31.000Z</time>
      </trkpt>
      <trkpt lat="47.56045" lon="-3.1049">
        <time>2018-01-21T13:55:32.000Z</time>
      </trkpt>
      <trkpt lat="47.56053" lon="-3.10491">
        <time>2018-01-21T13:55:33.000Z</time>
      </trkpt>
      <trkpt lat="47.56061" lon="-3.10492">
        <time>2018-01-21T13:55:34.000Z</time>
      </trkpt>
      <trkpt lat="47.56069" lon="-3.10493">
        <time>2018-01-21T13:55:35.000Z</time>
      </trkpt>
      <trkpt lat="47.56077" lon="-3.10495">
        <time>2018-01-21T13:55:36.000Z</time>
      </trkpt>
      <trkpt lat="47.56085" lon="-3.10497">
        <time>2018-01-21T13:55:37.000Z</time>
      </trkpt>
      <trkpt lat="47.56092" lon="-3.10498">
        <time>2018-01-21T13:55:38.000Z</time>
      </trkpt>
      <trkpt lat="47.561" lon="-3.10499">
        <time>2018-01-21T13:55:39.000Z</time>
      </trkpt>
      <trkpt lat="47.56109" lon="-3.105">
        <time>2018-01-21T13:55:40.000Z</time>
      </trkpt>
      <trkpt lat="47.56116" lon="-3.105">
        <time>2018-01-21T13:55:41.000Z</time>
      </trkpt>
      <trkpt lat="47.56125" lon="-3.10501">
        <time>2018-01-21T13:55:42.000Z</time>
      </trkpt>
      <trkpt lat="47.56133" lon="-3.10502">
        <time>2018-01-21T13:55:43.000Z</time>
      </trkpt>
      <trkpt lat="47.56142" lon="-3.10504">
        <time>2018-01-21T13:55:44.000Z</time>
      </trkpt>
      <trkpt lat="47.5615" lon="-3.10505">
        <time>2018-01-21T13:55:45.000Z</time>
      </trkpt>
      <trkpt lat="47.56158" lon="-3.10507">
        <time>2018-01-21T13:55:46.000Z</time>
      </trkpt>
      <trkpt lat="47.56166" lon="-3.10508">
        <time>2018-01-21T13:55:47.000Z</time>
      </trkpt>
      <trkpt lat="47.56174" lon="-3.1051">
        <time>2018-01-21T13:55:48.000Z</time>
      </trkpt>
      <trkpt lat="47.56182" lon="-3.10511">
        <time>2018-01-21T13:55:49.000Z</time>
      </trkpt>
      <trkpt lat="47.5619" lon="-3.10512">
        <time>2018-01-21T13:55:50.000Z</time>
      </trkpt>
      <trkpt lat="47.56197" lon="-3.10513">
        <time>2018-01-21T13:55:51.000Z</time>
      </trkpt>
      <trkpt lat="47.56205" lon="-3.10514">
        <time>2018-01-21T13:55:52.000Z</time>
      </trkpt>
      <trkpt lat="47.56213" lon="-3.10514">
        <time>2018-01-21T13:55:53.000Z</time>
      </trkpt>
      <trkpt lat="47.5622" lon="-3.10515">
        <time>2018-01-21T13:55:54.000Z</time>
      </trkpt>
      <trkpt lat="47.56228" lon="-3.10516">
        <time>2018-01-21T13:55:55.000Z</time>
      </trkpt>
      <trkpt lat="47.56235" lon="-3.10517">
        <time>2018-01-21T13:55:56.000Z</time>
      </trkpt>
      <trkpt lat="47.56243" lon="-3.10517">
        <time>2018-01-21T13:55:57.000Z</time>
      </trkpt>
      <trkpt lat="47.56251" lon="-3.10517">
        <time>2018-01-21T13:55:58.000Z</time>
      </trkpt>
      <trkpt lat="47.56259" lon="-3.10517">
        <time>2018-01-21T13:55:59.000Z</time>
      </trkpt>
      <trkpt lat="47.56267" lon="-3.10517">
        <time>2018-01-21T13:56:00.000Z</time>
      </trkpt>
      <trkpt lat="47.56275" lon="-3.10518">
        <time>2018-01-21T13:56:01.000Z</time>
      </trkpt>
      <trkpt lat="47.56283" lon="-3.10518">
        <time>2018-01-21T13:56:02.000Z</time>
      </trkpt>
      <trkpt lat="47.56291" lon="-3.10519">
        <time>2018-01-21T13:56:03.000Z</time>
      </trkpt>
      <trkpt lat="47.563" lon="-3.10522">
        <time>2018-01-21T13:56:04.000Z</time>
      </trkpt>
      <trkpt lat="47.56308" lon="-3.10524">
        <time>2018-01-21T13:56:05.000Z</time>
      </trkpt>
      <trkpt lat="47.56316" lon="-3.10527">
        <time>2018-01-21T13:56:06.000Z</time>
      </trkpt>
      <trkpt lat="47.56323" lon="-3.1053">
        <time>2018-01-21T13:56:07.000Z</time>
      </trkpt>
      <trkpt lat="47.56331" lon="-3.10532">
        <time>2018-01-21T13:56:08.000Z</time>
      </trkpt>
      <trkpt lat="47.56338" lon="-3.10532">
        <time>2018-01-21T13:56:09.000Z</time>
      </trkpt>
      <trkpt lat="47.56346" lon="-3.10531">
        <time>2018-01-21T13:56:10.000Z</time>
      </trkpt>
      <trkpt lat="47.56354" lon="-3.1053">
        <time>2018-01-21T13:56:11.000Z</time>
      </trkpt>
      <trkpt lat="47.56362" lon="-3.10529">
        <time>2018-01-21T13:56:12.000Z</time>
      </trkpt>
      <trkpt lat="47.56371" lon="-3.10527">
        <time>2018-01-21T13:56:13.000Z</time>
      </trkpt>
      <trkpt lat="47.56379" lon="-3.10525">
        <time>2018-01-21T13:56:14.000Z</time>
      </trkpt>
      <trkpt lat="47.56387" lon="-3.10524">
        <time>2018-01-21T13:56:15.000Z</time>
      </trkpt>
      <trkpt lat="47.56395" lon="-3.10522">
        <time>2018-01-21T13:56:16.000Z</time>
      </trkpt>
      <trkpt lat="47.56403" lon="-3.10522">
        <time>2018-01-21T13:56:17.000Z</time>
      </trkpt>
      <trkpt lat="47.56411" lon="-3.10521">
        <time>2018-01-21T13:56:18.000Z</time>
      </trkpt>
      <trkpt lat="47.5642" lon="-3.1052">
        <time>2018-01-21T13:56:19.000Z</time>
      </trkpt>
      <trkpt lat="47.56428" lon="-3.10519">
        <time>2018-01-21T13:56:20.000Z</time>
      </trkpt>
      <trkpt lat="47.56437" lon="-3.10518">
        <time>2018-01-21T13:56:21.000Z</time>
      </trkpt>
      <trkpt lat="47.56445" lon="-3.10516">
        <time>2018-01-21T13:56:22.000Z</time>
      </trkpt>
      <trkpt lat="47.56453" lon="-3.10514">
        <time>2018-01-21T13:56:23.000Z</time>
      </trkpt>
      <trkpt lat="47.56462" lon="-3.10512">
        <time>2018-01-21T13:56:24.000Z</time>
      </trkpt>
      <trkpt lat="47.56471" lon="-3.10511">
        <time>2018-01-21T13:56:25.000Z</time>
      </trkpt>
      <trkpt lat="47.56479" lon="-3.10511">
        <time>2018-01-21T13:56:26.000Z</time>
      </trkpt>
      <trkpt lat="47.56486" lon="-3.10512">
        <time>2018-01-21T13:56:27.000Z</time>
      </trkpt>
      <trkpt lat="47.56494" lon="-3.10512">
        <time>2018-01-21T13:56:28.000Z</time>
      </trkpt>
      <trkpt lat="47.565" lon="-3.10514">
        <time>2018-01-21T13:56:29.000Z</time>
      </trkpt>
      <trkpt lat="47.56507" lon="-3.10516">
        <time>2018-01-21T13:56:30.000Z</time>
      </trkpt>
      <trkpt lat="47.56514" lon="-3.10518">
        <time>2018-01-21T13:56:31.000Z</time>
      </trkpt>
      <trkpt lat="47.56521" lon="-3.1052">
        <time>2018-01-21T13:56:32.000Z</time>
      </trkpt>
      <trkpt lat="47.56529" lon="-3.10521">
        <time>2018-01-21T13:56:33.000Z</time>
      </trkpt>
      <trkpt lat="47.56537" lon="-3.10522">
        <time>2018-01-21T13:56:34.000Z</time>
      </trkpt>
      <trkpt lat="47.56544" lon="-3.10523">
        <time>2018-01-21T13:56:35.000Z</time>
      </trkpt>
      <trkpt lat="47.56552" lon="-3.10524">
        <time>2018-01-21T13:56:36.000Z</time>
      </trkpt>
      <trkpt lat="47.56559" lon="-3.10525">
        <time>2018-01-21T13:56:37.000Z</time>
      </trkpt>
      <trkpt lat="47.56566" lon="-3.10526">
        <time>2018-01-21T13:56:38.000Z</time>
      </trkpt>
      <trkpt lat="47.56573" lon="-3.10527">
        <time>2018-01-21T13:56:39.000Z</time>
      </trkpt>
      <trkpt lat="47.5658" lon="-3.10527">
        <time>2018-01-21T13:56:40.000Z</time>
      </trkpt>
      <trkpt lat="47.56586" lon="-3.10528">
        <time>2018-01-21T13:56:41.000Z</time>
      </trkpt>
      <trkpt lat="47.56592" lon="-3.10529">
        <time>2018-01-21T13:56:42.000Z</time>
      </trkpt>
      <trkpt lat="47.56598" lon="-3.10529">
        <time>2018-01-21T13:56:43.000Z</time>
      </trkpt>
      <trkpt lat="47.56605" lon="-3.10529">
        <time>2018-01-21T13:56:44.000Z</time>
      </trkpt>
      <trkpt lat="47.56612" lon="-3.10527">
        <time>2018-01-21T13:56:45.000Z</time>
      </trkpt>
      <trkpt lat="47.56618" lon="-3.10525">
        <time>2018-01-21T13:56:46.000Z</time>
      </trkpt>
      <trkpt lat="47.56625" lon="-3.10524">
        <time>2018-01-21T13:56:47.000Z</time>
      </trkpt>
      <trkpt lat="47.56632" lon="-3.10522">
        <time>2018-01-21T13:56:48.000Z</time>
      </trkpt>
      <trkpt lat="47.56639" lon="-3.10521">
        <time>2018-01-21T13:56:49.000Z</time>
      </trkpt>
      <trkpt lat="47.56646" lon="-3.1052">
        <time>2018-01-21T13:56:50.000Z</time>
      </trkpt>
      <trkpt lat="47.56653" lon="-3.10518">
        <time>2018-01-21T13:56:51.000Z</time>
      </trkpt>
      <trkpt lat="47.5666" lon="-3.10517">
        <time>2018-01-21T13:56:52.000Z</time>
      </trkpt>
      <trkpt lat="47.56667" lon="-3.10515">
        <time>2018-01-21T13:56:53.000Z</time>
      </trkpt>
      <trkpt lat="47.56674" lon="-3.10512">
        <time>2018-01-21T13:56:54.000Z</time>
      </trkpt>
      <trkpt lat="47.56682" lon="-3.10509">
        <time>2018-01-21T13:56:55.000Z</time>
      </trkpt>
      <trkpt lat="47.56689" lon="-3.10506">
        <time>2018-01-21T13:56:56.000Z</time>
      </trkpt>
      <trkpt lat="47.56696" lon="-3.10503">
        <time>2018-01-21T13:56:57.000Z</time>
      </trkpt>
      <trkpt lat="47.56703" lon="-3.10501">
        <time>2018-01-21T13:56:58.000Z</time>
      </trkpt>
      <trkpt lat="47.5671" lon="-3.10497">
        <time>2018-01-21T13:56:59.000Z</time>
      </trkpt>
      <trkpt lat="47.56716" lon="-3.10493">
        <time>2018-01-21T13:57:00.000Z</time>
      </trkpt>
      <trkpt lat="47.56722" lon="-3.10489">
        <time>2018-01-21T13:57:01.000Z</time>
      </trkpt>
      <trkpt lat="47.56728" lon="-3.10484">
        <time>2018-01-21T13:57:02.000Z</time>
      </trkpt>
      <trkpt lat="47.56734" lon="-3.1048">
        <time>2018-01-21T13:57:03.000Z</time>
      </trkpt>
      <trkpt lat="47.56739" lon="-3.10477">
        <time>2018-01-21T13:57:04.000Z</time>
      </trkpt>
      <trkpt lat="47.56743" lon="-3.10474">
        <time>2018-01-21T13:57:05.000Z</time>
      </trkpt>
      <trkpt lat="47.56748" lon="-3.10472">
        <time>2018-01-21T13:57:06.000Z</time>
      </trkpt>
      <trkpt lat="47.56751" lon="-3.10471">
        <time>2018-01-21T13:57:07.000Z</time>
      </trkpt>
      <trkpt lat="47.56755" lon="-3.1047">
        <time>2018-01-21T13:57:08.000Z</time>
      </trkpt>
      <trkpt lat="47.56758" lon="-3.10469">
        <time>2018-01-21T13:57:09.000Z</time>
      </trkpt>
      <trkpt lat="47.56759" lon="-3.10468">
        <time>2018-01-21T13:57:10.000Z</time>
      </trkpt>
      <trkpt lat="47.56758" lon="-3.10467">
        <time>2018-01-21T13:57:11.000Z</time>
      </trkpt>
      <trkpt lat="47.56758" lon="-3.10466">
        <time>2018-01-21T13:57:12.000Z</time>
      </trkpt>
      <trkpt lat="47.56758" lon="-3.10466">
        <time>2018-01-21T13:57:13.000Z</time>
      </trkpt>
      <trkpt lat="47.56759" lon="-3.10466">
        <time>2018-01-21T13:57:14.000Z</time>
      </trkpt>
      <trkpt lat="47.56761" lon="-3.10461">
        <time>2018-01-21T13:57:15.000Z</time>
      </trkpt>
      <trkpt lat="47.56761" lon="-3.10456">
        <time>2018-01-21T13:57:16.000Z</time>
      </trkpt>
      <trkpt lat="47.56761" lon="-3.10456">
        <time>2018-01-21T13:57:17.000Z</time>
      </trkpt>
      <trkpt lat="47.56761" lon="-3.10456">
        <time>2018-01-21T13:57:18.000Z</time>
      </trkpt>
      <trkpt lat="47.56761" lon="-3.10456">
        <time>2018-01-21T13:57:19.000Z</time>
      </trkpt>
      <trkpt lat="47.56761" lon="-3.10456">
        <time>2018-01-21T13:57:20.000Z</time>
      </trkpt>
      <trkpt lat="47.56761" lon="-3.10456">
        <time>2018-01-21T13:57:21.000Z</time>
      </trkpt>
      <trkpt lat="47.56761" lon="-3.10456">
        <time>2018-01-21T13:57:22.000Z</time>
      </trkpt>
      <trkpt lat="47.56761" lon="-3.10456">
        <time>2018-01-21T13:57:23.000Z</time>
      </trkpt>
      <trkpt lat="47.56761" lon="-3.10456">
        <time>2018-01-21T13:57:24.000Z</time>
      </trkpt>
      <trkpt lat="47.56761" lon="-3.10456">
        <time>2018-01-21T13:57:25.000Z</time>
      </trkpt>
      <trkpt lat="47.56761" lon="-3.10456">
        <time>2018-01-21T13:57:26.000Z</time>
      </trkpt>
      <trkpt lat="47.56761" lon="-3.10456">
        <time>2018-01-21T13:57:27.000Z</time>
      </trkpt>
      <trkpt lat="47.56761" lon="-3.10456">
        <time>2018-01-21T13:57:28.000Z</time>
      </trkpt>
      <trkpt lat="47.56761" lon="-3.10456">
        <time>2018-01-21T13:57:29.000Z</time>
      </trkpt>
      <trkpt lat="47.56761" lon="-3.10456">
        <time>2018-01-21T13:57:30.000Z</time>
      </trkpt>
      <trkpt lat="47.56761" lon="-3.10456">
        <time>2018-01-21T13:57:31.000Z</time>
      </trkpt>
      <trkpt lat="47.56761" lon="-3.10456">
        <time>2018-01-21T13:57:32.000Z</time>
      </trkpt>
      <trkpt lat="47.56761" lon="-3.10456">
        <time>2018-01-21T13:57:33.000Z</time>
      </trkpt>
      <trkpt lat="47.56761" lon="-3.10456">
        <time>2018-01-21T13:57:34.000Z</time>
      </trkpt>
      <trkpt lat="47.56761" lon="-3.10456">
        <time>2018-01-21T13:57:35.000Z</time>
      </trkpt>
      <trkpt lat="47.56761" lon="-3.10456">
        <time>2018-01-21T13:57:36.000Z</time>
      </trkpt>
      <trkpt lat="47.56761" lon="-3.10456">
        <time>2018-01-21T13:57:37.000Z</time>
      </trkpt>
      <trkpt lat="47.56761" lon="-3.10456">
        <time>2018-01-21T13:57:38.000Z</time>
      </trkpt>
      <trkpt lat="47.56761" lon="-3.10456">
        <time>2018-01-21T13:57:39.000Z</time>
      </trkpt>
      <trkpt lat="47.56761" lon="-3.10456">
        <time>2018-01-21T13:57:40.000Z</time>
      </trkpt>
      <trkpt lat="47.56761" lon="-3.10456">
        <time>2018-01-21T13:57:41.000Z</time>
      </trkpt>
      <trkpt lat="47.56761" lon="-3.10456">
        <time>2018-01-21T13:57:42.000Z</time>
      </trkpt>
      <trkpt lat="47.56761" lon="-3.10456">
        <time>2018-01-21T13:57:43.000Z</time>
      </trkpt>
      <trkpt lat="47.56766" lon="-3.10468">
        <time>2018-01-21T13:57:44.000Z</time>
      </trkpt>
      <trkpt lat="47.56765" lon="-3.10469">
        <time>2018-01-21T13:57:45.000Z</time>
      </trkpt>
      <trkpt lat="47.56766" lon="-3.1047">
        <time>2018-01-21T13:57:46.000Z</time>
      </trkpt>
      <trkpt lat="47.56765" lon="-3.1047">
        <time>2018-01-21T13:57:47.000Z</time>
      </trkpt>
      <trkpt lat="47.56765" lon="-3.1047">
        <time>2018-01-21T13:57:48.000Z</time>
      </trkpt>
      <trkpt lat="47.56765" lon="-3.1047">
        <time>2018-01-21T13:57:49.000Z</time>
      </trkpt>
      <trkpt lat="47.56765" lon="-3.1047">
        <time>2018-01-21T13:57:50.000Z</time>
      </trkpt>
      <trkpt lat="47.56765" lon="-3.1047">
        <time>2018-01-21T13:57:51.000Z</time>
      </trkpt>
      <trkpt lat="47.56765" lon="-3.1047">
        <time>2018-01-21T13:57:52.000Z</time>
      </trkpt>
      <trkpt lat="47.56765" lon="-3.1047">
        <time>2018-01-21T13:57:53.000Z</time>
      </trkpt>
      <trkpt lat="47.56765" lon="-3.1047">
        <time>2018-01-21T13:57:54.000Z</time>
      </trkpt>
      <trkpt lat="47.56765" lon="-3.1047">
        <time>2018-01-21T13:57:55.000Z</time>
      </trkpt>
      <trkpt lat="47.56765" lon="-3.1047">
        <time>2018-01-21T13:57:56.000Z</time>
      </trkpt>
      <trkpt lat="47.56765" lon="-3.1047">
        <time>2018-01-21T13:57:57.000Z</time>
      </trkpt>
      <trkpt lat="47.56765" lon="-3.1047">
        <time>2018-01-21T13:57:58.000Z</time>
      </trkpt>
      <trkpt lat="47.56765" lon="-3.1047">
        <time>2018-01-21T13:57:59.000Z</time>
      </trkpt>
      <trkpt lat="47.56765" lon="-3.1047">
        <time>2018-01-21T13:58:00.000Z</time>
      </trkpt>
      <trkpt lat="47.56765" lon="-3.1047">
        <time>2018-01-21T13:58:01.000Z</time>
      </trkpt>
      <trkpt lat="47.56764" lon="-3.10467">
        <time>2018-01-21T13:58:02.000Z</time>
      </trkpt>
      <trkpt lat="47.56763" lon="-3.10466">
        <time>2018-01-21T13:58:03.000Z</time>
      </trkpt>
      <trkpt lat="47.56763" lon="-3.10466">
        <time>2018-01-21T13:58:04.000Z</time>
      </trkpt>
      <trkpt lat="47.56762" lon="-3.10465">
        <time>2018-01-21T13:58:05.000Z</time>
      </trkpt>
      <trkpt lat="47.56762" lon="-3.10465">
        <time>2018-01-21T13:58:06.000Z</time>
      </trkpt>
      <trkpt lat="47.5676" lon="-3.10466">
        <time>2018-01-21T13:58:07.000Z</time>
      </trkpt>
      <trkpt lat="47.56758" lon="-3.10466">
        <time>2018-01-21T13:58:08.000Z</time>
      </trkpt>
      <trkpt lat="47.56756" lon="-3.10467">
        <time>2018-01-21T13:58:09.000Z</time>
      </trkpt>
      <trkpt lat="47.56754" lon="-3.10468">
        <time>2018-01-21T13:58:10.000Z</time>
      </trkpt>
      <trkpt lat="47.56751" lon="-3.10469">
        <time>2018-01-21T13:58:11.000Z</time>
      </trkpt>
      <trkpt lat="47.56749" lon="-3.10469">
        <time>2018-01-21T13:58:12.000Z</time>
      </trkpt>
      <trkpt lat="47.56746" lon="-3.1047">
        <time>2018-01-21T13:58:13.000Z</time>
      </trkpt>
      <trkpt lat="47.56744" lon="-3.10471">
        <time>2018-01-21T13:58:14.000Z</time>
      </trkpt>
      <trkpt lat="47.56742" lon="-3.10471">
        <time>2018-01-21T13:58:15.000Z</time>
      </trkpt>
      <trkpt lat="47.56741" lon="-3.10471">
        <time>2018-01-21T13:58:16.000Z</time>
      </trkpt>
      <trkpt lat="47.56739" lon="-3.10472">
        <time>2018-01-21T13:58:17.000Z</time>
      </trkpt>
      <trkpt lat="47.56738" lon="-3.10472">
        <time>2018-01-21T13:58:18.000Z</time>
      </trkpt>
      <trkpt lat="47.56737" lon="-3.10473">
        <time>2018-01-21T13:58:19.000Z</time>
      </trkpt>
      <trkpt lat="47.56735" lon="-3.10474">
        <time>2018-01-21T13:58:20.000Z</time>
      </trkpt>
      <trkpt lat="47.56734" lon="-3.10475">
        <time>2018-01-21T13:58:21.000Z</time>
      </trkpt>
      <trkpt lat="47.56732" lon="-3.10475">
        <time>2018-01-21T13:58:22.000Z</time>
      </trkpt>
      <trkpt lat="47.5673" lon="-3.10475">
        <time>2018-01-21T13:58:23.000Z</time>
      </trkpt>
      <trkpt lat="47.56727" lon="-3.10474">
        <time>2018-01-21T13:58:24.000Z</time>
      </trkpt>
      <trkpt lat="47.56724" lon="-3.10474">
        <time>2018-01-21T13:58:25.000Z</time>
      </trkpt>
      <trkpt lat="47.56721" lon="-3.10474">
        <time>2018-01-21T13:58:26.000Z</time>
      </trkpt>
      <trkpt lat="47.56718" lon="-3.10473">
        <time>2018-01-21T13:58:27.000Z</time>
      </trkpt>
      <trkpt lat="47.56715" lon="-3.10473">
        <time>2018-01-21T13:58:28.000Z</time>
      </trkpt>
      <trkpt lat="47.56712" lon="-3.10472">
        <time>2018-01-21T13:58:29.000Z</time>
      </trkpt>
      <trkpt lat="47.56709" lon="-3.10471">
        <time>2018-01-21T13:58:30.000Z</time>
      </trkpt>
      <trkpt lat="47.56706" lon="-3.10471">
        <time>2018-01-21T13:58:31.000Z</time>
      </trkpt>
      <trkpt lat="47.56703" lon="-3.1047">
        <time>2018-01-21T13:58:32.000Z</time>
      </trkpt>
      <trkpt lat="47.567" lon="-3.10472">
        <time>2018-01-21T13:58:33.000Z</time>
      </trkpt>
      <trkpt lat="47.56698" lon="-3.10471">
        <time>2018-01-21T13:58:34.000Z</time>
      </trkpt>
      <trkpt lat="47.56695" lon="-3.1047">
        <time>2018-01-21T13:58:35.000Z</time>
      </trkpt>
      <trkpt lat="47.56692" lon="-3.10469">
        <time>2018-01-21T13:58:36.000Z</time>
      </trkpt>
      <trkpt lat="47.56687" lon="-3.10466">
        <time>2018-01-21T13:58:37.000Z</time>
      </trkpt>
      <trkpt lat="47.56683" lon="-3.10464">
        <time>2018-01-21T13:58:38.000Z</time>
      </trkpt>
      <trkpt lat="47.56679" lon="-3.10462">
        <time>2018-01-21T13:58:39.000Z</time>
      </trkpt>
      <trkpt lat="47.56676" lon="-3.10463">
        <time>2018-01-21T13:58:40.000Z</time>
      </trkpt>
      <trkpt lat="47.56672" lon="-3.1046">
        <time>2018-01-21T13:58:41.000Z</time>
      </trkpt>
      <trkpt lat="47.56669" lon="-3.10458">
        <time>2018-01-21T13:58:42.000Z</time>
      </trkpt>
      <trkpt lat="47.56666" lon="-3.10457">
        <time>2018-01-21T13:58:43.000Z</time>
      </trkpt>
      <trkpt lat="47.56663" lon="-3.10455">
        <time>2018-01-21T13:58:44.000Z</time>
      </trkpt>
      <trkpt lat="47.56659" lon="-3.10453">
        <time>2018-01-21T13:58:45.000Z</time>
      </trkpt>
      <trkpt lat="47.56655" lon="-3.10453">
        <time>2018-01-21T13:58:46.000Z</time>
      </trkpt>
      <trkpt lat="47.5665" lon="-3.1045">
        <time>2018-01-21T13:58:47.000Z</time>
      </trkpt>
      <trkpt lat="47.56646" lon="-3.10448">
        <time>2018-01-21T13:58:48.000Z</time>
      </trkpt>
      <trkpt lat="47.56642" lon="-3.10446">
        <time>2018-01-21T13:58:49.000Z</time>
      </trkpt>
      <trkpt lat="47.56637" lon="-3.10444">
        <time>2018-01-21T13:58:50.000Z</time>
      </trkpt>
      <trkpt lat="47.56632" lon="-3.10442">
        <time>2018-01-21T13:58:51.000Z</time>
      </trkpt>
      <trkpt lat="47.56627" lon="-3.10439">
        <time>2018-01-21T13:58:52.000Z</time>
      </trkpt>
      <trkpt lat="47.56621" lon="-3.10437">
        <time>2018-01-21T13:58:53.000Z</time>
      </trkpt>
      <trkpt lat="47.56616" lon="-3.10434">
        <time>2018-01-21T13:58:54.000Z</time>
      </trkpt>
      <trkpt lat="47.56609" lon="-3.10433">
        <time>2018-01-21T13:58:55.000Z</time>
      </trkpt>
      <trkpt lat="47.56603" lon="-3.10431">
        <time>2018-01-21T13:58:56.000Z</time>
      </trkpt>
      <trkpt lat="47.56596" lon="-3.10428">
        <time>2018-01-21T13:58:57.000Z</time>
      </trkpt>
      <trkpt lat="47.56589" lon="-3.10425">
        <time>2018-01-21T13:58:58.000Z</time>
      </trkpt>
      <trkpt lat="47.56583" lon="-3.10423">
        <time>2018-01-21T13:58:59.000Z</time>
      </trkpt>
      <trkpt lat="47.56576" lon="-3.1042">
        <time>2018-01-21T13:59:00.000Z</time>
      </trkpt>
      <trkpt lat="47.56569" lon="-3.10417">
        <time>2018-01-21T13:59:01.000Z</time>
      </trkpt>
      <trkpt lat="47.56562" lon="-3.10414">
        <time>2018-01-21T13:59:02.000Z</time>
      </trkpt>
      <trkpt lat="47.56555" lon="-3.10412">
        <time>2018-01-21T13:59:03.000Z</time>
      </trkpt>
      <trkpt lat="47.56549" lon="-3.10409">
        <time>2018-01-21T13:59:04.000Z</time>
      </trkpt>
      <trkpt lat="47.56542" lon="-3.10407">
        <time>2018-01-21T13:59:05.000Z</time>
      </trkpt>
      <trkpt lat="47.56535" lon="-3.10403">
        <time>2018-01-21T13:59:06.000Z</time>
      </trkpt>
      <trkpt lat="47.56528" lon="-3.104">
        <time>2018-01-21T13:59:07.000Z</time>
      </trkpt>
      <trkpt lat="47.56521" lon="-3.10397">
        <time>2018-01-21T13:59:08.000Z</time>
      </trkpt>
      <trkpt lat="47.56514" lon="-3.10395">
        <time>2018-01-21T13:59:09.000Z</time>
      </trkpt>
      <trkpt lat="47.56506" lon="-3.10392">
        <time>2018-01-21T13:59:10.000Z</time>
      </trkpt>
      <trkpt lat="47.56498" lon="-3.1039">
        <time>2018-01-21T13:59:11.000Z</time>
      </trkpt>
      <trkpt lat="47.5649" lon="-3.10387">
        <time>2018-01-21T13:59:12.000Z</time>
      </trkpt>
      <trkpt lat="47.56482" lon="-3.10384">
        <time>2018-01-21T13:59:13.000Z</time>
      </trkpt>
      <trkpt lat="47.56474" lon="-3.10382">
        <time>2018-01-21T13:59:14.000Z</time>
      </trkpt>
      <trkpt lat="47.56467" lon="-3.10378">
        <time>2018-01-21T13:59:15.000Z</time>
      </trkpt>
      <trkpt lat="47.56459" lon="-3.10375">
        <time>2018-01-21T13:59:16.000Z</time>
      </trkpt>
      <trkpt lat="47.56452" lon="-3.10371">
        <time>2018-01-21T13:59:17.000Z</time>
      </trkpt>
      <trkpt lat="47.56445" lon="-3.10367">
        <time>2018-01-21T13:59:18.000Z</time>
      </trkpt>
      <trkpt lat="47.56437" lon="-3.10364">
        <time>2018-01-21T13:59:19.000Z</time>
      </trkpt>
      <trkpt lat="47.56429" lon="-3.10361">
        <time>2018-01-21T13:59:20.000Z</time>
      </trkpt>
      <trkpt lat="47.56421" lon="-3.10359">
        <time>2018-01-21T13:59:21.000Z</time>
      </trkpt>
      <trkpt lat="47.56412" lon="-3.10356">
        <time>2018-01-21T13:59:22.000Z</time>
      </trkpt>
      <trkpt lat="47.56403" lon="-3.10353">
        <time>2018-01-21T13:59:23.000Z</time>
      </trkpt>
      <trkpt lat="47.56395" lon="-3.10351">
        <time>2018-01-21T13:59:24.000Z</time>
      </trkpt>
      <trkpt lat="47.56387" lon="-3.10347">
        <time>2018-01-21T13:59:25.000Z</time>
      </trkpt>
      <trkpt lat="47.56379" lon="-3.10345">
        <time>2018-01-21T13:59:26.000Z</time>
      </trkpt>
      <trkpt lat="47.56371" lon="-3.10342">
        <time>2018-01-21T13:59:27.000Z</time>
      </trkpt>
      <trkpt lat="47.56363" lon="-3.10339">
        <time>2018-01-21T13:59:28.000Z</time>
      </trkpt>
      <trkpt lat="47.56355" lon="-3.10334">
        <time>2018-01-21T13:59:29.000Z</time>
      </trkpt>
      <trkpt lat="47.56346" lon="-3.1033">
        <time>2018-01-21T13:59:30.000Z</time>
      </trkpt>
      <trkpt lat="47.56339" lon="-3.10326">
        <time>2018-01-21T13:59:31.000Z</time>
      </trkpt>
      <trkpt lat="47.5633" lon="-3.10322">
        <time>2018-01-21T13:59:32.000Z</time>
      </trkpt>
      <trkpt lat="47.56322" lon="-3.10318">
        <time>2018-01-21T13:59:33.000Z</time>
      </trkpt>
      <trkpt lat="47.56314" lon="-3.10317">
        <time>2018-01-21T13:59:34.000Z</time>
      </trkpt>
      <trkpt lat="47.56306" lon="-3.10315">
        <time>2018-01-21T13:59:35.000Z</time>
      </trkpt>
      <trkpt lat="47.56298" lon="-3.10311">
        <time>2018-01-21T13:59:36.000Z</time>
      </trkpt>
      <trkpt lat="47.5629" lon="-3.10308">
        <time>2018-01-21T13:59:37.000Z</time>
      </trkpt>
      <trkpt lat="47.56282" lon="-3.10306">
        <time>2018-01-21T13:59:38.000Z</time>
      </trkpt>
      <trkpt lat="47.56274" lon="-3.10304">
        <time>2018-01-21T13:59:39.000Z</time>
      </trkpt>
      <trkpt lat="47.56267" lon="-3.10304">
        <time>2018-01-21T13:59:40.000Z</time>
      </trkpt>
      <trkpt lat="47.56259" lon="-3.10302">
        <time>2018-01-21T13:59:41.000Z</time>
      </trkpt>
      <trkpt lat="47.5625" lon="-3.103">
        <time>2018-01-21T13:59:42.000Z</time>
      </trkpt>
      <trkpt lat="47.56242" lon="-3.10296">
        <time>2018-01-21T13:59:43.000Z</time>
      </trkpt>
      <trkpt lat="47.56234" lon="-3.10294">
        <time>2018-01-21T13:59:44.000Z</time>
      </trkpt>
      <trkpt lat="47.56225" lon="-3.10292">
        <time>2018-01-21T13:59:45.000Z</time>
      </trkpt>
      <trkpt lat="47.56217" lon="-3.10289">
        <time>2018-01-21T13:59:46.000Z</time>
      </trkpt>
      <trkpt lat="47.56207" lon="-3.10286">
        <time>2018-01-21T13:59:47.000Z</time>
      </trkpt>
      <trkpt lat="47.56198" lon="-3.10284">
        <time>2018-01-21T13:59:48.000Z</time>
      </trkpt>
      <trkpt lat="47.56189" lon="-3.10281">
        <time>2018-01-21T13:59:49.000Z</time>
      </trkpt>
      <trkpt lat="47.5618" lon="-3.10279">
        <time>2018-01-21T13:59:50.000Z</time>
      </trkpt>
      <trkpt lat="47.56171" lon="-3.10277">
        <time>2018-01-21T13:59:51.000Z</time>
      </trkpt>
      <trkpt lat="47.56162" lon="-3.10276">
        <time>2018-01-21T13:59:52.000Z</time>
      </trkpt>
      <trkpt lat="47.56154" lon="-3.10275">
        <time>2018-01-21T13:59:53.000Z</time>
      </trkpt>
      <trkpt lat="47.56145" lon="-3.10274">
        <time>2018-01-21T13:59:54.000Z</time>
      </trkpt>
      <trkpt lat="47.56138" lon="-3.10272">
        <time>2018-01-21T13:59:55.000Z</time>
      </trkpt>
      <trkpt lat="47.56129" lon="-3.1027">
        <time>2018-01-21T13:59:56.000Z</time>
      </trkpt>
      <trkpt lat="47.56121" lon="-3.10268">
        <time>2018-01-21T13:59:57.000Z</time>
      </trkpt>
      <trkpt lat="47.56114" lon="-3.10267">
        <time>2018-01-21T13:59:58.000Z</time>
      </trkpt>
      <trkpt lat="47.56105" lon="-3.10266">
        <time>2018-01-21T13:59:59.000Z</time>
      </trkpt>
      <trkpt lat="47.56097" lon="-3.10264">
        <time>2018-01-21T14:00:00.000Z</time>
      </trkpt>
      <trkpt lat="47.5609" lon="-3.10263">
        <time>2018-01-21T14:00:01.000Z</time>
      </trkpt>
      <trkpt lat="47.56082" lon="-3.10261">
        <time>2018-01-21T14:00:02.000Z</time>
      </trkpt>
      <trkpt lat="47.56074" lon="-3.1026">
        <time>2018-01-21T14:00:03.000Z</time>
      </trkpt>
      <trkpt lat="47.56066" lon="-3.10258">
        <time>2018-01-21T14:00:04.000Z</time>
      </trkpt>
      <trkpt lat="47.56058" lon="-3.10257">
        <time>2018-01-21T14:00:05.000Z</time>
      </trkpt>
      <trkpt lat="47.5605" lon="-3.10255">
        <time>2018-01-21T14:00:06.000Z</time>
      </trkpt>
      <trkpt lat="47.56042" lon="-3.10254">
        <time>2018-01-21T14:00:07.000Z</time>
      </trkpt>
      <trkpt lat="47.56034" lon="-3.10252">
        <time>2018-01-21T14:00:08.000Z</time>
      </trkpt>
      <trkpt lat="47.56027" lon="-3.1025">
        <time>2018-01-21T14:00:09.000Z</time>
      </trkpt>
      <trkpt lat="47.56019" lon="-3.10249">
        <time>2018-01-21T14:00:10.000Z</time>
      </trkpt>
      <trkpt lat="47.56011" lon="-3.10247">
        <time>2018-01-21T14:00:11.000Z</time>
      </trkpt>
      <trkpt lat="47.56004" lon="-3.10247">
        <time>2018-01-21T14:00:12.000Z</time>
      </trkpt>
      <trkpt lat="47.55996" lon="-3.10246">
        <time>2018-01-21T14:00:13.000Z</time>
      </trkpt>
      <trkpt lat="47.55988" lon="-3.10245">
        <time>2018-01-21T14:00:14.000Z</time>
      </trkpt>
      <trkpt lat="47.55981" lon="-3.10244">
        <time>2018-01-21T14:00:15.000Z</time>
      </trkpt>
      <trkpt lat="47.55973" lon="-3.10244">
        <time>2018-01-21T14:00:16.000Z</time>
      </trkpt>
      <trkpt lat="47.55966" lon="-3.10243">
        <time>2018-01-21T14:00:17.000Z</time>
      </trkpt>
      <trkpt lat="47.55958" lon="-3.10241">
        <time>2018-01-21T14:00:18.000Z</time>
      </trkpt>
      <trkpt lat="47.5595" lon="-3.1024">
        <time>2018-01-21T14:00:19.000Z</time>
      </trkpt>
      <trkpt lat="47.55942" lon="-3.10238">
        <time>2018-01-21T14:00:20.000Z</time>
      </trkpt>
      <trkpt lat="47.55933" lon="-3.10236">
        <time>2018-01-21T14:00:21.000Z</time>
      </trkpt>
      <trkpt lat="47.55925" lon="-3.10235">
        <time>2018-01-21T14:00:22.000Z</time>
      </trkpt>
      <trkpt lat="47.55917" lon="-3.10235">
        <time>2018-01-21T14:00:23.000Z</time>
      </trkpt>
      <trkpt lat="47.55909" lon="-3.10234">
        <time>2018-01-21T14:00:24.000Z</time>
      </trkpt>
      <trkpt lat="47.55901" lon="-3.10234">
        <time>2018-01-21T14:00:25.000Z</time>
      </trkpt>
      <trkpt lat="47.55894" lon="-3.10233">
        <time>2018-01-21T14:00:26.000Z</time>
      </trkpt>
      <trkpt lat="47.55886" lon="-3.10232">
        <time>2018-01-21T14:00:27.000Z</time>
      </trkpt>
      <trkpt lat="47.55878" lon="-3.10231">
        <time>2018-01-21T14:00:28.000Z</time>
      </trkpt>
      <trkpt lat="47.5587" lon="-3.1023">
        <time>2018-01-21T14:00:29.000Z</time>
      </trkpt>
      <trkpt lat="47.55862" lon="-3.1023">
        <time>2018-01-21T14:00:30.000Z</time>
      </trkpt>
      <trkpt lat="47.55854" lon="-3.10229">
        <time>2018-01-21T14:00:31.000Z</time>
      </trkpt>
      <trkpt lat="47.55846" lon="-3.10229">
        <time>2018-01-21T14:00:32.000Z</time>
      </trkpt>
      <trkpt lat="47.55837" lon="-3.10229">
        <time>2018-01-21T14:00:33.000Z</time>
      </trkpt>
      <trkpt lat="47.55829" lon="-3.1023">
        <time>2018-01-21T14:00:34.000Z</time>
      </trkpt>
      <trkpt lat="47.55821" lon="-3.10231">
        <time>2018-01-21T14:00:35.000Z</time>
      </trkpt>
      <trkpt lat="47.55813" lon="-3.10231">
        <time>2018-01-21T14:00:36.000Z</time>
      </trkpt>
      <trkpt lat="47.55806" lon="-3.10232">
        <time>2018-01-21T14:00:37.000Z</time>
      </trkpt>
      <trkpt lat="47.55798" lon="-3.10232">
        <time>2018-01-21T14:00:38.000Z</time>
      </trkpt>
      <trkpt lat="47.5579" lon="-3.10231">
        <time>2018-01-21T14:00:39.000Z</time>
      </trkpt>
      <trkpt lat="47.55782" lon="-3.1023">
        <time>2018-01-21T14:00:40.000Z</time>
      </trkpt>
      <trkpt lat="47.55775" lon="-3.10228">
        <time>2018-01-21T14:00:41.000Z</time>
      </trkpt>
      <trkpt lat="47.55767" lon="-3.10228">
        <time>2018-01-21T14:00:42.000Z</time>
      </trkpt>
      <trkpt lat="47.55759" lon="-3.10228">
        <time>2018-01-21T14:00:43.000Z</time>
      </trkpt>
      <trkpt lat="47.55751" lon="-3.10228">
        <time>2018-01-21T14:00:44.000Z</time>
      </trkpt>
      <trkpt lat="47.55743" lon="-3.10228">
        <time>2018-01-21T14:00:45.000Z</time>
      </trkpt>
      <trkpt lat="47.55735" lon="-3.10228">
        <time>2018-01-21T14:00:46.000Z</time>
      </trkpt>
      <trkpt lat="47.55728" lon="-3.10227">
        <time>2018-01-21T14:00:47.000Z</time>
      </trkpt>
      <trkpt lat="47.55719" lon="-3.10226">
        <time>2018-01-21T14:00:48.000Z</time>
      </trkpt>
      <trkpt lat="47.55711" lon="-3.10224">
        <time>2018-01-21T14:00:49.000Z</time>
      </trkpt>
      <trkpt lat="47.55702" lon="-3.10223">
        <time>2018-01-21T14:00:50.000Z</time>
      </trkpt>
      <trkpt lat="47.55694" lon="-3.10223">
        <time>2018-01-21T14:00:51.000Z</time>
      </trkpt>
      <trkpt lat="47.55686" lon="-3.10222">
        <time>2018-01-21T14:00:52.000Z</time>
      </trkpt>
      <trkpt lat="47.55678" lon="-3.10221">
        <time>2018-01-21T14:00:53.000Z</time>
      </trkpt>
      <trkpt lat="47.5567" lon="-3.10222">
        <time>2018-01-21T14:00:54.000Z</time>
      </trkpt>
      <trkpt lat="47.55662" lon="-3.10221">
        <time>2018-01-21T14:00:55.000Z</time>
      </trkpt>
      <trkpt lat="47.55655" lon="-3.10221">
        <time>2018-01-21T14:00:56.000Z</time>
      </trkpt>
      <trkpt lat="47.55647" lon="-3.10221">
        <time>2018-01-21T14:00:57.000Z</time>
      </trkpt>
      <trkpt lat="47.55639" lon="-3.10222">
        <time>2018-01-21T14:00:58.000Z</time>
      </trkpt>
      <trkpt lat="47.55632" lon="-3.10224">
        <time>2018-01-21T14:00:59.000Z</time>
      </trkpt>
      <trkpt lat="47.55625" lon="-3.10225">
        <time>2018-01-21T14:01:00.000Z</time>
      </trkpt>
      <trkpt lat="47.55617" lon="-3.10225">
        <time>2018-01-21T14:01:01.000Z</time>
      </trkpt>
      <trkpt lat="47.55609" lon="-3.10227">
        <time>2018-01-21T14:01:02.000Z</time>
      </trkpt>
      <trkpt lat="47.55603" lon="-3.10228">
        <time>2018-01-21T14:01:03.000Z</time>
      </trkpt>
      <trkpt lat="47.55596" lon="-3.10229">
        <time>2018-01-21T14:01:04.000Z</time>
      </trkpt>
      <trkpt lat="47.55589" lon="-3.1023">
        <time>2018-01-21T14:01:05.000Z</time>
      </trkpt>
      <trkpt lat="47.55584" lon="-3.10231">
        <time>2018-01-21T14:01:06.000Z</time>
      </trkpt>
      <trkpt lat="47.55577" lon="-3.10232">
        <time>2018-01-21T14:01:07.000Z</time>
      </trkpt>
      <trkpt lat="47.5557" lon="-3.10232">
        <time>2018-01-21T14:01:08.000Z</time>
      </trkpt>
      <trkpt lat="47.55562" lon="-3.10233">
        <time>2018-01-21T14:01:09.000Z</time>
      </trkpt>
      <trkpt lat="47.55555" lon="-3.10232">
        <time>2018-01-21T14:01:10.000Z</time>
      </trkpt>
      <trkpt lat="47.55547" lon="-3.10229">
        <time>2018-01-21T14:01:11.000Z</time>
      </trkpt>
      <trkpt lat="47.55538" lon="-3.10225">
        <time>2018-01-21T14:01:12.000Z</time>
      </trkpt>
      <trkpt lat="47.5553" lon="-3.1022">
        <time>2018-01-21T14:01:13.000Z</time>
      </trkpt>
      <trkpt lat="47.55521" lon="-3.10215">
        <time>2018-01-21T14:01:14.000Z</time>
      </trkpt>
      <trkpt lat="47.55512" lon="-3.10211">
        <time>2018-01-21T14:01:15.000Z</time>
      </trkpt>
      <trkpt lat="47.55503" lon="-3.10206">
        <time>2018-01-21T14:01:16.000Z</time>
      </trkpt>
      <trkpt lat="47.55494" lon="-3.10202">
        <time>2018-01-21T14:01:17.000Z</time>
      </trkpt>
      <trkpt lat="47.55485" lon="-3.10198">
        <time>2018-01-21T14:01:18.000Z</time>
      </trkpt>
      <trkpt lat="47.55476" lon="-3.10194">
        <time>2018-01-21T14:01:19.000Z</time>
      </trkpt>
      <trkpt lat="47.55467" lon="-3.10191">
        <time>2018-01-21T14:01:20.000Z</time>
      </trkpt>
      <trkpt lat="47.55459" lon="-3.10189">
        <time>2018-01-21T14:01:21.000Z</time>
      </trkpt>
      <trkpt lat="47.5545" lon="-3.10188">
        <time>2018-01-21T14:01:22.000Z</time>
      </trkpt>
      <trkpt lat="47.55442" lon="-3.10187">
        <time>2018-01-21T14:01:23.000Z</time>
      </trkpt>
      <trkpt lat="47.55435" lon="-3.10187">
        <time>2018-01-21T14:01:24.000Z</time>
      </trkpt>
      <trkpt lat="47.55427" lon="-3.10187">
        <time>2018-01-21T14:01:25.000Z</time>
      </trkpt>
      <trkpt lat="47.55418" lon="-3.10186">
        <time>2018-01-21T14:01:26.000Z</time>
      </trkpt>
      <trkpt lat="47.5541" lon="-3.10186">
        <time>2018-01-21T14:01:27.000Z</time>
      </trkpt>
      <trkpt lat="47.55401" lon="-3.10185">
        <time>2018-01-21T14:01:28.000Z</time>
      </trkpt>
      <trkpt lat="47.55393" lon="-3.10185">
        <time>2018-01-21T14:01:29.000Z</time>
      </trkpt>
      <trkpt lat="47.55385" lon="-3.10184">
        <time>2018-01-21T14:01:30.000Z</time>
      </trkpt>
      <trkpt lat="47.55376" lon="-3.10184">
        <time>2018-01-21T14:01:31.000Z</time>
      </trkpt>
      <trkpt lat="47.55368" lon="-3.10184">
        <time>2018-01-21T14:01:32.000Z</time>
      </trkpt>
      <trkpt lat="47.5536" lon="-3.10185">
        <time>2018-01-21T14:01:33.000Z</time>
      </trkpt>
      <trkpt lat="47.55352" lon="-3.10185">
        <time>2018-01-21T14:01:34.000Z</time>
      </trkpt>
      <trkpt lat="47.55344" lon="-3.10185">
        <time>2018-01-21T14:01:35.000Z</time>
      </trkpt>
      <trkpt lat="47.55336" lon="-3.10185">
        <time>2018-01-21T14:01:36.000Z</time>
      </trkpt>
      <trkpt lat="47.55327" lon="-3.10186">
        <time>2018-01-21T14:01:37.000Z</time>
      </trkpt>
      <trkpt lat="47.55319" lon="-3.10186">
        <time>2018-01-21T14:01:38.000Z</time>
      </trkpt>
      <trkpt lat="47.55311" lon="-3.10186">
        <time>2018-01-21T14:01:39.000Z</time>
      </trkpt>
      <trkpt lat="47.55302" lon="-3.10185">
        <time>2018-01-21T14:01:40.000Z</time>
      </trkpt>
      <trkpt lat="47.55294" lon="-3.10184">
        <time>2018-01-21T14:01:41.000Z</time>
      </trkpt>
      <trkpt lat="47.55286" lon="-3.10182">
        <time>2018-01-21T14:01:42.000Z</time>
      </trkpt>
      <trkpt lat="47.55277" lon="-3.1018">
        <time>2018-01-21T14:01:43.000Z</time>
      </trkpt>
      <trkpt lat="47.55268" lon="-3.10176">
        <time>2018-01-21T14:01:44.000Z</time>
      </trkpt>
      <trkpt lat="47.55259" lon="-3.10172">
        <time>2018-01-21T14:01:45.000Z</time>
      </trkpt>
      <trkpt lat="47.5525" lon="-3.10169">
        <time>2018-01-21T14:01:46.000Z</time>
      </trkpt>
      <trkpt lat="47.55241" lon="-3.10166">
        <time>2018-01-21T14:01:47.000Z</time>
      </trkpt>
      <trkpt lat="47.55232" lon="-3.10164">
        <time>2018-01-21T14:01:48.000Z</time>
      </trkpt>
      <trkpt lat="47.55223" lon="-3.10162">
        <time>2018-01-21T14:01:49.000Z</time>
      </trkpt>
      <trkpt lat="47.55215" lon="-3.1016">
        <time>2018-01-21T14:01:50.000Z</time>
      </trkpt>
      <trkpt lat="47.55206" lon="-3.10159">
        <time>2018-01-21T14:01:51.000Z</time>
      </trkpt>
      <trkpt lat="47.55198" lon="-3.10158">
        <time>2018-01-21T14:01:52.000Z</time>
      </trkpt>
      <trkpt lat="47.55189" lon="-3.10158">
        <time>2018-01-21T14:01:53.000Z</time>
      </trkpt>
      <trkpt lat="47.55181" lon="-3.10157">
        <time>2018-01-21T14:01:54.000Z</time>
      </trkpt>
      <trkpt lat="47.55173" lon="-3.10156">
        <time>2018-01-21T14:01:55.000Z</time>
      </trkpt>
      <trkpt lat="47.55164" lon="-3.10155">
        <time>2018-01-21T14:01:56.000Z</time>
      </trkpt>
      <trkpt lat="47.55155" lon="-3.10154">
        <time>2018-01-21T14:01:57.000Z</time>
      </trkpt>
      <trkpt lat="47.55147" lon="-3.10153">
        <time>2018-01-21T14:01:58.000Z</time>
      </trkpt>
      <trkpt lat="47.55138" lon="-3.10152">
        <time>2018-01-21T14:01:59.000Z</time>
      </trkpt>
      <trkpt lat="47.5513" lon="-3.10151">
        <time>2018-01-21T14:02:00.000Z</time>
      </trkpt>
      <trkpt lat="47.55122" lon="-3.10151">
        <time>2018-01-21T14:02:01.000Z</time>
      </trkpt>
      <trkpt lat="47.55113" lon="-3.10152">
        <time>2018-01-21T14:02:02.000Z</time>
      </trkpt>
      <trkpt lat="47.55105" lon="-3.10151">
        <time>2018-01-21T14:02:03.000Z</time>
      </trkpt>
      <trkpt lat="47.55097" lon="-3.10151">
        <time>2018-01-21T14:02:04.000Z</time>
      </trkpt>
      <trkpt lat="47.5509" lon="-3.1015">
        <time>2018-01-21T14:02:05.000Z</time>
      </trkpt>
      <trkpt lat="47.55083" lon="-3.10149">
        <time>2018-01-21T14:02:06.000Z</time>
      </trkpt>
      <trkpt lat="47.55074" lon="-3.10149">
        <time>2018-01-21T14:02:07.000Z</time>
      </trkpt>
      <trkpt lat="47.55065" lon="-3.10148">
        <time>2018-01-21T14:02:08.000Z</time>
      </trkpt>
      <trkpt lat="47.55055" lon="-3.10147">
        <time>2018-01-21T14:02:09.000Z</time>
      </trkpt>
      <trkpt lat="47.55045" lon="-3.10145">
        <time>2018-01-21T14:02:10.000Z</time>
      </trkpt>
      <trkpt lat="47.55036" lon="-3.10145">
        <time>2018-01-21T14:02:11.000Z</time>
      </trkpt>
      <trkpt lat="47.55026" lon="-3.10146">
        <time>2018-01-21T14:02:12.000Z</time>
      </trkpt>
      <trkpt lat="47.55017" lon="-3.10147">
        <time>2018-01-21T14:02:13.000Z</time>
      </trkpt>
      <trkpt lat="47.55007" lon="-3.10146">
        <time>2018-01-21T14:02:14.000Z</time>
      </trkpt>
      <trkpt lat="47.54999" lon="-3.10146">
        <time>2018-01-21T14:02:15.000Z</time>
      </trkpt>
      <trkpt lat="47.54991" lon="-3.10148">
        <time>2018-01-21T14:02:16.000Z</time>
      </trkpt>
      <trkpt lat="47.54982" lon="-3.10149">
        <time>2018-01-21T14:02:17.000Z</time>
      </trkpt>
      <trkpt lat="47.54973" lon="-3.10149">
        <time>2018-01-21T14:02:18.000Z</time>
      </trkpt>
      <trkpt lat="47.54965" lon="-3.1015">
        <time>2018-01-21T14:02:19.000Z</time>
      </trkpt>
      <trkpt lat="47.54956" lon="-3.1015">
        <time>2018-01-21T14:02:20.000Z</time>
      </trkpt>
      <trkpt lat="47.54948" lon="-3.1015">
        <time>2018-01-21T14:02:21.000Z</time>
      </trkpt>
      <trkpt lat="47.54939" lon="-3.1015">
        <time>2018-01-21T14:02:22.000Z</time>
      </trkpt>
      <trkpt lat="47.54931" lon="-3.10149">
        <time>2018-01-21T14:02:23.000Z</time>
      </trkpt>
      <trkpt lat="47.54922" lon="-3.10147">
        <time>2018-01-21T14:02:24.000Z</time>
      </trkpt>
      <trkpt lat="47.54913" lon="-3.10145">
        <time>2018-01-21T14:02:25.000Z</time>
      </trkpt>
      <trkpt lat="47.54905" lon="-3.10144">
        <time>2018-01-21T14:02:26.000Z</time>
      </trkpt>
      <trkpt lat="47.54896" lon="-3.10144">
        <time>2018-01-21T14:02:27.000Z</time>
      </trkpt>
      <trkpt lat="47.54888" lon="-3.10145">
        <time>2018-01-21T14:02:28.000Z</time>
      </trkpt>
      <trkpt lat="47.54879" lon="-3.10145">
        <time>2018-01-21T14:02:29.000Z</time>
      </trkpt>
      <trkpt lat="47.54871" lon="-3.10145">
        <time>2018-01-21T14:02:30.000Z</time>
      </trkpt>
      <trkpt lat="47.54863" lon="-3.10144">
        <time>2018-01-21T14:02:31.000Z</time>
      </trkpt>
      <trkpt lat="47.54855" lon="-3.10144">
        <time>2018-01-21T14:02:32.000Z</time>
      </trkpt>
      <trkpt lat="47.54847" lon="-3.10144">
        <time>2018-01-21T14:02:33.000Z</time>
      </trkpt>
      <trkpt lat="47.54839" lon="-3.10143">
        <time>2018-01-21T14:02:34.000Z</time>
      </trkpt>
      <trkpt lat="47.54831" lon="-3.10143">
        <time>2018-01-21T14:02:35.000Z</time>
      </trkpt>
      <trkpt lat="47.54823" lon="-3.10143">
        <time>2018-01-21T14:02:36.000Z</time>
      </trkpt>
      <trkpt lat="47.54815" lon="-3.10143">
        <time>2018-01-21T14:02:37.000Z</time>
      </trkpt>
      <trkpt lat="47.54807" lon="-3.10144">
        <time>2018-01-21T14:02:38.000Z</time>
      </trkpt>
      <trkpt lat="47.54799" lon="-3.10144">
        <time>2018-01-21T14:02:39.000Z</time>
      </trkpt>
      <trkpt lat="47.5479" lon="-3.10144">
        <time>2018-01-21T14:02:40.000Z</time>
      </trkpt>
      <trkpt lat="47.54782" lon="-3.10144">
        <time>2018-01-21T14:02:41.000Z</time>
      </trkpt>
      <trkpt lat="47.54773" lon="-3.10145">
        <time>2018-01-21T14:02:42.000Z</time>
      </trkpt>
      <trkpt lat="47.54765" lon="-3.10145">
        <time>2018-01-21T14:02:43.000Z</time>
      </trkpt>
      <trkpt lat="47.54757" lon="-3.10146">
        <time>2018-01-21T14:02:44.000Z</time>
      </trkpt>
      <trkpt lat="47.54749" lon="-3.10147">
        <time>2018-01-21T14:02:45.000Z</time>
      </trkpt>
      <trkpt lat="47.54741" lon="-3.10147">
        <time>2018-01-21T14:02:46.000Z</time>
      </trkpt>
      <trkpt lat="47.54733" lon="-3.10147">
        <time>2018-01-21T14:02:47.000Z</time>
      </trkpt>
      <trkpt lat="47.54724" lon="-3.10148">
        <time>2018-01-21T14:02:48.000Z</time>
      </trkpt>
      <trkpt lat="47.54716" lon="-3.10148">
        <time>2018-01-21T14:02:49.000Z</time>
      </trkpt>
      <trkpt lat="47.54707" lon="-3.10148">
        <time>2018-01-21T14:02:50.000Z</time>
      </trkpt>
      <trkpt lat="47.54698" lon="-3.10149">
        <time>2018-01-21T14:02:51.000Z</time>
      </trkpt>
      <trkpt lat="47.5469" lon="-3.1015">
        <time>2018-01-21T14:02:52.000Z</time>
      </trkpt>
      <trkpt lat="47.54681" lon="-3.10151">
        <time>2018-01-21T14:02:53.000Z</time>
      </trkpt>
      <trkpt lat="47.54673" lon="-3.10151">
        <time>2018-01-21T14:02:54.000Z</time>
      </trkpt>
      <trkpt lat="47.54665" lon="-3.10152">
        <time>2018-01-21T14:02:55.000Z</time>
      </trkpt>
      <trkpt lat="47.54657" lon="-3.10153">
        <time>2018-01-21T14:02:56.000Z</time>
      </trkpt>
      <trkpt lat="47.54649" lon="-3.10154">
        <time>2018-01-21T14:02:57.000Z</time>
      </trkpt>
      <trkpt lat="47.54641" lon="-3.10155">
        <time>2018-01-21T14:02:58.000Z</time>
      </trkpt>
      <trkpt lat="47.54633" lon="-3.10157">
        <time>2018-01-21T14:02:59.000Z</time>
      </trkpt>
      <trkpt lat="47.54625" lon="-3.1016">
        <time>2018-01-21T14:03:00.000Z</time>
      </trkpt>
      <trkpt lat="47.54617" lon="-3.10161">
        <time>2018-01-21T14:03:01.000Z</time>
      </trkpt>
      <trkpt lat="47.54609" lon="-3.10162">
        <time>2018-01-21T14:03:02.000Z</time>
      </trkpt>
      <trkpt lat="47.546" lon="-3.10163">
        <time>2018-01-21T14:03:03.000Z</time>
      </trkpt>
      <trkpt lat="47.54591" lon="-3.10164">
        <time>2018-01-21T14:03:04.000Z</time>
      </trkpt>
      <trkpt lat="47.54583" lon="-3.10164">
        <time>2018-01-21T14:03:05.000Z</time>
      </trkpt>
      <trkpt lat="47.54575" lon="-3.10164">
        <time>2018-01-21T14:03:06.000Z</time>
      </trkpt>
      <trkpt lat="47.54566" lon="-3.10164">
        <time>2018-01-21T14:03:07.000Z</time>
      </trkpt>
      <trkpt lat="47.54558" lon="-3.10165">
        <time>2018-01-21T14:03:08.000Z</time>
      </trkpt>
      <trkpt lat="47.54548" lon="-3.10165">
        <time>2018-01-21T14:03:09.000Z</time>
      </trkpt>
      <trkpt lat="47.5454" lon="-3.10166">
        <time>2018-01-21T14:03:10.000Z</time>
      </trkpt>
      <trkpt lat="47.54531" lon="-3.10166">
        <time>2018-01-21T14:03:11.000Z</time>
      </trkpt>
      <trkpt lat="47.54522" lon="-3.10167">
        <time>2018-01-21T14:03:12.000Z</time>
      </trkpt>
      <trkpt lat="47.54513" lon="-3.10168">
        <time>2018-01-21T14:03:13.000Z</time>
      </trkpt>
      <trkpt lat="47.54505" lon="-3.10169">
        <time>2018-01-21T14:03:14.000Z</time>
      </trkpt>
      <trkpt lat="47.54497" lon="-3.1017">
        <time>2018-01-21T14:03:15.000Z</time>
      </trkpt>
      <trkpt lat="47.54489" lon="-3.10171">
        <time>2018-01-21T14:03:16.000Z</time>
      </trkpt>
      <trkpt lat="47.54482" lon="-3.1017">
        <time>2018-01-21T14:03:17.000Z</time>
      </trkpt>
      <trkpt lat="47.54474" lon="-3.1017">
        <time>2018-01-21T14:03:18.000Z</time>
      </trkpt>
      <trkpt lat="47.54466" lon="-3.1017">
        <time>2018-01-21T14:03:19.000Z</time>
      </trkpt>
      <trkpt lat="47.54458" lon="-3.1017">
        <time>2018-01-21T14:03:20.000Z</time>
      </trkpt>
      <trkpt lat="47.5445" lon="-3.10169">
        <time>2018-01-21T14:03:21.000Z</time>
      </trkpt>
      <trkpt lat="47.54442" lon="-3.1017">
        <time>2018-01-21T14:03:22.000Z</time>
      </trkpt>
      <trkpt lat="47.54434" lon="-3.1017">
        <time>2018-01-21T14:03:23.000Z</time>
      </trkpt>
      <trkpt lat="47.54426" lon="-3.1017">
        <time>2018-01-21T14:03:24.000Z</time>
      </trkpt>
      <trkpt lat="47.54418" lon="-3.10169">
        <time>2018-01-21T14:03:25.000Z</time>
      </trkpt>
      <trkpt lat="47.5441" lon="-3.10169">
        <time>2018-01-21T14:03:26.000Z</time>
      </trkpt>
      <trkpt lat="47.54403" lon="-3.10169">
        <time>2018-01-21T14:03:27.000Z</time>
      </trkpt>
      <trkpt lat="47.54395" lon="-3.10169">
        <time>2018-01-21T14:03:28.000Z</time>
      </trkpt>
      <trkpt lat="47.54386" lon="-3.10168">
        <time>2018-01-21T14:03:29.000Z</time>
      </trkpt>
      <trkpt lat="47.54378" lon="-3.10167">
        <time>2018-01-21T14:03:30.000Z</time>
      </trkpt>
      <trkpt lat="47.5437" lon="-3.10166">
        <time>2018-01-21T14:03:31.000Z</time>
      </trkpt>
      <trkpt lat="47.54362" lon="-3.10166">
        <time>2018-01-21T14:03:32.000Z</time>
      </trkpt>
      <trkpt lat="47.54353" lon="-3.10166">
        <time>2018-01-21T14:03:33.000Z</time>
      </trkpt>
      <trkpt lat="47.54345" lon="-3.10166">
        <time>2018-01-21T14:03:34.000Z</time>
      </trkpt>
      <trkpt lat="47.54336" lon="-3.10167">
        <time>2018-01-21T14:03:35.000Z</time>
      </trkpt>
      <trkpt lat="47.54328" lon="-3.10167">
        <time>2018-01-21T14:03:36.000Z</time>
      </trkpt>
      <trkpt lat="47.5432" lon="-3.10168">
        <time>2018-01-21T14:03:37.000Z</time>
      </trkpt>
      <trkpt lat="47.54312" lon="-3.10169">
        <time>2018-01-21T14:03:38.000Z</time>
      </trkpt>
      <trkpt lat="47.54303" lon="-3.1017">
        <time>2018-01-21T14:03:39.000Z</time>
      </trkpt>
      <trkpt lat="47.54295" lon="-3.1017">
        <time>2018-01-21T14:03:40.000Z</time>
      </trkpt>
      <trkpt lat="47.54287" lon="-3.10171">
        <time>2018-01-21T14:03:41.000Z</time>
      </trkpt>
      <trkpt lat="47.54279" lon="-3.10171">
        <time>2018-01-21T14:03:42.000Z</time>
      </trkpt>
      <trkpt lat="47.54272" lon="-3.10172">
        <time>2018-01-21T14:03:43.000Z</time>
      </trkpt>
      <trkpt lat="47.54264" lon="-3.10173">
        <time>2018-01-21T14:03:44.000Z</time>
      </trkpt>
      <trkpt lat="47.54256" lon="-3.10174">
        <time>2018-01-21T14:03:45.000Z</time>
      </trkpt>
      <trkpt lat="47.54249" lon="-3.10173">
        <time>2018-01-21T14:03:46.000Z</time>
      </trkpt>
      <trkpt lat="47.54242" lon="-3.10173">
        <time>2018-01-21T14:03:47.000Z</time>
      </trkpt>
      <trkpt lat="47.54235" lon="-3.10174">
        <time>2018-01-21T14:03:48.000Z</time>
      </trkpt>
      <trkpt lat="47.54228" lon="-3.10175">
        <time>2018-01-21T14:03:49.000Z</time>
      </trkpt>
      <trkpt lat="47.54221" lon="-3.10176">
        <time>2018-01-21T14:03:50.000Z</time>
      </trkpt>
      <trkpt lat="47.54214" lon="-3.10176">
        <time>2018-01-21T14:03:51.000Z</time>
      </trkpt>
      <trkpt lat="47.54206" lon="-3.10177">
        <time>2018-01-21T14:03:52.000Z</time>
      </trkpt>
      <trkpt lat="47.542" lon="-3.10179">
        <time>2018-01-21T14:03:53.000Z</time>
      </trkpt>
      <trkpt lat="47.54193" lon="-3.1018">
        <time>2018-01-21T14:03:54.000Z</time>
      </trkpt>
      <trkpt lat="47.54186" lon="-3.1018">
        <time>2018-01-21T14:03:55.000Z</time>
      </trkpt>
      <trkpt lat="47.54179" lon="-3.10179">
        <time>2018-01-21T14:03:56.000Z</time>
      </trkpt>
      <trkpt lat="47.54171" lon="-3.10176">
        <time>2018-01-21T14:03:57.000Z</time>
      </trkpt>
      <trkpt lat="47.54163" lon="-3.10177">
        <time>2018-01-21T14:03:58.000Z</time>
      </trkpt>
      <trkpt lat="47.54155" lon="-3.10177">
        <time>2018-01-21T14:03:59.000Z</time>
      </trkpt>
      <trkpt lat="47.54147" lon="-3.10176">
        <time>2018-01-21T14:04:00.000Z</time>
      </trkpt>
      <trkpt lat="47.54138" lon="-3.10175">
        <time>2018-01-21T14:04:01.000Z</time>
      </trkpt>
      <trkpt lat="47.5413" lon="-3.10174">
        <time>2018-01-21T14:04:02.000Z</time>
      </trkpt>
      <trkpt lat="47.54122" lon="-3.10174">
        <time>2018-01-21T14:04:03.000Z</time>
      </trkpt>
      <trkpt lat="47.54113" lon="-3.10174">
        <time>2018-01-21T14:04:04.000Z</time>
      </trkpt>
      <trkpt lat="47.54105" lon="-3.10173">
        <time>2018-01-21T14:04:05.000Z</time>
      </trkpt>
      <trkpt lat="47.54098" lon="-3.10173">
        <time>2018-01-21T14:04:06.000Z</time>
      </trkpt>
      <trkpt lat="47.5409" lon="-3.10173">
        <time>2018-01-21T14:04:07.000Z</time>
      </trkpt>
      <trkpt lat="47.54082" lon="-3.10173">
        <time>2018-01-21T14:04:08.000Z</time>
      </trkpt>
      <trkpt lat="47.54075" lon="-3.10174">
        <time>2018-01-21T14:04:09.000Z</time>
      </trkpt>
      <trkpt lat="47.54067" lon="-3.10174">
        <time>2018-01-21T14:04:10.000Z</time>
      </trkpt>
      <trkpt lat="47.54059" lon="-3.10173">
        <time>2018-01-21T14:04:11.000Z</time>
      </trkpt>
      <trkpt lat="47.54052" lon="-3.10173">
        <time>2018-01-21T14:04:12.000Z</time>
      </trkpt>
      <trkpt lat="47.54043" lon="-3.10172">
        <time>2018-01-21T14:04:13.000Z</time>
      </trkpt>
      <trkpt lat="47.54035" lon="-3.10171">
        <time>2018-01-21T14:04:14.000Z</time>
      </trkpt>
      <trkpt lat="47.54027" lon="-3.10171">
        <time>2018-01-21T14:04:15.000Z</time>
      </trkpt>
      <trkpt lat="47.54019" lon="-3.1017">
        <time>2018-01-21T14:04:16.000Z</time>
      </trkpt>
      <trkpt lat="47.5401" lon="-3.1017">
        <time>2018-01-21T14:04:17.000Z</time>
      </trkpt>
      <trkpt lat="47.54002" lon="-3.10169">
        <time>2018-01-21T14:04:18.000Z</time>
      </trkpt>
      <trkpt lat="47.53993" lon="-3.10167">
        <time>2018-01-21T14:04:19.000Z</time>
      </trkpt>
      <trkpt lat="47.53985" lon="-3.10166">
        <time>2018-01-21T14:04:20.000Z</time>
      </trkpt>
      <trkpt lat="47.53976" lon="-3.10165">
        <time>2018-01-21T14:04:21.000Z</time>
      </trkpt>
      <trkpt lat="47.53968" lon="-3.10164">
        <time>2018-01-21T14:04:22.000Z</time>
      </trkpt>
      <trkpt lat="47.5396" lon="-3.10163">
        <time>2018-01-21T14:04:23.000Z</time>
      </trkpt>
      <trkpt lat="47.53952" lon="-3.10161">
        <time>2018-01-21T14:04:24.000Z</time>
      </trkpt>
      <trkpt lat="47.53942" lon="-3.1016">
        <time>2018-01-21T14:04:25.000Z</time>
      </trkpt>
      <trkpt lat="47.53933" lon="-3.10159">
        <time>2018-01-21T14:04:26.000Z</time>
      </trkpt>
      <trkpt lat="47.53924" lon="-3.10157">
        <time>2018-01-21T14:04:27.000Z</time>
      </trkpt>
      <trkpt lat="47.53915" lon="-3.10156">
        <time>2018-01-21T14:04:28.000Z</time>
      </trkpt>
      <trkpt lat="47.53906" lon="-3.10155">
        <time>2018-01-21T14:04:29.000Z</time>
      </trkpt>
      <trkpt lat="47.53897" lon="-3.10154">
        <time>2018-01-21T14:04:30.000Z</time>
      </trkpt>
      <trkpt lat="47.53889" lon="-3.10153">
        <time>2018-01-21T14:04:31.000Z</time>
      </trkpt>
      <trkpt lat="47.53882" lon="-3.10153">
        <time>2018-01-21T14:04:32.000Z</time>
      </trkpt>
      <trkpt lat="47.53873" lon="-3.10152">
        <time>2018-01-21T14:04:33.000Z</time>
      </trkpt>
      <trkpt lat="47.53865" lon="-3.1015">
        <time>2018-01-21T14:04:34.000Z</time>
      </trkpt>
      <trkpt lat="47.53856" lon="-3.10149">
        <time>2018-01-21T14:04:35.000Z</time>
      </trkpt>
      <trkpt lat="47.53848" lon="-3.10147">
        <time>2018-01-21T14:04:36.000Z</time>
      </trkpt>
      <trkpt lat="47.53839" lon="-3.10146">
        <time>2018-01-21T14:04:37.000Z</time>
      </trkpt>
      <trkpt lat="47.53831" lon="-3.10144">
        <time>2018-01-21T14:04:38.000Z</time>
      </trkpt>
      <trkpt lat="47.53821" lon="-3.10142">
        <time>2018-01-21T14:04:39.000Z</time>
      </trkpt>
      <trkpt lat="47.53812" lon="-3.1014">
        <time>2018-01-21T14:04:40.000Z</time>
      </trkpt>
      <trkpt lat="47.53803" lon="-3.10138">
        <time>2018-01-21T14:04:41.000Z</time>
      </trkpt>
      <trkpt lat="47.53794" lon="-3.10136">
        <time>2018-01-21T14:04:42.000Z</time>
      </trkpt>
      <trkpt lat="47.53785" lon="-3.10134">
        <time>2018-01-21T14:04:43.000Z</time>
      </trkpt>
      <trkpt lat="47.53776" lon="-3.10133">
        <time>2018-01-21T14:04:44.000Z</time>
      </trkpt>
      <trkpt lat="47.53767" lon="-3.10131">
        <time>2018-01-21T14:04:45.000Z</time>
      </trkpt>
      <trkpt lat="47.53758" lon="-3.1013">
        <time>2018-01-21T14:04:46.000Z</time>
      </trkpt>
      <trkpt lat="47.5375" lon="-3.10128">
        <time>2018-01-21T14:04:47.000Z</time>
      </trkpt>
      <trkpt lat="47.53742" lon="-3.10126">
        <time>2018-01-21T14:04:48.000Z</time>
      </trkpt>
      <trkpt lat="47.53734" lon="-3.10124">
        <time>2018-01-21T14:04:49.000Z</time>
      </trkpt>
      <trkpt lat="47.53726" lon="-3.10121">
        <time>2018-01-21T14:04:50.000Z</time>
      </trkpt>
      <trkpt lat="47.53719" lon="-3.10115">
        <time>2018-01-21T14:04:51.000Z</time>
      </trkpt>
      <trkpt lat="47.53713" lon="-3.10108">
        <time>2018-01-21T14:04:52.000Z</time>
      </trkpt>
      <trkpt lat="47.53708" lon="-3.10099">
        <time>2018-01-21T14:04:53.000Z</time>
      </trkpt>
      <trkpt lat="47.53705" lon="-3.1009">
        <time>2018-01-21T14:04:54.000Z</time>
      </trkpt>
      <trkpt lat="47.53703" lon="-3.1008">
        <time>2018-01-21T14:04:55.000Z</time>
      </trkpt>
      <trkpt lat="47.53703" lon="-3.1007">
        <time>2018-01-21T14:04:56.000Z</time>
      </trkpt>
      <trkpt lat="47.53704" lon="-3.10063">
        <time>2018-01-21T14:04:57.000Z</time>
      </trkpt>
      <trkpt lat="47.53706" lon="-3.10059">
        <time>2018-01-21T14:04:58.000Z</time>
      </trkpt>
      <trkpt lat="47.53708" lon="-3.10056">
        <time>2018-01-21T14:04:59.000Z</time>
      </trkpt>
      <trkpt lat="47.5371" lon="-3.10057">
        <time>2018-01-21T14:05:00.000Z</time>
      </trkpt>
      <trkpt lat="47.53711" lon="-3.10058">
        <time>2018-01-21T14:05:01.000Z</time>
      </trkpt>
      <trkpt lat="47.53712" lon="-3.10058">
        <time>2018-01-21T14:05:02.000Z</time>
      </trkpt>
      <trkpt lat="47.53714" lon="-3.10058">
        <time>2018-01-21T14:05:03.000Z</time>
      </trkpt>
      <trkpt lat="47.53716" lon="-3.10059">
        <time>2018-01-21T14:05:04.000Z</time>
      </trkpt>
      <trkpt lat="47.53719" lon="-3.1006">
        <time>2018-01-21T14:05:05.000Z</time>
      </trkpt>
      <trkpt lat="47.53722" lon="-3.1006">
        <time>2018-01-21T14:05:06.000Z</time>
      </trkpt>
      <trkpt lat="47.53726" lon="-3.10061">
        <time>2018-01-21T14:05:07.000Z</time>
      </trkpt>
      <trkpt lat="47.53729" lon="-3.10063">
        <time>2018-01-21T14:05:08.000Z</time>
      </trkpt>
      <trkpt lat="47.53733" lon="-3.10064">
        <time>2018-01-21T14:05:09.000Z</time>
      </trkpt>
      <trkpt lat="47.53737" lon="-3.10066">
        <time>2018-01-21T14:05:10.000Z</time>
      </trkpt>
      <trkpt lat="47.5374" lon="-3.10068">
        <time>2018-01-21T14:05:11.000Z</time>
      </trkpt>
      <trkpt lat="47.53743" lon="-3.1007">
        <time>2018-01-21T14:05:12.000Z</time>
      </trkpt>
      <trkpt lat="47.53746" lon="-3.10072">
        <time>2018-01-21T14:05:13.000Z</time>
      </trkpt>
      <trkpt lat="47.53749" lon="-3.10074">
        <time>2018-01-21T14:05:14.000Z</time>
      </trkpt>
      <trkpt lat="47.53753" lon="-3.10075">
        <time>2018-01-21T14:05:15.000Z</time>
      </trkpt>
      <trkpt lat="47.53758" lon="-3.10076">
        <time>2018-01-21T14:05:16.000Z</time>
      </trkpt>
      <trkpt lat="47.53764" lon="-3.10077">
        <time>2018-01-21T14:05:17.000Z</time>
      </trkpt>
      <trkpt lat="47.5377" lon="-3.10078">
        <time>2018-01-21T14:05:18.000Z</time>
      </trkpt>
      <trkpt lat="47.53777" lon="-3.10079">
        <time>2018-01-21T14:05:19.000Z</time>
      </trkpt>
      <trkpt lat="47.53784" lon="-3.10081">
        <time>2018-01-21T14:05:20.000Z</time>
      </trkpt>
      <trkpt lat="47.53791" lon="-3.10084">
        <time>2018-01-21T14:05:21.000Z</time>
      </trkpt>
      <trkpt lat="47.53799" lon="-3.10086">
        <time>2018-01-21T14:05:22.000Z</time>
      </trkpt>
      <trkpt lat="47.53806" lon="-3.10089">
        <time>2018-01-21T14:05:23.000Z</time>
      </trkpt>
      <trkpt lat="47.53814" lon="-3.10092">
        <time>2018-01-21T14:05:24.000Z</time>
      </trkpt>
      <trkpt lat="47.53822" lon="-3.10095">
        <time>2018-01-21T14:05:25.000Z</time>
      </trkpt>
      <trkpt lat="47.53829" lon="-3.10098">
        <time>2018-01-21T14:05:26.000Z</time>
      </trkpt>
      <trkpt lat="47.53837" lon="-3.101">
        <time>2018-01-21T14:05:27.000Z</time>
      </trkpt>
      <trkpt lat="47.53845" lon="-3.10102">
        <time>2018-01-21T14:05:28.000Z</time>
      </trkpt>
      <trkpt lat="47.53853" lon="-3.10104">
        <time>2018-01-21T14:05:29.000Z</time>
      </trkpt>
      <trkpt lat="47.5386" lon="-3.10106">
        <time>2018-01-21T14:05:30.000Z</time>
      </trkpt>
      <trkpt lat="47.53868" lon="-3.10108">
        <time>2018-01-21T14:05:31.000Z</time>
      </trkpt>
      <trkpt lat="47.53877" lon="-3.10109">
        <time>2018-01-21T14:05:32.000Z</time>
      </trkpt>
      <trkpt lat="47.53885" lon="-3.10111">
        <time>2018-01-21T14:05:33.000Z</time>
      </trkpt>
      <trkpt lat="47.53893" lon="-3.10114">
        <time>2018-01-21T14:05:34.000Z</time>
      </trkpt>
      <trkpt lat="47.53901" lon="-3.10117">
        <time>2018-01-21T14:05:35.000Z</time>
      </trkpt>
      <trkpt lat="47.5391" lon="-3.10119">
        <time>2018-01-21T14:05:36.000Z</time>
      </trkpt>
      <trkpt lat="47.53919" lon="-3.10122">
        <time>2018-01-21T14:05:37.000Z</time>
      </trkpt>
      <trkpt lat="47.53927" lon="-3.10125">
        <time>2018-01-21T14:05:38.000Z</time>
      </trkpt>
      <trkpt lat="47.53937" lon="-3.10126">
        <time>2018-01-21T14:05:39.000Z</time>
      </trkpt>
      <trkpt lat="47.53946" lon="-3.10127">
        <time>2018-01-21T14:05:40.000Z</time>
      </trkpt>
      <trkpt lat="47.53955" lon="-3.10128">
        <time>2018-01-21T14:05:41.000Z</time>
      </trkpt>
      <trkpt lat="47.53964" lon="-3.1013">
        <time>2018-01-21T14:05:42.000Z</time>
      </trkpt>
      <trkpt lat="47.53973" lon="-3.10132">
        <time>2018-01-21T14:05:43.000Z</time>
      </trkpt>
      <trkpt lat="47.53982" lon="-3.10134">
        <time>2018-01-21T14:05:44.000Z</time>
      </trkpt>
      <trkpt lat="47.53991" lon="-3.10137">
        <time>2018-01-21T14:05:45.000Z</time>
      </trkpt>
      <trkpt lat="47.53999" lon="-3.1014">
        <time>2018-01-21T14:05:46.000Z</time>
      </trkpt>
      <trkpt lat="47.54008" lon="-3.10142">
        <time>2018-01-21T14:05:47.000Z</time>
      </trkpt>
      <trkpt lat="47.54016" lon="-3.10144">
        <time>2018-01-21T14:05:48.000Z</time>
      </trkpt>
      <trkpt lat="47.54025" lon="-3.10147">
        <time>2018-01-21T14:05:49.000Z</time>
      </trkpt>
      <trkpt lat="47.54033" lon="-3.1015">
        <time>2018-01-21T14:05:50.000Z</time>
      </trkpt>
      <trkpt lat="47.54042" lon="-3.10152">
        <time>2018-01-21T14:05:51.000Z</time>
      </trkpt>
      <trkpt lat="47.5405" lon="-3.10154">
        <time>2018-01-21T14:05:52.000Z</time>
      </trkpt>
      <trkpt lat="47.54059" lon="-3.10156">
        <time>2018-01-21T14:05:53.000Z</time>
      </trkpt>
      <trkpt lat="47.54067" lon="-3.10157">
        <time>2018-01-21T14:05:54.000Z</time>
      </trkpt>
      <trkpt lat="47.54076" lon="-3.10159">
        <time>2018-01-21T14:05:55.000Z</time>
      </trkpt>
      <trkpt lat="47.54085" lon="-3.1016">
        <time>2018-01-21T14:05:56.000Z</time>
      </trkpt>
      <trkpt lat="47.54094" lon="-3.10162">
        <time>2018-01-21T14:05:57.000Z</time>
      </trkpt>
      <trkpt lat="47.54103" lon="-3.10164">
        <time>2018-01-21T14:05:58.000Z</time>
      </trkpt>
      <trkpt lat="47.54112" lon="-3.10166">
        <time>2018-01-21T14:05:59.000Z</time>
      </trkpt>
      <trkpt lat="47.54121" lon="-3.10168">
        <time>2018-01-21T14:06:00.000Z</time>
      </trkpt>
      <trkpt lat="47.5413" lon="-3.10171">
        <time>2018-01-21T14:06:01.000Z</time>
      </trkpt>
      <trkpt lat="47.54138" lon="-3.10174">
        <time>2018-01-21T14:06:02.000Z</time>
      </trkpt>
      <trkpt lat="47.54146" lon="-3.10175">
        <time>2018-01-21T14:06:03.000Z</time>
      </trkpt>
      <trkpt lat="47.54155" lon="-3.10176">
        <time>2018-01-21T14:06:04.000Z</time>
      </trkpt>
      <trkpt lat="47.54164" lon="-3.10177">
        <time>2018-01-21T14:06:05.000Z</time>
      </trkpt>
      <trkpt lat="47.54174" lon="-3.10179">
        <time>2018-01-21T14:06:06.000Z</time>
      </trkpt>
      <trkpt lat="47.54183" lon="-3.10181">
        <time>2018-01-21T14:06:07.000Z</time>
      </trkpt>
      <trkpt lat="47.54191" lon="-3.10184">
        <time>2018-01-21T14:06:08.000Z</time>
      </trkpt>
      <trkpt lat="47.542" lon="-3.10186">
        <time>2018-01-21T14:06:09.000Z</time>
      </trkpt>
      <trkpt lat="47.54208" lon="-3.10189">
        <time>2018-01-21T14:06:10.000Z</time>
      </trkpt>
      <trkpt lat="47.54217" lon="-3.1019">
        <time>2018-01-21T14:06:11.000Z</time>
      </trkpt>
      <trkpt lat="47.54226" lon="-3.10192">
        <time>2018-01-21T14:06:12.000Z</time>
      </trkpt>
      <trkpt lat="47.54235" lon="-3.10195">
        <time>2018-01-21T14:06:13.000Z</time>
      </trkpt>
      <trkpt lat="47.54243" lon="-3.10198">
        <time>2018-01-21T14:06:14.000Z</time>
      </trkpt>
      <trkpt lat="47.54252" lon="-3.10201">
        <time>2018-01-21T14:06:15.000Z</time>
      </trkpt>
      <trkpt lat="47.54261" lon="-3.10203">
        <time>2018-01-21T14:06:16.000Z</time>
      </trkpt>
      <trkpt lat="47.5427" lon="-3.10204">
        <time>2018-01-21T14:06:17.000Z</time>
      </trkpt>
      <trkpt lat="47.54279" lon="-3.10205">
        <time>2018-01-21T14:06:18.000Z</time>
      </trkpt>
      <trkpt lat="47.54289" lon="-3.10206">
        <time>2018-01-21T14:06:19.000Z</time>
      </trkpt>
      <trkpt lat="47.54299" lon="-3.10207">
        <time>2018-01-21T14:06:20.000Z</time>
      </trkpt>
      <trkpt lat="47.54308" lon="-3.10209">
        <time>2018-01-21T14:06:21.000Z</time>
      </trkpt>
      <trkpt lat="47.54317" lon="-3.10211">
        <time>2018-01-21T14:06:22.000Z</time>
      </trkpt>
      <trkpt lat="47.54326" lon="-3.10214">
        <time>2018-01-21T14:06:23.000Z</time>
      </trkpt>
      <trkpt lat="47.54335" lon="-3.10215">
        <time>2018-01-21T14:06:24.000Z</time>
      </trkpt>
      <trkpt lat="47.54345" lon="-3.10216">
        <time>2018-01-21T14:06:25.000Z</time>
      </trkpt>
      <trkpt lat="47.54354" lon="-3.10216">
        <time>2018-01-21T14:06:26.000Z</time>
      </trkpt>
      <trkpt lat="47.54363" lon="-3.10217">
        <time>2018-01-21T14:06:27.000Z</time>
      </trkpt>
      <trkpt lat="47.54372" lon="-3.10218">
        <time>2018-01-21T14:06:28.000Z</time>
      </trkpt>
      <trkpt lat="47.54381" lon="-3.1022">
        <time>2018-01-21T14:06:29.000Z</time>
      </trkpt>
      <trkpt lat="47.5439" lon="-3.10222">
        <time>2018-01-21T14:06:30.000Z</time>
      </trkpt>
      <trkpt lat="47.54399" lon="-3.10225">
        <time>2018-01-21T14:06:31.000Z</time>
      </trkpt>
      <trkpt lat="47.54408" lon="-3.10227">
        <time>2018-01-21T14:06:32.000Z</time>
      </trkpt>
      <trkpt lat="47.54418" lon="-3.10228">
        <time>2018-01-21T14:06:33.000Z</time>
      </trkpt>
      <trkpt lat="47.54427" lon="-3.10229">
        <time>2018-01-21T14:06:34.000Z</time>
      </trkpt>
      <trkpt lat="47.54437" lon="-3.1023">
        <time>2018-01-21T14:06:35.000Z</time>
      </trkpt>
      <trkpt lat="47.54447" lon="-3.10232">
        <time>2018-01-21T14:06:36.000Z</time>
      </trkpt>
      <trkpt lat="47.54456" lon="-3.10233">
        <time>2018-01-21T14:06:37.000Z</time>
      </trkpt>
      <trkpt lat="47.54464" lon="-3.10235">
        <time>2018-01-21T14:06:38.000Z</time>
      </trkpt>
      <trkpt lat="47.54473" lon="-3.10234">
        <time>2018-01-21T14:06:39.000Z</time>
      </trkpt>
      <trkpt lat="47.54482" lon="-3.10235">
        <time>2018-01-21T14:06:40.000Z</time>
      </trkpt>
      <trkpt lat="47.54491" lon="-3.10236">
        <time>2018-01-21T14:06:41.000Z</time>
      </trkpt>
      <trkpt lat="47.54501" lon="-3.10237">
        <time>2018-01-21T14:06:42.000Z</time>
      </trkpt>
      <trkpt lat="47.5451" lon="-3.10239">
        <time>2018-01-21T14:06:43.000Z</time>
      </trkpt>
      <trkpt lat="47.54519" lon="-3.10242">
        <time>2018-01-21T14:06:44.000Z</time>
      </trkpt>
      <trkpt lat="47.54527" lon="-3.10246">
        <time>2018-01-21T14:06:45.000Z</time>
      </trkpt>
      <trkpt lat="47.54535" lon="-3.10247">
        <time>2018-01-21T14:06:46.000Z</time>
      </trkpt>
      <trkpt lat="47.54543" lon="-3.1025">
        <time>2018-01-21T14:06:47.000Z</time>
      </trkpt>
      <trkpt lat="47.54552" lon="-3.10251">
        <time>2018-01-21T14:06:48.000Z</time>
      </trkpt>
      <trkpt lat="47.54561" lon="-3.10253">
        <time>2018-01-21T14:06:49.000Z</time>
      </trkpt>
      <trkpt lat="47.5457" lon="-3.10254">
        <time>2018-01-21T14:06:50.000Z</time>
      </trkpt>
      <trkpt lat="47.5458" lon="-3.10255">
        <time>2018-01-21T14:06:51.000Z</time>
      </trkpt>
      <trkpt lat="47.5459" lon="-3.10256">
        <time>2018-01-21T14:06:52.000Z</time>
      </trkpt>
      <trkpt lat="47.54598" lon="-3.10257">
        <time>2018-01-21T14:06:53.000Z</time>
      </trkpt>
      <trkpt lat="47.54608" lon="-3.1026">
        <time>2018-01-21T14:06:54.000Z</time>
      </trkpt>
      <trkpt lat="47.54617" lon="-3.10262">
        <time>2018-01-21T14:06:55.000Z</time>
      </trkpt>
      <trkpt lat="47.54627" lon="-3.10264">
        <time>2018-01-21T14:06:56.000Z</time>
      </trkpt>
      <trkpt lat="47.54636" lon="-3.10265">
        <time>2018-01-21T14:06:57.000Z</time>
      </trkpt>
      <trkpt lat="47.54645" lon="-3.10267">
        <time>2018-01-21T14:06:58.000Z</time>
      </trkpt>
      <trkpt lat="47.54653" lon="-3.1027">
        <time>2018-01-21T14:06:59.000Z</time>
      </trkpt>
      <trkpt lat="47.54661" lon="-3.10273">
        <time>2018-01-21T14:07:00.000Z</time>
      </trkpt>
      <trkpt lat="47.54668" lon="-3.10277">
        <time>2018-01-21T14:07:01.000Z</time>
      </trkpt>
      <trkpt lat="47.54676" lon="-3.10278">
        <time>2018-01-21T14:07:02.000Z</time>
      </trkpt>
      <trkpt lat="47.54683" lon="-3.10278">
        <time>2018-01-21T14:07:03.000Z</time>
      </trkpt>
      <trkpt lat="47.54691" lon="-3.10277">
        <time>2018-01-21T14:07:04.000Z</time>
      </trkpt>
      <trkpt lat="47.547" lon="-3.10277">
        <time>2018-01-21T14:07:05.000Z</time>
      </trkpt>
      <trkpt lat="47.54708" lon="-3.10278">
        <time>2018-01-21T14:07:06.000Z</time>
      </trkpt>
      <trkpt lat="47.54717" lon="-3.10278">
        <time>2018-01-21T14:07:07.000Z</time>
      </trkpt>
      <trkpt lat="47.54726" lon="-3.10279">
        <time>2018-01-21T14:07:08.000Z</time>
      </trkpt>
      <trkpt lat="47.54733" lon="-3.10279">
        <time>2018-01-21T14:07:09.000Z</time>
      </trkpt>
      <trkpt lat="47.54743" lon="-3.10278">
        <time>2018-01-21T14:07:10.000Z</time>
      </trkpt>
      <trkpt lat="47.54753" lon="-3.10278">
        <time>2018-01-21T14:07:11.000Z</time>
      </trkpt>
      <trkpt lat="47.54763" lon="-3.10277">
        <time>2018-01-21T14:07:12.000Z</time>
      </trkpt>
      <trkpt lat="47.54772" lon="-3.10277">
        <time>2018-01-21T14:07:13.000Z</time>
      </trkpt>
      <trkpt lat="47.5478" lon="-3.10278">
        <time>2018-01-21T14:07:14.000Z</time>
      </trkpt>
      <trkpt lat="47.54789" lon="-3.1028">
        <time>2018-01-21T14:07:15.000Z</time>
      </trkpt>
      <trkpt lat="47.54798" lon="-3.10282">
        <time>2018-01-21T14:07:16.000Z</time>
      </trkpt>
      <trkpt lat="47.54807" lon="-3.10284">
        <time>2018-01-21T14:07:17.000Z</time>
      </trkpt>
      <trkpt lat="47.54816" lon="-3.10286">
        <time>2018-01-21T14:07:18.000Z</time>
      </trkpt>
      <trkpt lat="47.54826" lon="-3.10288">
        <time>2018-01-21T14:07:19.000Z</time>
      </trkpt>
      <trkpt lat="47.54835" lon="-3.1029">
        <time>2018-01-21T14:07:20.000Z</time>
      </trkpt>
      <trkpt lat="47.54845" lon="-3.10291">
        <time>2018-01-21T14:07:21.000Z</time>
      </trkpt>
      <trkpt lat="47.54854" lon="-3.10292">
        <time>2018-01-21T14:07:22.000Z</time>
      </trkpt>
      <trkpt lat="47.54863" lon="-3.10294">
        <time>2018-01-21T14:07:23.000Z</time>
      </trkpt>
      <trkpt lat="47.54873" lon="-3.10297">
        <time>2018-01-21T14:07:24.000Z</time>
      </trkpt>
      <trkpt lat="47.54882" lon="-3.10298">
        <time>2018-01-21T14:07:25.000Z</time>
      </trkpt>
      <trkpt lat="47.54892" lon="-3.103">
        <time>2018-01-21T14:07:26.000Z</time>
      </trkpt>
      <trkpt lat="47.54901" lon="-3.10302">
        <time>2018-01-21T14:07:27.000Z</time>
      </trkpt>
      <trkpt lat="47.54911" lon="-3.10305">
        <time>2018-01-21T14:07:28.000Z</time>
      </trkpt>
      <trkpt lat="47.5492" lon="-3.10307">
        <time>2018-01-21T14:07:29.000Z</time>
      </trkpt>
      <trkpt lat="47.54928" lon="-3.1031">
        <time>2018-01-21T14:07:30.000Z</time>
      </trkpt>
      <trkpt lat="47.54937" lon="-3.10312">
        <time>2018-01-21T14:07:31.000Z</time>
      </trkpt>
      <trkpt lat="47.54946" lon="-3.10315">
        <time>2018-01-21T14:07:32.000Z</time>
      </trkpt>
      <trkpt lat="47.54955" lon="-3.10317">
        <time>2018-01-21T14:07:33.000Z</time>
      </trkpt>
      <trkpt lat="47.54964" lon="-3.1032">
        <time>2018-01-21T14:07:34.000Z</time>
      </trkpt>
      <trkpt lat="47.54972" lon="-3.10323">
        <time>2018-01-21T14:07:35.000Z</time>
      </trkpt>
      <trkpt lat="47.5498" lon="-3.10326">
        <time>2018-01-21T14:07:36.000Z</time>
      </trkpt>
      <trkpt lat="47.54988" lon="-3.10329">
        <time>2018-01-21T14:07:37.000Z</time>
      </trkpt>
      <trkpt lat="47.54997" lon="-3.10331">
        <time>2018-01-21T14:07:38.000Z</time>
      </trkpt>
      <trkpt lat="47.55005" lon="-3.10332">
        <time>2018-01-21T14:07:39.000Z</time>
      </trkpt>
      <trkpt lat="47.55014" lon="-3.10334">
        <time>2018-01-21T14:07:40.000Z</time>
      </trkpt>
      <trkpt lat="47.55022" lon="-3.10335">
        <time>2018-01-21T14:07:41.000Z</time>
      </trkpt>
      <trkpt lat="47.55031" lon="-3.10336">
        <time>2018-01-21T14:07:42.000Z</time>
      </trkpt>
      <trkpt lat="47.55039" lon="-3.10338">
        <time>2018-01-21T14:07:43.000Z</time>
      </trkpt>
      <trkpt lat="47.55047" lon="-3.10339">
        <time>2018-01-21T14:07:44.000Z</time>
      </trkpt>
      <trkpt lat="47.55056" lon="-3.10342">
        <time>2018-01-21T14:07:45.000Z</time>
      </trkpt>
      <trkpt lat="47.55064" lon="-3.10344">
        <time>2018-01-21T14:07:46.000Z</time>
      </trkpt>
      <trkpt lat="47.55072" lon="-3.10346">
        <time>2018-01-21T14:07:47.000Z</time>
      </trkpt>
      <trkpt lat="47.55081" lon="-3.10347">
        <time>2018-01-21T14:07:48.000Z</time>
      </trkpt>
      <trkpt lat="47.5509" lon="-3.10349">
        <time>2018-01-21T14:07:49.000Z</time>
      </trkpt>
      <trkpt lat="47.55099" lon="-3.1035">
        <time>2018-01-21T14:07:50.000Z</time>
      </trkpt>
      <trkpt lat="47.55108" lon="-3.10352">
        <time>2018-01-21T14:07:51.000Z</time>
      </trkpt>
      <trkpt lat="47.55117" lon="-3.10354">
        <time>2018-01-21T14:07:52.000Z</time>
      </trkpt>
      <trkpt lat="47.55126" lon="-3.10356">
        <time>2018-01-21T14:07:53.000Z</time>
      </trkpt>
      <trkpt lat="47.55134" lon="-3.10358">
        <time>2018-01-21T14:07:54.000Z</time>
      </trkpt>
      <trkpt lat="47.55143" lon="-3.1036">
        <time>2018-01-21T14:07:55.000Z</time>
      </trkpt>
      <trkpt lat="47.55152" lon="-3.10361">
        <time>2018-01-21T14:07:56.000Z</time>
      </trkpt>
      <trkpt lat="47.5516" lon="-3.10363">
        <time>2018-01-21T14:07:57.000Z</time>
      </trkpt>
      <trkpt lat="47.55169" lon="-3.10363">
        <time>2018-01-21T14:07:58.000Z</time>
      </trkpt>
      <trkpt lat="47.55177" lon="-3.10363">
        <time>2018-01-21T14:07:59.000Z</time>
      </trkpt>
      <trkpt lat="47.55186" lon="-3.10364">
        <time>2018-01-21T14:08:00.000Z</time>
      </trkpt>
      <trkpt lat="47.55194" lon="-3.10364">
        <time>2018-01-21T14:08:01.000Z</time>
      </trkpt>
      <trkpt lat="47.55203" lon="-3.10365">
        <time>2018-01-21T14:08:02.000Z</time>
      </trkpt>
      <trkpt lat="47.55212" lon="-3.10366">
        <time>2018-01-21T14:08:03.000Z</time>
      </trkpt>
      <trkpt lat="47.55221" lon="-3.10367">
        <time>2018-01-21T14:08:04.000Z</time>
      </trkpt>
      <trkpt lat="47.5523" lon="-3.10368">
        <time>2018-01-21T14:08:05.000Z</time>
      </trkpt>
      <trkpt lat="47.55239" lon="-3.10368">
        <time>2018-01-21T14:08:06.000Z</time>
      </trkpt>
      <trkpt lat="47.55248" lon="-3.10369">
        <time>2018-01-21T14:08:07.000Z</time>
      </trkpt>
      <trkpt lat="47.55257" lon="-3.10371">
        <time>2018-01-21T14:08:08.000Z</time>
      </trkpt>
      <trkpt lat="47.55266" lon="-3.10372">
        <time>2018-01-21T14:08:09.000Z</time>
      </trkpt>
      <trkpt lat="47.55275" lon="-3.10373">
        <time>2018-01-21T14:08:10.000Z</time>
      </trkpt>
      <trkpt lat="47.55283" lon="-3.10375">
        <time>2018-01-21T14:08:11.000Z</time>
      </trkpt>
      <trkpt lat="47.55291" lon="-3.10378">
        <time>2018-01-21T14:08:12.000Z</time>
      </trkpt>
      <trkpt lat="47.553" lon="-3.10378">
        <time>2018-01-21T14:08:13.000Z</time>
      </trkpt>
      <trkpt lat="47.5531" lon="-3.10379">
        <time>2018-01-21T14:08:14.000Z</time>
      </trkpt>
      <trkpt lat="47.55318" lon="-3.10382">
        <time>2018-01-21T14:08:15.000Z</time>
      </trkpt>
      <trkpt lat="47.55327" lon="-3.10382">
        <time>2018-01-21T14:08:16.000Z</time>
      </trkpt>
      <trkpt lat="47.55336" lon="-3.10382">
        <time>2018-01-21T14:08:17.000Z</time>
      </trkpt>
      <trkpt lat="47.55344" lon="-3.10384">
        <time>2018-01-21T14:08:18.000Z</time>
      </trkpt>
      <trkpt lat="47.55353" lon="-3.10385">
        <time>2018-01-21T14:08:19.000Z</time>
      </trkpt>
      <trkpt lat="47.55361" lon="-3.10385">
        <time>2018-01-21T14:08:20.000Z</time>
      </trkpt>
      <trkpt lat="47.55371" lon="-3.10384">
        <time>2018-01-21T14:08:21.000Z</time>
      </trkpt>
      <trkpt lat="47.5538" lon="-3.10386">
        <time>2018-01-21T14:08:22.000Z</time>
      </trkpt>
      <trkpt lat="47.55389" lon="-3.10387">
        <time>2018-01-21T14:08:23.000Z</time>
      </trkpt>
      <trkpt lat="47.55397" lon="-3.10387">
        <time>2018-01-21T14:08:24.000Z</time>
      </trkpt>
      <trkpt lat="47.55406" lon="-3.10387">
        <time>2018-01-21T14:08:25.000Z</time>
      </trkpt>
      <trkpt lat="47.55415" lon="-3.10388">
        <time>2018-01-21T14:08:26.000Z</time>
      </trkpt>
      <trkpt lat="47.55425" lon="-3.10389">
        <time>2018-01-21T14:08:27.000Z</time>
      </trkpt>
      <trkpt lat="47.55434" lon="-3.1039">
        <time>2018-01-21T14:08:28.000Z</time>
      </trkpt>
      <trkpt lat="47.55443" lon="-3.10391">
        <time>2018-01-21T14:08:29.000Z</time>
      </trkpt>
      <trkpt lat="47.55452" lon="-3.1039">
        <time>2018-01-21T14:08:30.000Z</time>
      </trkpt>
      <trkpt lat="47.55462" lon="-3.10389">
        <time>2018-01-21T14:08:31.000Z</time>
      </trkpt>
      <trkpt lat="47.55471" lon="-3.10389">
        <time>2018-01-21T14:08:32.000Z</time>
      </trkpt>
      <trkpt lat="47.55481" lon="-3.1039">
        <time>2018-01-21T14:08:33.000Z</time>
      </trkpt>
      <trkpt lat="47.5549" lon="-3.1039">
        <time>2018-01-21T14:08:34.000Z</time>
      </trkpt>
      <trkpt lat="47.555" lon="-3.10391">
        <time>2018-01-21T14:08:35.000Z</time>
      </trkpt>
      <trkpt lat="47.5551" lon="-3.10394">
        <time>2018-01-21T14:08:36.000Z</time>
      </trkpt>
      <trkpt lat="47.55519" lon="-3.10396">
        <time>2018-01-21T14:08:37.000Z</time>
      </trkpt>
      <trkpt lat="47.55529" lon="-3.10398">
        <time>2018-01-21T14:08:38.000Z</time>
      </trkpt>
      <trkpt lat="47.55538" lon="-3.104">
        <time>2018-01-21T14:08:39.000Z</time>
      </trkpt>
      <trkpt lat="47.55546" lon="-3.10402">
        <time>2018-01-21T14:08:40.000Z</time>
      </trkpt>
      <trkpt lat="47.55556" lon="-3.10402">
        <time>2018-01-21T14:08:41.000Z</time>
      </trkpt>
      <trkpt lat="47.55565" lon="-3.10402">
        <time>2018-01-21T14:08:42.000Z</time>
      </trkpt>
      <trkpt lat="47.55574" lon="-3.10401">
        <time>2018-01-21T14:08:43.000Z</time>
      </trkpt>
      <trkpt lat="47.55583" lon="-3.104">
        <time>2018-01-21T14:08:44.000Z</time>
      </trkpt>
      <trkpt lat="47.55593" lon="-3.104">
        <time>2018-01-21T14:08:45.000Z</time>
      </trkpt>
      <trkpt lat="47.55603" lon="-3.104">
        <time>2018-01-21T14:08:46.000Z</time>
      </trkpt>
      <trkpt lat="47.55612" lon="-3.104">
        <time>2018-01-21T14:08:47.000Z</time>
      </trkpt>
      <trkpt lat="47.55622" lon="-3.104">
        <time>2018-01-21T14:08:48.000Z</time>
      </trkpt>
      <trkpt lat="47.55631" lon="-3.104">
        <time>2018-01-21T14:08:49.000Z</time>
      </trkpt>
      <trkpt lat="47.5564" lon="-3.10402">
        <time>2018-01-21T14:08:50.000Z</time>
      </trkpt>
      <trkpt lat="47.55649" lon="-3.10402">
        <time>2018-01-21T14:08:51.000Z</time>
      </trkpt>
      <trkpt lat="47.55658" lon="-3.10403">
        <time>2018-01-21T14:08:52.000Z</time>
      </trkpt>
      <trkpt lat="47.55667" lon="-3.10404">
        <time>2018-01-21T14:08:53.000Z</time>
      </trkpt>
      <trkpt lat="47.55676" lon="-3.10405">
        <time>2018-01-21T14:08:54.000Z</time>
      </trkpt>
      <trkpt lat="47.55685" lon="-3.10405">
        <time>2018-01-21T14:08:55.000Z</time>
      </trkpt>
      <trkpt lat="47.55694" lon="-3.10404">
        <time>2018-01-21T14:08:56.000Z</time>
      </trkpt>
      <trkpt lat="47.55703" lon="-3.10404">
        <time>2018-01-21T14:08:57.000Z</time>
      </trkpt>
      <trkpt lat="47.55712" lon="-3.10405">
        <time>2018-01-21T14:08:58.000Z</time>
      </trkpt>
      <trkpt lat="47.55721" lon="-3.10406">
        <time>2018-01-21T14:08:59.000Z</time>
      </trkpt>
      <trkpt lat="47.5573" lon="-3.10407">
        <time>2018-01-21T14:09:00.000Z</time>
      </trkpt>
      <trkpt lat="47.55739" lon="-3.10407">
        <time>2018-01-21T14:09:01.000Z</time>
      </trkpt>
      <trkpt lat="47.55749" lon="-3.10408">
        <time>2018-01-21T14:09:02.000Z</time>
      </trkpt>
      <trkpt lat="47.55757" lon="-3.10409">
        <time>2018-01-21T14:09:03.000Z</time>
      </trkpt>
      <trkpt lat="47.55766" lon="-3.1041">
        <time>2018-01-21T14:09:04.000Z</time>
      </trkpt>
      <trkpt lat="47.55775" lon="-3.1041">
        <time>2018-01-21T14:09:05.000Z</time>
      </trkpt>
      <trkpt lat="47.55784" lon="-3.10411">
        <time>2018-01-21T14:09:06.000Z</time>
      </trkpt>
      <trkpt lat="47.55793" lon="-3.10411">
        <time>2018-01-21T14:09:07.000Z</time>
      </trkpt>
      <trkpt lat="47.55802" lon="-3.10411">
        <time>2018-01-21T14:09:08.000Z</time>
      </trkpt>
      <trkpt lat="47.55811" lon="-3.10412">
        <time>2018-01-21T14:09:09.000Z</time>
      </trkpt>
      <trkpt lat="47.5582" lon="-3.10413">
        <time>2018-01-21T14:09:10.000Z</time>
      </trkpt>
      <trkpt lat="47.55829" lon="-3.10413">
        <time>2018-01-21T14:09:11.000Z</time>
      </trkpt>
      <trkpt lat="47.55838" lon="-3.10413">
        <time>2018-01-21T14:09:12.000Z</time>
      </trkpt>
      <trkpt lat="47.55846" lon="-3.10414">
        <time>2018-01-21T14:09:13.000Z</time>
      </trkpt>
      <trkpt lat="47.55855" lon="-3.10414">
        <time>2018-01-21T14:09:14.000Z</time>
      </trkpt>
      <trkpt lat="47.55864" lon="-3.10415">
        <time>2018-01-21T14:09:15.000Z</time>
      </trkpt>
      <trkpt lat="47.55873" lon="-3.10415">
        <time>2018-01-21T14:09:16.000Z</time>
      </trkpt>
      <trkpt lat="47.55881" lon="-3.10415">
        <time>2018-01-21T14:09:17.000Z</time>
      </trkpt>
      <trkpt lat="47.55889" lon="-3.10416">
        <time>2018-01-21T14:09:18.000Z</time>
      </trkpt>
      <trkpt lat="47.55898" lon="-3.10416">
        <time>2018-01-21T14:09:19.000Z</time>
      </trkpt>
      <trkpt lat="47.55907" lon="-3.10415">
        <time>2018-01-21T14:09:20.000Z</time>
      </trkpt>
      <trkpt lat="47.55917" lon="-3.10413">
        <time>2018-01-21T14:09:21.000Z</time>
      </trkpt>
      <trkpt lat="47.55926" lon="-3.10412">
        <time>2018-01-21T14:09:22.000Z</time>
      </trkpt>
      <trkpt lat="47.55936" lon="-3.10411">
        <time>2018-01-21T14:09:23.000Z</time>
      </trkpt>
      <trkpt lat="47.55946" lon="-3.10411">
        <time>2018-01-21T14:09:24.000Z</time>
      </trkpt>
      <trkpt lat="47.55956" lon="-3.10411">
        <time>2018-01-21T14:09:25.000Z</time>
      </trkpt>
      <trkpt lat="47.55966" lon="-3.10411">
        <time>2018-01-21T14:09:26.000Z</time>
      </trkpt>
      <trkpt lat="47.55976" lon="-3.1041">
        <time>2018-01-21T14:09:27.000Z</time>
      </trkpt>
      <trkpt lat="47.55986" lon="-3.10409">
        <time>2018-01-21T14:09:28.000Z</time>
      </trkpt>
      <trkpt lat="47.55995" lon="-3.10407">
        <time>2018-01-21T14:09:29.000Z</time>
      </trkpt>
      <trkpt lat="47.56004" lon="-3.10406">
        <time>2018-01-21T14:09:30.000Z</time>
      </trkpt>
      <trkpt lat="47.56013" lon="-3.10405">
        <time>2018-01-21T14:09:31.000Z</time>
      </trkpt>
      <trkpt lat="47.56022" lon="-3.10406">
        <time>2018-01-21T14:09:32.000Z</time>
      </trkpt>
      <trkpt lat="47.56031" lon="-3.10407">
        <time>2018-01-21T14:09:33.000Z</time>
      </trkpt>
      <trkpt lat="47.5604" lon="-3.10407">
        <time>2018-01-21T14:09:34.000Z</time>
      </trkpt>
      <trkpt lat="47.56048" lon="-3.10407">
        <time>2018-01-21T14:09:35.000Z</time>
      </trkpt>
      <trkpt lat="47.56057" lon="-3.10408">
        <time>2018-01-21T14:09:36.000Z</time>
      </trkpt>
      <trkpt lat="47.56066" lon="-3.10409">
        <time>2018-01-21T14:09:37.000Z</time>
      </trkpt>
      <trkpt lat="47.56075" lon="-3.10408">
        <time>2018-01-21T14:09:38.000Z</time>
      </trkpt>
      <trkpt lat="47.56084" lon="-3.10409">
        <time>2018-01-21T14:09:39.000Z</time>
      </trkpt>
      <trkpt lat="47.56093" lon="-3.10409">
        <time>2018-01-21T14:09:40.000Z</time>
      </trkpt>
      <trkpt lat="47.56102" lon="-3.1041">
        <time>2018-01-21T14:09:41.000Z</time>
      </trkpt>
      <trkpt lat="47.56112" lon="-3.10411">
        <time>2018-01-21T14:09:42.000Z</time>
      </trkpt>
      <trkpt lat="47.56121" lon="-3.10412">
        <time>2018-01-21T14:09:43.000Z</time>
      </trkpt>
      <trkpt lat="47.5613" lon="-3.10414">
        <time>2018-01-21T14:09:44.000Z</time>
      </trkpt>
      <trkpt lat="47.56139" lon="-3.10415">
        <time>2018-01-21T14:09:45.000Z</time>
      </trkpt>
      <trkpt lat="47.56148" lon="-3.10416">
        <time>2018-01-21T14:09:46.000Z</time>
      </trkpt>
      <trkpt lat="47.56157" lon="-3.10417">
        <time>2018-01-21T14:09:47.000Z</time>
      </trkpt>
      <trkpt lat="47.56165" lon="-3.10418">
        <time>2018-01-21T14:09:48.000Z</time>
      </trkpt>
      <trkpt lat="47.56173" lon="-3.10419">
        <time>2018-01-21T14:09:49.000Z</time>
      </trkpt>
      <trkpt lat="47.56181" lon="-3.1042">
        <time>2018-01-21T14:09:50.000Z</time>
      </trkpt>
      <trkpt lat="47.5619" lon="-3.10421">
        <time>2018-01-21T14:09:51.000Z</time>
      </trkpt>
      <trkpt lat="47.56198" lon="-3.10421">
        <time>2018-01-21T14:09:52.000Z</time>
      </trkpt>
      <trkpt lat="47.56206" lon="-3.10421">
        <time>2018-01-21T14:09:53.000Z</time>
      </trkpt>
      <trkpt lat="47.56215" lon="-3.10422">
        <time>2018-01-21T14:09:54.000Z</time>
      </trkpt>
      <trkpt lat="47.56223" lon="-3.10423">
        <time>2018-01-21T14:09:55.000Z</time>
      </trkpt>
      <trkpt lat="47.56231" lon="-3.10424">
        <time>2018-01-21T14:09:56.000Z</time>
      </trkpt>
      <trkpt lat="47.56239" lon="-3.10424">
        <time>2018-01-21T14:09:57.000Z</time>
      </trkpt>
      <trkpt lat="47.56248" lon="-3.10425">
        <time>2018-01-21T14:09:58.000Z</time>
      </trkpt>
      <trkpt lat="47.56256" lon="-3.10425">
        <time>2018-01-21T14:09:59.000Z</time>
      </trkpt>
      <trkpt lat="47.56265" lon="-3.10426">
        <time>2018-01-21T14:10:00.000Z</time>
      </trkpt>
      <trkpt lat="47.56273" lon="-3.10426">
        <time>2018-01-21T14:10:01.000Z</time>
      </trkpt>
      <trkpt lat="47.56281" lon="-3.10427">
        <time>2018-01-21T14:10:02.000Z</time>
      </trkpt>
      <trkpt lat="47.56289" lon="-3.10427">
        <time>2018-01-21T14:10:03.000Z</time>
      </trkpt>
      <trkpt lat="47.56297" lon="-3.10426">
        <time>2018-01-21T14:10:04.000Z</time>
      </trkpt>
      <trkpt lat="47.56305" lon="-3.10425">
        <time>2018-01-21T14:10:05.000Z</time>
      </trkpt>
      <trkpt lat="47.56314" lon="-3.10425">
        <time>2018-01-21T14:10:06.000Z</time>
      </trkpt>
      <trkpt lat="47.56322" lon="-3.10426">
        <time>2018-01-21T14:10:07.000Z</time>
      </trkpt>
      <trkpt lat="47.5633" lon="-3.10427">
        <time>2018-01-21T14:10:08.000Z</time>
      </trkpt>
      <trkpt lat="47.56338" lon="-3.10428">
        <time>2018-01-21T14:10:09.000Z</time>
      </trkpt>
      <trkpt lat="47.56346" lon="-3.10428">
        <time>2018-01-21T14:10:10.000Z</time>
      </trkpt>
      <trkpt lat="47.56354" lon="-3.10429">
        <time>2018-01-21T14:10:11.000Z</time>
      </trkpt>
      <trkpt lat="47.56363" lon="-3.10431">
        <time>2018-01-21T14:10:12.000Z</time>
      </trkpt>
      <trkpt lat="47.56371" lon="-3.10432">
        <time>2018-01-21T14:10:13.000Z</time>
      </trkpt>
      <trkpt lat="47.56379" lon="-3.10432">
        <time>2018-01-21T14:10:14.000Z</time>
      </trkpt>
      <trkpt lat="47.56388" lon="-3.10431">
        <time>2018-01-21T14:10:15.000Z</time>
      </trkpt>
      <trkpt lat="47.56396" lon="-3.1043">
        <time>2018-01-21T14:10:16.000Z</time>
      </trkpt>
      <trkpt lat="47.56405" lon="-3.1043">
        <time>2018-01-21T14:10:17.000Z</time>
      </trkpt>
      <trkpt lat="47.56413" lon="-3.10429">
        <time>2018-01-21T14:10:18.000Z</time>
      </trkpt>
      <trkpt lat="47.56421" lon="-3.10429">
        <time>2018-01-21T14:10:19.000Z</time>
      </trkpt>
      <trkpt lat="47.56429" lon="-3.10429">
        <time>2018-01-21T14:10:20.000Z</time>
      </trkpt>
      <trkpt lat="47.56437" lon="-3.10428">
        <time>2018-01-21T14:10:21.000Z</time>
      </trkpt>
      <trkpt lat="47.56446" lon="-3.10427">
        <time>2018-01-21T14:10:22.000Z</time>
      </trkpt>
      <trkpt lat="47.56455" lon="-3.10427">
        <time>2018-01-21T14:10:23.000Z</time>
      </trkpt>
      <trkpt lat="47.56463" lon="-3.10426">
        <time>2018-01-21T14:10:24.000Z</time>
      </trkpt>
      <trkpt lat="47.56472" lon="-3.10426">
        <time>2018-01-21T14:10:25.000Z</time>
      </trkpt>
      <trkpt lat="47.5648" lon="-3.10425">
        <time>2018-01-21T14:10:26.000Z</time>
      </trkpt>
      <trkpt lat="47.56489" lon="-3.10424">
        <time>2018-01-21T14:10:27.000Z</time>
      </trkpt>
      <trkpt lat="47.56497" lon="-3.10424">
        <time>2018-01-21T14:10:28.000Z</time>
      </trkpt>
      <trkpt lat="47.56506" lon="-3.10422">
        <time>2018-01-21T14:10:29.000Z</time>
      </trkpt>
      <trkpt lat="47.56514" lon="-3.10421">
        <time>2018-01-21T14:10:30.000Z</time>
      </trkpt>
      <trkpt lat="47.56523" lon="-3.10419">
        <time>2018-01-21T14:10:31.000Z</time>
      </trkpt>
      <trkpt lat="47.56531" lon="-3.10418">
        <time>2018-01-21T14:10:32.000Z</time>
      </trkpt>
      <trkpt lat="47.56539" lon="-3.10417">
        <time>2018-01-21T14:10:33.000Z</time>
      </trkpt>
      <trkpt lat="47.56547" lon="-3.10416">
        <time>2018-01-21T14:10:34.000Z</time>
      </trkpt>
      <trkpt lat="47.56555" lon="-3.10414">
        <time>2018-01-21T14:10:35.000Z</time>
      </trkpt>
      <trkpt lat="47.56563" lon="-3.10412">
        <time>2018-01-21T14:10:36.000Z</time>
      </trkpt>
      <trkpt lat="47.56571" lon="-3.10412">
        <time>2018-01-21T14:10:37.000Z</time>
      </trkpt>
      <trkpt lat="47.56578" lon="-3.10412">
        <time>2018-01-21T14:10:38.000Z</time>
      </trkpt>
      <trkpt lat="47.56586" lon="-3.10411">
        <time>2018-01-21T14:10:39.000Z</time>
      </trkpt>
      <trkpt lat="47.56593" lon="-3.10412">
        <time>2018-01-21T14:10:40.000Z</time>
      </trkpt>
      <trkpt lat="47.566" lon="-3.10413">
        <time>2018-01-21T14:10:41.000Z</time>
      </trkpt>
      <trkpt lat="47.56608" lon="-3.10415">
        <time>2018-01-21T14:10:42.000Z</time>
      </trkpt>
      <trkpt lat="47.56616" lon="-3.10417">
        <time>2018-01-21T14:10:43.000Z</time>
      </trkpt>
      <trkpt lat="47.56624" lon="-3.10417">
        <time>2018-01-21T14:10:44.000Z</time>
      </trkpt>
      <trkpt lat="47.56634" lon="-3.10417">
        <time>2018-01-21T14:10:45.000Z</time>
      </trkpt>
      <trkpt lat="47.56643" lon="-3.10415">
        <time>2018-01-21T14:10:46.000Z</time>
      </trkpt>
      <trkpt lat="47.56652" lon="-3.10412">
        <time>2018-01-21T14:10:47.000Z</time>
      </trkpt>
      <trkpt lat="47.56662" lon="-3.10409">
        <time>2018-01-21T14:10:48.000Z</time>
      </trkpt>
      <trkpt lat="47.5667" lon="-3.10407">
        <time>2018-01-21T14:10:49.000Z</time>
      </trkpt>
      <trkpt lat="47.56679" lon="-3.10405">
        <time>2018-01-21T14:10:50.000Z</time>
      </trkpt>
      <trkpt lat="47.56688" lon="-3.10404">
        <time>2018-01-21T14:10:51.000Z</time>
      </trkpt>
      <trkpt lat="47.56696" lon="-3.10405">
        <time>2018-01-21T14:10:52.000Z</time>
      </trkpt>
      <trkpt lat="47.56703" lon="-3.10404">
        <time>2018-01-21T14:10:53.000Z</time>
      </trkpt>
      <trkpt lat="47.5671" lon="-3.10404">
        <time>2018-01-21T14:10:54.000Z</time>
      </trkpt>
      <trkpt lat="47.56717" lon="-3.10403">
        <time>2018-01-21T14:10:55.000Z</time>
      </trkpt>
      <trkpt lat="47.56724" lon="-3.10401">
        <time>2018-01-21T14:10:56.000Z</time>
      </trkpt>
      <trkpt lat="47.56731" lon="-3.104">
        <time>2018-01-21T14:10:57.000Z</time>
      </trkpt>
      <trkpt lat="47.56738" lon="-3.10395">
        <time>2018-01-21T14:10:58.000Z</time>
      </trkpt>
      <trkpt lat="47.56746" lon="-3.10393">
        <time>2018-01-21T14:10:59.000Z</time>
      </trkpt>
      <trkpt lat="47.56754" lon="-3.10391">
        <time>2018-01-21T14:11:00.000Z</time>
      </trkpt>
      <trkpt lat="47.56762" lon="-3.10389">
        <time>2018-01-21T14:11:01.000Z</time>
      </trkpt>
      <trkpt lat="47.5677" lon="-3.10387">
        <time>2018-01-21T14:11:02.000Z</time>
      </trkpt>
      <trkpt lat="47.56778" lon="-3.10385">
        <time>2018-01-21T14:11:03.000Z</time>
      </trkpt>
      <trkpt lat="47.56786" lon="-3.10384">
        <time>2018-01-21T14:11:04.000Z</time>
      </trkpt>
      <trkpt lat="47.56793" lon="-3.10383">
        <time>2018-01-21T14:11:05.000Z</time>
      </trkpt>
      <trkpt lat="47.568" lon="-3.10382">
        <time>2018-01-21T14:11:06.000Z</time>
      </trkpt>
      <trkpt lat="47.56807" lon="-3.10378">
        <time>2018-01-21T14:11:07.000Z</time>
      </trkpt>
      <trkpt lat="47.56814" lon="-3.10375">
        <time>2018-01-21T14:11:08.000Z</time>
      </trkpt>
      <trkpt lat="47.56821" lon="-3.10374">
        <time>2018-01-21T14:11:09.000Z</time>
      </trkpt>
      <trkpt lat="47.56827" lon="-3.10372">
        <time>2018-01-21T14:11:10.000Z</time>
      </trkpt>
      <trkpt lat="47.56833" lon="-3.10371">
        <time>2018-01-21T14:11:11.000Z</time>
      </trkpt>
      <trkpt lat="47.56839" lon="-3.1037">
        <time>2018-01-21T14:11:12.000Z</time>
      </trkpt>
      <trkpt lat="47.56845" lon="-3.10369">
        <time>2018-01-21T14:11:13.000Z</time>
      </trkpt>
      <trkpt lat="47.56851" lon="-3.10371">
        <time>2018-01-21T14:11:14.000Z</time>
      </trkpt>
      <trkpt lat="47.56857" lon="-3.10371">
        <time>2018-01-21T14:11:15.000Z</time>
      </trkpt>
      <trkpt lat="47.56864" lon="-3.10372">
        <time>2018-01-21T14:11:16.000Z</time>
      </trkpt>
      <trkpt lat="47.56871" lon="-3.10372">
        <time>2018-01-21T14:11:17.000Z</time>
      </trkpt>
      <trkpt lat="47.56877" lon="-3.10371">
        <time>2018-01-21T14:11:18.000Z</time>
      </trkpt>
      <trkpt lat="47.56883" lon="-3.10369">
        <time>2018-01-21T14:11:19.000Z</time>
      </trkpt>
      <trkpt lat="47.56889" lon="-3.10365">
        <time>2018-01-21T14:11:20.000Z</time>
      </trkpt>
      <trkpt lat="47.56892" lon="-3.10358">
        <time>2018-01-21T14:11:21.000Z</time>
      </trkpt>
      <trkpt lat="47.56893" lon="-3.10352">
        <time>2018-01-21T14:11:22.000Z</time>
      </trkpt>
      <trkpt lat="47.56892" lon="-3.10347">
        <time>2018-01-21T14:11:23.000Z</time>
      </trkpt>
      <trkpt lat="47.5689" lon="-3.10345">
        <time>2018-01-21T14:11:24.000Z</time>
      </trkpt>
      <trkpt lat="47.56889" lon="-3.10345">
        <time>2018-01-21T14:11:25.000Z</time>
      </trkpt>
      <trkpt lat="47.56887" lon="-3.10345">
        <time>2018-01-21T14:11:26.000Z</time>
      </trkpt>
      <trkpt lat="47.56884" lon="-3.10345">
        <time>2018-01-21T14:11:27.000Z</time>
      </trkpt>
      <trkpt lat="47.5688" lon="-3.10346">
        <time>2018-01-21T14:11:28.000Z</time>
      </trkpt>
      <trkpt lat="47.56878" lon="-3.10347">
        <time>2018-01-21T14:11:29.000Z</time>
      </trkpt>
      <trkpt lat="47.56875" lon="-3.10346">
        <time>2018-01-21T14:11:30.000Z</time>
      </trkpt>
      <trkpt lat="47.56872" lon="-3.10347">
        <time>2018-01-21T14:11:31.000Z</time>
      </trkpt>
      <trkpt lat="47.5687" lon="-3.10347">
        <time>2018-01-21T14:11:32.000Z</time>
      </trkpt>
      <trkpt lat="47.56867" lon="-3.10347">
        <time>2018-01-21T14:11:33.000Z</time>
      </trkpt>
      <trkpt lat="47.56864" lon="-3.10348">
        <time>2018-01-21T14:11:34.000Z</time>
      </trkpt>
      <trkpt lat="47.5686" lon="-3.10349">
        <time>2018-01-21T14:11:35.000Z</time>
      </trkpt>
      <trkpt lat="47.56856" lon="-3.1035">
        <time>2018-01-21T14:11:36.000Z</time>
      </trkpt>
      <trkpt lat="47.56852" lon="-3.10351">
        <time>2018-01-21T14:11:37.000Z</time>
      </trkpt>
      <trkpt lat="47.56848" lon="-3.10351">
        <time>2018-01-21T14:11:38.000Z</time>
      </trkpt>
      <trkpt lat="47.56843" lon="-3.10351">
        <time>2018-01-21T14:11:39.000Z</time>
      </trkpt>
      <trkpt lat="47.56837" lon="-3.10349">
        <time>2018-01-21T14:11:40.000Z</time>
      </trkpt>
      <trkpt lat="47.56832" lon="-3.10348">
        <time>2018-01-21T14:11:41.000Z</time>
      </trkpt>
      <trkpt lat="47.56826" lon="-3.10348">
        <time>2018-01-21T14:11:42.000Z</time>
      </trkpt>
      <trkpt lat="47.56818" lon="-3.10346">
        <time>2018-01-21T14:11:43.000Z</time>
      </trkpt>
      <trkpt lat="47.56812" lon="-3.10346">
        <time>2018-01-21T14:11:44.000Z</time>
      </trkpt>
      <trkpt lat="47.56805" lon="-3.10346">
        <time>2018-01-21T14:11:45.000Z</time>
      </trkpt>
      <trkpt lat="47.56798" lon="-3.10345">
        <time>2018-01-21T14:11:46.000Z</time>
      </trkpt>
      <trkpt lat="47.5679" lon="-3.10343">
        <time>2018-01-21T14:11:47.000Z</time>
      </trkpt>
      <trkpt lat="47.56782" lon="-3.10342">
        <time>2018-01-21T14:11:48.000Z</time>
      </trkpt>
      <trkpt lat="47.56773" lon="-3.10342">
        <time>2018-01-21T14:11:49.000Z</time>
      </trkpt>
      <trkpt lat="47.56766" lon="-3.10342">
        <time>2018-01-21T14:11:50.000Z</time>
      </trkpt>
      <trkpt lat="47.56758" lon="-3.10342">
        <time>2018-01-21T14:11:51.000Z</time>
      </trkpt>
      <trkpt lat="47.5675" lon="-3.10341">
        <time>2018-01-21T14:11:52.000Z</time>
      </trkpt>
      <trkpt lat="47.56743" lon="-3.10341">
        <time>2018-01-21T14:11:53.000Z</time>
      </trkpt>
      <trkpt lat="47.56735" lon="-3.10339">
        <time>2018-01-21T14:11:54.000Z</time>
      </trkpt>
      <trkpt lat="47.56727" lon="-3.10339">
        <time>2018-01-21T14:11:55.000Z</time>
      </trkpt>
      <trkpt lat="47.56719" lon="-3.10338">
        <time>2018-01-21T14:11:56.000Z</time>
      </trkpt>
      <trkpt lat="47.56711" lon="-3.10337">
        <time>2018-01-21T14:11:57.000Z</time>
      </trkpt>
      <trkpt lat="47.56703" lon="-3.10338">
        <time>2018-01-21T14:11:58.000Z</time>
      </trkpt>
      <trkpt lat="47.56696" lon="-3.10337">
        <time>2018-01-21T14:11:59.000Z</time>
      </trkpt>
      <trkpt lat="47.56688" lon="-3.10337">
        <time>2018-01-21T14:12:00.000Z</time>
      </trkpt>
      <trkpt lat="47.5668" lon="-3.10336">
        <time>2018-01-21T14:12:01.000Z</time>
      </trkpt>
      <trkpt lat="47.56673" lon="-3.10334">
        <time>2018-01-21T14:12:02.000Z</time>
      </trkpt>
      <trkpt lat="47.56665" lon="-3.10333">
        <time>2018-01-21T14:12:03.000Z</time>
      </trkpt>
      <trkpt lat="47.56658" lon="-3.10333">
        <time>2018-01-21T14:12:04.000Z</time>
      </trkpt>
      <trkpt lat="47.5665" lon="-3.10333">
        <time>2018-01-21T14:12:05.000Z</time>
      </trkpt>
      <trkpt lat="47.56642" lon="-3.10332">
        <time>2018-01-21T14:12:06.000Z</time>
      </trkpt>
      <trkpt lat="47.56634" lon="-3.10331">
        <time>2018-01-21T14:12:07.000Z</time>
      </trkpt>
      <trkpt lat="47.56626" lon="-3.10329">
        <time>2018-01-21T14:12:08.000Z</time>
      </trkpt>
      <trkpt lat="47.56618" lon="-3.10328">
        <time>2018-01-21T14:12:09.000Z</time>
      </trkpt>
      <trkpt lat="47.56609" lon="-3.10328">
        <time>2018-01-21T14:12:10.000Z</time>
      </trkpt>
      <trkpt lat="47.566" lon="-3.10329">
        <time>2018-01-21T14:12:11.000Z</time>
      </trkpt>
      <trkpt lat="47.56593" lon="-3.10329">
        <time>2018-01-21T14:12:12.000Z</time>
      </trkpt>
      <trkpt lat="47.56587" lon="-3.1033">
        <time>2018-01-21T14:12:13.000Z</time>
      </trkpt>
      <trkpt lat="47.5658" lon="-3.10331">
        <time>2018-01-21T14:12:14.000Z</time>
      </trkpt>
      <trkpt lat="47.56573" lon="-3.10332">
        <time>2018-01-21T14:12:15.000Z</time>
      </trkpt>
      <trkpt lat="47.56567" lon="-3.10332">
        <time>2018-01-21T14:12:16.000Z</time>
      </trkpt>
      <trkpt lat="47.56561" lon="-3.10332">
        <time>2018-01-21T14:12:17.000Z</time>
      </trkpt>
      <trkpt lat="47.56552" lon="-3.10331">
        <time>2018-01-21T14:12:18.000Z</time>
      </trkpt>
      <trkpt lat="47.56544" lon="-3.10331">
        <time>2018-01-21T14:12:19.000Z</time>
      </trkpt>
      <trkpt lat="47.56536" lon="-3.10331">
        <time>2018-01-21T14:12:20.000Z</time>
      </trkpt>
      <trkpt lat="47.56529" lon="-3.10334">
        <time>2018-01-21T14:12:21.000Z</time>
      </trkpt>
      <trkpt lat="47.56521" lon="-3.10332">
        <time>2018-01-21T14:12:22.000Z</time>
      </trkpt>
      <trkpt lat="47.56515" lon="-3.1033">
        <time>2018-01-21T14:12:23.000Z</time>
      </trkpt>
      <trkpt lat="47.56507" lon="-3.1033">
        <time>2018-01-21T14:12:24.000Z</time>
      </trkpt>
      <trkpt lat="47.56498" lon="-3.10328">
        <time>2018-01-21T14:12:25.000Z</time>
      </trkpt>
      <trkpt lat="47.5649" lon="-3.10329">
        <time>2018-01-21T14:12:26.000Z</time>
      </trkpt>
      <trkpt lat="47.56482" lon="-3.1033">
        <time>2018-01-21T14:12:27.000Z</time>
      </trkpt>
      <trkpt lat="47.56473" lon="-3.10328">
        <time>2018-01-21T14:12:28.000Z</time>
      </trkpt>
      <trkpt lat="47.56465" lon="-3.10328">
        <time>2018-01-21T14:12:29.000Z</time>
      </trkpt>
      <trkpt lat="47.56456" lon="-3.10329">
        <time>2018-01-21T14:12:30.000Z</time>
      </trkpt>
      <trkpt lat="47.56448" lon="-3.10329">
        <time>2018-01-21T14:12:31.000Z</time>
      </trkpt>
      <trkpt lat="47.5644" lon="-3.10329">
        <time>2018-01-21T14:12:32.000Z</time>
      </trkpt>
      <trkpt lat="47.56432" lon="-3.10328">
        <time>2018-01-21T14:12:33.000Z</time>
      </trkpt>
      <trkpt lat="47.56424" lon="-3.10326">
        <time>2018-01-21T14:12:34.000Z</time>
      </trkpt>
      <trkpt lat="47.56416" lon="-3.10325">
        <time>2018-01-21T14:12:35.000Z</time>
      </trkpt>
      <trkpt lat="47.56407" lon="-3.10323">
        <time>2018-01-21T14:12:36.000Z</time>
      </trkpt>
      <trkpt lat="47.56399" lon="-3.10322">
        <time>2018-01-21T14:12:37.000Z</time>
      </trkpt>
      <trkpt lat="47.5639" lon="-3.10322">
        <time>2018-01-21T14:12:38.000Z</time>
      </trkpt>
      <trkpt lat="47.56381" lon="-3.10321">
        <time>2018-01-21T14:12:39.000Z</time>
      </trkpt>
      <trkpt lat="47.56372" lon="-3.10321">
        <time>2018-01-21T14:12:40.000Z</time>
      </trkpt>
      <trkpt lat="47.56363" lon="-3.10321">
        <time>2018-01-21T14:12:41.000Z</time>
      </trkpt>
      <trkpt lat="47.56355" lon="-3.10322">
        <time>2018-01-21T14:12:42.000Z</time>
      </trkpt>
      <trkpt lat="47.56348" lon="-3.10322">
        <time>2018-01-21T14:12:43.000Z</time>
      </trkpt>
      <trkpt lat="47.5634" lon="-3.10322">
        <time>2018-01-21T14:12:44.000Z</time>
      </trkpt>
      <trkpt lat="47.56332" lon="-3.1032">
        <time>2018-01-21T14:12:45.000Z</time>
      </trkpt>
      <trkpt lat="47.56324" lon="-3.10319">
        <time>2018-01-21T14:12:46.000Z</time>
      </trkpt>
      <trkpt lat="47.56315" lon="-3.10319">
        <time>2018-01-21T14:12:47.000Z</time>
      </trkpt>
      <trkpt lat="47.56307" lon="-3.10319">
        <time>2018-01-21T14:12:48.000Z</time>
      </trkpt>
      <trkpt lat="47.56299" lon="-3.10319">
        <time>2018-01-21T14:12:49.000Z</time>
      </trkpt>
      <trkpt lat="47.56291" lon="-3.10318">
        <time>2018-01-21T14:12:50.000Z</time>
      </trkpt>
      <trkpt lat="47.56283" lon="-3.10317">
        <time>2018-01-21T14:12:51.000Z</time>
      </trkpt>
      <trkpt lat="47.56275" lon="-3.10315">
        <time>2018-01-21T14:12:52.000Z</time>
      </trkpt>
      <trkpt lat="47.56266" lon="-3.10313">
        <time>2018-01-21T14:12:53.000Z</time>
      </trkpt>
      <trkpt lat="47.56258" lon="-3.10311">
        <time>2018-01-21T14:12:54.000Z</time>
      </trkpt>
      <trkpt lat="47.5625" lon="-3.10308">
        <time>2018-01-21T14:12:55.000Z</time>
      </trkpt>
      <trkpt lat="47.56241" lon="-3.10308">
        <time>2018-01-21T14:12:56.000Z</time>
      </trkpt>
      <trkpt lat="47.56232" lon="-3.10307">
        <time>2018-01-21T14:12:57.000Z</time>
      </trkpt>
      <trkpt lat="47.56224" lon="-3.10306">
        <time>2018-01-21T14:12:58.000Z</time>
      </trkpt>
      <trkpt lat="47.56217" lon="-3.10304">
        <time>2018-01-21T14:12:59.000Z</time>
      </trkpt>
      <trkpt lat="47.5621" lon="-3.10303">
        <time>2018-01-21T14:13:00.000Z</time>
      </trkpt>
      <trkpt lat="47.56202" lon="-3.10301">
        <time>2018-01-21T14:13:01.000Z</time>
      </trkpt>
      <trkpt lat="47.56193" lon="-3.103">
        <time>2018-01-21T14:13:02.000Z</time>
      </trkpt>
      <trkpt lat="47.56185" lon="-3.103">
        <time>2018-01-21T14:13:03.000Z</time>
      </trkpt>
      <trkpt lat="47.56176" lon="-3.10299">
        <time>2018-01-21T14:13:04.000Z</time>
      </trkpt>
      <trkpt lat="47.56168" lon="-3.10298">
        <time>2018-01-21T14:13:05.000Z</time>
      </trkpt>
      <trkpt lat="47.56159" lon="-3.10297">
        <time>2018-01-21T14:13:06.000Z</time>
      </trkpt>
      <trkpt lat="47.5615" lon="-3.10296">
        <time>2018-01-21T14:13:07.000Z</time>
      </trkpt>
      <trkpt lat="47.56142" lon="-3.10295">
        <time>2018-01-21T14:13:08.000Z</time>
      </trkpt>
      <trkpt lat="47.56133" lon="-3.10295">
        <time>2018-01-21T14:13:09.000Z</time>
      </trkpt>
      <trkpt lat="47.56124" lon="-3.10293">
        <time>2018-01-21T14:13:10.000Z</time>
      </trkpt>
      <trkpt lat="47.56116" lon="-3.10293">
        <time>2018-01-21T14:13:11.000Z</time>
      </trkpt>
      <trkpt lat="47.56107" lon="-3.10292">
        <time>2018-01-21T14:13:12.000Z</time>
      </trkpt>
      <trkpt lat="47.56098" lon="-3.10292">
        <time>2018-01-21T14:13:13.000Z</time>
      </trkpt>
      <trkpt lat="47.5609" lon="-3.10291">
        <time>2018-01-21T14:13:14.000Z</time>
      </trkpt>
      <trkpt lat="47.56082" lon="-3.10292">
        <time>2018-01-21T14:13:15.000Z</time>
      </trkpt>
      <trkpt lat="47.56073" lon="-3.10292">
        <time>2018-01-21T14:13:16.000Z</time>
      </trkpt>
      <trkpt lat="47.56064" lon="-3.10293">
        <time>2018-01-21T14:13:17.000Z</time>
      </trkpt>
      <trkpt lat="47.56056" lon="-3.10293">
        <time>2018-01-21T14:13:18.000Z</time>
      </trkpt>
      <trkpt lat="47.56048" lon="-3.10293">
        <time>2018-01-21T14:13:19.000Z</time>
      </trkpt>
      <trkpt lat="47.56039" lon="-3.10293">
        <time>2018-01-21T14:13:20.000Z</time>
      </trkpt>
      <trkpt lat="47.56032" lon="-3.10293">
        <time>2018-01-21T14:13:21.000Z</time>
      </trkpt>
      <trkpt lat="47.56024" lon="-3.10292">
        <time>2018-01-21T14:13:22.000Z</time>
      </trkpt>
      <trkpt lat="47.56015" lon="-3.10291">
        <time>2018-01-21T14:13:23.000Z</time>
      </trkpt>
      <trkpt lat="47.56007" lon="-3.1029">
        <time>2018-01-21T14:13:24.000Z</time>
      </trkpt>
      <trkpt lat="47.55998" lon="-3.10289">
        <time>2018-01-21T14:13:25.000Z</time>
      </trkpt>
      <trkpt lat="47.5599" lon="-3.10289">
        <time>2018-01-21T14:13:26.000Z</time>
      </trkpt>
      <trkpt lat="47.55981" lon="-3.10287">
        <time>2018-01-21T14:13:27.000Z</time>
      </trkpt>
      <trkpt lat="47.55972" lon="-3.10285">
        <time>2018-01-21T14:13:28.000Z</time>
      </trkpt>
      <trkpt lat="47.55963" lon="-3.10284">
        <time>2018-01-21T14:13:29.000Z</time>
      </trkpt>
      <trkpt lat="47.55954" lon="-3.10282">
        <time>2018-01-21T14:13:30.000Z</time>
      </trkpt>
      <trkpt lat="47.55945" lon="-3.10281">
        <time>2018-01-21T14:13:31.000Z</time>
      </trkpt>
      <trkpt lat="47.55936" lon="-3.10279">
        <time>2018-01-21T14:13:32.000Z</time>
      </trkpt>
      <trkpt lat="47.55927" lon="-3.10278">
        <time>2018-01-21T14:13:33.000Z</time>
      </trkpt>
      <trkpt lat="47.55919" lon="-3.10278">
        <time>2018-01-21T14:13:34.000Z</time>
      </trkpt>
      <trkpt lat="47.55911" lon="-3.10277">
        <time>2018-01-21T14:13:35.000Z</time>
      </trkpt>
      <trkpt lat="47.55903" lon="-3.10277">
        <time>2018-01-21T14:13:36.000Z</time>
      </trkpt>
      <trkpt lat="47.55894" lon="-3.10275">
        <time>2018-01-21T14:13:37.000Z</time>
      </trkpt>
      <trkpt lat="47.55886" lon="-3.10274">
        <time>2018-01-21T14:13:38.000Z</time>
      </trkpt>
      <trkpt lat="47.55877" lon="-3.10274">
        <time>2018-01-21T14:13:39.000Z</time>
      </trkpt>
      <trkpt lat="47.55869" lon="-3.10274">
        <time>2018-01-21T14:13:40.000Z</time>
      </trkpt>
      <trkpt lat="47.55862" lon="-3.10273">
        <time>2018-01-21T14:13:41.000Z</time>
      </trkpt>
      <trkpt lat="47.55855" lon="-3.10274">
        <time>2018-01-21T14:13:42.000Z</time>
      </trkpt>
      <trkpt lat="47.55847" lon="-3.10273">
        <time>2018-01-21T14:13:43.000Z</time>
      </trkpt>
      <trkpt lat="47.55838" lon="-3.10273">
        <time>2018-01-21T14:13:44.000Z</time>
      </trkpt>
      <trkpt lat="47.55831" lon="-3.10275">
        <time>2018-01-21T14:13:45.000Z</time>
      </trkpt>
      <trkpt lat="47.55823" lon="-3.10275">
        <time>2018-01-21T14:13:46.000Z</time>
      </trkpt>
      <trkpt lat="47.55815" lon="-3.10276">
        <time>2018-01-21T14:13:47.000Z</time>
      </trkpt>
      <trkpt lat="47.55807" lon="-3.10274">
        <time>2018-01-21T14:13:48.000Z</time>
      </trkpt>
      <trkpt lat="47.558" lon="-3.10275">
        <time>2018-01-21T14:13:49.000Z</time>
      </trkpt>
      <trkpt lat="47.55793" lon="-3.10277">
        <time>2018-01-21T14:13:50.000Z</time>
      </trkpt>
      <trkpt lat="47.55786" lon="-3.10279">
        <time>2018-01-21T14:13:51.000Z</time>
      </trkpt>
      <trkpt lat="47.55777" lon="-3.10281">
        <time>2018-01-21T14:13:52.000Z</time>
      </trkpt>
      <trkpt lat="47.5577" lon="-3.10282">
        <time>2018-01-21T14:13:53.000Z</time>
      </trkpt>
      <trkpt lat="47.55762" lon="-3.10284">
        <time>2018-01-21T14:13:54.000Z</time>
      </trkpt>
      <trkpt lat="47.55755" lon="-3.10284">
        <time>2018-01-21T14:13:55.000Z</time>
      </trkpt>
      <trkpt lat="47.55747" lon="-3.10284">
        <time>2018-01-21T14:13:56.000Z</time>
      </trkpt>
      <trkpt lat="47.55739" lon="-3.10285">
        <time>2018-01-21T14:13:57.000Z</time>
      </trkpt>
      <trkpt lat="47.55731" lon="-3.10285">
        <time>2018-01-21T14:13:58.000Z</time>
      </trkpt>
      <trkpt lat="47.55722" lon="-3.10286">
        <time>2018-01-21T14:13:59.000Z</time>
      </trkpt>
      <trkpt lat="47.55714" lon="-3.10287">
        <time>2018-01-21T14:14:00.000Z</time>
      </trkpt>
      <trkpt lat="47.55706" lon="-3.10289">
        <time>2018-01-21T14:14:01.000Z</time>
      </trkpt>
      <trkpt lat="47.55699" lon="-3.1029">
        <time>2018-01-21T14:14:02.000Z</time>
      </trkpt>
      <trkpt lat="47.55692" lon="-3.10291">
        <time>2018-01-21T14:14:03.000Z</time>
      </trkpt>
      <trkpt lat="47.55684" lon="-3.10293">
        <time>2018-01-21T14:14:04.000Z</time>
      </trkpt>
      <trkpt lat="47.55677" lon="-3.10295">
        <time>2018-01-21T14:14:05.000Z</time>
      </trkpt>
      <trkpt lat="47.55669" lon="-3.10296">
        <time>2018-01-21T14:14:06.000Z</time>
      </trkpt>
      <trkpt lat="47.55661" lon="-3.10298">
        <time>2018-01-21T14:14:07.000Z</time>
      </trkpt>
      <trkpt lat="47.55654" lon="-3.103">
        <time>2018-01-21T14:14:08.000Z</time>
      </trkpt>
      <trkpt lat="47.55647" lon="-3.10302">
        <time>2018-01-21T14:14:09.000Z</time>
      </trkpt>
      <trkpt lat="47.55639" lon="-3.10303">
        <time>2018-01-21T14:14:10.000Z</time>
      </trkpt>
      <trkpt lat="47.55632" lon="-3.10305">
        <time>2018-01-21T14:14:11.000Z</time>
      </trkpt>
      <trkpt lat="47.55625" lon="-3.10307">
        <time>2018-01-21T14:14:12.000Z</time>
      </trkpt>
      <trkpt lat="47.55618" lon="-3.10309">
        <time>2018-01-21T14:14:13.000Z</time>
      </trkpt>
      <trkpt lat="47.5561" lon="-3.10312">
        <time>2018-01-21T14:14:14.000Z</time>
      </trkpt>
      <trkpt lat="47.55603" lon="-3.10314">
        <time>2018-01-21T14:14:15.000Z</time>
      </trkpt>
      <trkpt lat="47.55596" lon="-3.10315">
        <time>2018-01-21T14:14:16.000Z</time>
      </trkpt>
      <trkpt lat="47.55589" lon="-3.10316">
        <time>2018-01-21T14:14:17.000Z</time>
      </trkpt>
      <trkpt lat="47.55582" lon="-3.10318">
        <time>2018-01-21T14:14:18.000Z</time>
      </trkpt>
      <trkpt lat="47.55575" lon="-3.10318">
        <time>2018-01-21T14:14:19.000Z</time>
      </trkpt>
      <trkpt lat="47.55567" lon="-3.10319">
        <time>2018-01-21T14:14:20.000Z</time>
      </trkpt>
      <trkpt lat="47.5556" lon="-3.10319">
        <time>2018-01-21T14:14:21.000Z</time>
      </trkpt>
      <trkpt lat="47.55552" lon="-3.10319">
        <time>2018-01-21T14:14:22.000Z</time>
      </trkpt>
      <trkpt lat="47.55545" lon="-3.1032">
        <time>2018-01-21T14:14:23.000Z</time>
      </trkpt>
      <trkpt lat="47.55538" lon="-3.10321">
        <time>2018-01-21T14:14:24.000Z</time>
      </trkpt>
      <trkpt lat="47.5553" lon="-3.10321">
        <time>2018-01-21T14:14:25.000Z</time>
      </trkpt>
      <trkpt lat="47.55522" lon="-3.10321">
        <time>2018-01-21T14:14:26.000Z</time>
      </trkpt>
      <trkpt lat="47.55515" lon="-3.10322">
        <time>2018-01-21T14:14:27.000Z</time>
      </trkpt>
      <trkpt lat="47.55507" lon="-3.10322">
        <time>2018-01-21T14:14:28.000Z</time>
      </trkpt>
      <trkpt lat="47.55499" lon="-3.10324">
        <time>2018-01-21T14:14:29.000Z</time>
      </trkpt>
      <trkpt lat="47.5549" lon="-3.10325">
        <time>2018-01-21T14:14:30.000Z</time>
      </trkpt>
      <trkpt lat="47.55482" lon="-3.10326">
        <time>2018-01-21T14:14:31.000Z</time>
      </trkpt>
      <trkpt lat="47.55474" lon="-3.10326">
        <time>2018-01-21T14:14:32.000Z</time>
      </trkpt>
      <trkpt lat="47.55466" lon="-3.10328">
        <time>2018-01-21T14:14:33.000Z</time>
      </trkpt>
      <trkpt lat="47.55459" lon="-3.1033">
        <time>2018-01-21T14:14:34.000Z</time>
      </trkpt>
      <trkpt lat="47.55451" lon="-3.10331">
        <time>2018-01-21T14:14:35.000Z</time>
      </trkpt>
      <trkpt lat="47.55444" lon="-3.10332">
        <time>2018-01-21T14:14:36.000Z</time>
      </trkpt>
      <trkpt lat="47.55436" lon="-3.10332">
        <time>2018-01-21T14:14:37.000Z</time>
      </trkpt>
      <trkpt lat="47.55428" lon="-3.10334">
        <time>2018-01-21T14:14:38.000Z</time>
      </trkpt>
      <trkpt lat="47.55421" lon="-3.10335">
        <time>2018-01-21T14:14:39.000Z</time>
      </trkpt>
      <trkpt lat="47.55414" lon="-3.10337">
        <time>2018-01-21T14:14:40.000Z</time>
      </trkpt>
      <trkpt lat="47.55406" lon="-3.10337">
        <time>2018-01-21T14:14:41.000Z</time>
      </trkpt>
      <trkpt lat="47.55399" lon="-3.10338">
        <time>2018-01-21T14:14:42.000Z</time>
      </trkpt>
      <trkpt lat="47.55392" lon="-3.10339">
        <time>2018-01-21T14:14:43.000Z</time>
      </trkpt>
      <trkpt lat="47.55385" lon="-3.1034">
        <time>2018-01-21T14:14:44.000Z</time>
      </trkpt>
      <trkpt lat="47.55379" lon="-3.10341">
        <time>2018-01-21T14:14:45.000Z</time>
      </trkpt>
      <trkpt lat="47.55371" lon="-3.10341">
        <time>2018-01-21T14:14:46.000Z</time>
      </trkpt>
      <trkpt lat="47.55363" lon="-3.10342">
        <time>2018-01-21T14:14:47.000Z</time>
      </trkpt>
      <trkpt lat="47.55356" lon="-3.10343">
        <time>2018-01-21T14:14:48.000Z</time>
      </trkpt>
      <trkpt lat="47.55349" lon="-3.10344">
        <time>2018-01-21T14:14:49.000Z</time>
      </trkpt>
      <trkpt lat="47.55341" lon="-3.10343">
        <time>2018-01-21T14:14:50.000Z</time>
      </trkpt>
      <trkpt lat="47.55332" lon="-3.10344">
        <time>2018-01-21T14:14:51.000Z</time>
      </trkpt>
      <trkpt lat="47.55324" lon="-3.10344">
        <time>2018-01-21T14:14:52.000Z</time>
      </trkpt>
      <trkpt lat="47.55316" lon="-3.10345">
        <time>2018-01-21T14:14:53.000Z</time>
      </trkpt>
      <trkpt lat="47.55309" lon="-3.10345">
        <time>2018-01-21T14:14:54.000Z</time>
      </trkpt>
      <trkpt lat="47.55302" lon="-3.10345">
        <time>2018-01-21T14:14:55.000Z</time>
      </trkpt>
      <trkpt lat="47.55294" lon="-3.10342">
        <time>2018-01-21T14:14:56.000Z</time>
      </trkpt>
      <trkpt lat="47.55286" lon="-3.10338">
        <time>2018-01-21T14:14:57.000Z</time>
      </trkpt>
      <trkpt lat="47.55278" lon="-3.10333">
        <time>2018-01-21T14:14:58.000Z</time>
      </trkpt>
      <trkpt lat="47.5527" lon="-3.10328">
        <time>2018-01-21T14:14:59.000Z</time>
      </trkpt>
      <trkpt lat="47.5526" lon="-3.10324">
        <time>2018-01-21T14:15:00.000Z</time>
      </trkpt>
      <trkpt lat="47.55251" lon="-3.1032">
        <time>2018-01-21T14:15:01.000Z</time>
      </trkpt>
      <trkpt lat="47.55242" lon="-3.10316">
        <time>2018-01-21T14:15:02.000Z</time>
      </trkpt>
      <trkpt lat="47.55233" lon="-3.10312">
        <time>2018-01-21T14:15:03.000Z</time>
      </trkpt>
      <trkpt lat="47.55224" lon="-3.1031">
        <time>2018-01-21T14:15:04.000Z</time>
      </trkpt>
      <trkpt lat="47.55214" lon="-3.10307">
        <time>2018-01-21T14:15:05.000Z</time>
      </trkpt>
      <trkpt lat="47.55205" lon="-3.10304">
        <time>2018-01-21T14:15:06.000Z</time>
      </trkpt>
      <trkpt lat="47.55196" lon="-3.10303">
        <time>2018-01-21T14:15:07.000Z</time>
      </trkpt>
      <trkpt lat="47.55186" lon="-3.10302">
        <time>2018-01-21T14:15:08.000Z</time>
      </trkpt>
      <trkpt lat="47.55177" lon="-3.10301">
        <time>2018-01-21T14:15:09.000Z</time>
      </trkpt>
      <trkpt lat="47.55168" lon="-3.103">
        <time>2018-01-21T14:15:10.000Z</time>
      </trkpt>
      <trkpt lat="47.55159" lon="-3.103">
        <time>2018-01-21T14:15:11.000Z</time>
      </trkpt>
      <trkpt lat="47.55149" lon="-3.103">
        <time>2018-01-21T14:15:12.000Z</time>
      </trkpt>
      <trkpt lat="47.5514" lon="-3.103">
        <time>2018-01-21T14:15:13.000Z</time>
      </trkpt>
      <trkpt lat="47.55132" lon="-3.10301">
        <time>2018-01-21T14:15:14.000Z</time>
      </trkpt>
      <trkpt lat="47.55123" lon="-3.10301">
        <time>2018-01-21T14:15:15.000Z</time>
      </trkpt>
      <trkpt lat="47.55114" lon="-3.10301">
        <time>2018-01-21T14:15:16.000Z</time>
      </trkpt>
      <trkpt lat="47.55106" lon="-3.10301">
        <time>2018-01-21T14:15:17.000Z</time>
      </trkpt>
      <trkpt lat="47.55098" lon="-3.10301">
        <time>2018-01-21T14:15:18.000Z</time>
      </trkpt>
      <trkpt lat="47.5509" lon="-3.10301">
        <time>2018-01-21T14:15:19.000Z</time>
      </trkpt>
      <trkpt lat="47.55081" lon="-3.10301">
        <time>2018-01-21T14:15:20.000Z</time>
      </trkpt>
      <trkpt lat="47.55072" lon="-3.103">
        <time>2018-01-21T14:15:21.000Z</time>
      </trkpt>
      <trkpt lat="47.55063" lon="-3.103">
        <time>2018-01-21T14:15:22.000Z</time>
      </trkpt>
      <trkpt lat="47.55054" lon="-3.103">
        <time>2018-01-21T14:15:23.000Z</time>
      </trkpt>
      <trkpt lat="47.55045" lon="-3.103">
        <time>2018-01-21T14:15:24.000Z</time>
      </trkpt>
      <trkpt lat="47.55035" lon="-3.10299">
        <time>2018-01-21T14:15:25.000Z</time>
      </trkpt>
      <trkpt lat="47.55026" lon="-3.10298">
        <time>2018-01-21T14:15:26.000Z</time>
      </trkpt>
      <trkpt lat="47.55017" lon="-3.10297">
        <time>2018-01-21T14:15:27.000Z</time>
      </trkpt>
      <trkpt lat="47.55008" lon="-3.10297">
        <time>2018-01-21T14:15:28.000Z</time>
      </trkpt>
      <trkpt lat="47.54998" lon="-3.10296">
        <time>2018-01-21T14:15:29.000Z</time>
      </trkpt>
      <trkpt lat="47.5499" lon="-3.10296">
        <time>2018-01-21T14:15:30.000Z</time>
      </trkpt>
      <trkpt lat="47.54981" lon="-3.10294">
        <time>2018-01-21T14:15:31.000Z</time>
      </trkpt>
      <trkpt lat="47.54973" lon="-3.10293">
        <time>2018-01-21T14:15:32.000Z</time>
      </trkpt>
      <trkpt lat="47.54964" lon="-3.10293">
        <time>2018-01-21T14:15:33.000Z</time>
      </trkpt>
      <trkpt lat="47.54954" lon="-3.10293">
        <time>2018-01-21T14:15:34.000Z</time>
      </trkpt>
      <trkpt lat="47.54944" lon="-3.10294">
        <time>2018-01-21T14:15:35.000Z</time>
      </trkpt>
      <trkpt lat="47.54934" lon="-3.10294">
        <time>2018-01-21T14:15:36.000Z</time>
      </trkpt>
      <trkpt lat="47.54924" lon="-3.10294">
        <time>2018-01-21T14:15:37.000Z</time>
      </trkpt>
      <trkpt lat="47.54916" lon="-3.10294">
        <time>2018-01-21T14:15:38.000Z</time>
      </trkpt>
      <trkpt lat="47.54908" lon="-3.10295">
        <time>2018-01-21T14:15:39.000Z</time>
      </trkpt>
      <trkpt lat="47.54901" lon="-3.10296">
        <time>2018-01-21T14:15:40.000Z</time>
      </trkpt>
      <trkpt lat="47.54891" lon="-3.10293">
        <time>2018-01-21T14:15:41.000Z</time>
      </trkpt>
      <trkpt lat="47.54881" lon="-3.10293">
        <time>2018-01-21T14:15:42.000Z</time>
      </trkpt>
      <trkpt lat="47.5487" lon="-3.10292">
        <time>2018-01-21T14:15:43.000Z</time>
      </trkpt>
      <trkpt lat="47.54861" lon="-3.10291">
        <time>2018-01-21T14:15:44.000Z</time>
      </trkpt>
      <trkpt lat="47.54852" lon="-3.10292">
        <time>2018-01-21T14:15:45.000Z</time>
      </trkpt>
      <trkpt lat="47.54843" lon="-3.10291">
        <time>2018-01-21T14:15:46.000Z</time>
      </trkpt>
      <trkpt lat="47.54834" lon="-3.1029">
        <time>2018-01-21T14:15:47.000Z</time>
      </trkpt>
      <trkpt lat="47.54825" lon="-3.10289">
        <time>2018-01-21T14:15:48.000Z</time>
      </trkpt>
      <trkpt lat="47.54815" lon="-3.10288">
        <time>2018-01-21T14:15:49.000Z</time>
      </trkpt>
      <trkpt lat="47.54806" lon="-3.10288">
        <time>2018-01-21T14:15:50.000Z</time>
      </trkpt>
      <trkpt lat="47.54797" lon="-3.10288">
        <time>2018-01-21T14:15:51.000Z</time>
      </trkpt>
      <trkpt lat="47.54789" lon="-3.10288">
        <time>2018-01-21T14:15:52.000Z</time>
      </trkpt>
      <trkpt lat="47.5478" lon="-3.10288">
        <time>2018-01-21T14:15:53.000Z</time>
      </trkpt>
      <trkpt lat="47.54772" lon="-3.10287">
        <time>2018-01-21T14:15:54.000Z</time>
      </trkpt>
      <trkpt lat="47.54764" lon="-3.10285">
        <time>2018-01-21T14:15:55.000Z</time>
      </trkpt>
      <trkpt lat="47.54755" lon="-3.10284">
        <time>2018-01-21T14:15:56.000Z</time>
      </trkpt>
      <trkpt lat="47.54747" lon="-3.10284">
        <time>2018-01-21T14:15:57.000Z</time>
      </trkpt>
      <trkpt lat="47.54738" lon="-3.10283">
        <time>2018-01-21T14:15:58.000Z</time>
      </trkpt>
      <trkpt lat="47.54728" lon="-3.10283">
        <time>2018-01-21T14:15:59.000Z</time>
      </trkpt>
      <trkpt lat="47.54719" lon="-3.10283">
        <time>2018-01-21T14:16:00.000Z</time>
      </trkpt>
      <trkpt lat="47.5471" lon="-3.10282">
        <time>2018-01-21T14:16:01.000Z</time>
      </trkpt>
      <trkpt lat="47.54701" lon="-3.10281">
        <time>2018-01-21T14:16:02.000Z</time>
      </trkpt>
      <trkpt lat="47.54692" lon="-3.10281">
        <time>2018-01-21T14:16:03.000Z</time>
      </trkpt>
      <trkpt lat="47.54683" lon="-3.1028">
        <time>2018-01-21T14:16:04.000Z</time>
      </trkpt>
      <trkpt lat="47.54674" lon="-3.1028">
        <time>2018-01-21T14:16:05.000Z</time>
      </trkpt>
      <trkpt lat="47.54665" lon="-3.10278">
        <time>2018-01-21T14:16:06.000Z</time>
      </trkpt>
      <trkpt lat="47.54657" lon="-3.10277">
        <time>2018-01-21T14:16:07.000Z</time>
      </trkpt>
      <trkpt lat="47.54648" lon="-3.10276">
        <time>2018-01-21T14:16:08.000Z</time>
      </trkpt>
      <trkpt lat="47.54639" lon="-3.10275">
        <time>2018-01-21T14:16:09.000Z</time>
      </trkpt>
      <trkpt lat="47.5463" lon="-3.10274">
        <time>2018-01-21T14:16:10.000Z</time>
      </trkpt>
      <trkpt lat="47.54621" lon="-3.10273">
        <time>2018-01-21T14:16:11.000Z</time>
      </trkpt>
      <trkpt lat="47.54611" lon="-3.10272">
        <time>2018-01-21T14:16:12.000Z</time>
      </trkpt>
      <trkpt lat="47.54602" lon="-3.10271">
        <time>2018-01-21T14:16:13.000Z</time>
      </trkpt>
      <trkpt lat="47.54592" lon="-3.10269">
        <time>2018-01-21T14:16:14.000Z</time>
      </trkpt>
      <trkpt lat="47.54582" lon="-3.10267">
        <time>2018-01-21T14:16:15.000Z</time>
      </trkpt>
      <trkpt lat="47.54573" lon="-3.10266">
        <time>2018-01-21T14:16:16.000Z</time>
      </trkpt>
      <trkpt lat="47.54563" lon="-3.10265">
        <time>2018-01-21T14:16:17.000Z</time>
      </trkpt>
      <trkpt lat="47.54554" lon="-3.10263">
        <time>2018-01-21T14:16:18.000Z</time>
      </trkpt>
      <trkpt lat="47.54545" lon="-3.10261">
        <time>2018-01-21T14:16:19.000Z</time>
      </trkpt>
      <trkpt lat="47.54536" lon="-3.1026">
        <time>2018-01-21T14:16:20.000Z</time>
      </trkpt>
      <trkpt lat="47.54526" lon="-3.10258">
        <time>2018-01-21T14:16:21.000Z</time>
      </trkpt>
      <trkpt lat="47.54517" lon="-3.10257">
        <time>2018-01-21T14:16:22.000Z</time>
      </trkpt>
      <trkpt lat="47.54508" lon="-3.10256">
        <time>2018-01-21T14:16:23.000Z</time>
      </trkpt>
      <trkpt lat="47.54498" lon="-3.10255">
        <time>2018-01-21T14:16:24.000Z</time>
      </trkpt>
      <trkpt lat="47.54489" lon="-3.10255">
        <time>2018-01-21T14:16:25.000Z</time>
      </trkpt>
      <trkpt lat="47.5448" lon="-3.10254">
        <time>2018-01-21T14:16:26.000Z</time>
      </trkpt>
      <trkpt lat="47.5447" lon="-3.10253">
        <time>2018-01-21T14:16:27.000Z</time>
      </trkpt>
      <trkpt lat="47.54461" lon="-3.10251">
        <time>2018-01-21T14:16:28.000Z</time>
      </trkpt>
      <trkpt lat="47.54451" lon="-3.10249">
        <time>2018-01-21T14:16:29.000Z</time>
      </trkpt>
      <trkpt lat="47.54442" lon="-3.10247">
        <time>2018-01-21T14:16:30.000Z</time>
      </trkpt>
      <trkpt lat="47.54431" lon="-3.10246">
        <time>2018-01-21T14:16:31.000Z</time>
      </trkpt>
      <trkpt lat="47.54422" lon="-3.10247">
        <time>2018-01-21T14:16:32.000Z</time>
      </trkpt>
      <trkpt lat="47.54414" lon="-3.10247">
        <time>2018-01-21T14:16:33.000Z</time>
      </trkpt>
      <trkpt lat="47.54408" lon="-3.10247">
        <time>2018-01-21T14:16:34.000Z</time>
      </trkpt>
      <trkpt lat="47.54399" lon="-3.10247">
        <time>2018-01-21T14:16:35.000Z</time>
      </trkpt>
      <trkpt lat="47.54392" lon="-3.10246">
        <time>2018-01-21T14:16:36.000Z</time>
      </trkpt>
      <trkpt lat="47.54383" lon="-3.10245">
        <time>2018-01-21T14:16:37.000Z</time>
      </trkpt>
      <trkpt lat="47.54374" lon="-3.10242">
        <time>2018-01-21T14:16:38.000Z</time>
      </trkpt>
      <trkpt lat="47.54366" lon="-3.10241">
        <time>2018-01-21T14:16:39.000Z</time>
      </trkpt>
      <trkpt lat="47.54357" lon="-3.10239">
        <time>2018-01-21T14:16:40.000Z</time>
      </trkpt>
      <trkpt lat="47.54348" lon="-3.10239">
        <time>2018-01-21T14:16:41.000Z</time>
      </trkpt>
      <trkpt lat="47.54339" lon="-3.10238">
        <time>2018-01-21T14:16:42.000Z</time>
      </trkpt>
      <trkpt lat="47.5433" lon="-3.10238">
        <time>2018-01-21T14:16:43.000Z</time>
      </trkpt>
      <trkpt lat="47.54322" lon="-3.10238">
        <time>2018-01-21T14:16:44.000Z</time>
      </trkpt>
      <trkpt lat="47.54313" lon="-3.10238">
        <time>2018-01-21T14:16:45.000Z</time>
      </trkpt>
      <trkpt lat="47.54304" lon="-3.10237">
        <time>2018-01-21T14:16:46.000Z</time>
      </trkpt>
      <trkpt lat="47.54295" lon="-3.10236">
        <time>2018-01-21T14:16:47.000Z</time>
      </trkpt>
      <trkpt lat="47.54286" lon="-3.10234">
        <time>2018-01-21T14:16:48.000Z</time>
      </trkpt>
      <trkpt lat="47.54277" lon="-3.10232">
        <time>2018-01-21T14:16:49.000Z</time>
      </trkpt>
      <trkpt lat="47.54268" lon="-3.1023">
        <time>2018-01-21T14:16:50.000Z</time>
      </trkpt>
      <trkpt lat="47.54259" lon="-3.10229">
        <time>2018-01-21T14:16:51.000Z</time>
      </trkpt>
      <trkpt lat="47.5425" lon="-3.10227">
        <time>2018-01-21T14:16:52.000Z</time>
      </trkpt>
      <trkpt lat="47.54242" lon="-3.10226">
        <time>2018-01-21T14:16:53.000Z</time>
      </trkpt>
      <trkpt lat="47.54233" lon="-3.10225">
        <time>2018-01-21T14:16:54.000Z</time>
      </trkpt>
      <trkpt lat="47.54225" lon="-3.10224">
        <time>2018-01-21T14:16:55.000Z</time>
      </trkpt>
      <trkpt lat="47.54217" lon="-3.10222">
        <time>2018-01-21T14:16:56.000Z</time>
      </trkpt>
      <trkpt lat="47.54209" lon="-3.10221">
        <time>2018-01-21T14:16:57.000Z</time>
      </trkpt>
      <trkpt lat="47.54203" lon="-3.10221">
        <time>2018-01-21T14:16:58.000Z</time>
      </trkpt>
      <trkpt lat="47.54196" lon="-3.10221">
        <time>2018-01-21T14:16:59.000Z</time>
      </trkpt>
      <trkpt lat="47.54189" lon="-3.10221">
        <time>2018-01-21T14:17:00.000Z</time>
      </trkpt>
      <trkpt lat="47.54182" lon="-3.10219">
        <time>2018-01-21T14:17:01.000Z</time>
      </trkpt>
      <trkpt lat="47.54174" lon="-3.10217">
        <time>2018-01-21T14:17:02.000Z</time>
      </trkpt>
      <trkpt lat="47.54166" lon="-3.10215">
        <time>2018-01-21T14:17:03.000Z</time>
      </trkpt>
      <trkpt lat="47.54158" lon="-3.10213">
        <time>2018-01-21T14:17:04.000Z</time>
      </trkpt>
      <trkpt lat="47.5415" lon="-3.10211">
        <time>2018-01-21T14:17:05.000Z</time>
      </trkpt>
      <trkpt lat="47.54141" lon="-3.10209">
        <time>2018-01-21T14:17:06.000Z</time>
      </trkpt>
      <trkpt lat="47.54132" lon="-3.10206">
        <time>2018-01-21T14:17:07.000Z</time>
      </trkpt>
      <trkpt lat="47.54123" lon="-3.10204">
        <time>2018-01-21T14:17:08.000Z</time>
      </trkpt>
      <trkpt lat="47.54115" lon="-3.10203">
        <time>2018-01-21T14:17:09.000Z</time>
      </trkpt>
      <trkpt lat="47.54105" lon="-3.10202">
        <time>2018-01-21T14:17:10.000Z</time>
      </trkpt>
      <trkpt lat="47.54096" lon="-3.10202">
        <time>2018-01-21T14:17:11.000Z</time>
      </trkpt>
      <trkpt lat="47.54087" lon="-3.10201">
        <time>2018-01-21T14:17:12.000Z</time>
      </trkpt>
      <trkpt lat="47.54078" lon="-3.102">
        <time>2018-01-21T14:17:13.000Z</time>
      </trkpt>
      <trkpt lat="47.54069" lon="-3.10199">
        <time>2018-01-21T14:17:14.000Z</time>
      </trkpt>
      <trkpt lat="47.54061" lon="-3.10199">
        <time>2018-01-21T14:17:15.000Z</time>
      </trkpt>
      <trkpt lat="47.54051" lon="-3.10199">
        <time>2018-01-21T14:17:16.000Z</time>
      </trkpt>
      <trkpt lat="47.54042" lon="-3.10198">
        <time>2018-01-21T14:17:17.000Z</time>
      </trkpt>
      <trkpt lat="47.54034" lon="-3.10196">
        <time>2018-01-21T14:17:18.000Z</time>
      </trkpt>
      <trkpt lat="47.54024" lon="-3.10195">
        <time>2018-01-21T14:17:19.000Z</time>
      </trkpt>
      <trkpt lat="47.54017" lon="-3.10194">
        <time>2018-01-21T14:17:20.000Z</time>
      </trkpt>
      <trkpt lat="47.54009" lon="-3.10193">
        <time>2018-01-21T14:17:21.000Z</time>
      </trkpt>
      <trkpt lat="47.54001" lon="-3.10191">
        <time>2018-01-21T14:17:22.000Z</time>
      </trkpt>
      <trkpt lat="47.53991" lon="-3.10188">
        <time>2018-01-21T14:17:23.000Z</time>
      </trkpt>
      <trkpt lat="47.53983" lon="-3.10186">
        <time>2018-01-21T14:17:24.000Z</time>
      </trkpt>
      <trkpt lat="47.53974" lon="-3.10184">
        <time>2018-01-21T14:17:25.000Z</time>
      </trkpt>
      <trkpt lat="47.53965" lon="-3.10182">
        <time>2018-01-21T14:17:26.000Z</time>
      </trkpt>
      <trkpt lat="47.53956" lon="-3.1018">
        <time>2018-01-21T14:17:27.000Z</time>
      </trkpt>
      <trkpt lat="47.53947" lon="-3.10178">
        <time>2018-01-21T14:17:28.000Z</time>
      </trkpt>
      <trkpt lat="47.53938" lon="-3.10176">
        <time>2018-01-21T14:17:29.000Z</time>
      </trkpt>
      <trkpt lat="47.53929" lon="-3.10174">
        <time>2018-01-21T14:17:30.000Z</time>
      </trkpt>
      <trkpt lat="47.5392" lon="-3.10172">
        <time>2018-01-21T14:17:31.000Z</time>
      </trkpt>
      <trkpt lat="47.53912" lon="-3.10171">
        <time>2018-01-21T14:17:32.000Z</time>
      </trkpt>
      <trkpt lat="47.53904" lon="-3.1017">
        <time>2018-01-21T14:17:33.000Z</time>
      </trkpt>
      <trkpt lat="47.53895" lon="-3.10169">
        <time>2018-01-21T14:17:34.000Z</time>
      </trkpt>
      <trkpt lat="47.53887" lon="-3.10168">
        <time>2018-01-21T14:17:35.000Z</time>
      </trkpt>
      <trkpt lat="47.53879" lon="-3.10166">
        <time>2018-01-21T14:17:36.000Z</time>
      </trkpt>
      <trkpt lat="47.53871" lon="-3.10164">
        <time>2018-01-21T14:17:37.000Z</time>
      </trkpt>
      <trkpt lat="47.53863" lon="-3.10162">
        <time>2018-01-21T14:17:38.000Z</time>
      </trkpt>
      <trkpt lat="47.53854" lon="-3.10159">
        <time>2018-01-21T14:17:39.000Z</time>
      </trkpt>
      <trkpt lat="47.53845" lon="-3.10157">
        <time>2018-01-21T14:17:40.000Z</time>
      </trkpt>
      <trkpt lat="47.53837" lon="-3.10156">
        <time>2018-01-21T14:17:41.000Z</time>
      </trkpt>
      <trkpt lat="47.53828" lon="-3.10154">
        <time>2018-01-21T14:17:42.000Z</time>
      </trkpt>
      <trkpt lat="47.5382" lon="-3.10152">
        <time>2018-01-21T14:17:43.000Z</time>
      </trkpt>
      <trkpt lat="47.53812" lon="-3.1015">
        <time>2018-01-21T14:17:44.000Z</time>
      </trkpt>
      <trkpt lat="47.53803" lon="-3.10147">
        <time>2018-01-21T14:17:45.000Z</time>
      </trkpt>
      <trkpt lat="47.53795" lon="-3.10145">
        <time>2018-01-21T14:17:46.000Z</time>
      </trkpt>
      <trkpt lat="47.53786" lon="-3.10142">
        <time>2018-01-21T14:17:47.000Z</time>
      </trkpt>
      <trkpt lat="47.53778" lon="-3.10139">
        <time>2018-01-21T14:17:48.000Z</time>
      </trkpt>
      <trkpt lat="47.5377" lon="-3.10136">
        <time>2018-01-21T14:17:49.000Z</time>
      </trkpt>
      <trkpt lat="47.53762" lon="-3.10132">
        <time>2018-01-21T14:17:50.000Z</time>
      </trkpt>
      <trkpt lat="47.53754" lon="-3.10128">
        <time>2018-01-21T14:17:51.000Z</time>
      </trkpt>
      <trkpt lat="47.53746" lon="-3.10123">
        <time>2018-01-21T14:17:52.000Z</time>
      </trkpt>
      <trkpt lat="47.5374" lon="-3.10116">
        <time>2018-01-21T14:17:53.000Z</time>
      </trkpt>
      <trkpt lat="47.53733" lon="-3.10108">
        <time>2018-01-21T14:17:54.000Z</time>
      </trkpt>
      <trkpt lat="47.53728" lon="-3.101">
        <time>2018-01-21T14:17:55.000Z</time>
      </trkpt>
      <trkpt lat="47.53724" lon="-3.10091">
        <time>2018-01-21T14:17:56.000Z</time>
      </trkpt>
      <trkpt lat="47.53722" lon="-3.10081">
        <time>2018-01-21T14:17:57.000Z</time>
      </trkpt>
      <trkpt lat="47.53723" lon="-3.10072">
        <time>2018-01-21T14:17:58.000Z</time>
      </trkpt>
      <trkpt lat="47.53726" lon="-3.10066">
        <time>2018-01-21T14:17:59.000Z</time>
      </trkpt>
      <trkpt lat="47.5373" lon="-3.10061">
        <time>2018-01-21T14:18:00.000Z</time>
      </trkpt>
      <trkpt lat="47.53733" lon="-3.10059">
        <time>2018-01-21T14:18:01.000Z</time>
      </trkpt>
      <trkpt lat="47.53736" lon="-3.10059">
        <time>2018-01-21T14:18:02.000Z</time>
      </trkpt>
      <trkpt lat="47.53739" lon="-3.1006">
        <time>2018-01-21T14:18:03.000Z</time>
      </trkpt>
      <trkpt lat="47.53742" lon="-3.10061">
        <time>2018-01-21T14:18:04.000Z</time>
      </trkpt>
      <trkpt lat="47.53745" lon="-3.10063">
        <time>2018-01-21T14:18:05.000Z</time>
      </trkpt>
      <trkpt lat="47.53748" lon="-3.10065">
        <time>2018-01-21T14:18:06.000Z</time>
      </trkpt>
      <trkpt lat="47.53752" lon="-3.10066">
        <time>2018-01-21T14:18:07.000Z</time>
      </trkpt>
      <trkpt lat="47.53755" lon="-3.10067">
        <time>2018-01-21T14:18:08.000Z</time>
      </trkpt>
      <trkpt lat="47.53757" lon="-3.10068">
        <time>2018-01-21T14:18:09.000Z</time>
      </trkpt>
      <trkpt lat="47.53759" lon="-3.1007">
        <time>2018-01-21T14:18:10.000Z</time>
      </trkpt>
      <trkpt lat="47.53764" lon="-3.10071">
        <time>2018-01-21T14:18:11.000Z</time>
      </trkpt>
      <trkpt lat="47.53765" lon="-3.10073">
        <time>2018-01-21T14:18:12.000Z</time>
      </trkpt>
      <trkpt lat="47.53768" lon="-3.10076">
        <time>2018-01-21T14:18:13.000Z</time>
      </trkpt>
      <trkpt lat="47.53771" lon="-3.10078">
        <time>2018-01-21T14:18:14.000Z</time>
      </trkpt>
      <trkpt lat="47.53773" lon="-3.1008">
        <time>2018-01-21T14:18:15.000Z</time>
      </trkpt>
      <trkpt lat="47.53777" lon="-3.1008">
        <time>2018-01-21T14:18:16.000Z</time>
      </trkpt>
      <trkpt lat="47.53781" lon="-3.10082">
        <time>2018-01-21T14:18:17.000Z</time>
      </trkpt>
      <trkpt lat="47.53785" lon="-3.10084">
        <time>2018-01-21T14:18:18.000Z</time>
      </trkpt>
      <trkpt lat="47.53788" lon="-3.10085">
        <time>2018-01-21T14:18:19.000Z</time>
      </trkpt>
      <trkpt lat="47.5379" lon="-3.10087">
        <time>2018-01-21T14:18:20.000Z</time>
      </trkpt>
      <trkpt lat="47.53792" lon="-3.10088">
        <time>2018-01-21T14:18:21.000Z</time>
      </trkpt>
      <trkpt lat="47.53795" lon="-3.1009">
        <time>2018-01-21T14:18:22.000Z</time>
      </trkpt>
      <trkpt lat="47.538" lon="-3.1009">
        <time>2018-01-21T14:18:23.000Z</time>
      </trkpt>
      <trkpt lat="47.53805" lon="-3.10091">
        <time>2018-01-21T14:18:24.000Z</time>
      </trkpt>
      <trkpt lat="47.53811" lon="-3.10093">
        <time>2018-01-21T14:18:25.000Z</time>
      </trkpt>
      <trkpt lat="47.53816" lon="-3.10094">
        <time>2018-01-21T14:18:26.000Z</time>
      </trkpt>
      <trkpt lat="47.53822" lon="-3.10096">
        <time>2018-01-21T14:18:27.000Z</time>
      </trkpt>
      <trkpt lat="47.53829" lon="-3.10097">
        <time>2018-01-21T14:18:28.000Z</time>
      </trkpt>
      <trkpt lat="47.53836" lon="-3.10099">
        <time>2018-01-21T14:18:29.000Z</time>
      </trkpt>
      <trkpt lat="47.53843" lon="-3.10101">
        <time>2018-01-21T14:18:30.000Z</time>
      </trkpt>
      <trkpt lat="47.5385" lon="-3.10102">
        <time>2018-01-21T14:18:31.000Z</time>
      </trkpt>
      <trkpt lat="47.53858" lon="-3.10103">
        <time>2018-01-21T14:18:32.000Z</time>
      </trkpt>
      <trkpt lat="47.53866" lon="-3.10105">
        <time>2018-01-21T14:18:33.000Z</time>
      </trkpt>
      <trkpt lat="47.53874" lon="-3.10107">
        <time>2018-01-21T14:18:34.000Z</time>
      </trkpt>
      <trkpt lat="47.53883" lon="-3.1011">
        <time>2018-01-21T14:18:35.000Z</time>
      </trkpt>
      <trkpt lat="47.53891" lon="-3.10112">
        <time>2018-01-21T14:18:36.000Z</time>
      </trkpt>
      <trkpt lat="47.53899" lon="-3.10113">
        <time>2018-01-21T14:18:37.000Z</time>
      </trkpt>
      <trkpt lat="47.53907" lon="-3.10115">
        <time>2018-01-21T14:18:38.000Z</time>
      </trkpt>
      <trkpt lat="47.53916" lon="-3.10116">
        <time>2018-01-21T14:18:39.000Z</time>
      </trkpt>
      <trkpt lat="47.53925" lon="-3.10118">
        <time>2018-01-21T14:18:40.000Z</time>
      </trkpt>
      <trkpt lat="47.53934" lon="-3.10121">
        <time>2018-01-21T14:18:41.000Z</time>
      </trkpt>
      <trkpt lat="47.53943" lon="-3.10123">
        <time>2018-01-21T14:18:42.000Z</time>
      </trkpt>
      <trkpt lat="47.53951" lon="-3.10126">
        <time>2018-01-21T14:18:43.000Z</time>
      </trkpt>
      <trkpt lat="47.5396" lon="-3.10129">
        <time>2018-01-21T14:18:44.000Z</time>
      </trkpt>
      <trkpt lat="47.53968" lon="-3.10132">
        <time>2018-01-21T14:18:45.000Z</time>
      </trkpt>
      <trkpt lat="47.53976" lon="-3.10134">
        <time>2018-01-21T14:18:46.000Z</time>
      </trkpt>
      <trkpt lat="47.53985" lon="-3.10135">
        <time>2018-01-21T14:18:47.000Z</time>
      </trkpt>
      <trkpt lat="47.53994" lon="-3.10136">
        <time>2018-01-21T14:18:48.000Z</time>
      </trkpt>
      <trkpt lat="47.54002" lon="-3.10136">
        <time>2018-01-21T14:18:49.000Z</time>
      </trkpt>
      <trkpt lat="47.54012" lon="-3.10137">
        <time>2018-01-21T14:18:50.000Z</time>
      </trkpt>
      <trkpt lat="47.5402" lon="-3.10138">
        <time>2018-01-21T14:18:51.000Z</time>
      </trkpt>
      <trkpt lat="47.54029" lon="-3.10139">
        <time>2018-01-21T14:18:52.000Z</time>
      </trkpt>
      <trkpt lat="47.54038" lon="-3.1014">
        <time>2018-01-21T14:18:53.000Z</time>
      </trkpt>
      <trkpt lat="47.54046" lon="-3.10142">
        <time>2018-01-21T14:18:54.000Z</time>
      </trkpt>
      <trkpt lat="47.54055" lon="-3.10142">
        <time>2018-01-21T14:18:55.000Z</time>
      </trkpt>
      <trkpt lat="47.54064" lon="-3.10142">
        <time>2018-01-21T14:18:56.000Z</time>
      </trkpt>
      <trkpt lat="47.54073" lon="-3.10142">
        <time>2018-01-21T14:18:57.000Z</time>
      </trkpt>
      <trkpt lat="47.54083" lon="-3.10143">
        <time>2018-01-21T14:18:58.000Z</time>
      </trkpt>
      <trkpt lat="47.54092" lon="-3.10144">
        <time>2018-01-21T14:18:59.000Z</time>
      </trkpt>
      <trkpt lat="47.54101" lon="-3.10146">
        <time>2018-01-21T14:19:00.000Z</time>
      </trkpt>
      <trkpt lat="47.54111" lon="-3.10148">
        <time>2018-01-21T14:19:01.000Z</time>
      </trkpt>
      <trkpt lat="47.5412" lon="-3.1015">
        <time>2018-01-21T14:19:02.000Z</time>
      </trkpt>
      <trkpt lat="47.54129" lon="-3.10152">
        <time>2018-01-21T14:19:03.000Z</time>
      </trkpt>
      <trkpt lat="47.54138" lon="-3.10152">
        <time>2018-01-21T14:19:04.000Z</time>
      </trkpt>
      <trkpt lat="47.54148" lon="-3.10154">
        <time>2018-01-21T14:19:05.000Z</time>
      </trkpt>
      <trkpt lat="47.54157" lon="-3.10155">
        <time>2018-01-21T14:19:06.000Z</time>
      </trkpt>
      <trkpt lat="47.54167" lon="-3.10156">
        <time>2018-01-21T14:19:07.000Z</time>
      </trkpt>
      <trkpt lat="47.54176" lon="-3.10158">
        <time>2018-01-21T14:19:08.000Z</time>
      </trkpt>
      <trkpt lat="47.54185" lon="-3.1016">
        <time>2018-01-21T14:19:09.000Z</time>
      </trkpt>
      <trkpt lat="47.54194" lon="-3.10163">
        <time>2018-01-21T14:19:10.000Z</time>
      </trkpt>
      <trkpt lat="47.54203" lon="-3.10167">
        <time>2018-01-21T14:19:11.000Z</time>
      </trkpt>
      <trkpt lat="47.54212" lon="-3.10169">
        <time>2018-01-21T14:19:12.000Z</time>
      </trkpt>
      <trkpt lat="47.54222" lon="-3.10171">
        <time>2018-01-21T14:19:13.000Z</time>
      </trkpt>
      <trkpt lat="47.54231" lon="-3.10173">
        <time>2018-01-21T14:19:14.000Z</time>
      </trkpt>
      <trkpt lat="47.5424" lon="-3.10175">
        <time>2018-01-21T14:19:15.000Z</time>
      </trkpt>
      <trkpt lat="47.54249" lon="-3.10178">
        <time>2018-01-21T14:19:16.000Z</time>
      </trkpt>
      <trkpt lat="47.54258" lon="-3.10182">
        <time>2018-01-21T14:19:17.000Z</time>
      </trkpt>
      <trkpt lat="47.54267" lon="-3.10185">
        <time>2018-01-21T14:19:18.000Z</time>
      </trkpt>
      <trkpt lat="47.54275" lon="-3.10188">
        <time>2018-01-21T14:19:19.000Z</time>
      </trkpt>
      <trkpt lat="47.54283" lon="-3.10189">
        <time>2018-01-21T14:19:20.000Z</time>
      </trkpt>
      <trkpt lat="47.54291" lon="-3.1019">
        <time>2018-01-21T14:19:21.000Z</time>
      </trkpt>
      <trkpt lat="47.543" lon="-3.10191">
        <time>2018-01-21T14:19:22.000Z</time>
      </trkpt>
      <trkpt lat="47.54309" lon="-3.10192">
        <time>2018-01-21T14:19:23.000Z</time>
      </trkpt>
      <trkpt lat="47.54318" lon="-3.10193">
        <time>2018-01-21T14:19:24.000Z</time>
      </trkpt>
      <trkpt lat="47.54327" lon="-3.10194">
        <time>2018-01-21T14:19:25.000Z</time>
      </trkpt>
      <trkpt lat="47.54336" lon="-3.10195">
        <time>2018-01-21T14:19:26.000Z</time>
      </trkpt>
      <trkpt lat="47.54345" lon="-3.10197">
        <time>2018-01-21T14:19:27.000Z</time>
      </trkpt>
      <trkpt lat="47.54353" lon="-3.10198">
        <time>2018-01-21T14:19:28.000Z</time>
      </trkpt>
      <trkpt lat="47.54362" lon="-3.10199">
        <time>2018-01-21T14:19:29.000Z</time>
      </trkpt>
      <trkpt lat="47.54371" lon="-3.10201">
        <time>2018-01-21T14:19:30.000Z</time>
      </trkpt>
      <trkpt lat="47.5438" lon="-3.10203">
        <time>2018-01-21T14:19:31.000Z</time>
      </trkpt>
      <trkpt lat="47.5439" lon="-3.10204">
        <time>2018-01-21T14:19:32.000Z</time>
      </trkpt>
      <trkpt lat="47.54399" lon="-3.10205">
        <time>2018-01-21T14:19:33.000Z</time>
      </trkpt>
      <trkpt lat="47.54409" lon="-3.10205">
        <time>2018-01-21T14:19:34.000Z</time>
      </trkpt>
      <trkpt lat="47.54418" lon="-3.10206">
        <time>2018-01-21T14:19:35.000Z</time>
      </trkpt>
      <trkpt lat="47.54427" lon="-3.10208">
        <time>2018-01-21T14:19:36.000Z</time>
      </trkpt>
      <trkpt lat="47.54436" lon="-3.1021">
        <time>2018-01-21T14:19:37.000Z</time>
      </trkpt>
      <trkpt lat="47.54445" lon="-3.10212">
        <time>2018-01-21T14:19:38.000Z</time>
      </trkpt>
      <trkpt lat="47.54453" lon="-3.10215">
        <time>2018-01-21T14:19:39.000Z</time>
      </trkpt>
      <trkpt lat="47.54462" lon="-3.10217">
        <time>2018-01-21T14:19:40.000Z</time>
      </trkpt>
      <trkpt lat="47.54471" lon="-3.10219">
        <time>2018-01-21T14:19:41.000Z</time>
      </trkpt>
      <trkpt lat="47.5448" lon="-3.1022">
        <time>2018-01-21T14:19:42.000Z</time>
      </trkpt>
      <trkpt lat="47.54489" lon="-3.10221">
        <time>2018-01-21T14:19:43.000Z</time>
      </trkpt>
      <trkpt lat="47.54498" lon="-3.10223">
        <time>2018-01-21T14:19:44.000Z</time>
      </trkpt>
      <trkpt lat="47.54508" lon="-3.10225">
        <time>2018-01-21T14:19:45.000Z</time>
      </trkpt>
      <trkpt lat="47.54517" lon="-3.10227">
        <time>2018-01-21T14:19:46.000Z</time>
      </trkpt>
      <trkpt lat="47.54527" lon="-3.10228">
        <time>2018-01-21T14:19:47.000Z</time>
      </trkpt>
      <trkpt lat="47.54536" lon="-3.10229">
        <time>2018-01-21T14:19:48.000Z</time>
      </trkpt>
      <trkpt lat="47.54546" lon="-3.10229">
        <time>2018-01-21T14:19:49.000Z</time>
      </trkpt>
      <trkpt lat="47.54555" lon="-3.1023">
        <time>2018-01-21T14:19:50.000Z</time>
      </trkpt>
      <trkpt lat="47.54563" lon="-3.10231">
        <time>2018-01-21T14:19:51.000Z</time>
      </trkpt>
      <trkpt lat="47.54571" lon="-3.10233">
        <time>2018-01-21T14:19:52.000Z</time>
      </trkpt>
      <trkpt lat="47.54579" lon="-3.10234">
        <time>2018-01-21T14:19:53.000Z</time>
      </trkpt>
      <trkpt lat="47.54587" lon="-3.10235">
        <time>2018-01-21T14:19:54.000Z</time>
      </trkpt>
      <trkpt lat="47.54596" lon="-3.10236">
        <time>2018-01-21T14:19:55.000Z</time>
      </trkpt>
      <trkpt lat="47.54604" lon="-3.10237">
        <time>2018-01-21T14:19:56.000Z</time>
      </trkpt>
      <trkpt lat="47.54613" lon="-3.10239">
        <time>2018-01-21T14:19:57.000Z</time>
      </trkpt>
      <trkpt lat="47.54621" lon="-3.10241">
        <time>2018-01-21T14:19:58.000Z</time>
      </trkpt>
      <trkpt lat="47.5463" lon="-3.10242">
        <time>2018-01-21T14:19:59.000Z</time>
      </trkpt>
      <trkpt lat="47.54638" lon="-3.10244">
        <time>2018-01-21T14:20:00.000Z</time>
      </trkpt>
      <trkpt lat="47.54646" lon="-3.10246">
        <time>2018-01-21T14:20:01.000Z</time>
      </trkpt>
      <trkpt lat="47.54655" lon="-3.10247">
        <time>2018-01-21T14:20:02.000Z</time>
      </trkpt>
      <trkpt lat="47.54663" lon="-3.10249">
        <time>2018-01-21T14:20:03.000Z</time>
      </trkpt>
      <trkpt lat="47.54671" lon="-3.1025">
        <time>2018-01-21T14:20:04.000Z</time>
      </trkpt>
      <trkpt lat="47.5468" lon="-3.10252">
        <time>2018-01-21T14:20:05.000Z</time>
      </trkpt>
      <trkpt lat="47.54688" lon="-3.10254">
        <time>2018-01-21T14:20:06.000Z</time>
      </trkpt>
      <trkpt lat="47.54697" lon="-3.10256">
        <time>2018-01-21T14:20:07.000Z</time>
      </trkpt>
      <trkpt lat="47.54707" lon="-3.10257">
        <time>2018-01-21T14:20:08.000Z</time>
      </trkpt>
      <trkpt lat="47.54716" lon="-3.10259">
        <time>2018-01-21T14:20:09.000Z</time>
      </trkpt>
      <trkpt lat="47.54725" lon="-3.10262">
        <time>2018-01-21T14:20:10.000Z</time>
      </trkpt>
      <trkpt lat="47.54734" lon="-3.10265">
        <time>2018-01-21T14:20:11.000Z</time>
      </trkpt>
      <trkpt lat="47.54743" lon="-3.10267">
        <time>2018-01-21T14:20:12.000Z</time>
      </trkpt>
      <trkpt lat="47.54753" lon="-3.10269">
        <time>2018-01-21T14:20:13.000Z</time>
      </trkpt>
      <trkpt lat="47.54762" lon="-3.10271">
        <time>2018-01-21T14:20:14.000Z</time>
      </trkpt>
      <trkpt lat="47.5477" lon="-3.10272">
        <time>2018-01-21T14:20:15.000Z</time>
      </trkpt>
      <trkpt lat="47.54779" lon="-3.10275">
        <time>2018-01-21T14:20:16.000Z</time>
      </trkpt>
      <trkpt lat="47.54788" lon="-3.10277">
        <time>2018-01-21T14:20:17.000Z</time>
      </trkpt>
      <trkpt lat="47.54796" lon="-3.10279">
        <time>2018-01-21T14:20:18.000Z</time>
      </trkpt>
      <trkpt lat="47.54805" lon="-3.10281">
        <time>2018-01-21T14:20:19.000Z</time>
      </trkpt>
      <trkpt lat="47.54814" lon="-3.10282">
        <time>2018-01-21T14:20:20.000Z</time>
      </trkpt>
      <trkpt lat="47.54823" lon="-3.10283">
        <time>2018-01-21T14:20:21.000Z</time>
      </trkpt>
      <trkpt lat="47.54832" lon="-3.10285">
        <time>2018-01-21T14:20:22.000Z</time>
      </trkpt>
      <trkpt lat="47.54841" lon="-3.10287">
        <time>2018-01-21T14:20:23.000Z</time>
      </trkpt>
      <trkpt lat="47.5485" lon="-3.10289">
        <time>2018-01-21T14:20:24.000Z</time>
      </trkpt>
      <trkpt lat="47.54858" lon="-3.10291">
        <time>2018-01-21T14:20:25.000Z</time>
      </trkpt>
      <trkpt lat="47.54867" lon="-3.10293">
        <time>2018-01-21T14:20:26.000Z</time>
      </trkpt>
      <trkpt lat="47.54875" lon="-3.10294">
        <time>2018-01-21T14:20:27.000Z</time>
      </trkpt>
      <trkpt lat="47.54885" lon="-3.10296">
        <time>2018-01-21T14:20:28.000Z</time>
      </trkpt>
      <trkpt lat="47.54893" lon="-3.10298">
        <time>2018-01-21T14:20:29.000Z</time>
      </trkpt>
      <trkpt lat="47.54902" lon="-3.103">
        <time>2018-01-21T14:20:30.000Z</time>
      </trkpt>
      <trkpt lat="47.5491" lon="-3.10302">
        <time>2018-01-21T14:20:31.000Z</time>
      </trkpt>
      <trkpt lat="47.54919" lon="-3.10303">
        <time>2018-01-21T14:20:32.000Z</time>
      </trkpt>
      <trkpt lat="47.54928" lon="-3.10304">
        <time>2018-01-21T14:20:33.000Z</time>
      </trkpt>
      <trkpt lat="47.54936" lon="-3.10305">
        <time>2018-01-21T14:20:34.000Z</time>
      </trkpt>
      <trkpt lat="47.54945" lon="-3.10307">
        <time>2018-01-21T14:20:35.000Z</time>
      </trkpt>
      <trkpt lat="47.54954" lon="-3.1031">
        <time>2018-01-21T14:20:36.000Z</time>
      </trkpt>
      <trkpt lat="47.54962" lon="-3.10312">
        <time>2018-01-21T14:20:37.000Z</time>
      </trkpt>
      <trkpt lat="47.54971" lon="-3.10314">
        <time>2018-01-21T14:20:38.000Z</time>
      </trkpt>
      <trkpt lat="47.54979" lon="-3.10316">
        <time>2018-01-21T14:20:39.000Z</time>
      </trkpt>
      <trkpt lat="47.54988" lon="-3.10319">
        <time>2018-01-21T14:20:40.000Z</time>
      </trkpt>
      <trkpt lat="47.54996" lon="-3.10322">
        <time>2018-01-21T14:20:41.000Z</time>
      </trkpt>
      <trkpt lat="47.55005" lon="-3.10324">
        <time>2018-01-21T14:20:42.000Z</time>
      </trkpt>
      <trkpt lat="47.55013" lon="-3.10327">
        <time>2018-01-21T14:20:43.000Z</time>
      </trkpt>
      <trkpt lat="47.55021" lon="-3.1033">
        <time>2018-01-21T14:20:44.000Z</time>
      </trkpt>
      <trkpt lat="47.5503" lon="-3.10331">
        <time>2018-01-21T14:20:45.000Z</time>
      </trkpt>
      <trkpt lat="47.55038" lon="-3.10332">
        <time>2018-01-21T14:20:46.000Z</time>
      </trkpt>
      <trkpt lat="47.55047" lon="-3.10331">
        <time>2018-01-21T14:20:47.000Z</time>
      </trkpt>
      <trkpt lat="47.55056" lon="-3.10332">
        <time>2018-01-21T14:20:48.000Z</time>
      </trkpt>
      <trkpt lat="47.55065" lon="-3.10333">
        <time>2018-01-21T14:20:49.000Z</time>
      </trkpt>
      <trkpt lat="47.55074" lon="-3.10334">
        <time>2018-01-21T14:20:50.000Z</time>
      </trkpt>
      <trkpt lat="47.55083" lon="-3.10336">
        <time>2018-01-21T14:20:51.000Z</time>
      </trkpt>
      <trkpt lat="47.55092" lon="-3.10337">
        <time>2018-01-21T14:20:52.000Z</time>
      </trkpt>
      <trkpt lat="47.55101" lon="-3.10338">
        <time>2018-01-21T14:20:53.000Z</time>
      </trkpt>
      <trkpt lat="47.5511" lon="-3.10339">
        <time>2018-01-21T14:20:54.000Z</time>
      </trkpt>
      <trkpt lat="47.55119" lon="-3.10339">
        <time>2018-01-21T14:20:55.000Z</time>
      </trkpt>
      <trkpt lat="47.55129" lon="-3.1034">
        <time>2018-01-21T14:20:56.000Z</time>
      </trkpt>
      <trkpt lat="47.55139" lon="-3.1034">
        <time>2018-01-21T14:20:57.000Z</time>
      </trkpt>
      <trkpt lat="47.55148" lon="-3.1034">
        <time>2018-01-21T14:20:58.000Z</time>
      </trkpt>
      <trkpt lat="47.55158" lon="-3.1034">
        <time>2018-01-21T14:20:59.000Z</time>
      </trkpt>
      <trkpt lat="47.55167" lon="-3.10343">
        <time>2018-01-21T14:21:00.000Z</time>
      </trkpt>
      <trkpt lat="47.55175" lon="-3.10345">
        <time>2018-01-21T14:21:01.000Z</time>
      </trkpt>
      <trkpt lat="47.55184" lon="-3.10347">
        <time>2018-01-21T14:21:02.000Z</time>
      </trkpt>
      <trkpt lat="47.55193" lon="-3.1035">
        <time>2018-01-21T14:21:03.000Z</time>
      </trkpt>
      <trkpt lat="47.55201" lon="-3.10352">
        <time>2018-01-21T14:21:04.000Z</time>
      </trkpt>
      <trkpt lat="47.5521" lon="-3.10354">
        <time>2018-01-21T14:21:05.000Z</time>
      </trkpt>
      <trkpt lat="47.55218" lon="-3.10356">
        <time>2018-01-21T14:21:06.000Z</time>
      </trkpt>
      <trkpt lat="47.55226" lon="-3.10358">
        <time>2018-01-21T14:21:07.000Z</time>
      </trkpt>
      <trkpt lat="47.55234" lon="-3.1036">
        <time>2018-01-21T14:21:08.000Z</time>
      </trkpt>
      <trkpt lat="47.55242" lon="-3.10361">
        <time>2018-01-21T14:21:09.000Z</time>
      </trkpt>
      <trkpt lat="47.5525" lon="-3.10362">
        <time>2018-01-21T14:21:10.000Z</time>
      </trkpt>
      <trkpt lat="47.55259" lon="-3.10363">
        <time>2018-01-21T14:21:11.000Z</time>
      </trkpt>
      <trkpt lat="47.55267" lon="-3.10363">
        <time>2018-01-21T14:21:12.000Z</time>
      </trkpt>
      <trkpt lat="47.55276" lon="-3.10364">
        <time>2018-01-21T14:21:13.000Z</time>
      </trkpt>
      <trkpt lat="47.55284" lon="-3.10365">
        <time>2018-01-21T14:21:14.000Z</time>
      </trkpt>
      <trkpt lat="47.55293" lon="-3.10367">
        <time>2018-01-21T14:21:15.000Z</time>
      </trkpt>
      <trkpt lat="47.55302" lon="-3.10369">
        <time>2018-01-21T14:21:16.000Z</time>
      </trkpt>
      <trkpt lat="47.5531" lon="-3.10371">
        <time>2018-01-21T14:21:17.000Z</time>
      </trkpt>
      <trkpt lat="47.55319" lon="-3.10373">
        <time>2018-01-21T14:21:18.000Z</time>
      </trkpt>
      <trkpt lat="47.55327" lon="-3.10375">
        <time>2018-01-21T14:21:19.000Z</time>
      </trkpt>
      <trkpt lat="47.55336" lon="-3.10376">
        <time>2018-01-21T14:21:20.000Z</time>
      </trkpt>
      <trkpt lat="47.55345" lon="-3.10375">
        <time>2018-01-21T14:21:21.000Z</time>
      </trkpt>
      <trkpt lat="47.55353" lon="-3.10374">
        <time>2018-01-21T14:21:22.000Z</time>
      </trkpt>
      <trkpt lat="47.55362" lon="-3.10373">
        <time>2018-01-21T14:21:23.000Z</time>
      </trkpt>
      <trkpt lat="47.55371" lon="-3.10372">
        <time>2018-01-21T14:21:24.000Z</time>
      </trkpt>
      <trkpt lat="47.5538" lon="-3.1037">
        <time>2018-01-21T14:21:25.000Z</time>
      </trkpt>
      <trkpt lat="47.5539" lon="-3.10368">
        <time>2018-01-21T14:21:26.000Z</time>
      </trkpt>
      <trkpt lat="47.55399" lon="-3.10366">
        <time>2018-01-21T14:21:27.000Z</time>
      </trkpt>
      <trkpt lat="47.55409" lon="-3.10365">
        <time>2018-01-21T14:21:28.000Z</time>
      </trkpt>
      <trkpt lat="47.55418" lon="-3.10363">
        <time>2018-01-21T14:21:29.000Z</time>
      </trkpt>
      <trkpt lat="47.55428" lon="-3.10362">
        <time>2018-01-21T14:21:30.000Z</time>
      </trkpt>
      <trkpt lat="47.55437" lon="-3.1036">
        <time>2018-01-21T14:21:31.000Z</time>
      </trkpt>
      <trkpt lat="47.55446" lon="-3.10359">
        <time>2018-01-21T14:21:32.000Z</time>
      </trkpt>
      <trkpt lat="47.55456" lon="-3.10357">
        <time>2018-01-21T14:21:33.000Z</time>
      </trkpt>
      <trkpt lat="47.55464" lon="-3.10357">
        <time>2018-01-21T14:21:34.000Z</time>
      </trkpt>
      <trkpt lat="47.55474" lon="-3.10356">
        <time>2018-01-21T14:21:35.000Z</time>
      </trkpt>
      <trkpt lat="47.55482" lon="-3.10354">
        <time>2018-01-21T14:21:36.000Z</time>
      </trkpt>
      <trkpt lat="47.55491" lon="-3.10353">
        <time>2018-01-21T14:21:37.000Z</time>
      </trkpt>
      <trkpt lat="47.555" lon="-3.10352">
        <time>2018-01-21T14:21:38.000Z</time>
      </trkpt>
      <trkpt lat="47.55507" lon="-3.10353">
        <time>2018-01-21T14:21:39.000Z</time>
      </trkpt>
      <trkpt lat="47.55514" lon="-3.10354">
        <time>2018-01-21T14:21:40.000Z</time>
      </trkpt>
      <trkpt lat="47.55523" lon="-3.10354">
        <time>2018-01-21T14:21:41.000Z</time>
      </trkpt>
      <trkpt lat="47.55531" lon="-3.10355">
        <time>2018-01-21T14:21:42.000Z</time>
      </trkpt>
      <trkpt lat="47.55541" lon="-3.10355">
        <time>2018-01-21T14:21:43.000Z</time>
      </trkpt>
      <trkpt lat="47.55549" lon="-3.10353">
        <time>2018-01-21T14:21:44.000Z</time>
      </trkpt>
      <trkpt lat="47.55558" lon="-3.10352">
        <time>2018-01-21T14:21:45.000Z</time>
      </trkpt>
      <trkpt lat="47.55566" lon="-3.10352">
        <time>2018-01-21T14:21:46.000Z</time>
      </trkpt>
      <trkpt lat="47.55577" lon="-3.10352">
        <time>2018-01-21T14:21:47.000Z</time>
      </trkpt>
      <trkpt lat="47.55586" lon="-3.10352">
        <time>2018-01-21T14:21:48.000Z</time>
      </trkpt>
      <trkpt lat="47.55595" lon="-3.10352">
        <time>2018-01-21T14:21:49.000Z</time>
      </trkpt>
      <trkpt lat="47.55605" lon="-3.10351">
        <time>2018-01-21T14:21:50.000Z</time>
      </trkpt>
      <trkpt lat="47.55616" lon="-3.1035">
        <time>2018-01-21T14:21:51.000Z</time>
      </trkpt>
      <trkpt lat="47.55626" lon="-3.10347">
        <time>2018-01-21T14:21:52.000Z</time>
      </trkpt>
      <trkpt lat="47.55636" lon="-3.10345">
        <time>2018-01-21T14:21:53.000Z</time>
      </trkpt>
      <trkpt lat="47.55645" lon="-3.10345">
        <time>2018-01-21T14:21:54.000Z</time>
      </trkpt>
      <trkpt lat="47.55654" lon="-3.10343">
        <time>2018-01-21T14:21:55.000Z</time>
      </trkpt>
      <trkpt lat="47.55663" lon="-3.10341">
        <time>2018-01-21T14:21:56.000Z</time>
      </trkpt>
      <trkpt lat="47.55672" lon="-3.1034">
        <time>2018-01-21T14:21:57.000Z</time>
      </trkpt>
      <trkpt lat="47.55681" lon="-3.10339">
        <time>2018-01-21T14:21:58.000Z</time>
      </trkpt>
      <trkpt lat="47.55691" lon="-3.10338">
        <time>2018-01-21T14:21:59.000Z</time>
      </trkpt>
      <trkpt lat="47.557" lon="-3.10337">
        <time>2018-01-21T14:22:00.000Z</time>
      </trkpt>
      <trkpt lat="47.55709" lon="-3.10336">
        <time>2018-01-21T14:22:01.000Z</time>
      </trkpt>
      <trkpt lat="47.55717" lon="-3.10336">
        <time>2018-01-21T14:22:02.000Z</time>
      </trkpt>
      <trkpt lat="47.55727" lon="-3.10335">
        <time>2018-01-21T14:22:03.000Z</time>
      </trkpt>
      <trkpt lat="47.55736" lon="-3.10335">
        <time>2018-01-21T14:22:04.000Z</time>
      </trkpt>
      <trkpt lat="47.55745" lon="-3.10334">
        <time>2018-01-21T14:22:05.000Z</time>
      </trkpt>
      <trkpt lat="47.55754" lon="-3.10334">
        <time>2018-01-21T14:22:06.000Z</time>
      </trkpt>
      <trkpt lat="47.55763" lon="-3.10332">
        <time>2018-01-21T14:22:07.000Z</time>
      </trkpt>
      <trkpt lat="47.55772" lon="-3.10331">
        <time>2018-01-21T14:22:08.000Z</time>
      </trkpt>
      <trkpt lat="47.55781" lon="-3.1033">
        <time>2018-01-21T14:22:09.000Z</time>
      </trkpt>
      <trkpt lat="47.55791" lon="-3.10329">
        <time>2018-01-21T14:22:10.000Z</time>
      </trkpt>
      <trkpt lat="47.558" lon="-3.10329">
        <time>2018-01-21T14:22:11.000Z</time>
      </trkpt>
      <trkpt lat="47.55809" lon="-3.10329">
        <time>2018-01-21T14:22:12.000Z</time>
      </trkpt>
      <trkpt lat="47.55819" lon="-3.10328">
        <time>2018-01-21T14:22:13.000Z</time>
      </trkpt>
      <trkpt lat="47.55828" lon="-3.10327">
        <time>2018-01-21T14:22:14.000Z</time>
      </trkpt>
      <trkpt lat="47.55838" lon="-3.10326">
        <time>2018-01-21T14:22:15.000Z</time>
      </trkpt>
      <trkpt lat="47.55846" lon="-3.10327">
        <time>2018-01-21T14:22:16.000Z</time>
      </trkpt>
      <trkpt lat="47.55855" lon="-3.10328">
        <time>2018-01-21T14:22:17.000Z</time>
      </trkpt>
      <trkpt lat="47.55863" lon="-3.10328">
        <time>2018-01-21T14:22:18.000Z</time>
      </trkpt>
      <trkpt lat="47.55872" lon="-3.10327">
        <time>2018-01-21T14:22:19.000Z</time>
      </trkpt>
      <trkpt lat="47.55881" lon="-3.10327">
        <time>2018-01-21T14:22:20.000Z</time>
      </trkpt>
      <trkpt lat="47.5589" lon="-3.10327">
        <time>2018-01-21T14:22:21.000Z</time>
      </trkpt>
      <trkpt lat="47.55899" lon="-3.10327">
        <time>2018-01-21T14:22:22.000Z</time>
      </trkpt>
      <trkpt lat="47.55907" lon="-3.10327">
        <time>2018-01-21T14:22:23.000Z</time>
      </trkpt>
      <trkpt lat="47.55915" lon="-3.10326">
        <time>2018-01-21T14:22:24.000Z</time>
      </trkpt>
      <trkpt lat="47.55923" lon="-3.10326">
        <time>2018-01-21T14:22:25.000Z</time>
      </trkpt>
      <trkpt lat="47.5593" lon="-3.10328">
        <time>2018-01-21T14:22:26.000Z</time>
      </trkpt>
      <trkpt lat="47.55936" lon="-3.1033">
        <time>2018-01-21T14:22:27.000Z</time>
      </trkpt>
      <trkpt lat="47.55941" lon="-3.10333">
        <time>2018-01-21T14:22:28.000Z</time>
      </trkpt>
      <trkpt lat="47.55946" lon="-3.10335">
        <time>2018-01-21T14:22:29.000Z</time>
      </trkpt>
      <trkpt lat="47.55951" lon="-3.10337">
        <time>2018-01-21T14:22:30.000Z</time>
      </trkpt>
      <trkpt lat="47.55956" lon="-3.10341">
        <time>2018-01-21T14:22:31.000Z</time>
      </trkpt>
      <trkpt lat="47.55963" lon="-3.10342">
        <time>2018-01-21T14:22:32.000Z</time>
      </trkpt>
      <trkpt lat="47.5597" lon="-3.10342">
        <time>2018-01-21T14:22:33.000Z</time>
      </trkpt>
      <trkpt lat="47.55977" lon="-3.10342">
        <time>2018-01-21T14:22:34.000Z</time>
      </trkpt>
      <trkpt lat="47.55985" lon="-3.10341">
        <time>2018-01-21T14:22:35.000Z</time>
      </trkpt>
      <trkpt lat="47.55992" lon="-3.1034">
        <time>2018-01-21T14:22:36.000Z</time>
      </trkpt>
      <trkpt lat="47.56" lon="-3.10339">
        <time>2018-01-21T14:22:37.000Z</time>
      </trkpt>
      <trkpt lat="47.56007" lon="-3.10337">
        <time>2018-01-21T14:22:38.000Z</time>
      </trkpt>
      <trkpt lat="47.56015" lon="-3.10335">
        <time>2018-01-21T14:22:39.000Z</time>
      </trkpt>
      <trkpt lat="47.56024" lon="-3.10334">
        <time>2018-01-21T14:22:40.000Z</time>
      </trkpt>
      <trkpt lat="47.56032" lon="-3.10333">
        <time>2018-01-21T14:22:41.000Z</time>
      </trkpt>
      <trkpt lat="47.5604" lon="-3.10332">
        <time>2018-01-21T14:22:42.000Z</time>
      </trkpt>
      <trkpt lat="47.56048" lon="-3.10332">
        <time>2018-01-21T14:22:43.000Z</time>
      </trkpt>
      <trkpt lat="47.56056" lon="-3.10332">
        <time>2018-01-21T14:22:44.000Z</time>
      </trkpt>
      <trkpt lat="47.56065" lon="-3.10331">
        <time>2018-01-21T14:22:45.000Z</time>
      </trkpt>
      <trkpt lat="47.56074" lon="-3.10331">
        <time>2018-01-21T14:22:46.000Z</time>
      </trkpt>
      <trkpt lat="47.56084" lon="-3.1033">
        <time>2018-01-21T14:22:47.000Z</time>
      </trkpt>
      <trkpt lat="47.56093" lon="-3.1033">
        <time>2018-01-21T14:22:48.000Z</time>
      </trkpt>
      <trkpt lat="47.56102" lon="-3.10331">
        <time>2018-01-21T14:22:49.000Z</time>
      </trkpt>
      <trkpt lat="47.5611" lon="-3.10332">
        <time>2018-01-21T14:22:50.000Z</time>
      </trkpt>
      <trkpt lat="47.56119" lon="-3.10332">
        <time>2018-01-21T14:22:51.000Z</time>
      </trkpt>
      <trkpt lat="47.56127" lon="-3.10331">
        <time>2018-01-21T14:22:52.000Z</time>
      </trkpt>
      <trkpt lat="47.56136" lon="-3.10329">
        <time>2018-01-21T14:22:53.000Z</time>
      </trkpt>
      <trkpt lat="47.56145" lon="-3.10327">
        <time>2018-01-21T14:22:54.000Z</time>
      </trkpt>
      <trkpt lat="47.56154" lon="-3.10326">
        <time>2018-01-21T14:22:55.000Z</time>
      </trkpt>
      <trkpt lat="47.56163" lon="-3.10326">
        <time>2018-01-21T14:22:56.000Z</time>
      </trkpt>
      <trkpt lat="47.56171" lon="-3.10326">
        <time>2018-01-21T14:22:57.000Z</time>
      </trkpt>
      <trkpt lat="47.5618" lon="-3.10327">
        <time>2018-01-21T14:22:58.000Z</time>
      </trkpt>
      <trkpt lat="47.56189" lon="-3.10328">
        <time>2018-01-21T14:22:59.000Z</time>
      </trkpt>
      <trkpt lat="47.56198" lon="-3.10329">
        <time>2018-01-21T14:23:00.000Z</time>
      </trkpt>
      <trkpt lat="47.56206" lon="-3.1033">
        <time>2018-01-21T14:23:01.000Z</time>
      </trkpt>
      <trkpt lat="47.56215" lon="-3.10331">
        <time>2018-01-21T14:23:02.000Z</time>
      </trkpt>
      <trkpt lat="47.56224" lon="-3.10332">
        <time>2018-01-21T14:23:03.000Z</time>
      </trkpt>
      <trkpt lat="47.56233" lon="-3.10332">
        <time>2018-01-21T14:23:04.000Z</time>
      </trkpt>
      <trkpt lat="47.56242" lon="-3.10332">
        <time>2018-01-21T14:23:05.000Z</time>
      </trkpt>
      <trkpt lat="47.56251" lon="-3.10332">
        <time>2018-01-21T14:23:06.000Z</time>
      </trkpt>
      <trkpt lat="47.56259" lon="-3.10332">
        <time>2018-01-21T14:23:07.000Z</time>
      </trkpt>
      <trkpt lat="47.56267" lon="-3.10332">
        <time>2018-01-21T14:23:08.000Z</time>
      </trkpt>
      <trkpt lat="47.56276" lon="-3.10332">
        <time>2018-01-21T14:23:09.000Z</time>
      </trkpt>
      <trkpt lat="47.56284" lon="-3.10331">
        <time>2018-01-21T14:23:10.000Z</time>
      </trkpt>
      <trkpt lat="47.56292" lon="-3.1033">
        <time>2018-01-21T14:23:11.000Z</time>
      </trkpt>
      <trkpt lat="47.56299" lon="-3.10331">
        <time>2018-01-21T14:23:12.000Z</time>
      </trkpt>
      <trkpt lat="47.56307" lon="-3.10332">
        <time>2018-01-21T14:23:13.000Z</time>
      </trkpt>
      <trkpt lat="47.56314" lon="-3.10333">
        <time>2018-01-21T14:23:14.000Z</time>
      </trkpt>
      <trkpt lat="47.56321" lon="-3.10334">
        <time>2018-01-21T14:23:15.000Z</time>
      </trkpt>
      <trkpt lat="47.5633" lon="-3.10333">
        <time>2018-01-21T14:23:16.000Z</time>
      </trkpt>
      <trkpt lat="47.56338" lon="-3.10332">
        <time>2018-01-21T14:23:17.000Z</time>
      </trkpt>
      <trkpt lat="47.56346" lon="-3.1033">
        <time>2018-01-21T14:23:18.000Z</time>
      </trkpt>
      <trkpt lat="47.56355" lon="-3.10329">
        <time>2018-01-21T14:23:19.000Z</time>
      </trkpt>
      <trkpt lat="47.56364" lon="-3.10328">
        <time>2018-01-21T14:23:20.000Z</time>
      </trkpt>
      <trkpt lat="47.56373" lon="-3.10326">
        <time>2018-01-21T14:23:21.000Z</time>
      </trkpt>
      <trkpt lat="47.56383" lon="-3.10325">
        <time>2018-01-21T14:23:22.000Z</time>
      </trkpt>
      <trkpt lat="47.56392" lon="-3.10324">
        <time>2018-01-21T14:23:23.000Z</time>
      </trkpt>
      <trkpt lat="47.564" lon="-3.10325">
        <time>2018-01-21T14:23:24.000Z</time>
      </trkpt>
      <trkpt lat="47.56409" lon="-3.10325">
        <time>2018-01-21T14:23:25.000Z</time>
      </trkpt>
      <trkpt lat="47.56418" lon="-3.10326">
        <time>2018-01-21T14:23:26.000Z</time>
      </trkpt>
      <trkpt lat="47.56427" lon="-3.10327">
        <time>2018-01-21T14:23:27.000Z</time>
      </trkpt>
      <trkpt lat="47.56435" lon="-3.10327">
        <time>2018-01-21T14:23:28.000Z</time>
      </trkpt>
      <trkpt lat="47.56444" lon="-3.10326">
        <time>2018-01-21T14:23:29.000Z</time>
      </trkpt>
      <trkpt lat="47.56452" lon="-3.10324">
        <time>2018-01-21T14:23:30.000Z</time>
      </trkpt>
      <trkpt lat="47.56461" lon="-3.10322">
        <time>2018-01-21T14:23:31.000Z</time>
      </trkpt>
      <trkpt lat="47.5647" lon="-3.1032">
        <time>2018-01-21T14:23:32.000Z</time>
      </trkpt>
      <trkpt lat="47.5648" lon="-3.1032">
        <time>2018-01-21T14:23:33.000Z</time>
      </trkpt>
      <trkpt lat="47.56488" lon="-3.10321">
        <time>2018-01-21T14:23:34.000Z</time>
      </trkpt>
      <trkpt lat="47.56497" lon="-3.10321">
        <time>2018-01-21T14:23:35.000Z</time>
      </trkpt>
      <trkpt lat="47.56506" lon="-3.1032">
        <time>2018-01-21T14:23:36.000Z</time>
      </trkpt>
      <trkpt lat="47.56514" lon="-3.10318">
        <time>2018-01-21T14:23:37.000Z</time>
      </trkpt>
      <trkpt lat="47.56523" lon="-3.10316">
        <time>2018-01-21T14:23:38.000Z</time>
      </trkpt>
      <trkpt lat="47.56532" lon="-3.10316">
        <time>2018-01-21T14:23:39.000Z</time>
      </trkpt>
      <trkpt lat="47.56541" lon="-3.10315">
        <time>2018-01-21T14:23:40.000Z</time>
      </trkpt>
      <trkpt lat="47.5655" lon="-3.10315">
        <time>2018-01-21T14:23:41.000Z</time>
      </trkpt>
      <trkpt lat="47.56559" lon="-3.10314">
        <time>2018-01-21T14:23:42.000Z</time>
      </trkpt>
      <trkpt lat="47.56568" lon="-3.10313">
        <time>2018-01-21T14:23:43.000Z</time>
      </trkpt>
      <trkpt lat="47.56577" lon="-3.10311">
        <time>2018-01-21T14:23:44.000Z</time>
      </trkpt>
      <trkpt lat="47.56586" lon="-3.10308">
        <time>2018-01-21T14:23:45.000Z</time>
      </trkpt>
      <trkpt lat="47.56595" lon="-3.10307">
        <time>2018-01-21T14:23:46.000Z</time>
      </trkpt>
      <trkpt lat="47.56604" lon="-3.10305">
        <time>2018-01-21T14:23:47.000Z</time>
      </trkpt>
      <trkpt lat="47.56613" lon="-3.10305">
        <time>2018-01-21T14:23:48.000Z</time>
      </trkpt>
      <trkpt lat="47.56621" lon="-3.10306">
        <time>2018-01-21T14:23:49.000Z</time>
      </trkpt>
      <trkpt lat="47.5663" lon="-3.10307">
        <time>2018-01-21T14:23:50.000Z</time>
      </trkpt>
      <trkpt lat="47.56638" lon="-3.10306">
        <time>2018-01-21T14:23:51.000Z</time>
      </trkpt>
      <trkpt lat="47.56647" lon="-3.10305">
        <time>2018-01-21T14:23:52.000Z</time>
      </trkpt>
      <trkpt lat="47.56656" lon="-3.10304">
        <time>2018-01-21T14:23:53.000Z</time>
      </trkpt>
      <trkpt lat="47.56664" lon="-3.10303">
        <time>2018-01-21T14:23:54.000Z</time>
      </trkpt>
      <trkpt lat="47.56672" lon="-3.10304">
        <time>2018-01-21T14:23:55.000Z</time>
      </trkpt>
      <trkpt lat="47.56681" lon="-3.10305">
        <time>2018-01-21T14:23:56.000Z</time>
      </trkpt>
      <trkpt lat="47.56689" lon="-3.10304">
        <time>2018-01-21T14:23:57.000Z</time>
      </trkpt>
      <trkpt lat="47.56698" lon="-3.10304">
        <time>2018-01-21T14:23:58.000Z</time>
      </trkpt>
      <trkpt lat="47.56706" lon="-3.10303">
        <time>2018-01-21T14:23:59.000Z</time>
      </trkpt>
      <trkpt lat="47.56714" lon="-3.10303">
        <time>2018-01-21T14:24:00.000Z</time>
      </trkpt>
      <trkpt lat="47.56721" lon="-3.10301">
        <time>2018-01-21T14:24:01.000Z</time>
      </trkpt>
      <trkpt lat="47.5673" lon="-3.10298">
        <time>2018-01-21T14:24:02.000Z</time>
      </trkpt>
      <trkpt lat="47.56738" lon="-3.10296">
        <time>2018-01-21T14:24:03.000Z</time>
      </trkpt>
      <trkpt lat="47.56746" lon="-3.10295">
        <time>2018-01-21T14:24:04.000Z</time>
      </trkpt>
      <trkpt lat="47.56753" lon="-3.10293">
        <time>2018-01-21T14:24:05.000Z</time>
      </trkpt>
      <trkpt lat="47.56762" lon="-3.10292">
        <time>2018-01-21T14:24:06.000Z</time>
      </trkpt>
      <trkpt lat="47.5677" lon="-3.10289">
        <time>2018-01-21T14:24:07.000Z</time>
      </trkpt>
      <trkpt lat="47.56778" lon="-3.10287">
        <time>2018-01-21T14:24:08.000Z</time>
      </trkpt>
      <trkpt lat="47.56786" lon="-3.10283">
        <time>2018-01-21T14:24:09.000Z</time>
      </trkpt>
      <trkpt lat="47.56794" lon="-3.1028">
        <time>2018-01-21T14:24:10.000Z</time>
      </trkpt>
      <trkpt lat="47.56802" lon="-3.10277">
        <time>2018-01-21T14:24:11.000Z</time>
      </trkpt>
      <trkpt lat="47.5681" lon="-3.10274">
        <time>2018-01-21T14:24:12.000Z</time>
      </trkpt>
      <trkpt lat="47.56818" lon="-3.10272">
        <time>2018-01-21T14:24:13.000Z</time>
      </trkpt>
      <trkpt lat="47.56826" lon="-3.10269">
        <time>2018-01-21T14:24:14.000Z</time>
      </trkpt>
      <trkpt lat="47.56833" lon="-3.10267">
        <time>2018-01-21T14:24:15.000Z</time>
      </trkpt>
      <trkpt lat="47.56839" lon="-3.10265">
        <time>2018-01-21T14:24:16.000Z</time>
      </trkpt>
      <trkpt lat="47.56846" lon="-3.10262">
        <time>2018-01-21T14:24:17.000Z</time>
      </trkpt>
      <trkpt lat="47.56852" lon="-3.10259">
        <time>2018-01-21T14:24:18.000Z</time>
      </trkpt>
      <trkpt lat="47.56859" lon="-3.10256">
        <time>2018-01-21T14:24:19.000Z</time>
      </trkpt>
      <trkpt lat="47.56866" lon="-3.10254">
        <time>2018-01-21T14:24:20.000Z</time>
      </trkpt>
      <trkpt lat="47.56873" lon="-3.10253">
        <time>2018-01-21T14:24:21.000Z</time>
      </trkpt>
      <trkpt lat="47.56879" lon="-3.10252">
        <time>2018-01-21T14:24:22.000Z</time>
      </trkpt>
      <trkpt lat="47.56885" lon="-3.1025">
        <time>2018-01-21T14:24:23.000Z</time>
      </trkpt>
      <trkpt lat="47.56892" lon="-3.1025">
        <time>2018-01-21T14:24:24.000Z</time>
      </trkpt>
      <trkpt lat="47.56899" lon="-3.10252">
        <time>2018-01-21T14:24:25.000Z</time>
      </trkpt>
      <trkpt lat="47.56905" lon="-3.10253">
        <time>2018-01-21T14:24:26.000Z</time>
      </trkpt>
      <trkpt lat="47.5691" lon="-3.10253">
        <time>2018-01-21T14:24:27.000Z</time>
      </trkpt>
      <trkpt lat="47.56916" lon="-3.10253">
        <time>2018-01-21T14:24:28.000Z</time>
      </trkpt>
      <trkpt lat="47.56923" lon="-3.10251">
        <time>2018-01-21T14:24:29.000Z</time>
      </trkpt>
      <trkpt lat="47.56928" lon="-3.1025">
        <time>2018-01-21T14:24:30.000Z</time>
      </trkpt>
      <trkpt lat="47.56933" lon="-3.1025">
        <time>2018-01-21T14:24:31.000Z</time>
      </trkpt>
      <trkpt lat="47.56938" lon="-3.10251">
        <time>2018-01-21T14:24:32.000Z</time>
      </trkpt>
      <trkpt lat="47.56944" lon="-3.10251">
        <time>2018-01-21T14:24:33.000Z</time>
      </trkpt>
      <trkpt lat="47.56948" lon="-3.10249">
        <time>2018-01-21T14:24:34.000Z</time>
      </trkpt>
      <trkpt lat="47.56952" lon="-3.10247">
        <time>2018-01-21T14:24:35.000Z</time>
      </trkpt>
      <trkpt lat="47.56956" lon="-3.10245">
        <time>2018-01-21T14:24:36.000Z</time>
      </trkpt>
      <trkpt lat="47.5696" lon="-3.10242">
        <time>2018-01-21T14:24:37.000Z</time>
      </trkpt>
      <trkpt lat="47.56964" lon="-3.1024">
        <time>2018-01-21T14:24:38.000Z</time>
      </trkpt>
      <trkpt lat="47.56968" lon="-3.10239">
        <time>2018-01-21T14:24:39.000Z</time>
      </trkpt>
      <trkpt lat="47.56972" lon="-3.10239">
        <time>2018-01-21T14:24:40.000Z</time>
      </trkpt>
      <trkpt lat="47.56975" lon="-3.10241">
        <time>2018-01-21T14:24:41.000Z</time>
      </trkpt>
      <trkpt lat="47.56977" lon="-3.10242">
        <time>2018-01-21T14:24:42.000Z</time>
      </trkpt>
      <trkpt lat="47.56977" lon="-3.10243">
        <time>2018-01-21T14:24:43.000Z</time>
      </trkpt>
      <trkpt lat="47.56978" lon="-3.10244">
        <time>2018-01-21T14:24:44.000Z</time>
      </trkpt>
      <trkpt lat="47.56978" lon="-3.10246">
        <time>2018-01-21T14:24:45.000Z</time>
      </trkpt>
      <trkpt lat="47.56977" lon="-3.10247">
        <time>2018-01-21T14:24:46.000Z</time>
      </trkpt>
      <trkpt lat="47.56977" lon="-3.10247">
        <time>2018-01-21T14:24:47.000Z</time>
      </trkpt>
      <trkpt lat="47.56977" lon="-3.10247">
        <time>2018-01-21T14:24:48.000Z</time>
      </trkpt>
      <trkpt lat="47.56977" lon="-3.10247">
        <time>2018-01-21T14:24:49.000Z</time>
      </trkpt>
      <trkpt lat="47.56977" lon="-3.10247">
        <time>2018-01-21T14:24:50.000Z</time>
      </trkpt>
      <trkpt lat="47.56977" lon="-3.10247">
        <time>2018-01-21T14:24:51.000Z</time>
      </trkpt>
      <trkpt lat="47.56977" lon="-3.10247">
        <time>2018-01-21T14:24:52.000Z</time>
      </trkpt>
      <trkpt lat="47.56977" lon="-3.10247">
        <time>2018-01-21T14:24:53.000Z</time>
      </trkpt>
      <trkpt lat="47.56977" lon="-3.10247">
        <time>2018-01-21T14:24:54.000Z</time>
      </trkpt>
      <trkpt lat="47.56977" lon="-3.10247">
        <time>2018-01-21T14:24:55.000Z</time>
      </trkpt>
      <trkpt lat="47.56977" lon="-3.10247">
        <time>2018-01-21T14:24:56.000Z</time>
      </trkpt>
      <trkpt lat="47.56977" lon="-3.10247">
        <time>2018-01-21T14:24:57.000Z</time>
      </trkpt>
      <trkpt lat="47.56977" lon="-3.10247">
        <time>2018-01-21T14:24:58.000Z</time>
      </trkpt>
      <trkpt lat="47.56977" lon="-3.10247">
        <time>2018-01-21T14:24:59.000Z</time>
      </trkpt>
      <trkpt lat="47.56977" lon="-3.10247">
        <time>2018-01-21T14:25:00.000Z</time>
      </trkpt>
      <trkpt lat="47.56977" lon="-3.10247">
        <time>2018-01-21T14:25:01.000Z</time>
      </trkpt>
      <trkpt lat="47.56977" lon="-3.10247">
        <time>2018-01-21T14:25:02.000Z</time>
      </trkpt>
      <trkpt lat="47.56977" lon="-3.10247">
        <time>2018-01-21T14:25:03.000Z</time>
      </trkpt>
      <trkpt lat="47.56977" lon="-3.10247">
        <time>2018-01-21T14:25:04.000Z</time>
      </trkpt>
      <trkpt lat="47.56977" lon="-3.10247">
        <time>2018-01-21T14:25:05.000Z</time>
      </trkpt>
      <trkpt lat="47.56977" lon="-3.10247">
        <time>2018-01-21T14:25:06.000Z</time>
      </trkpt>
      <trkpt lat="47.56977" lon="-3.10247">
        <time>2018-01-21T14:25:07.000Z</time>
      </trkpt>
      <trkpt lat="47.56977" lon="-3.10247">
        <time>2018-01-21T14:25:08.000Z</time>
      </trkpt>
      <trkpt lat="47.56977" lon="-3.10247">
        <time>2018-01-21T14:25:09.000Z</time>
      </trkpt>
      <trkpt lat="47.56977" lon="-3.10247">
        <time>2018-01-21T14:25:10.000Z</time>
      </trkpt>
      <trkpt lat="47.56977" lon="-3.10247">
        <time>2018-01-21T14:25:11.000Z</time>
      </trkpt>
      <trkpt lat="47.56977" lon="-3.10247">
        <time>2018-01-21T14:25:12.000Z</time>
      </trkpt>
      <trkpt lat="47.56977" lon="-3.10247">
        <time>2018-01-21T14:25:13.000Z</time>
      </trkpt>
      <trkpt lat="47.56977" lon="-3.10247">
        <time>2018-01-21T14:25:14.000Z</time>
      </trkpt>
      <trkpt lat="47.56977" lon="-3.10247">
        <time>2018-01-21T14:25:15.000Z</time>
      </trkpt>
      <trkpt lat="47.56977" lon="-3.10247">
        <time>2018-01-21T14:25:16.000Z</time>
      </trkpt>
      <trkpt lat="47.56977" lon="-3.10247">
        <time>2018-01-21T14:25:17.000Z</time>
      </trkpt>
      <trkpt lat="47.56976" lon="-3.10244">
        <time>2018-01-21T14:25:18.000Z</time>
      </trkpt>
      <trkpt lat="47.56972" lon="-3.10233">
        <time>2018-01-21T14:25:19.000Z</time>
      </trkpt>
      <trkpt lat="47.56971" lon="-3.10231">
        <time>2018-01-21T14:25:20.000Z</time>
      </trkpt>
      <trkpt lat="47.5697" lon="-3.10229">
        <time>2018-01-21T14:25:21.000Z</time>
      </trkpt>
      <trkpt lat="47.5697" lon="-3.10229">
        <time>2018-01-21T14:25:22.000Z</time>
      </trkpt>
      <trkpt lat="47.5697" lon="-3.10229">
        <time>2018-01-21T14:25:23.000Z</time>
      </trkpt>
      <trkpt lat="47.5697" lon="-3.10229">
        <time>2018-01-21T14:25:24.000Z</time>
      </trkpt>
      <trkpt lat="47.5697" lon="-3.10229">
        <time>2018-01-21T14:25:25.000Z</time>
      </trkpt>
      <trkpt lat="47.5697" lon="-3.10229">
        <time>2018-01-21T14:25:26.000Z</time>
      </trkpt>
      <trkpt lat="47.5697" lon="-3.10229">
        <time>2018-01-21T14:25:27.000Z</time>
      </trkpt>
      <trkpt lat="47.5697" lon="-3.10229">
        <time>2018-01-21T14:25:28.000Z</time>
      </trkpt>
      <trkpt lat="47.5697" lon="-3.10229">
        <time>2018-01-21T14:25:29.000Z</time>
      </trkpt>
      <trkpt lat="47.5697" lon="-3.10229">
        <time>2018-01-21T14:25:30.000Z</time>
      </trkpt>
      <trkpt lat="47.5697" lon="-3.10229">
        <time>2018-01-21T14:25:31.000Z</time>
      </trkpt>
      <trkpt lat="47.5697" lon="-3.10229">
        <time>2018-01-21T14:25:32.000Z</time>
      </trkpt>
      <trkpt lat="47.5697" lon="-3.10229">
        <time>2018-01-21T14:25:33.000Z</time>
      </trkpt>
      <trkpt lat="47.5697" lon="-3.10229">
        <time>2018-01-21T14:25:34.000Z</time>
      </trkpt>
      <trkpt lat="47.5697" lon="-3.10229">
        <time>2018-01-21T14:25:35.000Z</time>
      </trkpt>
      <trkpt lat="47.5697" lon="-3.10229">
        <time>2018-01-21T14:25:36.000Z</time>
      </trkpt>
      <trkpt lat="47.5697" lon="-3.10229">
        <time>2018-01-21T14:25:37.000Z</time>
      </trkpt>
      <trkpt lat="47.5697" lon="-3.10229">
        <time>2018-01-21T14:25:38.000Z</time>
      </trkpt>
      <trkpt lat="47.5697" lon="-3.10229">
        <time>2018-01-21T14:25:39.000Z</time>
      </trkpt>
      <trkpt lat="47.5697" lon="-3.10229">
        <time>2018-01-21T14:25:40.000Z</time>
      </trkpt>
      <trkpt lat="47.5697" lon="-3.10229">
        <time>2018-01-21T14:25:41.000Z</time>
      </trkpt>
      <trkpt lat="47.5697" lon="-3.10229">
        <time>2018-01-21T14:25:42.000Z</time>
      </trkpt>
      <trkpt lat="47.5697" lon="-3.10229">
        <time>2018-01-21T14:25:43.000Z</time>
      </trkpt>
      <trkpt lat="47.5697" lon="-3.10229">
        <time>2018-01-21T14:25:44.000Z</time>
      </trkpt>
      <trkpt lat="47.5697" lon="-3.10229">
        <time>2018-01-21T14:25:45.000Z</time>
      </trkpt>
      <trkpt lat="47.5697" lon="-3.10229">
        <time>2018-01-21T14:25:46.000Z</time>
      </trkpt>
      <trkpt lat="47.5697" lon="-3.10229">
        <time>2018-01-21T14:25:47.000Z</time>
      </trkpt>
      <trkpt lat="47.5697" lon="-3.10229">
        <time>2018-01-21T14:25:48.000Z</time>
      </trkpt>
      <trkpt lat="47.5697" lon="-3.10229">
        <time>2018-01-21T14:25:49.000Z</time>
      </trkpt>
      <trkpt lat="47.5697" lon="-3.10229">
        <time>2018-01-21T14:25:50.000Z</time>
      </trkpt>
      <trkpt lat="47.5697" lon="-3.10229">
        <time>2018-01-21T14:25:51.000Z</time>
      </trkpt>
      <trkpt lat="47.5697" lon="-3.10229">
        <time>2018-01-21T14:25:52.000Z</time>
      </trkpt>
      <trkpt lat="47.5697" lon="-3.10229">
        <time>2018-01-21T14:25:53.000Z</time>
      </trkpt>
      <trkpt lat="47.5697" lon="-3.10229">
        <time>2018-01-21T14:25:54.000Z</time>
      </trkpt>
      <trkpt lat="47.56964" lon="-3.10215">
        <time>2018-01-21T14:25:55.000Z</time>
      </trkpt>
      <trkpt lat="47.56963" lon="-3.10213">
        <time>2018-01-21T14:25:56.000Z</time>
      </trkpt>
      <trkpt lat="47.56963" lon="-3.10211">
        <time>2018-01-21T14:25:57.000Z</time>
      </trkpt>
      <trkpt lat="47.56962" lon="-3.1021">
        <time>2018-01-21T14:25:58.000Z</time>
      </trkpt>
      <trkpt lat="47.56962" lon="-3.1021">
        <time>2018-01-21T14:25:59.000Z</time>
      </trkpt>
      <trkpt lat="47.56962" lon="-3.1021">
        <time>2018-01-21T14:26:00.000Z</time>
      </trkpt>
      <trkpt lat="47.56962" lon="-3.1021">
        <time>2018-01-21T14:26:01.000Z</time>
      </trkpt>
      <trkpt lat="47.56962" lon="-3.1021">
        <time>2018-01-21T14:26:02.000Z</time>
      </trkpt>
      <trkpt lat="47.56962" lon="-3.1021">
        <time>2018-01-21T14:26:03.000Z</time>
      </trkpt>
      <trkpt lat="47.56962" lon="-3.1021">
        <time>2018-01-21T14:26:04.000Z</time>
      </trkpt>
      <trkpt lat="47.56962" lon="-3.1021">
        <time>2018-01-21T14:26:05.000Z</time>
      </trkpt>
      <trkpt lat="47.56962" lon="-3.1021">
        <time>2018-01-21T14:26:06.000Z</time>
      </trkpt>
      <trkpt lat="47.56962" lon="-3.1021">
        <time>2018-01-21T14:26:07.000Z</time>
      </trkpt>
      <trkpt lat="47.56962" lon="-3.1021">
        <time>2018-01-21T14:26:08.000Z</time>
      </trkpt>
      <trkpt lat="47.56957" lon="-3.10199">
        <time>2018-01-21T14:26:09.000Z</time>
      </trkpt>
      <trkpt lat="47.56956" lon="-3.10199">
        <time>2018-01-21T14:26:10.000Z</time>
      </trkpt>
      <trkpt lat="47.56957" lon="-3.10198">
        <time>2018-01-21T14:26:11.000Z</time>
      </trkpt>
      <trkpt lat="47.56957" lon="-3.10198">
        <time>2018-01-21T14:26:12.000Z</time>
      </trkpt>
      <trkpt lat="47.56957" lon="-3.10198">
        <time>2018-01-21T14:26:13.000Z</time>
      </trkpt>
      <trkpt lat="47.56957" lon="-3.10198">
        <time>2018-01-21T14:26:14.000Z</time>
      </trkpt>
      <trkpt lat="47.56957" lon="-3.10198">
        <time>2018-01-21T14:26:15.000Z</time>
      </trkpt>
      <trkpt lat="47.56957" lon="-3.10198">
        <time>2018-01-21T14:26:16.000Z</time>
      </trkpt>
      <trkpt lat="47.56957" lon="-3.10198">
        <time>2018-01-21T14:26:17.000Z</time>
      </trkpt>
      <trkpt lat="47.56957" lon="-3.10198">
        <time>2018-01-21T14:26:18.000Z</time>
      </trkpt>
      <trkpt lat="47.56957" lon="-3.10198">
        <time>2018-01-21T14:26:19.000Z</time>
      </trkpt>
      <trkpt lat="47.56957" lon="-3.10198">
        <time>2018-01-21T14:26:20.000Z</time>
      </trkpt>
      <trkpt lat="47.56957" lon="-3.10198">
        <time>2018-01-21T14:26:21.000Z</time>
      </trkpt>
      <trkpt lat="47.56957" lon="-3.10198">
        <time>2018-01-21T14:26:22.000Z</time>
      </trkpt>
      <trkpt lat="47.56957" lon="-3.10198">
        <time>2018-01-21T14:26:23.000Z</time>
      </trkpt>
      <trkpt lat="47.56957" lon="-3.10198">
        <time>2018-01-21T14:26:24.000Z</time>
      </trkpt>
      <trkpt lat="47.56957" lon="-3.10198">
        <time>2018-01-21T14:26:25.000Z</time>
      </trkpt>
      <trkpt lat="47.56957" lon="-3.10198">
        <time>2018-01-21T14:26:26.000Z</time>
      </trkpt>
      <trkpt lat="47.56957" lon="-3.10198">
        <time>2018-01-21T14:26:27.000Z</time>
      </trkpt>
      <trkpt lat="47.56957" lon="-3.10198">
        <time>2018-01-21T14:26:28.000Z</time>
      </trkpt>
      <trkpt lat="47.56957" lon="-3.10198">
        <time>2018-01-21T14:26:29.000Z</time>
      </trkpt>
      <trkpt lat="47.56957" lon="-3.10198">
        <time>2018-01-21T14:26:30.000Z</time>
      </trkpt>
      <trkpt lat="47.56957" lon="-3.10198">
        <time>2018-01-21T14:26:31.000Z</time>
      </trkpt>
      <trkpt lat="47.56957" lon="-3.10198">
        <time>2018-01-21T14:26:32.000Z</time>
      </trkpt>
      <trkpt lat="47.56957" lon="-3.10198">
        <time>2018-01-21T14:26:33.000Z</time>
      </trkpt>
      <trkpt lat="47.56957" lon="-3.10198">
        <time>2018-01-21T14:26:34.000Z</time>
      </trkpt>
      <trkpt lat="47.56957" lon="-3.10198">
        <time>2018-01-21T14:26:35.000Z</time>
      </trkpt>
      <trkpt lat="47.56957" lon="-3.10198">
        <time>2018-01-21T14:26:36.000Z</time>
      </trkpt>
      <trkpt lat="47.56957" lon="-3.10198">
        <time>2018-01-21T14:26:37.000Z</time>
      </trkpt>
      <trkpt lat="47.56957" lon="-3.10198">
        <time>2018-01-21T14:26:38.000Z</time>
      </trkpt>
      <trkpt lat="47.56957" lon="-3.10198">
        <time>2018-01-21T14:26:39.000Z</time>
      </trkpt>
      <trkpt lat="47.56957" lon="-3.10198">
        <time>2018-01-21T14:26:40.000Z</time>
      </trkpt>
      <trkpt lat="47.56957" lon="-3.10198">
        <time>2018-01-21T14:26:41.000Z</time>
      </trkpt>
      <trkpt lat="47.56957" lon="-3.10198">
        <time>2018-01-21T14:26:42.000Z</time>
      </trkpt>
      <trkpt lat="47.56957" lon="-3.10198">
        <time>2018-01-21T14:26:43.000Z</time>
      </trkpt>
      <trkpt lat="47.56957" lon="-3.10198">
        <time>2018-01-21T14:26:44.000Z</time>
      </trkpt>
      <trkpt lat="47.56957" lon="-3.10198">
        <time>2018-01-21T14:26:45.000Z</time>
      </trkpt>
      <trkpt lat="47.56957" lon="-3.10198">
        <time>2018-01-21T14:26:46.000Z</time>
      </trkpt>
      <trkpt lat="47.56957" lon="-3.10198">
        <time>2018-01-21T14:26:47.000Z</time>
      </trkpt>
      <trkpt lat="47.56957" lon="-3.10198">
        <time>2018-01-21T14:26:48.000Z</time>
      </trkpt>
      <trkpt lat="47.56957" lon="-3.10198">
        <time>2018-01-21T14:26:49.000Z</time>
      </trkpt>
      <trkpt lat="47.56957" lon="-3.10198">
        <time>2018-01-21T14:26:50.000Z</time>
      </trkpt>
      <trkpt lat="47.56957" lon="-3.10198">
        <time>2018-01-21T14:26:51.000Z</time>
      </trkpt>
      <trkpt lat="47.56965" lon="-3.10225">
        <time>2018-01-21T14:26:52.000Z</time>
      </trkpt>
      <trkpt lat="47.56966" lon="-3.10232">
        <time>2018-01-21T14:26:53.000Z</time>
      </trkpt>
      <trkpt lat="47.56967" lon="-3.10235">
        <time>2018-01-21T14:26:54.000Z</time>
      </trkpt>
      <trkpt lat="47.56967" lon="-3.10236">
        <time>2018-01-21T14:26:55.000Z</time>
      </trkpt>
      <trkpt lat="47.56967" lon="-3.10236">
        <time>2018-01-21T14:26:56.000Z</time>
      </trkpt>
      <trkpt lat="47.56967" lon="-3.10236">
        <time>2018-01-21T14:26:57.000Z</time>
      </trkpt>
      <trkpt lat="47.56967" lon="-3.10236">
        <time>2018-01-21T14:26:58.000Z</time>
      </trkpt>
      <trkpt lat="47.56967" lon="-3.10236">
        <time>2018-01-21T14:26:59.000Z</time>
      </trkpt>
      <trkpt lat="47.56968" lon="-3.10223">
        <time>2018-01-21T14:27:00.000Z</time>
      </trkpt>
      <trkpt lat="47.56967" lon="-3.10218">
        <time>2018-01-21T14:27:01.000Z</time>
      </trkpt>
      <trkpt lat="47.56967" lon="-3.10216">
        <time>2018-01-21T14:27:02.000Z</time>
      </trkpt>
      <trkpt lat="47.56967" lon="-3.10213">
        <time>2018-01-21T14:27:03.000Z</time>
      </trkpt>
      <trkpt lat="47.56967" lon="-3.10213">
        <time>2018-01-21T14:27:04.000Z</time>
      </trkpt>
      <trkpt lat="47.56967" lon="-3.10213">
        <time>2018-01-21T14:27:05.000Z</time>
      </trkpt>
      <trkpt lat="47.56967" lon="-3.10213">
        <time>2018-01-21T14:27:06.000Z</time>
      </trkpt>
      <trkpt lat="47.56967" lon="-3.10213">
        <time>2018-01-21T14:27:07.000Z</time>
      </trkpt>
      <trkpt lat="47.56967" lon="-3.10213">
        <time>2018-01-21T14:27:08.000Z</time>
      </trkpt>
      <trkpt lat="47.56967" lon="-3.10213">
        <time>2018-01-21T14:27:09.000Z</time>
      </trkpt>
      <trkpt lat="47.56967" lon="-3.10213">
        <time>2018-01-21T14:27:10.000Z</time>
      </trkpt>
      <trkpt lat="47.56965" lon="-3.10199">
        <time>2018-01-21T14:27:11.000Z</time>
      </trkpt>
      <trkpt lat="47.56965" lon="-3.10197">
        <time>2018-01-21T14:27:12.000Z</time>
      </trkpt>
      <trkpt lat="47.56964" lon="-3.10195">
        <time>2018-01-21T14:27:13.000Z</time>
      </trkpt>
      <trkpt lat="47.56964" lon="-3.10193">
        <time>2018-01-21T14:27:14.000Z</time>
      </trkpt>
      <trkpt lat="47.56964" lon="-3.10193">
        <time>2018-01-21T14:27:15.000Z</time>
      </trkpt>
      <trkpt lat="47.56964" lon="-3.10193">
        <time>2018-01-21T14:27:16.000Z</time>
      </trkpt>
      <trkpt lat="47.56964" lon="-3.10193">
        <time>2018-01-21T14:27:17.000Z</time>
      </trkpt>
      <trkpt lat="47.56964" lon="-3.10193">
        <time>2018-01-21T14:27:18.000Z</time>
      </trkpt>
      <trkpt lat="47.56964" lon="-3.10193">
        <time>2018-01-21T14:27:19.000Z</time>
      </trkpt>
      <trkpt lat="47.56964" lon="-3.10193">
        <time>2018-01-21T14:27:20.000Z</time>
      </trkpt>
      <trkpt lat="47.56964" lon="-3.10193">
        <time>2018-01-21T14:27:21.000Z</time>
      </trkpt>
      <trkpt lat="47.56964" lon="-3.10193">
        <time>2018-01-21T14:27:22.000Z</time>
      </trkpt>
      <trkpt lat="47.56964" lon="-3.10193">
        <time>2018-01-21T14:27:23.000Z</time>
      </trkpt>
      <trkpt lat="47.56964" lon="-3.10193">
        <time>2018-01-21T14:27:24.000Z</time>
      </trkpt>
      <trkpt lat="47.56964" lon="-3.10193">
        <time>2018-01-21T14:27:25.000Z</time>
      </trkpt>
      <trkpt lat="47.56961" lon="-3.10177">
        <time>2018-01-21T14:27:26.000Z</time>
      </trkpt>
      <trkpt lat="47.5696" lon="-3.10175">
        <time>2018-01-21T14:27:27.000Z</time>
      </trkpt>
      <trkpt lat="47.5696" lon="-3.10174">
        <time>2018-01-21T14:27:28.000Z</time>
      </trkpt>
      <trkpt lat="47.5696" lon="-3.10173">
        <time>2018-01-21T14:27:29.000Z</time>
      </trkpt>
      <trkpt lat="47.5696" lon="-3.10173">
        <time>2018-01-21T14:27:30.000Z</time>
      </trkpt>
      <trkpt lat="47.5696" lon="-3.10173">
        <time>2018-01-21T14:27:31.000Z</time>
      </trkpt>
      <trkpt lat="47.5696" lon="-3.10173">
        <time>2018-01-21T14:27:32.000Z</time>
      </trkpt>
      <trkpt lat="47.5696" lon="-3.10173">
        <time>2018-01-21T14:27:33.000Z</time>
      </trkpt>
      <trkpt lat="47.5696" lon="-3.10173">
        <time>2018-01-21T14:27:34.000Z</time>
      </trkpt>
      <trkpt lat="47.5696" lon="-3.10173">
        <time>2018-01-21T14:27:35.000Z</time>
      </trkpt>
      <trkpt lat="47.5696" lon="-3.10173">
        <time>2018-01-21T14:27:36.000Z</time>
      </trkpt>
      <trkpt lat="47.5696" lon="-3.10173">
        <time>2018-01-21T14:27:37.000Z</time>
      </trkpt>
      <trkpt lat="47.5696" lon="-3.10173">
        <time>2018-01-21T14:27:38.000Z</time>
      </trkpt>
      <trkpt lat="47.5696" lon="-3.10173">
        <time>2018-01-21T14:27:39.000Z</time>
      </trkpt>
      <trkpt lat="47.5696" lon="-3.10173">
        <time>2018-01-21T14:27:40.000Z</time>
      </trkpt>
      <trkpt lat="47.5696" lon="-3.10173">
        <time>2018-01-21T14:27:41.000Z</time>
      </trkpt>
      <trkpt lat="47.5696" lon="-3.10173">
        <time>2018-01-21T14:27:42.000Z</time>
      </trkpt>
      <trkpt lat="47.5696" lon="-3.10173">
        <time>2018-01-21T14:27:43.000Z</time>
      </trkpt>
      <trkpt lat="47.5696" lon="-3.10173">
        <time>2018-01-21T14:27:44.000Z</time>
      </trkpt>
      <trkpt lat="47.5696" lon="-3.10173">
        <time>2018-01-21T14:27:45.000Z</time>
      </trkpt>
      <trkpt lat="47.5696" lon="-3.10173">
        <time>2018-01-21T14:27:46.000Z</time>
      </trkpt>
      <trkpt lat="47.5696" lon="-3.10173">
        <time>2018-01-21T14:27:47.000Z</time>
      </trkpt>
      <trkpt lat="47.5696" lon="-3.10173">
        <time>2018-01-21T14:27:48.000Z</time>
      </trkpt>
      <trkpt lat="47.5696" lon="-3.10173">
        <time>2018-01-21T14:27:49.000Z</time>
      </trkpt>
      <trkpt lat="47.5696" lon="-3.10173">
        <time>2018-01-21T14:27:50.000Z</time>
      </trkpt>
      <trkpt lat="47.5696" lon="-3.10173">
        <time>2018-01-21T14:27:51.000Z</time>
      </trkpt>
      <trkpt lat="47.5696" lon="-3.10173">
        <time>2018-01-21T14:27:52.000Z</time>
      </trkpt>
      <trkpt lat="47.5696" lon="-3.10173">
        <time>2018-01-21T14:27:53.000Z</time>
      </trkpt>
      <trkpt lat="47.56957" lon="-3.1016">
        <time>2018-01-21T14:27:54.000Z</time>
      </trkpt>
      <trkpt lat="47.56957" lon="-3.1016">
        <time>2018-01-21T14:27:55.000Z</time>
      </trkpt>
      <trkpt lat="47.56956" lon="-3.10159">
        <time>2018-01-21T14:27:56.000Z</time>
      </trkpt>
      <trkpt lat="47.56957" lon="-3.10159">
        <time>2018-01-21T14:27:57.000Z</time>
      </trkpt>
      <trkpt lat="47.56957" lon="-3.10159">
        <time>2018-01-21T14:27:58.000Z</time>
      </trkpt>
      <trkpt lat="47.56957" lon="-3.10159">
        <time>2018-01-21T14:27:59.000Z</time>
      </trkpt>
      <trkpt lat="47.56957" lon="-3.10159">
        <time>2018-01-21T14:28:00.000Z</time>
      </trkpt>
      <trkpt lat="47.56957" lon="-3.10159">
        <time>2018-01-21T14:28:01.000Z</time>
      </trkpt>
      <trkpt lat="47.56957" lon="-3.10159">
        <time>2018-01-21T14:28:02.000Z</time>
      </trkpt>
      <trkpt lat="47.56957" lon="-3.10159">
        <time>2018-01-21T14:28:03.000Z</time>
      </trkpt>
      <trkpt lat="47.56957" lon="-3.10159">
        <time>2018-01-21T14:28:04.000Z</time>
      </trkpt>
      <trkpt lat="47.56957" lon="-3.10159">
        <time>2018-01-21T14:28:05.000Z</time>
      </trkpt>
      <trkpt lat="47.56957" lon="-3.10159">
        <time>2018-01-21T14:28:06.000Z</time>
      </trkpt>
      <trkpt lat="47.56957" lon="-3.10159">
        <time>2018-01-21T14:28:07.000Z</time>
      </trkpt>
      <trkpt lat="47.56957" lon="-3.10159">
        <time>2018-01-21T14:28:08.000Z</time>
      </trkpt>
      <trkpt lat="47.56957" lon="-3.10159">
        <time>2018-01-21T14:28:09.000Z</time>
      </trkpt>
      <trkpt lat="47.56957" lon="-3.10159">
        <time>2018-01-21T14:28:10.000Z</time>
      </trkpt>
      <trkpt lat="47.56957" lon="-3.10159">
        <time>2018-01-21T14:28:11.000Z</time>
      </trkpt>
      <trkpt lat="47.56957" lon="-3.10159">
        <time>2018-01-21T14:28:12.000Z</time>
      </trkpt>
      <trkpt lat="47.56957" lon="-3.10159">
        <time>2018-01-21T14:28:13.000Z</time>
      </trkpt>
      <trkpt lat="47.56957" lon="-3.10159">
        <time>2018-01-21T14:28:14.000Z</time>
      </trkpt>
      <trkpt lat="47.56957" lon="-3.10159">
        <time>2018-01-21T14:28:15.000Z</time>
      </trkpt>
      <trkpt lat="47.56957" lon="-3.10159">
        <time>2018-01-21T14:28:16.000Z</time>
      </trkpt>
      <trkpt lat="47.56957" lon="-3.10159">
        <time>2018-01-21T14:28:17.000Z</time>
      </trkpt>
      <trkpt lat="47.56957" lon="-3.10159">
        <time>2018-01-21T14:28:18.000Z</time>
      </trkpt>
      <trkpt lat="47.56957" lon="-3.10159">
        <time>2018-01-21T14:28:19.000Z</time>
      </trkpt>
      <trkpt lat="47.56957" lon="-3.10159">
        <time>2018-01-21T14:28:20.000Z</time>
      </trkpt>
      <trkpt lat="47.56957" lon="-3.10159">
        <time>2018-01-21T14:28:21.000Z</time>
      </trkpt>
      <trkpt lat="47.56957" lon="-3.10159">
        <time>2018-01-21T14:28:22.000Z</time>
      </trkpt>
      <trkpt lat="47.56957" lon="-3.10159">
        <time>2018-01-21T14:28:23.000Z</time>
      </trkpt>
      <trkpt lat="47.56957" lon="-3.10159">
        <time>2018-01-21T14:28:24.000Z</time>
      </trkpt>
      <trkpt lat="47.56957" lon="-3.10159">
        <time>2018-01-21T14:28:25.000Z</time>
      </trkpt>
      <trkpt lat="47.56957" lon="-3.10159">
        <time>2018-01-21T14:28:26.000Z</time>
      </trkpt>
      <trkpt lat="47.56957" lon="-3.10159">
        <time>2018-01-21T14:28:27.000Z</time>
      </trkpt>
      <trkpt lat="47.56957" lon="-3.10159">
        <time>2018-01-21T14:28:28.000Z</time>
      </trkpt>
      <trkpt lat="47.56957" lon="-3.10159">
        <time>2018-01-21T14:28:29.000Z</time>
      </trkpt>
      <trkpt lat="47.56957" lon="-3.10159">
        <time>2018-01-21T14:28:30.000Z</time>
      </trkpt>
      <trkpt lat="47.56957" lon="-3.10159">
        <time>2018-01-21T14:28:31.000Z</time>
      </trkpt>
      <trkpt lat="47.56957" lon="-3.10159">
        <time>2018-01-21T14:28:32.000Z</time>
      </trkpt>
      <trkpt lat="47.56957" lon="-3.10159">
        <time>2018-01-21T14:28:33.000Z</time>
      </trkpt>
      <trkpt lat="47.56957" lon="-3.10159">
        <time>2018-01-21T14:28:34.000Z</time>
      </trkpt>
      <trkpt lat="47.56957" lon="-3.10159">
        <time>2018-01-21T14:28:35.000Z</time>
      </trkpt>
      <trkpt lat="47.56957" lon="-3.10159">
        <time>2018-01-21T14:28:36.000Z</time>
      </trkpt>
      <trkpt lat="47.56957" lon="-3.10159">
        <time>2018-01-21T14:28:37.000Z</time>
      </trkpt>
      <trkpt lat="47.56957" lon="-3.10159">
        <time>2018-01-21T14:28:38.000Z</time>
      </trkpt>
      <trkpt lat="47.56957" lon="-3.10159">
        <time>2018-01-21T14:28:39.000Z</time>
      </trkpt>
      <trkpt lat="47.56957" lon="-3.10159">
        <time>2018-01-21T14:28:40.000Z</time>
      </trkpt>
      <trkpt lat="47.56957" lon="-3.10159">
        <time>2018-01-21T14:28:41.000Z</time>
      </trkpt>
      <trkpt lat="47.56957" lon="-3.10159">
        <time>2018-01-21T14:28:42.000Z</time>
      </trkpt>
      <trkpt lat="47.56957" lon="-3.10159">
        <time>2018-01-21T14:28:43.000Z</time>
      </trkpt>
      <trkpt lat="47.56957" lon="-3.10159">
        <time>2018-01-21T14:28:44.000Z</time>
      </trkpt>
      <trkpt lat="47.56957" lon="-3.10159">
        <time>2018-01-21T14:28:45.000Z</time>
      </trkpt>
      <trkpt lat="47.56957" lon="-3.10159">
        <time>2018-01-21T14:28:46.000Z</time>
      </trkpt>
      <trkpt lat="47.56957" lon="-3.10159">
        <time>2018-01-21T14:28:47.000Z</time>
      </trkpt>
      <trkpt lat="47.56957" lon="-3.10159">
        <time>2018-01-21T14:28:48.000Z</time>
      </trkpt>
      <trkpt lat="47.56957" lon="-3.10159">
        <time>2018-01-21T14:28:49.000Z</time>
      </trkpt>
      <trkpt lat="47.56957" lon="-3.10159">
        <time>2018-01-21T14:28:50.000Z</time>
      </trkpt>
      <trkpt lat="47.56957" lon="-3.10159">
        <time>2018-01-21T14:28:51.000Z</time>
      </trkpt>
      <trkpt lat="47.56954" lon="-3.10152">
        <time>2018-01-21T14:28:52.000Z</time>
      </trkpt>
      <trkpt lat="47.56954" lon="-3.10151">
        <time>2018-01-21T14:28:53.000Z</time>
      </trkpt>
      <trkpt lat="47.56955" lon="-3.10151">
        <time>2018-01-21T14:28:54.000Z</time>
      </trkpt>
      <trkpt lat="47.56958" lon="-3.10151">
        <time>2018-01-21T14:28:55.000Z</time>
      </trkpt>
      <trkpt lat="47.56958" lon="-3.10151">
        <time>2018-01-21T14:28:56.000Z</time>
      </trkpt>
      <trkpt lat="47.56958" lon="-3.10151">
        <time>2018-01-21T14:28:57.000Z</time>
      </trkpt>
      <trkpt lat="47.56958" lon="-3.10151">
        <time>2018-01-21T14:28:58.000Z</time>
      </trkpt>
      <trkpt lat="47.56958" lon="-3.10151">
        <time>2018-01-21T14:28:59.000Z</time>
      </trkpt>
      <trkpt lat="47.56958" lon="-3.10151">
        <time>2018-01-21T14:29:00.000Z</time>
      </trkpt>
      <trkpt lat="47.56951" lon="-3.10153">
        <time>2018-01-21T14:29:01.000Z</time>
      </trkpt>
      <trkpt lat="47.56948" lon="-3.10153">
        <time>2018-01-21T14:29:02.000Z</time>
      </trkpt>
      <trkpt lat="47.56946" lon="-3.10154">
        <time>2018-01-21T14:29:03.000Z</time>
      </trkpt>
      <trkpt lat="47.56944" lon="-3.10154">
        <time>2018-01-21T14:29:04.000Z</time>
      </trkpt>
      <trkpt lat="47.56943" lon="-3.10154">
        <time>2018-01-21T14:29:05.000Z</time>
      </trkpt>
      <trkpt lat="47.56942" lon="-3.10156">
        <time>2018-01-21T14:29:06.000Z</time>
      </trkpt>
      <trkpt lat="47.5694" lon="-3.10157">
        <time>2018-01-21T14:29:07.000Z</time>
      </trkpt>
      <trkpt lat="47.56939" lon="-3.10159">
        <time>2018-01-21T14:29:08.000Z</time>
      </trkpt>
      <trkpt lat="47.56937" lon="-3.1016">
        <time>2018-01-21T14:29:09.000Z</time>
      </trkpt>
      <trkpt lat="47.56935" lon="-3.10161">
        <time>2018-01-21T14:29:10.000Z</time>
      </trkpt>
      <trkpt lat="47.56933" lon="-3.10163">
        <time>2018-01-21T14:29:11.000Z</time>
      </trkpt>
      <trkpt lat="47.56931" lon="-3.10164">
        <time>2018-01-21T14:29:12.000Z</time>
      </trkpt>
      <trkpt lat="47.56927" lon="-3.10167">
        <time>2018-01-21T14:29:13.000Z</time>
      </trkpt>
      <trkpt lat="47.56925" lon="-3.10168">
        <time>2018-01-21T14:29:14.000Z</time>
      </trkpt>
      <trkpt lat="47.56922" lon="-3.10167">
        <time>2018-01-21T14:29:15.000Z</time>
      </trkpt>
      <trkpt lat="47.56918" lon="-3.10168">
        <time>2018-01-21T14:29:16.000Z</time>
      </trkpt>
      <trkpt lat="47.56915" lon="-3.10169">
        <time>2018-01-21T14:29:17.000Z</time>
      </trkpt>
      <trkpt lat="47.56912" lon="-3.1017">
        <time>2018-01-21T14:29:18.000Z</time>
      </trkpt>
      <trkpt lat="47.56908" lon="-3.10171">
        <time>2018-01-21T14:29:19.000Z</time>
      </trkpt>
      <trkpt lat="47.56905" lon="-3.1017">
        <time>2018-01-21T14:29:20.000Z</time>
      </trkpt>
      <trkpt lat="47.56902" lon="-3.10169">
        <time>2018-01-21T14:29:21.000Z</time>
      </trkpt>
      <trkpt lat="47.56898" lon="-3.10169">
        <time>2018-01-21T14:29:22.000Z</time>
      </trkpt>
      <trkpt lat="47.56896" lon="-3.10171">
        <time>2018-01-21T14:29:23.000Z</time>
      </trkpt>
      <trkpt lat="47.56893" lon="-3.10171">
        <time>2018-01-21T14:29:24.000Z</time>
      </trkpt>
      <trkpt lat="47.5689" lon="-3.10171">
        <time>2018-01-21T14:29:25.000Z</time>
      </trkpt>
      <trkpt lat="47.56888" lon="-3.10172">
        <time>2018-01-21T14:29:26.000Z</time>
      </trkpt>
      <trkpt lat="47.56887" lon="-3.10174">
        <time>2018-01-21T14:29:27.000Z</time>
      </trkpt>
      <trkpt lat="47.56885" lon="-3.10175">
        <time>2018-01-21T14:29:28.000Z</time>
      </trkpt>
      <trkpt lat="47.56883" lon="-3.10175">
        <time>2018-01-21T14:29:29.000Z</time>
      </trkpt>
      <trkpt lat="47.56881" lon="-3.10176">
        <time>2018-01-21T14:29:30.000Z</time>
      </trkpt>
      <trkpt lat="47.56879" lon="-3.10176">
        <time>2018-01-21T14:29:31.000Z</time>
      </trkpt>
      <trkpt lat="47.56877" lon="-3.10177">
        <time>2018-01-21T14:29:32.000Z</time>
      </trkpt>
      <trkpt lat="47.56875" lon="-3.10178">
        <time>2018-01-21T14:29:33.000Z</time>
      </trkpt>
      <trkpt lat="47.56873" lon="-3.10179">
        <time>2018-01-21T14:29:34.000Z</time>
      </trkpt>
      <trkpt lat="47.56871" lon="-3.10179">
        <time>2018-01-21T14:29:35.000Z</time>
      </trkpt>
      <trkpt lat="47.56868" lon="-3.1018">
        <time>2018-01-21T14:29:36.000Z</time>
      </trkpt>
      <trkpt lat="47.56865" lon="-3.1018">
        <time>2018-01-21T14:29:37.000Z</time>
      </trkpt>
      <trkpt lat="47.56861" lon="-3.1018">
        <time>2018-01-21T14:29:38.000Z</time>
      </trkpt>
      <trkpt lat="47.56857" lon="-3.10179">
        <time>2018-01-21T14:29:39.000Z</time>
      </trkpt>
      <trkpt lat="47.56854" lon="-3.10179">
        <time>2018-01-21T14:29:40.000Z</time>
      </trkpt>
      <trkpt lat="47.56849" lon="-3.10177">
        <time>2018-01-21T14:29:41.000Z</time>
      </trkpt>
      <trkpt lat="47.56845" lon="-3.10176">
        <time>2018-01-21T14:29:42.000Z</time>
      </trkpt>
      <trkpt lat="47.56841" lon="-3.10176">
        <time>2018-01-21T14:29:43.000Z</time>
      </trkpt>
      <trkpt lat="47.56836" lon="-3.10175">
        <time>2018-01-21T14:29:44.000Z</time>
      </trkpt>
      <trkpt lat="47.56831" lon="-3.10174">
        <time>2018-01-21T14:29:45.000Z</time>
      </trkpt>
      <trkpt lat="47.56826" lon="-3.10172">
        <time>2018-01-21T14:29:46.000Z</time>
      </trkpt>
      <trkpt lat="47.5682" lon="-3.10171">
        <time>2018-01-21T14:29:47.000Z</time>
      </trkpt>
      <trkpt lat="47.56814" lon="-3.10171">
        <time>2018-01-21T14:29:48.000Z</time>
      </trkpt>
      <trkpt lat="47.56808" lon="-3.10172">
        <time>2018-01-21T14:29:49.000Z</time>
      </trkpt>
      <trkpt lat="47.56801" lon="-3.10172">
        <time>2018-01-21T14:29:50.000Z</time>
      </trkpt>
      <trkpt lat="47.56795" lon="-3.10172">
        <time>2018-01-21T14:29:51.000Z</time>
      </trkpt>
      <trkpt lat="47.56789" lon="-3.10172">
        <time>2018-01-21T14:29:52.000Z</time>
      </trkpt>
      <trkpt lat="47.56783" lon="-3.10172">
        <time>2018-01-21T14:29:53.000Z</time>
      </trkpt>
      <trkpt lat="47.56777" lon="-3.10172">
        <time>2018-01-21T14:29:54.000Z</time>
      </trkpt>
      <trkpt lat="47.5677" lon="-3.10171">
        <time>2018-01-21T14:29:55.000Z</time>
      </trkpt>
      <trkpt lat="47.56763" lon="-3.10171">
        <time>2018-01-21T14:29:56.000Z</time>
      </trkpt>
      <trkpt lat="47.56757" lon="-3.10171">
        <time>2018-01-21T14:29:57.000Z</time>
      </trkpt>
      <trkpt lat="47.5675" lon="-3.10171">
        <time>2018-01-21T14:29:58.000Z</time>
      </trkpt>
      <trkpt lat="47.56742" lon="-3.10171">
        <time>2018-01-21T14:29:59.000Z</time>
      </trkpt>
      <trkpt lat="47.56735" lon="-3.10171">
        <time>2018-01-21T14:30:00.000Z</time>
      </trkpt>
      <trkpt lat="47.56728" lon="-3.10172">
        <time>2018-01-21T14:30:01.000Z</time>
      </trkpt>
      <trkpt lat="47.56721" lon="-3.10171">
        <time>2018-01-21T14:30:02.000Z</time>
      </trkpt>
      <trkpt lat="47.56713" lon="-3.10171">
        <time>2018-01-21T14:30:03.000Z</time>
      </trkpt>
      <trkpt lat="47.56705" lon="-3.10171">
        <time>2018-01-21T14:30:04.000Z</time>
      </trkpt>
      <trkpt lat="47.56698" lon="-3.10171">
        <time>2018-01-21T14:30:05.000Z</time>
      </trkpt>
      <trkpt lat="47.56691" lon="-3.10172">
        <time>2018-01-21T14:30:06.000Z</time>
      </trkpt>
      <trkpt lat="47.56683" lon="-3.10172">
        <time>2018-01-21T14:30:07.000Z</time>
      </trkpt>
      <trkpt lat="47.56676" lon="-3.10173">
        <time>2018-01-21T14:30:08.000Z</time>
      </trkpt>
      <trkpt lat="47.5667" lon="-3.10173">
        <time>2018-01-21T14:30:09.000Z</time>
      </trkpt>
      <trkpt lat="47.56665" lon="-3.10173">
        <time>2018-01-21T14:30:10.000Z</time>
      </trkpt>
      <trkpt lat="47.5666" lon="-3.10174">
        <time>2018-01-21T14:30:11.000Z</time>
      </trkpt>
      <trkpt lat="47.56654" lon="-3.10174">
        <time>2018-01-21T14:30:12.000Z</time>
      </trkpt>
      <trkpt lat="47.56649" lon="-3.10174">
        <time>2018-01-21T14:30:13.000Z</time>
      </trkpt>
      <trkpt lat="47.56643" lon="-3.10174">
        <time>2018-01-21T14:30:14.000Z</time>
      </trkpt>
      <trkpt lat="47.56636" lon="-3.10174">
        <time>2018-01-21T14:30:15.000Z</time>
      </trkpt>
      <trkpt lat="47.5663" lon="-3.10173">
        <time>2018-01-21T14:30:16.000Z</time>
      </trkpt>
      <trkpt lat="47.56624" lon="-3.10172">
        <time>2018-01-21T14:30:17.000Z</time>
      </trkpt>
      <trkpt lat="47.56618" lon="-3.10171">
        <time>2018-01-21T14:30:18.000Z</time>
      </trkpt>
      <trkpt lat="47.56611" lon="-3.1017">
        <time>2018-01-21T14:30:19.000Z</time>
      </trkpt>
      <trkpt lat="47.56603" lon="-3.10169">
        <time>2018-01-21T14:30:20.000Z</time>
      </trkpt>
      <trkpt lat="47.56596" lon="-3.10169">
        <time>2018-01-21T14:30:21.000Z</time>
      </trkpt>
      <trkpt lat="47.56588" lon="-3.10167">
        <time>2018-01-21T14:30:22.000Z</time>
      </trkpt>
      <trkpt lat="47.5658" lon="-3.10164">
        <time>2018-01-21T14:30:23.000Z</time>
      </trkpt>
      <trkpt lat="47.56573" lon="-3.10162">
        <time>2018-01-21T14:30:24.000Z</time>
      </trkpt>
      <trkpt lat="47.56565" lon="-3.10159">
        <time>2018-01-21T14:30:25.000Z</time>
      </trkpt>
      <trkpt lat="47.56557" lon="-3.10158">
        <time>2018-01-21T14:30:26.000Z</time>
      </trkpt>
      <trkpt lat="47.5655" lon="-3.10157">
        <time>2018-01-21T14:30:27.000Z</time>
      </trkpt>
      <trkpt lat="47.56542" lon="-3.10157">
        <time>2018-01-21T14:30:28.000Z</time>
      </trkpt>
      <trkpt lat="47.56535" lon="-3.10157">
        <time>2018-01-21T14:30:29.000Z</time>
      </trkpt>
      <trkpt lat="47.56528" lon="-3.10158">
        <time>2018-01-21T14:30:30.000Z</time>
      </trkpt>
      <trkpt lat="47.56521" lon="-3.10159">
        <time>2018-01-21T14:30:31.000Z</time>
      </trkpt>
      <trkpt lat="47.56515" lon="-3.1016">
        <time>2018-01-21T14:30:32.000Z</time>
      </trkpt>
      <trkpt lat="47.56508" lon="-3.10161">
        <time>2018-01-21T14:30:33.000Z</time>
      </trkpt>
      <trkpt lat="47.56501" lon="-3.10162">
        <time>2018-01-21T14:30:34.000Z</time>
      </trkpt>
      <trkpt lat="47.56495" lon="-3.10163">
        <time>2018-01-21T14:30:35.000Z</time>
      </trkpt>
      <trkpt lat="47.56488" lon="-3.10163">
        <time>2018-01-21T14:30:36.000Z</time>
      </trkpt>
      <trkpt lat="47.56481" lon="-3.10164">
        <time>2018-01-21T14:30:37.000Z</time>
      </trkpt>
      <trkpt lat="47.56474" lon="-3.10164">
        <time>2018-01-21T14:30:38.000Z</time>
      </trkpt>
      <trkpt lat="47.56467" lon="-3.10164">
        <time>2018-01-21T14:30:39.000Z</time>
      </trkpt>
      <trkpt lat="47.5646" lon="-3.10164">
        <time>2018-01-21T14:30:40.000Z</time>
      </trkpt>
      <trkpt lat="47.56453" lon="-3.10164">
        <time>2018-01-21T14:30:41.000Z</time>
      </trkpt>
      <trkpt lat="47.56446" lon="-3.10164">
        <time>2018-01-21T14:30:42.000Z</time>
      </trkpt>
      <trkpt lat="47.56439" lon="-3.10163">
        <time>2018-01-21T14:30:43.000Z</time>
      </trkpt>
      <trkpt lat="47.56432" lon="-3.10162">
        <time>2018-01-21T14:30:44.000Z</time>
      </trkpt>
      <trkpt lat="47.56425" lon="-3.10163">
        <time>2018-01-21T14:30:45.000Z</time>
      </trkpt>
      <trkpt lat="47.5642" lon="-3.10164">
        <time>2018-01-21T14:30:46.000Z</time>
      </trkpt>
      <trkpt lat="47.56416" lon="-3.10165">
        <time>2018-01-21T14:30:47.000Z</time>
      </trkpt>
      <trkpt lat="47.56412" lon="-3.10166">
        <time>2018-01-21T14:30:48.000Z</time>
      </trkpt>
      <trkpt lat="47.56408" lon="-3.10166">
        <time>2018-01-21T14:30:49.000Z</time>
      </trkpt>
      <trkpt lat="47.56404" lon="-3.10166">
        <time>2018-01-21T14:30:50.000Z</time>
      </trkpt>
      <trkpt lat="47.564" lon="-3.10167">
        <time>2018-01-21T14:30:51.000Z</time>
      </trkpt>
      <trkpt lat="47.56396" lon="-3.10168">
        <time>2018-01-21T14:30:52.000Z</time>
      </trkpt>
      <trkpt lat="47.56391" lon="-3.10168">
        <time>2018-01-21T14:30:53.000Z</time>
      </trkpt>
      <trkpt lat="47.56387" lon="-3.10168">
        <time>2018-01-21T14:30:54.000Z</time>
      </trkpt>
      <trkpt lat="47.56381" lon="-3.10168">
        <time>2018-01-21T14:30:55.000Z</time>
      </trkpt>
      <trkpt lat="47.56376" lon="-3.10167">
        <time>2018-01-21T14:30:56.000Z</time>
      </trkpt>
      <trkpt lat="47.5637" lon="-3.10166">
        <time>2018-01-21T14:30:57.000Z</time>
      </trkpt>
      <trkpt lat="47.56363" lon="-3.10165">
        <time>2018-01-21T14:30:58.000Z</time>
      </trkpt>
      <trkpt lat="47.56357" lon="-3.10164">
        <time>2018-01-21T14:30:59.000Z</time>
      </trkpt>
      <trkpt lat="47.5635" lon="-3.10162">
        <time>2018-01-21T14:31:00.000Z</time>
      </trkpt>
      <trkpt lat="47.56343" lon="-3.10161">
        <time>2018-01-21T14:31:01.000Z</time>
      </trkpt>
      <trkpt lat="47.56336" lon="-3.1016">
        <time>2018-01-21T14:31:02.000Z</time>
      </trkpt>
      <trkpt lat="47.56329" lon="-3.10158">
        <time>2018-01-21T14:31:03.000Z</time>
      </trkpt>
      <trkpt lat="47.56322" lon="-3.10158">
        <time>2018-01-21T14:31:04.000Z</time>
      </trkpt>
      <trkpt lat="47.56314" lon="-3.10157">
        <time>2018-01-21T14:31:05.000Z</time>
      </trkpt>
      <trkpt lat="47.56307" lon="-3.10156">
        <time>2018-01-21T14:31:06.000Z</time>
      </trkpt>
      <trkpt lat="47.56299" lon="-3.10155">
        <time>2018-01-21T14:31:07.000Z</time>
      </trkpt>
      <trkpt lat="47.56291" lon="-3.10155">
        <time>2018-01-21T14:31:08.000Z</time>
      </trkpt>
      <trkpt lat="47.56284" lon="-3.10156">
        <time>2018-01-21T14:31:09.000Z</time>
      </trkpt>
      <trkpt lat="47.56276" lon="-3.10156">
        <time>2018-01-21T14:31:10.000Z</time>
      </trkpt>
      <trkpt lat="47.56269" lon="-3.10157">
        <time>2018-01-21T14:31:11.000Z</time>
      </trkpt>
      <trkpt lat="47.56261" lon="-3.10157">
        <time>2018-01-21T14:31:12.000Z</time>
      </trkpt>
      <trkpt lat="47.56254" lon="-3.10157">
        <time>2018-01-21T14:31:13.000Z</time>
      </trkpt>
      <trkpt lat="47.56247" lon="-3.10157">
        <time>2018-01-21T14:31:14.000Z</time>
      </trkpt>
      <trkpt lat="47.5624" lon="-3.10156">
        <time>2018-01-21T14:31:15.000Z</time>
      </trkpt>
      <trkpt lat="47.56233" lon="-3.10155">
        <time>2018-01-21T14:31:16.000Z</time>
      </trkpt>
      <trkpt lat="47.56226" lon="-3.10153">
        <time>2018-01-21T14:31:17.000Z</time>
      </trkpt>
      <trkpt lat="47.56219" lon="-3.10152">
        <time>2018-01-21T14:31:18.000Z</time>
      </trkpt>
      <trkpt lat="47.56211" lon="-3.10151">
        <time>2018-01-21T14:31:19.000Z</time>
      </trkpt>
      <trkpt lat="47.56204" lon="-3.10151">
        <time>2018-01-21T14:31:20.000Z</time>
      </trkpt>
      <trkpt lat="47.56197" lon="-3.1015">
        <time>2018-01-21T14:31:21.000Z</time>
      </trkpt>
      <trkpt lat="47.56189" lon="-3.10149">
        <time>2018-01-21T14:31:22.000Z</time>
      </trkpt>
      <trkpt lat="47.56182" lon="-3.10148">
        <time>2018-01-21T14:31:23.000Z</time>
      </trkpt>
      <trkpt lat="47.56174" lon="-3.10147">
        <time>2018-01-21T14:31:24.000Z</time>
      </trkpt>
      <trkpt lat="47.56166" lon="-3.10146">
        <time>2018-01-21T14:31:25.000Z</time>
      </trkpt>
      <trkpt lat="47.56158" lon="-3.10146">
        <time>2018-01-21T14:31:26.000Z</time>
      </trkpt>
      <trkpt lat="47.5615" lon="-3.10146">
        <time>2018-01-21T14:31:27.000Z</time>
      </trkpt>
      <trkpt lat="47.56142" lon="-3.10146">
        <time>2018-01-21T14:31:28.000Z</time>
      </trkpt>
      <trkpt lat="47.56135" lon="-3.10146">
        <time>2018-01-21T14:31:29.000Z</time>
      </trkpt>
      <trkpt lat="47.56127" lon="-3.10146">
        <time>2018-01-21T14:31:30.000Z</time>
      </trkpt>
      <trkpt lat="47.5612" lon="-3.10147">
        <time>2018-01-21T14:31:31.000Z</time>
      </trkpt>
      <trkpt lat="47.56112" lon="-3.10147">
        <time>2018-01-21T14:31:32.000Z</time>
      </trkpt>
      <trkpt lat="47.56104" lon="-3.10147">
        <time>2018-01-21T14:31:33.000Z</time>
      </trkpt>
      <trkpt lat="47.56096" lon="-3.10147">
        <time>2018-01-21T14:31:34.000Z</time>
      </trkpt>
      <trkpt lat="47.56087" lon="-3.10147">
        <time>2018-01-21T14:31:35.000Z</time>
      </trkpt>
      <trkpt lat="47.56079" lon="-3.10146">
        <time>2018-01-21T14:31:36.000Z</time>
      </trkpt>
      <trkpt lat="47.56071" lon="-3.10145">
        <time>2018-01-21T14:31:37.000Z</time>
      </trkpt>
      <trkpt lat="47.56063" lon="-3.10144">
        <time>2018-01-21T14:31:38.000Z</time>
      </trkpt>
      <trkpt lat="47.56055" lon="-3.10144">
        <time>2018-01-21T14:31:39.000Z</time>
      </trkpt>
      <trkpt lat="47.56047" lon="-3.10142">
        <time>2018-01-21T14:31:40.000Z</time>
      </trkpt>
      <trkpt lat="47.56039" lon="-3.10141">
        <time>2018-01-21T14:31:41.000Z</time>
      </trkpt>
      <trkpt lat="47.56031" lon="-3.1014">
        <time>2018-01-21T14:31:42.000Z</time>
      </trkpt>
      <trkpt lat="47.56023" lon="-3.10138">
        <time>2018-01-21T14:31:43.000Z</time>
      </trkpt>
      <trkpt lat="47.56015" lon="-3.10135">
        <time>2018-01-21T14:31:44.000Z</time>
      </trkpt>
      <trkpt lat="47.56006" lon="-3.10132">
        <time>2018-01-21T14:31:45.000Z</time>
      </trkpt>
      <trkpt lat="47.55998" lon="-3.1013">
        <time>2018-01-21T14:31:46.000Z</time>
      </trkpt>
      <trkpt lat="47.55989" lon="-3.1013">
        <time>2018-01-21T14:31:47.000Z</time>
      </trkpt>
      <trkpt lat="47.5598" lon="-3.10129">
        <time>2018-01-21T14:31:48.000Z</time>
      </trkpt>
      <trkpt lat="47.55972" lon="-3.10128">
        <time>2018-01-21T14:31:49.000Z</time>
      </trkpt>
      <trkpt lat="47.55964" lon="-3.10128">
        <time>2018-01-21T14:31:50.000Z</time>
      </trkpt>
      <trkpt lat="47.55954" lon="-3.10128">
        <time>2018-01-21T14:31:51.000Z</time>
      </trkpt>
      <trkpt lat="47.55946" lon="-3.10127">
        <time>2018-01-21T14:31:52.000Z</time>
      </trkpt>
      <trkpt lat="47.55938" lon="-3.10128">
        <time>2018-01-21T14:31:53.000Z</time>
      </trkpt>
      <trkpt lat="47.55929" lon="-3.10129">
        <time>2018-01-21T14:31:54.000Z</time>
      </trkpt>
      <trkpt lat="47.55922" lon="-3.10129">
        <time>2018-01-21T14:31:55.000Z</time>
      </trkpt>
      <trkpt lat="47.55912" lon="-3.10126">
        <time>2018-01-21T14:31:56.000Z</time>
      </trkpt>
      <trkpt lat="47.55903" lon="-3.10126">
        <time>2018-01-21T14:31:57.000Z</time>
      </trkpt>
      <trkpt lat="47.55896" lon="-3.10127">
        <time>2018-01-21T14:31:58.000Z</time>
      </trkpt>
      <trkpt lat="47.55888" lon="-3.10128">
        <time>2018-01-21T14:31:59.000Z</time>
      </trkpt>
      <trkpt lat="47.5588" lon="-3.10127">
        <time>2018-01-21T14:32:00.000Z</time>
      </trkpt>
      <trkpt lat="47.55872" lon="-3.10127">
        <time>2018-01-21T14:32:01.000Z</time>
      </trkpt>
      <trkpt lat="47.55864" lon="-3.10126">
        <time>2018-01-21T14:32:02.000Z</time>
      </trkpt>
      <trkpt lat="47.55856" lon="-3.10123">
        <time>2018-01-21T14:32:03.000Z</time>
      </trkpt>
      <trkpt lat="47.55847" lon="-3.10121">
        <time>2018-01-21T14:32:04.000Z</time>
      </trkpt>
      <trkpt lat="47.55838" lon="-3.1012">
        <time>2018-01-21T14:32:05.000Z</time>
      </trkpt>
      <trkpt lat="47.5583" lon="-3.10118">
        <time>2018-01-21T14:32:06.000Z</time>
      </trkpt>
      <trkpt lat="47.55821" lon="-3.10116">
        <time>2018-01-21T14:32:07.000Z</time>
      </trkpt>
      <trkpt lat="47.55813" lon="-3.10114">
        <time>2018-01-21T14:32:08.000Z</time>
      </trkpt>
      <trkpt lat="47.55805" lon="-3.10113">
        <time>2018-01-21T14:32:09.000Z</time>
      </trkpt>
      <trkpt lat="47.55797" lon="-3.10112">
        <time>2018-01-21T14:32:10.000Z</time>
      </trkpt>
      <trkpt lat="47.55789" lon="-3.10112">
        <time>2018-01-21T14:32:11.000Z</time>
      </trkpt>
      <trkpt lat="47.55781" lon="-3.10111">
        <time>2018-01-21T14:32:12.000Z</time>
      </trkpt>
      <trkpt lat="47.55773" lon="-3.10111">
        <time>2018-01-21T14:32:13.000Z</time>
      </trkpt>
      <trkpt lat="47.55765" lon="-3.1011">
        <time>2018-01-21T14:32:14.000Z</time>
      </trkpt>
      <trkpt lat="47.55758" lon="-3.1011">
        <time>2018-01-21T14:32:15.000Z</time>
      </trkpt>
      <trkpt lat="47.5575" lon="-3.10108">
        <time>2018-01-21T14:32:16.000Z</time>
      </trkpt>
      <trkpt lat="47.55743" lon="-3.10108">
        <time>2018-01-21T14:32:17.000Z</time>
      </trkpt>
      <trkpt lat="47.55737" lon="-3.10107">
        <time>2018-01-21T14:32:18.000Z</time>
      </trkpt>
      <trkpt lat="47.55731" lon="-3.10107">
        <time>2018-01-21T14:32:19.000Z</time>
      </trkpt>
      <trkpt lat="47.55725" lon="-3.10105">
        <time>2018-01-21T14:32:20.000Z</time>
      </trkpt>
      <trkpt lat="47.55717" lon="-3.10105">
        <time>2018-01-21T14:32:21.000Z</time>
      </trkpt>
      <trkpt lat="47.55709" lon="-3.10105">
        <time>2018-01-21T14:32:22.000Z</time>
      </trkpt>
      <trkpt lat="47.55699" lon="-3.10105">
        <time>2018-01-21T14:32:23.000Z</time>
      </trkpt>
      <trkpt lat="47.5569" lon="-3.10105">
        <time>2018-01-21T14:32:24.000Z</time>
      </trkpt>
      <trkpt lat="47.55681" lon="-3.10106">
        <time>2018-01-21T14:32:25.000Z</time>
      </trkpt>
      <trkpt lat="47.55671" lon="-3.10105">
        <time>2018-01-21T14:32:26.000Z</time>
      </trkpt>
      <trkpt lat="47.55663" lon="-3.10105">
        <time>2018-01-21T14:32:27.000Z</time>
      </trkpt>
      <trkpt lat="47.55655" lon="-3.10105">
        <time>2018-01-21T14:32:28.000Z</time>
      </trkpt>
      <trkpt lat="47.55647" lon="-3.10103">
        <time>2018-01-21T14:32:29.000Z</time>
      </trkpt>
      <trkpt lat="47.55638" lon="-3.10101">
        <time>2018-01-21T14:32:30.000Z</time>
      </trkpt>
      <trkpt lat="47.55631" lon="-3.10101">
        <time>2018-01-21T14:32:31.000Z</time>
      </trkpt>
      <trkpt lat="47.55623" lon="-3.10102">
        <time>2018-01-21T14:32:32.000Z</time>
      </trkpt>
      <trkpt lat="47.55616" lon="-3.10102">
        <time>2018-01-21T14:32:33.000Z</time>
      </trkpt>
      <trkpt lat="47.55609" lon="-3.10101">
        <time>2018-01-21T14:32:34.000Z</time>
      </trkpt>
      <trkpt lat="47.55602" lon="-3.10101">
        <time>2018-01-21T14:32:35.000Z</time>
      </trkpt>
      <trkpt lat="47.55594" lon="-3.101">
        <time>2018-01-21T14:32:36.000Z</time>
      </trkpt>
      <trkpt lat="47.55587" lon="-3.101">
        <time>2018-01-21T14:32:37.000Z</time>
      </trkpt>
      <trkpt lat="47.55579" lon="-3.101">
        <time>2018-01-21T14:32:38.000Z</time>
      </trkpt>
      <trkpt lat="47.55573" lon="-3.10102">
        <time>2018-01-21T14:32:39.000Z</time>
      </trkpt>
      <trkpt lat="47.55565" lon="-3.10101">
        <time>2018-01-21T14:32:40.000Z</time>
      </trkpt>
      <trkpt lat="47.55558" lon="-3.101">
        <time>2018-01-21T14:32:41.000Z</time>
      </trkpt>
      <trkpt lat="47.5555" lon="-3.10097">
        <time>2018-01-21T14:32:42.000Z</time>
      </trkpt>
      <trkpt lat="47.55543" lon="-3.10096">
        <time>2018-01-21T14:32:43.000Z</time>
      </trkpt>
      <trkpt lat="47.55535" lon="-3.10094">
        <time>2018-01-21T14:32:44.000Z</time>
      </trkpt>
      <trkpt lat="47.55527" lon="-3.10093">
        <time>2018-01-21T14:32:45.000Z</time>
      </trkpt>
      <trkpt lat="47.55519" lon="-3.10093">
        <time>2018-01-21T14:32:46.000Z</time>
      </trkpt>
      <trkpt lat="47.55512" lon="-3.10094">
        <time>2018-01-21T14:32:47.000Z</time>
      </trkpt>
      <trkpt lat="47.55504" lon="-3.10093">
        <time>2018-01-21T14:32:48.000Z</time>
      </trkpt>
      <trkpt lat="47.55496" lon="-3.10093">
        <time>2018-01-21T14:32:49.000Z</time>
      </trkpt>
      <trkpt lat="47.55488" lon="-3.10094">
        <time>2018-01-21T14:32:50.000Z</time>
      </trkpt>
      <trkpt lat="47.5548" lon="-3.10094">
        <time>2018-01-21T14:32:51.000Z</time>
      </trkpt>
      <trkpt lat="47.55473" lon="-3.10095">
        <time>2018-01-21T14:32:52.000Z</time>
      </trkpt>
      <trkpt lat="47.55466" lon="-3.10095">
        <time>2018-01-21T14:32:53.000Z</time>
      </trkpt>
      <trkpt lat="47.5546" lon="-3.10096">
        <time>2018-01-21T14:32:54.000Z</time>
      </trkpt>
      <trkpt lat="47.55453" lon="-3.10097">
        <time>2018-01-21T14:32:55.000Z</time>
      </trkpt>
      <trkpt lat="47.55446" lon="-3.10096">
        <time>2018-01-21T14:32:56.000Z</time>
      </trkpt>
      <trkpt lat="47.55439" lon="-3.10096">
        <time>2018-01-21T14:32:57.000Z</time>
      </trkpt>
      <trkpt lat="47.55432" lon="-3.10096">
        <time>2018-01-21T14:32:58.000Z</time>
      </trkpt>
      <trkpt lat="47.55425" lon="-3.10095">
        <time>2018-01-21T14:32:59.000Z</time>
      </trkpt>
      <trkpt lat="47.55418" lon="-3.10094">
        <time>2018-01-21T14:33:00.000Z</time>
      </trkpt>
      <trkpt lat="47.55411" lon="-3.10093">
        <time>2018-01-21T14:33:01.000Z</time>
      </trkpt>
      <trkpt lat="47.55404" lon="-3.10092">
        <time>2018-01-21T14:33:02.000Z</time>
      </trkpt>
      <trkpt lat="47.55397" lon="-3.10091">
        <time>2018-01-21T14:33:03.000Z</time>
      </trkpt>
      <trkpt lat="47.55391" lon="-3.1009">
        <time>2018-01-21T14:33:04.000Z</time>
      </trkpt>
      <trkpt lat="47.55384" lon="-3.1009">
        <time>2018-01-21T14:33:05.000Z</time>
      </trkpt>
      <trkpt lat="47.55377" lon="-3.10088">
        <time>2018-01-21T14:33:06.000Z</time>
      </trkpt>
      <trkpt lat="47.5537" lon="-3.10087">
        <time>2018-01-21T14:33:07.000Z</time>
      </trkpt>
      <trkpt lat="47.55364" lon="-3.10084">
        <time>2018-01-21T14:33:08.000Z</time>
      </trkpt>
      <trkpt lat="47.55356" lon="-3.10078">
        <time>2018-01-21T14:33:09.000Z</time>
      </trkpt>
      <trkpt lat="47.55349" lon="-3.10074">
        <time>2018-01-21T14:33:10.000Z</time>
      </trkpt>
      <trkpt lat="47.55341" lon="-3.1007">
        <time>2018-01-21T14:33:11.000Z</time>
      </trkpt>
      <trkpt lat="47.55333" lon="-3.10066">
        <time>2018-01-21T14:33:12.000Z</time>
      </trkpt>
      <trkpt lat="47.55326" lon="-3.10061">
        <time>2018-01-21T14:33:13.000Z</time>
      </trkpt>
      <trkpt lat="47.55318" lon="-3.10056">
        <time>2018-01-21T14:33:14.000Z</time>
      </trkpt>
      <trkpt lat="47.5531" lon="-3.10051">
        <time>2018-01-21T14:33:15.000Z</time>
      </trkpt>
      <trkpt lat="47.55301" lon="-3.10046">
        <time>2018-01-21T14:33:16.000Z</time>
      </trkpt>
      <trkpt lat="47.55292" lon="-3.10042">
        <time>2018-01-21T14:33:17.000Z</time>
      </trkpt>
      <trkpt lat="47.55284" lon="-3.10038">
        <time>2018-01-21T14:33:18.000Z</time>
      </trkpt>
      <trkpt lat="47.55275" lon="-3.10035">
        <time>2018-01-21T14:33:19.000Z</time>
      </trkpt>
      <trkpt lat="47.55266" lon="-3.10029">
        <time>2018-01-21T14:33:20.000Z</time>
      </trkpt>
      <trkpt lat="47.55258" lon="-3.10023">
        <time>2018-01-21T14:33:21.000Z</time>
      </trkpt>
      <trkpt lat="47.5525" lon="-3.10019">
        <time>2018-01-21T14:33:22.000Z</time>
      </trkpt>
      <trkpt lat="47.55241" lon="-3.10014">
        <time>2018-01-21T14:33:23.000Z</time>
      </trkpt>
      <trkpt lat="47.55232" lon="-3.10009">
        <time>2018-01-21T14:33:24.000Z</time>
      </trkpt>
      <trkpt lat="47.55223" lon="-3.10005">
        <time>2018-01-21T14:33:25.000Z</time>
      </trkpt>
      <trkpt lat="47.55214" lon="-3.1">
        <time>2018-01-21T14:33:26.000Z</time>
      </trkpt>
      <trkpt lat="47.55206" lon="-3.09994">
        <time>2018-01-21T14:33:27.000Z</time>
      </trkpt>
      <trkpt lat="47.55197" lon="-3.09988">
        <time>2018-01-21T14:33:28.000Z</time>
      </trkpt>
      <trkpt lat="47.55189" lon="-3.09981">
        <time>2018-01-21T14:33:29.000Z</time>
      </trkpt>
      <trkpt lat="47.5518" lon="-3.09975">
        <time>2018-01-21T14:33:30.000Z</time>
      </trkpt>
      <trkpt lat="47.55171" lon="-3.0997">
        <time>2018-01-21T14:33:31.000Z</time>
      </trkpt>
      <trkpt lat="47.55161" lon="-3.09965">
        <time>2018-01-21T14:33:32.000Z</time>
      </trkpt>
      <trkpt lat="47.55153" lon="-3.0996">
        <time>2018-01-21T14:33:33.000Z</time>
      </trkpt>
      <trkpt lat="47.55142" lon="-3.09956">
        <time>2018-01-21T14:33:34.000Z</time>
      </trkpt>
      <trkpt lat="47.55134" lon="-3.09953">
        <time>2018-01-21T14:33:35.000Z</time>
      </trkpt>
      <trkpt lat="47.55125" lon="-3.09951">
        <time>2018-01-21T14:33:36.000Z</time>
      </trkpt>
      <trkpt lat="47.55116" lon="-3.09948">
        <time>2018-01-21T14:33:37.000Z</time>
      </trkpt>
      <trkpt lat="47.55107" lon="-3.09946">
        <time>2018-01-21T14:33:38.000Z</time>
      </trkpt>
      <trkpt lat="47.55097" lon="-3.09943">
        <time>2018-01-21T14:33:39.000Z</time>
      </trkpt>
      <trkpt lat="47.55087" lon="-3.09942">
        <time>2018-01-21T14:33:40.000Z</time>
      </trkpt>
      <trkpt lat="47.55077" lon="-3.09943">
        <time>2018-01-21T14:33:41.000Z</time>
      </trkpt>
      <trkpt lat="47.55069" lon="-3.09942">
        <time>2018-01-21T14:33:42.000Z</time>
      </trkpt>
      <trkpt lat="47.5506" lon="-3.09942">
        <time>2018-01-21T14:33:43.000Z</time>
      </trkpt>
      <trkpt lat="47.55052" lon="-3.09942">
        <time>2018-01-21T14:33:44.000Z</time>
      </trkpt>
      <trkpt lat="47.55044" lon="-3.09943">
        <time>2018-01-21T14:33:45.000Z</time>
      </trkpt>
      <trkpt lat="47.55036" lon="-3.09943">
        <time>2018-01-21T14:33:46.000Z</time>
      </trkpt>
      <trkpt lat="47.55029" lon="-3.09944">
        <time>2018-01-21T14:33:47.000Z</time>
      </trkpt>
      <trkpt lat="47.55022" lon="-3.09944">
        <time>2018-01-21T14:33:48.000Z</time>
      </trkpt>
      <trkpt lat="47.55014" lon="-3.09944">
        <time>2018-01-21T14:33:49.000Z</time>
      </trkpt>
      <trkpt lat="47.55007" lon="-3.09945">
        <time>2018-01-21T14:33:50.000Z</time>
      </trkpt>
      <trkpt lat="47.54999" lon="-3.09945">
        <time>2018-01-21T14:33:51.000Z</time>
      </trkpt>
      <trkpt lat="47.54992" lon="-3.09944">
        <time>2018-01-21T14:33:52.000Z</time>
      </trkpt>
      <trkpt lat="47.54985" lon="-3.09943">
        <time>2018-01-21T14:33:53.000Z</time>
      </trkpt>
      <trkpt lat="47.54977" lon="-3.09941">
        <time>2018-01-21T14:33:54.000Z</time>
      </trkpt>
      <trkpt lat="47.54971" lon="-3.09939">
        <time>2018-01-21T14:33:55.000Z</time>
      </trkpt>
      <trkpt lat="47.54963" lon="-3.09938">
        <time>2018-01-21T14:33:56.000Z</time>
      </trkpt>
      <trkpt lat="47.54956" lon="-3.09936">
        <time>2018-01-21T14:33:57.000Z</time>
      </trkpt>
      <trkpt lat="47.54948" lon="-3.09934">
        <time>2018-01-21T14:33:58.000Z</time>
      </trkpt>
      <trkpt lat="47.5494" lon="-3.09931">
        <time>2018-01-21T14:33:59.000Z</time>
      </trkpt>
      <trkpt lat="47.54933" lon="-3.09929">
        <time>2018-01-21T14:34:00.000Z</time>
      </trkpt>
      <trkpt lat="47.54925" lon="-3.09927">
        <time>2018-01-21T14:34:01.000Z</time>
      </trkpt>
      <trkpt lat="47.54917" lon="-3.09925">
        <time>2018-01-21T14:34:02.000Z</time>
      </trkpt>
      <trkpt lat="47.54909" lon="-3.09923">
        <time>2018-01-21T14:34:03.000Z</time>
      </trkpt>
      <trkpt lat="47.54901" lon="-3.09922">
        <time>2018-01-21T14:34:04.000Z</time>
      </trkpt>
      <trkpt lat="47.54893" lon="-3.09919">
        <time>2018-01-21T14:34:05.000Z</time>
      </trkpt>
      <trkpt lat="47.54885" lon="-3.09917">
        <time>2018-01-21T14:34:06.000Z</time>
      </trkpt>
      <trkpt lat="47.54876" lon="-3.09914">
        <time>2018-01-21T14:34:07.000Z</time>
      </trkpt>
      <trkpt lat="47.54868" lon="-3.09912">
        <time>2018-01-21T14:34:08.000Z</time>
      </trkpt>
      <trkpt lat="47.54859" lon="-3.0991">
        <time>2018-01-21T14:34:09.000Z</time>
      </trkpt>
      <trkpt lat="47.5485" lon="-3.09905">
        <time>2018-01-21T14:34:10.000Z</time>
      </trkpt>
      <trkpt lat="47.54841" lon="-3.09901">
        <time>2018-01-21T14:34:11.000Z</time>
      </trkpt>
      <trkpt lat="47.54831" lon="-3.09899">
        <time>2018-01-21T14:34:12.000Z</time>
      </trkpt>
      <trkpt lat="47.54822" lon="-3.09897">
        <time>2018-01-21T14:34:13.000Z</time>
      </trkpt>
      <trkpt lat="47.54812" lon="-3.09894">
        <time>2018-01-21T14:34:14.000Z</time>
      </trkpt>
      <trkpt lat="47.54804" lon="-3.09893">
        <time>2018-01-21T14:34:15.000Z</time>
      </trkpt>
      <trkpt lat="47.54795" lon="-3.09893">
        <time>2018-01-21T14:34:16.000Z</time>
      </trkpt>
      <trkpt lat="47.54786" lon="-3.09891">
        <time>2018-01-21T14:34:17.000Z</time>
      </trkpt>
      <trkpt lat="47.54777" lon="-3.0989">
        <time>2018-01-21T14:34:18.000Z</time>
      </trkpt>
      <trkpt lat="47.54769" lon="-3.09891">
        <time>2018-01-21T14:34:19.000Z</time>
      </trkpt>
      <trkpt lat="47.54761" lon="-3.09891">
        <time>2018-01-21T14:34:20.000Z</time>
      </trkpt>
      <trkpt lat="47.54753" lon="-3.0989">
        <time>2018-01-21T14:34:21.000Z</time>
      </trkpt>
      <trkpt lat="47.54745" lon="-3.0989">
        <time>2018-01-21T14:34:22.000Z</time>
      </trkpt>
      <trkpt lat="47.54737" lon="-3.09891">
        <time>2018-01-21T14:34:23.000Z</time>
      </trkpt>
      <trkpt lat="47.54729" lon="-3.09892">
        <time>2018-01-21T14:34:24.000Z</time>
      </trkpt>
      <trkpt lat="47.54721" lon="-3.09894">
        <time>2018-01-21T14:34:25.000Z</time>
      </trkpt>
      <trkpt lat="47.54713" lon="-3.09894">
        <time>2018-01-21T14:34:26.000Z</time>
      </trkpt>
      <trkpt lat="47.54704" lon="-3.09895">
        <time>2018-01-21T14:34:27.000Z</time>
      </trkpt>
      <trkpt lat="47.54696" lon="-3.09895">
        <time>2018-01-21T14:34:28.000Z</time>
      </trkpt>
      <trkpt lat="47.54688" lon="-3.09896">
        <time>2018-01-21T14:34:29.000Z</time>
      </trkpt>
      <trkpt lat="47.54679" lon="-3.09897">
        <time>2018-01-21T14:34:30.000Z</time>
      </trkpt>
      <trkpt lat="47.54672" lon="-3.09898">
        <time>2018-01-21T14:34:31.000Z</time>
      </trkpt>
      <trkpt lat="47.54664" lon="-3.09899">
        <time>2018-01-21T14:34:32.000Z</time>
      </trkpt>
      <trkpt lat="47.54655" lon="-3.09897">
        <time>2018-01-21T14:34:33.000Z</time>
      </trkpt>
      <trkpt lat="47.54648" lon="-3.09896">
        <time>2018-01-21T14:34:34.000Z</time>
      </trkpt>
      <trkpt lat="47.5464" lon="-3.09897">
        <time>2018-01-21T14:34:35.000Z</time>
      </trkpt>
      <trkpt lat="47.54632" lon="-3.09898">
        <time>2018-01-21T14:34:36.000Z</time>
      </trkpt>
      <trkpt lat="47.54624" lon="-3.09898">
        <time>2018-01-21T14:34:37.000Z</time>
      </trkpt>
      <trkpt lat="47.54617" lon="-3.09899">
        <time>2018-01-21T14:34:38.000Z</time>
      </trkpt>
      <trkpt lat="47.54609" lon="-3.09899">
        <time>2018-01-21T14:34:39.000Z</time>
      </trkpt>
      <trkpt lat="47.54602" lon="-3.099">
        <time>2018-01-21T14:34:40.000Z</time>
      </trkpt>
      <trkpt lat="47.54594" lon="-3.099">
        <time>2018-01-21T14:34:41.000Z</time>
      </trkpt>
      <trkpt lat="47.54586" lon="-3.099">
        <time>2018-01-21T14:34:42.000Z</time>
      </trkpt>
      <trkpt lat="47.54579" lon="-3.099">
        <time>2018-01-21T14:34:43.000Z</time>
      </trkpt>
      <trkpt lat="47.54571" lon="-3.099">
        <time>2018-01-21T14:34:44.000Z</time>
      </trkpt>
      <trkpt lat="47.54563" lon="-3.09899">
        <time>2018-01-21T14:34:45.000Z</time>
      </trkpt>
      <trkpt lat="47.54555" lon="-3.09899">
        <time>2018-01-21T14:34:46.000Z</time>
      </trkpt>
      <trkpt lat="47.54547" lon="-3.09901">
        <time>2018-01-21T14:34:47.000Z</time>
      </trkpt>
      <trkpt lat="47.54539" lon="-3.09901">
        <time>2018-01-21T14:34:48.000Z</time>
      </trkpt>
      <trkpt lat="47.54532" lon="-3.09902">
        <time>2018-01-21T14:34:49.000Z</time>
      </trkpt>
      <trkpt lat="47.54524" lon="-3.09903">
        <time>2018-01-21T14:34:50.000Z</time>
      </trkpt>
      <trkpt lat="47.54518" lon="-3.09903">
        <time>2018-01-21T14:34:51.000Z</time>
      </trkpt>
      <trkpt lat="47.5451" lon="-3.09903">
        <time>2018-01-21T14:34:52.000Z</time>
      </trkpt>
      <trkpt lat="47.54504" lon="-3.09903">
        <time>2018-01-21T14:34:53.000Z</time>
      </trkpt>
      <trkpt lat="47.54497" lon="-3.09905">
        <time>2018-01-21T14:34:54.000Z</time>
      </trkpt>
      <trkpt lat="47.5449" lon="-3.09906">
        <time>2018-01-21T14:34:55.000Z</time>
      </trkpt>
      <trkpt lat="47.54484" lon="-3.09908">
        <time>2018-01-21T14:34:56.000Z</time>
      </trkpt>
      <trkpt lat="47.54476" lon="-3.0991">
        <time>2018-01-21T14:34:57.000Z</time>
      </trkpt>
      <trkpt lat="47.54468" lon="-3.09913">
        <time>2018-01-21T14:34:58.000Z</time>
      </trkpt>
      <trkpt lat="47.54462" lon="-3.09916">
        <time>2018-01-21T14:34:59.000Z</time>
      </trkpt>
      <trkpt lat="47.54455" lon="-3.09919">
        <time>2018-01-21T14:35:00.000Z</time>
      </trkpt>
      <trkpt lat="47.54448" lon="-3.09921">
        <time>2018-01-21T14:35:01.000Z</time>
      </trkpt>
      <trkpt lat="47.54441" lon="-3.09922">
        <time>2018-01-21T14:35:02.000Z</time>
      </trkpt>
      <trkpt lat="47.54432" lon="-3.09922">
        <time>2018-01-21T14:35:03.000Z</time>
      </trkpt>
      <trkpt lat="47.54425" lon="-3.09925">
        <time>2018-01-21T14:35:04.000Z</time>
      </trkpt>
      <trkpt lat="47.54418" lon="-3.09927">
        <time>2018-01-21T14:35:05.000Z</time>
      </trkpt>
      <trkpt lat="47.54409" lon="-3.09929">
        <time>2018-01-21T14:35:06.000Z</time>
      </trkpt>
      <trkpt lat="47.54401" lon="-3.0993">
        <time>2018-01-21T14:35:07.000Z</time>
      </trkpt>
      <trkpt lat="47.54394" lon="-3.09931">
        <time>2018-01-21T14:35:08.000Z</time>
      </trkpt>
      <trkpt lat="47.54386" lon="-3.09932">
        <time>2018-01-21T14:35:09.000Z</time>
      </trkpt>
      <trkpt lat="47.54379" lon="-3.09933">
        <time>2018-01-21T14:35:10.000Z</time>
      </trkpt>
      <trkpt lat="47.54372" lon="-3.09934">
        <time>2018-01-21T14:35:11.000Z</time>
      </trkpt>
      <trkpt lat="47.54365" lon="-3.09934">
        <time>2018-01-21T14:35:12.000Z</time>
      </trkpt>
      <trkpt lat="47.54358" lon="-3.09935">
        <time>2018-01-21T14:35:13.000Z</time>
      </trkpt>
      <trkpt lat="47.54351" lon="-3.09935">
        <time>2018-01-21T14:35:14.000Z</time>
      </trkpt>
      <trkpt lat="47.54344" lon="-3.09936">
        <time>2018-01-21T14:35:15.000Z</time>
      </trkpt>
      <trkpt lat="47.54337" lon="-3.09936">
        <time>2018-01-21T14:35:16.000Z</time>
      </trkpt>
      <trkpt lat="47.5433" lon="-3.09937">
        <time>2018-01-21T14:35:17.000Z</time>
      </trkpt>
      <trkpt lat="47.54322" lon="-3.09936">
        <time>2018-01-21T14:35:18.000Z</time>
      </trkpt>
      <trkpt lat="47.54314" lon="-3.09937">
        <time>2018-01-21T14:35:19.000Z</time>
      </trkpt>
      <trkpt lat="47.54307" lon="-3.09937">
        <time>2018-01-21T14:35:20.000Z</time>
      </trkpt>
      <trkpt lat="47.543" lon="-3.09938">
        <time>2018-01-21T14:35:21.000Z</time>
      </trkpt>
      <trkpt lat="47.54293" lon="-3.09939">
        <time>2018-01-21T14:35:22.000Z</time>
      </trkpt>
      <trkpt lat="47.54286" lon="-3.09938">
        <time>2018-01-21T14:35:23.000Z</time>
      </trkpt>
      <trkpt lat="47.54278" lon="-3.09936">
        <time>2018-01-21T14:35:24.000Z</time>
      </trkpt>
      <trkpt lat="47.5427" lon="-3.09934">
        <time>2018-01-21T14:35:25.000Z</time>
      </trkpt>
      <trkpt lat="47.54261" lon="-3.09932">
        <time>2018-01-21T14:35:26.000Z</time>
      </trkpt>
      <trkpt lat="47.54253" lon="-3.09931">
        <time>2018-01-21T14:35:27.000Z</time>
      </trkpt>
      <trkpt lat="47.54245" lon="-3.09932">
        <time>2018-01-21T14:35:28.000Z</time>
      </trkpt>
      <trkpt lat="47.54236" lon="-3.09934">
        <time>2018-01-21T14:35:29.000Z</time>
      </trkpt>
      <trkpt lat="47.54228" lon="-3.09934">
        <time>2018-01-21T14:35:30.000Z</time>
      </trkpt>
      <trkpt lat="47.5422" lon="-3.09935">
        <time>2018-01-21T14:35:31.000Z</time>
      </trkpt>
      <trkpt lat="47.54212" lon="-3.09936">
        <time>2018-01-21T14:35:32.000Z</time>
      </trkpt>
      <trkpt lat="47.54205" lon="-3.09937">
        <time>2018-01-21T14:35:33.000Z</time>
      </trkpt>
      <trkpt lat="47.54197" lon="-3.09938">
        <time>2018-01-21T14:35:34.000Z</time>
      </trkpt>
      <trkpt lat="47.54189" lon="-3.09938">
        <time>2018-01-21T14:35:35.000Z</time>
      </trkpt>
      <trkpt lat="47.54182" lon="-3.09938">
        <time>2018-01-21T14:35:36.000Z</time>
      </trkpt>
      <trkpt lat="47.54175" lon="-3.09939">
        <time>2018-01-21T14:35:37.000Z</time>
      </trkpt>
      <trkpt lat="47.54167" lon="-3.09938">
        <time>2018-01-21T14:35:38.000Z</time>
      </trkpt>
      <trkpt lat="47.54161" lon="-3.09938">
        <time>2018-01-21T14:35:39.000Z</time>
      </trkpt>
      <trkpt lat="47.54153" lon="-3.09935">
        <time>2018-01-21T14:35:40.000Z</time>
      </trkpt>
      <trkpt lat="47.54146" lon="-3.09931">
        <time>2018-01-21T14:35:41.000Z</time>
      </trkpt>
      <trkpt lat="47.54141" lon="-3.09925">
        <time>2018-01-21T14:35:42.000Z</time>
      </trkpt>
      <trkpt lat="47.54136" lon="-3.09917">
        <time>2018-01-21T14:35:43.000Z</time>
      </trkpt>
      <trkpt lat="47.54135" lon="-3.09908">
        <time>2018-01-21T14:35:44.000Z</time>
      </trkpt>
      <trkpt lat="47.54136" lon="-3.09901">
        <time>2018-01-21T14:35:45.000Z</time>
      </trkpt>
      <trkpt lat="47.54138" lon="-3.09896">
        <time>2018-01-21T14:35:46.000Z</time>
      </trkpt>
      <trkpt lat="47.54139" lon="-3.09895">
        <time>2018-01-21T14:35:47.000Z</time>
      </trkpt>
      <trkpt lat="47.5414" lon="-3.09894">
        <time>2018-01-21T14:35:48.000Z</time>
      </trkpt>
      <trkpt lat="47.54142" lon="-3.09894">
        <time>2018-01-21T14:35:49.000Z</time>
      </trkpt>
      <trkpt lat="47.54142" lon="-3.09894">
        <time>2018-01-21T14:35:50.000Z</time>
      </trkpt>
      <trkpt lat="47.54144" lon="-3.09896">
        <time>2018-01-21T14:35:51.000Z</time>
      </trkpt>
      <trkpt lat="47.54145" lon="-3.09896">
        <time>2018-01-21T14:35:52.000Z</time>
      </trkpt>
      <trkpt lat="47.54147" lon="-3.09897">
        <time>2018-01-21T14:35:53.000Z</time>
      </trkpt>
      <trkpt lat="47.5415" lon="-3.09899">
        <time>2018-01-21T14:35:54.000Z</time>
      </trkpt>
      <trkpt lat="47.54152" lon="-3.09902">
        <time>2018-01-21T14:35:55.000Z</time>
      </trkpt>
      <trkpt lat="47.54155" lon="-3.09904">
        <time>2018-01-21T14:35:56.000Z</time>
      </trkpt>
      <trkpt lat="47.54158" lon="-3.09907">
        <time>2018-01-21T14:35:57.000Z</time>
      </trkpt>
      <trkpt lat="47.54162" lon="-3.0991">
        <time>2018-01-21T14:35:58.000Z</time>
      </trkpt>
      <trkpt lat="47.54164" lon="-3.09913">
        <time>2018-01-21T14:35:59.000Z</time>
      </trkpt>
      <trkpt lat="47.54168" lon="-3.09915">
        <time>2018-01-21T14:36:00.000Z</time>
      </trkpt>
      <trkpt lat="47.54171" lon="-3.09917">
        <time>2018-01-21T14:36:01.000Z</time>
      </trkpt>
      <trkpt lat="47.54174" lon="-3.09919">
        <time>2018-01-21T14:36:02.000Z</time>
      </trkpt>
      <trkpt lat="47.54177" lon="-3.0992">
        <time>2018-01-21T14:36:03.000Z</time>
      </trkpt>
      <trkpt lat="47.5418" lon="-3.09922">
        <time>2018-01-21T14:36:04.000Z</time>
      </trkpt>
      <trkpt lat="47.54184" lon="-3.09922">
        <time>2018-01-21T14:36:05.000Z</time>
      </trkpt>
      <trkpt lat="47.54188" lon="-3.09925">
        <time>2018-01-21T14:36:06.000Z</time>
      </trkpt>
      <trkpt lat="47.54192" lon="-3.09926">
        <time>2018-01-21T14:36:07.000Z</time>
      </trkpt>
      <trkpt lat="47.54196" lon="-3.09927">
        <time>2018-01-21T14:36:08.000Z</time>
      </trkpt>
      <trkpt lat="47.54202" lon="-3.09927">
        <time>2018-01-21T14:36:09.000Z</time>
      </trkpt>
      <trkpt lat="47.54208" lon="-3.09926">
        <time>2018-01-21T14:36:10.000Z</time>
      </trkpt>
      <trkpt lat="47.54215" lon="-3.09926">
        <time>2018-01-21T14:36:11.000Z</time>
      </trkpt>
      <trkpt lat="47.54223" lon="-3.09927">
        <time>2018-01-21T14:36:12.000Z</time>
      </trkpt>
      <trkpt lat="47.5423" lon="-3.09928">
        <time>2018-01-21T14:36:13.000Z</time>
      </trkpt>
      <trkpt lat="47.54238" lon="-3.09929">
        <time>2018-01-21T14:36:14.000Z</time>
      </trkpt>
      <trkpt lat="47.54247" lon="-3.09931">
        <time>2018-01-21T14:36:15.000Z</time>
      </trkpt>
      <trkpt lat="47.54256" lon="-3.09933">
        <time>2018-01-21T14:36:16.000Z</time>
      </trkpt>
      <trkpt lat="47.54265" lon="-3.09936">
        <time>2018-01-21T14:36:17.000Z</time>
      </trkpt>
      <trkpt lat="47.54274" lon="-3.09938">
        <time>2018-01-21T14:36:18.000Z</time>
      </trkpt>
      <trkpt lat="47.54283" lon="-3.09941">
        <time>2018-01-21T14:36:19.000Z</time>
      </trkpt>
      <trkpt lat="47.54291" lon="-3.09944">
        <time>2018-01-21T14:36:20.000Z</time>
      </trkpt>
      <trkpt lat="47.543" lon="-3.09946">
        <time>2018-01-21T14:36:21.000Z</time>
      </trkpt>
      <trkpt lat="47.54309" lon="-3.09948">
        <time>2018-01-21T14:36:22.000Z</time>
      </trkpt>
      <trkpt lat="47.54317" lon="-3.0995">
        <time>2018-01-21T14:36:23.000Z</time>
      </trkpt>
      <trkpt lat="47.54326" lon="-3.09952">
        <time>2018-01-21T14:36:24.000Z</time>
      </trkpt>
      <trkpt lat="47.54334" lon="-3.09954">
        <time>2018-01-21T14:36:25.000Z</time>
      </trkpt>
      <trkpt lat="47.54342" lon="-3.09955">
        <time>2018-01-21T14:36:26.000Z</time>
      </trkpt>
      <trkpt lat="47.54351" lon="-3.09956">
        <time>2018-01-21T14:36:27.000Z</time>
      </trkpt>
      <trkpt lat="47.5436" lon="-3.09958">
        <time>2018-01-21T14:36:28.000Z</time>
      </trkpt>
      <trkpt lat="47.54368" lon="-3.0996">
        <time>2018-01-21T14:36:29.000Z</time>
      </trkpt>
      <trkpt lat="47.54377" lon="-3.09965">
        <time>2018-01-21T14:36:30.000Z</time>
      </trkpt>
      <trkpt lat="47.54388" lon="-3.09967">
        <time>2018-01-21T14:36:31.000Z</time>
      </trkpt>
      <trkpt lat="47.54395" lon="-3.0997">
        <time>2018-01-21T14:36:32.000Z</time>
      </trkpt>
      <trkpt lat="47.54404" lon="-3.0997">
        <time>2018-01-21T14:36:33.000Z</time>
      </trkpt>
      <trkpt lat="47.5441" lon="-3.09973">
        <time>2018-01-21T14:36:34.000Z</time>
      </trkpt>
      <trkpt lat="47.54421" lon="-3.09978">
        <time>2018-01-21T14:36:35.000Z</time>
      </trkpt>
      <trkpt lat="47.54433" lon="-3.0998">
        <time>2018-01-21T14:36:36.000Z</time>
      </trkpt>
      <trkpt lat="47.54442" lon="-3.09981">
        <time>2018-01-21T14:36:37.000Z</time>
      </trkpt>
      <trkpt lat="47.54451" lon="-3.09981">
        <time>2018-01-21T14:36:38.000Z</time>
      </trkpt>
      <trkpt lat="47.54461" lon="-3.09979">
        <time>2018-01-21T14:36:39.000Z</time>
      </trkpt>
      <trkpt lat="47.54471" lon="-3.09976">
        <time>2018-01-21T14:36:40.000Z</time>
      </trkpt>
      <trkpt lat="47.54481" lon="-3.09973">
        <time>2018-01-21T14:36:41.000Z</time>
      </trkpt>
      <trkpt lat="47.54491" lon="-3.09972">
        <time>2018-01-21T14:36:42.000Z</time>
      </trkpt>
      <trkpt lat="47.54501" lon="-3.09972">
        <time>2018-01-21T14:36:43.000Z</time>
      </trkpt>
      <trkpt lat="47.5451" lon="-3.09972">
        <time>2018-01-21T14:36:44.000Z</time>
      </trkpt>
      <trkpt lat="47.54519" lon="-3.09974">
        <time>2018-01-21T14:36:45.000Z</time>
      </trkpt>
      <trkpt lat="47.54528" lon="-3.09976">
        <time>2018-01-21T14:36:46.000Z</time>
      </trkpt>
      <trkpt lat="47.54537" lon="-3.09977">
        <time>2018-01-21T14:36:47.000Z</time>
      </trkpt>
      <trkpt lat="47.54545" lon="-3.09977">
        <time>2018-01-21T14:36:48.000Z</time>
      </trkpt>
      <trkpt lat="47.54555" lon="-3.09977">
        <time>2018-01-21T14:36:49.000Z</time>
      </trkpt>
      <trkpt lat="47.54565" lon="-3.09981">
        <time>2018-01-21T14:36:50.000Z</time>
      </trkpt>
      <trkpt lat="47.54573" lon="-3.09983">
        <time>2018-01-21T14:36:51.000Z</time>
      </trkpt>
      <trkpt lat="47.54583" lon="-3.09986">
        <time>2018-01-21T14:36:52.000Z</time>
      </trkpt>
      <trkpt lat="47.54591" lon="-3.09987">
        <time>2018-01-21T14:36:53.000Z</time>
      </trkpt>
      <trkpt lat="47.54601" lon="-3.09989">
        <time>2018-01-21T14:36:54.000Z</time>
      </trkpt>
      <trkpt lat="47.54609" lon="-3.09989">
        <time>2018-01-21T14:36:55.000Z</time>
      </trkpt>
      <trkpt lat="47.54618" lon="-3.09993">
        <time>2018-01-21T14:36:56.000Z</time>
      </trkpt>
      <trkpt lat="47.54627" lon="-3.09999">
        <time>2018-01-21T14:36:57.000Z</time>
      </trkpt>
      <trkpt lat="47.54635" lon="-3.10003">
        <time>2018-01-21T14:36:58.000Z</time>
      </trkpt>
      <trkpt lat="47.54643" lon="-3.10008">
        <time>2018-01-21T14:36:59.000Z</time>
      </trkpt>
      <trkpt lat="47.54651" lon="-3.1001">
        <time>2018-01-21T14:37:00.000Z</time>
      </trkpt>
      <trkpt lat="47.5466" lon="-3.10013">
        <time>2018-01-21T14:37:01.000Z</time>
      </trkpt>
      <trkpt lat="47.54668" lon="-3.10016">
        <time>2018-01-21T14:37:02.000Z</time>
      </trkpt>
      <trkpt lat="47.54676" lon="-3.10019">
        <time>2018-01-21T14:37:03.000Z</time>
      </trkpt>
      <trkpt lat="47.54685" lon="-3.10022">
        <time>2018-01-21T14:37:04.000Z</time>
      </trkpt>
      <trkpt lat="47.54694" lon="-3.10024">
        <time>2018-01-21T14:37:05.000Z</time>
      </trkpt>
      <trkpt lat="47.54703" lon="-3.10026">
        <time>2018-01-21T14:37:06.000Z</time>
      </trkpt>
      <trkpt lat="47.54712" lon="-3.10028">
        <time>2018-01-21T14:37:07.000Z</time>
      </trkpt>
      <trkpt lat="47.54719" lon="-3.10033">
        <time>2018-01-21T14:37:08.000Z</time>
      </trkpt>
      <trkpt lat="47.54728" lon="-3.10034">
        <time>2018-01-21T14:37:09.000Z</time>
      </trkpt>
      <trkpt lat="47.5474" lon="-3.10034">
        <time>2018-01-21T14:37:10.000Z</time>
      </trkpt>
      <trkpt lat="47.5475" lon="-3.10032">
        <time>2018-01-21T14:37:11.000Z</time>
      </trkpt>
      <trkpt lat="47.54759" lon="-3.10032">
        <time>2018-01-21T14:37:12.000Z</time>
      </trkpt>
      <trkpt lat="47.54769" lon="-3.10033">
        <time>2018-01-21T14:37:13.000Z</time>
      </trkpt>
      <trkpt lat="47.54778" lon="-3.10035">
        <time>2018-01-21T14:37:14.000Z</time>
      </trkpt>
      <trkpt lat="47.54785" lon="-3.10038">
        <time>2018-01-21T14:37:15.000Z</time>
      </trkpt>
      <trkpt lat="47.54794" lon="-3.1004">
        <time>2018-01-21T14:37:16.000Z</time>
      </trkpt>
      <trkpt lat="47.54802" lon="-3.10042">
        <time>2018-01-21T14:37:17.000Z</time>
      </trkpt>
      <trkpt lat="47.5481" lon="-3.10044">
        <time>2018-01-21T14:37:18.000Z</time>
      </trkpt>
      <trkpt lat="47.54818" lon="-3.10047">
        <time>2018-01-21T14:37:19.000Z</time>
      </trkpt>
      <trkpt lat="47.54826" lon="-3.10048">
        <time>2018-01-21T14:37:20.000Z</time>
      </trkpt>
      <trkpt lat="47.54834" lon="-3.10049">
        <time>2018-01-21T14:37:21.000Z</time>
      </trkpt>
      <trkpt lat="47.54842" lon="-3.10051">
        <time>2018-01-21T14:37:22.000Z</time>
      </trkpt>
      <trkpt lat="47.54851" lon="-3.10053">
        <time>2018-01-21T14:37:23.000Z</time>
      </trkpt>
      <trkpt lat="47.5486" lon="-3.10055">
        <time>2018-01-21T14:37:24.000Z</time>
      </trkpt>
      <trkpt lat="47.54869" lon="-3.10057">
        <time>2018-01-21T14:37:25.000Z</time>
      </trkpt>
      <trkpt lat="47.54877" lon="-3.1006">
        <time>2018-01-21T14:37:26.000Z</time>
      </trkpt>
      <trkpt lat="47.54886" lon="-3.10062">
        <time>2018-01-21T14:37:27.000Z</time>
      </trkpt>
      <trkpt lat="47.54895" lon="-3.10064">
        <time>2018-01-21T14:37:28.000Z</time>
      </trkpt>
      <trkpt lat="47.54903" lon="-3.10066">
        <time>2018-01-21T14:37:29.000Z</time>
      </trkpt>
      <trkpt lat="47.54912" lon="-3.10069">
        <time>2018-01-21T14:37:30.000Z</time>
      </trkpt>
      <trkpt lat="47.54922" lon="-3.10072">
        <time>2018-01-21T14:37:31.000Z</time>
      </trkpt>
      <trkpt lat="47.54932" lon="-3.10076">
        <time>2018-01-21T14:37:32.000Z</time>
      </trkpt>
      <trkpt lat="47.54941" lon="-3.10079">
        <time>2018-01-21T14:37:33.000Z</time>
      </trkpt>
      <trkpt lat="47.54949" lon="-3.10082">
        <time>2018-01-21T14:37:34.000Z</time>
      </trkpt>
      <trkpt lat="47.54959" lon="-3.10083">
        <time>2018-01-21T14:37:35.000Z</time>
      </trkpt>
      <trkpt lat="47.54968" lon="-3.10085">
        <time>2018-01-21T14:37:36.000Z</time>
      </trkpt>
      <trkpt lat="47.54976" lon="-3.10087">
        <time>2018-01-21T14:37:37.000Z</time>
      </trkpt>
      <trkpt lat="47.54985" lon="-3.10089">
        <time>2018-01-21T14:37:38.000Z</time>
      </trkpt>
      <trkpt lat="47.54993" lon="-3.10091">
        <time>2018-01-21T14:37:39.000Z</time>
      </trkpt>
      <trkpt lat="47.55002" lon="-3.10094">
        <time>2018-01-21T14:37:40.000Z</time>
      </trkpt>
      <trkpt lat="47.55011" lon="-3.10097">
        <time>2018-01-21T14:37:41.000Z</time>
      </trkpt>
      <trkpt lat="47.55019" lon="-3.101">
        <time>2018-01-21T14:37:42.000Z</time>
      </trkpt>
      <trkpt lat="47.55026" lon="-3.10103">
        <time>2018-01-21T14:37:43.000Z</time>
      </trkpt>
      <trkpt lat="47.55035" lon="-3.10106">
        <time>2018-01-21T14:37:44.000Z</time>
      </trkpt>
      <trkpt lat="47.55042" lon="-3.10111">
        <time>2018-01-21T14:37:45.000Z</time>
      </trkpt>
      <trkpt lat="47.55051" lon="-3.10114">
        <time>2018-01-21T14:37:46.000Z</time>
      </trkpt>
      <trkpt lat="47.55058" lon="-3.10117">
        <time>2018-01-21T14:37:47.000Z</time>
      </trkpt>
      <trkpt lat="47.55065" lon="-3.10121">
        <time>2018-01-21T14:37:48.000Z</time>
      </trkpt>
      <trkpt lat="47.55073" lon="-3.10123">
        <time>2018-01-21T14:37:49.000Z</time>
      </trkpt>
      <trkpt lat="47.55081" lon="-3.10125">
        <time>2018-01-21T14:37:50.000Z</time>
      </trkpt>
      <trkpt lat="47.55093" lon="-3.10127">
        <time>2018-01-21T14:37:51.000Z</time>
      </trkpt>
      <trkpt lat="47.55103" lon="-3.10128">
        <time>2018-01-21T14:37:52.000Z</time>
      </trkpt>
      <trkpt lat="47.55112" lon="-3.1013">
        <time>2018-01-21T14:37:53.000Z</time>
      </trkpt>
      <trkpt lat="47.55121" lon="-3.10132">
        <time>2018-01-21T14:37:54.000Z</time>
      </trkpt>
      <trkpt lat="47.5513" lon="-3.10132">
        <time>2018-01-21T14:37:55.000Z</time>
      </trkpt>
      <trkpt lat="47.55138" lon="-3.10135">
        <time>2018-01-21T14:37:56.000Z</time>
      </trkpt>
      <trkpt lat="47.55147" lon="-3.10137">
        <time>2018-01-21T14:37:57.000Z</time>
      </trkpt>
      <trkpt lat="47.55155" lon="-3.1014">
        <time>2018-01-21T14:37:58.000Z</time>
      </trkpt>
      <trkpt lat="47.55162" lon="-3.10144">
        <time>2018-01-21T14:37:59.000Z</time>
      </trkpt>
      <trkpt lat="47.5517" lon="-3.10147">
        <time>2018-01-21T14:38:00.000Z</time>
      </trkpt>
      <trkpt lat="47.55178" lon="-3.10149">
        <time>2018-01-21T14:38:01.000Z</time>
      </trkpt>
      <trkpt lat="47.55186" lon="-3.10149">
        <time>2018-01-21T14:38:02.000Z</time>
      </trkpt>
      <trkpt lat="47.55195" lon="-3.1015">
        <time>2018-01-21T14:38:03.000Z</time>
      </trkpt>
      <trkpt lat="47.55203" lon="-3.1015">
        <time>2018-01-21T14:38:04.000Z</time>
      </trkpt>
      <trkpt lat="47.55212" lon="-3.10148">
        <time>2018-01-21T14:38:05.000Z</time>
      </trkpt>
      <trkpt lat="47.55221" lon="-3.10146">
        <time>2018-01-21T14:38:06.000Z</time>
      </trkpt>
      <trkpt lat="47.5523" lon="-3.10142">
        <time>2018-01-21T14:38:07.000Z</time>
      </trkpt>
      <trkpt lat="47.55239" lon="-3.10134">
        <time>2018-01-21T14:38:08.000Z</time>
      </trkpt>
      <trkpt lat="47.55249" lon="-3.10127">
        <time>2018-01-21T14:38:09.000Z</time>
      </trkpt>
      <trkpt lat="47.55258" lon="-3.10122">
        <time>2018-01-21T14:38:10.000Z</time>
      </trkpt>
      <trkpt lat="47.55267" lon="-3.10116">
        <time>2018-01-21T14:38:11.000Z</time>
      </trkpt>
      <trkpt lat="47.55276" lon="-3.10114">
        <time>2018-01-21T14:38:12.000Z</time>
      </trkpt>
      <trkpt lat="47.55284" lon="-3.10115">
        <time>2018-01-21T14:38:13.000Z</time>
      </trkpt>
      <trkpt lat="47.55293" lon="-3.10118">
        <time>2018-01-21T14:38:14.000Z</time>
      </trkpt>
      <trkpt lat="47.553" lon="-3.10121">
        <time>2018-01-21T14:38:15.000Z</time>
      </trkpt>
      <trkpt lat="47.55307" lon="-3.10124">
        <time>2018-01-21T14:38:16.000Z</time>
      </trkpt>
      <trkpt lat="47.55314" lon="-3.10127">
        <time>2018-01-21T14:38:17.000Z</time>
      </trkpt>
      <trkpt lat="47.5532" lon="-3.10131">
        <time>2018-01-21T14:38:18.000Z</time>
      </trkpt>
      <trkpt lat="47.55326" lon="-3.10136">
        <time>2018-01-21T14:38:19.000Z</time>
      </trkpt>
      <trkpt lat="47.55332" lon="-3.1014">
        <time>2018-01-21T14:38:20.000Z</time>
      </trkpt>
      <trkpt lat="47.55337" lon="-3.10144">
        <time>2018-01-21T14:38:21.000Z</time>
      </trkpt>
      <trkpt lat="47.55343" lon="-3.10147">
        <time>2018-01-21T14:38:22.000Z</time>
      </trkpt>
      <trkpt lat="47.55349" lon="-3.1015">
        <time>2018-01-21T14:38:23.000Z</time>
      </trkpt>
      <trkpt lat="47.55355" lon="-3.10152">
        <time>2018-01-21T14:38:24.000Z</time>
      </trkpt>
      <trkpt lat="47.55362" lon="-3.10155">
        <time>2018-01-21T14:38:25.000Z</time>
      </trkpt>
      <trkpt lat="47.55368" lon="-3.10157">
        <time>2018-01-21T14:38:26.000Z</time>
      </trkpt>
      <trkpt lat="47.55374" lon="-3.10159">
        <time>2018-01-21T14:38:27.000Z</time>
      </trkpt>
      <trkpt lat="47.5538" lon="-3.10162">
        <time>2018-01-21T14:38:28.000Z</time>
      </trkpt>
      <trkpt lat="47.55386" lon="-3.10164">
        <time>2018-01-21T14:38:29.000Z</time>
      </trkpt>
      <trkpt lat="47.55393" lon="-3.10165">
        <time>2018-01-21T14:38:30.000Z</time>
      </trkpt>
      <trkpt lat="47.55399" lon="-3.10165">
        <time>2018-01-21T14:38:31.000Z</time>
      </trkpt>
      <trkpt lat="47.55406" lon="-3.10167">
        <time>2018-01-21T14:38:32.000Z</time>
      </trkpt>
      <trkpt lat="47.55413" lon="-3.10168">
        <time>2018-01-21T14:38:33.000Z</time>
      </trkpt>
      <trkpt lat="47.5542" lon="-3.10168">
        <time>2018-01-21T14:38:34.000Z</time>
      </trkpt>
      <trkpt lat="47.55427" lon="-3.10169">
        <time>2018-01-21T14:38:35.000Z</time>
      </trkpt>
      <trkpt lat="47.55434" lon="-3.10171">
        <time>2018-01-21T14:38:36.000Z</time>
      </trkpt>
      <trkpt lat="47.55441" lon="-3.10173">
        <time>2018-01-21T14:38:37.000Z</time>
      </trkpt>
      <trkpt lat="47.55448" lon="-3.10175">
        <time>2018-01-21T14:38:38.000Z</time>
      </trkpt>
      <trkpt lat="47.55455" lon="-3.10177">
        <time>2018-01-21T14:38:39.000Z</time>
      </trkpt>
      <trkpt lat="47.55463" lon="-3.10179">
        <time>2018-01-21T14:38:40.000Z</time>
      </trkpt>
      <trkpt lat="47.5547" lon="-3.10181">
        <time>2018-01-21T14:38:41.000Z</time>
      </trkpt>
      <trkpt lat="47.55476" lon="-3.10183">
        <time>2018-01-21T14:38:42.000Z</time>
      </trkpt>
      <trkpt lat="47.55483" lon="-3.10185">
        <time>2018-01-21T14:38:43.000Z</time>
      </trkpt>
      <trkpt lat="47.55491" lon="-3.10186">
        <time>2018-01-21T14:38:44.000Z</time>
      </trkpt>
      <trkpt lat="47.55498" lon="-3.10188">
        <time>2018-01-21T14:38:45.000Z</time>
      </trkpt>
      <trkpt lat="47.55504" lon="-3.10191">
        <time>2018-01-21T14:38:46.000Z</time>
      </trkpt>
      <trkpt lat="47.55511" lon="-3.10193">
        <time>2018-01-21T14:38:47.000Z</time>
      </trkpt>
      <trkpt lat="47.55519" lon="-3.10193">
        <time>2018-01-21T14:38:48.000Z</time>
      </trkpt>
      <trkpt lat="47.55526" lon="-3.10191">
        <time>2018-01-21T14:38:49.000Z</time>
      </trkpt>
      <trkpt lat="47.55534" lon="-3.1019">
        <time>2018-01-21T14:38:50.000Z</time>
      </trkpt>
      <trkpt lat="47.55542" lon="-3.10189">
        <time>2018-01-21T14:38:51.000Z</time>
      </trkpt>
      <trkpt lat="47.5555" lon="-3.10188">
        <time>2018-01-21T14:38:52.000Z</time>
      </trkpt>
      <trkpt lat="47.55557" lon="-3.10186">
        <time>2018-01-21T14:38:53.000Z</time>
      </trkpt>
      <trkpt lat="47.55565" lon="-3.10185">
        <time>2018-01-21T14:38:54.000Z</time>
      </trkpt>
      <trkpt lat="47.55573" lon="-3.10184">
        <time>2018-01-21T14:38:55.000Z</time>
      </trkpt>
      <trkpt lat="47.55581" lon="-3.10183">
        <time>2018-01-21T14:38:56.000Z</time>
      </trkpt>
      <trkpt lat="47.55589" lon="-3.10181">
        <time>2018-01-21T14:38:57.000Z</time>
      </trkpt>
      <trkpt lat="47.55598" lon="-3.1018">
        <time>2018-01-21T14:38:58.000Z</time>
      </trkpt>
      <trkpt lat="47.55607" lon="-3.10179">
        <time>2018-01-21T14:38:59.000Z</time>
      </trkpt>
      <trkpt lat="47.55615" lon="-3.1018">
        <time>2018-01-21T14:39:00.000Z</time>
      </trkpt>
      <trkpt lat="47.55624" lon="-3.10179">
        <time>2018-01-21T14:39:01.000Z</time>
      </trkpt>
      <trkpt lat="47.55632" lon="-3.10179">
        <time>2018-01-21T14:39:02.000Z</time>
      </trkpt>
      <trkpt lat="47.55641" lon="-3.1018">
        <time>2018-01-21T14:39:03.000Z</time>
      </trkpt>
      <trkpt lat="47.55649" lon="-3.10182">
        <time>2018-01-21T14:39:04.000Z</time>
      </trkpt>
      <trkpt lat="47.55658" lon="-3.10184">
        <time>2018-01-21T14:39:05.000Z</time>
      </trkpt>
      <trkpt lat="47.55667" lon="-3.10186">
        <time>2018-01-21T14:39:06.000Z</time>
      </trkpt>
      <trkpt lat="47.55675" lon="-3.10189">
        <time>2018-01-21T14:39:07.000Z</time>
      </trkpt>
      <trkpt lat="47.55684" lon="-3.10191">
        <time>2018-01-21T14:39:08.000Z</time>
      </trkpt>
      <trkpt lat="47.55693" lon="-3.10192">
        <time>2018-01-21T14:39:09.000Z</time>
      </trkpt>
      <trkpt lat="47.55702" lon="-3.10194">
        <time>2018-01-21T14:39:10.000Z</time>
      </trkpt>
      <trkpt lat="47.5571" lon="-3.10195">
        <time>2018-01-21T14:39:11.000Z</time>
      </trkpt>
      <trkpt lat="47.55719" lon="-3.10196">
        <time>2018-01-21T14:39:12.000Z</time>
      </trkpt>
      <trkpt lat="47.55728" lon="-3.10198">
        <time>2018-01-21T14:39:13.000Z</time>
      </trkpt>
      <trkpt lat="47.55737" lon="-3.10199">
        <time>2018-01-21T14:39:14.000Z</time>
      </trkpt>
      <trkpt lat="47.55746" lon="-3.10201">
        <time>2018-01-21T14:39:15.000Z</time>
      </trkpt>
      <trkpt lat="47.55755" lon="-3.10204">
        <time>2018-01-21T14:39:16.000Z</time>
      </trkpt>
      <trkpt lat="47.55763" lon="-3.10207">
        <time>2018-01-21T14:39:17.000Z</time>
      </trkpt>
      <trkpt lat="47.55772" lon="-3.1021">
        <time>2018-01-21T14:39:18.000Z</time>
      </trkpt>
      <trkpt lat="47.5578" lon="-3.10212">
        <time>2018-01-21T14:39:19.000Z</time>
      </trkpt>
      <trkpt lat="47.55789" lon="-3.10214">
        <time>2018-01-21T14:39:20.000Z</time>
      </trkpt>
      <trkpt lat="47.55797" lon="-3.10217">
        <time>2018-01-21T14:39:21.000Z</time>
      </trkpt>
      <trkpt lat="47.55805" lon="-3.10219">
        <time>2018-01-21T14:39:22.000Z</time>
      </trkpt>
      <trkpt lat="47.55813" lon="-3.10222">
        <time>2018-01-21T14:39:23.000Z</time>
      </trkpt>
      <trkpt lat="47.55822" lon="-3.10223">
        <time>2018-01-21T14:39:24.000Z</time>
      </trkpt>
      <trkpt lat="47.55831" lon="-3.10224">
        <time>2018-01-21T14:39:25.000Z</time>
      </trkpt>
      <trkpt lat="47.5584" lon="-3.10224">
        <time>2018-01-21T14:39:26.000Z</time>
      </trkpt>
      <trkpt lat="47.55849" lon="-3.10224">
        <time>2018-01-21T14:39:27.000Z</time>
      </trkpt>
      <trkpt lat="47.55858" lon="-3.10226">
        <time>2018-01-21T14:39:28.000Z</time>
      </trkpt>
      <trkpt lat="47.55867" lon="-3.10228">
        <time>2018-01-21T14:39:29.000Z</time>
      </trkpt>
      <trkpt lat="47.55876" lon="-3.1023">
        <time>2018-01-21T14:39:30.000Z</time>
      </trkpt>
      <trkpt lat="47.55884" lon="-3.10231">
        <time>2018-01-21T14:39:31.000Z</time>
      </trkpt>
      <trkpt lat="47.55893" lon="-3.10232">
        <time>2018-01-21T14:39:32.000Z</time>
      </trkpt>
      <trkpt lat="47.55902" lon="-3.10233">
        <time>2018-01-21T14:39:33.000Z</time>
      </trkpt>
      <trkpt lat="47.55911" lon="-3.10234">
        <time>2018-01-21T14:39:34.000Z</time>
      </trkpt>
      <trkpt lat="47.5592" lon="-3.10235">
        <time>2018-01-21T14:39:35.000Z</time>
      </trkpt>
      <trkpt lat="47.55929" lon="-3.10235">
        <time>2018-01-21T14:39:36.000Z</time>
      </trkpt>
      <trkpt lat="47.55937" lon="-3.10236">
        <time>2018-01-21T14:39:37.000Z</time>
      </trkpt>
      <trkpt lat="47.55946" lon="-3.10237">
        <time>2018-01-21T14:39:38.000Z</time>
      </trkpt>
      <trkpt lat="47.55954" lon="-3.10239">
        <time>2018-01-21T14:39:39.000Z</time>
      </trkpt>
      <trkpt lat="47.55962" lon="-3.10239">
        <time>2018-01-21T14:39:40.000Z</time>
      </trkpt>
      <trkpt lat="47.5597" lon="-3.1024">
        <time>2018-01-21T14:39:41.000Z</time>
      </trkpt>
      <trkpt lat="47.55979" lon="-3.10241">
        <time>2018-01-21T14:39:42.000Z</time>
      </trkpt>
      <trkpt lat="47.55987" lon="-3.1024">
        <time>2018-01-21T14:39:43.000Z</time>
      </trkpt>
      <trkpt lat="47.55996" lon="-3.1024">
        <time>2018-01-21T14:39:44.000Z</time>
      </trkpt>
      <trkpt lat="47.56005" lon="-3.10239">
        <time>2018-01-21T14:39:45.000Z</time>
      </trkpt>
      <trkpt lat="47.56014" lon="-3.1024">
        <time>2018-01-21T14:39:46.000Z</time>
      </trkpt>
      <trkpt lat="47.56023" lon="-3.1024">
        <time>2018-01-21T14:39:47.000Z</time>
      </trkpt>
      <trkpt lat="47.56032" lon="-3.1024">
        <time>2018-01-21T14:39:48.000Z</time>
      </trkpt>
      <trkpt lat="47.56041" lon="-3.10241">
        <time>2018-01-21T14:39:49.000Z</time>
      </trkpt>
      <trkpt lat="47.56051" lon="-3.10241">
        <time>2018-01-21T14:39:50.000Z</time>
      </trkpt>
      <trkpt lat="47.5606" lon="-3.10241">
        <time>2018-01-21T14:39:51.000Z</time>
      </trkpt>
      <trkpt lat="47.56069" lon="-3.10241">
        <time>2018-01-21T14:39:52.000Z</time>
      </trkpt>
      <trkpt lat="47.56078" lon="-3.10244">
        <time>2018-01-21T14:39:53.000Z</time>
      </trkpt>
      <trkpt lat="47.56087" lon="-3.10246">
        <time>2018-01-21T14:39:54.000Z</time>
      </trkpt>
      <trkpt lat="47.56096" lon="-3.10249">
        <time>2018-01-21T14:39:55.000Z</time>
      </trkpt>
      <trkpt lat="47.56106" lon="-3.10252">
        <time>2018-01-21T14:39:56.000Z</time>
      </trkpt>
      <trkpt lat="47.56114" lon="-3.10254">
        <time>2018-01-21T14:39:57.000Z</time>
      </trkpt>
      <trkpt lat="47.56122" lon="-3.10256">
        <time>2018-01-21T14:39:58.000Z</time>
      </trkpt>
      <trkpt lat="47.56131" lon="-3.10258">
        <time>2018-01-21T14:39:59.000Z</time>
      </trkpt>
      <trkpt lat="47.5614" lon="-3.10259">
        <time>2018-01-21T14:40:00.000Z</time>
      </trkpt>
      <trkpt lat="47.56148" lon="-3.10262">
        <time>2018-01-21T14:40:01.000Z</time>
      </trkpt>
      <trkpt lat="47.56157" lon="-3.10265">
        <time>2018-01-21T14:40:02.000Z</time>
      </trkpt>
      <trkpt lat="47.56165" lon="-3.10269">
        <time>2018-01-21T14:40:03.000Z</time>
      </trkpt>
      <trkpt lat="47.56174" lon="-3.10271">
        <time>2018-01-21T14:40:04.000Z</time>
      </trkpt>
      <trkpt lat="47.56182" lon="-3.10272">
        <time>2018-01-21T14:40:05.000Z</time>
      </trkpt>
      <trkpt lat="47.56191" lon="-3.10274">
        <time>2018-01-21T14:40:06.000Z</time>
      </trkpt>
      <trkpt lat="47.562" lon="-3.10275">
        <time>2018-01-21T14:40:07.000Z</time>
      </trkpt>
      <trkpt lat="47.56209" lon="-3.10277">
        <time>2018-01-21T14:40:08.000Z</time>
      </trkpt>
      <trkpt lat="47.56217" lon="-3.10279">
        <time>2018-01-21T14:40:09.000Z</time>
      </trkpt>
      <trkpt lat="47.56225" lon="-3.1028">
        <time>2018-01-21T14:40:10.000Z</time>
      </trkpt>
      <trkpt lat="47.56234" lon="-3.10282">
        <time>2018-01-21T14:40:11.000Z</time>
      </trkpt>
      <trkpt lat="47.56242" lon="-3.10283">
        <time>2018-01-21T14:40:12.000Z</time>
      </trkpt>
      <trkpt lat="47.56251" lon="-3.10283">
        <time>2018-01-21T14:40:13.000Z</time>
      </trkpt>
      <trkpt lat="47.56259" lon="-3.10283">
        <time>2018-01-21T14:40:14.000Z</time>
      </trkpt>
      <trkpt lat="47.56267" lon="-3.10283">
        <time>2018-01-21T14:40:15.000Z</time>
      </trkpt>
      <trkpt lat="47.56275" lon="-3.10283">
        <time>2018-01-21T14:40:16.000Z</time>
      </trkpt>
      <trkpt lat="47.56284" lon="-3.10282">
        <time>2018-01-21T14:40:17.000Z</time>
      </trkpt>
      <trkpt lat="47.56292" lon="-3.10279">
        <time>2018-01-21T14:40:18.000Z</time>
      </trkpt>
      <trkpt lat="47.56301" lon="-3.10275">
        <time>2018-01-21T14:40:19.000Z</time>
      </trkpt>
      <trkpt lat="47.56311" lon="-3.10274">
        <time>2018-01-21T14:40:20.000Z</time>
      </trkpt>
      <trkpt lat="47.5632" lon="-3.10274">
        <time>2018-01-21T14:40:21.000Z</time>
      </trkpt>
      <trkpt lat="47.56329" lon="-3.10275">
        <time>2018-01-21T14:40:22.000Z</time>
      </trkpt>
      <trkpt lat="47.56339" lon="-3.10275">
        <time>2018-01-21T14:40:23.000Z</time>
      </trkpt>
      <trkpt lat="47.56347" lon="-3.10276">
        <time>2018-01-21T14:40:24.000Z</time>
      </trkpt>
      <trkpt lat="47.56355" lon="-3.10279">
        <time>2018-01-21T14:40:25.000Z</time>
      </trkpt>
      <trkpt lat="47.56363" lon="-3.10281">
        <time>2018-01-21T14:40:26.000Z</time>
      </trkpt>
      <trkpt lat="47.56371" lon="-3.10287">
        <time>2018-01-21T14:40:27.000Z</time>
      </trkpt>
      <trkpt lat="47.56379" lon="-3.10288">
        <time>2018-01-21T14:40:28.000Z</time>
      </trkpt>
      <trkpt lat="47.56389" lon="-3.10288">
        <time>2018-01-21T14:40:29.000Z</time>
      </trkpt>
      <trkpt lat="47.564" lon="-3.10291">
        <time>2018-01-21T14:40:30.000Z</time>
      </trkpt>
      <trkpt lat="47.56409" lon="-3.10291">
        <time>2018-01-21T14:40:31.000Z</time>
      </trkpt>
      <trkpt lat="47.56419" lon="-3.1029">
        <time>2018-01-21T14:40:32.000Z</time>
      </trkpt>
      <trkpt lat="47.56429" lon="-3.10291">
        <time>2018-01-21T14:40:33.000Z</time>
      </trkpt>
      <trkpt lat="47.56439" lon="-3.10292">
        <time>2018-01-21T14:40:34.000Z</time>
      </trkpt>
      <trkpt lat="47.56447" lon="-3.10293">
        <time>2018-01-21T14:40:35.000Z</time>
      </trkpt>
      <trkpt lat="47.56456" lon="-3.10293">
        <time>2018-01-21T14:40:36.000Z</time>
      </trkpt>
      <trkpt lat="47.56465" lon="-3.10291">
        <time>2018-01-21T14:40:37.000Z</time>
      </trkpt>
      <trkpt lat="47.56475" lon="-3.10291">
        <time>2018-01-21T14:40:38.000Z</time>
      </trkpt>
      <trkpt lat="47.56484" lon="-3.10291">
        <time>2018-01-21T14:40:39.000Z</time>
      </trkpt>
      <trkpt lat="47.56492" lon="-3.10288">
        <time>2018-01-21T14:40:40.000Z</time>
      </trkpt>
      <trkpt lat="47.56501" lon="-3.10286">
        <time>2018-01-21T14:40:41.000Z</time>
      </trkpt>
      <trkpt lat="47.56509" lon="-3.10285">
        <time>2018-01-21T14:40:42.000Z</time>
      </trkpt>
      <trkpt lat="47.56516" lon="-3.10284">
        <time>2018-01-21T14:40:43.000Z</time>
      </trkpt>
      <trkpt lat="47.56524" lon="-3.10283">
        <time>2018-01-21T14:40:44.000Z</time>
      </trkpt>
      <trkpt lat="47.56532" lon="-3.10282">
        <time>2018-01-21T14:40:45.000Z</time>
      </trkpt>
      <trkpt lat="47.5654" lon="-3.10281">
        <time>2018-01-21T14:40:46.000Z</time>
      </trkpt>
      <trkpt lat="47.56548" lon="-3.10278">
        <time>2018-01-21T14:40:47.000Z</time>
      </trkpt>
      <trkpt lat="47.56556" lon="-3.10276">
        <time>2018-01-21T14:40:48.000Z</time>
      </trkpt>
      <trkpt lat="47.56564" lon="-3.10274">
        <time>2018-01-21T14:40:49.000Z</time>
      </trkpt>
      <trkpt lat="47.56573" lon="-3.10274">
        <time>2018-01-21T14:40:50.000Z</time>
      </trkpt>
      <trkpt lat="47.56581" lon="-3.10273">
        <time>2018-01-21T14:40:51.000Z</time>
      </trkpt>
      <trkpt lat="47.5659" lon="-3.10273">
        <time>2018-01-21T14:40:52.000Z</time>
      </trkpt>
      <trkpt lat="47.56598" lon="-3.10271">
        <time>2018-01-21T14:40:53.000Z</time>
      </trkpt>
      <trkpt lat="47.56606" lon="-3.10268">
        <time>2018-01-21T14:40:54.000Z</time>
      </trkpt>
      <trkpt lat="47.56614" lon="-3.10265">
        <time>2018-01-21T14:40:55.000Z</time>
      </trkpt>
      <trkpt lat="47.56621" lon="-3.10263">
        <time>2018-01-21T14:40:56.000Z</time>
      </trkpt>
      <trkpt lat="47.56629" lon="-3.10259">
        <time>2018-01-21T14:40:57.000Z</time>
      </trkpt>
      <trkpt lat="47.56637" lon="-3.10255">
        <time>2018-01-21T14:40:58.000Z</time>
      </trkpt>
      <trkpt lat="47.56645" lon="-3.10251">
        <time>2018-01-21T14:40:59.000Z</time>
      </trkpt>
      <trkpt lat="47.56652" lon="-3.10248">
        <time>2018-01-21T14:41:00.000Z</time>
      </trkpt>
      <trkpt lat="47.5666" lon="-3.10244">
        <time>2018-01-21T14:41:01.000Z</time>
      </trkpt>
      <trkpt lat="47.56667" lon="-3.1024">
        <time>2018-01-21T14:41:02.000Z</time>
      </trkpt>
      <trkpt lat="47.56675" lon="-3.10236">
        <time>2018-01-21T14:41:03.000Z</time>
      </trkpt>
      <trkpt lat="47.56682" lon="-3.10231">
        <time>2018-01-21T14:41:04.000Z</time>
      </trkpt>
      <trkpt lat="47.5669" lon="-3.10227">
        <time>2018-01-21T14:41:05.000Z</time>
      </trkpt>
      <trkpt lat="47.56697" lon="-3.10223">
        <time>2018-01-21T14:41:06.000Z</time>
      </trkpt>
      <trkpt lat="47.56704" lon="-3.1022">
        <time>2018-01-21T14:41:07.000Z</time>
      </trkpt>
      <trkpt lat="47.56711" lon="-3.10218">
        <time>2018-01-21T14:41:08.000Z</time>
      </trkpt>
      <trkpt lat="47.56718" lon="-3.10217">
        <time>2018-01-21T14:41:09.000Z</time>
      </trkpt>
      <trkpt lat="47.56725" lon="-3.10215">
        <time>2018-01-21T14:41:10.000Z</time>
      </trkpt>
      <trkpt lat="47.56732" lon="-3.10214">
        <time>2018-01-21T14:41:11.000Z</time>
      </trkpt>
      <trkpt lat="47.56738" lon="-3.10211">
        <time>2018-01-21T14:41:12.000Z</time>
      </trkpt>
      <trkpt lat="47.56745" lon="-3.10208">
        <time>2018-01-21T14:41:13.000Z</time>
      </trkpt>
      <trkpt lat="47.56751" lon="-3.10206">
        <time>2018-01-21T14:41:14.000Z</time>
      </trkpt>
      <trkpt lat="47.56757" lon="-3.10203">
        <time>2018-01-21T14:41:15.000Z</time>
      </trkpt>
      <trkpt lat="47.56764" lon="-3.102">
        <time>2018-01-21T14:41:16.000Z</time>
      </trkpt>
      <trkpt lat="47.56769" lon="-3.10199">
        <time>2018-01-21T14:41:17.000Z</time>
      </trkpt>
      <trkpt lat="47.56775" lon="-3.10197">
        <time>2018-01-21T14:41:18.000Z</time>
      </trkpt>
      <trkpt lat="47.56779" lon="-3.10195">
        <time>2018-01-21T14:41:19.000Z</time>
      </trkpt>
      <trkpt lat="47.56783" lon="-3.10193">
        <time>2018-01-21T14:41:20.000Z</time>
      </trkpt>
      <trkpt lat="47.56787" lon="-3.10191">
        <time>2018-01-21T14:41:21.000Z</time>
      </trkpt>
      <trkpt lat="47.56791" lon="-3.10188">
        <time>2018-01-21T14:41:22.000Z</time>
      </trkpt>
      <trkpt lat="47.56795" lon="-3.10186">
        <time>2018-01-21T14:41:23.000Z</time>
      </trkpt>
      <trkpt lat="47.568" lon="-3.10183">
        <time>2018-01-21T14:41:24.000Z</time>
      </trkpt>
      <trkpt lat="47.56804" lon="-3.1018">
        <time>2018-01-21T14:41:25.000Z</time>
      </trkpt>
      <trkpt lat="47.56809" lon="-3.10178">
        <time>2018-01-21T14:41:26.000Z</time>
      </trkpt>
      <trkpt lat="47.56813" lon="-3.10175">
        <time>2018-01-21T14:41:27.000Z</time>
      </trkpt>
      <trkpt lat="47.56817" lon="-3.10173">
        <time>2018-01-21T14:41:28.000Z</time>
      </trkpt>
      <trkpt lat="47.5682" lon="-3.10171">
        <time>2018-01-21T14:41:29.000Z</time>
      </trkpt>
      <trkpt lat="47.56824" lon="-3.1017">
        <time>2018-01-21T14:41:30.000Z</time>
      </trkpt>
      <trkpt lat="47.56828" lon="-3.10168">
        <time>2018-01-21T14:41:31.000Z</time>
      </trkpt>
      <trkpt lat="47.56833" lon="-3.10168">
        <time>2018-01-21T14:41:32.000Z</time>
      </trkpt>
      <trkpt lat="47.56837" lon="-3.10167">
        <time>2018-01-21T14:41:33.000Z</time>
      </trkpt>
      <trkpt lat="47.56844" lon="-3.10165">
        <time>2018-01-21T14:41:34.000Z</time>
      </trkpt>
      <trkpt lat="47.56849" lon="-3.10162">
        <time>2018-01-21T14:41:35.000Z</time>
      </trkpt>
      <trkpt lat="47.56855" lon="-3.10159">
        <time>2018-01-21T14:41:36.000Z</time>
      </trkpt>
      <trkpt lat="47.56861" lon="-3.10159">
        <time>2018-01-21T14:41:37.000Z</time>
      </trkpt>
      <trkpt lat="47.56865" lon="-3.10156">
        <time>2018-01-21T14:41:38.000Z</time>
      </trkpt>
      <trkpt lat="47.56867" lon="-3.10156">
        <time>2018-01-21T14:41:39.000Z</time>
      </trkpt>
      <trkpt lat="47.56868" lon="-3.10156">
        <time>2018-01-21T14:41:40.000Z</time>
      </trkpt>
      <trkpt lat="47.56869" lon="-3.10155">
        <time>2018-01-21T14:41:41.000Z</time>
      </trkpt>
      <trkpt lat="47.5687" lon="-3.10154">
        <time>2018-01-21T14:41:42.000Z</time>
      </trkpt>
      <trkpt lat="47.56871" lon="-3.10152">
        <time>2018-01-21T14:41:43.000Z</time>
      </trkpt>
      <trkpt lat="47.56873" lon="-3.10152">
        <time>2018-01-21T14:41:44.000Z</time>
      </trkpt>
      <trkpt lat="47.56875" lon="-3.10151">
        <time>2018-01-21T14:41:45.000Z</time>
      </trkpt>
      <trkpt lat="47.56876" lon="-3.10152">
        <time>2018-01-21T14:41:46.000Z</time>
      </trkpt>
      <trkpt lat="47.56878" lon="-3.10152">
        <time>2018-01-21T14:41:47.000Z</time>
      </trkpt>
      <trkpt lat="47.56881" lon="-3.10151">
        <time>2018-01-21T14:41:48.000Z</time>
      </trkpt>
      <trkpt lat="47.56883" lon="-3.1015">
        <time>2018-01-21T14:41:49.000Z</time>
      </trkpt>
      <trkpt lat="47.56886" lon="-3.10149">
        <time>2018-01-21T14:41:50.000Z</time>
      </trkpt>
      <trkpt lat="47.56888" lon="-3.10148">
        <time>2018-01-21T14:41:51.000Z</time>
      </trkpt>
      <trkpt lat="47.56891" lon="-3.10147">
        <time>2018-01-21T14:41:52.000Z</time>
      </trkpt>
      <trkpt lat="47.56893" lon="-3.10146">
        <time>2018-01-21T14:41:53.000Z</time>
      </trkpt>
      <trkpt lat="47.56896" lon="-3.10145">
        <time>2018-01-21T14:41:54.000Z</time>
      </trkpt>
      <trkpt lat="47.56898" lon="-3.10144">
        <time>2018-01-21T14:41:55.000Z</time>
      </trkpt>
      <trkpt lat="47.569" lon="-3.10144">
        <time>2018-01-21T14:41:56.000Z</time>
      </trkpt>
      <trkpt lat="47.56902" lon="-3.10144">
        <time>2018-01-21T14:41:57.000Z</time>
      </trkpt>
      <trkpt lat="47.56906" lon="-3.10143">
        <time>2018-01-21T14:41:58.000Z</time>
      </trkpt>
      <trkpt lat="47.5691" lon="-3.10141">
        <time>2018-01-21T14:41:59.000Z</time>
      </trkpt>
      <trkpt lat="47.56913" lon="-3.10137">
        <time>2018-01-21T14:42:00.000Z</time>
      </trkpt>
      <trkpt lat="47.56917" lon="-3.10133">
        <time>2018-01-21T14:42:01.000Z</time>
      </trkpt>
      <trkpt lat="47.5692" lon="-3.10128">
        <time>2018-01-21T14:42:02.000Z</time>
      </trkpt>
      <trkpt lat="47.56923" lon="-3.10125">
        <time>2018-01-21T14:42:03.000Z</time>
      </trkpt>
      <trkpt lat="47.56926" lon="-3.10122">
        <time>2018-01-21T14:42:04.000Z</time>
      </trkpt>
      <trkpt lat="47.56929" lon="-3.10121">
        <time>2018-01-21T14:42:05.000Z</time>
      </trkpt>
      <trkpt lat="47.56932" lon="-3.1012">
        <time>2018-01-21T14:42:06.000Z</time>
      </trkpt>
      <trkpt lat="47.56934" lon="-3.10119">
        <time>2018-01-21T14:42:07.000Z</time>
      </trkpt>
      <trkpt lat="47.56937" lon="-3.10119">
        <time>2018-01-21T14:42:08.000Z</time>
      </trkpt>
      <trkpt lat="47.56939" lon="-3.10118">
        <time>2018-01-21T14:42:09.000Z</time>
      </trkpt>
      <trkpt lat="47.56942" lon="-3.10117">
        <time>2018-01-21T14:42:10.000Z</time>
      </trkpt>
      <trkpt lat="47.56944" lon="-3.10115">
        <time>2018-01-21T14:42:11.000Z</time>
      </trkpt>
      <trkpt lat="47.56947" lon="-3.10113">
        <time>2018-01-21T14:42:12.000Z</time>
      </trkpt>
      <trkpt lat="47.5695" lon="-3.10111">
        <time>2018-01-21T14:42:13.000Z</time>
      </trkpt>
      <trkpt lat="47.56952" lon="-3.10109">
        <time>2018-01-21T14:42:14.000Z</time>
      </trkpt>
      <trkpt lat="47.56955" lon="-3.10106">
        <time>2018-01-21T14:42:15.000Z</time>
      </trkpt>
      <trkpt lat="47.56957" lon="-3.10104">
        <time>2018-01-21T14:42:16.000Z</time>
      </trkpt>
      <trkpt lat="47.56958" lon="-3.10102">
        <time>2018-01-21T14:42:17.000Z</time>
      </trkpt>
      <trkpt lat="47.56959" lon="-3.10102">
        <time>2018-01-21T14:42:18.000Z</time>
      </trkpt>
      <trkpt lat="47.56959" lon="-3.10102">
        <time>2018-01-21T14:42:19.000Z</time>
      </trkpt>
      <trkpt lat="47.56959" lon="-3.10102">
        <time>2018-01-21T14:42:20.000Z</time>
      </trkpt>
      <trkpt lat="47.56959" lon="-3.10102">
        <time>2018-01-21T14:42:21.000Z</time>
      </trkpt>
      <trkpt lat="47.56959" lon="-3.10102">
        <time>2018-01-21T14:42:22.000Z</time>
      </trkpt>
      <trkpt lat="47.56959" lon="-3.10102">
        <time>2018-01-21T14:42:23.000Z</time>
      </trkpt>
      <trkpt lat="47.56959" lon="-3.10102">
        <time>2018-01-21T14:42:24.000Z</time>
      </trkpt>
      <trkpt lat="47.56959" lon="-3.10102">
        <time>2018-01-21T14:42:25.000Z</time>
      </trkpt>
      <trkpt lat="47.56959" lon="-3.10102">
        <time>2018-01-21T14:42:26.000Z</time>
      </trkpt>
      <trkpt lat="47.56959" lon="-3.10102">
        <time>2018-01-21T14:42:27.000Z</time>
      </trkpt>
      <trkpt lat="47.56959" lon="-3.10102">
        <time>2018-01-21T14:42:28.000Z</time>
      </trkpt>
      <trkpt lat="47.56959" lon="-3.10102">
        <time>2018-01-21T14:42:29.000Z</time>
      </trkpt>
      <trkpt lat="47.56959" lon="-3.10102">
        <time>2018-01-21T14:42:30.000Z</time>
      </trkpt>
      <trkpt lat="47.56959" lon="-3.10102">
        <time>2018-01-21T14:42:31.000Z</time>
      </trkpt>
      <trkpt lat="47.56959" lon="-3.10102">
        <time>2018-01-21T14:42:32.000Z</time>
      </trkpt>
      <trkpt lat="47.56959" lon="-3.10102">
        <time>2018-01-21T14:42:33.000Z</time>
      </trkpt>
      <trkpt lat="47.56959" lon="-3.10102">
        <time>2018-01-21T14:42:34.000Z</time>
      </trkpt>
      <trkpt lat="47.56959" lon="-3.10102">
        <time>2018-01-21T14:42:35.000Z</time>
      </trkpt>
      <trkpt lat="47.56959" lon="-3.10102">
        <time>2018-01-21T14:42:36.000Z</time>
      </trkpt>
      <trkpt lat="47.56959" lon="-3.10102">
        <time>2018-01-21T14:42:37.000Z</time>
      </trkpt>
      <trkpt lat="47.56959" lon="-3.10102">
        <time>2018-01-21T14:42:38.000Z</time>
      </trkpt>
      <trkpt lat="47.56959" lon="-3.10102">
        <time>2018-01-21T14:42:39.000Z</time>
      </trkpt>
      <trkpt lat="47.56959" lon="-3.10102">
        <time>2018-01-21T14:42:40.000Z</time>
      </trkpt>
      <trkpt lat="47.56959" lon="-3.10102">
        <time>2018-01-21T14:42:41.000Z</time>
      </trkpt>
      <trkpt lat="47.56959" lon="-3.10102">
        <time>2018-01-21T14:42:42.000Z</time>
      </trkpt>
      <trkpt lat="47.56959" lon="-3.10102">
        <time>2018-01-21T14:42:43.000Z</time>
      </trkpt>
      <trkpt lat="47.56959" lon="-3.10102">
        <time>2018-01-21T14:42:44.000Z</time>
      </trkpt>
      <trkpt lat="47.56959" lon="-3.10102">
        <time>2018-01-21T14:42:45.000Z</time>
      </trkpt>
      <trkpt lat="47.56959" lon="-3.10102">
        <time>2018-01-21T14:42:46.000Z</time>
      </trkpt>
      <trkpt lat="47.56959" lon="-3.10102">
        <time>2018-01-21T14:42:47.000Z</time>
      </trkpt>
      <trkpt lat="47.56959" lon="-3.10102">
        <time>2018-01-21T14:42:48.000Z</time>
      </trkpt>
      <trkpt lat="47.56959" lon="-3.10102">
        <time>2018-01-21T14:42:49.000Z</time>
      </trkpt>
      <trkpt lat="47.56959" lon="-3.10102">
        <time>2018-01-21T14:42:50.000Z</time>
      </trkpt>
      <trkpt lat="47.56959" lon="-3.10102">
        <time>2018-01-21T14:42:51.000Z</time>
      </trkpt>
      <trkpt lat="47.56959" lon="-3.10102">
        <time>2018-01-21T14:42:52.000Z</time>
      </trkpt>
      <trkpt lat="47.56959" lon="-3.10102">
        <time>2018-01-21T14:42:53.000Z</time>
      </trkpt>
      <trkpt lat="47.56959" lon="-3.10102">
        <time>2018-01-21T14:42:54.000Z</time>
      </trkpt>
      <trkpt lat="47.56959" lon="-3.10102">
        <time>2018-01-21T14:42:55.000Z</time>
      </trkpt>
      <trkpt lat="47.56959" lon="-3.10102">
        <time>2018-01-21T14:42:56.000Z</time>
      </trkpt>
      <trkpt lat="47.56959" lon="-3.10102">
        <time>2018-01-21T14:42:57.000Z</time>
      </trkpt>
      <trkpt lat="47.56959" lon="-3.10102">
        <time>2018-01-21T14:42:58.000Z</time>
      </trkpt>
      <trkpt lat="47.56959" lon="-3.10102">
        <time>2018-01-21T14:42:59.000Z</time>
      </trkpt>
      <trkpt lat="47.56959" lon="-3.10102">
        <time>2018-01-21T14:43:00.000Z</time>
      </trkpt>
      <trkpt lat="47.56959" lon="-3.10102">
        <time>2018-01-21T14:43:01.000Z</time>
      </trkpt>
      <trkpt lat="47.56959" lon="-3.10102">
        <time>2018-01-21T14:43:02.000Z</time>
      </trkpt>
      <trkpt lat="47.56959" lon="-3.10102">
        <time>2018-01-21T14:43:03.000Z</time>
      </trkpt>
      <trkpt lat="47.56959" lon="-3.10102">
        <time>2018-01-21T14:43:04.000Z</time>
      </trkpt>
      <trkpt lat="47.56959" lon="-3.10102">
        <time>2018-01-21T14:43:05.000Z</time>
      </trkpt>
      <trkpt lat="47.56959" lon="-3.10102">
        <time>2018-01-21T14:43:06.000Z</time>
      </trkpt>
      <trkpt lat="47.56959" lon="-3.10102">
        <time>2018-01-21T14:43:07.000Z</time>
      </trkpt>
      <trkpt lat="47.56959" lon="-3.10102">
        <time>2018-01-21T14:43:08.000Z</time>
      </trkpt>
      <trkpt lat="47.56967" lon="-3.10096">
        <time>2018-01-21T14:43:09.000Z</time>
      </trkpt>
      <trkpt lat="47.56967" lon="-3.10096">
        <time>2018-01-21T14:43:10.000Z</time>
      </trkpt>
      <trkpt lat="47.56967" lon="-3.10096">
        <time>2018-01-21T14:43:11.000Z</time>
      </trkpt>
      <trkpt lat="47.56967" lon="-3.10096">
        <time>2018-01-21T14:43:12.000Z</time>
      </trkpt>
      <trkpt lat="47.56967" lon="-3.10096">
        <time>2018-01-21T14:43:13.000Z</time>
      </trkpt>
      <trkpt lat="47.56967" lon="-3.10096">
        <time>2018-01-21T14:43:14.000Z</time>
      </trkpt>
      <trkpt lat="47.56967" lon="-3.10096">
        <time>2018-01-21T14:43:15.000Z</time>
      </trkpt>
      <trkpt lat="47.56967" lon="-3.10096">
        <time>2018-01-21T14:43:16.000Z</time>
      </trkpt>
      <trkpt lat="47.56967" lon="-3.10096">
        <time>2018-01-21T14:43:17.000Z</time>
      </trkpt>
      <trkpt lat="47.56967" lon="-3.10096">
        <time>2018-01-21T14:43:18.000Z</time>
      </trkpt>
      <trkpt lat="47.56967" lon="-3.10096">
        <time>2018-01-21T14:43:19.000Z</time>
      </trkpt>
      <trkpt lat="47.56967" lon="-3.10096">
        <time>2018-01-21T14:43:20.000Z</time>
      </trkpt>
      <trkpt lat="47.56967" lon="-3.10096">
        <time>2018-01-21T14:43:21.000Z</time>
      </trkpt>
      <trkpt lat="47.56967" lon="-3.10096">
        <time>2018-01-21T14:43:22.000Z</time>
      </trkpt>
      <trkpt lat="47.56967" lon="-3.10096">
        <time>2018-01-21T14:43:23.000Z</time>
      </trkpt>
      <trkpt lat="47.56967" lon="-3.10096">
        <time>2018-01-21T14:43:24.000Z</time>
      </trkpt>
      <trkpt lat="47.56967" lon="-3.10096">
        <time>2018-01-21T14:43:25.000Z</time>
      </trkpt>
      <trkpt lat="47.56967" lon="-3.10096">
        <time>2018-01-21T14:43:26.000Z</time>
      </trkpt>
      <trkpt lat="47.56967" lon="-3.10096">
        <time>2018-01-21T14:43:27.000Z</time>
      </trkpt>
      <trkpt lat="47.56967" lon="-3.10096">
        <time>2018-01-21T14:43:28.000Z</time>
      </trkpt>
      <trkpt lat="47.56967" lon="-3.10096">
        <time>2018-01-21T14:43:29.000Z</time>
      </trkpt>
      <trkpt lat="47.56976" lon="-3.1009">
        <ele>3.5</ele>
        <time>2018-01-21T14:43:30.000Z</time>
      </trkpt>
      <trkpt lat="47.56975" lon="-3.10089">
        <ele>3.4</ele>
        <time>2018-01-21T14:43:31.000Z</time>
      </trkpt>
      <trkpt lat="47.56976" lon="-3.10088">
        <ele>3.3</ele>
        <time>2018-01-21T14:43:32.000Z</time>
      </trkpt>
      <trkpt lat="47.56976" lon="-3.10087">
        <ele>3.3</ele>
        <time>2018-01-21T14:43:33.000Z</time>
      </trkpt>
      <trkpt lat="47.56976" lon="-3.10087">
        <ele>3.3</ele>
        <time>2018-01-21T14:43:34.000Z</time>
      </trkpt>
      <trkpt lat="47.56976" lon="-3.10087">
        <ele>3.3</ele>
        <time>2018-01-21T14:43:35.000Z</time>
      </trkpt>
      <trkpt lat="47.56976" lon="-3.10087">
        <ele>3.3</ele>
        <time>2018-01-21T14:43:36.000Z</time>
      </trkpt>
      <trkpt lat="47.56976" lon="-3.10087">
        <ele>3.3</ele>
        <time>2018-01-21T14:43:37.000Z</time>
      </trkpt>
      <trkpt lat="47.56976" lon="-3.10087">
        <ele>3.3</ele>
        <time>2018-01-21T14:43:38.000Z</time>
      </trkpt>
      <trkpt lat="47.56976" lon="-3.10087">
        <ele>3.3</ele>
        <time>2018-01-21T14:43:39.000Z</time>
      </trkpt>
      <trkpt lat="47.56976" lon="-3.10087">
        <ele>3.3</ele>
        <time>2018-01-21T14:43:40.000Z</time>
      </trkpt>
      <trkpt lat="47.56976" lon="-3.10087">
        <ele>3.3</ele>
        <time>2018-01-21T14:43:41.000Z</time>
      </trkpt>
      <trkpt lat="47.56976" lon="-3.10087">
        <ele>3.3</ele>
        <time>2018-01-21T14:43:42.000Z</time>
      </trkpt>
      <trkpt lat="47.56976" lon="-3.10087">
        <ele>3.3</ele>
        <time>2018-01-21T14:43:43.000Z</time>
      </trkpt>
      <trkpt lat="47.56976" lon="-3.10087">
        <ele>3.3</ele>
        <time>2018-01-21T14:43:44.000Z</time>
      </trkpt>
      <trkpt lat="47.56976" lon="-3.10087">
        <ele>3.3</ele>
        <time>2018-01-21T14:43:45.000Z</time>
      </trkpt>
      <trkpt lat="47.56976" lon="-3.10087">
        <ele>3.3</ele>
        <time>2018-01-21T14:43:46.000Z</time>
      </trkpt>
      <trkpt lat="47.56976" lon="-3.10087">
        <ele>3.3</ele>
        <time>2018-01-21T14:43:47.000Z</time>
      </trkpt>
      <trkpt lat="47.56976" lon="-3.10087">
        <ele>3.3</ele>
        <time>2018-01-21T14:43:48.000Z</time>
      </trkpt>
      <trkpt lat="47.56976" lon="-3.10087">
        <ele>3.3</ele>
        <time>2018-01-21T14:43:49.000Z</time>
      </trkpt>
      <trkpt lat="47.56976" lon="-3.10087">
        <ele>3.3</ele>
        <time>2018-01-21T14:43:50.000Z</time>
      </trkpt>
      <trkpt lat="47.56976" lon="-3.10087">
        <ele>3.3</ele>
        <time>2018-01-21T14:43:51.000Z</time>
      </trkpt>
      <trkpt lat="47.56976" lon="-3.10087">
        <ele>3.3</ele>
        <time>2018-01-21T14:43:52.000Z</time>
      </trkpt>
      <trkpt lat="47.56976" lon="-3.10087">
        <ele>3.3</ele>
        <time>2018-01-21T14:43:53.000Z</time>
      </trkpt>
      <trkpt lat="47.56976" lon="-3.10087">
        <ele>3.3</ele>
        <time>2018-01-21T14:43:54.000Z</time>
      </trkpt>
      <trkpt lat="47.56976" lon="-3.10087">
        <ele>3.3</ele>
        <time>2018-01-21T14:43:55.000Z</time>
      </trkpt>
      <trkpt lat="47.56976" lon="-3.10087">
        <ele>3.3</ele>
        <time>2018-01-21T14:43:56.000Z</time>
      </trkpt>
      <trkpt lat="47.56976" lon="-3.10087">
        <ele>3.3</ele>
        <time>2018-01-21T14:43:57.000Z</time>
      </trkpt>
      <trkpt lat="47.56976" lon="-3.10087">
        <ele>3.3</ele>
        <time>2018-01-21T14:43:58.000Z</time>
      </trkpt>
      <trkpt lat="47.56976" lon="-3.10087">
        <ele>3.3</ele>
        <time>2018-01-21T14:43:59.000Z</time>
      </trkpt>
      <trkpt lat="47.56976" lon="-3.10087">
        <ele>3.3</ele>
        <time>2018-01-21T14:44:00.000Z</time>
      </trkpt>
      <trkpt lat="47.56976" lon="-3.10087">
        <ele>3.3</ele>
        <time>2018-01-21T14:44:01.000Z</time>
      </trkpt>
      <trkpt lat="47.56976" lon="-3.10087">
        <ele>3.3</ele>
        <time>2018-01-21T14:44:02.000Z</time>
      </trkpt>
      <trkpt lat="47.56976" lon="-3.10087">
        <ele>3.3</ele>
        <time>2018-01-21T14:44:03.000Z</time>
      </trkpt>
      <trkpt lat="47.56976" lon="-3.10087">
        <ele>3.3</ele>
        <time>2018-01-21T14:44:04.000Z</time>
      </trkpt>
      <trkpt lat="47.56976" lon="-3.10087">
        <ele>3.3</ele>
        <time>2018-01-21T14:44:05.000Z</time>
      </trkpt>
      <trkpt lat="47.56976" lon="-3.10087">
        <ele>3.3</ele>
        <time>2018-01-21T14:44:06.000Z</time>
      </trkpt>
      <trkpt lat="47.56976" lon="-3.10087">
        <ele>3.3</ele>
        <time>2018-01-21T14:44:07.000Z</time>
      </trkpt>
      <trkpt lat="47.56976" lon="-3.10087">
        <ele>3.3</ele>
        <time>2018-01-21T14:44:08.000Z</time>
      </trkpt>
      <trkpt lat="47.56976" lon="-3.10087">
        <ele>3.3</ele>
        <time>2018-01-21T14:44:09.000Z</time>
      </trkpt>
      <trkpt lat="47.56976" lon="-3.10087">
        <ele>3.3</ele>
        <time>2018-01-21T14:44:10.000Z</time>
      </trkpt>
      <trkpt lat="47.56976" lon="-3.10087">
        <ele>3.3</ele>
        <time>2018-01-21T14:44:11.000Z</time>
      </trkpt>
      <trkpt lat="47.56976" lon="-3.10087">
        <ele>3.3</ele>
        <time>2018-01-21T14:44:12.000Z</time>
      </trkpt>
      <trkpt lat="47.56976" lon="-3.10087">
        <ele>3.3</ele>
        <time>2018-01-21T14:44:13.000Z</time>
      </trkpt>
      <trkpt lat="47.56976" lon="-3.10087">
        <ele>3.3</ele>
        <time>2018-01-21T14:44:14.000Z</time>
      </trkpt>
      <trkpt lat="47.56976" lon="-3.10087">
        <ele>3.3</ele>
        <time>2018-01-21T14:44:15.000Z</time>
      </trkpt>
      <trkpt lat="47.56976" lon="-3.10087">
        <ele>3.3</ele>
        <time>2018-01-21T14:44:16.000Z</time>
      </trkpt>
      <trkpt lat="47.56976" lon="-3.10087">
        <ele>3.3</ele>
        <time>2018-01-21T14:44:17.000Z</time>
      </trkpt>
      <trkpt lat="47.56976" lon="-3.10087">
        <ele>3.3</ele>
        <time>2018-01-21T14:44:18.000Z</time>
      </trkpt>
      <trkpt lat="47.56976" lon="-3.10087">
        <ele>3.3</ele>
        <time>2018-01-21T14:44:19.000Z</time>
      </trkpt>
      <trkpt lat="47.56976" lon="-3.10087">
        <ele>3.3</ele>
        <time>2018-01-21T14:44:20.000Z</time>
      </trkpt>
      <trkpt lat="47.56976" lon="-3.10087">
        <ele>3.3</ele>
        <time>2018-01-21T14:44:21.000Z</time>
      </trkpt>
      <trkpt lat="47.56976" lon="-3.10087">
        <ele>3.3</ele>
        <time>2018-01-21T14:44:22.000Z</time>
      </trkpt>
      <trkpt lat="47.56976" lon="-3.10087">
        <ele>3.3</ele>
        <time>2018-01-21T14:44:23.000Z</time>
      </trkpt>
      <trkpt lat="47.56976" lon="-3.10087">
        <ele>3.3</ele>
        <time>2018-01-21T14:44:24.000Z</time>
      </trkpt>
      <trkpt lat="47.56974" lon="-3.10089">
        <ele>3.4</ele>
        <time>2018-01-21T14:44:25.000Z</time>
      </trkpt>
      <trkpt lat="47.56973" lon="-3.10088">
        <ele>3.3</ele>
        <time>2018-01-21T14:44:26.000Z</time>
      </trkpt>
      <trkpt lat="47.56973" lon="-3.10087">
        <ele>3.3</ele>
        <time>2018-01-21T14:44:27.000Z</time>
      </trkpt>
      <trkpt lat="47.56972" lon="-3.10087">
        <time>2018-01-21T14:44:28.000Z</time>
      </trkpt>
      <trkpt lat="47.56971" lon="-3.10086">
        <time>2018-01-21T14:44:29.000Z</time>
      </trkpt>
      <trkpt lat="47.5697" lon="-3.10085">
        <time>2018-01-21T14:44:30.000Z</time>
      </trkpt>
      <trkpt lat="47.56969" lon="-3.10085">
        <time>2018-01-21T14:44:31.000Z</time>
      </trkpt>
      <trkpt lat="47.56968" lon="-3.10084">
        <time>2018-01-21T14:44:32.000Z</time>
      </trkpt>
      <trkpt lat="47.56967" lon="-3.10084">
        <time>2018-01-21T14:44:33.000Z</time>
      </trkpt>
      <trkpt lat="47.56967" lon="-3.10084">
        <time>2018-01-21T14:44:34.000Z</time>
      </trkpt>
      <trkpt lat="47.56966" lon="-3.10084">
        <time>2018-01-21T14:44:35.000Z</time>
      </trkpt>
      <trkpt lat="47.56965" lon="-3.10084">
        <time>2018-01-21T14:44:36.000Z</time>
      </trkpt>
      <trkpt lat="47.56965" lon="-3.10084">
        <time>2018-01-21T14:44:37.000Z</time>
      </trkpt>
      <trkpt lat="47.56965" lon="-3.10084">
        <time>2018-01-21T14:44:38.000Z</time>
      </trkpt>
      <trkpt lat="47.56965" lon="-3.10084">
        <time>2018-01-21T14:44:39.000Z</time>
      </trkpt>
      <trkpt lat="47.56965" lon="-3.10084">
        <time>2018-01-21T14:44:40.000Z</time>
      </trkpt>
      <trkpt lat="47.56965" lon="-3.10084">
        <time>2018-01-21T14:44:41.000Z</time>
      </trkpt>
      <trkpt lat="47.56965" lon="-3.10084">
        <time>2018-01-21T14:44:42.000Z</time>
      </trkpt>
      <trkpt lat="47.56965" lon="-3.10084">
        <time>2018-01-21T14:44:43.000Z</time>
      </trkpt>
      <trkpt lat="47.56965" lon="-3.10084">
        <time>2018-01-21T14:44:44.000Z</time>
      </trkpt>
      <trkpt lat="47.56965" lon="-3.10084">
        <time>2018-01-21T14:44:45.000Z</time>
      </trkpt>
      <trkpt lat="47.56965" lon="-3.10084">
        <time>2018-01-21T14:44:46.000Z</time>
      </trkpt>
      <trkpt lat="47.56965" lon="-3.10084">
        <time>2018-01-21T14:44:47.000Z</time>
      </trkpt>
      <trkpt lat="47.56965" lon="-3.10084">
        <time>2018-01-21T14:44:48.000Z</time>
      </trkpt>
      <trkpt lat="47.56965" lon="-3.10084">
        <time>2018-01-21T14:44:49.000Z</time>
      </trkpt>
      <trkpt lat="47.56965" lon="-3.10084">
        <time>2018-01-21T14:44:50.000Z</time>
      </trkpt>
      <trkpt lat="47.56965" lon="-3.10084">
        <time>2018-01-21T14:44:51.000Z</time>
      </trkpt>
      <trkpt lat="47.56965" lon="-3.10084">
        <time>2018-01-21T14:44:52.000Z</time>
      </trkpt>
      <trkpt lat="47.56965" lon="-3.10084">
        <time>2018-01-21T14:44:53.000Z</time>
      </trkpt>
      <trkpt lat="47.56965" lon="-3.10084">
        <time>2018-01-21T14:44:54.000Z</time>
      </trkpt>
      <trkpt lat="47.56965" lon="-3.10084">
        <time>2018-01-21T14:44:55.000Z</time>
      </trkpt>
      <trkpt lat="47.56965" lon="-3.10081">
        <time>2018-01-21T14:44:56.000Z</time>
      </trkpt>
      <trkpt lat="47.56966" lon="-3.10081">
        <time>2018-01-21T14:44:57.000Z</time>
      </trkpt>
      <trkpt lat="47.56967" lon="-3.1008">
        <time>2018-01-21T14:44:58.000Z</time>
      </trkpt>
      <trkpt lat="47.56968" lon="-3.10079">
        <time>2018-01-21T14:44:59.000Z</time>
      </trkpt>
      <trkpt lat="47.56968" lon="-3.10079">
        <time>2018-01-21T14:45:00.000Z</time>
      </trkpt>
      <trkpt lat="47.56969" lon="-3.10078">
        <time>2018-01-21T14:45:01.000Z</time>
      </trkpt>
      <trkpt lat="47.5697" lon="-3.10077">
        <time>2018-01-21T14:45:02.000Z</time>
      </trkpt>
      <trkpt lat="47.56971" lon="-3.10077">
        <time>2018-01-21T14:45:03.000Z</time>
      </trkpt>
      <trkpt lat="47.56971" lon="-3.10076">
        <time>2018-01-21T14:45:04.000Z</time>
      </trkpt>
      <trkpt lat="47.56971" lon="-3.10076">
        <time>2018-01-21T14:45:05.000Z</time>
      </trkpt>
      <trkpt lat="47.56971" lon="-3.10076">
        <time>2018-01-21T14:45:06.000Z</time>
      </trkpt>
      <trkpt lat="47.56971" lon="-3.10076">
        <time>2018-01-21T14:45:07.000Z</time>
      </trkpt>
      <trkpt lat="47.56976" lon="-3.10075">
        <ele>3</ele>
        <time>2018-01-21T14:45:08.000Z</time>
      </trkpt>
      <trkpt lat="47.56977" lon="-3.10075">
        <ele>3</ele>
        <time>2018-01-21T14:45:09.000Z</time>
      </trkpt>
      <trkpt lat="47.56978" lon="-3.10074">
        <ele>3</ele>
        <time>2018-01-21T14:45:10.000Z</time>
      </trkpt>
      <trkpt lat="47.56979" lon="-3.10074">
        <ele>3</ele>
        <time>2018-01-21T14:45:11.000Z</time>
      </trkpt>
      <trkpt lat="47.5698" lon="-3.10074">
        <ele>3</ele>
        <time>2018-01-21T14:45:12.000Z</time>
      </trkpt>
      <trkpt lat="47.56982" lon="-3.10074">
        <ele>3</ele>
        <time>2018-01-21T14:45:13.000Z</time>
      </trkpt>
      <trkpt lat="47.56983" lon="-3.10074">
        <ele>3</ele>
        <time>2018-01-21T14:45:14.000Z</time>
      </trkpt>
      <trkpt lat="47.56984" lon="-3.10073">
        <ele>3</ele>
        <time>2018-01-21T14:45:15.000Z</time>
      </trkpt>
      <trkpt lat="47.56986" lon="-3.10073">
        <ele>3</ele>
        <time>2018-01-21T14:45:16.000Z</time>
      </trkpt>
      <trkpt lat="47.56987" lon="-3.10072">
        <ele>3</ele>
        <time>2018-01-21T14:45:17.000Z</time>
      </trkpt>
      <trkpt lat="47.56989" lon="-3.10072">
        <ele>3</ele>
        <time>2018-01-21T14:45:18.000Z</time>
      </trkpt>
      <trkpt lat="47.5699" lon="-3.10071">
        <ele>3</ele>
        <time>2018-01-21T14:45:19.000Z</time>
      </trkpt>
      <trkpt lat="47.56992" lon="-3.1007">
        <ele>3</ele>
        <time>2018-01-21T14:45:20.000Z</time>
      </trkpt>
      <trkpt lat="47.56993" lon="-3.1007">
        <ele>3</ele>
        <time>2018-01-21T14:45:21.000Z</time>
      </trkpt>
      <trkpt lat="47.56994" lon="-3.10069">
        <ele>3</ele>
        <time>2018-01-21T14:45:22.000Z</time>
      </trkpt>
      <trkpt lat="47.56994" lon="-3.10068">
        <ele>3</ele>
        <time>2018-01-21T14:45:23.000Z</time>
      </trkpt>
      <trkpt lat="47.56996" lon="-3.10067">
        <ele>3</ele>
        <time>2018-01-21T14:45:24.000Z</time>
      </trkpt>
      <trkpt lat="47.56997" lon="-3.10066">
        <ele>3</ele>
        <time>2018-01-21T14:45:25.000Z</time>
      </trkpt>
      <trkpt lat="47.56997" lon="-3.10065">
        <ele>3</ele>
        <time>2018-01-21T14:45:26.000Z</time>
      </trkpt>
      <trkpt lat="47.56998" lon="-3.10064">
        <ele>3</ele>
        <time>2018-01-21T14:45:27.000Z</time>
      </trkpt>
      <trkpt lat="47.56999" lon="-3.10064">
        <ele>3</ele>
        <time>2018-01-21T14:45:28.000Z</time>
      </trkpt>
      <trkpt lat="47.57" lon="-3.10063">
        <ele>3</ele>
        <time>2018-01-21T14:45:29.000Z</time>
      </trkpt>
      <trkpt lat="47.57001" lon="-3.10062">
        <ele>3.2</ele>
        <time>2018-01-21T14:45:30.000Z</time>
      </trkpt>
      <trkpt lat="47.57001" lon="-3.10062">
        <ele>3.2</ele>
        <time>2018-01-21T14:45:31.000Z</time>
      </trkpt>
      <trkpt lat="47.57001" lon="-3.10062">
        <ele>3.2</ele>
        <time>2018-01-21T14:45:32.000Z</time>
      </trkpt>
      <trkpt lat="47.57001" lon="-3.10062">
        <ele>3.2</ele>
        <time>2018-01-21T14:45:33.000Z</time>
      </trkpt>
      <trkpt lat="47.57001" lon="-3.10062">
        <ele>3.2</ele>
        <time>2018-01-21T14:45:34.000Z</time>
      </trkpt>
      <trkpt lat="47.57001" lon="-3.10062">
        <ele>3.2</ele>
        <time>2018-01-21T14:45:35.000Z</time>
      </trkpt>
      <trkpt lat="47.57001" lon="-3.10062">
        <ele>3.2</ele>
        <time>2018-01-21T14:45:36.000Z</time>
      </trkpt>
      <trkpt lat="47.5701" lon="-3.10061">
        <ele>5</ele>
        <time>2018-01-21T14:45:37.000Z</time>
      </trkpt>
      <trkpt lat="47.57009" lon="-3.10061">
        <ele>4.7</ele>
        <time>2018-01-21T14:45:38.000Z</time>
      </trkpt>
      <trkpt lat="47.5701" lon="-3.10063">
        <ele>5</ele>
        <time>2018-01-21T14:45:39.000Z</time>
      </trkpt>
      <trkpt lat="47.57011" lon="-3.10064">
        <ele>5.1</ele>
        <time>2018-01-21T14:45:40.000Z</time>
      </trkpt>
      <trkpt lat="47.57011" lon="-3.10064">
        <ele>5.1</ele>
        <time>2018-01-21T14:45:41.000Z</time>
      </trkpt>
      <trkpt lat="47.57011" lon="-3.10064">
        <ele>5.1</ele>
        <time>2018-01-21T14:45:42.000Z</time>
      </trkpt>
      <trkpt lat="47.57021" lon="-3.10062">
        <ele>7.2</ele>
        <time>2018-01-21T14:45:43.000Z</time>
      </trkpt>
      <trkpt lat="47.57027" lon="-3.1006">
        <ele>8.2</ele>
        <time>2018-01-21T14:45:44.000Z</time>
      </trkpt>
      <trkpt lat="47.5703" lon="-3.10058">
        <ele>8.2</ele>
        <time>2018-01-21T14:45:45.000Z</time>
      </trkpt>
      <trkpt lat="47.5703" lon="-3.10064">
        <ele>8.6</ele>
        <time>2018-01-21T14:45:46.000Z</time>
      </trkpt>
      <trkpt lat="47.5703" lon="-3.10064">
        <ele>8.6</ele>
        <time>2018-01-21T14:45:47.000Z</time>
      </trkpt>
      <trkpt lat="47.5703" lon="-3.10064">
        <ele>8.6</ele>
        <time>2018-01-21T14:45:48.000Z</time>
      </trkpt>
      <trkpt lat="47.5703" lon="-3.10064">
        <ele>8.6</ele>
        <time>2018-01-21T14:45:49.000Z</time>
      </trkpt>
      <trkpt lat="47.5703" lon="-3.10064">
        <ele>8.6</ele>
        <time>2018-01-21T14:45:50.000Z</time>
      </trkpt>
      <trkpt lat="47.5703" lon="-3.10064">
        <ele>8.6</ele>
        <time>2018-01-21T14:45:51.000Z</time>
      </trkpt>
      <trkpt lat="47.5703" lon="-3.10064">
        <ele>8.6</ele>
        <time>2018-01-21T14:45:52.000Z</time>
      </trkpt>
      <trkpt lat="47.5703" lon="-3.10064">
        <ele>8.6</ele>
        <time>2018-01-21T14:45:53.000Z</time>
      </trkpt>
      <trkpt lat="47.5703" lon="-3.10064">
        <ele>8.6</ele>
        <time>2018-01-21T14:45:54.000Z</time>
      </trkpt>
      <trkpt lat="47.5703" lon="-3.10064">
        <ele>8.6</ele>
        <time>2018-01-21T14:45:55.000Z</time>
      </trkpt>
      <trkpt lat="47.5703" lon="-3.10064">
        <ele>8.6</ele>
        <time>2018-01-21T14:45:56.000Z</time>
      </trkpt>
      <trkpt lat="47.5703" lon="-3.10064">
        <ele>8.6</ele>
        <time>2018-01-21T14:45:57.000Z</time>
      </trkpt>
      <trkpt lat="47.5703" lon="-3.10064">
        <ele>8.6</ele>
        <time>2018-01-21T14:45:58.000Z</time>
      </trkpt>
      <trkpt lat="47.57021" lon="-3.10064">
        <ele>7.2</ele>
        <time>2018-01-21T14:45:59.000Z</time>
      </trkpt>
      <trkpt lat="47.5702" lon="-3.10064">
        <ele>7.1</ele>
        <time>2018-01-21T14:46:00.000Z</time>
      </trkpt>
      <trkpt lat="47.57019" lon="-3.10065">
        <ele>6.9</ele>
        <time>2018-01-21T14:46:01.000Z</time>
      </trkpt>
      <trkpt lat="47.57019" lon="-3.10064">
        <ele>6.8</ele>
        <time>2018-01-21T14:46:02.000Z</time>
      </trkpt>
      <trkpt lat="47.57019" lon="-3.10064">
        <ele>6.8</ele>
        <time>2018-01-21T14:46:03.000Z</time>
      </trkpt>
      <trkpt lat="47.57019" lon="-3.10064">
        <ele>6.8</ele>
        <time>2018-01-21T14:46:04.000Z</time>
      </trkpt>
      <trkpt lat="47.57019" lon="-3.10064">
        <ele>6.8</ele>
        <time>2018-01-21T14:46:05.000Z</time>
      </trkpt>
      <trkpt lat="47.57019" lon="-3.10064">
        <ele>6.8</ele>
        <time>2018-01-21T14:46:06.000Z</time>
      </trkpt>
      <trkpt lat="47.57019" lon="-3.10064">
        <ele>6.8</ele>
        <time>2018-01-21T14:46:07.000Z</time>
      </trkpt>
      <trkpt lat="47.57019" lon="-3.10064">
        <ele>6.8</ele>
        <time>2018-01-21T14:46:08.000Z</time>
      </trkpt>
      <trkpt lat="47.57019" lon="-3.10064">
        <ele>6.8</ele>
        <time>2018-01-21T14:46:09.000Z</time>
      </trkpt>
      <trkpt lat="47.57019" lon="-3.10064">
        <ele>6.8</ele>
        <time>2018-01-21T14:46:10.000Z</time>
      </trkpt>
      <trkpt lat="47.57019" lon="-3.10064">
        <ele>6.8</ele>
        <time>2018-01-21T14:46:11.000Z</time>
      </trkpt>
      <trkpt lat="47.57019" lon="-3.10064">
        <ele>6.8</ele>
        <time>2018-01-21T14:46:12.000Z</time>
      </trkpt>
      <trkpt lat="47.57019" lon="-3.10064">
        <ele>6.8</ele>
        <time>2018-01-21T14:46:13.000Z</time>
      </trkpt>
      <trkpt lat="47.57019" lon="-3.10064">
        <ele>6.8</ele>
        <time>2018-01-21T14:46:14.000Z</time>
      </trkpt>
      <trkpt lat="47.57019" lon="-3.10064">
        <ele>6.8</ele>
        <time>2018-01-21T14:46:15.000Z</time>
      </trkpt>
      <trkpt lat="47.57019" lon="-3.10064">
        <ele>6.8</ele>
        <time>2018-01-21T14:46:16.000Z</time>
      </trkpt>
      <trkpt lat="47.57019" lon="-3.10064">
        <ele>6.8</ele>
        <time>2018-01-21T14:46:17.000Z</time>
      </trkpt>
      <trkpt lat="47.57019" lon="-3.10064">
        <ele>6.8</ele>
        <time>2018-01-21T14:46:18.000Z</time>
      </trkpt>
      <trkpt lat="47.57017" lon="-3.10065">
        <ele>6.5</ele>
        <time>2018-01-21T14:46:19.000Z</time>
      </trkpt>
      <trkpt lat="47.57018" lon="-3.10065">
        <ele>6.6</ele>
        <time>2018-01-21T14:46:20.000Z</time>
      </trkpt>
      <trkpt lat="47.57017" lon="-3.10065">
        <ele>6.5</ele>
        <time>2018-01-21T14:46:21.000Z</time>
      </trkpt>
      <trkpt lat="47.57017" lon="-3.10065">
        <ele>6.5</ele>
        <time>2018-01-21T14:46:22.000Z</time>
      </trkpt>
      <trkpt lat="47.57017" lon="-3.10065">
        <ele>6.5</ele>
        <time>2018-01-21T14:46:23.000Z</time>
      </trkpt>
      <trkpt lat="47.57018" lon="-3.10064">
        <ele>6.6</ele>
        <time>2018-01-21T14:46:24.000Z</time>
      </trkpt>
      <trkpt lat="47.57018" lon="-3.10063">
        <ele>6.6</ele>
        <time>2018-01-21T14:46:25.000Z</time>
      </trkpt>
      <trkpt lat="47.57018" lon="-3.10061">
        <ele>6.5</ele>
        <time>2018-01-21T14:46:26.000Z</time>
      </trkpt>
      <trkpt lat="47.57018" lon="-3.10059">
        <ele>6.3</ele>
        <time>2018-01-21T14:46:27.000Z</time>
      </trkpt>
      <trkpt lat="47.57018" lon="-3.10059">
        <ele>6.3</ele>
        <time>2018-01-21T14:46:28.000Z</time>
      </trkpt>
      <trkpt lat="47.57018" lon="-3.10059">
        <ele>6.3</ele>
        <time>2018-01-21T14:46:29.000Z</time>
      </trkpt>
      <trkpt lat="47.57018" lon="-3.10059">
        <ele>6.3</ele>
        <time>2018-01-21T14:46:30.000Z</time>
      </trkpt>
      <trkpt lat="47.57018" lon="-3.10059">
        <ele>6.3</ele>
        <time>2018-01-21T14:46:31.000Z</time>
      </trkpt>
      <trkpt lat="47.57018" lon="-3.10059">
        <ele>6.3</ele>
        <time>2018-01-21T14:46:32.000Z</time>
      </trkpt>
      <trkpt lat="47.57018" lon="-3.10059">
        <ele>6.3</ele>
        <time>2018-01-21T14:46:33.000Z</time>
      </trkpt>
      <trkpt lat="47.57018" lon="-3.10059">
        <ele>6.3</ele>
        <time>2018-01-21T14:46:34.000Z</time>
      </trkpt>
      <trkpt lat="47.57018" lon="-3.10059">
        <ele>6.3</ele>
        <time>2018-01-21T14:46:35.000Z</time>
      </trkpt>
      <trkpt lat="47.57018" lon="-3.10059">
        <ele>6.3</ele>
        <time>2018-01-21T14:46:36.000Z</time>
      </trkpt>
      <trkpt lat="47.57018" lon="-3.10059">
        <ele>6.3</ele>
        <time>2018-01-21T14:46:37.000Z</time>
      </trkpt>
      <trkpt lat="47.57018" lon="-3.10059">
        <ele>6.3</ele>
        <time>2018-01-21T14:46:38.000Z</time>
      </trkpt>
      <trkpt lat="47.57018" lon="-3.10059">
        <ele>6.3</ele>
        <time>2018-01-21T14:46:39.000Z</time>
      </trkpt>
      <trkpt lat="47.57018" lon="-3.10059">
        <ele>6.3</ele>
        <time>2018-01-21T14:46:40.000Z</time>
      </trkpt>
      <trkpt lat="47.57018" lon="-3.10059">
        <ele>6.3</ele>
        <time>2018-01-21T14:46:41.000Z</time>
      </trkpt>
      <trkpt lat="47.57018" lon="-3.10059">
        <ele>6.3</ele>
        <time>2018-01-21T14:46:42.000Z</time>
      </trkpt>
      <trkpt lat="47.57018" lon="-3.10059">
        <ele>6.3</ele>
        <time>2018-01-21T14:46:43.000Z</time>
      </trkpt>
      <trkpt lat="47.57018" lon="-3.10059">
        <ele>6.3</ele>
        <time>2018-01-21T14:46:44.000Z</time>
      </trkpt>
      <trkpt lat="47.57018" lon="-3.10059">
        <ele>6.3</ele>
        <time>2018-01-21T14:46:45.000Z</time>
      </trkpt>
      <trkpt lat="47.57018" lon="-3.10059">
        <ele>6.3</ele>
        <time>2018-01-21T14:46:46.000Z</time>
      </trkpt>
      <trkpt lat="47.57018" lon="-3.10059">
        <ele>6.3</ele>
        <time>2018-01-21T14:46:47.000Z</time>
      </trkpt>
      <trkpt lat="47.57018" lon="-3.10059">
        <ele>6.3</ele>
        <time>2018-01-21T14:46:48.000Z</time>
      </trkpt>
      <trkpt lat="47.57018" lon="-3.10059">
        <ele>6.3</ele>
        <time>2018-01-21T14:46:49.000Z</time>
      </trkpt>
      <trkpt lat="47.57018" lon="-3.10059">
        <ele>6.3</ele>
        <time>2018-01-21T14:46:50.000Z</time>
      </trkpt>
      <trkpt lat="47.57018" lon="-3.10059">
        <ele>6.3</ele>
        <time>2018-01-21T14:46:51.000Z</time>
      </trkpt>
      <trkpt lat="47.57018" lon="-3.10059">
        <ele>6.3</ele>
        <time>2018-01-21T14:46:52.000Z</time>
      </trkpt>
      <trkpt lat="47.57018" lon="-3.10059">
        <ele>6.3</ele>
        <time>2018-01-21T14:46:53.000Z</time>
      </trkpt>
      <trkpt lat="47.57018" lon="-3.10059">
        <ele>6.3</ele>
        <time>2018-01-21T14:46:54.000Z</time>
      </trkpt>
      <trkpt lat="47.57018" lon="-3.10059">
        <ele>6.3</ele>
        <time>2018-01-21T14:46:55.000Z</time>
      </trkpt>
      <trkpt lat="47.57018" lon="-3.10059">
        <ele>6.3</ele>
        <time>2018-01-21T14:46:56.000Z</time>
      </trkpt>
      <trkpt lat="47.5701" lon="-3.10052">
        <ele>4.7</ele>
        <time>2018-01-21T14:46:57.000Z</time>
      </trkpt>
      <trkpt lat="47.5701" lon="-3.10052">
        <ele>4.7</ele>
        <time>2018-01-21T14:46:58.000Z</time>
      </trkpt>
      <trkpt lat="47.5701" lon="-3.10052">
        <ele>4.7</ele>
        <time>2018-01-21T14:46:59.000Z</time>
      </trkpt>
      <trkpt lat="47.5701" lon="-3.10052">
        <ele>4.7</ele>
        <time>2018-01-21T14:47:00.000Z</time>
      </trkpt>
      <trkpt lat="47.5701" lon="-3.10052">
        <ele>4.7</ele>
        <time>2018-01-21T14:47:01.000Z</time>
      </trkpt>
      <trkpt lat="47.5701" lon="-3.10052">
        <ele>4.7</ele>
        <time>2018-01-21T14:47:02.000Z</time>
      </trkpt>
      <trkpt lat="47.5701" lon="-3.10052">
        <ele>4.7</ele>
        <time>2018-01-21T14:47:03.000Z</time>
      </trkpt>
      <trkpt lat="47.5701" lon="-3.10052">
        <ele>4.7</ele>
        <time>2018-01-21T14:47:04.000Z</time>
      </trkpt>
      <trkpt lat="47.5701" lon="-3.10052">
        <ele>4.7</ele>
        <time>2018-01-21T14:47:05.000Z</time>
      </trkpt>
      <trkpt lat="47.5701" lon="-3.10052">
        <ele>4.7</ele>
        <time>2018-01-21T14:47:06.000Z</time>
      </trkpt>
      <trkpt lat="47.5701" lon="-3.10052">
        <ele>4.7</ele>
        <time>2018-01-21T14:47:07.000Z</time>
      </trkpt>
      <trkpt lat="47.5701" lon="-3.10052">
        <ele>4.7</ele>
        <time>2018-01-21T14:47:08.000Z</time>
      </trkpt>
      <trkpt lat="47.5701" lon="-3.10052">
        <ele>4.7</ele>
        <time>2018-01-21T14:47:09.000Z</time>
      </trkpt>
      <trkpt lat="47.5701" lon="-3.10052">
        <ele>4.7</ele>
        <time>2018-01-21T14:47:10.000Z</time>
      </trkpt>
      <trkpt lat="47.5701" lon="-3.10052">
        <ele>4.7</ele>
        <time>2018-01-21T14:47:11.000Z</time>
      </trkpt>
      <trkpt lat="47.5701" lon="-3.10052">
        <ele>4.7</ele>
        <time>2018-01-21T14:47:12.000Z</time>
      </trkpt>
      <trkpt lat="47.5701" lon="-3.10052">
        <ele>4.7</ele>
        <time>2018-01-21T14:47:13.000Z</time>
      </trkpt>
      <trkpt lat="47.5701" lon="-3.10052">
        <ele>4.7</ele>
        <time>2018-01-21T14:47:14.000Z</time>
      </trkpt>
      <trkpt lat="47.5701" lon="-3.10052">
        <ele>4.7</ele>
        <time>2018-01-21T14:47:15.000Z</time>
      </trkpt>
      <trkpt lat="47.5701" lon="-3.10052">
        <ele>4.7</ele>
        <time>2018-01-21T14:47:16.000Z</time>
      </trkpt>
      <trkpt lat="47.5701" lon="-3.10052">
        <ele>4.7</ele>
        <time>2018-01-21T14:47:17.000Z</time>
      </trkpt>
      <trkpt lat="47.5701" lon="-3.10052">
        <ele>4.7</ele>
        <time>2018-01-21T14:47:18.000Z</time>
      </trkpt>
      <trkpt lat="47.5701" lon="-3.10052">
        <ele>4.7</ele>
        <time>2018-01-21T14:47:19.000Z</time>
      </trkpt>
      <trkpt lat="47.5701" lon="-3.10052">
        <ele>4.7</ele>
        <time>2018-01-21T14:47:20.000Z</time>
      </trkpt>
      <trkpt lat="47.5701" lon="-3.10052">
        <ele>4.7</ele>
        <time>2018-01-21T14:47:21.000Z</time>
      </trkpt>
      <trkpt lat="47.5701" lon="-3.10052">
        <ele>4.7</ele>
        <time>2018-01-21T14:47:22.000Z</time>
      </trkpt>
      <trkpt lat="47.5701" lon="-3.10052">
        <ele>4.7</ele>
        <time>2018-01-21T14:47:23.000Z</time>
      </trkpt>
      <trkpt lat="47.5701" lon="-3.10052">
        <ele>4.7</ele>
        <time>2018-01-21T14:47:24.000Z</time>
      </trkpt>
      <trkpt lat="47.5701" lon="-3.10052">
        <ele>4.7</ele>
        <time>2018-01-21T14:47:25.000Z</time>
      </trkpt>
      <trkpt lat="47.5701" lon="-3.10052">
        <ele>4.7</ele>
        <time>2018-01-21T14:47:26.000Z</time>
      </trkpt>
      <trkpt lat="47.5701" lon="-3.10052">
        <ele>4.7</ele>
        <time>2018-01-21T14:47:27.000Z</time>
      </trkpt>
      <trkpt lat="47.5701" lon="-3.10052">
        <ele>4.7</ele>
        <time>2018-01-21T14:47:28.000Z</time>
      </trkpt>
      <trkpt lat="47.5701" lon="-3.10052">
        <ele>4.7</ele>
        <time>2018-01-21T14:47:29.000Z</time>
      </trkpt>
      <trkpt lat="47.5701" lon="-3.10052">
        <ele>4.7</ele>
        <time>2018-01-21T14:47:30.000Z</time>
      </trkpt>
      <trkpt lat="47.5701" lon="-3.10052">
        <ele>4.7</ele>
        <time>2018-01-21T14:47:31.000Z</time>
      </trkpt>
      <trkpt lat="47.5701" lon="-3.10052">
        <ele>4.7</ele>
        <time>2018-01-21T14:47:32.000Z</time>
      </trkpt>
      <trkpt lat="47.5701" lon="-3.10052">
        <ele>4.7</ele>
        <time>2018-01-21T14:47:33.000Z</time>
      </trkpt>
      <trkpt lat="47.5701" lon="-3.10052">
        <ele>4.7</ele>
        <time>2018-01-21T14:47:34.000Z</time>
      </trkpt>
      <trkpt lat="47.5701" lon="-3.10052">
        <ele>4.7</ele>
        <time>2018-01-21T14:47:35.000Z</time>
      </trkpt>
      <trkpt lat="47.5701" lon="-3.10052">
        <ele>4.7</ele>
        <time>2018-01-21T14:47:36.000Z</time>
      </trkpt>
      <trkpt lat="47.5701" lon="-3.10052">
        <ele>4.7</ele>
        <time>2018-01-21T14:47:37.000Z</time>
      </trkpt>
      <trkpt lat="47.5701" lon="-3.10052">
        <ele>4.7</ele>
        <time>2018-01-21T14:47:38.000Z</time>
      </trkpt>
      <trkpt lat="47.5701" lon="-3.10052">
        <ele>4.7</ele>
        <time>2018-01-21T14:47:39.000Z</time>
      </trkpt>
      <trkpt lat="47.5701" lon="-3.10052">
        <ele>4.7</ele>
        <time>2018-01-21T14:47:40.000Z</time>
      </trkpt>
      <trkpt lat="47.5701" lon="-3.10052">
        <ele>4.7</ele>
        <time>2018-01-21T14:47:41.000Z</time>
      </trkpt>
      <trkpt lat="47.5701" lon="-3.10052">
        <ele>4.7</ele>
        <time>2018-01-21T14:47:42.000Z</time>
      </trkpt>
      <trkpt lat="47.5701" lon="-3.10052">
        <ele>4.7</ele>
        <time>2018-01-21T14:47:43.000Z</time>
      </trkpt>
      <trkpt lat="47.5701" lon="-3.10052">
        <ele>4.7</ele>
        <time>2018-01-21T14:47:44.000Z</time>
      </trkpt>
      <trkpt lat="47.5701" lon="-3.10052">
        <ele>4.7</ele>
        <time>2018-01-21T14:47:45.000Z</time>
      </trkpt>
      <trkpt lat="47.5701" lon="-3.10052">
        <ele>4.7</ele>
        <time>2018-01-21T14:47:46.000Z</time>
      </trkpt>
      <trkpt lat="47.5701" lon="-3.10052">
        <ele>4.7</ele>
        <time>2018-01-21T14:47:47.000Z</time>
      </trkpt>
      <trkpt lat="47.5701" lon="-3.10052">
        <ele>4.7</ele>
        <time>2018-01-21T14:47:48.000Z</time>
      </trkpt>
      <trkpt lat="47.5701" lon="-3.10052">
        <ele>4.7</ele>
        <time>2018-01-21T14:47:49.000Z</time>
      </trkpt>
      <trkpt lat="47.5701" lon="-3.10052">
        <ele>4.7</ele>
        <time>2018-01-21T14:47:50.000Z</time>
      </trkpt>
      <trkpt lat="47.5701" lon="-3.10052">
        <ele>4.7</ele>
        <time>2018-01-21T14:47:51.000Z</time>
      </trkpt>
      <trkpt lat="47.5701" lon="-3.10052">
        <ele>4.7</ele>
        <time>2018-01-21T14:47:52.000Z</time>
      </trkpt>
      <trkpt lat="47.5701" lon="-3.10052">
        <ele>4.7</ele>
        <time>2018-01-21T14:47:53.000Z</time>
      </trkpt>
      <trkpt lat="47.5701" lon="-3.10052">
        <ele>4.7</ele>
        <time>2018-01-21T14:47:54.000Z</time>
      </trkpt>
      <trkpt lat="47.5701" lon="-3.10052">
        <ele>4.7</ele>
        <time>2018-01-21T14:47:55.000Z</time>
      </trkpt>
      <trkpt lat="47.5701" lon="-3.10052">
        <ele>4.7</ele>
        <time>2018-01-21T14:47:56.000Z</time>
      </trkpt>
      <trkpt lat="47.5701" lon="-3.10052">
        <ele>4.7</ele>
        <time>2018-01-21T14:47:57.000Z</time>
      </trkpt>
      <trkpt lat="47.5701" lon="-3.10052">
        <ele>4.7</ele>
        <time>2018-01-21T14:47:58.000Z</time>
      </trkpt>
      <trkpt lat="47.5701" lon="-3.10052">
        <ele>4.7</ele>
        <time>2018-01-21T14:47:59.000Z</time>
      </trkpt>
      <trkpt lat="47.5701" lon="-3.10052">
        <ele>4.7</ele>
        <time>2018-01-21T14:48:00.000Z</time>
      </trkpt>
      <trkpt lat="47.5701" lon="-3.10052">
        <ele>4.7</ele>
        <time>2018-01-21T14:48:01.000Z</time>
      </trkpt>
      <trkpt lat="47.5701" lon="-3.10052">
        <ele>4.7</ele>
        <time>2018-01-21T14:48:02.000Z</time>
      </trkpt>
      <trkpt lat="47.5701" lon="-3.10052">
        <ele>4.7</ele>
        <time>2018-01-21T14:48:03.000Z</time>
      </trkpt>
      <trkpt lat="47.5701" lon="-3.10052">
        <ele>4.7</ele>
        <time>2018-01-21T14:48:04.000Z</time>
      </trkpt>
      <trkpt lat="47.5701" lon="-3.10052">
        <ele>4.7</ele>
        <time>2018-01-21T14:48:05.000Z</time>
      </trkpt>
      <trkpt lat="47.5701" lon="-3.10052">
        <ele>4.7</ele>
        <time>2018-01-21T14:48:06.000Z</time>
      </trkpt>
      <trkpt lat="47.5701" lon="-3.10052">
        <ele>4.7</ele>
        <time>2018-01-21T14:48:07.000Z</time>
      </trkpt>
      <trkpt lat="47.5701" lon="-3.10052">
        <ele>4.7</ele>
        <time>2018-01-21T14:48:08.000Z</time>
      </trkpt>
      <trkpt lat="47.5701" lon="-3.10052">
        <ele>4.7</ele>
        <time>2018-01-21T14:48:09.000Z</time>
      </trkpt>
      <trkpt lat="47.5701" lon="-3.10052">
        <ele>4.7</ele>
        <time>2018-01-21T14:48:10.000Z</time>
      </trkpt>
      <trkpt lat="47.5701" lon="-3.10052">
        <ele>4.7</ele>
        <time>2018-01-21T14:48:11.000Z</time>
      </trkpt>
      <trkpt lat="47.5701" lon="-3.10052">
        <ele>4.7</ele>
        <time>2018-01-21T14:48:12.000Z</time>
      </trkpt>
      <trkpt lat="47.5701" lon="-3.10052">
        <ele>4.7</ele>
        <time>2018-01-21T14:48:13.000Z</time>
      </trkpt>
      <trkpt lat="47.5701" lon="-3.10052">
        <ele>4.7</ele>
        <time>2018-01-21T14:48:14.000Z</time>
      </trkpt>
      <trkpt lat="47.5701" lon="-3.10052">
        <ele>4.7</ele>
        <time>2018-01-21T14:48:15.000Z</time>
      </trkpt>
      <trkpt lat="47.5701" lon="-3.10052">
        <ele>4.7</ele>
        <time>2018-01-21T14:48:16.000Z</time>
      </trkpt>
      <trkpt lat="47.5701" lon="-3.10052">
        <ele>4.7</ele>
        <time>2018-01-21T14:48:17.000Z</time>
      </trkpt>
      <trkpt lat="47.5701" lon="-3.10052">
        <ele>4.7</ele>
        <time>2018-01-21T14:48:18.000Z</time>
      </trkpt>
      <trkpt lat="47.5701" lon="-3.10052">
        <ele>4.7</ele>
        <time>2018-01-21T14:48:19.000Z</time>
      </trkpt>
      <trkpt lat="47.5701" lon="-3.10052">
        <ele>4.7</ele>
        <time>2018-01-21T14:48:20.000Z</time>
      </trkpt>
      <trkpt lat="47.5701" lon="-3.10052">
        <ele>4.7</ele>
        <time>2018-01-21T14:48:21.000Z</time>
      </trkpt>
      <trkpt lat="47.5701" lon="-3.10052">
        <ele>4.7</ele>
        <time>2018-01-21T14:48:22.000Z</time>
      </trkpt>
      <trkpt lat="47.5701" lon="-3.10052">
        <ele>4.7</ele>
        <time>2018-01-21T14:48:23.000Z</time>
      </trkpt>
      <trkpt lat="47.5701" lon="-3.10052">
        <ele>4.7</ele>
        <time>2018-01-21T14:48:24.000Z</time>
      </trkpt>
      <trkpt lat="47.5701" lon="-3.10052">
        <ele>4.7</ele>
        <time>2018-01-21T14:48:25.000Z</time>
      </trkpt>
      <trkpt lat="47.5701" lon="-3.10052">
        <ele>4.7</ele>
        <time>2018-01-21T14:48:26.000Z</time>
      </trkpt>
      <trkpt lat="47.5701" lon="-3.10052">
        <ele>4.7</ele>
        <time>2018-01-21T14:48:27.000Z</time>
      </trkpt>
      <trkpt lat="47.5701" lon="-3.10052">
        <ele>4.7</ele>
        <time>2018-01-21T14:48:28.000Z</time>
      </trkpt>
      <trkpt lat="47.5701" lon="-3.10052">
        <ele>4.7</ele>
        <time>2018-01-21T14:48:29.000Z</time>
      </trkpt>
      <trkpt lat="47.5701" lon="-3.10052">
        <ele>4.7</ele>
        <time>2018-01-21T14:48:30.000Z</time>
      </trkpt>
      <trkpt lat="47.5701" lon="-3.10052">
        <ele>4.7</ele>
        <time>2018-01-21T14:48:31.000Z</time>
      </trkpt>
      <trkpt lat="47.5701" lon="-3.10052">
        <ele>4.7</ele>
        <time>2018-01-21T14:48:32.000Z</time>
      </trkpt>
      <trkpt lat="47.5701" lon="-3.10052">
        <ele>4.7</ele>
        <time>2018-01-21T14:48:33.000Z</time>
      </trkpt>
      <trkpt lat="47.5701" lon="-3.10052">
        <ele>4.7</ele>
        <time>2018-01-21T14:48:34.000Z</time>
      </trkpt>
      <trkpt lat="47.5701" lon="-3.10052">
        <ele>4.7</ele>
        <time>2018-01-21T14:48:35.000Z</time>
      </trkpt>
      <trkpt lat="47.5701" lon="-3.10052">
        <ele>4.7</ele>
        <time>2018-01-21T14:48:36.000Z</time>
      </trkpt>
      <trkpt lat="47.5701" lon="-3.10052">
        <ele>4.7</ele>
        <time>2018-01-21T14:48:37.000Z</time>
      </trkpt>
      <trkpt lat="47.5701" lon="-3.10052">
        <ele>4.7</ele>
        <time>2018-01-21T14:48:38.000Z</time>
      </trkpt>
      <trkpt lat="47.5701" lon="-3.10052">
        <ele>4.7</ele>
        <time>2018-01-21T14:48:39.000Z</time>
      </trkpt>
      <trkpt lat="47.5701" lon="-3.10052">
        <ele>4.7</ele>
        <time>2018-01-21T14:48:40.000Z</time>
      </trkpt>
      <trkpt lat="47.5701" lon="-3.10052">
        <ele>4.7</ele>
        <time>2018-01-21T14:48:41.000Z</time>
      </trkpt>
      <trkpt lat="47.5701" lon="-3.10052">
        <ele>4.7</ele>
        <time>2018-01-21T14:48:42.000Z</time>
      </trkpt>
      <trkpt lat="47.5701" lon="-3.10052">
        <ele>4.7</ele>
        <time>2018-01-21T14:48:43.000Z</time>
      </trkpt>
      <trkpt lat="47.5701" lon="-3.10052">
        <ele>4.7</ele>
        <time>2018-01-21T14:48:44.000Z</time>
      </trkpt>
      <trkpt lat="47.5701" lon="-3.10052">
        <ele>4.7</ele>
        <time>2018-01-21T14:48:45.000Z</time>
      </trkpt>
      <trkpt lat="47.5701" lon="-3.10052">
        <ele>4.7</ele>
        <time>2018-01-21T14:48:46.000Z</time>
      </trkpt>
      <trkpt lat="47.5701" lon="-3.10052">
        <ele>4.7</ele>
        <time>2018-01-21T14:48:47.000Z</time>
      </trkpt>
      <trkpt lat="47.5701" lon="-3.10052">
        <ele>4.7</ele>
        <time>2018-01-21T14:48:48.000Z</time>
      </trkpt>
      <trkpt lat="47.5701" lon="-3.10052">
        <ele>4.7</ele>
        <time>2018-01-21T14:48:49.000Z</time>
      </trkpt>
      <trkpt lat="47.5701" lon="-3.10052">
        <ele>4.7</ele>
        <time>2018-01-21T14:48:50.000Z</time>
      </trkpt>
      <trkpt lat="47.5701" lon="-3.10052">
        <ele>4.7</ele>
        <time>2018-01-21T14:48:51.000Z</time>
      </trkpt>
      <trkpt lat="47.5701" lon="-3.10052">
        <ele>4.7</ele>
        <time>2018-01-21T14:48:52.000Z</time>
      </trkpt>
      <trkpt lat="47.5701" lon="-3.10052">
        <ele>4.7</ele>
        <time>2018-01-21T14:48:53.000Z</time>
      </trkpt>
      <trkpt lat="47.5701" lon="-3.10052">
        <ele>4.7</ele>
        <time>2018-01-21T14:48:54.000Z</time>
      </trkpt>
      <trkpt lat="47.5701" lon="-3.10052">
        <ele>4.7</ele>
        <time>2018-01-21T14:48:55.000Z</time>
      </trkpt>
      <trkpt lat="47.5701" lon="-3.10052">
        <ele>4.7</ele>
        <time>2018-01-21T14:48:56.000Z</time>
      </trkpt>
      <trkpt lat="47.5701" lon="-3.10052">
        <ele>4.7</ele>
        <time>2018-01-21T14:48:57.000Z</time>
      </trkpt>
      <trkpt lat="47.5701" lon="-3.10052">
        <ele>4.7</ele>
        <time>2018-01-21T14:48:58.000Z</time>
      </trkpt>
      <trkpt lat="47.5701" lon="-3.10052">
        <ele>4.7</ele>
        <time>2018-01-21T14:48:59.000Z</time>
      </trkpt>
      <trkpt lat="47.5701" lon="-3.10052">
        <ele>4.7</ele>
        <time>2018-01-21T14:49:00.000Z</time>
      </trkpt>
      <trkpt lat="47.5701" lon="-3.10052">
        <ele>4.7</ele>
        <time>2018-01-21T14:49:01.000Z</time>
      </trkpt>
      <trkpt lat="47.5701" lon="-3.10052">
        <ele>4.7</ele>
        <time>2018-01-21T14:49:02.000Z</time>
      </trkpt>
      <trkpt lat="47.5701" lon="-3.10052">
        <ele>4.7</ele>
        <time>2018-01-21T14:49:03.000Z</time>
      </trkpt>
      <trkpt lat="47.5701" lon="-3.10052">
        <ele>4.7</ele>
        <time>2018-01-21T14:49:04.000Z</time>
      </trkpt>
      <trkpt lat="47.5701" lon="-3.10052">
        <ele>4.7</ele>
        <time>2018-01-21T14:49:05.000Z</time>
      </trkpt>
      <trkpt lat="47.5701" lon="-3.10052">
        <ele>4.7</ele>
        <time>2018-01-21T14:49:06.000Z</time>
      </trkpt>
      <trkpt lat="47.5701" lon="-3.10052">
        <ele>4.7</ele>
        <time>2018-01-21T14:49:07.000Z</time>
      </trkpt>
      <trkpt lat="47.5701" lon="-3.10052">
        <ele>4.7</ele>
        <time>2018-01-21T14:49:08.000Z</time>
      </trkpt>
      <trkpt lat="47.5701" lon="-3.10052">
        <ele>4.7</ele>
        <time>2018-01-21T14:49:09.000Z</time>
      </trkpt>
      <trkpt lat="47.5701" lon="-3.10052">
        <ele>4.7</ele>
        <time>2018-01-21T14:49:10.000Z</time>
      </trkpt>
      <trkpt lat="47.5701" lon="-3.10052">
        <ele>4.7</ele>
        <time>2018-01-21T14:49:11.000Z</time>
      </trkpt>
      <trkpt lat="47.5701" lon="-3.10052">
        <ele>4.7</ele>
        <time>2018-01-21T14:49:12.000Z</time>
      </trkpt>
      <trkpt lat="47.5701" lon="-3.10052">
        <ele>4.7</ele>
        <time>2018-01-21T14:49:13.000Z</time>
      </trkpt>
      <trkpt lat="47.5701" lon="-3.10052">
        <ele>4.7</ele>
        <time>2018-01-21T14:49:14.000Z</time>
      </trkpt>
      <trkpt lat="47.5701" lon="-3.10052">
        <ele>4.7</ele>
        <time>2018-01-21T14:49:15.000Z</time>
      </trkpt>
      <trkpt lat="47.5701" lon="-3.10052">
        <ele>4.7</ele>
        <time>2018-01-21T14:49:16.000Z</time>
      </trkpt>
      <trkpt lat="47.5701" lon="-3.10052">
        <ele>4.7</ele>
        <time>2018-01-21T14:49:17.000Z</time>
      </trkpt>
      <trkpt lat="47.5701" lon="-3.10052">
        <ele>4.7</ele>
        <time>2018-01-21T14:49:18.000Z</time>
      </trkpt>
      <trkpt lat="47.5701" lon="-3.10052">
        <ele>4.7</ele>
        <time>2018-01-21T14:49:19.000Z</time>
      </trkpt>
      <trkpt lat="47.5701" lon="-3.10052">
        <ele>4.7</ele>
        <time>2018-01-21T14:49:20.000Z</time>
      </trkpt>
      <trkpt lat="47.5701" lon="-3.10052">
        <ele>4.7</ele>
        <time>2018-01-21T14:49:21.000Z</time>
      </trkpt>
      <trkpt lat="47.5701" lon="-3.10052">
        <ele>4.7</ele>
        <time>2018-01-21T14:49:22.000Z</time>
      </trkpt>
      <trkpt lat="47.5701" lon="-3.10052">
        <ele>4.7</ele>
        <time>2018-01-21T14:49:23.000Z</time>
      </trkpt>
      <trkpt lat="47.5701" lon="-3.10052">
        <ele>4.7</ele>
        <time>2018-01-21T14:49:24.000Z</time>
      </trkpt>
      <trkpt lat="47.5701" lon="-3.10052">
        <ele>4.7</ele>
        <time>2018-01-21T14:49:25.000Z</time>
      </trkpt>
      <trkpt lat="47.5701" lon="-3.10052">
        <ele>4.7</ele>
        <time>2018-01-21T14:49:26.000Z</time>
      </trkpt>
      <trkpt lat="47.5701" lon="-3.10052">
        <ele>4.7</ele>
        <time>2018-01-21T14:49:27.000Z</time>
      </trkpt>
      <trkpt lat="47.5701" lon="-3.10052">
        <ele>4.7</ele>
        <time>2018-01-21T14:49:28.000Z</time>
      </trkpt>
      <trkpt lat="47.5701" lon="-3.10052">
        <ele>4.7</ele>
        <time>2018-01-21T14:49:29.000Z</time>
      </trkpt>
      <trkpt lat="47.5701" lon="-3.10052">
        <ele>4.7</ele>
        <time>2018-01-21T14:49:30.000Z</time>
      </trkpt>
      <trkpt lat="47.5701" lon="-3.10052">
        <ele>4.7</ele>
        <time>2018-01-21T14:49:31.000Z</time>
      </trkpt>
      <trkpt lat="47.5701" lon="-3.10052">
        <ele>4.7</ele>
        <time>2018-01-21T14:49:32.000Z</time>
      </trkpt>
      <trkpt lat="47.5701" lon="-3.10052">
        <ele>4.7</ele>
        <time>2018-01-21T14:49:33.000Z</time>
      </trkpt>
      <trkpt lat="47.5701" lon="-3.10052">
        <ele>4.7</ele>
        <time>2018-01-21T14:49:34.000Z</time>
      </trkpt>
      <trkpt lat="47.5701" lon="-3.10052">
        <ele>4.7</ele>
        <time>2018-01-21T14:49:35.000Z</time>
      </trkpt>
      <trkpt lat="47.5701" lon="-3.10052">
        <ele>4.7</ele>
        <time>2018-01-21T14:49:36.000Z</time>
      </trkpt>
      <trkpt lat="47.5701" lon="-3.10052">
        <ele>4.7</ele>
        <time>2018-01-21T14:49:37.000Z</time>
      </trkpt>
      <trkpt lat="47.5701" lon="-3.10052">
        <ele>4.7</ele>
        <time>2018-01-21T14:49:38.000Z</time>
      </trkpt>
      <trkpt lat="47.5701" lon="-3.10052">
        <ele>4.7</ele>
        <time>2018-01-21T14:49:39.000Z</time>
      </trkpt>
      <trkpt lat="47.5701" lon="-3.10052">
        <ele>4.7</ele>
        <time>2018-01-21T14:49:40.000Z</time>
      </trkpt>
      <trkpt lat="47.5701" lon="-3.10052">
        <ele>4.7</ele>
        <time>2018-01-21T14:49:41.000Z</time>
      </trkpt>
      <trkpt lat="47.5701" lon="-3.10052">
        <ele>4.7</ele>
        <time>2018-01-21T14:49:42.000Z</time>
      </trkpt>
      <trkpt lat="47.5701" lon="-3.10052">
        <ele>4.7</ele>
        <time>2018-01-21T14:49:43.000Z</time>
      </trkpt>
      <trkpt lat="47.5701" lon="-3.10052">
        <ele>4.7</ele>
        <time>2018-01-21T14:49:44.000Z</time>
      </trkpt>
      <trkpt lat="47.5701" lon="-3.10052">
        <ele>4.7</ele>
        <time>2018-01-21T14:49:45.000Z</time>
      </trkpt>
      <trkpt lat="47.5701" lon="-3.10052">
        <ele>4.7</ele>
        <time>2018-01-21T14:49:46.000Z</time>
      </trkpt>
      <trkpt lat="47.5701" lon="-3.10052">
        <ele>4.7</ele>
        <time>2018-01-21T14:49:47.000Z</time>
      </trkpt>
      <trkpt lat="47.5701" lon="-3.10052">
        <ele>4.7</ele>
        <time>2018-01-21T14:49:48.000Z</time>
      </trkpt>
      <trkpt lat="47.5701" lon="-3.10052">
        <ele>4.7</ele>
        <time>2018-01-21T14:49:49.000Z</time>
      </trkpt>
      <trkpt lat="47.5701" lon="-3.10052">
        <ele>4.7</ele>
        <time>2018-01-21T14:49:50.000Z</time>
      </trkpt>
      <trkpt lat="47.5701" lon="-3.10052">
        <ele>4.7</ele>
        <time>2018-01-21T14:49:51.000Z</time>
      </trkpt>
      <trkpt lat="47.5701" lon="-3.10052">
        <ele>4.7</ele>
        <time>2018-01-21T14:49:52.000Z</time>
      </trkpt>
      <trkpt lat="47.5701" lon="-3.10052">
        <ele>4.7</ele>
        <time>2018-01-21T14:49:53.000Z</time>
      </trkpt>
      <trkpt lat="47.5701" lon="-3.10052">
        <ele>4.7</ele>
        <time>2018-01-21T14:49:54.000Z</time>
      </trkpt>
      <trkpt lat="47.5701" lon="-3.10052">
        <ele>4.7</ele>
        <time>2018-01-21T14:49:55.000Z</time>
      </trkpt>
      <trkpt lat="47.5701" lon="-3.10052">
        <ele>4.7</ele>
        <time>2018-01-21T14:49:56.000Z</time>
      </trkpt>
      <trkpt lat="47.5701" lon="-3.10052">
        <ele>4.7</ele>
        <time>2018-01-21T14:49:57.000Z</time>
      </trkpt>
      <trkpt lat="47.5701" lon="-3.10052">
        <ele>4.7</ele>
        <time>2018-01-21T14:49:58.000Z</time>
      </trkpt>
      <trkpt lat="47.5701" lon="-3.10052">
        <ele>4.7</ele>
        <time>2018-01-21T14:49:59.000Z</time>
      </trkpt>
      <trkpt lat="47.5701" lon="-3.10052">
        <ele>4.7</ele>
        <time>2018-01-21T14:50:00.000Z</time>
      </trkpt>
      <trkpt lat="47.5701" lon="-3.10052">
        <ele>4.7</ele>
        <time>2018-01-21T14:50:01.000Z</time>
      </trkpt>
      <trkpt lat="47.5701" lon="-3.10052">
        <ele>4.7</ele>
        <time>2018-01-21T14:50:02.000Z</time>
      </trkpt>
      <trkpt lat="47.5701" lon="-3.10052">
        <ele>4.7</ele>
        <time>2018-01-21T14:50:03.000Z</time>
      </trkpt>
      <trkpt lat="47.5701" lon="-3.10052">
        <ele>4.7</ele>
        <time>2018-01-21T14:50:04.000Z</time>
      </trkpt>
      <trkpt lat="47.5701" lon="-3.10052">
        <ele>4.7</ele>
        <time>2018-01-21T14:50:05.000Z</time>
      </trkpt>
      <trkpt lat="47.5701" lon="-3.10052">
        <ele>4.7</ele>
        <time>2018-01-21T14:50:06.000Z</time>
      </trkpt>
      <trkpt lat="47.5701" lon="-3.10052">
        <ele>4.7</ele>
        <time>2018-01-21T14:50:07.000Z</time>
      </trkpt>
      <trkpt lat="47.5701" lon="-3.10052">
        <ele>4.7</ele>
        <time>2018-01-21T14:50:08.000Z</time>
      </trkpt>
      <trkpt lat="47.5701" lon="-3.10052">
        <ele>4.7</ele>
        <time>2018-01-21T14:50:09.000Z</time>
      </trkpt>
      <trkpt lat="47.5701" lon="-3.10052">
        <ele>4.7</ele>
        <time>2018-01-21T14:50:10.000Z</time>
      </trkpt>
      <trkpt lat="47.5701" lon="-3.10052">
        <ele>4.7</ele>
        <time>2018-01-21T14:50:11.000Z</time>
      </trkpt>
      <trkpt lat="47.5701" lon="-3.10052">
        <ele>4.7</ele>
        <time>2018-01-21T14:50:12.000Z</time>
      </trkpt>
      <trkpt lat="47.5701" lon="-3.10052">
        <ele>4.7</ele>
        <time>2018-01-21T14:50:13.000Z</time>
      </trkpt>
      <trkpt lat="47.5701" lon="-3.10052">
        <ele>4.7</ele>
        <time>2018-01-21T14:50:14.000Z</time>
      </trkpt>
      <trkpt lat="47.5701" lon="-3.10052">
        <ele>4.7</ele>
        <time>2018-01-21T14:50:15.000Z</time>
      </trkpt>
      <trkpt lat="47.5701" lon="-3.10052">
        <ele>4.7</ele>
        <time>2018-01-21T14:50:16.000Z</time>
      </trkpt>
      <trkpt lat="47.5701" lon="-3.10052">
        <ele>4.7</ele>
        <time>2018-01-21T14:50:17.000Z</time>
      </trkpt>
      <trkpt lat="47.5701" lon="-3.10052">
        <ele>4.7</ele>
        <time>2018-01-21T14:50:18.000Z</time>
      </trkpt>
      <trkpt lat="47.5701" lon="-3.10052">
        <ele>4.7</ele>
        <time>2018-01-21T14:50:19.000Z</time>
      </trkpt>
      <trkpt lat="47.5701" lon="-3.10052">
        <ele>4.7</ele>
        <time>2018-01-21T14:50:20.000Z</time>
      </trkpt>
      <trkpt lat="47.5701" lon="-3.10052">
        <ele>4.7</ele>
        <time>2018-01-21T14:50:21.000Z</time>
      </trkpt>
      <trkpt lat="47.5701" lon="-3.10052">
        <ele>4.7</ele>
        <time>2018-01-21T14:50:22.000Z</time>
      </trkpt>
      <trkpt lat="47.5701" lon="-3.10052">
        <ele>4.7</ele>
        <time>2018-01-21T14:50:23.000Z</time>
      </trkpt>
      <trkpt lat="47.5701" lon="-3.10052">
        <ele>4.7</ele>
        <time>2018-01-21T14:50:24.000Z</time>
      </trkpt>
      <trkpt lat="47.5701" lon="-3.10052">
        <ele>4.7</ele>
        <time>2018-01-21T14:50:25.000Z</time>
      </trkpt>
      <trkpt lat="47.5701" lon="-3.10052">
        <ele>4.7</ele>
        <time>2018-01-21T14:50:26.000Z</time>
      </trkpt>
      <trkpt lat="47.5701" lon="-3.10052">
        <ele>4.7</ele>
        <time>2018-01-21T14:50:27.000Z</time>
      </trkpt>
      <trkpt lat="47.5701" lon="-3.10052">
        <ele>4.7</ele>
        <time>2018-01-21T14:50:28.000Z</time>
      </trkpt>
      <trkpt lat="47.5701" lon="-3.10052">
        <ele>4.7</ele>
        <time>2018-01-21T14:50:29.000Z</time>
      </trkpt>
      <trkpt lat="47.5701" lon="-3.10052">
        <ele>4.7</ele>
        <time>2018-01-21T14:50:30.000Z</time>
      </trkpt>
      <trkpt lat="47.5701" lon="-3.10052">
        <ele>4.7</ele>
        <time>2018-01-21T14:50:31.000Z</time>
      </trkpt>
      <trkpt lat="47.5701" lon="-3.10052">
        <ele>4.7</ele>
        <time>2018-01-21T14:50:32.000Z</time>
      </trkpt>
      <trkpt lat="47.5701" lon="-3.10052">
        <ele>4.7</ele>
        <time>2018-01-21T14:50:33.000Z</time>
      </trkpt>
      <trkpt lat="47.5701" lon="-3.10052">
        <ele>4.7</ele>
        <time>2018-01-21T14:50:34.000Z</time>
      </trkpt>
      <trkpt lat="47.5701" lon="-3.10052">
        <ele>4.7</ele>
        <time>2018-01-21T14:50:35.000Z</time>
      </trkpt>
      <trkpt lat="47.5701" lon="-3.10052">
        <ele>4.7</ele>
        <time>2018-01-21T14:50:36.000Z</time>
      </trkpt>
      <trkpt lat="47.5701" lon="-3.10052">
        <ele>4.7</ele>
        <time>2018-01-21T14:50:37.000Z</time>
      </trkpt>
      <trkpt lat="47.5701" lon="-3.10052">
        <ele>4.7</ele>
        <time>2018-01-21T14:50:38.000Z</time>
      </trkpt>
      <trkpt lat="47.5701" lon="-3.10052">
        <ele>4.7</ele>
        <time>2018-01-21T14:50:39.000Z</time>
      </trkpt>
      <trkpt lat="47.5701" lon="-3.10052">
        <ele>4.7</ele>
        <time>2018-01-21T14:50:40.000Z</time>
      </trkpt>
      <trkpt lat="47.5701" lon="-3.10052">
        <ele>4.7</ele>
        <time>2018-01-21T14:50:41.000Z</time>
      </trkpt>
      <trkpt lat="47.5701" lon="-3.10052">
        <ele>4.7</ele>
        <time>2018-01-21T14:50:42.000Z</time>
      </trkpt>
      <trkpt lat="47.5701" lon="-3.10052">
        <ele>4.7</ele>
        <time>2018-01-21T14:50:43.000Z</time>
      </trkpt>
      <trkpt lat="47.5701" lon="-3.10052">
        <ele>4.7</ele>
        <time>2018-01-21T14:50:44.000Z</time>
      </trkpt>
      <trkpt lat="47.5701" lon="-3.10052">
        <ele>4.7</ele>
        <time>2018-01-21T14:50:45.000Z</time>
      </trkpt>
      <trkpt lat="47.5701" lon="-3.10052">
        <ele>4.7</ele>
        <time>2018-01-21T14:50:46.000Z</time>
      </trkpt>
      <trkpt lat="47.5701" lon="-3.10052">
        <ele>4.7</ele>
        <time>2018-01-21T14:50:47.000Z</time>
      </trkpt>
      <trkpt lat="47.5701" lon="-3.10052">
        <ele>4.7</ele>
        <time>2018-01-21T14:50:48.000Z</time>
      </trkpt>
      <trkpt lat="47.5701" lon="-3.10052">
        <ele>4.7</ele>
        <time>2018-01-21T14:50:49.000Z</time>
      </trkpt>
      <trkpt lat="47.5701" lon="-3.10052">
        <ele>4.7</ele>
        <time>2018-01-21T14:50:50.000Z</time>
      </trkpt>
      <trkpt lat="47.5701" lon="-3.10052">
        <ele>4.7</ele>
        <time>2018-01-21T14:50:51.000Z</time>
      </trkpt>
      <trkpt lat="47.5701" lon="-3.10052">
        <ele>4.7</ele>
        <time>2018-01-21T14:50:52.000Z</time>
      </trkpt>
      <trkpt lat="47.5701" lon="-3.10052">
        <ele>4.7</ele>
        <time>2018-01-21T14:50:53.000Z</time>
      </trkpt>
      <trkpt lat="47.5701" lon="-3.10052">
        <ele>4.7</ele>
        <time>2018-01-21T14:50:54.000Z</time>
      </trkpt>
      <trkpt lat="47.5701" lon="-3.10052">
        <ele>4.7</ele>
        <time>2018-01-21T14:50:55.000Z</time>
      </trkpt>
      <trkpt lat="47.5701" lon="-3.10052">
        <ele>4.7</ele>
        <time>2018-01-21T14:50:56.000Z</time>
      </trkpt>
      <trkpt lat="47.5701" lon="-3.10052">
        <ele>4.7</ele>
        <time>2018-01-21T14:50:57.000Z</time>
      </trkpt>
      <trkpt lat="47.5701" lon="-3.10052">
        <ele>4.7</ele>
        <time>2018-01-21T14:50:58.000Z</time>
      </trkpt>
      <trkpt lat="47.5701" lon="-3.10052">
        <ele>4.7</ele>
        <time>2018-01-21T14:50:59.000Z</time>
      </trkpt>
      <trkpt lat="47.5701" lon="-3.10052">
        <ele>4.7</ele>
        <time>2018-01-21T14:51:00.000Z</time>
      </trkpt>
      <trkpt lat="47.5701" lon="-3.10052">
        <ele>4.7</ele>
        <time>2018-01-21T14:51:01.000Z</time>
      </trkpt>
      <trkpt lat="47.5701" lon="-3.10052">
        <ele>4.7</ele>
        <time>2018-01-21T14:51:02.000Z</time>
      </trkpt>
      <trkpt lat="47.5701" lon="-3.10052">
        <ele>4.7</ele>
        <time>2018-01-21T14:51:03.000Z</time>
      </trkpt>
      <trkpt lat="47.5701" lon="-3.10052">
        <ele>4.7</ele>
        <time>2018-01-21T14:51:04.000Z</time>
      </trkpt>
      <trkpt lat="47.5701" lon="-3.10052">
        <ele>4.7</ele>
        <time>2018-01-21T14:51:05.000Z</time>
      </trkpt>
      <trkpt lat="47.5701" lon="-3.10052">
        <ele>4.7</ele>
        <time>2018-01-21T14:51:06.000Z</time>
      </trkpt>
      <trkpt lat="47.5701" lon="-3.10052">
        <ele>4.7</ele>
        <time>2018-01-21T14:51:07.000Z</time>
      </trkpt>
      <trkpt lat="47.5701" lon="-3.10052">
        <ele>4.7</ele>
        <time>2018-01-21T14:51:08.000Z</time>
      </trkpt>
      <trkpt lat="47.5701" lon="-3.10052">
        <ele>4.7</ele>
        <time>2018-01-21T14:51:09.000Z</time>
      </trkpt>
      <trkpt lat="47.5701" lon="-3.10052">
        <ele>4.7</ele>
        <time>2018-01-21T14:51:10.000Z</time>
      </trkpt>
      <trkpt lat="47.5701" lon="-3.10052">
        <ele>4.7</ele>
        <time>2018-01-21T14:51:11.000Z</time>
      </trkpt>
      <trkpt lat="47.5701" lon="-3.10052">
        <ele>4.7</ele>
        <time>2018-01-21T14:51:12.000Z</time>
      </trkpt>
      <trkpt lat="47.5701" lon="-3.10052">
        <ele>4.7</ele>
        <time>2018-01-21T14:51:13.000Z</time>
      </trkpt>
      <trkpt lat="47.5701" lon="-3.10052">
        <ele>4.7</ele>
        <time>2018-01-21T14:51:14.000Z</time>
      </trkpt>
      <trkpt lat="47.5701" lon="-3.10052">
        <ele>4.7</ele>
        <time>2018-01-21T14:51:15.000Z</time>
      </trkpt>
      <trkpt lat="47.5701" lon="-3.10052">
        <ele>4.7</ele>
        <time>2018-01-21T14:51:16.000Z</time>
      </trkpt>
      <trkpt lat="47.5701" lon="-3.10052">
        <ele>4.7</ele>
        <time>2018-01-21T14:51:17.000Z</time>
      </trkpt>
      <trkpt lat="47.5701" lon="-3.10052">
        <ele>4.7</ele>
        <time>2018-01-21T14:51:18.000Z</time>
      </trkpt>
      <trkpt lat="47.5701" lon="-3.10052">
        <ele>4.7</ele>
        <time>2018-01-21T14:51:19.000Z</time>
      </trkpt>
      <trkpt lat="47.5701" lon="-3.10052">
        <ele>4.7</ele>
        <time>2018-01-21T14:51:20.000Z</time>
      </trkpt>
      <trkpt lat="47.57007" lon="-3.10056">
        <ele>4.3</ele>
        <time>2018-01-21T14:51:21.000Z</time>
      </trkpt>
      <trkpt lat="47.57007" lon="-3.10055">
        <ele>4.2</ele>
        <time>2018-01-21T14:51:22.000Z</time>
      </trkpt>
      <trkpt lat="47.57007" lon="-3.10054">
        <ele>4.1</ele>
        <time>2018-01-21T14:51:23.000Z</time>
      </trkpt>
      <trkpt lat="47.57006" lon="-3.10054">
        <ele>4.1</ele>
        <time>2018-01-21T14:51:24.000Z</time>
      </trkpt>
      <trkpt lat="47.57006" lon="-3.10054">
        <ele>4.1</ele>
        <time>2018-01-21T14:51:25.000Z</time>
      </trkpt>
      <trkpt lat="47.57006" lon="-3.10054">
        <ele>4.1</ele>
        <time>2018-01-21T14:51:26.000Z</time>
      </trkpt>
      <trkpt lat="47.57006" lon="-3.10054">
        <ele>4.1</ele>
        <time>2018-01-21T14:51:27.000Z</time>
      </trkpt>
      <trkpt lat="47.57006" lon="-3.10054">
        <ele>4.1</ele>
        <time>2018-01-21T14:51:28.000Z</time>
      </trkpt>
      <trkpt lat="47.57006" lon="-3.10054">
        <ele>4.1</ele>
        <time>2018-01-21T14:51:29.000Z</time>
      </trkpt>
      <trkpt lat="47.57006" lon="-3.10054">
        <ele>4.1</ele>
        <time>2018-01-21T14:51:30.000Z</time>
      </trkpt>
      <trkpt lat="47.57006" lon="-3.10054">
        <ele>4.1</ele>
        <time>2018-01-21T14:51:31.000Z</time>
      </trkpt>
      <trkpt lat="47.5701" lon="-3.10058">
        <ele>4.9</ele>
        <time>2018-01-21T14:51:32.000Z</time>
      </trkpt>
      <trkpt lat="47.57011" lon="-3.10055">
        <ele>5</ele>
        <time>2018-01-21T14:51:33.000Z</time>
      </trkpt>
      <trkpt lat="47.57014" lon="-3.1005">
        <ele>5.3</ele>
        <time>2018-01-21T14:51:34.000Z</time>
      </trkpt>
      <trkpt lat="47.57016" lon="-3.10047">
        <ele>5.5</ele>
        <time>2018-01-21T14:51:35.000Z</time>
      </trkpt>
      <trkpt lat="47.57016" lon="-3.10048">
        <ele>5.5</ele>
        <time>2018-01-21T14:51:36.000Z</time>
      </trkpt>
      <trkpt lat="47.57015" lon="-3.10047">
        <ele>5.4</ele>
        <time>2018-01-21T14:51:37.000Z</time>
      </trkpt>
      <trkpt lat="47.57015" lon="-3.10047">
        <ele>5.4</ele>
        <time>2018-01-21T14:51:38.000Z</time>
      </trkpt>
      <trkpt lat="47.57015" lon="-3.10047">
        <ele>5.4</ele>
        <time>2018-01-21T14:51:39.000Z</time>
      </trkpt>
      <trkpt lat="47.57015" lon="-3.10047">
        <ele>5.4</ele>
        <time>2018-01-21T14:51:40.000Z</time>
      </trkpt>
      <trkpt lat="47.57015" lon="-3.10047">
        <ele>5.4</ele>
        <time>2018-01-21T14:51:41.000Z</time>
      </trkpt>
      <trkpt lat="47.57015" lon="-3.10047">
        <ele>5.4</ele>
        <time>2018-01-21T14:51:42.000Z</time>
      </trkpt>
      <trkpt lat="47.57015" lon="-3.10047">
        <ele>5.4</ele>
        <time>2018-01-21T14:51:43.000Z</time>
      </trkpt>
      <trkpt lat="47.57015" lon="-3.10047">
        <ele>5.4</ele>
        <time>2018-01-21T14:51:44.000Z</time>
      </trkpt>
      <trkpt lat="47.57015" lon="-3.10047">
        <ele>5.4</ele>
        <time>2018-01-21T14:51:45.000Z</time>
      </trkpt>
      <trkpt lat="47.57015" lon="-3.10047">
        <ele>5.4</ele>
        <time>2018-01-21T14:51:46.000Z</time>
      </trkpt>
      <trkpt lat="47.57015" lon="-3.10047">
        <ele>5.4</ele>
        <time>2018-01-21T14:51:47.000Z</time>
      </trkpt>
      <trkpt lat="47.57015" lon="-3.10047">
        <ele>5.4</ele>
        <time>2018-01-21T14:51:48.000Z</time>
      </trkpt>
      <trkpt lat="47.57015" lon="-3.10047">
        <ele>5.4</ele>
        <time>2018-01-21T14:51:49.000Z</time>
      </trkpt>
      <trkpt lat="47.57015" lon="-3.10047">
        <ele>5.4</ele>
        <time>2018-01-21T14:51:50.000Z</time>
      </trkpt>
      <trkpt lat="47.57015" lon="-3.10047">
        <ele>5.4</ele>
        <time>2018-01-21T14:51:51.000Z</time>
      </trkpt>
      <trkpt lat="47.57015" lon="-3.10047">
        <ele>5.4</ele>
        <time>2018-01-21T14:51:52.000Z</time>
      </trkpt>
      <trkpt lat="47.57015" lon="-3.10047">
        <ele>5.4</ele>
        <time>2018-01-21T14:51:53.000Z</time>
      </trkpt>
      <trkpt lat="47.57015" lon="-3.10047">
        <ele>5.4</ele>
        <time>2018-01-21T14:51:54.000Z</time>
      </trkpt>
      <trkpt lat="47.57015" lon="-3.10047">
        <ele>5.4</ele>
        <time>2018-01-21T14:51:55.000Z</time>
      </trkpt>
      <trkpt lat="47.57015" lon="-3.10047">
        <ele>5.4</ele>
        <time>2018-01-21T14:51:56.000Z</time>
      </trkpt>
      <trkpt lat="47.57015" lon="-3.10047">
        <ele>5.4</ele>
        <time>2018-01-21T14:51:57.000Z</time>
      </trkpt>
      <trkpt lat="47.57015" lon="-3.10047">
        <ele>5.4</ele>
        <time>2018-01-21T14:51:58.000Z</time>
      </trkpt>
      <trkpt lat="47.57015" lon="-3.10047">
        <ele>5.4</ele>
        <time>2018-01-21T14:51:59.000Z</time>
      </trkpt>
      <trkpt lat="47.57015" lon="-3.10047">
        <ele>5.4</ele>
        <time>2018-01-21T14:52:00.000Z</time>
      </trkpt>
      <trkpt lat="47.57015" lon="-3.10047">
        <ele>5.4</ele>
        <time>2018-01-21T14:52:01.000Z</time>
      </trkpt>
      <trkpt lat="47.57015" lon="-3.10047">
        <ele>5.4</ele>
        <time>2018-01-21T14:52:02.000Z</time>
      </trkpt>
      <trkpt lat="47.57015" lon="-3.10047">
        <ele>5.4</ele>
        <time>2018-01-21T14:52:03.000Z</time>
      </trkpt>
      <trkpt lat="47.57015" lon="-3.10047">
        <ele>5.4</ele>
        <time>2018-01-21T14:52:04.000Z</time>
      </trkpt>
      <trkpt lat="47.57015" lon="-3.10047">
        <ele>5.4</ele>
        <time>2018-01-21T14:52:05.000Z</time>
      </trkpt>
      <trkpt lat="47.57015" lon="-3.10047">
        <ele>5.4</ele>
        <time>2018-01-21T14:52:06.000Z</time>
      </trkpt>
      <trkpt lat="47.57015" lon="-3.10047">
        <ele>5.4</ele>
        <time>2018-01-21T14:52:07.000Z</time>
      </trkpt>
      <trkpt lat="47.57015" lon="-3.10047">
        <ele>5.4</ele>
        <time>2018-01-21T14:52:08.000Z</time>
      </trkpt>
      <trkpt lat="47.57021" lon="-3.10058">
        <ele>7</ele>
        <time>2018-01-21T14:52:09.000Z</time>
      </trkpt>
      <trkpt lat="47.57021" lon="-3.10059">
        <ele>7</ele>
        <time>2018-01-21T14:52:10.000Z</time>
      </trkpt>
      <trkpt lat="47.57019" lon="-3.10062">
        <ele>6.8</ele>
        <time>2018-01-21T14:52:11.000Z</time>
      </trkpt>
      <trkpt lat="47.57018" lon="-3.10065">
        <ele>6.6</ele>
        <time>2018-01-21T14:52:12.000Z</time>
      </trkpt>
      <trkpt lat="47.57018" lon="-3.10068">
        <ele>6.7</ele>
        <time>2018-01-21T14:52:13.000Z</time>
      </trkpt>
      <trkpt lat="47.57018" lon="-3.10068">
        <ele>6.7</ele>
        <time>2018-01-21T14:52:14.000Z</time>
      </trkpt>
      <trkpt lat="47.57018" lon="-3.10068">
        <ele>6.7</ele>
        <time>2018-01-21T14:52:15.000Z</time>
      </trkpt>
      <trkpt lat="47.57018" lon="-3.10068">
        <ele>6.7</ele>
        <time>2018-01-21T14:52:16.000Z</time>
      </trkpt>
      <trkpt lat="47.57018" lon="-3.10068">
        <ele>6.7</ele>
        <time>2018-01-21T14:52:17.000Z</time>
      </trkpt>
      <trkpt lat="47.57018" lon="-3.10068">
        <ele>6.7</ele>
        <time>2018-01-21T14:52:18.000Z</time>
      </trkpt>
      <trkpt lat="47.57018" lon="-3.10068">
        <ele>6.7</ele>
        <time>2018-01-21T14:52:19.000Z</time>
      </trkpt>
      <trkpt lat="47.57018" lon="-3.10068">
        <ele>6.7</ele>
        <time>2018-01-21T14:52:20.000Z</time>
      </trkpt>
      <trkpt lat="47.57018" lon="-3.10068">
        <ele>6.7</ele>
        <time>2018-01-21T14:52:21.000Z</time>
      </trkpt>
      <trkpt lat="47.57018" lon="-3.10068">
        <ele>6.7</ele>
        <time>2018-01-21T14:52:22.000Z</time>
      </trkpt>
      <trkpt lat="47.57018" lon="-3.10068">
        <ele>6.7</ele>
        <time>2018-01-21T14:52:23.000Z</time>
      </trkpt>
      <trkpt lat="47.57018" lon="-3.10068">
        <ele>6.7</ele>
        <time>2018-01-21T14:52:24.000Z</time>
      </trkpt>
      <trkpt lat="47.57018" lon="-3.10068">
        <ele>6.7</ele>
        <time>2018-01-21T14:52:25.000Z</time>
      </trkpt>
      <trkpt lat="47.57018" lon="-3.10068">
        <ele>6.7</ele>
        <time>2018-01-21T14:52:26.000Z</time>
      </trkpt>
      <trkpt lat="47.57018" lon="-3.10068">
        <ele>6.7</ele>
        <time>2018-01-21T14:52:27.000Z</time>
      </trkpt>
      <trkpt lat="47.57018" lon="-3.10068">
        <ele>6.7</ele>
        <time>2018-01-21T14:52:28.000Z</time>
      </trkpt>
      <trkpt lat="47.57018" lon="-3.10068">
        <ele>6.7</ele>
        <time>2018-01-21T14:52:29.000Z</time>
      </trkpt>
      <trkpt lat="47.57018" lon="-3.10068">
        <ele>6.7</ele>
        <time>2018-01-21T14:52:30.000Z</time>
      </trkpt>
      <trkpt lat="47.57018" lon="-3.10068">
        <ele>6.7</ele>
        <time>2018-01-21T14:52:31.000Z</time>
      </trkpt>
      <trkpt lat="47.57018" lon="-3.10068">
        <ele>6.7</ele>
        <time>2018-01-21T14:52:32.000Z</time>
      </trkpt>
      <trkpt lat="47.57018" lon="-3.10068">
        <ele>6.7</ele>
        <time>2018-01-21T14:52:33.000Z</time>
      </trkpt>
      <trkpt lat="47.57018" lon="-3.10068">
        <ele>6.7</ele>
        <time>2018-01-21T14:52:34.000Z</time>
      </trkpt>
      <trkpt lat="47.57018" lon="-3.10068">
        <ele>6.7</ele>
        <time>2018-01-21T14:52:35.000Z</time>
      </trkpt>
      <trkpt lat="47.57018" lon="-3.10068">
        <ele>6.7</ele>
        <time>2018-01-21T14:52:36.000Z</time>
      </trkpt>
      <trkpt lat="47.57018" lon="-3.10068">
        <ele>6.7</ele>
        <time>2018-01-21T14:52:37.000Z</time>
      </trkpt>
      <trkpt lat="47.57018" lon="-3.10068">
        <ele>6.7</ele>
        <time>2018-01-21T14:52:38.000Z</time>
      </trkpt>
      <trkpt lat="47.57018" lon="-3.10068">
        <ele>6.7</ele>
        <time>2018-01-21T14:52:39.000Z</time>
      </trkpt>
      <trkpt lat="47.57018" lon="-3.10068">
        <ele>6.7</ele>
        <time>2018-01-21T14:52:40.000Z</time>
      </trkpt>
      <trkpt lat="47.57018" lon="-3.10068">
        <ele>6.7</ele>
        <time>2018-01-21T14:52:41.000Z</time>
      </trkpt>
      <trkpt lat="47.57018" lon="-3.10068">
        <ele>6.7</ele>
        <time>2018-01-21T14:52:42.000Z</time>
      </trkpt>
      <trkpt lat="47.57018" lon="-3.10068">
        <ele>6.7</ele>
        <time>2018-01-21T14:52:43.000Z</time>
      </trkpt>
      <trkpt lat="47.57018" lon="-3.10068">
        <ele>6.7</ele>
        <time>2018-01-21T14:52:44.000Z</time>
      </trkpt>
      <trkpt lat="47.57018" lon="-3.10068">
        <ele>6.7</ele>
        <time>2018-01-21T14:52:45.000Z</time>
      </trkpt>
      <trkpt lat="47.57018" lon="-3.10068">
        <ele>6.7</ele>
        <time>2018-01-21T14:52:46.000Z</time>
      </trkpt>
      <trkpt lat="47.57018" lon="-3.10068">
        <ele>6.7</ele>
        <time>2018-01-21T14:52:47.000Z</time>
      </trkpt>
      <trkpt lat="47.57018" lon="-3.10068">
        <ele>6.7</ele>
        <time>2018-01-21T14:52:48.000Z</time>
      </trkpt>
      <trkpt lat="47.57018" lon="-3.10068">
        <ele>6.7</ele>
        <time>2018-01-21T14:52:49.000Z</time>
      </trkpt>
      <trkpt lat="47.57018" lon="-3.10068">
        <ele>6.7</ele>
        <time>2018-01-21T14:52:50.000Z</time>
      </trkpt>
      <trkpt lat="47.57018" lon="-3.10068">
        <ele>6.7</ele>
        <time>2018-01-21T14:52:51.000Z</time>
      </trkpt>
      <trkpt lat="47.57018" lon="-3.10068">
        <ele>6.7</ele>
        <time>2018-01-21T14:52:52.000Z</time>
      </trkpt>
      <trkpt lat="47.57018" lon="-3.10068">
        <ele>6.7</ele>
        <time>2018-01-21T14:52:53.000Z</time>
      </trkpt>
      <trkpt lat="47.57018" lon="-3.10068">
        <ele>6.7</ele>
        <time>2018-01-21T14:52:54.000Z</time>
      </trkpt>
      <trkpt lat="47.57018" lon="-3.10068">
        <ele>6.7</ele>
        <time>2018-01-21T14:52:55.000Z</time>
      </trkpt>
      <trkpt lat="47.57018" lon="-3.10068">
        <ele>6.7</ele>
        <time>2018-01-21T14:52:56.000Z</time>
      </trkpt>
      <trkpt lat="47.57018" lon="-3.10068">
        <ele>6.7</ele>
        <time>2018-01-21T14:52:57.000Z</time>
      </trkpt>
      <trkpt lat="47.57018" lon="-3.10068">
        <ele>6.7</ele>
        <time>2018-01-21T14:52:58.000Z</time>
      </trkpt>
      <trkpt lat="47.57018" lon="-3.10068">
        <ele>6.7</ele>
        <time>2018-01-21T14:52:59.000Z</time>
      </trkpt>
      <trkpt lat="47.57018" lon="-3.10068">
        <ele>6.7</ele>
        <time>2018-01-21T14:53:00.000Z</time>
      </trkpt>
      <trkpt lat="47.57018" lon="-3.10068">
        <ele>6.7</ele>
        <time>2018-01-21T14:53:01.000Z</time>
      </trkpt>
      <trkpt lat="47.57018" lon="-3.10068">
        <ele>6.7</ele>
        <time>2018-01-21T14:53:02.000Z</time>
      </trkpt>
      <trkpt lat="47.57018" lon="-3.10068">
        <ele>6.7</ele>
        <time>2018-01-21T14:53:03.000Z</time>
      </trkpt>
      <trkpt lat="47.57018" lon="-3.10068">
        <ele>6.7</ele>
        <time>2018-01-21T14:53:04.000Z</time>
      </trkpt>
      <trkpt lat="47.57018" lon="-3.10068">
        <ele>6.7</ele>
        <time>2018-01-21T14:53:05.000Z</time>
      </trkpt>
      <trkpt lat="47.57018" lon="-3.10068">
        <ele>6.7</ele>
        <time>2018-01-21T14:53:06.000Z</time>
      </trkpt>
      <trkpt lat="47.57018" lon="-3.10068">
        <ele>6.7</ele>
        <time>2018-01-21T14:53:07.000Z</time>
      </trkpt>
      <trkpt lat="47.57018" lon="-3.10068">
        <ele>6.7</ele>
        <time>2018-01-21T14:53:08.000Z</time>
      </trkpt>
      <trkpt lat="47.57018" lon="-3.10068">
        <ele>6.7</ele>
        <time>2018-01-21T14:53:09.000Z</time>
      </trkpt>
      <trkpt lat="47.57018" lon="-3.10068">
        <ele>6.7</ele>
        <time>2018-01-21T14:53:10.000Z</time>
      </trkpt>
      <trkpt lat="47.57018" lon="-3.10068">
        <ele>6.7</ele>
        <time>2018-01-21T14:53:11.000Z</time>
      </trkpt>
      <trkpt lat="47.57018" lon="-3.10068">
        <ele>6.7</ele>
        <time>2018-01-21T14:53:12.000Z</time>
      </trkpt>
      <trkpt lat="47.57018" lon="-3.10068">
        <ele>6.7</ele>
        <time>2018-01-21T14:53:13.000Z</time>
      </trkpt>
      <trkpt lat="47.57018" lon="-3.10068">
        <ele>6.7</ele>
        <time>2018-01-21T14:53:14.000Z</time>
      </trkpt>
      <trkpt lat="47.57018" lon="-3.10068">
        <ele>6.7</ele>
        <time>2018-01-21T14:53:15.000Z</time>
      </trkpt>
      <trkpt lat="47.57018" lon="-3.10068">
        <ele>6.7</ele>
        <time>2018-01-21T14:53:16.000Z</time>
      </trkpt>
      <trkpt lat="47.57018" lon="-3.10068">
        <ele>6.7</ele>
        <time>2018-01-21T14:53:17.000Z</time>
      </trkpt>
      <trkpt lat="47.57018" lon="-3.10068">
        <ele>6.7</ele>
        <time>2018-01-21T14:53:18.000Z</time>
      </trkpt>
      <trkpt lat="47.57018" lon="-3.10068">
        <ele>6.7</ele>
        <time>2018-01-21T14:53:19.000Z</time>
      </trkpt>
      <trkpt lat="47.57018" lon="-3.10068">
        <ele>6.7</ele>
        <time>2018-01-21T14:53:20.000Z</time>
      </trkpt>
      <trkpt lat="47.57018" lon="-3.10068">
        <ele>6.7</ele>
        <time>2018-01-21T14:53:21.000Z</time>
      </trkpt>
      <trkpt lat="47.57018" lon="-3.10068">
        <ele>6.7</ele>
        <time>2018-01-21T14:53:22.000Z</time>
      </trkpt>
      <trkpt lat="47.57018" lon="-3.10068">
        <ele>6.7</ele>
        <time>2018-01-21T14:53:23.000Z</time>
      </trkpt>
      <trkpt lat="47.57018" lon="-3.10068">
        <ele>6.7</ele>
        <time>2018-01-21T14:53:24.000Z</time>
      </trkpt>
      <trkpt lat="47.57018" lon="-3.10068">
        <ele>6.7</ele>
        <time>2018-01-21T14:53:25.000Z</time>
      </trkpt>
      <trkpt lat="47.57018" lon="-3.10068">
        <ele>6.7</ele>
        <time>2018-01-21T14:53:26.000Z</time>
      </trkpt>
      <trkpt lat="47.57018" lon="-3.10068">
        <ele>6.7</ele>
        <time>2018-01-21T14:53:27.000Z</time>
      </trkpt>
      <trkpt lat="47.57018" lon="-3.10068">
        <ele>6.7</ele>
        <time>2018-01-21T14:53:28.000Z</time>
      </trkpt>
      <trkpt lat="47.57018" lon="-3.10068">
        <ele>6.7</ele>
        <time>2018-01-21T14:53:29.000Z</time>
      </trkpt>
      <trkpt lat="47.57018" lon="-3.10068">
        <ele>6.7</ele>
        <time>2018-01-21T14:53:30.000Z</time>
      </trkpt>
      <trkpt lat="47.57018" lon="-3.10068">
        <ele>6.7</ele>
        <time>2018-01-21T14:53:31.000Z</time>
      </trkpt>
      <trkpt lat="47.57018" lon="-3.10068">
        <ele>6.7</ele>
        <time>2018-01-21T14:53:32.000Z</time>
      </trkpt>
      <trkpt lat="47.57018" lon="-3.10068">
        <ele>6.7</ele>
        <time>2018-01-21T14:53:33.000Z</time>
      </trkpt>
      <trkpt lat="47.57018" lon="-3.10068">
        <ele>6.7</ele>
        <time>2018-01-21T14:53:34.000Z</time>
      </trkpt>
      <trkpt lat="47.57018" lon="-3.10068">
        <ele>6.7</ele>
        <time>2018-01-21T14:53:35.000Z</time>
      </trkpt>
      <trkpt lat="47.57018" lon="-3.10068">
        <ele>6.7</ele>
        <time>2018-01-21T14:53:36.000Z</time>
      </trkpt>
      <trkpt lat="47.57018" lon="-3.10068">
        <ele>6.7</ele>
        <time>2018-01-21T14:53:37.000Z</time>
      </trkpt>
      <trkpt lat="47.57018" lon="-3.10068">
        <ele>6.7</ele>
        <time>2018-01-21T14:53:38.000Z</time>
      </trkpt>
      <trkpt lat="47.57018" lon="-3.10068">
        <ele>6.7</ele>
        <time>2018-01-21T14:53:39.000Z</time>
      </trkpt>
      <trkpt lat="47.57018" lon="-3.10068">
        <ele>6.7</ele>
        <time>2018-01-21T14:53:40.000Z</time>
      </trkpt>
      <trkpt lat="47.57018" lon="-3.10068">
        <ele>6.7</ele>
        <time>2018-01-21T14:53:41.000Z</time>
      </trkpt>
      <trkpt lat="47.57025" lon="-3.10088">
        <ele>9.7</ele>
        <time>2018-01-21T14:53:42.000Z</time>
      </trkpt>
      <trkpt lat="47.57025" lon="-3.10093">
        <ele>10</ele>
        <time>2018-01-21T14:53:43.000Z</time>
      </trkpt>
      <trkpt lat="47.57025" lon="-3.10089">
        <ele>9.8</ele>
        <time>2018-01-21T14:53:44.000Z</time>
      </trkpt>
      <trkpt lat="47.57025" lon="-3.10091">
        <ele>10</ele>
        <time>2018-01-21T14:53:45.000Z</time>
      </trkpt>
      <trkpt lat="47.57025" lon="-3.10091">
        <ele>10</ele>
        <time>2018-01-21T14:53:46.000Z</time>
      </trkpt>
      <trkpt lat="47.57025" lon="-3.10091">
        <ele>10</ele>
        <time>2018-01-21T14:53:47.000Z</time>
      </trkpt>
      <trkpt lat="47.57025" lon="-3.10091">
        <ele>10</ele>
        <time>2018-01-21T14:53:48.000Z</time>
      </trkpt>
      <trkpt lat="47.57025" lon="-3.10091">
        <ele>10</ele>
        <time>2018-01-21T14:53:49.000Z</time>
      </trkpt>
      <trkpt lat="47.57025" lon="-3.10091">
        <ele>10</ele>
        <time>2018-01-21T14:53:50.000Z</time>
      </trkpt>
      <trkpt lat="47.57025" lon="-3.10091">
        <ele>10</ele>
        <time>2018-01-21T14:53:51.000Z</time>
      </trkpt>
      <trkpt lat="47.57025" lon="-3.10091">
        <ele>10</ele>
        <time>2018-01-21T14:53:52.000Z</time>
      </trkpt>
      <trkpt lat="47.57025" lon="-3.10091">
        <ele>10</ele>
        <time>2018-01-21T14:53:53.000Z</time>
      </trkpt>
      <trkpt lat="47.57025" lon="-3.10091">
        <ele>10</ele>
        <time>2018-01-21T14:53:54.000Z</time>
      </trkpt>
      <trkpt lat="47.57025" lon="-3.10091">
        <ele>10</ele>
        <time>2018-01-21T14:53:55.000Z</time>
      </trkpt>
      <trkpt lat="47.57025" lon="-3.10091">
        <ele>10</ele>
        <time>2018-01-21T14:53:56.000Z</time>
      </trkpt>
      <trkpt lat="47.57025" lon="-3.10091">
        <ele>10</ele>
        <time>2018-01-21T14:53:57.000Z</time>
      </trkpt>
      <trkpt lat="47.57025" lon="-3.10091">
        <ele>10</ele>
        <time>2018-01-21T14:53:58.000Z</time>
      </trkpt>
      <trkpt lat="47.57025" lon="-3.10091">
        <ele>10</ele>
        <time>2018-01-21T14:53:59.000Z</time>
      </trkpt>
      <trkpt lat="47.57025" lon="-3.10091">
        <ele>10</ele>
        <time>2018-01-21T14:54:00.000Z</time>
      </trkpt>
      <trkpt lat="47.57025" lon="-3.10091">
        <ele>10</ele>
        <time>2018-01-21T14:54:01.000Z</time>
      </trkpt>
      <trkpt lat="47.57025" lon="-3.10091">
        <ele>10</ele>
        <time>2018-01-21T14:54:02.000Z</time>
      </trkpt>
      <trkpt lat="47.57025" lon="-3.10091">
        <ele>10</ele>
        <time>2018-01-21T14:54:03.000Z</time>
      </trkpt>
      <trkpt lat="47.57025" lon="-3.10091">
        <ele>10</ele>
        <time>2018-01-21T14:54:04.000Z</time>
      </trkpt>
      <trkpt lat="47.57025" lon="-3.10091">
        <ele>10</ele>
        <time>2018-01-21T14:54:05.000Z</time>
      </trkpt>
      <trkpt lat="47.57025" lon="-3.10091">
        <ele>10</ele>
        <time>2018-01-21T14:54:06.000Z</time>
      </trkpt>
      <trkpt lat="47.57025" lon="-3.10091">
        <ele>10</ele>
        <time>2018-01-21T14:54:07.000Z</time>
      </trkpt>
      <trkpt lat="47.57025" lon="-3.10091">
        <ele>10</ele>
        <time>2018-01-21T14:54:08.000Z</time>
      </trkpt>
      <trkpt lat="47.57025" lon="-3.10091">
        <ele>10</ele>
        <time>2018-01-21T14:54:09.000Z</time>
      </trkpt>
      <trkpt lat="47.57025" lon="-3.10091">
        <ele>10</ele>
        <time>2018-01-21T14:54:10.000Z</time>
      </trkpt>
      <trkpt lat="47.57025" lon="-3.10091">
        <ele>10</ele>
        <time>2018-01-21T14:54:11.000Z</time>
      </trkpt>
      <trkpt lat="47.57025" lon="-3.10091">
        <ele>10</ele>
        <time>2018-01-21T14:54:12.000Z</time>
      </trkpt>
      <trkpt lat="47.57025" lon="-3.10091">
        <ele>10</ele>
        <time>2018-01-21T14:54:13.000Z</time>
      </trkpt>
      <trkpt lat="47.57025" lon="-3.10091">
        <ele>10</ele>
        <time>2018-01-21T14:54:14.000Z</time>
      </trkpt>
      <trkpt lat="47.57025" lon="-3.10091">
        <ele>10</ele>
        <time>2018-01-21T14:54:15.000Z</time>
      </trkpt>
      <trkpt lat="47.57025" lon="-3.10091">
        <ele>10</ele>
        <time>2018-01-21T14:54:16.000Z</time>
      </trkpt>
      <trkpt lat="47.57025" lon="-3.10091">
        <ele>10</ele>
        <time>2018-01-21T14:54:17.000Z</time>
      </trkpt>
      <trkpt lat="47.57025" lon="-3.10091">
        <ele>10</ele>
        <time>2018-01-21T14:54:18.000Z</time>
      </trkpt>
      <trkpt lat="47.57025" lon="-3.10091">
        <ele>10</ele>
        <time>2018-01-21T14:54:19.000Z</time>
      </trkpt>
      <trkpt lat="47.57025" lon="-3.10091">
        <ele>10</ele>
        <time>2018-01-21T14:54:20.000Z</time>
      </trkpt>
      <trkpt lat="47.57025" lon="-3.10091">
        <ele>10</ele>
        <time>2018-01-21T14:54:21.000Z</time>
      </trkpt>
      <trkpt lat="47.57025" lon="-3.10091">
        <ele>10</ele>
        <time>2018-01-21T14:54:22.000Z</time>
      </trkpt>
      <trkpt lat="47.57025" lon="-3.10091">
        <ele>10</ele>
        <time>2018-01-21T14:54:23.000Z</time>
      </trkpt>
      <trkpt lat="47.57025" lon="-3.10091">
        <ele>10</ele>
        <time>2018-01-21T14:54:24.000Z</time>
      </trkpt>
      <trkpt lat="47.57025" lon="-3.10091">
        <ele>10</ele>
        <time>2018-01-21T14:54:25.000Z</time>
      </trkpt>
      <trkpt lat="47.57025" lon="-3.10091">
        <ele>10</ele>
        <time>2018-01-21T14:54:26.000Z</time>
      </trkpt>
      <trkpt lat="47.57025" lon="-3.10091">
        <ele>10</ele>
        <time>2018-01-21T14:54:27.000Z</time>
      </trkpt>
      <trkpt lat="47.57025" lon="-3.10091">
        <ele>10</ele>
        <time>2018-01-21T14:54:28.000Z</time>
      </trkpt>
      <trkpt lat="47.57025" lon="-3.10091">
        <ele>10</ele>
        <time>2018-01-21T14:54:29.000Z</time>
      </trkpt>
      <trkpt lat="47.57025" lon="-3.10091">
        <ele>10</ele>
        <time>2018-01-21T14:54:30.000Z</time>
      </trkpt>
      <trkpt lat="47.57025" lon="-3.10091">
        <ele>10</ele>
        <time>2018-01-21T14:54:31.000Z</time>
      </trkpt>
      <trkpt lat="47.57025" lon="-3.10091">
        <ele>10</ele>
        <time>2018-01-21T14:54:32.000Z</time>
      </trkpt>
      <trkpt lat="47.57025" lon="-3.10091">
        <ele>10</ele>
        <time>2018-01-21T14:54:33.000Z</time>
      </trkpt>
      <trkpt lat="47.57025" lon="-3.10091">
        <ele>10</ele>
        <time>2018-01-21T14:54:34.000Z</time>
      </trkpt>
      <trkpt lat="47.57025" lon="-3.10091">
        <ele>10</ele>
        <time>2018-01-21T14:54:35.000Z</time>
      </trkpt>
      <trkpt lat="47.57025" lon="-3.10091">
        <ele>10</ele>
        <time>2018-01-21T14:54:36.000Z</time>
      </trkpt>
      <trkpt lat="47.57025" lon="-3.10091">
        <ele>10</ele>
        <time>2018-01-21T14:54:37.000Z</time>
      </trkpt>
      <trkpt lat="47.57025" lon="-3.10091">
        <ele>10</ele>
        <time>2018-01-21T14:54:38.000Z</time>
      </trkpt>
      <trkpt lat="47.57025" lon="-3.10091">
        <ele>10</ele>
        <time>2018-01-21T14:54:39.000Z</time>
      </trkpt>
      <trkpt lat="47.57025" lon="-3.10091">
        <ele>10</ele>
        <time>2018-01-21T14:54:40.000Z</time>
      </trkpt>
      <trkpt lat="47.57025" lon="-3.10091">
        <ele>10</ele>
        <time>2018-01-21T14:54:41.000Z</time>
      </trkpt>
      <trkpt lat="47.57025" lon="-3.10091">
        <ele>10</ele>
        <time>2018-01-21T14:54:42.000Z</time>
      </trkpt>
      <trkpt lat="47.57025" lon="-3.10091">
        <ele>10</ele>
        <time>2018-01-21T14:54:43.000Z</time>
      </trkpt>
      <trkpt lat="47.57025" lon="-3.10091">
        <ele>10</ele>
        <time>2018-01-21T14:54:44.000Z</time>
      </trkpt>
      <trkpt lat="47.57025" lon="-3.10091">
        <ele>10</ele>
        <time>2018-01-21T14:54:45.000Z</time>
      </trkpt>
      <trkpt lat="47.57025" lon="-3.10091">
        <ele>10</ele>
        <time>2018-01-21T14:54:46.000Z</time>
      </trkpt>
      <trkpt lat="47.57025" lon="-3.10091">
        <ele>10</ele>
        <time>2018-01-21T14:54:47.000Z</time>
      </trkpt>
      <trkpt lat="47.57025" lon="-3.10091">
        <ele>10</ele>
        <time>2018-01-21T14:54:48.000Z</time>
      </trkpt>
      <trkpt lat="47.57025" lon="-3.10091">
        <ele>10</ele>
        <time>2018-01-21T14:54:49.000Z</time>
      </trkpt>
      <trkpt lat="47.57025" lon="-3.10091">
        <ele>10</ele>
        <time>2018-01-21T14:54:50.000Z</time>
      </trkpt>
      <trkpt lat="47.57025" lon="-3.10091">
        <ele>10</ele>
        <time>2018-01-21T14:54:51.000Z</time>
      </trkpt>
      <trkpt lat="47.57025" lon="-3.10091">
        <ele>10</ele>
        <time>2018-01-21T14:54:52.000Z</time>
      </trkpt>
      <trkpt lat="47.57025" lon="-3.10091">
        <ele>10</ele>
        <time>2018-01-21T14:54:53.000Z</time>
      </trkpt>
      <trkpt lat="47.57025" lon="-3.10091">
        <ele>10</ele>
        <time>2018-01-21T14:54:54.000Z</time>
      </trkpt>
      <trkpt lat="47.57025" lon="-3.10091">
        <ele>10</ele>
        <time>2018-01-21T14:54:55.000Z</time>
      </trkpt>
      <trkpt lat="47.57025" lon="-3.10091">
        <ele>10</ele>
        <time>2018-01-21T14:54:56.000Z</time>
      </trkpt>
      <trkpt lat="47.57025" lon="-3.10091">
        <ele>10</ele>
        <time>2018-01-21T14:54:57.000Z</time>
      </trkpt>
      <trkpt lat="47.57025" lon="-3.10091">
        <ele>10</ele>
        <time>2018-01-21T14:54:58.000Z</time>
      </trkpt>
      <trkpt lat="47.57025" lon="-3.10091">
        <ele>10</ele>
        <time>2018-01-21T14:54:59.000Z</time>
      </trkpt>
      <trkpt lat="47.57025" lon="-3.10091">
        <ele>10</ele>
        <time>2018-01-21T14:55:00.000Z</time>
      </trkpt>
      <trkpt lat="47.57025" lon="-3.10091">
        <ele>10</ele>
        <time>2018-01-21T14:55:01.000Z</time>
      </trkpt>
      <trkpt lat="47.57025" lon="-3.10091">
        <ele>10</ele>
        <time>2018-01-21T14:55:02.000Z</time>
      </trkpt>
      <trkpt lat="47.57025" lon="-3.10091">
        <ele>10</ele>
        <time>2018-01-21T14:55:03.000Z</time>
      </trkpt>
      <trkpt lat="47.57025" lon="-3.10091">
        <ele>10</ele>
        <time>2018-01-21T14:55:04.000Z</time>
      </trkpt>
      <trkpt lat="47.57025" lon="-3.10091">
        <ele>10</ele>
        <time>2018-01-21T14:55:05.000Z</time>
      </trkpt>
      <trkpt lat="47.57019" lon="-3.10079">
        <ele>7.5</ele>
        <time>2018-01-21T14:55:06.000Z</time>
      </trkpt>
      <trkpt lat="47.57018" lon="-3.10077">
        <ele>7.3</ele>
        <time>2018-01-21T14:55:07.000Z</time>
      </trkpt>
      <trkpt lat="47.57018" lon="-3.10076">
        <ele>7.1</ele>
        <time>2018-01-21T14:55:08.000Z</time>
      </trkpt>
      <trkpt lat="47.57017" lon="-3.10073">
        <ele>6.9</ele>
        <time>2018-01-21T14:55:09.000Z</time>
      </trkpt>
      <trkpt lat="47.57017" lon="-3.10073">
        <ele>6.9</ele>
        <time>2018-01-21T14:55:10.000Z</time>
      </trkpt>
      <trkpt lat="47.57017" lon="-3.10073">
        <ele>6.9</ele>
        <time>2018-01-21T14:55:11.000Z</time>
      </trkpt>
      <trkpt lat="47.57017" lon="-3.10073">
        <ele>6.9</ele>
        <time>2018-01-21T14:55:12.000Z</time>
      </trkpt>
      <trkpt lat="47.57017" lon="-3.10073">
        <ele>6.9</ele>
        <time>2018-01-21T14:55:13.000Z</time>
      </trkpt>
      <trkpt lat="47.57017" lon="-3.10073">
        <ele>6.9</ele>
        <time>2018-01-21T14:55:14.000Z</time>
      </trkpt>
      <trkpt lat="47.57017" lon="-3.10073">
        <ele>6.9</ele>
        <time>2018-01-21T14:55:15.000Z</time>
      </trkpt>
      <trkpt lat="47.57017" lon="-3.10073">
        <ele>6.9</ele>
        <time>2018-01-21T14:55:16.000Z</time>
      </trkpt>
      <trkpt lat="47.57017" lon="-3.10073">
        <ele>6.9</ele>
        <time>2018-01-21T14:55:17.000Z</time>
      </trkpt>
      <trkpt lat="47.57017" lon="-3.10073">
        <ele>6.9</ele>
        <time>2018-01-21T14:55:18.000Z</time>
      </trkpt>
      <trkpt lat="47.57017" lon="-3.10073">
        <ele>6.9</ele>
        <time>2018-01-21T14:55:19.000Z</time>
      </trkpt>
      <trkpt lat="47.57017" lon="-3.10073">
        <ele>6.9</ele>
        <time>2018-01-21T14:55:20.000Z</time>
      </trkpt>
      <trkpt lat="47.57017" lon="-3.10073">
        <ele>6.9</ele>
        <time>2018-01-21T14:55:21.000Z</time>
      </trkpt>
      <trkpt lat="47.57017" lon="-3.10073">
        <ele>6.9</ele>
        <time>2018-01-21T14:55:22.000Z</time>
      </trkpt>
      <trkpt lat="47.57017" lon="-3.10073">
        <ele>6.9</ele>
        <time>2018-01-21T14:55:23.000Z</time>
      </trkpt>
      <trkpt lat="47.57017" lon="-3.10073">
        <ele>6.9</ele>
        <time>2018-01-21T14:55:24.000Z</time>
      </trkpt>
      <trkpt lat="47.57017" lon="-3.10073">
        <ele>6.9</ele>
        <time>2018-01-21T14:55:25.000Z</time>
      </trkpt>
      <trkpt lat="47.57017" lon="-3.10073">
        <ele>6.9</ele>
        <time>2018-01-21T14:55:26.000Z</time>
      </trkpt>
      <trkpt lat="47.57017" lon="-3.10073">
        <ele>6.9</ele>
        <time>2018-01-21T14:55:27.000Z</time>
      </trkpt>
      <trkpt lat="47.57017" lon="-3.10073">
        <ele>6.9</ele>
        <time>2018-01-21T14:55:28.000Z</time>
      </trkpt>
      <trkpt lat="47.57017" lon="-3.10073">
        <ele>6.9</ele>
        <time>2018-01-21T14:55:29.000Z</time>
      </trkpt>
      <trkpt lat="47.57017" lon="-3.10073">
        <ele>6.9</ele>
        <time>2018-01-21T14:55:30.000Z</time>
      </trkpt>
      <trkpt lat="47.57017" lon="-3.10073">
        <ele>6.9</ele>
        <time>2018-01-21T14:55:31.000Z</time>
      </trkpt>
      <trkpt lat="47.57017" lon="-3.10073">
        <ele>6.9</ele>
        <time>2018-01-21T14:55:32.000Z</time>
      </trkpt>
      <trkpt lat="47.57017" lon="-3.10073">
        <ele>6.9</ele>
        <time>2018-01-21T14:55:33.000Z</time>
      </trkpt>
      <trkpt lat="47.57017" lon="-3.10073">
        <ele>6.9</ele>
        <time>2018-01-21T14:55:34.000Z</time>
      </trkpt>
      <trkpt lat="47.57017" lon="-3.10073">
        <ele>6.9</ele>
        <time>2018-01-21T14:55:35.000Z</time>
      </trkpt>
      <trkpt lat="47.57017" lon="-3.10073">
        <ele>6.9</ele>
        <time>2018-01-21T14:55:36.000Z</time>
      </trkpt>
      <trkpt lat="47.57017" lon="-3.10073">
        <ele>6.9</ele>
        <time>2018-01-21T14:55:37.000Z</time>
      </trkpt>
      <trkpt lat="47.57017" lon="-3.10073">
        <ele>6.9</ele>
        <time>2018-01-21T14:55:38.000Z</time>
      </trkpt>
      <trkpt lat="47.57017" lon="-3.10073">
        <ele>6.9</ele>
        <time>2018-01-21T14:55:39.000Z</time>
      </trkpt>
      <trkpt lat="47.57017" lon="-3.10073">
        <ele>6.9</ele>
        <time>2018-01-21T14:55:40.000Z</time>
      </trkpt>
      <trkpt lat="47.57018" lon="-3.10059">
        <ele>6.5</ele>
        <time>2018-01-21T14:55:41.000Z</time>
      </trkpt>
      <trkpt lat="47.57018" lon="-3.10057">
        <ele>6.4</ele>
        <time>2018-01-21T14:55:42.000Z</time>
      </trkpt>
      <trkpt lat="47.57018" lon="-3.10056">
        <ele>6.3</ele>
        <time>2018-01-21T14:55:43.000Z</time>
      </trkpt>
      <trkpt lat="47.57018" lon="-3.10055">
        <ele>6.3</ele>
        <time>2018-01-21T14:55:44.000Z</time>
      </trkpt>
      <trkpt lat="47.57018" lon="-3.10055">
        <ele>6.3</ele>
        <time>2018-01-21T14:55:45.000Z</time>
      </trkpt>
      <trkpt lat="47.57018" lon="-3.10055">
        <ele>6.3</ele>
        <time>2018-01-21T14:55:46.000Z</time>
      </trkpt>
      <trkpt lat="47.57018" lon="-3.10055">
        <ele>6.3</ele>
        <time>2018-01-21T14:55:47.000Z</time>
      </trkpt>
      <trkpt lat="47.57018" lon="-3.10055">
        <ele>6.3</ele>
        <time>2018-01-21T14:55:48.000Z</time>
      </trkpt>
      <trkpt lat="47.57018" lon="-3.10055">
        <ele>6.3</ele>
        <time>2018-01-21T14:55:49.000Z</time>
      </trkpt>
      <trkpt lat="47.57018" lon="-3.10055">
        <ele>6.3</ele>
        <time>2018-01-21T14:55:50.000Z</time>
      </trkpt>
      <trkpt lat="47.57018" lon="-3.10055">
        <ele>6.3</ele>
        <time>2018-01-21T14:55:51.000Z</time>
      </trkpt>
      <trkpt lat="47.57018" lon="-3.10055">
        <ele>6.3</ele>
        <time>2018-01-21T14:55:52.000Z</time>
      </trkpt>
      <trkpt lat="47.57018" lon="-3.10055">
        <ele>6.3</ele>
        <time>2018-01-21T14:55:53.000Z</time>
      </trkpt>
      <trkpt lat="47.57018" lon="-3.10055">
        <ele>6.3</ele>
        <time>2018-01-21T14:55:54.000Z</time>
      </trkpt>
      <trkpt lat="47.57018" lon="-3.10055">
        <ele>6.3</ele>
        <time>2018-01-21T14:55:55.000Z</time>
      </trkpt>
      <trkpt lat="47.57018" lon="-3.10055">
        <ele>6.3</ele>
        <time>2018-01-21T14:55:56.000Z</time>
      </trkpt>
      <trkpt lat="47.57018" lon="-3.10055">
        <ele>6.3</ele>
        <time>2018-01-21T14:55:57.000Z</time>
      </trkpt>
      <trkpt lat="47.57018" lon="-3.10055">
        <ele>6.3</ele>
        <time>2018-01-21T14:55:58.000Z</time>
      </trkpt>
      <trkpt lat="47.57018" lon="-3.10055">
        <ele>6.3</ele>
        <time>2018-01-21T14:55:59.000Z</time>
      </trkpt>
      <trkpt lat="47.57018" lon="-3.10055">
        <ele>6.3</ele>
        <time>2018-01-21T14:56:00.000Z</time>
      </trkpt>
      <trkpt lat="47.57018" lon="-3.10055">
        <ele>6.3</ele>
        <time>2018-01-21T14:56:01.000Z</time>
      </trkpt>
      <trkpt lat="47.57018" lon="-3.10055">
        <ele>6.3</ele>
        <time>2018-01-21T14:56:02.000Z</time>
      </trkpt>
      <trkpt lat="47.57018" lon="-3.10055">
        <ele>6.3</ele>
        <time>2018-01-21T14:56:03.000Z</time>
      </trkpt>
      <trkpt lat="47.57021" lon="-3.10042">
        <ele>6</ele>
        <time>2018-01-21T14:56:04.000Z</time>
      </trkpt>
      <trkpt lat="47.57021" lon="-3.1004">
        <ele>5.9</ele>
        <time>2018-01-21T14:56:05.000Z</time>
      </trkpt>
      <trkpt lat="47.57021" lon="-3.10038">
        <ele>5.9</ele>
        <time>2018-01-21T14:56:06.000Z</time>
      </trkpt>
      <trkpt lat="47.57021" lon="-3.10036">
        <ele>5.7</ele>
        <time>2018-01-21T14:56:07.000Z</time>
      </trkpt>
      <trkpt lat="47.57021" lon="-3.10035">
        <ele>5.7</ele>
        <time>2018-01-21T14:56:08.000Z</time>
      </trkpt>
      <trkpt lat="47.57022" lon="-3.10033">
        <ele>5.6</ele>
        <time>2018-01-21T14:56:09.000Z</time>
      </trkpt>
      <trkpt lat="47.57022" lon="-3.10032">
        <ele>5.5</ele>
        <time>2018-01-21T14:56:10.000Z</time>
      </trkpt>
      <trkpt lat="47.57022" lon="-3.1003">
        <ele>5.5</ele>
        <time>2018-01-21T14:56:11.000Z</time>
      </trkpt>
      <trkpt lat="47.57022" lon="-3.1003">
        <ele>5.5</ele>
        <time>2018-01-21T14:56:12.000Z</time>
      </trkpt>
      <trkpt lat="47.57022" lon="-3.1003">
        <ele>5.5</ele>
        <time>2018-01-21T14:56:13.000Z</time>
      </trkpt>
      <trkpt lat="47.57022" lon="-3.1003">
        <ele>5.5</ele>
        <time>2018-01-21T14:56:14.000Z</time>
      </trkpt>
      <trkpt lat="47.57021" lon="-3.10024">
        <ele>5.3</ele>
        <time>2018-01-21T14:56:15.000Z</time>
      </trkpt>
      <trkpt lat="47.57021" lon="-3.10022">
        <ele>5.3</ele>
        <time>2018-01-21T14:56:16.000Z</time>
      </trkpt>
      <trkpt lat="47.5702" lon="-3.1002">
        <ele>5.2</ele>
        <time>2018-01-21T14:56:17.000Z</time>
      </trkpt>
      <trkpt lat="47.57019" lon="-3.10018">
        <ele>5.2</ele>
        <time>2018-01-21T14:56:18.000Z</time>
      </trkpt>
      <trkpt lat="47.57019" lon="-3.10016">
        <ele>5.2</ele>
        <time>2018-01-21T14:56:19.000Z</time>
      </trkpt>
      <trkpt lat="47.57018" lon="-3.10015">
        <ele>5.1</ele>
        <time>2018-01-21T14:56:20.000Z</time>
      </trkpt>
      <trkpt lat="47.57017" lon="-3.10014">
        <ele>5.1</ele>
        <time>2018-01-21T14:56:21.000Z</time>
      </trkpt>
      <trkpt lat="47.57017" lon="-3.10014">
        <ele>5</ele>
        <time>2018-01-21T14:56:22.000Z</time>
      </trkpt>
      <trkpt lat="47.57017" lon="-3.10014">
        <ele>5</ele>
        <time>2018-01-21T14:56:23.000Z</time>
      </trkpt>
      <trkpt lat="47.57017" lon="-3.10014">
        <ele>5</ele>
        <time>2018-01-21T14:56:24.000Z</time>
      </trkpt>
      <trkpt lat="47.57017" lon="-3.10014">
        <ele>5</ele>
        <time>2018-01-21T14:56:25.000Z</time>
      </trkpt>
      <trkpt lat="47.57017" lon="-3.10014">
        <ele>5</ele>
        <time>2018-01-21T14:56:26.000Z</time>
      </trkpt>
      <trkpt lat="47.57017" lon="-3.10014">
        <ele>5</ele>
        <time>2018-01-21T14:56:27.000Z</time>
      </trkpt>
      <trkpt lat="47.57017" lon="-3.10014">
        <ele>5</ele>
        <time>2018-01-21T14:56:28.000Z</time>
      </trkpt>
      <trkpt lat="47.57017" lon="-3.10014">
        <ele>5</ele>
        <time>2018-01-21T14:56:29.000Z</time>
      </trkpt>
      <trkpt lat="47.57017" lon="-3.10014">
        <ele>5</ele>
        <time>2018-01-21T14:56:30.000Z</time>
      </trkpt>
      <trkpt lat="47.57017" lon="-3.10014">
        <ele>5</ele>
        <time>2018-01-21T14:56:31.000Z</time>
      </trkpt>
      <trkpt lat="47.57017" lon="-3.10014">
        <ele>5</ele>
        <time>2018-01-21T14:56:32.000Z</time>
      </trkpt>
      <trkpt lat="47.57017" lon="-3.10014">
        <ele>5</ele>
        <time>2018-01-21T14:56:33.000Z</time>
      </trkpt>
      <trkpt lat="47.57017" lon="-3.10014">
        <ele>5</ele>
        <time>2018-01-21T14:56:34.000Z</time>
      </trkpt>
      <trkpt lat="47.57017" lon="-3.10014">
        <ele>5</ele>
        <time>2018-01-21T14:56:35.000Z</time>
      </trkpt>
      <trkpt lat="47.57017" lon="-3.10014">
        <ele>5</ele>
        <time>2018-01-21T14:56:36.000Z</time>
      </trkpt>
      <trkpt lat="47.57017" lon="-3.10014">
        <ele>5</ele>
        <time>2018-01-21T14:56:37.000Z</time>
      </trkpt>
      <trkpt lat="47.57017" lon="-3.10014">
        <ele>5</ele>
        <time>2018-01-21T14:56:38.000Z</time>
      </trkpt>
      <trkpt lat="47.57017" lon="-3.10014">
        <ele>5</ele>
        <time>2018-01-21T14:56:39.000Z</time>
      </trkpt>
      <trkpt lat="47.57017" lon="-3.10014">
        <ele>5</ele>
        <time>2018-01-21T14:56:40.000Z</time>
      </trkpt>
      <trkpt lat="47.57017" lon="-3.10014">
        <ele>5</ele>
        <time>2018-01-21T14:56:41.000Z</time>
      </trkpt>
      <trkpt lat="47.57017" lon="-3.10014">
        <ele>5</ele>
        <time>2018-01-21T14:56:42.000Z</time>
      </trkpt>
      <trkpt lat="47.57017" lon="-3.10014">
        <ele>5</ele>
        <time>2018-01-21T14:56:43.000Z</time>
      </trkpt>
      <trkpt lat="47.57017" lon="-3.10014">
        <ele>5</ele>
        <time>2018-01-21T14:56:44.000Z</time>
      </trkpt>
      <trkpt lat="47.57017" lon="-3.10014">
        <ele>5</ele>
        <time>2018-01-21T14:56:45.000Z</time>
      </trkpt>
      <trkpt lat="47.57017" lon="-3.10014">
        <ele>5</ele>
        <time>2018-01-21T14:56:46.000Z</time>
      </trkpt>
      <trkpt lat="47.57017" lon="-3.10014">
        <ele>5</ele>
        <time>2018-01-21T14:56:47.000Z</time>
      </trkpt>
      <trkpt lat="47.57017" lon="-3.10014">
        <ele>5</ele>
        <time>2018-01-21T14:56:48.000Z</time>
      </trkpt>
      <trkpt lat="47.57017" lon="-3.10014">
        <ele>5</ele>
        <time>2018-01-21T14:56:49.000Z</time>
      </trkpt>
      <trkpt lat="47.57017" lon="-3.10014">
        <ele>5</ele>
        <time>2018-01-21T14:56:50.000Z</time>
      </trkpt>
      <trkpt lat="47.57017" lon="-3.10014">
        <ele>5</ele>
        <time>2018-01-21T14:56:51.000Z</time>
      </trkpt>
      <trkpt lat="47.57017" lon="-3.10014">
        <ele>5</ele>
        <time>2018-01-21T14:56:52.000Z</time>
      </trkpt>
      <trkpt lat="47.57017" lon="-3.10014">
        <ele>5</ele>
        <time>2018-01-21T14:56:53.000Z</time>
      </trkpt>
      <trkpt lat="47.57017" lon="-3.10014">
        <ele>5</ele>
        <time>2018-01-21T14:56:54.000Z</time>
      </trkpt>
      <trkpt lat="47.57017" lon="-3.10014">
        <ele>5</ele>
        <time>2018-01-21T14:56:55.000Z</time>
      </trkpt>
      <trkpt lat="47.57017" lon="-3.10014">
        <ele>5</ele>
        <time>2018-01-21T14:56:56.000Z</time>
      </trkpt>
      <trkpt lat="47.57017" lon="-3.10014">
        <ele>5</ele>
        <time>2018-01-21T14:56:57.000Z</time>
      </trkpt>
      <trkpt lat="47.57017" lon="-3.10014">
        <ele>5</ele>
        <time>2018-01-21T14:56:58.000Z</time>
      </trkpt>
      <trkpt lat="47.57017" lon="-3.10014">
        <ele>5</ele>
        <time>2018-01-21T14:56:59.000Z</time>
      </trkpt>
      <trkpt lat="47.57017" lon="-3.10014">
        <ele>5</ele>
        <time>2018-01-21T14:57:00.000Z</time>
      </trkpt>
      <trkpt lat="47.57017" lon="-3.10014">
        <ele>5</ele>
        <time>2018-01-21T14:57:01.000Z</time>
      </trkpt>
      <trkpt lat="47.57012" lon="-3.10026">
        <ele>4.4</ele>
        <time>2018-01-21T14:57:02.000Z</time>
      </trkpt>
      <trkpt lat="47.57014" lon="-3.10027">
        <ele>4.5</ele>
        <time>2018-01-21T14:57:03.000Z</time>
      </trkpt>
      <trkpt lat="47.57015" lon="-3.10027">
        <ele>4.6</ele>
        <time>2018-01-21T14:57:04.000Z</time>
      </trkpt>
      <trkpt lat="47.57015" lon="-3.10028">
        <ele>4.6</ele>
        <time>2018-01-21T14:57:05.000Z</time>
      </trkpt>
      <trkpt lat="47.57015" lon="-3.10028">
        <ele>4.6</ele>
        <time>2018-01-21T14:57:06.000Z</time>
      </trkpt>
      <trkpt lat="47.57012" lon="-3.10012">
        <ele>4.6</ele>
        <time>2018-01-21T14:57:07.000Z</time>
      </trkpt>
      <trkpt lat="47.57017" lon="-3.09996">
        <ele>5.3</ele>
        <time>2018-01-21T14:57:08.000Z</time>
      </trkpt>
      <trkpt lat="47.57021" lon="-3.09988">
        <ele>5.7</ele>
        <time>2018-01-21T14:57:09.000Z</time>
      </trkpt>
      <trkpt lat="47.57025" lon="-3.09984">
        <ele>5.9</ele>
        <time>2018-01-21T14:57:10.000Z</time>
      </trkpt>
      <trkpt lat="47.57025" lon="-3.09984">
        <ele>5.9</ele>
        <time>2018-01-21T14:57:11.000Z</time>
      </trkpt>
      <trkpt lat="47.57025" lon="-3.09984">
        <ele>5.9</ele>
        <time>2018-01-21T14:57:12.000Z</time>
      </trkpt>
      <trkpt lat="47.57025" lon="-3.09984">
        <ele>5.9</ele>
        <time>2018-01-21T14:57:13.000Z</time>
      </trkpt>
      <trkpt lat="47.57025" lon="-3.09984">
        <ele>5.9</ele>
        <time>2018-01-21T14:57:14.000Z</time>
      </trkpt>
      <trkpt lat="47.57034" lon="-3.09981">
        <ele>6.1</ele>
        <time>2018-01-21T14:57:15.000Z</time>
      </trkpt>
      <trkpt lat="47.57035" lon="-3.09982">
        <ele>6.1</ele>
        <time>2018-01-21T14:57:16.000Z</time>
      </trkpt>
      <trkpt lat="47.57034" lon="-3.09986">
        <ele>6.1</ele>
        <time>2018-01-21T14:57:17.000Z</time>
      </trkpt>
      <trkpt lat="47.57032" lon="-3.09989">
        <ele>6.1</ele>
        <time>2018-01-21T14:57:18.000Z</time>
      </trkpt>
      <trkpt lat="47.5703" lon="-3.09992">
        <ele>6.1</ele>
        <time>2018-01-21T14:57:19.000Z</time>
      </trkpt>
      <trkpt lat="47.57028" lon="-3.09996">
        <ele>6</ele>
        <time>2018-01-21T14:57:20.000Z</time>
      </trkpt>
      <trkpt lat="47.57027" lon="-3.1">
        <ele>6</ele>
        <time>2018-01-21T14:57:21.000Z</time>
      </trkpt>
      <trkpt lat="47.57026" lon="-3.10006">
        <ele>5.8</ele>
        <time>2018-01-21T14:57:22.000Z</time>
      </trkpt>
      <trkpt lat="47.57025" lon="-3.10009">
        <ele>5.7</ele>
        <time>2018-01-21T14:57:23.000Z</time>
      </trkpt>
      <trkpt lat="47.57023" lon="-3.10013">
        <ele>5.6</ele>
        <time>2018-01-21T14:57:24.000Z</time>
      </trkpt>
      <trkpt lat="47.57022" lon="-3.10016">
        <ele>5.5</ele>
        <time>2018-01-21T14:57:25.000Z</time>
      </trkpt>
      <trkpt lat="47.57021" lon="-3.1002">
        <ele>5.4</ele>
        <time>2018-01-21T14:57:26.000Z</time>
      </trkpt>
      <trkpt lat="47.5702" lon="-3.10023">
        <ele>5.2</ele>
        <time>2018-01-21T14:57:27.000Z</time>
      </trkpt>
      <trkpt lat="47.57018" lon="-3.10027">
        <ele>5</ele>
        <time>2018-01-21T14:57:28.000Z</time>
      </trkpt>
      <trkpt lat="47.57016" lon="-3.10032">
        <ele>5</ele>
        <time>2018-01-21T14:57:29.000Z</time>
      </trkpt>
      <trkpt lat="47.57015" lon="-3.10035">
        <ele>4.9</ele>
        <time>2018-01-21T14:57:30.000Z</time>
      </trkpt>
      <trkpt lat="47.57013" lon="-3.10038">
        <ele>4.8</ele>
        <time>2018-01-21T14:57:31.000Z</time>
      </trkpt>
      <trkpt lat="47.57011" lon="-3.10045">
        <ele>4.7</ele>
        <time>2018-01-21T14:57:32.000Z</time>
      </trkpt>
      <trkpt lat="47.57009" lon="-3.10051">
        <ele>4.4</ele>
        <time>2018-01-21T14:57:33.000Z</time>
      </trkpt>
      <trkpt lat="47.57007" lon="-3.10053">
        <ele>4.2</ele>
        <time>2018-01-21T14:57:34.000Z</time>
      </trkpt>
      <trkpt lat="47.57006" lon="-3.10055">
        <ele>4</ele>
        <time>2018-01-21T14:57:35.000Z</time>
      </trkpt>
      <trkpt lat="47.57004" lon="-3.10056">
        <ele>3.8</ele>
        <time>2018-01-21T14:57:36.000Z</time>
      </trkpt>
      <trkpt lat="47.57003" lon="-3.10056">
        <ele>3.6</ele>
        <time>2018-01-21T14:57:37.000Z</time>
      </trkpt>
      <trkpt lat="47.57002" lon="-3.10057">
        <ele>3.4</ele>
        <time>2018-01-21T14:57:38.000Z</time>
      </trkpt>
      <trkpt lat="47.57" lon="-3.10058">
        <ele>3</ele>
        <time>2018-01-21T14:57:39.000Z</time>
      </trkpt>
      <trkpt lat="47.56999" lon="-3.10059">
        <ele>3</ele>
        <time>2018-01-21T14:57:40.000Z</time>
      </trkpt>
      <trkpt lat="47.56999" lon="-3.10061">
        <ele>3</ele>
        <time>2018-01-21T14:57:41.000Z</time>
      </trkpt>
      <trkpt lat="47.56998" lon="-3.10062">
        <ele>3</ele>
        <time>2018-01-21T14:57:42.000Z</time>
      </trkpt>
      <trkpt lat="47.56998" lon="-3.10063">
        <ele>3</ele>
        <time>2018-01-21T14:57:43.000Z</time>
      </trkpt>
      <trkpt lat="47.56997" lon="-3.10065">
        <ele>3</ele>
        <time>2018-01-21T14:57:44.000Z</time>
      </trkpt>
      <trkpt lat="47.56997" lon="-3.10065">
        <ele>3</ele>
        <time>2018-01-21T14:57:45.000Z</time>
      </trkpt>
      <trkpt lat="47.56997" lon="-3.10065">
        <ele>3</ele>
        <time>2018-01-21T14:57:46.000Z</time>
      </trkpt>
      <trkpt lat="47.56997" lon="-3.10065">
        <ele>3</ele>
        <time>2018-01-21T14:57:47.000Z</time>
      </trkpt>
      <trkpt lat="47.5699" lon="-3.10079">
        <ele>3</ele>
        <time>2018-01-21T14:57:48.000Z</time>
      </trkpt>
      <trkpt lat="47.5699" lon="-3.10081">
        <ele>3</ele>
        <time>2018-01-21T14:57:49.000Z</time>
      </trkpt>
      <trkpt lat="47.56989" lon="-3.10084">
        <ele>3.1</ele>
        <time>2018-01-21T14:57:50.000Z</time>
      </trkpt>
      <trkpt lat="47.5699" lon="-3.10084">
        <ele>3</ele>
        <time>2018-01-21T14:57:51.000Z</time>
      </trkpt>
      <trkpt lat="47.5699" lon="-3.10084">
        <ele>3</ele>
        <time>2018-01-21T14:57:52.000Z</time>
      </trkpt>
      <trkpt lat="47.5699" lon="-3.10084">
        <ele>3</ele>
        <time>2018-01-21T14:57:53.000Z</time>
      </trkpt>
      <trkpt lat="47.56988" lon="-3.10086">
        <ele>3.2</ele>
        <time>2018-01-21T14:57:54.000Z</time>
      </trkpt>
      <trkpt lat="47.56986" lon="-3.10087">
        <ele>3.2</ele>
        <time>2018-01-21T14:57:55.000Z</time>
      </trkpt>
      <trkpt lat="47.56985" lon="-3.10087">
        <ele>3.3</ele>
        <time>2018-01-21T14:57:56.000Z</time>
      </trkpt>
      <trkpt lat="47.56984" lon="-3.10088">
        <ele>3.3</ele>
        <time>2018-01-21T14:57:57.000Z</time>
      </trkpt>
      <trkpt lat="47.56982" lon="-3.10088">
        <ele>3.4</ele>
        <time>2018-01-21T14:57:58.000Z</time>
      </trkpt>
      <trkpt lat="47.56981" lon="-3.10089">
        <ele>3.4</ele>
        <time>2018-01-21T14:57:59.000Z</time>
      </trkpt>
      <trkpt lat="47.56979" lon="-3.10089">
        <ele>3.4</ele>
        <time>2018-01-21T14:58:00.000Z</time>
      </trkpt>
      <trkpt lat="47.56978" lon="-3.10089">
        <ele>3.4</ele>
        <time>2018-01-21T14:58:01.000Z</time>
      </trkpt>
      <trkpt lat="47.56977" lon="-3.10089">
        <ele>3.4</ele>
        <time>2018-01-21T14:58:02.000Z</time>
      </trkpt>
      <trkpt lat="47.56976" lon="-3.10089">
        <ele>3.4</ele>
        <time>2018-01-21T14:58:03.000Z</time>
      </trkpt>
      <trkpt lat="47.56974" lon="-3.10089">
        <ele>3.4</ele>
        <time>2018-01-21T14:58:04.000Z</time>
      </trkpt>
      <trkpt lat="47.56973" lon="-3.1009">
        <ele>3.5</ele>
        <time>2018-01-21T14:58:05.000Z</time>
      </trkpt>
      <trkpt lat="47.56972" lon="-3.1009">
        <time>2018-01-21T14:58:06.000Z</time>
      </trkpt>
      <trkpt lat="47.56971" lon="-3.1009">
        <time>2018-01-21T14:58:07.000Z</time>
      </trkpt>
      <trkpt lat="47.56969" lon="-3.1009">
        <time>2018-01-21T14:58:08.000Z</time>
      </trkpt>
      <trkpt lat="47.56969" lon="-3.1009">
        <time>2018-01-21T14:58:09.000Z</time>
      </trkpt>
      <trkpt lat="47.5697" lon="-3.1009">
        <time>2018-01-21T14:58:10.000Z</time>
      </trkpt>
      <trkpt lat="47.5697" lon="-3.1009">
        <time>2018-01-21T14:58:11.000Z</time>
      </trkpt>
      <trkpt lat="47.5697" lon="-3.1009">
        <time>2018-01-21T14:58:12.000Z</time>
      </trkpt>
      <trkpt lat="47.5697" lon="-3.1009">
        <time>2018-01-21T14:58:13.000Z</time>
      </trkpt>
      <trkpt lat="47.5697" lon="-3.1009">
        <time>2018-01-21T14:58:14.000Z</time>
      </trkpt>
      <trkpt lat="47.5697" lon="-3.1009">
        <time>2018-01-21T14:58:15.000Z</time>
      </trkpt>
      <trkpt lat="47.5697" lon="-3.1009">
        <time>2018-01-21T14:58:16.000Z</time>
      </trkpt>
      <trkpt lat="47.5697" lon="-3.1009">
        <time>2018-01-21T14:58:17.000Z</time>
      </trkpt>
      <trkpt lat="47.5697" lon="-3.1009">
        <time>2018-01-21T14:58:18.000Z</time>
      </trkpt>
      <trkpt lat="47.5697" lon="-3.1009">
        <time>2018-01-21T14:58:19.000Z</time>
      </trkpt>
      <trkpt lat="47.56973" lon="-3.10085">
        <ele>3.1</ele>
        <time>2018-01-21T14:58:20.000Z</time>
      </trkpt>
      <trkpt lat="47.56974" lon="-3.10084">
        <ele>3.1</ele>
        <time>2018-01-21T14:58:21.000Z</time>
      </trkpt>
      <trkpt lat="47.56975" lon="-3.10084">
        <ele>3</ele>
        <time>2018-01-21T14:58:22.000Z</time>
      </trkpt>
      <trkpt lat="47.56975" lon="-3.10083">
        <ele>3</ele>
        <time>2018-01-21T14:58:23.000Z</time>
      </trkpt>
      <trkpt lat="47.56976" lon="-3.10082">
        <ele>3</ele>
        <time>2018-01-21T14:58:24.000Z</time>
      </trkpt>
      <trkpt lat="47.56977" lon="-3.10081">
        <ele>3</ele>
        <time>2018-01-21T14:58:25.000Z</time>
      </trkpt>
      <trkpt lat="47.56978" lon="-3.1008">
        <ele>3</ele>
        <time>2018-01-21T14:58:26.000Z</time>
      </trkpt>
      <trkpt lat="47.56979" lon="-3.1008">
        <ele>3</ele>
        <time>2018-01-21T14:58:27.000Z</time>
      </trkpt>
      <trkpt lat="47.5698" lon="-3.10079">
        <ele>3</ele>
        <time>2018-01-21T14:58:28.000Z</time>
      </trkpt>
      <trkpt lat="47.56981" lon="-3.10079">
        <ele>3</ele>
        <time>2018-01-21T14:58:29.000Z</time>
      </trkpt>
      <trkpt lat="47.56982" lon="-3.10078">
        <ele>3</ele>
        <time>2018-01-21T14:58:30.000Z</time>
      </trkpt>
      <trkpt lat="47.56983" lon="-3.10078">
        <ele>3</ele>
        <time>2018-01-21T14:58:31.000Z</time>
      </trkpt>
      <trkpt lat="47.56983" lon="-3.10078">
        <ele>3</ele>
        <time>2018-01-21T14:58:32.000Z</time>
      </trkpt>
      <trkpt lat="47.56984" lon="-3.10077">
        <ele>3</ele>
        <time>2018-01-21T14:58:33.000Z</time>
      </trkpt>
      <trkpt lat="47.56985" lon="-3.10077">
        <ele>3</ele>
        <time>2018-01-21T14:58:34.000Z</time>
      </trkpt>
      <trkpt lat="47.56986" lon="-3.10076">
        <ele>3</ele>
        <time>2018-01-21T14:58:35.000Z</time>
      </trkpt>
      <trkpt lat="47.56986" lon="-3.10076">
        <ele>3</ele>
        <time>2018-01-21T14:58:36.000Z</time>
      </trkpt>
      <trkpt lat="47.56986" lon="-3.10076">
        <ele>3</ele>
        <time>2018-01-21T14:58:37.000Z</time>
      </trkpt>
      <trkpt lat="47.56989" lon="-3.10073">
        <ele>3</ele>
        <time>2018-01-21T14:58:38.000Z</time>
      </trkpt>
      <trkpt lat="47.56992" lon="-3.10072">
        <ele>3</ele>
        <time>2018-01-21T14:58:39.000Z</time>
      </trkpt>
      <trkpt lat="47.56993" lon="-3.10073">
        <ele>3</ele>
        <time>2018-01-21T14:58:40.000Z</time>
      </trkpt>
      <trkpt lat="47.56994" lon="-3.10075">
        <ele>3</ele>
        <time>2018-01-21T14:58:41.000Z</time>
      </trkpt>
      <trkpt lat="47.56995" lon="-3.10077">
        <ele>3</ele>
        <time>2018-01-21T14:58:42.000Z</time>
      </trkpt>
      <trkpt lat="47.56997" lon="-3.10079">
        <ele>3</ele>
        <time>2018-01-21T14:58:43.000Z</time>
      </trkpt>
      <trkpt lat="47.56999" lon="-3.1008">
        <ele>3</ele>
        <time>2018-01-21T14:58:44.000Z</time>
      </trkpt>
      <trkpt lat="47.56999" lon="-3.1008">
        <ele>3</ele>
        <time>2018-01-21T14:58:45.000Z</time>
      </trkpt>
      <trkpt lat="47.57001" lon="-3.1008">
        <ele>3.2</ele>
        <time>2018-01-21T14:58:46.000Z</time>
      </trkpt>
      <trkpt lat="47.57001" lon="-3.1008">
        <ele>3.2</ele>
        <time>2018-01-21T14:58:47.000Z</time>
      </trkpt>
      <trkpt lat="47.57001" lon="-3.1008">
        <ele>3.2</ele>
        <time>2018-01-21T14:58:48.000Z</time>
      </trkpt>
      <trkpt lat="47.57004" lon="-3.10079">
        <ele>3.9</ele>
        <time>2018-01-21T14:58:49.000Z</time>
      </trkpt>
      <trkpt lat="47.57005" lon="-3.10076">
        <ele>4.1</ele>
        <time>2018-01-21T14:58:50.000Z</time>
      </trkpt>
      <trkpt lat="47.57005" lon="-3.10077">
        <ele>4.2</ele>
        <time>2018-01-21T14:58:51.000Z</time>
      </trkpt>
      <trkpt lat="47.57006" lon="-3.10075">
        <ele>4.5</ele>
        <time>2018-01-21T14:58:52.000Z</time>
      </trkpt>
      <trkpt lat="47.57008" lon="-3.10073">
        <ele>4.8</ele>
        <time>2018-01-21T14:58:53.000Z</time>
      </trkpt>
      <trkpt lat="47.5701" lon="-3.10071">
        <ele>5.1</ele>
        <time>2018-01-21T14:58:54.000Z</time>
      </trkpt>
      <trkpt lat="47.57011" lon="-3.10071">
        <ele>5.4</ele>
        <time>2018-01-21T14:58:55.000Z</time>
      </trkpt>
      <trkpt lat="47.57012" lon="-3.10071">
        <ele>5.6</ele>
        <time>2018-01-21T14:58:56.000Z</time>
      </trkpt>
      <trkpt lat="47.57013" lon="-3.10072">
        <ele>5.8</ele>
        <time>2018-01-21T14:58:57.000Z</time>
      </trkpt>
      <trkpt lat="47.57013" lon="-3.10072">
        <ele>5.8</ele>
        <time>2018-01-21T14:58:58.000Z</time>
      </trkpt>
      <trkpt lat="47.57013" lon="-3.10072">
        <ele>5.8</ele>
        <time>2018-01-21T14:58:59.000Z</time>
      </trkpt>
      <trkpt lat="47.57013" lon="-3.10072">
        <ele>5.8</ele>
        <time>2018-01-21T14:59:00.000Z</time>
      </trkpt>
      <trkpt lat="47.57013" lon="-3.10072">
        <ele>5.8</ele>
        <time>2018-01-21T14:59:01.000Z</time>
      </trkpt>
      <trkpt lat="47.57013" lon="-3.10072">
        <ele>5.8</ele>
        <time>2018-01-21T14:59:02.000Z</time>
      </trkpt>
      <trkpt lat="47.57013" lon="-3.10072">
        <ele>5.8</ele>
        <time>2018-01-21T14:59:03.000Z</time>
      </trkpt>
      <trkpt lat="47.57013" lon="-3.10072">
        <ele>5.8</ele>
        <time>2018-01-21T14:59:04.000Z</time>
      </trkpt>
      <trkpt lat="47.57013" lon="-3.10072">
        <ele>5.8</ele>
        <time>2018-01-21T14:59:05.000Z</time>
      </trkpt>
      <trkpt lat="47.57013" lon="-3.10072">
        <ele>5.8</ele>
        <time>2018-01-21T14:59:06.000Z</time>
      </trkpt>
      <trkpt lat="47.5702" lon="-3.10068">
        <ele>7.2</ele>
        <time>2018-01-21T14:59:07.000Z</time>
      </trkpt>
      <trkpt lat="47.5702" lon="-3.10064">
        <ele>7</ele>
        <time>2018-01-21T14:59:08.000Z</time>
      </trkpt>
      <trkpt lat="47.5702" lon="-3.10061">
        <ele>6.8</ele>
        <time>2018-01-21T14:59:09.000Z</time>
      </trkpt>
      <trkpt lat="47.5702" lon="-3.10057">
        <ele>6.6</ele>
        <time>2018-01-21T14:59:10.000Z</time>
      </trkpt>
      <trkpt lat="47.5702" lon="-3.10054">
        <ele>6.4</ele>
        <time>2018-01-21T14:59:11.000Z</time>
      </trkpt>
      <trkpt lat="47.5702" lon="-3.10051">
        <ele>6.3</ele>
        <time>2018-01-21T14:59:12.000Z</time>
      </trkpt>
      <trkpt lat="47.5702" lon="-3.10047">
        <ele>6.1</ele>
        <time>2018-01-21T14:59:13.000Z</time>
      </trkpt>
      <trkpt lat="47.5702" lon="-3.10044">
        <ele>6</ele>
        <time>2018-01-21T14:59:14.000Z</time>
      </trkpt>
      <trkpt lat="47.5702" lon="-3.10042">
        <ele>5.9</ele>
        <time>2018-01-21T14:59:15.000Z</time>
      </trkpt>
      <trkpt lat="47.5702" lon="-3.1004">
        <ele>5.8</ele>
        <time>2018-01-21T14:59:16.000Z</time>
      </trkpt>
      <trkpt lat="47.5702" lon="-3.10039">
        <ele>5.7</ele>
        <time>2018-01-21T14:59:17.000Z</time>
      </trkpt>
      <trkpt lat="47.5702" lon="-3.10037">
        <ele>5.7</ele>
        <time>2018-01-21T14:59:18.000Z</time>
      </trkpt>
      <trkpt lat="47.5702" lon="-3.10037">
        <ele>5.7</ele>
        <time>2018-01-21T14:59:19.000Z</time>
      </trkpt>
      <trkpt lat="47.5702" lon="-3.10037">
        <ele>5.7</ele>
        <time>2018-01-21T14:59:20.000Z</time>
      </trkpt>
      <trkpt lat="47.5702" lon="-3.10037">
        <ele>5.7</ele>
        <time>2018-01-21T14:59:21.000Z</time>
      </trkpt>
      <trkpt lat="47.5702" lon="-3.10037">
        <ele>5.7</ele>
        <time>2018-01-21T14:59:22.000Z</time>
      </trkpt>
      <trkpt lat="47.5702" lon="-3.10037">
        <ele>5.7</ele>
        <time>2018-01-21T14:59:23.000Z</time>
      </trkpt>
      <trkpt lat="47.5702" lon="-3.10037">
        <ele>5.7</ele>
        <time>2018-01-21T14:59:24.000Z</time>
      </trkpt>
      <trkpt lat="47.5702" lon="-3.10037">
        <ele>5.7</ele>
        <time>2018-01-21T14:59:25.000Z</time>
      </trkpt>
      <trkpt lat="47.57019" lon="-3.10023">
        <ele>5.1</ele>
        <time>2018-01-21T14:59:26.000Z</time>
      </trkpt>
      <trkpt lat="47.57019" lon="-3.1002">
        <ele>5.1</ele>
        <time>2018-01-21T14:59:27.000Z</time>
      </trkpt>
      <trkpt lat="47.57018" lon="-3.10019">
        <ele>5.1</ele>
        <time>2018-01-21T14:59:28.000Z</time>
      </trkpt>
      <trkpt lat="47.57018" lon="-3.10018">
        <ele>5.1</ele>
        <time>2018-01-21T14:59:29.000Z</time>
      </trkpt>
      <trkpt lat="47.57018" lon="-3.10016">
        <ele>5</ele>
        <time>2018-01-21T14:59:30.000Z</time>
      </trkpt>
      <trkpt lat="47.57017" lon="-3.10013">
        <ele>5</ele>
        <time>2018-01-21T14:59:31.000Z</time>
      </trkpt>
      <trkpt lat="47.57015" lon="-3.10011">
        <ele>4.9</ele>
        <time>2018-01-21T14:59:32.000Z</time>
      </trkpt>
      <trkpt lat="47.57014" lon="-3.1001">
        <ele>4.9</ele>
        <time>2018-01-21T14:59:33.000Z</time>
      </trkpt>
      <trkpt lat="47.57014" lon="-3.10009">
        <ele>4.8</ele>
        <time>2018-01-21T14:59:34.000Z</time>
      </trkpt>
      <trkpt lat="47.57013" lon="-3.10009">
        <ele>4.8</ele>
        <time>2018-01-21T14:59:35.000Z</time>
      </trkpt>
      <trkpt lat="47.57013" lon="-3.10009">
        <ele>4.8</ele>
        <time>2018-01-21T14:59:36.000Z</time>
      </trkpt>
      <trkpt lat="47.57013" lon="-3.10009">
        <ele>4.8</ele>
        <time>2018-01-21T14:59:37.000Z</time>
      </trkpt>
      <trkpt lat="47.57013" lon="-3.10009">
        <ele>4.8</ele>
        <time>2018-01-21T14:59:38.000Z</time>
      </trkpt>
      <trkpt lat="47.57013" lon="-3.10009">
        <ele>4.8</ele>
        <time>2018-01-21T14:59:39.000Z</time>
      </trkpt>
      <trkpt lat="47.57013" lon="-3.10009">
        <ele>4.8</ele>
        <time>2018-01-21T14:59:40.000Z</time>
      </trkpt>
      <trkpt lat="47.57013" lon="-3.10009">
        <ele>4.8</ele>
        <time>2018-01-21T14:59:41.000Z</time>
      </trkpt>
      <trkpt lat="47.57013" lon="-3.10009">
        <ele>4.8</ele>
        <time>2018-01-21T14:59:42.000Z</time>
      </trkpt>
      <trkpt lat="47.57013" lon="-3.10009">
        <ele>4.8</ele>
        <time>2018-01-21T14:59:43.000Z</time>
      </trkpt>
      <trkpt lat="47.57013" lon="-3.10009">
        <ele>4.8</ele>
        <time>2018-01-21T14:59:44.000Z</time>
      </trkpt>
      <trkpt lat="47.57013" lon="-3.10009">
        <ele>4.8</ele>
        <time>2018-01-21T14:59:45.000Z</time>
      </trkpt>
      <trkpt lat="47.57013" lon="-3.10009">
        <ele>4.8</ele>
        <time>2018-01-21T14:59:46.000Z</time>
      </trkpt>
      <trkpt lat="47.57013" lon="-3.10009">
        <ele>4.8</ele>
        <time>2018-01-21T14:59:47.000Z</time>
      </trkpt>
      <trkpt lat="47.57013" lon="-3.10009">
        <ele>4.8</ele>
        <time>2018-01-21T14:59:48.000Z</time>
      </trkpt>
      <trkpt lat="47.57013" lon="-3.10009">
        <ele>4.8</ele>
        <time>2018-01-21T14:59:49.000Z</time>
      </trkpt>
      <trkpt lat="47.57013" lon="-3.10009">
        <ele>4.8</ele>
        <time>2018-01-21T14:59:50.000Z</time>
      </trkpt>
      <trkpt lat="47.57013" lon="-3.10009">
        <ele>4.8</ele>
        <time>2018-01-21T14:59:51.000Z</time>
      </trkpt>
      <trkpt lat="47.57013" lon="-3.10009">
        <ele>4.8</ele>
        <time>2018-01-21T14:59:52.000Z</time>
      </trkpt>
      <trkpt lat="47.57013" lon="-3.10009">
        <ele>4.8</ele>
        <time>2018-01-21T14:59:53.000Z</time>
      </trkpt>
      <trkpt lat="47.57013" lon="-3.10009">
        <ele>4.8</ele>
        <time>2018-01-21T14:59:54.000Z</time>
      </trkpt>
      <trkpt lat="47.57013" lon="-3.10009">
        <ele>4.8</ele>
        <time>2018-01-21T14:59:55.000Z</time>
      </trkpt>
      <trkpt lat="47.57013" lon="-3.10009">
        <ele>4.8</ele>
        <time>2018-01-21T14:59:56.000Z</time>
      </trkpt>
      <trkpt lat="47.57013" lon="-3.10009">
        <ele>4.8</ele>
        <time>2018-01-21T14:59:57.000Z</time>
      </trkpt>
      <trkpt lat="47.57013" lon="-3.10009">
        <ele>4.8</ele>
        <time>2018-01-21T14:59:58.000Z</time>
      </trkpt>
      <trkpt lat="47.57013" lon="-3.10009">
        <ele>4.8</ele>
        <time>2018-01-21T14:59:59.000Z</time>
      </trkpt>
      <trkpt lat="47.57013" lon="-3.10009">
        <ele>4.8</ele>
        <time>2018-01-21T15:00:00.000Z</time>
      </trkpt>
      <trkpt lat="47.57013" lon="-3.10009">
        <ele>4.8</ele>
        <time>2018-01-21T15:00:01.000Z</time>
      </trkpt>
      <trkpt lat="47.57013" lon="-3.10009">
        <ele>4.8</ele>
        <time>2018-01-21T15:00:02.000Z</time>
      </trkpt>
      <trkpt lat="47.57013" lon="-3.10009">
        <ele>4.8</ele>
        <time>2018-01-21T15:00:03.000Z</time>
      </trkpt>
      <trkpt lat="47.57013" lon="-3.10009">
        <ele>4.8</ele>
        <time>2018-01-21T15:00:04.000Z</time>
      </trkpt>
      <trkpt lat="47.57013" lon="-3.10009">
        <ele>4.8</ele>
        <time>2018-01-21T15:00:05.000Z</time>
      </trkpt>
      <trkpt lat="47.57013" lon="-3.10009">
        <ele>4.8</ele>
        <time>2018-01-21T15:00:06.000Z</time>
      </trkpt>
      <trkpt lat="47.57013" lon="-3.10009">
        <ele>4.8</ele>
        <time>2018-01-21T15:00:07.000Z</time>
      </trkpt>
      <trkpt lat="47.57013" lon="-3.10009">
        <ele>4.8</ele>
        <time>2018-01-21T15:00:08.000Z</time>
      </trkpt>
      <trkpt lat="47.57013" lon="-3.10009">
        <ele>4.8</ele>
        <time>2018-01-21T15:00:09.000Z</time>
      </trkpt>
      <trkpt lat="47.57013" lon="-3.10009">
        <ele>4.8</ele>
        <time>2018-01-21T15:00:10.000Z</time>
      </trkpt>
      <trkpt lat="47.57013" lon="-3.10009">
        <ele>4.8</ele>
        <time>2018-01-21T15:00:11.000Z</time>
      </trkpt>
      <trkpt lat="47.57013" lon="-3.10009">
        <ele>4.8</ele>
        <time>2018-01-21T15:00:12.000Z</time>
      </trkpt>
      <trkpt lat="47.57013" lon="-3.10009">
        <ele>4.8</ele>
        <time>2018-01-21T15:00:13.000Z</time>
      </trkpt>
      <trkpt lat="47.57013" lon="-3.10009">
        <ele>4.8</ele>
        <time>2018-01-21T15:00:14.000Z</time>
      </trkpt>
      <trkpt lat="47.57013" lon="-3.10009">
        <ele>4.8</ele>
        <time>2018-01-21T15:00:15.000Z</time>
      </trkpt>
      <trkpt lat="47.57013" lon="-3.10009">
        <ele>4.8</ele>
        <time>2018-01-21T15:00:16.000Z</time>
      </trkpt>
      <trkpt lat="47.57013" lon="-3.10009">
        <ele>4.8</ele>
        <time>2018-01-21T15:00:17.000Z</time>
      </trkpt>
      <trkpt lat="47.57013" lon="-3.10009">
        <ele>4.8</ele>
        <time>2018-01-21T15:00:18.000Z</time>
      </trkpt>
      <trkpt lat="47.57013" lon="-3.10009">
        <ele>4.8</ele>
        <time>2018-01-21T15:00:19.000Z</time>
      </trkpt>
      <trkpt lat="47.57013" lon="-3.10009">
        <ele>4.8</ele>
        <time>2018-01-21T15:00:20.000Z</time>
      </trkpt>
      <trkpt lat="47.57013" lon="-3.10009">
        <ele>4.8</ele>
        <time>2018-01-21T15:00:21.000Z</time>
      </trkpt>
      <trkpt lat="47.57013" lon="-3.10009">
        <ele>4.8</ele>
        <time>2018-01-21T15:00:22.000Z</time>
      </trkpt>
      <trkpt lat="47.57013" lon="-3.10009">
        <ele>4.8</ele>
        <time>2018-01-21T15:00:23.000Z</time>
      </trkpt>
      <trkpt lat="47.57013" lon="-3.10009">
        <ele>4.8</ele>
        <time>2018-01-21T15:00:24.000Z</time>
      </trkpt>
      <trkpt lat="47.57013" lon="-3.10009">
        <ele>4.8</ele>
        <time>2018-01-21T15:00:25.000Z</time>
      </trkpt>
      <trkpt lat="47.57013" lon="-3.10009">
        <ele>4.8</ele>
        <time>2018-01-21T15:00:26.000Z</time>
      </trkpt>
      <trkpt lat="47.57013" lon="-3.10009">
        <ele>4.8</ele>
        <time>2018-01-21T15:00:27.000Z</time>
      </trkpt>
      <trkpt lat="47.57013" lon="-3.10009">
        <ele>4.8</ele>
        <time>2018-01-21T15:00:28.000Z</time>
      </trkpt>
      <trkpt lat="47.57013" lon="-3.10009">
        <ele>4.8</ele>
        <time>2018-01-21T15:00:29.000Z</time>
      </trkpt>
      <trkpt lat="47.57013" lon="-3.10009">
        <ele>4.8</ele>
        <time>2018-01-21T15:00:30.000Z</time>
      </trkpt>
      <trkpt lat="47.57013" lon="-3.10009">
        <ele>4.8</ele>
        <time>2018-01-21T15:00:31.000Z</time>
      </trkpt>
      <trkpt lat="47.57013" lon="-3.10009">
        <ele>4.8</ele>
        <time>2018-01-21T15:00:32.000Z</time>
      </trkpt>
      <trkpt lat="47.57013" lon="-3.10009">
        <ele>4.8</ele>
        <time>2018-01-21T15:00:33.000Z</time>
      </trkpt>
      <trkpt lat="47.57013" lon="-3.10009">
        <ele>4.8</ele>
        <time>2018-01-21T15:00:34.000Z</time>
      </trkpt>
      <trkpt lat="47.57013" lon="-3.10009">
        <ele>4.8</ele>
        <time>2018-01-21T15:00:35.000Z</time>
      </trkpt>
      <trkpt lat="47.57013" lon="-3.10009">
        <ele>4.8</ele>
        <time>2018-01-21T15:00:36.000Z</time>
      </trkpt>
      <trkpt lat="47.57013" lon="-3.10009">
        <ele>4.8</ele>
        <time>2018-01-21T15:00:37.000Z</time>
      </trkpt>
      <trkpt lat="47.57013" lon="-3.10009">
        <ele>4.8</ele>
        <time>2018-01-21T15:00:38.000Z</time>
      </trkpt>
      <trkpt lat="47.57013" lon="-3.10009">
        <ele>4.8</ele>
        <time>2018-01-21T15:00:39.000Z</time>
      </trkpt>
      <trkpt lat="47.57013" lon="-3.10009">
        <ele>4.8</ele>
        <time>2018-01-21T15:00:40.000Z</time>
      </trkpt>
      <trkpt lat="47.57013" lon="-3.10009">
        <ele>4.8</ele>
        <time>2018-01-21T15:00:41.000Z</time>
      </trkpt>
      <trkpt lat="47.57013" lon="-3.10009">
        <ele>4.8</ele>
        <time>2018-01-21T15:00:42.000Z</time>
      </trkpt>
      <trkpt lat="47.57013" lon="-3.10009">
        <ele>4.8</ele>
        <time>2018-01-21T15:00:43.000Z</time>
      </trkpt>
      <trkpt lat="47.57013" lon="-3.10009">
        <ele>4.8</ele>
        <time>2018-01-21T15:00:44.000Z</time>
      </trkpt>
      <trkpt lat="47.57013" lon="-3.10009">
        <ele>4.8</ele>
        <time>2018-01-21T15:00:45.000Z</time>
      </trkpt>
      <trkpt lat="47.57013" lon="-3.10009">
        <ele>4.8</ele>
        <time>2018-01-21T15:00:46.000Z</time>
      </trkpt>
      <trkpt lat="47.57013" lon="-3.10009">
        <ele>4.8</ele>
        <time>2018-01-21T15:00:47.000Z</time>
      </trkpt>
      <trkpt lat="47.57013" lon="-3.10009">
        <ele>4.8</ele>
        <time>2018-01-21T15:00:48.000Z</time>
      </trkpt>
      <trkpt lat="47.57013" lon="-3.10009">
        <ele>4.8</ele>
        <time>2018-01-21T15:00:49.000Z</time>
      </trkpt>
      <trkpt lat="47.57013" lon="-3.10009">
        <ele>4.8</ele>
        <time>2018-01-21T15:00:50.000Z</time>
      </trkpt>
      <trkpt lat="47.57013" lon="-3.10009">
        <ele>4.8</ele>
        <time>2018-01-21T15:00:51.000Z</time>
      </trkpt>
      <trkpt lat="47.57013" lon="-3.10009">
        <ele>4.8</ele>
        <time>2018-01-21T15:00:52.000Z</time>
      </trkpt>
    </trkseg>
  </trk>
</gpx>